<?xml version="1.0" encoding="UTF-8" standalone="no" ?>
<gpx xmlns="http://www.topografix.com/GPX/1/1" xmlns:xsi="http://www.w3.org/2001/XMLSchema-instance" xsi:schemaLocation="http://www.topografix.com/GPX/1/1 http://www.topografix.com/GPX/1/1/gpx.xsd" version="1.1" creator="VisuGPX - https://www.visugpx.com">
  <metadata>
    <name>Mtp St Gely St Sauveur</name>
  </metadata>
  <trk>
    <name><![CDATA[Mtp St Gely St Sauveur_1]]></name>
    <trkseg>
      <trkpt lat="43.61156" lon="3.87732">
        <ele>47</ele>
        <time>2021-02-20T11:33:28Z</time>
      </trkpt>
      <trkpt lat="43.6116" lon="3.87737">
        <ele>47</ele>
        <time>2021-02-20T11:33:31Z</time>
      </trkpt>
      <trkpt lat="43.6116" lon="3.87737">
        <ele>44</ele>
        <time>2021-02-20T11:33:32Z</time>
      </trkpt>
      <trkpt lat="43.61164" lon="3.87733">
        <ele>42</ele>
        <time>2021-02-20T11:33:45Z</time>
      </trkpt>
      <trkpt lat="43.61165" lon="3.87731">
        <ele>42</ele>
        <time>2021-02-20T11:33:46Z</time>
      </trkpt>
      <trkpt lat="43.61166" lon="3.87726">
        <ele>42</ele>
        <time>2021-02-20T11:33:48Z</time>
      </trkpt>
      <trkpt lat="43.61168" lon="3.87722">
        <ele>42</ele>
        <time>2021-02-20T11:33:49Z</time>
      </trkpt>
      <trkpt lat="43.61169" lon="3.87718">
        <ele>42</ele>
        <time>2021-02-20T11:33:50Z</time>
      </trkpt>
      <trkpt lat="43.6117" lon="3.87714">
        <ele>42</ele>
        <time>2021-02-20T11:33:51Z</time>
      </trkpt>
      <trkpt lat="43.61171" lon="3.87709">
        <ele>42</ele>
        <time>2021-02-20T11:33:52Z</time>
      </trkpt>
      <trkpt lat="43.61173" lon="3.87703">
        <ele>42</ele>
        <time>2021-02-20T11:33:53Z</time>
      </trkpt>
      <trkpt lat="43.61174" lon="3.87698">
        <ele>42</ele>
        <time>2021-02-20T11:33:54Z</time>
      </trkpt>
      <trkpt lat="43.61175" lon="3.87692">
        <ele>43</ele>
        <time>2021-02-20T11:33:55Z</time>
      </trkpt>
      <trkpt lat="43.61176" lon="3.87686">
        <ele>43</ele>
        <time>2021-02-20T11:33:56Z</time>
      </trkpt>
      <trkpt lat="43.61177" lon="3.8768">
        <ele>43</ele>
        <time>2021-02-20T11:33:57Z</time>
      </trkpt>
      <trkpt lat="43.61179" lon="3.87673">
        <ele>43</ele>
        <time>2021-02-20T11:33:58Z</time>
      </trkpt>
      <trkpt lat="43.6118" lon="3.87666">
        <ele>43</ele>
        <time>2021-02-20T11:33:59Z</time>
      </trkpt>
      <trkpt lat="43.61182" lon="3.87659">
        <ele>43</ele>
        <time>2021-02-20T11:34:00Z</time>
      </trkpt>
      <trkpt lat="43.61185" lon="3.87646">
        <ele>43</ele>
        <time>2021-02-20T11:34:01Z</time>
      </trkpt>
      <trkpt lat="43.61185" lon="3.87641">
        <ele>43</ele>
        <time>2021-02-20T11:34:03Z</time>
      </trkpt>
      <trkpt lat="43.61185" lon="3.87637">
        <ele>43</ele>
        <time>2021-02-20T11:34:04Z</time>
      </trkpt>
      <trkpt lat="43.61187" lon="3.87633">
        <ele>44</ele>
        <time>2021-02-20T11:34:05Z</time>
      </trkpt>
      <trkpt lat="43.6119" lon="3.87626">
        <ele>44</ele>
        <time>2021-02-20T11:34:06Z</time>
      </trkpt>
      <trkpt lat="43.61191" lon="3.87622">
        <ele>44</ele>
        <time>2021-02-20T11:34:07Z</time>
      </trkpt>
      <trkpt lat="43.61195" lon="3.87607">
        <ele>44</ele>
        <time>2021-02-20T11:34:11Z</time>
      </trkpt>
      <trkpt lat="43.61199" lon="3.87594">
        <ele>44</ele>
        <time>2021-02-20T11:34:16Z</time>
      </trkpt>
      <trkpt lat="43.612" lon="3.87577">
        <ele>44</ele>
        <time>2021-02-20T11:34:19Z</time>
      </trkpt>
      <trkpt lat="43.612" lon="3.87566">
        <ele>44</ele>
        <time>2021-02-20T11:34:21Z</time>
      </trkpt>
      <trkpt lat="43.612" lon="3.87561">
        <ele>44</ele>
        <time>2021-02-20T11:34:22Z</time>
      </trkpt>
      <trkpt lat="43.61201" lon="3.87556">
        <ele>44</ele>
        <time>2021-02-20T11:34:23Z</time>
      </trkpt>
      <trkpt lat="43.61201" lon="3.87551">
        <ele>44</ele>
        <time>2021-02-20T11:34:24Z</time>
      </trkpt>
      <trkpt lat="43.61201" lon="3.87545">
        <ele>46</ele>
        <time>2021-02-20T11:34:25Z</time>
      </trkpt>
      <trkpt lat="43.61202" lon="3.8754">
        <ele>46</ele>
        <time>2021-02-20T11:34:26Z</time>
      </trkpt>
      <trkpt lat="43.61202" lon="3.87527">
        <ele>46</ele>
        <time>2021-02-20T11:34:29Z</time>
      </trkpt>
      <trkpt lat="43.61197" lon="3.87526">
        <ele>46</ele>
        <time>2021-02-20T11:34:32Z</time>
      </trkpt>
      <trkpt lat="43.61195" lon="3.87528">
        <ele>46</ele>
        <time>2021-02-20T11:34:33Z</time>
      </trkpt>
      <trkpt lat="43.61193" lon="3.87528">
        <ele>46</ele>
        <time>2021-02-20T11:34:34Z</time>
      </trkpt>
      <trkpt lat="43.6119" lon="3.8753">
        <ele>47</ele>
        <time>2021-02-20T11:34:35Z</time>
      </trkpt>
      <trkpt lat="43.61188" lon="3.87531">
        <ele>47</ele>
        <time>2021-02-20T11:34:36Z</time>
      </trkpt>
      <trkpt lat="43.61185" lon="3.87532">
        <ele>47</ele>
        <time>2021-02-20T11:34:37Z</time>
      </trkpt>
      <trkpt lat="43.61183" lon="3.87533">
        <ele>47</ele>
        <time>2021-02-20T11:34:38Z</time>
      </trkpt>
      <trkpt lat="43.6118" lon="3.87534">
        <ele>47</ele>
        <time>2021-02-20T11:34:39Z</time>
      </trkpt>
      <trkpt lat="43.61178" lon="3.87535">
        <ele>47</ele>
        <time>2021-02-20T11:34:40Z</time>
      </trkpt>
      <trkpt lat="43.61176" lon="3.87536">
        <ele>47</ele>
        <time>2021-02-20T11:34:41Z</time>
      </trkpt>
      <trkpt lat="43.61173" lon="3.87537">
        <ele>47</ele>
        <time>2021-02-20T11:34:42Z</time>
      </trkpt>
      <trkpt lat="43.61171" lon="3.87537">
        <ele>47</ele>
        <time>2021-02-20T11:34:43Z</time>
      </trkpt>
      <trkpt lat="43.61169" lon="3.87534">
        <ele>47</ele>
        <time>2021-02-20T11:34:44Z</time>
      </trkpt>
      <trkpt lat="43.61168" lon="3.8753">
        <ele>47</ele>
        <time>2021-02-20T11:34:45Z</time>
      </trkpt>
      <trkpt lat="43.61168" lon="3.87526">
        <ele>49</ele>
        <time>2021-02-20T11:34:46Z</time>
      </trkpt>
      <trkpt lat="43.61167" lon="3.87522">
        <ele>49</ele>
        <time>2021-02-20T11:34:47Z</time>
      </trkpt>
      <trkpt lat="43.61167" lon="3.87516">
        <ele>49</ele>
        <time>2021-02-20T11:34:48Z</time>
      </trkpt>
      <trkpt lat="43.61167" lon="3.87511">
        <ele>49</ele>
        <time>2021-02-20T11:34:49Z</time>
      </trkpt>
      <trkpt lat="43.61168" lon="3.87506">
        <ele>49</ele>
        <time>2021-02-20T11:34:50Z</time>
      </trkpt>
      <trkpt lat="43.61168" lon="3.87501">
        <ele>49</ele>
        <time>2021-02-20T11:34:51Z</time>
      </trkpt>
      <trkpt lat="43.61169" lon="3.87497">
        <ele>49</ele>
        <time>2021-02-20T11:34:52Z</time>
      </trkpt>
      <trkpt lat="43.6117" lon="3.87493">
        <ele>49</ele>
        <time>2021-02-20T11:34:53Z</time>
      </trkpt>
      <trkpt lat="43.61172" lon="3.87489">
        <ele>49</ele>
        <time>2021-02-20T11:34:54Z</time>
      </trkpt>
      <trkpt lat="43.61172" lon="3.87485">
        <ele>49</ele>
        <time>2021-02-20T11:34:55Z</time>
      </trkpt>
      <trkpt lat="43.61173" lon="3.8748">
        <ele>49</ele>
        <time>2021-02-20T11:34:56Z</time>
      </trkpt>
      <trkpt lat="43.61174" lon="3.87476">
        <ele>49</ele>
        <time>2021-02-20T11:34:57Z</time>
      </trkpt>
      <trkpt lat="43.61174" lon="3.87472">
        <ele>49</ele>
        <time>2021-02-20T11:34:58Z</time>
      </trkpt>
      <trkpt lat="43.61174" lon="3.87468">
        <ele>49</ele>
        <time>2021-02-20T11:34:59Z</time>
      </trkpt>
      <trkpt lat="43.61174" lon="3.87465">
        <ele>49</ele>
        <time>2021-02-20T11:35:00Z</time>
      </trkpt>
      <trkpt lat="43.61175" lon="3.87461">
        <ele>49</ele>
        <time>2021-02-20T11:35:01Z</time>
      </trkpt>
      <trkpt lat="43.61175" lon="3.87457">
        <ele>49</ele>
        <time>2021-02-20T11:35:02Z</time>
      </trkpt>
      <trkpt lat="43.61176" lon="3.87453">
        <ele>49</ele>
        <time>2021-02-20T11:35:03Z</time>
      </trkpt>
      <trkpt lat="43.61176" lon="3.87449">
        <ele>49</ele>
        <time>2021-02-20T11:35:04Z</time>
      </trkpt>
      <trkpt lat="43.61176" lon="3.87445">
        <ele>54</ele>
        <time>2021-02-20T11:35:05Z</time>
      </trkpt>
      <trkpt lat="43.61175" lon="3.87442">
        <ele>54</ele>
        <time>2021-02-20T11:35:06Z</time>
      </trkpt>
      <trkpt lat="43.61173" lon="3.87438">
        <ele>54</ele>
        <time>2021-02-20T11:35:08Z</time>
      </trkpt>
      <trkpt lat="43.61171" lon="3.87437">
        <ele>54</ele>
        <time>2021-02-20T11:35:09Z</time>
      </trkpt>
      <trkpt lat="43.6117" lon="3.87434">
        <ele>54</ele>
        <time>2021-02-20T11:35:10Z</time>
      </trkpt>
      <trkpt lat="43.61169" lon="3.87432">
        <ele>54</ele>
        <time>2021-02-20T11:35:11Z</time>
      </trkpt>
      <trkpt lat="43.6117" lon="3.87429">
        <ele>54</ele>
        <time>2021-02-20T11:35:12Z</time>
      </trkpt>
      <trkpt lat="43.61172" lon="3.87425">
        <ele>54</ele>
        <time>2021-02-20T11:35:13Z</time>
      </trkpt>
      <trkpt lat="43.61174" lon="3.87421">
        <ele>54</ele>
        <time>2021-02-20T11:35:14Z</time>
      </trkpt>
      <trkpt lat="43.61176" lon="3.87418">
        <ele>59</ele>
        <time>2021-02-20T11:35:15Z</time>
      </trkpt>
      <trkpt lat="43.61177" lon="3.87415">
        <ele>59</ele>
        <time>2021-02-20T11:35:16Z</time>
      </trkpt>
      <trkpt lat="43.61177" lon="3.87412">
        <ele>59</ele>
        <time>2021-02-20T11:35:17Z</time>
      </trkpt>
      <trkpt lat="43.61177" lon="3.87408">
        <ele>59</ele>
        <time>2021-02-20T11:35:18Z</time>
      </trkpt>
      <trkpt lat="43.61178" lon="3.87405">
        <ele>59</ele>
        <time>2021-02-20T11:35:19Z</time>
      </trkpt>
      <trkpt lat="43.61179" lon="3.87401">
        <ele>59</ele>
        <time>2021-02-20T11:35:21Z</time>
      </trkpt>
      <trkpt lat="43.6118" lon="3.87398">
        <ele>59</ele>
        <time>2021-02-20T11:35:23Z</time>
      </trkpt>
      <trkpt lat="43.61181" lon="3.87396">
        <ele>59</ele>
        <time>2021-02-20T11:35:24Z</time>
      </trkpt>
      <trkpt lat="43.61181" lon="3.87393">
        <ele>59</ele>
        <time>2021-02-20T11:35:26Z</time>
      </trkpt>
      <trkpt lat="43.61181" lon="3.87391">
        <ele>59</ele>
        <time>2021-02-20T11:35:29Z</time>
      </trkpt>
      <trkpt lat="43.61183" lon="3.87375">
        <ele>68</ele>
        <time>2021-02-20T11:36:55Z</time>
      </trkpt>
      <trkpt lat="43.61185" lon="3.87371">
        <ele>68</ele>
        <time>2021-02-20T11:36:56Z</time>
      </trkpt>
      <trkpt lat="43.61187" lon="3.87368">
        <ele>68</ele>
        <time>2021-02-20T11:36:57Z</time>
      </trkpt>
      <trkpt lat="43.61189" lon="3.87365">
        <ele>68</ele>
        <time>2021-02-20T11:36:58Z</time>
      </trkpt>
      <trkpt lat="43.6119" lon="3.87362">
        <ele>68</ele>
        <time>2021-02-20T11:36:59Z</time>
      </trkpt>
      <trkpt lat="43.61191" lon="3.8736">
        <ele>68</ele>
        <time>2021-02-20T11:37:00Z</time>
      </trkpt>
      <trkpt lat="43.61192" lon="3.87357">
        <ele>68</ele>
        <time>2021-02-20T11:37:01Z</time>
      </trkpt>
      <trkpt lat="43.61198" lon="3.87347">
        <ele>68</ele>
        <time>2021-02-20T11:37:04Z</time>
      </trkpt>
      <trkpt lat="43.61206" lon="3.87334">
        <ele>68</ele>
        <time>2021-02-20T11:37:06Z</time>
      </trkpt>
      <trkpt lat="43.61211" lon="3.87321">
        <ele>68</ele>
        <time>2021-02-20T11:37:08Z</time>
      </trkpt>
      <trkpt lat="43.61218" lon="3.87308">
        <ele>68</ele>
        <time>2021-02-20T11:37:11Z</time>
      </trkpt>
      <trkpt lat="43.61226" lon="3.87298">
        <ele>68</ele>
        <time>2021-02-20T11:37:14Z</time>
      </trkpt>
      <trkpt lat="43.61233" lon="3.87289">
        <ele>68</ele>
        <time>2021-02-20T11:37:16Z</time>
      </trkpt>
      <trkpt lat="43.61239" lon="3.87283">
        <ele>68</ele>
        <time>2021-02-20T11:37:20Z</time>
      </trkpt>
      <trkpt lat="43.61249" lon="3.87271">
        <ele>68</ele>
        <time>2021-02-20T11:37:23Z</time>
      </trkpt>
      <trkpt lat="43.61253" lon="3.87256">
        <ele>68</ele>
        <time>2021-02-20T11:37:24Z</time>
      </trkpt>
      <trkpt lat="43.61254" lon="3.87248">
        <ele>68</ele>
        <time>2021-02-20T11:37:26Z</time>
      </trkpt>
      <trkpt lat="43.61254" lon="3.87242">
        <ele>68</ele>
        <time>2021-02-20T11:37:27Z</time>
      </trkpt>
      <trkpt lat="43.61255" lon="3.87237">
        <ele>68</ele>
        <time>2021-02-20T11:37:28Z</time>
      </trkpt>
      <trkpt lat="43.61254" lon="3.87232">
        <ele>68</ele>
        <time>2021-02-20T11:37:29Z</time>
      </trkpt>
      <trkpt lat="43.61253" lon="3.87227">
        <ele>68</ele>
        <time>2021-02-20T11:37:30Z</time>
      </trkpt>
      <trkpt lat="43.61252" lon="3.87222">
        <ele>68</ele>
        <time>2021-02-20T11:37:31Z</time>
      </trkpt>
      <trkpt lat="43.61251" lon="3.87216">
        <ele>68</ele>
        <time>2021-02-20T11:37:32Z</time>
      </trkpt>
      <trkpt lat="43.61251" lon="3.8721">
        <ele>68</ele>
        <time>2021-02-20T11:37:33Z</time>
      </trkpt>
      <trkpt lat="43.61251" lon="3.87203">
        <ele>68</ele>
        <time>2021-02-20T11:37:34Z</time>
      </trkpt>
      <trkpt lat="43.61252" lon="3.87197">
        <ele>59</ele>
        <time>2021-02-20T11:37:35Z</time>
      </trkpt>
      <trkpt lat="43.61252" lon="3.87193">
        <ele>59</ele>
        <time>2021-02-20T11:37:36Z</time>
      </trkpt>
      <trkpt lat="43.61253" lon="3.87189">
        <ele>59</ele>
        <time>2021-02-20T11:37:37Z</time>
      </trkpt>
      <trkpt lat="43.61253" lon="3.87186">
        <ele>59</ele>
        <time>2021-02-20T11:37:38Z</time>
      </trkpt>
      <trkpt lat="43.61255" lon="3.87184">
        <ele>59</ele>
        <time>2021-02-20T11:37:39Z</time>
      </trkpt>
      <trkpt lat="43.61257" lon="3.87182">
        <ele>59</ele>
        <time>2021-02-20T11:37:40Z</time>
      </trkpt>
      <trkpt lat="43.61259" lon="3.87181">
        <ele>59</ele>
        <time>2021-02-20T11:37:41Z</time>
      </trkpt>
      <trkpt lat="43.6126" lon="3.87177">
        <ele>59</ele>
        <time>2021-02-20T11:37:43Z</time>
      </trkpt>
      <trkpt lat="43.6126" lon="3.87173">
        <ele>59</ele>
        <time>2021-02-20T11:37:44Z</time>
      </trkpt>
      <trkpt lat="43.6126" lon="3.87167">
        <ele>56</ele>
        <time>2021-02-20T11:37:45Z</time>
      </trkpt>
      <trkpt lat="43.6126" lon="3.87162">
        <ele>56</ele>
        <time>2021-02-20T11:37:46Z</time>
      </trkpt>
      <trkpt lat="43.61261" lon="3.87157">
        <ele>56</ele>
        <time>2021-02-20T11:37:47Z</time>
      </trkpt>
      <trkpt lat="43.61262" lon="3.87152">
        <ele>56</ele>
        <time>2021-02-20T11:37:48Z</time>
      </trkpt>
      <trkpt lat="43.61264" lon="3.87143">
        <ele>56</ele>
        <time>2021-02-20T11:37:49Z</time>
      </trkpt>
      <trkpt lat="43.61266" lon="3.87136">
        <ele>56</ele>
        <time>2021-02-20T11:37:50Z</time>
      </trkpt>
      <trkpt lat="43.61268" lon="3.87129">
        <ele>56</ele>
        <time>2021-02-20T11:37:51Z</time>
      </trkpt>
      <trkpt lat="43.61271" lon="3.87121">
        <ele>56</ele>
        <time>2021-02-20T11:37:52Z</time>
      </trkpt>
      <trkpt lat="43.61273" lon="3.87113">
        <ele>56</ele>
        <time>2021-02-20T11:37:53Z</time>
      </trkpt>
      <trkpt lat="43.61274" lon="3.87105">
        <ele>56</ele>
        <time>2021-02-20T11:37:54Z</time>
      </trkpt>
      <trkpt lat="43.61275" lon="3.87098">
        <ele>55</ele>
        <time>2021-02-20T11:37:55Z</time>
      </trkpt>
      <trkpt lat="43.61277" lon="3.87092">
        <ele>55</ele>
        <time>2021-02-20T11:37:56Z</time>
      </trkpt>
      <trkpt lat="43.61279" lon="3.87085">
        <ele>55</ele>
        <time>2021-02-20T11:37:57Z</time>
      </trkpt>
      <trkpt lat="43.61281" lon="3.87077">
        <ele>55</ele>
        <time>2021-02-20T11:37:58Z</time>
      </trkpt>
      <trkpt lat="43.61282" lon="3.87068">
        <ele>55</ele>
        <time>2021-02-20T11:37:59Z</time>
      </trkpt>
      <trkpt lat="43.61282" lon="3.87059">
        <ele>55</ele>
        <time>2021-02-20T11:38:00Z</time>
      </trkpt>
      <trkpt lat="43.61285" lon="3.87051">
        <ele>55</ele>
        <time>2021-02-20T11:38:01Z</time>
      </trkpt>
      <trkpt lat="43.61287" lon="3.87043">
        <ele>55</ele>
        <time>2021-02-20T11:38:02Z</time>
      </trkpt>
      <trkpt lat="43.61289" lon="3.87035">
        <ele>55</ele>
        <time>2021-02-20T11:38:03Z</time>
      </trkpt>
      <trkpt lat="43.61291" lon="3.87027">
        <ele>55</ele>
        <time>2021-02-20T11:38:04Z</time>
      </trkpt>
      <trkpt lat="43.61293" lon="3.87019">
        <ele>52</ele>
        <time>2021-02-20T11:38:05Z</time>
      </trkpt>
      <trkpt lat="43.61295" lon="3.87012">
        <ele>52</ele>
        <time>2021-02-20T11:38:06Z</time>
      </trkpt>
      <trkpt lat="43.61296" lon="3.87004">
        <ele>52</ele>
        <time>2021-02-20T11:38:07Z</time>
      </trkpt>
      <trkpt lat="43.61298" lon="3.86997">
        <ele>52</ele>
        <time>2021-02-20T11:38:08Z</time>
      </trkpt>
      <trkpt lat="43.61299" lon="3.8699">
        <ele>52</ele>
        <time>2021-02-20T11:38:09Z</time>
      </trkpt>
      <trkpt lat="43.61302" lon="3.86982">
        <ele>52</ele>
        <time>2021-02-20T11:38:10Z</time>
      </trkpt>
      <trkpt lat="43.61304" lon="3.86973">
        <ele>52</ele>
        <time>2021-02-20T11:38:11Z</time>
      </trkpt>
      <trkpt lat="43.61306" lon="3.86965">
        <ele>52</ele>
        <time>2021-02-20T11:38:12Z</time>
      </trkpt>
      <trkpt lat="43.61308" lon="3.86956">
        <ele>52</ele>
        <time>2021-02-20T11:38:13Z</time>
      </trkpt>
      <trkpt lat="43.61308" lon="3.86946">
        <ele>52</ele>
        <time>2021-02-20T11:38:14Z</time>
      </trkpt>
      <trkpt lat="43.61307" lon="3.86937">
        <ele>50</ele>
        <time>2021-02-20T11:38:15Z</time>
      </trkpt>
      <trkpt lat="43.61305" lon="3.86928">
        <ele>50</ele>
        <time>2021-02-20T11:38:16Z</time>
      </trkpt>
      <trkpt lat="43.61305" lon="3.86921">
        <ele>50</ele>
        <time>2021-02-20T11:38:17Z</time>
      </trkpt>
      <trkpt lat="43.61305" lon="3.86916">
        <ele>50</ele>
        <time>2021-02-20T11:38:18Z</time>
      </trkpt>
      <trkpt lat="43.61307" lon="3.8691">
        <ele>50</ele>
        <time>2021-02-20T11:38:19Z</time>
      </trkpt>
      <trkpt lat="43.61309" lon="3.86904">
        <ele>50</ele>
        <time>2021-02-20T11:38:20Z</time>
      </trkpt>
      <trkpt lat="43.6131" lon="3.86898">
        <ele>50</ele>
        <time>2021-02-20T11:38:21Z</time>
      </trkpt>
      <trkpt lat="43.61311" lon="3.86889">
        <ele>50</ele>
        <time>2021-02-20T11:38:22Z</time>
      </trkpt>
      <trkpt lat="43.61312" lon="3.86881">
        <ele>50</ele>
        <time>2021-02-20T11:38:23Z</time>
      </trkpt>
      <trkpt lat="43.61314" lon="3.86873">
        <ele>50</ele>
        <time>2021-02-20T11:38:24Z</time>
      </trkpt>
      <trkpt lat="43.61315" lon="3.86865">
        <ele>46</ele>
        <time>2021-02-20T11:38:25Z</time>
      </trkpt>
      <trkpt lat="43.61316" lon="3.86857">
        <ele>46</ele>
        <time>2021-02-20T11:38:26Z</time>
      </trkpt>
      <trkpt lat="43.61318" lon="3.8685">
        <ele>46</ele>
        <time>2021-02-20T11:38:27Z</time>
      </trkpt>
      <trkpt lat="43.61319" lon="3.86842">
        <ele>46</ele>
        <time>2021-02-20T11:38:28Z</time>
      </trkpt>
      <trkpt lat="43.6132" lon="3.86834">
        <ele>46</ele>
        <time>2021-02-20T11:38:29Z</time>
      </trkpt>
      <trkpt lat="43.61322" lon="3.86827">
        <ele>46</ele>
        <time>2021-02-20T11:38:30Z</time>
      </trkpt>
      <trkpt lat="43.61323" lon="3.86819">
        <ele>46</ele>
        <time>2021-02-20T11:38:31Z</time>
      </trkpt>
      <trkpt lat="43.61324" lon="3.86812">
        <ele>46</ele>
        <time>2021-02-20T11:38:32Z</time>
      </trkpt>
      <trkpt lat="43.61326" lon="3.86805">
        <ele>46</ele>
        <time>2021-02-20T11:38:33Z</time>
      </trkpt>
      <trkpt lat="43.61326" lon="3.86798">
        <ele>46</ele>
        <time>2021-02-20T11:38:34Z</time>
      </trkpt>
      <trkpt lat="43.61327" lon="3.86794">
        <ele>43</ele>
        <time>2021-02-20T11:38:35Z</time>
      </trkpt>
      <trkpt lat="43.61328" lon="3.8679">
        <ele>43</ele>
        <time>2021-02-20T11:38:36Z</time>
      </trkpt>
      <trkpt lat="43.61329" lon="3.86788">
        <ele>43</ele>
        <time>2021-02-20T11:38:37Z</time>
      </trkpt>
      <trkpt lat="43.61329" lon="3.86785">
        <ele>43</ele>
        <time>2021-02-20T11:38:38Z</time>
      </trkpt>
      <trkpt lat="43.61331" lon="3.86782">
        <ele>43</ele>
        <time>2021-02-20T11:38:39Z</time>
      </trkpt>
      <trkpt lat="43.61332" lon="3.86777">
        <ele>43</ele>
        <time>2021-02-20T11:38:40Z</time>
      </trkpt>
      <trkpt lat="43.61333" lon="3.86773">
        <ele>43</ele>
        <time>2021-02-20T11:38:41Z</time>
      </trkpt>
      <trkpt lat="43.61335" lon="3.86768">
        <ele>43</ele>
        <time>2021-02-20T11:38:42Z</time>
      </trkpt>
      <trkpt lat="43.61337" lon="3.86762">
        <ele>43</ele>
        <time>2021-02-20T11:38:43Z</time>
      </trkpt>
      <trkpt lat="43.61339" lon="3.86757">
        <ele>43</ele>
        <time>2021-02-20T11:38:44Z</time>
      </trkpt>
      <trkpt lat="43.61342" lon="3.86752">
        <ele>44</ele>
        <time>2021-02-20T11:38:45Z</time>
      </trkpt>
      <trkpt lat="43.61344" lon="3.86746">
        <ele>44</ele>
        <time>2021-02-20T11:38:46Z</time>
      </trkpt>
      <trkpt lat="43.61346" lon="3.86741">
        <ele>44</ele>
        <time>2021-02-20T11:38:47Z</time>
      </trkpt>
      <trkpt lat="43.61347" lon="3.86736">
        <ele>44</ele>
        <time>2021-02-20T11:38:48Z</time>
      </trkpt>
      <trkpt lat="43.61349" lon="3.8673">
        <ele>44</ele>
        <time>2021-02-20T11:38:49Z</time>
      </trkpt>
      <trkpt lat="43.61351" lon="3.86725">
        <ele>44</ele>
        <time>2021-02-20T11:38:50Z</time>
      </trkpt>
      <trkpt lat="43.61353" lon="3.8672">
        <ele>44</ele>
        <time>2021-02-20T11:38:51Z</time>
      </trkpt>
      <trkpt lat="43.61355" lon="3.86714">
        <ele>44</ele>
        <time>2021-02-20T11:38:52Z</time>
      </trkpt>
      <trkpt lat="43.61357" lon="3.86708">
        <ele>44</ele>
        <time>2021-02-20T11:38:53Z</time>
      </trkpt>
      <trkpt lat="43.61358" lon="3.86702">
        <ele>44</ele>
        <time>2021-02-20T11:38:54Z</time>
      </trkpt>
      <trkpt lat="43.6136" lon="3.86696">
        <ele>43</ele>
        <time>2021-02-20T11:38:55Z</time>
      </trkpt>
      <trkpt lat="43.61362" lon="3.86691">
        <ele>43</ele>
        <time>2021-02-20T11:38:56Z</time>
      </trkpt>
      <trkpt lat="43.61363" lon="3.86686">
        <ele>43</ele>
        <time>2021-02-20T11:38:57Z</time>
      </trkpt>
      <trkpt lat="43.61365" lon="3.8668">
        <ele>43</ele>
        <time>2021-02-20T11:38:58Z</time>
      </trkpt>
      <trkpt lat="43.61367" lon="3.86673">
        <ele>43</ele>
        <time>2021-02-20T11:38:59Z</time>
      </trkpt>
      <trkpt lat="43.61367" lon="3.86667">
        <ele>43</ele>
        <time>2021-02-20T11:39:00Z</time>
      </trkpt>
      <trkpt lat="43.61368" lon="3.86661">
        <ele>43</ele>
        <time>2021-02-20T11:39:01Z</time>
      </trkpt>
      <trkpt lat="43.61368" lon="3.86654">
        <ele>43</ele>
        <time>2021-02-20T11:39:02Z</time>
      </trkpt>
      <trkpt lat="43.61369" lon="3.86648">
        <ele>43</ele>
        <time>2021-02-20T11:39:03Z</time>
      </trkpt>
      <trkpt lat="43.6137" lon="3.86642">
        <ele>43</ele>
        <time>2021-02-20T11:39:04Z</time>
      </trkpt>
      <trkpt lat="43.61372" lon="3.86635">
        <ele>44</ele>
        <time>2021-02-20T11:39:05Z</time>
      </trkpt>
      <trkpt lat="43.61373" lon="3.86629">
        <ele>44</ele>
        <time>2021-02-20T11:39:06Z</time>
      </trkpt>
      <trkpt lat="43.61374" lon="3.86623">
        <ele>44</ele>
        <time>2021-02-20T11:39:07Z</time>
      </trkpt>
      <trkpt lat="43.61375" lon="3.86617">
        <ele>44</ele>
        <time>2021-02-20T11:39:08Z</time>
      </trkpt>
      <trkpt lat="43.61377" lon="3.8661">
        <ele>44</ele>
        <time>2021-02-20T11:39:09Z</time>
      </trkpt>
      <trkpt lat="43.61379" lon="3.86604">
        <ele>44</ele>
        <time>2021-02-20T11:39:10Z</time>
      </trkpt>
      <trkpt lat="43.61381" lon="3.86598">
        <ele>44</ele>
        <time>2021-02-20T11:39:11Z</time>
      </trkpt>
      <trkpt lat="43.61384" lon="3.86593">
        <ele>44</ele>
        <time>2021-02-20T11:39:12Z</time>
      </trkpt>
      <trkpt lat="43.61387" lon="3.86588">
        <ele>44</ele>
        <time>2021-02-20T11:39:13Z</time>
      </trkpt>
      <trkpt lat="43.6139" lon="3.86583">
        <ele>44</ele>
        <time>2021-02-20T11:39:14Z</time>
      </trkpt>
      <trkpt lat="43.61394" lon="3.86579">
        <ele>43</ele>
        <time>2021-02-20T11:39:15Z</time>
      </trkpt>
      <trkpt lat="43.61397" lon="3.86574">
        <ele>43</ele>
        <time>2021-02-20T11:39:16Z</time>
      </trkpt>
      <trkpt lat="43.61401" lon="3.86569">
        <ele>43</ele>
        <time>2021-02-20T11:39:17Z</time>
      </trkpt>
      <trkpt lat="43.61404" lon="3.86564">
        <ele>43</ele>
        <time>2021-02-20T11:39:18Z</time>
      </trkpt>
      <trkpt lat="43.61408" lon="3.86559">
        <ele>43</ele>
        <time>2021-02-20T11:39:19Z</time>
      </trkpt>
      <trkpt lat="43.61411" lon="3.86554">
        <ele>43</ele>
        <time>2021-02-20T11:39:20Z</time>
      </trkpt>
      <trkpt lat="43.61414" lon="3.86549">
        <ele>43</ele>
        <time>2021-02-20T11:39:21Z</time>
      </trkpt>
      <trkpt lat="43.61416" lon="3.86544">
        <ele>43</ele>
        <time>2021-02-20T11:39:22Z</time>
      </trkpt>
      <trkpt lat="43.61419" lon="3.8654">
        <ele>43</ele>
        <time>2021-02-20T11:39:23Z</time>
      </trkpt>
      <trkpt lat="43.61422" lon="3.86535">
        <ele>43</ele>
        <time>2021-02-20T11:39:24Z</time>
      </trkpt>
      <trkpt lat="43.61425" lon="3.8653">
        <ele>42</ele>
        <time>2021-02-20T11:39:25Z</time>
      </trkpt>
      <trkpt lat="43.61428" lon="3.86526">
        <ele>42</ele>
        <time>2021-02-20T11:39:26Z</time>
      </trkpt>
      <trkpt lat="43.61431" lon="3.86521">
        <ele>42</ele>
        <time>2021-02-20T11:39:27Z</time>
      </trkpt>
      <trkpt lat="43.61435" lon="3.86517">
        <ele>42</ele>
        <time>2021-02-20T11:39:28Z</time>
      </trkpt>
      <trkpt lat="43.61438" lon="3.86512">
        <ele>42</ele>
        <time>2021-02-20T11:39:29Z</time>
      </trkpt>
      <trkpt lat="43.61441" lon="3.86507">
        <ele>42</ele>
        <time>2021-02-20T11:39:30Z</time>
      </trkpt>
      <trkpt lat="43.61444" lon="3.86503">
        <ele>42</ele>
        <time>2021-02-20T11:39:31Z</time>
      </trkpt>
      <trkpt lat="43.61448" lon="3.86498">
        <ele>42</ele>
        <time>2021-02-20T11:39:32Z</time>
      </trkpt>
      <trkpt lat="43.61451" lon="3.86493">
        <ele>42</ele>
        <time>2021-02-20T11:39:33Z</time>
      </trkpt>
      <trkpt lat="43.61454" lon="3.86489">
        <ele>42</ele>
        <time>2021-02-20T11:39:34Z</time>
      </trkpt>
      <trkpt lat="43.61457" lon="3.86484">
        <ele>42</ele>
        <time>2021-02-20T11:39:35Z</time>
      </trkpt>
      <trkpt lat="43.6146" lon="3.8648">
        <ele>42</ele>
        <time>2021-02-20T11:39:36Z</time>
      </trkpt>
      <trkpt lat="43.61463" lon="3.86475">
        <ele>42</ele>
        <time>2021-02-20T11:39:37Z</time>
      </trkpt>
      <trkpt lat="43.61467" lon="3.8647">
        <ele>42</ele>
        <time>2021-02-20T11:39:38Z</time>
      </trkpt>
      <trkpt lat="43.6147" lon="3.86466">
        <ele>42</ele>
        <time>2021-02-20T11:39:39Z</time>
      </trkpt>
      <trkpt lat="43.61473" lon="3.86461">
        <ele>42</ele>
        <time>2021-02-20T11:39:40Z</time>
      </trkpt>
      <trkpt lat="43.61476" lon="3.86456">
        <ele>42</ele>
        <time>2021-02-20T11:39:41Z</time>
      </trkpt>
      <trkpt lat="43.6148" lon="3.86452">
        <ele>42</ele>
        <time>2021-02-20T11:39:42Z</time>
      </trkpt>
      <trkpt lat="43.61483" lon="3.86448">
        <ele>42</ele>
        <time>2021-02-20T11:39:43Z</time>
      </trkpt>
      <trkpt lat="43.61487" lon="3.86444">
        <ele>42</ele>
        <time>2021-02-20T11:39:44Z</time>
      </trkpt>
      <trkpt lat="43.6149" lon="3.86439">
        <ele>43</ele>
        <time>2021-02-20T11:39:45Z</time>
      </trkpt>
      <trkpt lat="43.61493" lon="3.86435">
        <ele>43</ele>
        <time>2021-02-20T11:39:46Z</time>
      </trkpt>
      <trkpt lat="43.61496" lon="3.86429">
        <ele>43</ele>
        <time>2021-02-20T11:39:47Z</time>
      </trkpt>
      <trkpt lat="43.61499" lon="3.86424">
        <ele>43</ele>
        <time>2021-02-20T11:39:48Z</time>
      </trkpt>
      <trkpt lat="43.61502" lon="3.8642">
        <ele>43</ele>
        <time>2021-02-20T11:39:49Z</time>
      </trkpt>
      <trkpt lat="43.61505" lon="3.86415">
        <ele>43</ele>
        <time>2021-02-20T11:39:50Z</time>
      </trkpt>
      <trkpt lat="43.61509" lon="3.86411">
        <ele>43</ele>
        <time>2021-02-20T11:39:51Z</time>
      </trkpt>
      <trkpt lat="43.61512" lon="3.86406">
        <ele>43</ele>
        <time>2021-02-20T11:39:52Z</time>
      </trkpt>
      <trkpt lat="43.61515" lon="3.86401">
        <ele>43</ele>
        <time>2021-02-20T11:39:53Z</time>
      </trkpt>
      <trkpt lat="43.61519" lon="3.86397">
        <ele>43</ele>
        <time>2021-02-20T11:39:54Z</time>
      </trkpt>
      <trkpt lat="43.61522" lon="3.86392">
        <ele>43</ele>
        <time>2021-02-20T11:39:55Z</time>
      </trkpt>
      <trkpt lat="43.61526" lon="3.86387">
        <ele>43</ele>
        <time>2021-02-20T11:39:56Z</time>
      </trkpt>
      <trkpt lat="43.61529" lon="3.86383">
        <ele>43</ele>
        <time>2021-02-20T11:39:57Z</time>
      </trkpt>
      <trkpt lat="43.61533" lon="3.86378">
        <ele>43</ele>
        <time>2021-02-20T11:39:58Z</time>
      </trkpt>
      <trkpt lat="43.61536" lon="3.86374">
        <ele>43</ele>
        <time>2021-02-20T11:39:59Z</time>
      </trkpt>
      <trkpt lat="43.6154" lon="3.86369">
        <ele>43</ele>
        <time>2021-02-20T11:40:00Z</time>
      </trkpt>
      <trkpt lat="43.61543" lon="3.86364">
        <ele>43</ele>
        <time>2021-02-20T11:40:01Z</time>
      </trkpt>
      <trkpt lat="43.61546" lon="3.8636">
        <ele>43</ele>
        <time>2021-02-20T11:40:02Z</time>
      </trkpt>
      <trkpt lat="43.6155" lon="3.86355">
        <ele>43</ele>
        <time>2021-02-20T11:40:03Z</time>
      </trkpt>
      <trkpt lat="43.61553" lon="3.86351">
        <ele>43</ele>
        <time>2021-02-20T11:40:04Z</time>
      </trkpt>
      <trkpt lat="43.61557" lon="3.86346">
        <ele>44</ele>
        <time>2021-02-20T11:40:05Z</time>
      </trkpt>
      <trkpt lat="43.6156" lon="3.86341">
        <ele>44</ele>
        <time>2021-02-20T11:40:06Z</time>
      </trkpt>
      <trkpt lat="43.61563" lon="3.86337">
        <ele>44</ele>
        <time>2021-02-20T11:40:07Z</time>
      </trkpt>
      <trkpt lat="43.61567" lon="3.86332">
        <ele>44</ele>
        <time>2021-02-20T11:40:08Z</time>
      </trkpt>
      <trkpt lat="43.6157" lon="3.86328">
        <ele>44</ele>
        <time>2021-02-20T11:40:09Z</time>
      </trkpt>
      <trkpt lat="43.61573" lon="3.86323">
        <ele>44</ele>
        <time>2021-02-20T11:40:10Z</time>
      </trkpt>
      <trkpt lat="43.61576" lon="3.86319">
        <ele>44</ele>
        <time>2021-02-20T11:40:11Z</time>
      </trkpt>
      <trkpt lat="43.61579" lon="3.86314">
        <ele>44</ele>
        <time>2021-02-20T11:40:12Z</time>
      </trkpt>
      <trkpt lat="43.61582" lon="3.8631">
        <ele>44</ele>
        <time>2021-02-20T11:40:13Z</time>
      </trkpt>
      <trkpt lat="43.61584" lon="3.86306">
        <ele>44</ele>
        <time>2021-02-20T11:40:14Z</time>
      </trkpt>
      <trkpt lat="43.61587" lon="3.86301">
        <ele>44</ele>
        <time>2021-02-20T11:40:15Z</time>
      </trkpt>
      <trkpt lat="43.6159" lon="3.86297">
        <ele>44</ele>
        <time>2021-02-20T11:40:16Z</time>
      </trkpt>
      <trkpt lat="43.61593" lon="3.86292">
        <ele>44</ele>
        <time>2021-02-20T11:40:17Z</time>
      </trkpt>
      <trkpt lat="43.61596" lon="3.86288">
        <ele>44</ele>
        <time>2021-02-20T11:40:18Z</time>
      </trkpt>
      <trkpt lat="43.61598" lon="3.86283">
        <ele>44</ele>
        <time>2021-02-20T11:40:19Z</time>
      </trkpt>
      <trkpt lat="43.61601" lon="3.86279">
        <ele>44</ele>
        <time>2021-02-20T11:40:20Z</time>
      </trkpt>
      <trkpt lat="43.61603" lon="3.86274">
        <ele>44</ele>
        <time>2021-02-20T11:40:21Z</time>
      </trkpt>
      <trkpt lat="43.61606" lon="3.86269">
        <ele>44</ele>
        <time>2021-02-20T11:40:22Z</time>
      </trkpt>
      <trkpt lat="43.61609" lon="3.86265">
        <ele>44</ele>
        <time>2021-02-20T11:40:23Z</time>
      </trkpt>
      <trkpt lat="43.61612" lon="3.86261">
        <ele>44</ele>
        <time>2021-02-20T11:40:24Z</time>
      </trkpt>
      <trkpt lat="43.61619" lon="3.86252">
        <ele>45</ele>
        <time>2021-02-20T11:40:25Z</time>
      </trkpt>
      <trkpt lat="43.61622" lon="3.86247">
        <ele>45</ele>
        <time>2021-02-20T11:40:27Z</time>
      </trkpt>
      <trkpt lat="43.61625" lon="3.86243">
        <ele>45</ele>
        <time>2021-02-20T11:40:28Z</time>
      </trkpt>
      <trkpt lat="43.61628" lon="3.86238">
        <ele>45</ele>
        <time>2021-02-20T11:40:29Z</time>
      </trkpt>
      <trkpt lat="43.61634" lon="3.86229">
        <ele>45</ele>
        <time>2021-02-20T11:40:30Z</time>
      </trkpt>
      <trkpt lat="43.61637" lon="3.86225">
        <ele>45</ele>
        <time>2021-02-20T11:40:31Z</time>
      </trkpt>
      <trkpt lat="43.6164" lon="3.8622">
        <ele>45</ele>
        <time>2021-02-20T11:40:32Z</time>
      </trkpt>
      <trkpt lat="43.61644" lon="3.86216">
        <ele>45</ele>
        <time>2021-02-20T11:40:33Z</time>
      </trkpt>
      <trkpt lat="43.61647" lon="3.86211">
        <ele>45</ele>
        <time>2021-02-20T11:40:35Z</time>
      </trkpt>
      <trkpt lat="43.6165" lon="3.86207">
        <ele>45</ele>
        <time>2021-02-20T11:40:36Z</time>
      </trkpt>
      <trkpt lat="43.61654" lon="3.86202">
        <ele>45</ele>
        <time>2021-02-20T11:40:37Z</time>
      </trkpt>
      <trkpt lat="43.61657" lon="3.86198">
        <ele>45</ele>
        <time>2021-02-20T11:40:38Z</time>
      </trkpt>
      <trkpt lat="43.6166" lon="3.86194">
        <ele>45</ele>
        <time>2021-02-20T11:40:39Z</time>
      </trkpt>
      <trkpt lat="43.61663" lon="3.86189">
        <ele>45</ele>
        <time>2021-02-20T11:40:40Z</time>
      </trkpt>
      <trkpt lat="43.61665" lon="3.86185">
        <ele>45</ele>
        <time>2021-02-20T11:40:41Z</time>
      </trkpt>
      <trkpt lat="43.61668" lon="3.8618">
        <ele>45</ele>
        <time>2021-02-20T11:40:42Z</time>
      </trkpt>
      <trkpt lat="43.61671" lon="3.86175">
        <ele>45</ele>
        <time>2021-02-20T11:40:43Z</time>
      </trkpt>
      <trkpt lat="43.61673" lon="3.86171">
        <ele>45</ele>
        <time>2021-02-20T11:40:44Z</time>
      </trkpt>
      <trkpt lat="43.61676" lon="3.86166">
        <ele>44</ele>
        <time>2021-02-20T11:40:45Z</time>
      </trkpt>
      <trkpt lat="43.61678" lon="3.86162">
        <ele>44</ele>
        <time>2021-02-20T11:40:46Z</time>
      </trkpt>
      <trkpt lat="43.61681" lon="3.86158">
        <ele>44</ele>
        <time>2021-02-20T11:40:47Z</time>
      </trkpt>
      <trkpt lat="43.61684" lon="3.86154">
        <ele>44</ele>
        <time>2021-02-20T11:40:48Z</time>
      </trkpt>
      <trkpt lat="43.61687" lon="3.86151">
        <ele>44</ele>
        <time>2021-02-20T11:40:49Z</time>
      </trkpt>
      <trkpt lat="43.61689" lon="3.86148">
        <ele>44</ele>
        <time>2021-02-20T11:40:50Z</time>
      </trkpt>
      <trkpt lat="43.61691" lon="3.86145">
        <ele>44</ele>
        <time>2021-02-20T11:40:51Z</time>
      </trkpt>
      <trkpt lat="43.61693" lon="3.86142">
        <ele>44</ele>
        <time>2021-02-20T11:40:52Z</time>
      </trkpt>
      <trkpt lat="43.61695" lon="3.8614">
        <ele>44</ele>
        <time>2021-02-20T11:40:53Z</time>
      </trkpt>
      <trkpt lat="43.61697" lon="3.86137">
        <ele>44</ele>
        <time>2021-02-20T11:40:54Z</time>
      </trkpt>
      <trkpt lat="43.617" lon="3.86135">
        <ele>43</ele>
        <time>2021-02-20T11:40:55Z</time>
      </trkpt>
      <trkpt lat="43.61703" lon="3.86131">
        <ele>43</ele>
        <time>2021-02-20T11:40:56Z</time>
      </trkpt>
      <trkpt lat="43.61705" lon="3.86127">
        <ele>43</ele>
        <time>2021-02-20T11:40:57Z</time>
      </trkpt>
      <trkpt lat="43.61707" lon="3.86123">
        <ele>43</ele>
        <time>2021-02-20T11:40:58Z</time>
      </trkpt>
      <trkpt lat="43.6171" lon="3.86118">
        <ele>43</ele>
        <time>2021-02-20T11:40:59Z</time>
      </trkpt>
      <trkpt lat="43.61713" lon="3.86114">
        <ele>43</ele>
        <time>2021-02-20T11:41:00Z</time>
      </trkpt>
      <trkpt lat="43.61716" lon="3.86109">
        <ele>43</ele>
        <time>2021-02-20T11:41:01Z</time>
      </trkpt>
      <trkpt lat="43.61719" lon="3.86104">
        <ele>43</ele>
        <time>2021-02-20T11:41:02Z</time>
      </trkpt>
      <trkpt lat="43.61722" lon="3.861">
        <ele>43</ele>
        <time>2021-02-20T11:41:03Z</time>
      </trkpt>
      <trkpt lat="43.61726" lon="3.86095">
        <ele>43</ele>
        <time>2021-02-20T11:41:04Z</time>
      </trkpt>
      <trkpt lat="43.61729" lon="3.86091">
        <ele>44</ele>
        <time>2021-02-20T11:41:05Z</time>
      </trkpt>
      <trkpt lat="43.61732" lon="3.86087">
        <ele>44</ele>
        <time>2021-02-20T11:41:06Z</time>
      </trkpt>
      <trkpt lat="43.61735" lon="3.86082">
        <ele>44</ele>
        <time>2021-02-20T11:41:07Z</time>
      </trkpt>
      <trkpt lat="43.61738" lon="3.86077">
        <ele>44</ele>
        <time>2021-02-20T11:41:08Z</time>
      </trkpt>
      <trkpt lat="43.61741" lon="3.86073">
        <ele>44</ele>
        <time>2021-02-20T11:41:09Z</time>
      </trkpt>
      <trkpt lat="43.61744" lon="3.86068">
        <ele>44</ele>
        <time>2021-02-20T11:41:10Z</time>
      </trkpt>
      <trkpt lat="43.61747" lon="3.86064">
        <ele>44</ele>
        <time>2021-02-20T11:41:11Z</time>
      </trkpt>
      <trkpt lat="43.61751" lon="3.86059">
        <ele>44</ele>
        <time>2021-02-20T11:41:12Z</time>
      </trkpt>
      <trkpt lat="43.61754" lon="3.86055">
        <ele>44</ele>
        <time>2021-02-20T11:41:13Z</time>
      </trkpt>
      <trkpt lat="43.61757" lon="3.8605">
        <ele>44</ele>
        <time>2021-02-20T11:41:14Z</time>
      </trkpt>
      <trkpt lat="43.6176" lon="3.86046">
        <ele>45</ele>
        <time>2021-02-20T11:41:15Z</time>
      </trkpt>
      <trkpt lat="43.61763" lon="3.86041">
        <ele>45</ele>
        <time>2021-02-20T11:41:16Z</time>
      </trkpt>
      <trkpt lat="43.61766" lon="3.86037">
        <ele>45</ele>
        <time>2021-02-20T11:41:17Z</time>
      </trkpt>
      <trkpt lat="43.61769" lon="3.86032">
        <ele>45</ele>
        <time>2021-02-20T11:41:18Z</time>
      </trkpt>
      <trkpt lat="43.61772" lon="3.86028">
        <ele>45</ele>
        <time>2021-02-20T11:41:19Z</time>
      </trkpt>
      <trkpt lat="43.61775" lon="3.86023">
        <ele>45</ele>
        <time>2021-02-20T11:41:20Z</time>
      </trkpt>
      <trkpt lat="43.61778" lon="3.86018">
        <ele>45</ele>
        <time>2021-02-20T11:41:21Z</time>
      </trkpt>
      <trkpt lat="43.61781" lon="3.86013">
        <ele>45</ele>
        <time>2021-02-20T11:41:22Z</time>
      </trkpt>
      <trkpt lat="43.61785" lon="3.86009">
        <ele>45</ele>
        <time>2021-02-20T11:41:23Z</time>
      </trkpt>
      <trkpt lat="43.61788" lon="3.86004">
        <ele>45</ele>
        <time>2021-02-20T11:41:24Z</time>
      </trkpt>
      <trkpt lat="43.61791" lon="3.85999">
        <ele>45</ele>
        <time>2021-02-20T11:41:25Z</time>
      </trkpt>
      <trkpt lat="43.61794" lon="3.85994">
        <ele>45</ele>
        <time>2021-02-20T11:41:26Z</time>
      </trkpt>
      <trkpt lat="43.61798" lon="3.8599">
        <ele>45</ele>
        <time>2021-02-20T11:41:27Z</time>
      </trkpt>
      <trkpt lat="43.61801" lon="3.85984">
        <ele>45</ele>
        <time>2021-02-20T11:41:28Z</time>
      </trkpt>
      <trkpt lat="43.61805" lon="3.85979">
        <ele>45</ele>
        <time>2021-02-20T11:41:29Z</time>
      </trkpt>
      <trkpt lat="43.61808" lon="3.85974">
        <ele>45</ele>
        <time>2021-02-20T11:41:30Z</time>
      </trkpt>
      <trkpt lat="43.61812" lon="3.85968">
        <ele>45</ele>
        <time>2021-02-20T11:41:31Z</time>
      </trkpt>
      <trkpt lat="43.61816" lon="3.85962">
        <ele>45</ele>
        <time>2021-02-20T11:41:32Z</time>
      </trkpt>
      <trkpt lat="43.6182" lon="3.85956">
        <ele>45</ele>
        <time>2021-02-20T11:41:33Z</time>
      </trkpt>
      <trkpt lat="43.61825" lon="3.85949">
        <ele>45</ele>
        <time>2021-02-20T11:41:34Z</time>
      </trkpt>
      <trkpt lat="43.61829" lon="3.85943">
        <ele>44</ele>
        <time>2021-02-20T11:41:35Z</time>
      </trkpt>
      <trkpt lat="43.61833" lon="3.85936">
        <ele>44</ele>
        <time>2021-02-20T11:41:36Z</time>
      </trkpt>
      <trkpt lat="43.61838" lon="3.8593">
        <ele>44</ele>
        <time>2021-02-20T11:41:37Z</time>
      </trkpt>
      <trkpt lat="43.61843" lon="3.85923">
        <ele>44</ele>
        <time>2021-02-20T11:41:38Z</time>
      </trkpt>
      <trkpt lat="43.61848" lon="3.85916">
        <ele>44</ele>
        <time>2021-02-20T11:41:39Z</time>
      </trkpt>
      <trkpt lat="43.61853" lon="3.8591">
        <ele>44</ele>
        <time>2021-02-20T11:41:40Z</time>
      </trkpt>
      <trkpt lat="43.61859" lon="3.85905">
        <ele>44</ele>
        <time>2021-02-20T11:41:41Z</time>
      </trkpt>
      <trkpt lat="43.61864" lon="3.859">
        <ele>44</ele>
        <time>2021-02-20T11:41:42Z</time>
      </trkpt>
      <trkpt lat="43.6187" lon="3.85895">
        <ele>44</ele>
        <time>2021-02-20T11:41:43Z</time>
      </trkpt>
      <trkpt lat="43.61876" lon="3.85891">
        <ele>44</ele>
        <time>2021-02-20T11:41:44Z</time>
      </trkpt>
      <trkpt lat="43.61882" lon="3.85887">
        <ele>43</ele>
        <time>2021-02-20T11:41:45Z</time>
      </trkpt>
      <trkpt lat="43.61888" lon="3.85883">
        <ele>43</ele>
        <time>2021-02-20T11:41:46Z</time>
      </trkpt>
      <trkpt lat="43.61894" lon="3.8588">
        <ele>43</ele>
        <time>2021-02-20T11:41:47Z</time>
      </trkpt>
      <trkpt lat="43.61901" lon="3.85876">
        <ele>43</ele>
        <time>2021-02-20T11:41:48Z</time>
      </trkpt>
      <trkpt lat="43.61907" lon="3.85873">
        <ele>43</ele>
        <time>2021-02-20T11:41:49Z</time>
      </trkpt>
      <trkpt lat="43.61914" lon="3.85869">
        <ele>43</ele>
        <time>2021-02-20T11:41:50Z</time>
      </trkpt>
      <trkpt lat="43.6192" lon="3.85864">
        <ele>43</ele>
        <time>2021-02-20T11:41:51Z</time>
      </trkpt>
      <trkpt lat="43.61927" lon="3.8586">
        <ele>43</ele>
        <time>2021-02-20T11:41:52Z</time>
      </trkpt>
      <trkpt lat="43.61935" lon="3.8586">
        <ele>43</ele>
        <time>2021-02-20T11:41:53Z</time>
      </trkpt>
      <trkpt lat="43.61942" lon="3.85861">
        <ele>43</ele>
        <time>2021-02-20T11:41:54Z</time>
      </trkpt>
      <trkpt lat="43.61956" lon="3.85864">
        <ele>44</ele>
        <time>2021-02-20T11:41:55Z</time>
      </trkpt>
      <trkpt lat="43.61962" lon="3.85866">
        <ele>44</ele>
        <time>2021-02-20T11:41:56Z</time>
      </trkpt>
      <trkpt lat="43.61968" lon="3.85867">
        <ele>44</ele>
        <time>2021-02-20T11:41:57Z</time>
      </trkpt>
      <trkpt lat="43.61975" lon="3.85868">
        <ele>44</ele>
        <time>2021-02-20T11:41:58Z</time>
      </trkpt>
      <trkpt lat="43.61982" lon="3.85869">
        <ele>44</ele>
        <time>2021-02-20T11:41:59Z</time>
      </trkpt>
      <trkpt lat="43.61995" lon="3.85867">
        <ele>44</ele>
        <time>2021-02-20T11:42:01Z</time>
      </trkpt>
      <trkpt lat="43.62001" lon="3.85864">
        <ele>44</ele>
        <time>2021-02-20T11:42:02Z</time>
      </trkpt>
      <trkpt lat="43.62007" lon="3.85862">
        <ele>44</ele>
        <time>2021-02-20T11:42:03Z</time>
      </trkpt>
      <trkpt lat="43.62013" lon="3.85859">
        <ele>46</ele>
        <time>2021-02-20T11:42:05Z</time>
      </trkpt>
      <trkpt lat="43.62018" lon="3.85856">
        <ele>46</ele>
        <time>2021-02-20T11:42:06Z</time>
      </trkpt>
      <trkpt lat="43.62024" lon="3.85853">
        <ele>46</ele>
        <time>2021-02-20T11:42:07Z</time>
      </trkpt>
      <trkpt lat="43.62028" lon="3.85849">
        <ele>46</ele>
        <time>2021-02-20T11:42:08Z</time>
      </trkpt>
      <trkpt lat="43.62033" lon="3.85844">
        <ele>46</ele>
        <time>2021-02-20T11:42:09Z</time>
      </trkpt>
      <trkpt lat="43.62038" lon="3.85839">
        <ele>46</ele>
        <time>2021-02-20T11:42:10Z</time>
      </trkpt>
      <trkpt lat="43.62041" lon="3.85833">
        <ele>46</ele>
        <time>2021-02-20T11:42:11Z</time>
      </trkpt>
      <trkpt lat="43.62044" lon="3.85827">
        <ele>46</ele>
        <time>2021-02-20T11:42:12Z</time>
      </trkpt>
      <trkpt lat="43.62048" lon="3.85819">
        <ele>46</ele>
        <time>2021-02-20T11:42:13Z</time>
      </trkpt>
      <trkpt lat="43.62051" lon="3.85811">
        <ele>46</ele>
        <time>2021-02-20T11:42:14Z</time>
      </trkpt>
      <trkpt lat="43.62054" lon="3.85803">
        <ele>45</ele>
        <time>2021-02-20T11:42:15Z</time>
      </trkpt>
      <trkpt lat="43.62057" lon="3.85796">
        <ele>45</ele>
        <time>2021-02-20T11:42:16Z</time>
      </trkpt>
      <trkpt lat="43.6206" lon="3.85788">
        <ele>45</ele>
        <time>2021-02-20T11:42:17Z</time>
      </trkpt>
      <trkpt lat="43.62062" lon="3.85781">
        <ele>45</ele>
        <time>2021-02-20T11:42:18Z</time>
      </trkpt>
      <trkpt lat="43.62064" lon="3.85775">
        <ele>45</ele>
        <time>2021-02-20T11:42:19Z</time>
      </trkpt>
      <trkpt lat="43.62065" lon="3.85769">
        <ele>45</ele>
        <time>2021-02-20T11:42:20Z</time>
      </trkpt>
      <trkpt lat="43.62066" lon="3.85764">
        <ele>45</ele>
        <time>2021-02-20T11:42:21Z</time>
      </trkpt>
      <trkpt lat="43.62068" lon="3.8576">
        <ele>45</ele>
        <time>2021-02-20T11:42:22Z</time>
      </trkpt>
      <trkpt lat="43.6207" lon="3.85756">
        <ele>45</ele>
        <time>2021-02-20T11:42:23Z</time>
      </trkpt>
      <trkpt lat="43.62072" lon="3.85751">
        <ele>45</ele>
        <time>2021-02-20T11:42:24Z</time>
      </trkpt>
      <trkpt lat="43.62073" lon="3.85746">
        <ele>43</ele>
        <time>2021-02-20T11:42:25Z</time>
      </trkpt>
      <trkpt lat="43.62075" lon="3.8574">
        <ele>43</ele>
        <time>2021-02-20T11:42:26Z</time>
      </trkpt>
      <trkpt lat="43.62078" lon="3.85737">
        <ele>43</ele>
        <time>2021-02-20T11:42:27Z</time>
      </trkpt>
      <trkpt lat="43.62083" lon="3.85736">
        <ele>43</ele>
        <time>2021-02-20T11:42:28Z</time>
      </trkpt>
      <trkpt lat="43.62087" lon="3.85734">
        <ele>43</ele>
        <time>2021-02-20T11:42:29Z</time>
      </trkpt>
      <trkpt lat="43.6209" lon="3.8573">
        <ele>43</ele>
        <time>2021-02-20T11:42:30Z</time>
      </trkpt>
      <trkpt lat="43.62093" lon="3.85724">
        <ele>43</ele>
        <time>2021-02-20T11:42:31Z</time>
      </trkpt>
      <trkpt lat="43.62095" lon="3.85718">
        <ele>43</ele>
        <time>2021-02-20T11:42:32Z</time>
      </trkpt>
      <trkpt lat="43.62097" lon="3.85712">
        <ele>43</ele>
        <time>2021-02-20T11:42:33Z</time>
      </trkpt>
      <trkpt lat="43.62099" lon="3.85706">
        <ele>43</ele>
        <time>2021-02-20T11:42:34Z</time>
      </trkpt>
      <trkpt lat="43.62101" lon="3.857">
        <ele>42</ele>
        <time>2021-02-20T11:42:35Z</time>
      </trkpt>
      <trkpt lat="43.62104" lon="3.85695">
        <ele>42</ele>
        <time>2021-02-20T11:42:36Z</time>
      </trkpt>
      <trkpt lat="43.62107" lon="3.85689">
        <ele>42</ele>
        <time>2021-02-20T11:42:37Z</time>
      </trkpt>
      <trkpt lat="43.6211" lon="3.85683">
        <ele>42</ele>
        <time>2021-02-20T11:42:38Z</time>
      </trkpt>
      <trkpt lat="43.62112" lon="3.85678">
        <ele>42</ele>
        <time>2021-02-20T11:42:39Z</time>
      </trkpt>
      <trkpt lat="43.62115" lon="3.85672">
        <ele>42</ele>
        <time>2021-02-20T11:42:40Z</time>
      </trkpt>
      <trkpt lat="43.62118" lon="3.85666">
        <ele>42</ele>
        <time>2021-02-20T11:42:41Z</time>
      </trkpt>
      <trkpt lat="43.6212" lon="3.8566">
        <ele>42</ele>
        <time>2021-02-20T11:42:42Z</time>
      </trkpt>
      <trkpt lat="43.62124" lon="3.85655">
        <ele>42</ele>
        <time>2021-02-20T11:42:43Z</time>
      </trkpt>
      <trkpt lat="43.62127" lon="3.8565">
        <ele>42</ele>
        <time>2021-02-20T11:42:44Z</time>
      </trkpt>
      <trkpt lat="43.62131" lon="3.85645">
        <ele>41</ele>
        <time>2021-02-20T11:42:45Z</time>
      </trkpt>
      <trkpt lat="43.62135" lon="3.85639">
        <ele>41</ele>
        <time>2021-02-20T11:42:46Z</time>
      </trkpt>
      <trkpt lat="43.62139" lon="3.85634">
        <ele>41</ele>
        <time>2021-02-20T11:42:47Z</time>
      </trkpt>
      <trkpt lat="43.62143" lon="3.85629">
        <ele>41</ele>
        <time>2021-02-20T11:42:48Z</time>
      </trkpt>
      <trkpt lat="43.62146" lon="3.85624">
        <ele>41</ele>
        <time>2021-02-20T11:42:49Z</time>
      </trkpt>
      <trkpt lat="43.6215" lon="3.85618">
        <ele>41</ele>
        <time>2021-02-20T11:42:50Z</time>
      </trkpt>
      <trkpt lat="43.62153" lon="3.85612">
        <ele>41</ele>
        <time>2021-02-20T11:42:51Z</time>
      </trkpt>
      <trkpt lat="43.62157" lon="3.85607">
        <ele>41</ele>
        <time>2021-02-20T11:42:52Z</time>
      </trkpt>
      <trkpt lat="43.6216" lon="3.85601">
        <ele>41</ele>
        <time>2021-02-20T11:42:53Z</time>
      </trkpt>
      <trkpt lat="43.62163" lon="3.85596">
        <ele>41</ele>
        <time>2021-02-20T11:42:54Z</time>
      </trkpt>
      <trkpt lat="43.62167" lon="3.8559">
        <ele>42</ele>
        <time>2021-02-20T11:42:55Z</time>
      </trkpt>
      <trkpt lat="43.62171" lon="3.85584">
        <ele>42</ele>
        <time>2021-02-20T11:42:56Z</time>
      </trkpt>
      <trkpt lat="43.62174" lon="3.85578">
        <ele>42</ele>
        <time>2021-02-20T11:42:57Z</time>
      </trkpt>
      <trkpt lat="43.62178" lon="3.85573">
        <ele>42</ele>
        <time>2021-02-20T11:42:58Z</time>
      </trkpt>
      <trkpt lat="43.62181" lon="3.85567">
        <ele>42</ele>
        <time>2021-02-20T11:42:59Z</time>
      </trkpt>
      <trkpt lat="43.62185" lon="3.85562">
        <ele>42</ele>
        <time>2021-02-20T11:43:00Z</time>
      </trkpt>
      <trkpt lat="43.62189" lon="3.85556">
        <ele>42</ele>
        <time>2021-02-20T11:43:01Z</time>
      </trkpt>
      <trkpt lat="43.62193" lon="3.85551">
        <ele>42</ele>
        <time>2021-02-20T11:43:02Z</time>
      </trkpt>
      <trkpt lat="43.62196" lon="3.85545">
        <ele>42</ele>
        <time>2021-02-20T11:43:03Z</time>
      </trkpt>
      <trkpt lat="43.62199" lon="3.85539">
        <ele>42</ele>
        <time>2021-02-20T11:43:04Z</time>
      </trkpt>
      <trkpt lat="43.62203" lon="3.85534">
        <ele>42</ele>
        <time>2021-02-20T11:43:05Z</time>
      </trkpt>
      <trkpt lat="43.62206" lon="3.85528">
        <ele>42</ele>
        <time>2021-02-20T11:43:06Z</time>
      </trkpt>
      <trkpt lat="43.6221" lon="3.85523">
        <ele>42</ele>
        <time>2021-02-20T11:43:07Z</time>
      </trkpt>
      <trkpt lat="43.62213" lon="3.85517">
        <ele>42</ele>
        <time>2021-02-20T11:43:08Z</time>
      </trkpt>
      <trkpt lat="43.62217" lon="3.85511">
        <ele>42</ele>
        <time>2021-02-20T11:43:09Z</time>
      </trkpt>
      <trkpt lat="43.62221" lon="3.85506">
        <ele>42</ele>
        <time>2021-02-20T11:43:10Z</time>
      </trkpt>
      <trkpt lat="43.62224" lon="3.855">
        <ele>42</ele>
        <time>2021-02-20T11:43:11Z</time>
      </trkpt>
      <trkpt lat="43.62228" lon="3.85495">
        <ele>42</ele>
        <time>2021-02-20T11:43:12Z</time>
      </trkpt>
      <trkpt lat="43.62232" lon="3.8549">
        <ele>42</ele>
        <time>2021-02-20T11:43:13Z</time>
      </trkpt>
      <trkpt lat="43.62236" lon="3.85485">
        <ele>42</ele>
        <time>2021-02-20T11:43:14Z</time>
      </trkpt>
      <trkpt lat="43.62239" lon="3.8548">
        <ele>42</ele>
        <time>2021-02-20T11:43:15Z</time>
      </trkpt>
      <trkpt lat="43.62243" lon="3.85476">
        <ele>42</ele>
        <time>2021-02-20T11:43:16Z</time>
      </trkpt>
      <trkpt lat="43.62247" lon="3.85472">
        <ele>42</ele>
        <time>2021-02-20T11:43:17Z</time>
      </trkpt>
      <trkpt lat="43.62251" lon="3.85468">
        <ele>42</ele>
        <time>2021-02-20T11:43:18Z</time>
      </trkpt>
      <trkpt lat="43.62254" lon="3.85464">
        <ele>42</ele>
        <time>2021-02-20T11:43:19Z</time>
      </trkpt>
      <trkpt lat="43.62259" lon="3.85459">
        <ele>42</ele>
        <time>2021-02-20T11:43:20Z</time>
      </trkpt>
      <trkpt lat="43.62263" lon="3.85454">
        <ele>42</ele>
        <time>2021-02-20T11:43:21Z</time>
      </trkpt>
      <trkpt lat="43.62266" lon="3.85447">
        <ele>42</ele>
        <time>2021-02-20T11:43:22Z</time>
      </trkpt>
      <trkpt lat="43.62268" lon="3.85439">
        <ele>42</ele>
        <time>2021-02-20T11:43:23Z</time>
      </trkpt>
      <trkpt lat="43.62268" lon="3.85433">
        <ele>42</ele>
        <time>2021-02-20T11:43:24Z</time>
      </trkpt>
      <trkpt lat="43.62267" lon="3.85427">
        <ele>42</ele>
        <time>2021-02-20T11:43:25Z</time>
      </trkpt>
      <trkpt lat="43.62266" lon="3.8542">
        <ele>42</ele>
        <time>2021-02-20T11:43:26Z</time>
      </trkpt>
      <trkpt lat="43.62265" lon="3.85414">
        <ele>42</ele>
        <time>2021-02-20T11:43:27Z</time>
      </trkpt>
      <trkpt lat="43.62266" lon="3.85408">
        <ele>42</ele>
        <time>2021-02-20T11:43:28Z</time>
      </trkpt>
      <trkpt lat="43.62266" lon="3.85402">
        <ele>42</ele>
        <time>2021-02-20T11:43:29Z</time>
      </trkpt>
      <trkpt lat="43.62267" lon="3.85396">
        <ele>42</ele>
        <time>2021-02-20T11:43:30Z</time>
      </trkpt>
      <trkpt lat="43.62268" lon="3.8539">
        <ele>42</ele>
        <time>2021-02-20T11:43:31Z</time>
      </trkpt>
      <trkpt lat="43.62269" lon="3.85384">
        <ele>42</ele>
        <time>2021-02-20T11:43:32Z</time>
      </trkpt>
      <trkpt lat="43.62269" lon="3.85379">
        <ele>42</ele>
        <time>2021-02-20T11:43:33Z</time>
      </trkpt>
      <trkpt lat="43.6227" lon="3.85374">
        <ele>42</ele>
        <time>2021-02-20T11:43:34Z</time>
      </trkpt>
      <trkpt lat="43.6227" lon="3.85369">
        <ele>44</ele>
        <time>2021-02-20T11:43:35Z</time>
      </trkpt>
      <trkpt lat="43.62271" lon="3.85364">
        <ele>44</ele>
        <time>2021-02-20T11:43:36Z</time>
      </trkpt>
      <trkpt lat="43.62272" lon="3.8536">
        <ele>44</ele>
        <time>2021-02-20T11:43:37Z</time>
      </trkpt>
      <trkpt lat="43.62272" lon="3.85355">
        <ele>44</ele>
        <time>2021-02-20T11:43:38Z</time>
      </trkpt>
      <trkpt lat="43.62273" lon="3.85351">
        <ele>44</ele>
        <time>2021-02-20T11:43:39Z</time>
      </trkpt>
      <trkpt lat="43.62274" lon="3.85343">
        <ele>44</ele>
        <time>2021-02-20T11:43:40Z</time>
      </trkpt>
      <trkpt lat="43.62274" lon="3.85339">
        <ele>44</ele>
        <time>2021-02-20T11:43:42Z</time>
      </trkpt>
      <trkpt lat="43.62274" lon="3.85335">
        <ele>44</ele>
        <time>2021-02-20T11:43:43Z</time>
      </trkpt>
      <trkpt lat="43.62274" lon="3.85331">
        <ele>44</ele>
        <time>2021-02-20T11:43:44Z</time>
      </trkpt>
      <trkpt lat="43.62275" lon="3.85327">
        <ele>46</ele>
        <time>2021-02-20T11:43:45Z</time>
      </trkpt>
      <trkpt lat="43.62275" lon="3.85323">
        <ele>46</ele>
        <time>2021-02-20T11:43:46Z</time>
      </trkpt>
      <trkpt lat="43.62275" lon="3.85319">
        <ele>46</ele>
        <time>2021-02-20T11:43:47Z</time>
      </trkpt>
      <trkpt lat="43.62275" lon="3.85316">
        <ele>46</ele>
        <time>2021-02-20T11:43:48Z</time>
      </trkpt>
      <trkpt lat="43.62275" lon="3.85312">
        <ele>46</ele>
        <time>2021-02-20T11:43:49Z</time>
      </trkpt>
      <trkpt lat="43.62275" lon="3.85308">
        <ele>46</ele>
        <time>2021-02-20T11:43:50Z</time>
      </trkpt>
      <trkpt lat="43.62276" lon="3.85304">
        <ele>46</ele>
        <time>2021-02-20T11:43:51Z</time>
      </trkpt>
      <trkpt lat="43.62276" lon="3.853">
        <ele>46</ele>
        <time>2021-02-20T11:43:52Z</time>
      </trkpt>
      <trkpt lat="43.62276" lon="3.85297">
        <ele>46</ele>
        <time>2021-02-20T11:43:53Z</time>
      </trkpt>
      <trkpt lat="43.62277" lon="3.85293">
        <ele>46</ele>
        <time>2021-02-20T11:43:54Z</time>
      </trkpt>
      <trkpt lat="43.62277" lon="3.85289">
        <ele>48</ele>
        <time>2021-02-20T11:43:55Z</time>
      </trkpt>
      <trkpt lat="43.62277" lon="3.85285">
        <ele>48</ele>
        <time>2021-02-20T11:43:56Z</time>
      </trkpt>
      <trkpt lat="43.62277" lon="3.85282">
        <ele>48</ele>
        <time>2021-02-20T11:43:57Z</time>
      </trkpt>
      <trkpt lat="43.62278" lon="3.85278">
        <ele>48</ele>
        <time>2021-02-20T11:43:58Z</time>
      </trkpt>
      <trkpt lat="43.6228" lon="3.85275">
        <ele>48</ele>
        <time>2021-02-20T11:43:59Z</time>
      </trkpt>
      <trkpt lat="43.62281" lon="3.85271">
        <ele>48</ele>
        <time>2021-02-20T11:44:00Z</time>
      </trkpt>
      <trkpt lat="43.62283" lon="3.85268">
        <ele>48</ele>
        <time>2021-02-20T11:44:01Z</time>
      </trkpt>
      <trkpt lat="43.62284" lon="3.85264">
        <ele>48</ele>
        <time>2021-02-20T11:44:02Z</time>
      </trkpt>
      <trkpt lat="43.62284" lon="3.85261">
        <ele>48</ele>
        <time>2021-02-20T11:44:03Z</time>
      </trkpt>
      <trkpt lat="43.62285" lon="3.85257">
        <ele>48</ele>
        <time>2021-02-20T11:44:04Z</time>
      </trkpt>
      <trkpt lat="43.62286" lon="3.85254">
        <ele>50</ele>
        <time>2021-02-20T11:44:05Z</time>
      </trkpt>
      <trkpt lat="43.62287" lon="3.8525">
        <ele>50</ele>
        <time>2021-02-20T11:44:06Z</time>
      </trkpt>
      <trkpt lat="43.62288" lon="3.85247">
        <ele>50</ele>
        <time>2021-02-20T11:44:07Z</time>
      </trkpt>
      <trkpt lat="43.62289" lon="3.85243">
        <ele>50</ele>
        <time>2021-02-20T11:44:08Z</time>
      </trkpt>
      <trkpt lat="43.62291" lon="3.8524">
        <ele>50</ele>
        <time>2021-02-20T11:44:09Z</time>
      </trkpt>
      <trkpt lat="43.62292" lon="3.85237">
        <ele>50</ele>
        <time>2021-02-20T11:44:10Z</time>
      </trkpt>
      <trkpt lat="43.62293" lon="3.85234">
        <ele>50</ele>
        <time>2021-02-20T11:44:11Z</time>
      </trkpt>
      <trkpt lat="43.62294" lon="3.85231">
        <ele>50</ele>
        <time>2021-02-20T11:44:12Z</time>
      </trkpt>
      <trkpt lat="43.62295" lon="3.85228">
        <ele>50</ele>
        <time>2021-02-20T11:44:13Z</time>
      </trkpt>
      <trkpt lat="43.62297" lon="3.85224">
        <ele>50</ele>
        <time>2021-02-20T11:44:14Z</time>
      </trkpt>
      <trkpt lat="43.62298" lon="3.85221">
        <ele>52</ele>
        <time>2021-02-20T11:44:15Z</time>
      </trkpt>
      <trkpt lat="43.623" lon="3.85218">
        <ele>52</ele>
        <time>2021-02-20T11:44:16Z</time>
      </trkpt>
      <trkpt lat="43.62301" lon="3.85215">
        <ele>52</ele>
        <time>2021-02-20T11:44:17Z</time>
      </trkpt>
      <trkpt lat="43.62303" lon="3.85212">
        <ele>52</ele>
        <time>2021-02-20T11:44:18Z</time>
      </trkpt>
      <trkpt lat="43.62305" lon="3.85208">
        <ele>52</ele>
        <time>2021-02-20T11:44:19Z</time>
      </trkpt>
      <trkpt lat="43.62307" lon="3.85205">
        <ele>52</ele>
        <time>2021-02-20T11:44:20Z</time>
      </trkpt>
      <trkpt lat="43.62309" lon="3.85201">
        <ele>52</ele>
        <time>2021-02-20T11:44:21Z</time>
      </trkpt>
      <trkpt lat="43.62311" lon="3.85198">
        <ele>52</ele>
        <time>2021-02-20T11:44:22Z</time>
      </trkpt>
      <trkpt lat="43.62314" lon="3.85194">
        <ele>52</ele>
        <time>2021-02-20T11:44:23Z</time>
      </trkpt>
      <trkpt lat="43.62316" lon="3.85191">
        <ele>52</ele>
        <time>2021-02-20T11:44:24Z</time>
      </trkpt>
      <trkpt lat="43.62318" lon="3.85187">
        <ele>53</ele>
        <time>2021-02-20T11:44:25Z</time>
      </trkpt>
      <trkpt lat="43.62321" lon="3.85183">
        <ele>53</ele>
        <time>2021-02-20T11:44:26Z</time>
      </trkpt>
      <trkpt lat="43.62323" lon="3.8518">
        <ele>53</ele>
        <time>2021-02-20T11:44:27Z</time>
      </trkpt>
      <trkpt lat="43.62325" lon="3.85176">
        <ele>53</ele>
        <time>2021-02-20T11:44:28Z</time>
      </trkpt>
      <trkpt lat="43.62328" lon="3.85172">
        <ele>53</ele>
        <time>2021-02-20T11:44:29Z</time>
      </trkpt>
      <trkpt lat="43.6233" lon="3.85168">
        <ele>53</ele>
        <time>2021-02-20T11:44:30Z</time>
      </trkpt>
      <trkpt lat="43.62333" lon="3.85164">
        <ele>53</ele>
        <time>2021-02-20T11:44:31Z</time>
      </trkpt>
      <trkpt lat="43.62335" lon="3.8516">
        <ele>53</ele>
        <time>2021-02-20T11:44:32Z</time>
      </trkpt>
      <trkpt lat="43.62337" lon="3.85156">
        <ele>53</ele>
        <time>2021-02-20T11:44:33Z</time>
      </trkpt>
      <trkpt lat="43.6234" lon="3.85152">
        <ele>53</ele>
        <time>2021-02-20T11:44:34Z</time>
      </trkpt>
      <trkpt lat="43.62343" lon="3.85149">
        <ele>53</ele>
        <time>2021-02-20T11:44:35Z</time>
      </trkpt>
      <trkpt lat="43.62346" lon="3.85146">
        <ele>53</ele>
        <time>2021-02-20T11:44:36Z</time>
      </trkpt>
      <trkpt lat="43.6235" lon="3.85143">
        <ele>53</ele>
        <time>2021-02-20T11:44:37Z</time>
      </trkpt>
      <trkpt lat="43.62353" lon="3.8514">
        <ele>53</ele>
        <time>2021-02-20T11:44:38Z</time>
      </trkpt>
      <trkpt lat="43.62356" lon="3.85137">
        <ele>53</ele>
        <time>2021-02-20T11:44:39Z</time>
      </trkpt>
      <trkpt lat="43.6236" lon="3.85134">
        <ele>53</ele>
        <time>2021-02-20T11:44:40Z</time>
      </trkpt>
      <trkpt lat="43.62363" lon="3.85132">
        <ele>53</ele>
        <time>2021-02-20T11:44:41Z</time>
      </trkpt>
      <trkpt lat="43.62366" lon="3.85129">
        <ele>53</ele>
        <time>2021-02-20T11:44:42Z</time>
      </trkpt>
      <trkpt lat="43.62369" lon="3.85125">
        <ele>53</ele>
        <time>2021-02-20T11:44:43Z</time>
      </trkpt>
      <trkpt lat="43.62372" lon="3.85122">
        <ele>53</ele>
        <time>2021-02-20T11:44:44Z</time>
      </trkpt>
      <trkpt lat="43.62375" lon="3.85118">
        <ele>53</ele>
        <time>2021-02-20T11:44:45Z</time>
      </trkpt>
      <trkpt lat="43.62377" lon="3.85113">
        <ele>53</ele>
        <time>2021-02-20T11:44:46Z</time>
      </trkpt>
      <trkpt lat="43.62377" lon="3.85108">
        <ele>53</ele>
        <time>2021-02-20T11:44:47Z</time>
      </trkpt>
      <trkpt lat="43.62375" lon="3.85103">
        <ele>53</ele>
        <time>2021-02-20T11:44:48Z</time>
      </trkpt>
      <trkpt lat="43.62373" lon="3.85099">
        <ele>53</ele>
        <time>2021-02-20T11:44:49Z</time>
      </trkpt>
      <trkpt lat="43.6237" lon="3.85095">
        <ele>53</ele>
        <time>2021-02-20T11:44:50Z</time>
      </trkpt>
      <trkpt lat="43.62366" lon="3.85091">
        <ele>53</ele>
        <time>2021-02-20T11:44:51Z</time>
      </trkpt>
      <trkpt lat="43.62363" lon="3.85087">
        <ele>53</ele>
        <time>2021-02-20T11:44:52Z</time>
      </trkpt>
      <trkpt lat="43.62359" lon="3.85084">
        <ele>53</ele>
        <time>2021-02-20T11:44:53Z</time>
      </trkpt>
      <trkpt lat="43.62355" lon="3.85081">
        <ele>53</ele>
        <time>2021-02-20T11:44:54Z</time>
      </trkpt>
      <trkpt lat="43.62351" lon="3.85078">
        <ele>53</ele>
        <time>2021-02-20T11:44:55Z</time>
      </trkpt>
      <trkpt lat="43.62348" lon="3.85075">
        <ele>53</ele>
        <time>2021-02-20T11:44:56Z</time>
      </trkpt>
      <trkpt lat="43.62344" lon="3.85072">
        <ele>53</ele>
        <time>2021-02-20T11:44:57Z</time>
      </trkpt>
      <trkpt lat="43.6234" lon="3.85069">
        <ele>53</ele>
        <time>2021-02-20T11:44:58Z</time>
      </trkpt>
      <trkpt lat="43.62337" lon="3.85067">
        <ele>53</ele>
        <time>2021-02-20T11:44:59Z</time>
      </trkpt>
      <trkpt lat="43.62333" lon="3.85064">
        <ele>53</ele>
        <time>2021-02-20T11:45:00Z</time>
      </trkpt>
      <trkpt lat="43.6233" lon="3.85061">
        <ele>53</ele>
        <time>2021-02-20T11:45:01Z</time>
      </trkpt>
      <trkpt lat="43.62326" lon="3.85058">
        <ele>53</ele>
        <time>2021-02-20T11:45:02Z</time>
      </trkpt>
      <trkpt lat="43.62322" lon="3.85055">
        <ele>53</ele>
        <time>2021-02-20T11:45:03Z</time>
      </trkpt>
      <trkpt lat="43.62319" lon="3.85052">
        <ele>53</ele>
        <time>2021-02-20T11:45:04Z</time>
      </trkpt>
      <trkpt lat="43.62315" lon="3.85049">
        <ele>54</ele>
        <time>2021-02-20T11:45:05Z</time>
      </trkpt>
      <trkpt lat="43.62312" lon="3.85046">
        <ele>54</ele>
        <time>2021-02-20T11:45:06Z</time>
      </trkpt>
      <trkpt lat="43.62308" lon="3.85042">
        <ele>54</ele>
        <time>2021-02-20T11:45:07Z</time>
      </trkpt>
      <trkpt lat="43.62305" lon="3.85039">
        <ele>54</ele>
        <time>2021-02-20T11:45:08Z</time>
      </trkpt>
      <trkpt lat="43.62301" lon="3.85036">
        <ele>54</ele>
        <time>2021-02-20T11:45:09Z</time>
      </trkpt>
      <trkpt lat="43.62298" lon="3.85033">
        <ele>54</ele>
        <time>2021-02-20T11:45:10Z</time>
      </trkpt>
      <trkpt lat="43.62294" lon="3.8503">
        <ele>54</ele>
        <time>2021-02-20T11:45:11Z</time>
      </trkpt>
      <trkpt lat="43.62291" lon="3.85027">
        <ele>54</ele>
        <time>2021-02-20T11:45:12Z</time>
      </trkpt>
      <trkpt lat="43.62287" lon="3.85023">
        <ele>54</ele>
        <time>2021-02-20T11:45:13Z</time>
      </trkpt>
      <trkpt lat="43.62285" lon="3.85018">
        <ele>54</ele>
        <time>2021-02-20T11:45:14Z</time>
      </trkpt>
      <trkpt lat="43.62284" lon="3.85013">
        <ele>55</ele>
        <time>2021-02-20T11:45:15Z</time>
      </trkpt>
      <trkpt lat="43.62284" lon="3.85007">
        <ele>55</ele>
        <time>2021-02-20T11:45:16Z</time>
      </trkpt>
      <trkpt lat="43.62284" lon="3.85002">
        <ele>55</ele>
        <time>2021-02-20T11:45:17Z</time>
      </trkpt>
      <trkpt lat="43.62284" lon="3.84998">
        <ele>55</ele>
        <time>2021-02-20T11:45:18Z</time>
      </trkpt>
      <trkpt lat="43.62284" lon="3.84993">
        <ele>55</ele>
        <time>2021-02-20T11:45:19Z</time>
      </trkpt>
      <trkpt lat="43.62284" lon="3.84989">
        <ele>55</ele>
        <time>2021-02-20T11:45:20Z</time>
      </trkpt>
      <trkpt lat="43.62284" lon="3.84985">
        <ele>55</ele>
        <time>2021-02-20T11:45:21Z</time>
      </trkpt>
      <trkpt lat="43.62283" lon="3.84982">
        <ele>55</ele>
        <time>2021-02-20T11:45:22Z</time>
      </trkpt>
      <trkpt lat="43.62283" lon="3.84978">
        <ele>55</ele>
        <time>2021-02-20T11:45:23Z</time>
      </trkpt>
      <trkpt lat="43.62282" lon="3.84975">
        <ele>55</ele>
        <time>2021-02-20T11:45:24Z</time>
      </trkpt>
      <trkpt lat="43.62282" lon="3.84972">
        <ele>56</ele>
        <time>2021-02-20T11:45:25Z</time>
      </trkpt>
      <trkpt lat="43.62282" lon="3.84968">
        <ele>56</ele>
        <time>2021-02-20T11:45:26Z</time>
      </trkpt>
      <trkpt lat="43.62281" lon="3.84965">
        <ele>56</ele>
        <time>2021-02-20T11:45:27Z</time>
      </trkpt>
      <trkpt lat="43.6228" lon="3.84962">
        <ele>56</ele>
        <time>2021-02-20T11:45:28Z</time>
      </trkpt>
      <trkpt lat="43.6228" lon="3.84959">
        <ele>56</ele>
        <time>2021-02-20T11:45:29Z</time>
      </trkpt>
      <trkpt lat="43.62279" lon="3.84956">
        <ele>56</ele>
        <time>2021-02-20T11:45:30Z</time>
      </trkpt>
      <trkpt lat="43.62278" lon="3.84953">
        <ele>56</ele>
        <time>2021-02-20T11:45:31Z</time>
      </trkpt>
      <trkpt lat="43.62277" lon="3.8495">
        <ele>56</ele>
        <time>2021-02-20T11:45:32Z</time>
      </trkpt>
      <trkpt lat="43.62276" lon="3.84948">
        <ele>56</ele>
        <time>2021-02-20T11:45:33Z</time>
      </trkpt>
      <trkpt lat="43.62275" lon="3.84945">
        <ele>56</ele>
        <time>2021-02-20T11:45:34Z</time>
      </trkpt>
      <trkpt lat="43.62273" lon="3.84942">
        <ele>58</ele>
        <time>2021-02-20T11:45:35Z</time>
      </trkpt>
      <trkpt lat="43.62272" lon="3.8494">
        <ele>58</ele>
        <time>2021-02-20T11:45:36Z</time>
      </trkpt>
      <trkpt lat="43.62271" lon="3.84937">
        <ele>58</ele>
        <time>2021-02-20T11:45:37Z</time>
      </trkpt>
      <trkpt lat="43.6227" lon="3.84935">
        <ele>58</ele>
        <time>2021-02-20T11:45:38Z</time>
      </trkpt>
      <trkpt lat="43.62269" lon="3.84932">
        <ele>58</ele>
        <time>2021-02-20T11:45:39Z</time>
      </trkpt>
      <trkpt lat="43.62269" lon="3.84929">
        <ele>58</ele>
        <time>2021-02-20T11:45:40Z</time>
      </trkpt>
      <trkpt lat="43.62269" lon="3.84926">
        <ele>58</ele>
        <time>2021-02-20T11:45:41Z</time>
      </trkpt>
      <trkpt lat="43.62268" lon="3.84923">
        <ele>58</ele>
        <time>2021-02-20T11:45:42Z</time>
      </trkpt>
      <trkpt lat="43.62268" lon="3.8492">
        <ele>58</ele>
        <time>2021-02-20T11:45:43Z</time>
      </trkpt>
      <trkpt lat="43.62269" lon="3.84918">
        <ele>58</ele>
        <time>2021-02-20T11:45:44Z</time>
      </trkpt>
      <trkpt lat="43.62269" lon="3.84915">
        <ele>59</ele>
        <time>2021-02-20T11:45:45Z</time>
      </trkpt>
      <trkpt lat="43.62269" lon="3.84912">
        <ele>59</ele>
        <time>2021-02-20T11:45:46Z</time>
      </trkpt>
      <trkpt lat="43.6227" lon="3.84909">
        <ele>59</ele>
        <time>2021-02-20T11:45:47Z</time>
      </trkpt>
      <trkpt lat="43.6227" lon="3.84906">
        <ele>59</ele>
        <time>2021-02-20T11:45:48Z</time>
      </trkpt>
      <trkpt lat="43.62271" lon="3.84903">
        <ele>59</ele>
        <time>2021-02-20T11:45:49Z</time>
      </trkpt>
      <trkpt lat="43.62272" lon="3.84901">
        <ele>59</ele>
        <time>2021-02-20T11:45:50Z</time>
      </trkpt>
      <trkpt lat="43.62273" lon="3.84898">
        <ele>59</ele>
        <time>2021-02-20T11:45:51Z</time>
      </trkpt>
      <trkpt lat="43.62274" lon="3.84896">
        <ele>59</ele>
        <time>2021-02-20T11:45:52Z</time>
      </trkpt>
      <trkpt lat="43.62274" lon="3.84892">
        <ele>59</ele>
        <time>2021-02-20T11:45:54Z</time>
      </trkpt>
      <trkpt lat="43.62273" lon="3.8489">
        <ele>59</ele>
        <time>2021-02-20T11:45:56Z</time>
      </trkpt>
      <trkpt lat="43.62271" lon="3.84891">
        <ele>59</ele>
        <time>2021-02-20T11:46:00Z</time>
      </trkpt>
      <trkpt lat="43.6227" lon="3.84891">
        <ele>62</ele>
        <time>2021-02-20T11:46:06Z</time>
      </trkpt>
      <trkpt lat="43.62263" lon="3.84889">
        <ele>65</ele>
        <time>2021-02-20T11:46:20Z</time>
      </trkpt>
      <trkpt lat="43.62264" lon="3.84894">
        <ele>65</ele>
        <time>2021-02-20T11:46:24Z</time>
      </trkpt>
      <trkpt lat="43.62262" lon="3.84895">
        <ele>65</ele>
        <time>2021-02-20T11:46:30Z</time>
      </trkpt>
      <trkpt lat="43.62262" lon="3.849">
        <ele>66</ele>
        <time>2021-02-20T11:46:43Z</time>
      </trkpt>
      <trkpt lat="43.62263" lon="3.84901">
        <ele>66</ele>
        <time>2021-02-20T11:46:44Z</time>
      </trkpt>
      <trkpt lat="43.62262" lon="3.84907">
        <ele>71</ele>
        <time>2021-02-20T11:50:24Z</time>
      </trkpt>
      <trkpt lat="43.62262" lon="3.84908">
        <ele>71</ele>
        <time>2021-02-20T11:50:25Z</time>
      </trkpt>
      <trkpt lat="43.62257" lon="3.84907">
        <ele>76</ele>
        <time>2021-02-20T11:55:44Z</time>
      </trkpt>
      <trkpt lat="43.62257" lon="3.84906">
        <ele>76</ele>
        <time>2021-02-20T11:55:47Z</time>
      </trkpt>
      <trkpt lat="43.62255" lon="3.8491">
        <ele>79</ele>
        <time>2021-02-20T11:59:01Z</time>
      </trkpt>
      <trkpt lat="43.62256" lon="3.84913">
        <ele>79</ele>
        <time>2021-02-20T11:59:03Z</time>
      </trkpt>
      <trkpt lat="43.62258" lon="3.84914">
        <ele>79</ele>
        <time>2021-02-20T11:59:05Z</time>
      </trkpt>
      <trkpt lat="43.62264" lon="3.84913">
        <ele>75</ele>
        <time>2021-02-20T11:59:24Z</time>
      </trkpt>
      <trkpt lat="43.62267" lon="3.84913">
        <ele>75</ele>
        <time>2021-02-20T11:59:26Z</time>
      </trkpt>
      <trkpt lat="43.62269" lon="3.84912">
        <ele>75</ele>
        <time>2021-02-20T11:59:27Z</time>
      </trkpt>
      <trkpt lat="43.62271" lon="3.84909">
        <ele>75</ele>
        <time>2021-02-20T11:59:28Z</time>
      </trkpt>
      <trkpt lat="43.62273" lon="3.84906">
        <ele>75</ele>
        <time>2021-02-20T11:59:29Z</time>
      </trkpt>
      <trkpt lat="43.62273" lon="3.84903">
        <ele>75</ele>
        <time>2021-02-20T11:59:30Z</time>
      </trkpt>
      <trkpt lat="43.62274" lon="3.84899">
        <ele>75</ele>
        <time>2021-02-20T11:59:32Z</time>
      </trkpt>
      <trkpt lat="43.62275" lon="3.84894">
        <ele>75</ele>
        <time>2021-02-20T11:59:34Z</time>
      </trkpt>
      <trkpt lat="43.62275" lon="3.84891">
        <ele>75</ele>
        <time>2021-02-20T11:59:35Z</time>
      </trkpt>
      <trkpt lat="43.62276" lon="3.84888">
        <ele>75</ele>
        <time>2021-02-20T11:59:36Z</time>
      </trkpt>
      <trkpt lat="43.62277" lon="3.84886">
        <ele>75</ele>
        <time>2021-02-20T11:59:37Z</time>
      </trkpt>
      <trkpt lat="43.62277" lon="3.84883">
        <ele>75</ele>
        <time>2021-02-20T11:59:38Z</time>
      </trkpt>
      <trkpt lat="43.62278" lon="3.8488">
        <ele>75</ele>
        <time>2021-02-20T11:59:39Z</time>
      </trkpt>
      <trkpt lat="43.62278" lon="3.84877">
        <ele>75</ele>
        <time>2021-02-20T11:59:40Z</time>
      </trkpt>
      <trkpt lat="43.62278" lon="3.84874">
        <ele>75</ele>
        <time>2021-02-20T11:59:41Z</time>
      </trkpt>
      <trkpt lat="43.62279" lon="3.84871">
        <ele>75</ele>
        <time>2021-02-20T11:59:42Z</time>
      </trkpt>
      <trkpt lat="43.62279" lon="3.84868">
        <ele>69</ele>
        <time>2021-02-20T11:59:43Z</time>
      </trkpt>
      <trkpt lat="43.6228" lon="3.84866">
        <ele>69</ele>
        <time>2021-02-20T11:59:44Z</time>
      </trkpt>
      <trkpt lat="43.6228" lon="3.84863">
        <ele>69</ele>
        <time>2021-02-20T11:59:45Z</time>
      </trkpt>
      <trkpt lat="43.6228" lon="3.8486">
        <ele>69</ele>
        <time>2021-02-20T11:59:46Z</time>
      </trkpt>
      <trkpt lat="43.62281" lon="3.84858">
        <ele>69</ele>
        <time>2021-02-20T11:59:47Z</time>
      </trkpt>
      <trkpt lat="43.6228" lon="3.84852">
        <ele>69</ele>
        <time>2021-02-20T11:59:48Z</time>
      </trkpt>
      <trkpt lat="43.6228" lon="3.84849">
        <ele>69</ele>
        <time>2021-02-20T11:59:49Z</time>
      </trkpt>
      <trkpt lat="43.62279" lon="3.84846">
        <ele>69</ele>
        <time>2021-02-20T11:59:50Z</time>
      </trkpt>
      <trkpt lat="43.62279" lon="3.84843">
        <ele>69</ele>
        <time>2021-02-20T11:59:51Z</time>
      </trkpt>
      <trkpt lat="43.62279" lon="3.84839">
        <ele>69</ele>
        <time>2021-02-20T11:59:52Z</time>
      </trkpt>
      <trkpt lat="43.62278" lon="3.84835">
        <ele>69</ele>
        <time>2021-02-20T11:59:54Z</time>
      </trkpt>
      <trkpt lat="43.62278" lon="3.84831">
        <ele>69</ele>
        <time>2021-02-20T11:59:55Z</time>
      </trkpt>
      <trkpt lat="43.62277" lon="3.84827">
        <ele>69</ele>
        <time>2021-02-20T11:59:56Z</time>
      </trkpt>
      <trkpt lat="43.62277" lon="3.84822">
        <ele>69</ele>
        <time>2021-02-20T11:59:57Z</time>
      </trkpt>
      <trkpt lat="43.62278" lon="3.84817">
        <ele>69</ele>
        <time>2021-02-20T11:59:58Z</time>
      </trkpt>
      <trkpt lat="43.62278" lon="3.84812">
        <ele>69</ele>
        <time>2021-02-20T11:59:59Z</time>
      </trkpt>
      <trkpt lat="43.62279" lon="3.84807">
        <ele>69</ele>
        <time>2021-02-20T12:00:00Z</time>
      </trkpt>
      <trkpt lat="43.62279" lon="3.84801">
        <ele>69</ele>
        <time>2021-02-20T12:00:01Z</time>
      </trkpt>
      <trkpt lat="43.62279" lon="3.84796">
        <ele>69</ele>
        <time>2021-02-20T12:00:02Z</time>
      </trkpt>
      <trkpt lat="43.62279" lon="3.84791">
        <ele>66</ele>
        <time>2021-02-20T12:00:03Z</time>
      </trkpt>
      <trkpt lat="43.62279" lon="3.84785">
        <ele>66</ele>
        <time>2021-02-20T12:00:04Z</time>
      </trkpt>
      <trkpt lat="43.62279" lon="3.8478">
        <ele>66</ele>
        <time>2021-02-20T12:00:05Z</time>
      </trkpt>
      <trkpt lat="43.6228" lon="3.84775">
        <ele>66</ele>
        <time>2021-02-20T12:00:06Z</time>
      </trkpt>
      <trkpt lat="43.62281" lon="3.84771">
        <ele>66</ele>
        <time>2021-02-20T12:00:07Z</time>
      </trkpt>
      <trkpt lat="43.62282" lon="3.84766">
        <ele>66</ele>
        <time>2021-02-20T12:00:08Z</time>
      </trkpt>
      <trkpt lat="43.62284" lon="3.84762">
        <ele>66</ele>
        <time>2021-02-20T12:00:09Z</time>
      </trkpt>
      <trkpt lat="43.62284" lon="3.84758">
        <ele>66</ele>
        <time>2021-02-20T12:00:10Z</time>
      </trkpt>
      <trkpt lat="43.62285" lon="3.84755">
        <ele>66</ele>
        <time>2021-02-20T12:00:11Z</time>
      </trkpt>
      <trkpt lat="43.62285" lon="3.84752">
        <ele>66</ele>
        <time>2021-02-20T12:00:12Z</time>
      </trkpt>
      <trkpt lat="43.62284" lon="3.84748">
        <ele>66</ele>
        <time>2021-02-20T12:00:14Z</time>
      </trkpt>
      <trkpt lat="43.62281" lon="3.84748">
        <ele>66</ele>
        <time>2021-02-20T12:00:16Z</time>
      </trkpt>
      <trkpt lat="43.62278" lon="3.84746">
        <ele>66</ele>
        <time>2021-02-20T12:00:18Z</time>
      </trkpt>
      <trkpt lat="43.62277" lon="3.84743">
        <ele>66</ele>
        <time>2021-02-20T12:00:19Z</time>
      </trkpt>
      <trkpt lat="43.62276" lon="3.8474">
        <ele>66</ele>
        <time>2021-02-20T12:00:20Z</time>
      </trkpt>
      <trkpt lat="43.62275" lon="3.84737">
        <ele>66</ele>
        <time>2021-02-20T12:00:21Z</time>
      </trkpt>
      <trkpt lat="43.62275" lon="3.84733">
        <ele>66</ele>
        <time>2021-02-20T12:00:22Z</time>
      </trkpt>
      <trkpt lat="43.62274" lon="3.8473">
        <ele>65</ele>
        <time>2021-02-20T12:00:23Z</time>
      </trkpt>
      <trkpt lat="43.62273" lon="3.84726">
        <ele>65</ele>
        <time>2021-02-20T12:00:24Z</time>
      </trkpt>
      <trkpt lat="43.62271" lon="3.84722">
        <ele>65</ele>
        <time>2021-02-20T12:00:25Z</time>
      </trkpt>
      <trkpt lat="43.6227" lon="3.84717">
        <ele>65</ele>
        <time>2021-02-20T12:00:26Z</time>
      </trkpt>
      <trkpt lat="43.62268" lon="3.84713">
        <ele>65</ele>
        <time>2021-02-20T12:00:27Z</time>
      </trkpt>
      <trkpt lat="43.62267" lon="3.84708">
        <ele>65</ele>
        <time>2021-02-20T12:00:28Z</time>
      </trkpt>
      <trkpt lat="43.62265" lon="3.84702">
        <ele>65</ele>
        <time>2021-02-20T12:00:29Z</time>
      </trkpt>
      <trkpt lat="43.62263" lon="3.84696">
        <ele>65</ele>
        <time>2021-02-20T12:00:30Z</time>
      </trkpt>
      <trkpt lat="43.62261" lon="3.84689">
        <ele>65</ele>
        <time>2021-02-20T12:00:31Z</time>
      </trkpt>
      <trkpt lat="43.62258" lon="3.84683">
        <ele>65</ele>
        <time>2021-02-20T12:00:32Z</time>
      </trkpt>
      <trkpt lat="43.62254" lon="3.84677">
        <ele>62</ele>
        <time>2021-02-20T12:00:33Z</time>
      </trkpt>
      <trkpt lat="43.62249" lon="3.84672">
        <ele>62</ele>
        <time>2021-02-20T12:00:34Z</time>
      </trkpt>
      <trkpt lat="43.62245" lon="3.84668">
        <ele>62</ele>
        <time>2021-02-20T12:00:35Z</time>
      </trkpt>
      <trkpt lat="43.6224" lon="3.84664">
        <ele>62</ele>
        <time>2021-02-20T12:00:36Z</time>
      </trkpt>
      <trkpt lat="43.62234" lon="3.84661">
        <ele>62</ele>
        <time>2021-02-20T12:00:37Z</time>
      </trkpt>
      <trkpt lat="43.62228" lon="3.84657">
        <ele>62</ele>
        <time>2021-02-20T12:00:38Z</time>
      </trkpt>
      <trkpt lat="43.62222" lon="3.84652">
        <ele>62</ele>
        <time>2021-02-20T12:00:39Z</time>
      </trkpt>
      <trkpt lat="43.62217" lon="3.84645">
        <ele>62</ele>
        <time>2021-02-20T12:00:40Z</time>
      </trkpt>
      <trkpt lat="43.62215" lon="3.84635">
        <ele>62</ele>
        <time>2021-02-20T12:00:41Z</time>
      </trkpt>
      <trkpt lat="43.62215" lon="3.84622">
        <ele>62</ele>
        <time>2021-02-20T12:00:42Z</time>
      </trkpt>
      <trkpt lat="43.62217" lon="3.84612">
        <ele>62</ele>
        <time>2021-02-20T12:00:43Z</time>
      </trkpt>
      <trkpt lat="43.62219" lon="3.84605">
        <ele>62</ele>
        <time>2021-02-20T12:00:44Z</time>
      </trkpt>
      <trkpt lat="43.6222" lon="3.846">
        <ele>62</ele>
        <time>2021-02-20T12:00:45Z</time>
      </trkpt>
      <trkpt lat="43.62221" lon="3.84596">
        <ele>62</ele>
        <time>2021-02-20T12:00:46Z</time>
      </trkpt>
      <trkpt lat="43.62222" lon="3.84593">
        <ele>62</ele>
        <time>2021-02-20T12:00:47Z</time>
      </trkpt>
      <trkpt lat="43.62221" lon="3.8459">
        <ele>62</ele>
        <time>2021-02-20T12:00:48Z</time>
      </trkpt>
      <trkpt lat="43.62221" lon="3.84586">
        <ele>62</ele>
        <time>2021-02-20T12:00:49Z</time>
      </trkpt>
      <trkpt lat="43.62221" lon="3.84583">
        <ele>62</ele>
        <time>2021-02-20T12:00:50Z</time>
      </trkpt>
      <trkpt lat="43.62222" lon="3.84579">
        <ele>62</ele>
        <time>2021-02-20T12:00:51Z</time>
      </trkpt>
      <trkpt lat="43.62224" lon="3.84575">
        <ele>62</ele>
        <time>2021-02-20T12:00:52Z</time>
      </trkpt>
      <trkpt lat="43.62226" lon="3.84572">
        <ele>58</ele>
        <time>2021-02-20T12:00:53Z</time>
      </trkpt>
      <trkpt lat="43.62227" lon="3.84568">
        <ele>58</ele>
        <time>2021-02-20T12:00:54Z</time>
      </trkpt>
      <trkpt lat="43.62229" lon="3.84564">
        <ele>58</ele>
        <time>2021-02-20T12:00:55Z</time>
      </trkpt>
      <trkpt lat="43.62232" lon="3.8456">
        <ele>58</ele>
        <time>2021-02-20T12:00:56Z</time>
      </trkpt>
      <trkpt lat="43.62234" lon="3.84557">
        <ele>58</ele>
        <time>2021-02-20T12:00:57Z</time>
      </trkpt>
      <trkpt lat="43.62237" lon="3.84553">
        <ele>58</ele>
        <time>2021-02-20T12:00:58Z</time>
      </trkpt>
      <trkpt lat="43.62239" lon="3.84549">
        <ele>58</ele>
        <time>2021-02-20T12:00:59Z</time>
      </trkpt>
      <trkpt lat="43.62242" lon="3.84546">
        <ele>58</ele>
        <time>2021-02-20T12:01:00Z</time>
      </trkpt>
      <trkpt lat="43.62244" lon="3.84542">
        <ele>58</ele>
        <time>2021-02-20T12:01:01Z</time>
      </trkpt>
      <trkpt lat="43.62247" lon="3.84539">
        <ele>58</ele>
        <time>2021-02-20T12:01:02Z</time>
      </trkpt>
      <trkpt lat="43.6225" lon="3.84535">
        <ele>57</ele>
        <time>2021-02-20T12:01:03Z</time>
      </trkpt>
      <trkpt lat="43.62252" lon="3.84532">
        <ele>57</ele>
        <time>2021-02-20T12:01:04Z</time>
      </trkpt>
      <trkpt lat="43.62255" lon="3.84528">
        <ele>57</ele>
        <time>2021-02-20T12:01:05Z</time>
      </trkpt>
      <trkpt lat="43.62258" lon="3.84523">
        <ele>57</ele>
        <time>2021-02-20T12:01:06Z</time>
      </trkpt>
      <trkpt lat="43.62261" lon="3.84519">
        <ele>57</ele>
        <time>2021-02-20T12:01:07Z</time>
      </trkpt>
      <trkpt lat="43.62264" lon="3.84515">
        <ele>57</ele>
        <time>2021-02-20T12:01:08Z</time>
      </trkpt>
      <trkpt lat="43.62267" lon="3.8451">
        <ele>57</ele>
        <time>2021-02-20T12:01:09Z</time>
      </trkpt>
      <trkpt lat="43.6227" lon="3.84506">
        <ele>57</ele>
        <time>2021-02-20T12:01:10Z</time>
      </trkpt>
      <trkpt lat="43.62274" lon="3.84501">
        <ele>57</ele>
        <time>2021-02-20T12:01:11Z</time>
      </trkpt>
      <trkpt lat="43.62277" lon="3.84496">
        <ele>57</ele>
        <time>2021-02-20T12:01:12Z</time>
      </trkpt>
      <trkpt lat="43.6228" lon="3.84491">
        <ele>55</ele>
        <time>2021-02-20T12:01:13Z</time>
      </trkpt>
      <trkpt lat="43.62283" lon="3.84485">
        <ele>55</ele>
        <time>2021-02-20T12:01:14Z</time>
      </trkpt>
      <trkpt lat="43.62286" lon="3.8448">
        <ele>55</ele>
        <time>2021-02-20T12:01:15Z</time>
      </trkpt>
      <trkpt lat="43.62289" lon="3.84474">
        <ele>55</ele>
        <time>2021-02-20T12:01:16Z</time>
      </trkpt>
      <trkpt lat="43.62291" lon="3.84468">
        <ele>55</ele>
        <time>2021-02-20T12:01:17Z</time>
      </trkpt>
      <trkpt lat="43.62294" lon="3.84462">
        <ele>55</ele>
        <time>2021-02-20T12:01:18Z</time>
      </trkpt>
      <trkpt lat="43.62296" lon="3.84457">
        <ele>55</ele>
        <time>2021-02-20T12:01:19Z</time>
      </trkpt>
      <trkpt lat="43.62299" lon="3.84451">
        <ele>55</ele>
        <time>2021-02-20T12:01:20Z</time>
      </trkpt>
      <trkpt lat="43.62302" lon="3.84446">
        <ele>55</ele>
        <time>2021-02-20T12:01:21Z</time>
      </trkpt>
      <trkpt lat="43.62305" lon="3.84441">
        <ele>55</ele>
        <time>2021-02-20T12:01:22Z</time>
      </trkpt>
      <trkpt lat="43.62308" lon="3.84436">
        <ele>55</ele>
        <time>2021-02-20T12:01:23Z</time>
      </trkpt>
      <trkpt lat="43.62311" lon="3.84432">
        <ele>55</ele>
        <time>2021-02-20T12:01:24Z</time>
      </trkpt>
      <trkpt lat="43.62314" lon="3.84427">
        <ele>55</ele>
        <time>2021-02-20T12:01:25Z</time>
      </trkpt>
      <trkpt lat="43.62317" lon="3.84422">
        <ele>55</ele>
        <time>2021-02-20T12:01:26Z</time>
      </trkpt>
      <trkpt lat="43.62321" lon="3.84417">
        <ele>55</ele>
        <time>2021-02-20T12:01:27Z</time>
      </trkpt>
      <trkpt lat="43.62324" lon="3.84413">
        <ele>55</ele>
        <time>2021-02-20T12:01:28Z</time>
      </trkpt>
      <trkpt lat="43.62327" lon="3.84408">
        <ele>55</ele>
        <time>2021-02-20T12:01:29Z</time>
      </trkpt>
      <trkpt lat="43.6233" lon="3.84403">
        <ele>55</ele>
        <time>2021-02-20T12:01:30Z</time>
      </trkpt>
      <trkpt lat="43.62334" lon="3.84398">
        <ele>55</ele>
        <time>2021-02-20T12:01:31Z</time>
      </trkpt>
      <trkpt lat="43.62337" lon="3.84394">
        <ele>55</ele>
        <time>2021-02-20T12:01:32Z</time>
      </trkpt>
      <trkpt lat="43.6234" lon="3.8439">
        <ele>55</ele>
        <time>2021-02-20T12:01:33Z</time>
      </trkpt>
      <trkpt lat="43.62343" lon="3.84386">
        <ele>55</ele>
        <time>2021-02-20T12:01:34Z</time>
      </trkpt>
      <trkpt lat="43.62346" lon="3.84382">
        <ele>55</ele>
        <time>2021-02-20T12:01:35Z</time>
      </trkpt>
      <trkpt lat="43.62349" lon="3.84378">
        <ele>55</ele>
        <time>2021-02-20T12:01:36Z</time>
      </trkpt>
      <trkpt lat="43.62351" lon="3.84374">
        <ele>55</ele>
        <time>2021-02-20T12:01:37Z</time>
      </trkpt>
      <trkpt lat="43.62354" lon="3.8437">
        <ele>55</ele>
        <time>2021-02-20T12:01:38Z</time>
      </trkpt>
      <trkpt lat="43.62356" lon="3.84366">
        <ele>55</ele>
        <time>2021-02-20T12:01:39Z</time>
      </trkpt>
      <trkpt lat="43.62358" lon="3.84361">
        <ele>55</ele>
        <time>2021-02-20T12:01:40Z</time>
      </trkpt>
      <trkpt lat="43.6236" lon="3.84356">
        <ele>55</ele>
        <time>2021-02-20T12:01:41Z</time>
      </trkpt>
      <trkpt lat="43.62361" lon="3.84351">
        <ele>55</ele>
        <time>2021-02-20T12:01:42Z</time>
      </trkpt>
      <trkpt lat="43.62361" lon="3.84346">
        <ele>56</ele>
        <time>2021-02-20T12:01:43Z</time>
      </trkpt>
      <trkpt lat="43.62361" lon="3.84341">
        <ele>56</ele>
        <time>2021-02-20T12:01:44Z</time>
      </trkpt>
      <trkpt lat="43.6236" lon="3.84336">
        <ele>56</ele>
        <time>2021-02-20T12:01:45Z</time>
      </trkpt>
      <trkpt lat="43.62359" lon="3.84331">
        <ele>56</ele>
        <time>2021-02-20T12:01:46Z</time>
      </trkpt>
      <trkpt lat="43.62361" lon="3.84327">
        <ele>56</ele>
        <time>2021-02-20T12:01:47Z</time>
      </trkpt>
      <trkpt lat="43.62363" lon="3.84324">
        <ele>56</ele>
        <time>2021-02-20T12:01:48Z</time>
      </trkpt>
      <trkpt lat="43.62365" lon="3.84321">
        <ele>56</ele>
        <time>2021-02-20T12:01:49Z</time>
      </trkpt>
      <trkpt lat="43.62367" lon="3.84318">
        <ele>56</ele>
        <time>2021-02-20T12:01:50Z</time>
      </trkpt>
      <trkpt lat="43.62369" lon="3.84315">
        <ele>56</ele>
        <time>2021-02-20T12:01:51Z</time>
      </trkpt>
      <trkpt lat="43.62371" lon="3.84311">
        <ele>56</ele>
        <time>2021-02-20T12:01:52Z</time>
      </trkpt>
      <trkpt lat="43.62373" lon="3.84307">
        <ele>56</ele>
        <time>2021-02-20T12:01:53Z</time>
      </trkpt>
      <trkpt lat="43.62375" lon="3.84303">
        <ele>56</ele>
        <time>2021-02-20T12:01:54Z</time>
      </trkpt>
      <trkpt lat="43.62378" lon="3.84299">
        <ele>56</ele>
        <time>2021-02-20T12:01:55Z</time>
      </trkpt>
      <trkpt lat="43.6238" lon="3.84295">
        <ele>56</ele>
        <time>2021-02-20T12:01:56Z</time>
      </trkpt>
      <trkpt lat="43.62382" lon="3.84291">
        <ele>56</ele>
        <time>2021-02-20T12:01:57Z</time>
      </trkpt>
      <trkpt lat="43.62384" lon="3.84287">
        <ele>56</ele>
        <time>2021-02-20T12:01:58Z</time>
      </trkpt>
      <trkpt lat="43.62385" lon="3.84283">
        <ele>56</ele>
        <time>2021-02-20T12:01:59Z</time>
      </trkpt>
      <trkpt lat="43.62384" lon="3.84277">
        <ele>56</ele>
        <time>2021-02-20T12:02:00Z</time>
      </trkpt>
      <trkpt lat="43.62383" lon="3.84268">
        <ele>56</ele>
        <time>2021-02-20T12:02:01Z</time>
      </trkpt>
      <trkpt lat="43.62382" lon="3.84257">
        <ele>56</ele>
        <time>2021-02-20T12:02:02Z</time>
      </trkpt>
      <trkpt lat="43.62382" lon="3.84247">
        <ele>57</ele>
        <time>2021-02-20T12:02:03Z</time>
      </trkpt>
      <trkpt lat="43.62383" lon="3.8424">
        <ele>57</ele>
        <time>2021-02-20T12:02:04Z</time>
      </trkpt>
      <trkpt lat="43.62383" lon="3.84237">
        <ele>57</ele>
        <time>2021-02-20T12:02:05Z</time>
      </trkpt>
      <trkpt lat="43.62386" lon="3.84235">
        <ele>57</ele>
        <time>2021-02-20T12:02:06Z</time>
      </trkpt>
      <trkpt lat="43.62388" lon="3.84233">
        <ele>57</ele>
        <time>2021-02-20T12:02:07Z</time>
      </trkpt>
      <trkpt lat="43.6239" lon="3.84231">
        <ele>57</ele>
        <time>2021-02-20T12:02:08Z</time>
      </trkpt>
      <trkpt lat="43.62392" lon="3.84227">
        <ele>57</ele>
        <time>2021-02-20T12:02:09Z</time>
      </trkpt>
      <trkpt lat="43.62392" lon="3.84223">
        <ele>57</ele>
        <time>2021-02-20T12:02:10Z</time>
      </trkpt>
      <trkpt lat="43.62392" lon="3.84219">
        <ele>57</ele>
        <time>2021-02-20T12:02:11Z</time>
      </trkpt>
      <trkpt lat="43.62392" lon="3.84214">
        <ele>57</ele>
        <time>2021-02-20T12:02:12Z</time>
      </trkpt>
      <trkpt lat="43.62392" lon="3.84209">
        <ele>60</ele>
        <time>2021-02-20T12:02:13Z</time>
      </trkpt>
      <trkpt lat="43.62391" lon="3.84204">
        <ele>60</ele>
        <time>2021-02-20T12:02:14Z</time>
      </trkpt>
      <trkpt lat="43.62391" lon="3.842">
        <ele>60</ele>
        <time>2021-02-20T12:02:15Z</time>
      </trkpt>
      <trkpt lat="43.6239" lon="3.84195">
        <ele>60</ele>
        <time>2021-02-20T12:02:16Z</time>
      </trkpt>
      <trkpt lat="43.6239" lon="3.84191">
        <ele>60</ele>
        <time>2021-02-20T12:02:17Z</time>
      </trkpt>
      <trkpt lat="43.62389" lon="3.84186">
        <ele>60</ele>
        <time>2021-02-20T12:02:18Z</time>
      </trkpt>
      <trkpt lat="43.62389" lon="3.84182">
        <ele>60</ele>
        <time>2021-02-20T12:02:19Z</time>
      </trkpt>
      <trkpt lat="43.62388" lon="3.84178">
        <ele>60</ele>
        <time>2021-02-20T12:02:20Z</time>
      </trkpt>
      <trkpt lat="43.62389" lon="3.84175">
        <ele>60</ele>
        <time>2021-02-20T12:02:21Z</time>
      </trkpt>
      <trkpt lat="43.62391" lon="3.84171">
        <ele>60</ele>
        <time>2021-02-20T12:02:22Z</time>
      </trkpt>
      <trkpt lat="43.62392" lon="3.84167">
        <ele>61</ele>
        <time>2021-02-20T12:02:23Z</time>
      </trkpt>
      <trkpt lat="43.62393" lon="3.84164">
        <ele>61</ele>
        <time>2021-02-20T12:02:24Z</time>
      </trkpt>
      <trkpt lat="43.62395" lon="3.84161">
        <ele>61</ele>
        <time>2021-02-20T12:02:25Z</time>
      </trkpt>
      <trkpt lat="43.62396" lon="3.84158">
        <ele>61</ele>
        <time>2021-02-20T12:02:26Z</time>
      </trkpt>
      <trkpt lat="43.62398" lon="3.84156">
        <ele>61</ele>
        <time>2021-02-20T12:02:27Z</time>
      </trkpt>
      <trkpt lat="43.62401" lon="3.84154">
        <ele>61</ele>
        <time>2021-02-20T12:02:28Z</time>
      </trkpt>
      <trkpt lat="43.62403" lon="3.84154">
        <ele>61</ele>
        <time>2021-02-20T12:02:29Z</time>
      </trkpt>
      <trkpt lat="43.62405" lon="3.84152">
        <ele>61</ele>
        <time>2021-02-20T12:02:30Z</time>
      </trkpt>
      <trkpt lat="43.62408" lon="3.84151">
        <ele>61</ele>
        <time>2021-02-20T12:02:31Z</time>
      </trkpt>
      <trkpt lat="43.62411" lon="3.84151">
        <ele>61</ele>
        <time>2021-02-20T12:02:32Z</time>
      </trkpt>
      <trkpt lat="43.62414" lon="3.8415">
        <ele>62</ele>
        <time>2021-02-20T12:02:33Z</time>
      </trkpt>
      <trkpt lat="43.62416" lon="3.84149">
        <ele>62</ele>
        <time>2021-02-20T12:02:34Z</time>
      </trkpt>
      <trkpt lat="43.62419" lon="3.84148">
        <ele>62</ele>
        <time>2021-02-20T12:02:35Z</time>
      </trkpt>
      <trkpt lat="43.62421" lon="3.84147">
        <ele>62</ele>
        <time>2021-02-20T12:02:36Z</time>
      </trkpt>
      <trkpt lat="43.62424" lon="3.84146">
        <ele>62</ele>
        <time>2021-02-20T12:02:37Z</time>
      </trkpt>
      <trkpt lat="43.62426" lon="3.84144">
        <ele>62</ele>
        <time>2021-02-20T12:02:38Z</time>
      </trkpt>
      <trkpt lat="43.62428" lon="3.84141">
        <ele>62</ele>
        <time>2021-02-20T12:02:39Z</time>
      </trkpt>
      <trkpt lat="43.6243" lon="3.84139">
        <ele>62</ele>
        <time>2021-02-20T12:02:40Z</time>
      </trkpt>
      <trkpt lat="43.62433" lon="3.84137">
        <ele>62</ele>
        <time>2021-02-20T12:02:41Z</time>
      </trkpt>
      <trkpt lat="43.62435" lon="3.84135">
        <ele>62</ele>
        <time>2021-02-20T12:02:42Z</time>
      </trkpt>
      <trkpt lat="43.62438" lon="3.84133">
        <ele>63</ele>
        <time>2021-02-20T12:02:43Z</time>
      </trkpt>
      <trkpt lat="43.6244" lon="3.84132">
        <ele>63</ele>
        <time>2021-02-20T12:02:44Z</time>
      </trkpt>
      <trkpt lat="43.62442" lon="3.84131">
        <ele>63</ele>
        <time>2021-02-20T12:02:45Z</time>
      </trkpt>
      <trkpt lat="43.62444" lon="3.84131">
        <ele>63</ele>
        <time>2021-02-20T12:02:46Z</time>
      </trkpt>
      <trkpt lat="43.62447" lon="3.84129">
        <ele>63</ele>
        <time>2021-02-20T12:02:47Z</time>
      </trkpt>
      <trkpt lat="43.62449" lon="3.84129">
        <ele>63</ele>
        <time>2021-02-20T12:02:48Z</time>
      </trkpt>
      <trkpt lat="43.62452" lon="3.84128">
        <ele>63</ele>
        <time>2021-02-20T12:02:49Z</time>
      </trkpt>
      <trkpt lat="43.62455" lon="3.84128">
        <ele>63</ele>
        <time>2021-02-20T12:02:50Z</time>
      </trkpt>
      <trkpt lat="43.62458" lon="3.84126">
        <ele>63</ele>
        <time>2021-02-20T12:02:51Z</time>
      </trkpt>
      <trkpt lat="43.62461" lon="3.84124">
        <ele>63</ele>
        <time>2021-02-20T12:02:52Z</time>
      </trkpt>
      <trkpt lat="43.62464" lon="3.84121">
        <ele>63</ele>
        <time>2021-02-20T12:02:53Z</time>
      </trkpt>
      <trkpt lat="43.62467" lon="3.84118">
        <ele>63</ele>
        <time>2021-02-20T12:02:54Z</time>
      </trkpt>
      <trkpt lat="43.62469" lon="3.84114">
        <ele>63</ele>
        <time>2021-02-20T12:02:55Z</time>
      </trkpt>
      <trkpt lat="43.62471" lon="3.84111">
        <ele>63</ele>
        <time>2021-02-20T12:02:56Z</time>
      </trkpt>
      <trkpt lat="43.62473" lon="3.84106">
        <ele>63</ele>
        <time>2021-02-20T12:02:57Z</time>
      </trkpt>
      <trkpt lat="43.62475" lon="3.84102">
        <ele>63</ele>
        <time>2021-02-20T12:02:58Z</time>
      </trkpt>
      <trkpt lat="43.62476" lon="3.84098">
        <ele>63</ele>
        <time>2021-02-20T12:02:59Z</time>
      </trkpt>
      <trkpt lat="43.62478" lon="3.84094">
        <ele>63</ele>
        <time>2021-02-20T12:03:00Z</time>
      </trkpt>
      <trkpt lat="43.62479" lon="3.8409">
        <ele>63</ele>
        <time>2021-02-20T12:03:01Z</time>
      </trkpt>
      <trkpt lat="43.62481" lon="3.84087">
        <ele>63</ele>
        <time>2021-02-20T12:03:02Z</time>
      </trkpt>
      <trkpt lat="43.62483" lon="3.84084">
        <ele>64</ele>
        <time>2021-02-20T12:03:03Z</time>
      </trkpt>
      <trkpt lat="43.62484" lon="3.8408">
        <ele>64</ele>
        <time>2021-02-20T12:03:04Z</time>
      </trkpt>
      <trkpt lat="43.62485" lon="3.84077">
        <ele>64</ele>
        <time>2021-02-20T12:03:05Z</time>
      </trkpt>
      <trkpt lat="43.62487" lon="3.84073">
        <ele>64</ele>
        <time>2021-02-20T12:03:06Z</time>
      </trkpt>
      <trkpt lat="43.62489" lon="3.8407">
        <ele>64</ele>
        <time>2021-02-20T12:03:07Z</time>
      </trkpt>
      <trkpt lat="43.6249" lon="3.84067">
        <ele>64</ele>
        <time>2021-02-20T12:03:08Z</time>
      </trkpt>
      <trkpt lat="43.62492" lon="3.84063">
        <ele>64</ele>
        <time>2021-02-20T12:03:09Z</time>
      </trkpt>
      <trkpt lat="43.62494" lon="3.84059">
        <ele>64</ele>
        <time>2021-02-20T12:03:10Z</time>
      </trkpt>
      <trkpt lat="43.62495" lon="3.84055">
        <ele>64</ele>
        <time>2021-02-20T12:03:11Z</time>
      </trkpt>
      <trkpt lat="43.62497" lon="3.84051">
        <ele>64</ele>
        <time>2021-02-20T12:03:12Z</time>
      </trkpt>
      <trkpt lat="43.62499" lon="3.84047">
        <ele>66</ele>
        <time>2021-02-20T12:03:13Z</time>
      </trkpt>
      <trkpt lat="43.62501" lon="3.84043">
        <ele>66</ele>
        <time>2021-02-20T12:03:14Z</time>
      </trkpt>
      <trkpt lat="43.62502" lon="3.84039">
        <ele>66</ele>
        <time>2021-02-20T12:03:15Z</time>
      </trkpt>
      <trkpt lat="43.62504" lon="3.84036">
        <ele>66</ele>
        <time>2021-02-20T12:03:16Z</time>
      </trkpt>
      <trkpt lat="43.62506" lon="3.84032">
        <ele>66</ele>
        <time>2021-02-20T12:03:17Z</time>
      </trkpt>
      <trkpt lat="43.62508" lon="3.84028">
        <ele>66</ele>
        <time>2021-02-20T12:03:18Z</time>
      </trkpt>
      <trkpt lat="43.62509" lon="3.84024">
        <ele>66</ele>
        <time>2021-02-20T12:03:19Z</time>
      </trkpt>
      <trkpt lat="43.62511" lon="3.8402">
        <ele>66</ele>
        <time>2021-02-20T12:03:20Z</time>
      </trkpt>
      <trkpt lat="43.62512" lon="3.84016">
        <ele>66</ele>
        <time>2021-02-20T12:03:21Z</time>
      </trkpt>
      <trkpt lat="43.62513" lon="3.84012">
        <ele>66</ele>
        <time>2021-02-20T12:03:22Z</time>
      </trkpt>
      <trkpt lat="43.62514" lon="3.84009">
        <ele>66</ele>
        <time>2021-02-20T12:03:23Z</time>
      </trkpt>
      <trkpt lat="43.62516" lon="3.84005">
        <ele>66</ele>
        <time>2021-02-20T12:03:24Z</time>
      </trkpt>
      <trkpt lat="43.62517" lon="3.84002">
        <ele>66</ele>
        <time>2021-02-20T12:03:25Z</time>
      </trkpt>
      <trkpt lat="43.62519" lon="3.83999">
        <ele>66</ele>
        <time>2021-02-20T12:03:26Z</time>
      </trkpt>
      <trkpt lat="43.62519" lon="3.83997">
        <ele>66</ele>
        <time>2021-02-20T12:03:27Z</time>
      </trkpt>
      <trkpt lat="43.6252" lon="3.83994">
        <ele>66</ele>
        <time>2021-02-20T12:03:28Z</time>
      </trkpt>
      <trkpt lat="43.62522" lon="3.83991">
        <ele>66</ele>
        <time>2021-02-20T12:03:29Z</time>
      </trkpt>
      <trkpt lat="43.62523" lon="3.83988">
        <ele>66</ele>
        <time>2021-02-20T12:03:30Z</time>
      </trkpt>
      <trkpt lat="43.62525" lon="3.83985">
        <ele>66</ele>
        <time>2021-02-20T12:03:31Z</time>
      </trkpt>
      <trkpt lat="43.62526" lon="3.83982">
        <ele>66</ele>
        <time>2021-02-20T12:03:32Z</time>
      </trkpt>
      <trkpt lat="43.62527" lon="3.83979">
        <ele>68</ele>
        <time>2021-02-20T12:03:33Z</time>
      </trkpt>
      <trkpt lat="43.62529" lon="3.83976">
        <ele>68</ele>
        <time>2021-02-20T12:03:34Z</time>
      </trkpt>
      <trkpt lat="43.6253" lon="3.83973">
        <ele>68</ele>
        <time>2021-02-20T12:03:35Z</time>
      </trkpt>
      <trkpt lat="43.62532" lon="3.8397">
        <ele>68</ele>
        <time>2021-02-20T12:03:36Z</time>
      </trkpt>
      <trkpt lat="43.62534" lon="3.83967">
        <ele>68</ele>
        <time>2021-02-20T12:03:37Z</time>
      </trkpt>
      <trkpt lat="43.62535" lon="3.83963">
        <ele>68</ele>
        <time>2021-02-20T12:03:38Z</time>
      </trkpt>
      <trkpt lat="43.62536" lon="3.83959">
        <ele>68</ele>
        <time>2021-02-20T12:03:39Z</time>
      </trkpt>
      <trkpt lat="43.62537" lon="3.83954">
        <ele>68</ele>
        <time>2021-02-20T12:03:40Z</time>
      </trkpt>
      <trkpt lat="43.62538" lon="3.8395">
        <ele>68</ele>
        <time>2021-02-20T12:03:41Z</time>
      </trkpt>
      <trkpt lat="43.62538" lon="3.83946">
        <ele>68</ele>
        <time>2021-02-20T12:03:42Z</time>
      </trkpt>
      <trkpt lat="43.62538" lon="3.83942">
        <ele>69</ele>
        <time>2021-02-20T12:03:43Z</time>
      </trkpt>
      <trkpt lat="43.62538" lon="3.83938">
        <ele>69</ele>
        <time>2021-02-20T12:03:44Z</time>
      </trkpt>
      <trkpt lat="43.62538" lon="3.83935">
        <ele>69</ele>
        <time>2021-02-20T12:03:45Z</time>
      </trkpt>
      <trkpt lat="43.62537" lon="3.83931">
        <ele>69</ele>
        <time>2021-02-20T12:03:46Z</time>
      </trkpt>
      <trkpt lat="43.62536" lon="3.83927">
        <ele>69</ele>
        <time>2021-02-20T12:03:47Z</time>
      </trkpt>
      <trkpt lat="43.62536" lon="3.83923">
        <ele>69</ele>
        <time>2021-02-20T12:03:48Z</time>
      </trkpt>
      <trkpt lat="43.62534" lon="3.8392">
        <ele>69</ele>
        <time>2021-02-20T12:03:49Z</time>
      </trkpt>
      <trkpt lat="43.62533" lon="3.83916">
        <ele>69</ele>
        <time>2021-02-20T12:03:50Z</time>
      </trkpt>
      <trkpt lat="43.62533" lon="3.83911">
        <ele>69</ele>
        <time>2021-02-20T12:03:51Z</time>
      </trkpt>
      <trkpt lat="43.62533" lon="3.83907">
        <ele>69</ele>
        <time>2021-02-20T12:03:52Z</time>
      </trkpt>
      <trkpt lat="43.62533" lon="3.83903">
        <ele>72</ele>
        <time>2021-02-20T12:03:53Z</time>
      </trkpt>
      <trkpt lat="43.62532" lon="3.83899">
        <ele>72</ele>
        <time>2021-02-20T12:03:54Z</time>
      </trkpt>
      <trkpt lat="43.62531" lon="3.83896">
        <ele>72</ele>
        <time>2021-02-20T12:03:55Z</time>
      </trkpt>
      <trkpt lat="43.6253" lon="3.83892">
        <ele>72</ele>
        <time>2021-02-20T12:03:56Z</time>
      </trkpt>
      <trkpt lat="43.62528" lon="3.83888">
        <ele>72</ele>
        <time>2021-02-20T12:03:57Z</time>
      </trkpt>
      <trkpt lat="43.62527" lon="3.83884">
        <ele>72</ele>
        <time>2021-02-20T12:03:58Z</time>
      </trkpt>
      <trkpt lat="43.62526" lon="3.83881">
        <ele>72</ele>
        <time>2021-02-20T12:03:59Z</time>
      </trkpt>
      <trkpt lat="43.62525" lon="3.83877">
        <ele>72</ele>
        <time>2021-02-20T12:04:00Z</time>
      </trkpt>
      <trkpt lat="43.62524" lon="3.83873">
        <ele>72</ele>
        <time>2021-02-20T12:04:01Z</time>
      </trkpt>
      <trkpt lat="43.62523" lon="3.83869">
        <ele>72</ele>
        <time>2021-02-20T12:04:02Z</time>
      </trkpt>
      <trkpt lat="43.62523" lon="3.83865">
        <ele>73</ele>
        <time>2021-02-20T12:04:03Z</time>
      </trkpt>
      <trkpt lat="43.62522" lon="3.83861">
        <ele>73</ele>
        <time>2021-02-20T12:04:04Z</time>
      </trkpt>
      <trkpt lat="43.62521" lon="3.83858">
        <ele>73</ele>
        <time>2021-02-20T12:04:05Z</time>
      </trkpt>
      <trkpt lat="43.6252" lon="3.83854">
        <ele>73</ele>
        <time>2021-02-20T12:04:06Z</time>
      </trkpt>
      <trkpt lat="43.6252" lon="3.8385">
        <ele>73</ele>
        <time>2021-02-20T12:04:07Z</time>
      </trkpt>
      <trkpt lat="43.62519" lon="3.83846">
        <ele>73</ele>
        <time>2021-02-20T12:04:08Z</time>
      </trkpt>
      <trkpt lat="43.62518" lon="3.83842">
        <ele>73</ele>
        <time>2021-02-20T12:04:09Z</time>
      </trkpt>
      <trkpt lat="43.62515" lon="3.83839">
        <ele>73</ele>
        <time>2021-02-20T12:04:10Z</time>
      </trkpt>
      <trkpt lat="43.62513" lon="3.83836">
        <ele>73</ele>
        <time>2021-02-20T12:04:11Z</time>
      </trkpt>
      <trkpt lat="43.62511" lon="3.83834">
        <ele>73</ele>
        <time>2021-02-20T12:04:12Z</time>
      </trkpt>
      <trkpt lat="43.62508" lon="3.83832">
        <ele>74</ele>
        <time>2021-02-20T12:04:13Z</time>
      </trkpt>
      <trkpt lat="43.62505" lon="3.8383">
        <ele>74</ele>
        <time>2021-02-20T12:04:14Z</time>
      </trkpt>
      <trkpt lat="43.62501" lon="3.83829">
        <ele>74</ele>
        <time>2021-02-20T12:04:15Z</time>
      </trkpt>
      <trkpt lat="43.62499" lon="3.83827">
        <ele>74</ele>
        <time>2021-02-20T12:04:16Z</time>
      </trkpt>
      <trkpt lat="43.62496" lon="3.83826">
        <ele>74</ele>
        <time>2021-02-20T12:04:17Z</time>
      </trkpt>
      <trkpt lat="43.62493" lon="3.83824">
        <ele>74</ele>
        <time>2021-02-20T12:04:18Z</time>
      </trkpt>
      <trkpt lat="43.62491" lon="3.83822">
        <ele>74</ele>
        <time>2021-02-20T12:04:19Z</time>
      </trkpt>
      <trkpt lat="43.62488" lon="3.8382">
        <ele>74</ele>
        <time>2021-02-20T12:04:20Z</time>
      </trkpt>
      <trkpt lat="43.62485" lon="3.83819">
        <ele>74</ele>
        <time>2021-02-20T12:04:21Z</time>
      </trkpt>
      <trkpt lat="43.62482" lon="3.83817">
        <ele>74</ele>
        <time>2021-02-20T12:04:22Z</time>
      </trkpt>
      <trkpt lat="43.62479" lon="3.83815">
        <ele>75</ele>
        <time>2021-02-20T12:04:23Z</time>
      </trkpt>
      <trkpt lat="43.62477" lon="3.83813">
        <ele>75</ele>
        <time>2021-02-20T12:04:24Z</time>
      </trkpt>
      <trkpt lat="43.62474" lon="3.83811">
        <ele>75</ele>
        <time>2021-02-20T12:04:25Z</time>
      </trkpt>
      <trkpt lat="43.62471" lon="3.83809">
        <ele>75</ele>
        <time>2021-02-20T12:04:26Z</time>
      </trkpt>
      <trkpt lat="43.62468" lon="3.83807">
        <ele>75</ele>
        <time>2021-02-20T12:04:27Z</time>
      </trkpt>
      <trkpt lat="43.62466" lon="3.83805">
        <ele>75</ele>
        <time>2021-02-20T12:04:28Z</time>
      </trkpt>
      <trkpt lat="43.62463" lon="3.83803">
        <ele>75</ele>
        <time>2021-02-20T12:04:29Z</time>
      </trkpt>
      <trkpt lat="43.6246" lon="3.83801">
        <ele>75</ele>
        <time>2021-02-20T12:04:30Z</time>
      </trkpt>
      <trkpt lat="43.62457" lon="3.83799">
        <ele>75</ele>
        <time>2021-02-20T12:04:31Z</time>
      </trkpt>
      <trkpt lat="43.62455" lon="3.83796">
        <ele>75</ele>
        <time>2021-02-20T12:04:32Z</time>
      </trkpt>
      <trkpt lat="43.62452" lon="3.83793">
        <ele>75</ele>
        <time>2021-02-20T12:04:33Z</time>
      </trkpt>
      <trkpt lat="43.62449" lon="3.83791">
        <ele>75</ele>
        <time>2021-02-20T12:04:34Z</time>
      </trkpt>
      <trkpt lat="43.62447" lon="3.83787">
        <ele>75</ele>
        <time>2021-02-20T12:04:35Z</time>
      </trkpt>
      <trkpt lat="43.62445" lon="3.83783">
        <ele>75</ele>
        <time>2021-02-20T12:04:36Z</time>
      </trkpt>
      <trkpt lat="43.62443" lon="3.83778">
        <ele>75</ele>
        <time>2021-02-20T12:04:37Z</time>
      </trkpt>
      <trkpt lat="43.62441" lon="3.83773">
        <ele>75</ele>
        <time>2021-02-20T12:04:38Z</time>
      </trkpt>
      <trkpt lat="43.6244" lon="3.83769">
        <ele>75</ele>
        <time>2021-02-20T12:04:39Z</time>
      </trkpt>
      <trkpt lat="43.62439" lon="3.83765">
        <ele>75</ele>
        <time>2021-02-20T12:04:40Z</time>
      </trkpt>
      <trkpt lat="43.62437" lon="3.8376">
        <ele>75</ele>
        <time>2021-02-20T12:04:41Z</time>
      </trkpt>
      <trkpt lat="43.62436" lon="3.83755">
        <ele>75</ele>
        <time>2021-02-20T12:04:42Z</time>
      </trkpt>
      <trkpt lat="43.62435" lon="3.8375">
        <ele>76</ele>
        <time>2021-02-20T12:04:43Z</time>
      </trkpt>
      <trkpt lat="43.62434" lon="3.83744">
        <ele>76</ele>
        <time>2021-02-20T12:04:44Z</time>
      </trkpt>
      <trkpt lat="43.62434" lon="3.83739">
        <ele>76</ele>
        <time>2021-02-20T12:04:45Z</time>
      </trkpt>
      <trkpt lat="43.62433" lon="3.83733">
        <ele>76</ele>
        <time>2021-02-20T12:04:46Z</time>
      </trkpt>
      <trkpt lat="43.62432" lon="3.83726">
        <ele>76</ele>
        <time>2021-02-20T12:04:47Z</time>
      </trkpt>
      <trkpt lat="43.62431" lon="3.83719">
        <ele>76</ele>
        <time>2021-02-20T12:04:48Z</time>
      </trkpt>
      <trkpt lat="43.6243" lon="3.83714">
        <ele>76</ele>
        <time>2021-02-20T12:04:49Z</time>
      </trkpt>
      <trkpt lat="43.62428" lon="3.83709">
        <ele>76</ele>
        <time>2021-02-20T12:04:50Z</time>
      </trkpt>
      <trkpt lat="43.62426" lon="3.83704">
        <ele>76</ele>
        <time>2021-02-20T12:04:51Z</time>
      </trkpt>
      <trkpt lat="43.62424" lon="3.83699">
        <ele>76</ele>
        <time>2021-02-20T12:04:52Z</time>
      </trkpt>
      <trkpt lat="43.62421" lon="3.83696">
        <ele>76</ele>
        <time>2021-02-20T12:04:53Z</time>
      </trkpt>
      <trkpt lat="43.62419" lon="3.83692">
        <ele>76</ele>
        <time>2021-02-20T12:04:54Z</time>
      </trkpt>
      <trkpt lat="43.62418" lon="3.83688">
        <ele>76</ele>
        <time>2021-02-20T12:04:55Z</time>
      </trkpt>
      <trkpt lat="43.62417" lon="3.83684">
        <ele>76</ele>
        <time>2021-02-20T12:04:56Z</time>
      </trkpt>
      <trkpt lat="43.62416" lon="3.83681">
        <ele>76</ele>
        <time>2021-02-20T12:04:57Z</time>
      </trkpt>
      <trkpt lat="43.62416" lon="3.83678">
        <ele>76</ele>
        <time>2021-02-20T12:04:58Z</time>
      </trkpt>
      <trkpt lat="43.62415" lon="3.8367">
        <ele>77</ele>
        <time>2021-02-20T12:05:35Z</time>
      </trkpt>
      <trkpt lat="43.62417" lon="3.83668">
        <ele>77</ele>
        <time>2021-02-20T12:05:36Z</time>
      </trkpt>
      <trkpt lat="43.62419" lon="3.83667">
        <ele>77</ele>
        <time>2021-02-20T12:05:37Z</time>
      </trkpt>
      <trkpt lat="43.62422" lon="3.83667">
        <ele>77</ele>
        <time>2021-02-20T12:05:38Z</time>
      </trkpt>
      <trkpt lat="43.62425" lon="3.83667">
        <ele>77</ele>
        <time>2021-02-20T12:05:39Z</time>
      </trkpt>
      <trkpt lat="43.62429" lon="3.83665">
        <ele>77</ele>
        <time>2021-02-20T12:05:40Z</time>
      </trkpt>
      <trkpt lat="43.62432" lon="3.83664">
        <ele>77</ele>
        <time>2021-02-20T12:05:41Z</time>
      </trkpt>
      <trkpt lat="43.62435" lon="3.83663">
        <ele>77</ele>
        <time>2021-02-20T12:05:42Z</time>
      </trkpt>
      <trkpt lat="43.62438" lon="3.83662">
        <ele>77</ele>
        <time>2021-02-20T12:05:43Z</time>
      </trkpt>
      <trkpt lat="43.62441" lon="3.83661">
        <ele>77</ele>
        <time>2021-02-20T12:05:44Z</time>
      </trkpt>
      <trkpt lat="43.62443" lon="3.83659">
        <ele>77</ele>
        <time>2021-02-20T12:05:45Z</time>
      </trkpt>
      <trkpt lat="43.62446" lon="3.83658">
        <ele>77</ele>
        <time>2021-02-20T12:05:46Z</time>
      </trkpt>
      <trkpt lat="43.62449" lon="3.83657">
        <ele>77</ele>
        <time>2021-02-20T12:05:47Z</time>
      </trkpt>
      <trkpt lat="43.62451" lon="3.83656">
        <ele>77</ele>
        <time>2021-02-20T12:05:48Z</time>
      </trkpt>
      <trkpt lat="43.62454" lon="3.83655">
        <ele>77</ele>
        <time>2021-02-20T12:05:49Z</time>
      </trkpt>
      <trkpt lat="43.62457" lon="3.83654">
        <ele>77</ele>
        <time>2021-02-20T12:05:50Z</time>
      </trkpt>
      <trkpt lat="43.62459" lon="3.83653">
        <ele>77</ele>
        <time>2021-02-20T12:05:51Z</time>
      </trkpt>
      <trkpt lat="43.62462" lon="3.83652">
        <ele>77</ele>
        <time>2021-02-20T12:05:52Z</time>
      </trkpt>
      <trkpt lat="43.62464" lon="3.83651">
        <ele>77</ele>
        <time>2021-02-20T12:05:53Z</time>
      </trkpt>
      <trkpt lat="43.62467" lon="3.8365">
        <ele>77</ele>
        <time>2021-02-20T12:05:54Z</time>
      </trkpt>
      <trkpt lat="43.62469" lon="3.83649">
        <ele>78</ele>
        <time>2021-02-20T12:05:55Z</time>
      </trkpt>
      <trkpt lat="43.62471" lon="3.83648">
        <ele>78</ele>
        <time>2021-02-20T12:05:56Z</time>
      </trkpt>
      <trkpt lat="43.62474" lon="3.83647">
        <ele>78</ele>
        <time>2021-02-20T12:05:57Z</time>
      </trkpt>
      <trkpt lat="43.62476" lon="3.83647">
        <ele>78</ele>
        <time>2021-02-20T12:05:58Z</time>
      </trkpt>
      <trkpt lat="43.62478" lon="3.83646">
        <ele>78</ele>
        <time>2021-02-20T12:05:59Z</time>
      </trkpt>
      <trkpt lat="43.62481" lon="3.83645">
        <ele>78</ele>
        <time>2021-02-20T12:06:00Z</time>
      </trkpt>
      <trkpt lat="43.62484" lon="3.83644">
        <ele>78</ele>
        <time>2021-02-20T12:06:01Z</time>
      </trkpt>
      <trkpt lat="43.62486" lon="3.83643">
        <ele>78</ele>
        <time>2021-02-20T12:06:02Z</time>
      </trkpt>
      <trkpt lat="43.62488" lon="3.83641">
        <ele>78</ele>
        <time>2021-02-20T12:06:03Z</time>
      </trkpt>
      <trkpt lat="43.6249" lon="3.83637">
        <ele>78</ele>
        <time>2021-02-20T12:06:04Z</time>
      </trkpt>
      <trkpt lat="43.62491" lon="3.83634">
        <ele>79</ele>
        <time>2021-02-20T12:06:05Z</time>
      </trkpt>
      <trkpt lat="43.62493" lon="3.8363">
        <ele>79</ele>
        <time>2021-02-20T12:06:06Z</time>
      </trkpt>
      <trkpt lat="43.62494" lon="3.83626">
        <ele>79</ele>
        <time>2021-02-20T12:06:07Z</time>
      </trkpt>
      <trkpt lat="43.62495" lon="3.83623">
        <ele>79</ele>
        <time>2021-02-20T12:06:08Z</time>
      </trkpt>
      <trkpt lat="43.62495" lon="3.8362">
        <ele>79</ele>
        <time>2021-02-20T12:06:09Z</time>
      </trkpt>
      <trkpt lat="43.62496" lon="3.83617">
        <ele>79</ele>
        <time>2021-02-20T12:06:10Z</time>
      </trkpt>
      <trkpt lat="43.62498" lon="3.83614">
        <ele>79</ele>
        <time>2021-02-20T12:06:11Z</time>
      </trkpt>
      <trkpt lat="43.625" lon="3.83611">
        <ele>79</ele>
        <time>2021-02-20T12:06:12Z</time>
      </trkpt>
      <trkpt lat="43.62502" lon="3.83609">
        <ele>79</ele>
        <time>2021-02-20T12:06:13Z</time>
      </trkpt>
      <trkpt lat="43.62504" lon="3.83607">
        <ele>79</ele>
        <time>2021-02-20T12:06:14Z</time>
      </trkpt>
      <trkpt lat="43.62507" lon="3.83605">
        <ele>79</ele>
        <time>2021-02-20T12:06:15Z</time>
      </trkpt>
      <trkpt lat="43.62509" lon="3.83604">
        <ele>79</ele>
        <time>2021-02-20T12:06:16Z</time>
      </trkpt>
      <trkpt lat="43.62512" lon="3.83603">
        <ele>79</ele>
        <time>2021-02-20T12:06:17Z</time>
      </trkpt>
      <trkpt lat="43.62515" lon="3.83602">
        <ele>79</ele>
        <time>2021-02-20T12:06:18Z</time>
      </trkpt>
      <trkpt lat="43.62518" lon="3.83602">
        <ele>79</ele>
        <time>2021-02-20T12:06:19Z</time>
      </trkpt>
      <trkpt lat="43.62522" lon="3.83602">
        <ele>79</ele>
        <time>2021-02-20T12:06:20Z</time>
      </trkpt>
      <trkpt lat="43.62525" lon="3.83603">
        <ele>79</ele>
        <time>2021-02-20T12:06:21Z</time>
      </trkpt>
      <trkpt lat="43.62528" lon="3.83604">
        <ele>79</ele>
        <time>2021-02-20T12:06:22Z</time>
      </trkpt>
      <trkpt lat="43.62531" lon="3.83605">
        <ele>79</ele>
        <time>2021-02-20T12:06:23Z</time>
      </trkpt>
      <trkpt lat="43.62534" lon="3.83607">
        <ele>79</ele>
        <time>2021-02-20T12:06:24Z</time>
      </trkpt>
      <trkpt lat="43.62536" lon="3.83609">
        <ele>79</ele>
        <time>2021-02-20T12:06:25Z</time>
      </trkpt>
      <trkpt lat="43.62539" lon="3.83612">
        <ele>79</ele>
        <time>2021-02-20T12:06:26Z</time>
      </trkpt>
      <trkpt lat="43.62541" lon="3.83614">
        <ele>79</ele>
        <time>2021-02-20T12:06:27Z</time>
      </trkpt>
      <trkpt lat="43.62544" lon="3.83617">
        <ele>79</ele>
        <time>2021-02-20T12:06:28Z</time>
      </trkpt>
      <trkpt lat="43.62546" lon="3.83619">
        <ele>79</ele>
        <time>2021-02-20T12:06:29Z</time>
      </trkpt>
      <trkpt lat="43.62548" lon="3.83619">
        <ele>79</ele>
        <time>2021-02-20T12:06:30Z</time>
      </trkpt>
      <trkpt lat="43.62551" lon="3.83618">
        <ele>79</ele>
        <time>2021-02-20T12:06:31Z</time>
      </trkpt>
      <trkpt lat="43.62554" lon="3.83617">
        <ele>79</ele>
        <time>2021-02-20T12:06:32Z</time>
      </trkpt>
      <trkpt lat="43.62556" lon="3.83616">
        <ele>79</ele>
        <time>2021-02-20T12:06:33Z</time>
      </trkpt>
      <trkpt lat="43.62559" lon="3.83616">
        <ele>79</ele>
        <time>2021-02-20T12:06:34Z</time>
      </trkpt>
      <trkpt lat="43.62561" lon="3.83615">
        <ele>78</ele>
        <time>2021-02-20T12:06:35Z</time>
      </trkpt>
      <trkpt lat="43.62564" lon="3.83614">
        <ele>78</ele>
        <time>2021-02-20T12:06:36Z</time>
      </trkpt>
      <trkpt lat="43.62567" lon="3.83612">
        <ele>78</ele>
        <time>2021-02-20T12:06:37Z</time>
      </trkpt>
      <trkpt lat="43.62569" lon="3.83611">
        <ele>78</ele>
        <time>2021-02-20T12:06:38Z</time>
      </trkpt>
      <trkpt lat="43.62572" lon="3.8361">
        <ele>78</ele>
        <time>2021-02-20T12:06:39Z</time>
      </trkpt>
      <trkpt lat="43.62574" lon="3.83607">
        <ele>78</ele>
        <time>2021-02-20T12:06:40Z</time>
      </trkpt>
      <trkpt lat="43.62575" lon="3.83605">
        <ele>78</ele>
        <time>2021-02-20T12:06:41Z</time>
      </trkpt>
      <trkpt lat="43.62575" lon="3.83602">
        <ele>78</ele>
        <time>2021-02-20T12:06:42Z</time>
      </trkpt>
      <trkpt lat="43.62575" lon="3.83599">
        <ele>78</ele>
        <time>2021-02-20T12:06:43Z</time>
      </trkpt>
      <trkpt lat="43.62574" lon="3.83596">
        <ele>78</ele>
        <time>2021-02-20T12:06:44Z</time>
      </trkpt>
      <trkpt lat="43.62573" lon="3.83593">
        <ele>78</ele>
        <time>2021-02-20T12:06:45Z</time>
      </trkpt>
      <trkpt lat="43.62571" lon="3.8359">
        <ele>78</ele>
        <time>2021-02-20T12:06:46Z</time>
      </trkpt>
      <trkpt lat="43.62569" lon="3.83587">
        <ele>78</ele>
        <time>2021-02-20T12:06:47Z</time>
      </trkpt>
      <trkpt lat="43.62565" lon="3.83584">
        <ele>78</ele>
        <time>2021-02-20T12:06:48Z</time>
      </trkpt>
      <trkpt lat="43.62562" lon="3.8358">
        <ele>78</ele>
        <time>2021-02-20T12:06:49Z</time>
      </trkpt>
      <trkpt lat="43.6256" lon="3.83577">
        <ele>78</ele>
        <time>2021-02-20T12:06:50Z</time>
      </trkpt>
      <trkpt lat="43.62557" lon="3.83574">
        <ele>78</ele>
        <time>2021-02-20T12:06:51Z</time>
      </trkpt>
      <trkpt lat="43.62554" lon="3.8357">
        <ele>78</ele>
        <time>2021-02-20T12:06:52Z</time>
      </trkpt>
      <trkpt lat="43.62551" lon="3.83567">
        <ele>78</ele>
        <time>2021-02-20T12:06:53Z</time>
      </trkpt>
      <trkpt lat="43.62548" lon="3.83564">
        <ele>78</ele>
        <time>2021-02-20T12:06:54Z</time>
      </trkpt>
      <trkpt lat="43.62545" lon="3.83561">
        <ele>77</ele>
        <time>2021-02-20T12:06:55Z</time>
      </trkpt>
      <trkpt lat="43.62541" lon="3.83559">
        <ele>77</ele>
        <time>2021-02-20T12:06:56Z</time>
      </trkpt>
      <trkpt lat="43.62538" lon="3.83556">
        <ele>77</ele>
        <time>2021-02-20T12:06:57Z</time>
      </trkpt>
      <trkpt lat="43.62536" lon="3.83553">
        <ele>77</ele>
        <time>2021-02-20T12:06:58Z</time>
      </trkpt>
      <trkpt lat="43.62534" lon="3.8355">
        <ele>77</ele>
        <time>2021-02-20T12:06:59Z</time>
      </trkpt>
      <trkpt lat="43.62532" lon="3.83546">
        <ele>77</ele>
        <time>2021-02-20T12:07:00Z</time>
      </trkpt>
      <trkpt lat="43.62532" lon="3.83543">
        <ele>77</ele>
        <time>2021-02-20T12:07:01Z</time>
      </trkpt>
      <trkpt lat="43.62531" lon="3.83539">
        <ele>77</ele>
        <time>2021-02-20T12:07:02Z</time>
      </trkpt>
      <trkpt lat="43.6253" lon="3.83535">
        <ele>77</ele>
        <time>2021-02-20T12:07:03Z</time>
      </trkpt>
      <trkpt lat="43.62529" lon="3.83531">
        <ele>77</ele>
        <time>2021-02-20T12:07:04Z</time>
      </trkpt>
      <trkpt lat="43.62527" lon="3.83527">
        <ele>77</ele>
        <time>2021-02-20T12:07:05Z</time>
      </trkpt>
      <trkpt lat="43.62526" lon="3.83523">
        <ele>77</ele>
        <time>2021-02-20T12:07:06Z</time>
      </trkpt>
      <trkpt lat="43.62524" lon="3.83519">
        <ele>77</ele>
        <time>2021-02-20T12:07:07Z</time>
      </trkpt>
      <trkpt lat="43.62523" lon="3.83515">
        <ele>77</ele>
        <time>2021-02-20T12:07:08Z</time>
      </trkpt>
      <trkpt lat="43.62521" lon="3.83512">
        <ele>77</ele>
        <time>2021-02-20T12:07:09Z</time>
      </trkpt>
      <trkpt lat="43.6252" lon="3.83508">
        <ele>77</ele>
        <time>2021-02-20T12:07:10Z</time>
      </trkpt>
      <trkpt lat="43.62518" lon="3.83505">
        <ele>77</ele>
        <time>2021-02-20T12:07:11Z</time>
      </trkpt>
      <trkpt lat="43.62517" lon="3.83501">
        <ele>77</ele>
        <time>2021-02-20T12:07:12Z</time>
      </trkpt>
      <trkpt lat="43.62515" lon="3.83498">
        <ele>77</ele>
        <time>2021-02-20T12:07:13Z</time>
      </trkpt>
      <trkpt lat="43.62514" lon="3.83494">
        <ele>77</ele>
        <time>2021-02-20T12:07:14Z</time>
      </trkpt>
      <trkpt lat="43.62512" lon="3.83491">
        <ele>78</ele>
        <time>2021-02-20T12:07:15Z</time>
      </trkpt>
      <trkpt lat="43.62511" lon="3.83488">
        <ele>78</ele>
        <time>2021-02-20T12:07:16Z</time>
      </trkpt>
      <trkpt lat="43.6251" lon="3.83485">
        <ele>78</ele>
        <time>2021-02-20T12:07:17Z</time>
      </trkpt>
      <trkpt lat="43.62508" lon="3.83481">
        <ele>78</ele>
        <time>2021-02-20T12:07:18Z</time>
      </trkpt>
      <trkpt lat="43.62508" lon="3.83477">
        <ele>78</ele>
        <time>2021-02-20T12:07:19Z</time>
      </trkpt>
      <trkpt lat="43.62507" lon="3.83473">
        <ele>78</ele>
        <time>2021-02-20T12:07:20Z</time>
      </trkpt>
      <trkpt lat="43.62504" lon="3.83465">
        <ele>78</ele>
        <time>2021-02-20T12:07:21Z</time>
      </trkpt>
      <trkpt lat="43.62504" lon="3.83461">
        <ele>78</ele>
        <time>2021-02-20T12:07:22Z</time>
      </trkpt>
      <trkpt lat="43.62504" lon="3.83456">
        <ele>78</ele>
        <time>2021-02-20T12:07:23Z</time>
      </trkpt>
      <trkpt lat="43.62505" lon="3.83451">
        <ele>78</ele>
        <time>2021-02-20T12:07:25Z</time>
      </trkpt>
      <trkpt lat="43.62506" lon="3.83446">
        <ele>78</ele>
        <time>2021-02-20T12:07:26Z</time>
      </trkpt>
      <trkpt lat="43.62508" lon="3.83441">
        <ele>78</ele>
        <time>2021-02-20T12:07:27Z</time>
      </trkpt>
      <trkpt lat="43.62509" lon="3.83436">
        <ele>78</ele>
        <time>2021-02-20T12:07:28Z</time>
      </trkpt>
      <trkpt lat="43.6251" lon="3.83432">
        <ele>78</ele>
        <time>2021-02-20T12:07:29Z</time>
      </trkpt>
      <trkpt lat="43.62512" lon="3.83427">
        <ele>78</ele>
        <time>2021-02-20T12:07:30Z</time>
      </trkpt>
      <trkpt lat="43.62513" lon="3.83423">
        <ele>78</ele>
        <time>2021-02-20T12:07:31Z</time>
      </trkpt>
      <trkpt lat="43.62514" lon="3.83419">
        <ele>78</ele>
        <time>2021-02-20T12:07:32Z</time>
      </trkpt>
      <trkpt lat="43.62514" lon="3.83415">
        <ele>78</ele>
        <time>2021-02-20T12:07:33Z</time>
      </trkpt>
      <trkpt lat="43.62515" lon="3.8341">
        <ele>78</ele>
        <time>2021-02-20T12:07:34Z</time>
      </trkpt>
      <trkpt lat="43.62515" lon="3.83405">
        <ele>77</ele>
        <time>2021-02-20T12:07:35Z</time>
      </trkpt>
      <trkpt lat="43.62515" lon="3.834">
        <ele>77</ele>
        <time>2021-02-20T12:07:36Z</time>
      </trkpt>
      <trkpt lat="43.62517" lon="3.83394">
        <ele>77</ele>
        <time>2021-02-20T12:07:37Z</time>
      </trkpt>
      <trkpt lat="43.62518" lon="3.83389">
        <ele>77</ele>
        <time>2021-02-20T12:07:38Z</time>
      </trkpt>
      <trkpt lat="43.6252" lon="3.83385">
        <ele>77</ele>
        <time>2021-02-20T12:07:39Z</time>
      </trkpt>
      <trkpt lat="43.62522" lon="3.8338">
        <ele>77</ele>
        <time>2021-02-20T12:07:40Z</time>
      </trkpt>
      <trkpt lat="43.62523" lon="3.83375">
        <ele>77</ele>
        <time>2021-02-20T12:07:41Z</time>
      </trkpt>
      <trkpt lat="43.62525" lon="3.83371">
        <ele>77</ele>
        <time>2021-02-20T12:07:42Z</time>
      </trkpt>
      <trkpt lat="43.62526" lon="3.83366">
        <ele>77</ele>
        <time>2021-02-20T12:07:43Z</time>
      </trkpt>
      <trkpt lat="43.62528" lon="3.83361">
        <ele>77</ele>
        <time>2021-02-20T12:07:44Z</time>
      </trkpt>
      <trkpt lat="43.62529" lon="3.83357">
        <ele>77</ele>
        <time>2021-02-20T12:07:45Z</time>
      </trkpt>
      <trkpt lat="43.62531" lon="3.83352">
        <ele>77</ele>
        <time>2021-02-20T12:07:46Z</time>
      </trkpt>
      <trkpt lat="43.62532" lon="3.83348">
        <ele>77</ele>
        <time>2021-02-20T12:07:47Z</time>
      </trkpt>
      <trkpt lat="43.62534" lon="3.83343">
        <ele>77</ele>
        <time>2021-02-20T12:07:48Z</time>
      </trkpt>
      <trkpt lat="43.62535" lon="3.83338">
        <ele>77</ele>
        <time>2021-02-20T12:07:49Z</time>
      </trkpt>
      <trkpt lat="43.62537" lon="3.83334">
        <ele>77</ele>
        <time>2021-02-20T12:07:50Z</time>
      </trkpt>
      <trkpt lat="43.62539" lon="3.83329">
        <ele>77</ele>
        <time>2021-02-20T12:07:51Z</time>
      </trkpt>
      <trkpt lat="43.6254" lon="3.83325">
        <ele>77</ele>
        <time>2021-02-20T12:07:52Z</time>
      </trkpt>
      <trkpt lat="43.62542" lon="3.8332">
        <ele>77</ele>
        <time>2021-02-20T12:07:53Z</time>
      </trkpt>
      <trkpt lat="43.62544" lon="3.83315">
        <ele>77</ele>
        <time>2021-02-20T12:07:54Z</time>
      </trkpt>
      <trkpt lat="43.62545" lon="3.83311">
        <ele>78</ele>
        <time>2021-02-20T12:07:55Z</time>
      </trkpt>
      <trkpt lat="43.62547" lon="3.83306">
        <ele>78</ele>
        <time>2021-02-20T12:07:56Z</time>
      </trkpt>
      <trkpt lat="43.62548" lon="3.83302">
        <ele>78</ele>
        <time>2021-02-20T12:07:57Z</time>
      </trkpt>
      <trkpt lat="43.6255" lon="3.83297">
        <ele>78</ele>
        <time>2021-02-20T12:07:58Z</time>
      </trkpt>
      <trkpt lat="43.62551" lon="3.83293">
        <ele>78</ele>
        <time>2021-02-20T12:07:59Z</time>
      </trkpt>
      <trkpt lat="43.62553" lon="3.83289">
        <ele>78</ele>
        <time>2021-02-20T12:08:00Z</time>
      </trkpt>
      <trkpt lat="43.62554" lon="3.83285">
        <ele>78</ele>
        <time>2021-02-20T12:08:01Z</time>
      </trkpt>
      <trkpt lat="43.62557" lon="3.83281">
        <ele>78</ele>
        <time>2021-02-20T12:08:02Z</time>
      </trkpt>
      <trkpt lat="43.62559" lon="3.83278">
        <ele>78</ele>
        <time>2021-02-20T12:08:03Z</time>
      </trkpt>
      <trkpt lat="43.62562" lon="3.83275">
        <ele>78</ele>
        <time>2021-02-20T12:08:04Z</time>
      </trkpt>
      <trkpt lat="43.62565" lon="3.83272">
        <ele>79</ele>
        <time>2021-02-20T12:08:05Z</time>
      </trkpt>
      <trkpt lat="43.62568" lon="3.8327">
        <ele>79</ele>
        <time>2021-02-20T12:08:06Z</time>
      </trkpt>
      <trkpt lat="43.62571" lon="3.83267">
        <ele>79</ele>
        <time>2021-02-20T12:08:07Z</time>
      </trkpt>
      <trkpt lat="43.62574" lon="3.83264">
        <ele>79</ele>
        <time>2021-02-20T12:08:08Z</time>
      </trkpt>
      <trkpt lat="43.62576" lon="3.83261">
        <ele>79</ele>
        <time>2021-02-20T12:08:09Z</time>
      </trkpt>
      <trkpt lat="43.62578" lon="3.83257">
        <ele>79</ele>
        <time>2021-02-20T12:08:10Z</time>
      </trkpt>
      <trkpt lat="43.6258" lon="3.83253">
        <ele>79</ele>
        <time>2021-02-20T12:08:11Z</time>
      </trkpt>
      <trkpt lat="43.62581" lon="3.83249">
        <ele>79</ele>
        <time>2021-02-20T12:08:12Z</time>
      </trkpt>
      <trkpt lat="43.62583" lon="3.83246">
        <ele>79</ele>
        <time>2021-02-20T12:08:13Z</time>
      </trkpt>
      <trkpt lat="43.62585" lon="3.83242">
        <ele>79</ele>
        <time>2021-02-20T12:08:14Z</time>
      </trkpt>
      <trkpt lat="43.62587" lon="3.83238">
        <ele>80</ele>
        <time>2021-02-20T12:08:15Z</time>
      </trkpt>
      <trkpt lat="43.6259" lon="3.83235">
        <ele>80</ele>
        <time>2021-02-20T12:08:16Z</time>
      </trkpt>
      <trkpt lat="43.62593" lon="3.83233">
        <ele>80</ele>
        <time>2021-02-20T12:08:17Z</time>
      </trkpt>
      <trkpt lat="43.62596" lon="3.83231">
        <ele>80</ele>
        <time>2021-02-20T12:08:18Z</time>
      </trkpt>
      <trkpt lat="43.62599" lon="3.83229">
        <ele>80</ele>
        <time>2021-02-20T12:08:19Z</time>
      </trkpt>
      <trkpt lat="43.62601" lon="3.83227">
        <ele>80</ele>
        <time>2021-02-20T12:08:20Z</time>
      </trkpt>
      <trkpt lat="43.62604" lon="3.83224">
        <ele>80</ele>
        <time>2021-02-20T12:08:21Z</time>
      </trkpt>
      <trkpt lat="43.62607" lon="3.83222">
        <ele>80</ele>
        <time>2021-02-20T12:08:22Z</time>
      </trkpt>
      <trkpt lat="43.62609" lon="3.8322">
        <ele>80</ele>
        <time>2021-02-20T12:08:23Z</time>
      </trkpt>
      <trkpt lat="43.62612" lon="3.83218">
        <ele>80</ele>
        <time>2021-02-20T12:08:24Z</time>
      </trkpt>
      <trkpt lat="43.62614" lon="3.83216">
        <ele>81</ele>
        <time>2021-02-20T12:08:25Z</time>
      </trkpt>
      <trkpt lat="43.62617" lon="3.83213">
        <ele>81</ele>
        <time>2021-02-20T12:08:26Z</time>
      </trkpt>
      <trkpt lat="43.6262" lon="3.83211">
        <ele>81</ele>
        <time>2021-02-20T12:08:27Z</time>
      </trkpt>
      <trkpt lat="43.62622" lon="3.83209">
        <ele>81</ele>
        <time>2021-02-20T12:08:28Z</time>
      </trkpt>
      <trkpt lat="43.62625" lon="3.83206">
        <ele>81</ele>
        <time>2021-02-20T12:08:29Z</time>
      </trkpt>
      <trkpt lat="43.62628" lon="3.83204">
        <ele>81</ele>
        <time>2021-02-20T12:08:30Z</time>
      </trkpt>
      <trkpt lat="43.62631" lon="3.83201">
        <ele>81</ele>
        <time>2021-02-20T12:08:31Z</time>
      </trkpt>
      <trkpt lat="43.62634" lon="3.83199">
        <ele>81</ele>
        <time>2021-02-20T12:08:32Z</time>
      </trkpt>
      <trkpt lat="43.62637" lon="3.83196">
        <ele>81</ele>
        <time>2021-02-20T12:08:33Z</time>
      </trkpt>
      <trkpt lat="43.6264" lon="3.83194">
        <ele>81</ele>
        <time>2021-02-20T12:08:34Z</time>
      </trkpt>
      <trkpt lat="43.62643" lon="3.83193">
        <ele>83</ele>
        <time>2021-02-20T12:08:35Z</time>
      </trkpt>
      <trkpt lat="43.62645" lon="3.83191">
        <ele>83</ele>
        <time>2021-02-20T12:08:36Z</time>
      </trkpt>
      <trkpt lat="43.62648" lon="3.83189">
        <ele>83</ele>
        <time>2021-02-20T12:08:37Z</time>
      </trkpt>
      <trkpt lat="43.62651" lon="3.83187">
        <ele>83</ele>
        <time>2021-02-20T12:08:38Z</time>
      </trkpt>
      <trkpt lat="43.62654" lon="3.83185">
        <ele>83</ele>
        <time>2021-02-20T12:08:39Z</time>
      </trkpt>
      <trkpt lat="43.62657" lon="3.83183">
        <ele>83</ele>
        <time>2021-02-20T12:08:40Z</time>
      </trkpt>
      <trkpt lat="43.6266" lon="3.83181">
        <ele>83</ele>
        <time>2021-02-20T12:08:41Z</time>
      </trkpt>
      <trkpt lat="43.62663" lon="3.83179">
        <ele>83</ele>
        <time>2021-02-20T12:08:42Z</time>
      </trkpt>
      <trkpt lat="43.62666" lon="3.83176">
        <ele>83</ele>
        <time>2021-02-20T12:08:43Z</time>
      </trkpt>
      <trkpt lat="43.62668" lon="3.83174">
        <ele>83</ele>
        <time>2021-02-20T12:08:44Z</time>
      </trkpt>
      <trkpt lat="43.62671" lon="3.83171">
        <ele>84</ele>
        <time>2021-02-20T12:08:45Z</time>
      </trkpt>
      <trkpt lat="43.62672" lon="3.83169">
        <ele>84</ele>
        <time>2021-02-20T12:08:46Z</time>
      </trkpt>
      <trkpt lat="43.62673" lon="3.83165">
        <ele>84</ele>
        <time>2021-02-20T12:08:48Z</time>
      </trkpt>
      <trkpt lat="43.62672" lon="3.83161">
        <ele>84</ele>
        <time>2021-02-20T12:08:50Z</time>
      </trkpt>
      <trkpt lat="43.62671" lon="3.83158">
        <ele>84</ele>
        <time>2021-02-20T12:08:51Z</time>
      </trkpt>
      <trkpt lat="43.62671" lon="3.83153">
        <ele>84</ele>
        <time>2021-02-20T12:08:52Z</time>
      </trkpt>
      <trkpt lat="43.62673" lon="3.8315">
        <ele>84</ele>
        <time>2021-02-20T12:08:53Z</time>
      </trkpt>
      <trkpt lat="43.62675" lon="3.83148">
        <ele>84</ele>
        <time>2021-02-20T12:08:54Z</time>
      </trkpt>
      <trkpt lat="43.62677" lon="3.83147">
        <ele>84</ele>
        <time>2021-02-20T12:08:55Z</time>
      </trkpt>
      <trkpt lat="43.6268" lon="3.83146">
        <ele>84</ele>
        <time>2021-02-20T12:08:56Z</time>
      </trkpt>
      <trkpt lat="43.62682" lon="3.83144">
        <ele>84</ele>
        <time>2021-02-20T12:08:57Z</time>
      </trkpt>
      <trkpt lat="43.62684" lon="3.83142">
        <ele>84</ele>
        <time>2021-02-20T12:08:58Z</time>
      </trkpt>
      <trkpt lat="43.62686" lon="3.83141">
        <ele>84</ele>
        <time>2021-02-20T12:08:59Z</time>
      </trkpt>
      <trkpt lat="43.62689" lon="3.8314">
        <ele>84</ele>
        <time>2021-02-20T12:09:00Z</time>
      </trkpt>
      <trkpt lat="43.62691" lon="3.83138">
        <ele>84</ele>
        <time>2021-02-20T12:09:01Z</time>
      </trkpt>
      <trkpt lat="43.62694" lon="3.83136">
        <ele>84</ele>
        <time>2021-02-20T12:09:02Z</time>
      </trkpt>
      <trkpt lat="43.62696" lon="3.83134">
        <ele>84</ele>
        <time>2021-02-20T12:09:03Z</time>
      </trkpt>
      <trkpt lat="43.62699" lon="3.83132">
        <ele>84</ele>
        <time>2021-02-20T12:09:04Z</time>
      </trkpt>
      <trkpt lat="43.62702" lon="3.83131">
        <ele>86</ele>
        <time>2021-02-20T12:09:05Z</time>
      </trkpt>
      <trkpt lat="43.62704" lon="3.83129">
        <ele>86</ele>
        <time>2021-02-20T12:09:06Z</time>
      </trkpt>
      <trkpt lat="43.62706" lon="3.83127">
        <ele>86</ele>
        <time>2021-02-20T12:09:07Z</time>
      </trkpt>
      <trkpt lat="43.62708" lon="3.83126">
        <ele>86</ele>
        <time>2021-02-20T12:09:08Z</time>
      </trkpt>
      <trkpt lat="43.62711" lon="3.83124">
        <ele>86</ele>
        <time>2021-02-20T12:09:09Z</time>
      </trkpt>
      <trkpt lat="43.62713" lon="3.83123">
        <ele>86</ele>
        <time>2021-02-20T12:09:10Z</time>
      </trkpt>
      <trkpt lat="43.62716" lon="3.83122">
        <ele>86</ele>
        <time>2021-02-20T12:09:11Z</time>
      </trkpt>
      <trkpt lat="43.62718" lon="3.8312">
        <ele>86</ele>
        <time>2021-02-20T12:09:12Z</time>
      </trkpt>
      <trkpt lat="43.62721" lon="3.83119">
        <ele>86</ele>
        <time>2021-02-20T12:09:13Z</time>
      </trkpt>
      <trkpt lat="43.62723" lon="3.83117">
        <ele>86</ele>
        <time>2021-02-20T12:09:14Z</time>
      </trkpt>
      <trkpt lat="43.62726" lon="3.83116">
        <ele>86</ele>
        <time>2021-02-20T12:09:15Z</time>
      </trkpt>
      <trkpt lat="43.62728" lon="3.83115">
        <ele>86</ele>
        <time>2021-02-20T12:09:16Z</time>
      </trkpt>
      <trkpt lat="43.6273" lon="3.83113">
        <ele>86</ele>
        <time>2021-02-20T12:09:17Z</time>
      </trkpt>
      <trkpt lat="43.62733" lon="3.83112">
        <ele>86</ele>
        <time>2021-02-20T12:09:18Z</time>
      </trkpt>
      <trkpt lat="43.62735" lon="3.83111">
        <ele>86</ele>
        <time>2021-02-20T12:09:19Z</time>
      </trkpt>
      <trkpt lat="43.62737" lon="3.8311">
        <ele>86</ele>
        <time>2021-02-20T12:09:20Z</time>
      </trkpt>
      <trkpt lat="43.62739" lon="3.83108">
        <ele>86</ele>
        <time>2021-02-20T12:09:21Z</time>
      </trkpt>
      <trkpt lat="43.62742" lon="3.83107">
        <ele>86</ele>
        <time>2021-02-20T12:09:22Z</time>
      </trkpt>
      <trkpt lat="43.62744" lon="3.83106">
        <ele>86</ele>
        <time>2021-02-20T12:09:23Z</time>
      </trkpt>
      <trkpt lat="43.62747" lon="3.83105">
        <ele>86</ele>
        <time>2021-02-20T12:09:24Z</time>
      </trkpt>
      <trkpt lat="43.62749" lon="3.83104">
        <ele>87</ele>
        <time>2021-02-20T12:09:25Z</time>
      </trkpt>
      <trkpt lat="43.62752" lon="3.83103">
        <ele>87</ele>
        <time>2021-02-20T12:09:26Z</time>
      </trkpt>
      <trkpt lat="43.62754" lon="3.83102">
        <ele>87</ele>
        <time>2021-02-20T12:09:27Z</time>
      </trkpt>
      <trkpt lat="43.62757" lon="3.83101">
        <ele>87</ele>
        <time>2021-02-20T12:09:28Z</time>
      </trkpt>
      <trkpt lat="43.6276" lon="3.831">
        <ele>87</ele>
        <time>2021-02-20T12:09:29Z</time>
      </trkpt>
      <trkpt lat="43.62763" lon="3.83099">
        <ele>87</ele>
        <time>2021-02-20T12:09:30Z</time>
      </trkpt>
      <trkpt lat="43.62766" lon="3.83099">
        <ele>87</ele>
        <time>2021-02-20T12:09:31Z</time>
      </trkpt>
      <trkpt lat="43.62769" lon="3.83098">
        <ele>87</ele>
        <time>2021-02-20T12:09:32Z</time>
      </trkpt>
      <trkpt lat="43.62773" lon="3.83097">
        <ele>87</ele>
        <time>2021-02-20T12:09:33Z</time>
      </trkpt>
      <trkpt lat="43.62776" lon="3.83096">
        <ele>87</ele>
        <time>2021-02-20T12:09:34Z</time>
      </trkpt>
      <trkpt lat="43.6278" lon="3.83096">
        <ele>87</ele>
        <time>2021-02-20T12:09:35Z</time>
      </trkpt>
      <trkpt lat="43.62784" lon="3.83096">
        <ele>87</ele>
        <time>2021-02-20T12:09:36Z</time>
      </trkpt>
      <trkpt lat="43.62787" lon="3.83097">
        <ele>87</ele>
        <time>2021-02-20T12:09:37Z</time>
      </trkpt>
      <trkpt lat="43.62789" lon="3.83096">
        <ele>87</ele>
        <time>2021-02-20T12:09:38Z</time>
      </trkpt>
      <trkpt lat="43.62792" lon="3.83095">
        <ele>87</ele>
        <time>2021-02-20T12:09:39Z</time>
      </trkpt>
      <trkpt lat="43.62795" lon="3.83094">
        <ele>87</ele>
        <time>2021-02-20T12:09:40Z</time>
      </trkpt>
      <trkpt lat="43.62798" lon="3.83093">
        <ele>87</ele>
        <time>2021-02-20T12:09:41Z</time>
      </trkpt>
      <trkpt lat="43.62801" lon="3.83092">
        <ele>87</ele>
        <time>2021-02-20T12:09:42Z</time>
      </trkpt>
      <trkpt lat="43.62805" lon="3.83091">
        <ele>87</ele>
        <time>2021-02-20T12:09:43Z</time>
      </trkpt>
      <trkpt lat="43.62808" lon="3.8309">
        <ele>87</ele>
        <time>2021-02-20T12:09:44Z</time>
      </trkpt>
      <trkpt lat="43.62811" lon="3.83089">
        <ele>86</ele>
        <time>2021-02-20T12:09:45Z</time>
      </trkpt>
      <trkpt lat="43.62814" lon="3.83088">
        <ele>86</ele>
        <time>2021-02-20T12:09:46Z</time>
      </trkpt>
      <trkpt lat="43.62817" lon="3.83088">
        <ele>86</ele>
        <time>2021-02-20T12:09:47Z</time>
      </trkpt>
      <trkpt lat="43.62821" lon="3.83088">
        <ele>86</ele>
        <time>2021-02-20T12:09:48Z</time>
      </trkpt>
      <trkpt lat="43.62824" lon="3.83087">
        <ele>86</ele>
        <time>2021-02-20T12:09:49Z</time>
      </trkpt>
      <trkpt lat="43.62827" lon="3.83087">
        <ele>86</ele>
        <time>2021-02-20T12:09:50Z</time>
      </trkpt>
      <trkpt lat="43.6283" lon="3.83087">
        <ele>86</ele>
        <time>2021-02-20T12:09:51Z</time>
      </trkpt>
      <trkpt lat="43.62833" lon="3.83086">
        <ele>86</ele>
        <time>2021-02-20T12:09:52Z</time>
      </trkpt>
      <trkpt lat="43.62835" lon="3.83086">
        <ele>86</ele>
        <time>2021-02-20T12:09:53Z</time>
      </trkpt>
      <trkpt lat="43.62838" lon="3.83085">
        <ele>86</ele>
        <time>2021-02-20T12:09:54Z</time>
      </trkpt>
      <trkpt lat="43.62841" lon="3.83082">
        <ele>86</ele>
        <time>2021-02-20T12:09:55Z</time>
      </trkpt>
      <trkpt lat="43.62842" lon="3.83079">
        <ele>86</ele>
        <time>2021-02-20T12:09:56Z</time>
      </trkpt>
      <trkpt lat="43.62844" lon="3.83074">
        <ele>86</ele>
        <time>2021-02-20T12:09:57Z</time>
      </trkpt>
      <trkpt lat="43.62845" lon="3.8307">
        <ele>86</ele>
        <time>2021-02-20T12:09:58Z</time>
      </trkpt>
      <trkpt lat="43.62846" lon="3.83064">
        <ele>86</ele>
        <time>2021-02-20T12:09:59Z</time>
      </trkpt>
      <trkpt lat="43.62845" lon="3.83057">
        <ele>86</ele>
        <time>2021-02-20T12:10:00Z</time>
      </trkpt>
      <trkpt lat="43.62843" lon="3.83049">
        <ele>86</ele>
        <time>2021-02-20T12:10:01Z</time>
      </trkpt>
      <trkpt lat="43.6284" lon="3.83041">
        <ele>86</ele>
        <time>2021-02-20T12:10:02Z</time>
      </trkpt>
      <trkpt lat="43.62838" lon="3.83032">
        <ele>86</ele>
        <time>2021-02-20T12:10:03Z</time>
      </trkpt>
      <trkpt lat="43.62836" lon="3.83023">
        <ele>86</ele>
        <time>2021-02-20T12:10:04Z</time>
      </trkpt>
      <trkpt lat="43.62835" lon="3.83013">
        <ele>81</ele>
        <time>2021-02-20T12:10:05Z</time>
      </trkpt>
      <trkpt lat="43.62835" lon="3.83004">
        <ele>81</ele>
        <time>2021-02-20T12:10:06Z</time>
      </trkpt>
      <trkpt lat="43.62835" lon="3.82996">
        <ele>81</ele>
        <time>2021-02-20T12:10:07Z</time>
      </trkpt>
      <trkpt lat="43.62836" lon="3.82987">
        <ele>81</ele>
        <time>2021-02-20T12:10:08Z</time>
      </trkpt>
      <trkpt lat="43.62835" lon="3.8298">
        <ele>81</ele>
        <time>2021-02-20T12:10:09Z</time>
      </trkpt>
      <trkpt lat="43.62834" lon="3.82973">
        <ele>81</ele>
        <time>2021-02-20T12:10:10Z</time>
      </trkpt>
      <trkpt lat="43.62832" lon="3.82966">
        <ele>81</ele>
        <time>2021-02-20T12:10:11Z</time>
      </trkpt>
      <trkpt lat="43.62831" lon="3.8296">
        <ele>81</ele>
        <time>2021-02-20T12:10:12Z</time>
      </trkpt>
      <trkpt lat="43.62831" lon="3.82954">
        <ele>81</ele>
        <time>2021-02-20T12:10:13Z</time>
      </trkpt>
      <trkpt lat="43.62832" lon="3.82948">
        <ele>81</ele>
        <time>2021-02-20T12:10:14Z</time>
      </trkpt>
      <trkpt lat="43.62832" lon="3.82942">
        <ele>78</ele>
        <time>2021-02-20T12:10:15Z</time>
      </trkpt>
      <trkpt lat="43.62833" lon="3.82938">
        <ele>78</ele>
        <time>2021-02-20T12:10:16Z</time>
      </trkpt>
      <trkpt lat="43.62835" lon="3.82936">
        <ele>78</ele>
        <time>2021-02-20T12:10:17Z</time>
      </trkpt>
      <trkpt lat="43.62837" lon="3.82935">
        <ele>78</ele>
        <time>2021-02-20T12:10:18Z</time>
      </trkpt>
      <trkpt lat="43.6284" lon="3.82937">
        <ele>78</ele>
        <time>2021-02-20T12:10:19Z</time>
      </trkpt>
      <trkpt lat="43.62843" lon="3.82938">
        <ele>78</ele>
        <time>2021-02-20T12:10:20Z</time>
      </trkpt>
      <trkpt lat="43.62846" lon="3.8294">
        <ele>78</ele>
        <time>2021-02-20T12:10:21Z</time>
      </trkpt>
      <trkpt lat="43.62849" lon="3.82941">
        <ele>78</ele>
        <time>2021-02-20T12:10:22Z</time>
      </trkpt>
      <trkpt lat="43.62852" lon="3.82941">
        <ele>78</ele>
        <time>2021-02-20T12:10:23Z</time>
      </trkpt>
      <trkpt lat="43.62855" lon="3.82942">
        <ele>78</ele>
        <time>2021-02-20T12:10:24Z</time>
      </trkpt>
      <trkpt lat="43.62859" lon="3.82943">
        <ele>77</ele>
        <time>2021-02-20T12:10:25Z</time>
      </trkpt>
      <trkpt lat="43.62862" lon="3.82943">
        <ele>77</ele>
        <time>2021-02-20T12:10:26Z</time>
      </trkpt>
      <trkpt lat="43.62865" lon="3.82944">
        <ele>77</ele>
        <time>2021-02-20T12:10:27Z</time>
      </trkpt>
      <trkpt lat="43.62869" lon="3.82944">
        <ele>77</ele>
        <time>2021-02-20T12:10:28Z</time>
      </trkpt>
      <trkpt lat="43.62873" lon="3.82945">
        <ele>77</ele>
        <time>2021-02-20T12:10:29Z</time>
      </trkpt>
      <trkpt lat="43.62876" lon="3.82945">
        <ele>77</ele>
        <time>2021-02-20T12:10:30Z</time>
      </trkpt>
      <trkpt lat="43.6288" lon="3.82946">
        <ele>77</ele>
        <time>2021-02-20T12:10:31Z</time>
      </trkpt>
      <trkpt lat="43.62883" lon="3.82946">
        <ele>77</ele>
        <time>2021-02-20T12:10:32Z</time>
      </trkpt>
      <trkpt lat="43.62887" lon="3.82947">
        <ele>77</ele>
        <time>2021-02-20T12:10:33Z</time>
      </trkpt>
      <trkpt lat="43.62891" lon="3.82948">
        <ele>77</ele>
        <time>2021-02-20T12:10:34Z</time>
      </trkpt>
      <trkpt lat="43.62894" lon="3.82949">
        <ele>78</ele>
        <time>2021-02-20T12:10:35Z</time>
      </trkpt>
      <trkpt lat="43.62898" lon="3.8295">
        <ele>78</ele>
        <time>2021-02-20T12:10:36Z</time>
      </trkpt>
      <trkpt lat="43.62901" lon="3.82951">
        <ele>78</ele>
        <time>2021-02-20T12:10:37Z</time>
      </trkpt>
      <trkpt lat="43.62904" lon="3.82952">
        <ele>78</ele>
        <time>2021-02-20T12:10:38Z</time>
      </trkpt>
      <trkpt lat="43.62906" lon="3.82953">
        <ele>78</ele>
        <time>2021-02-20T12:10:39Z</time>
      </trkpt>
      <trkpt lat="43.62909" lon="3.82954">
        <ele>78</ele>
        <time>2021-02-20T12:10:40Z</time>
      </trkpt>
      <trkpt lat="43.62912" lon="3.82956">
        <ele>78</ele>
        <time>2021-02-20T12:10:41Z</time>
      </trkpt>
      <trkpt lat="43.62915" lon="3.82957">
        <ele>78</ele>
        <time>2021-02-20T12:10:42Z</time>
      </trkpt>
      <trkpt lat="43.62918" lon="3.82959">
        <ele>78</ele>
        <time>2021-02-20T12:10:43Z</time>
      </trkpt>
      <trkpt lat="43.6292" lon="3.8296">
        <ele>78</ele>
        <time>2021-02-20T12:10:44Z</time>
      </trkpt>
      <trkpt lat="43.62923" lon="3.82962">
        <ele>78</ele>
        <time>2021-02-20T12:10:45Z</time>
      </trkpt>
      <trkpt lat="43.62926" lon="3.82963">
        <ele>78</ele>
        <time>2021-02-20T12:10:46Z</time>
      </trkpt>
      <trkpt lat="43.62928" lon="3.82964">
        <ele>78</ele>
        <time>2021-02-20T12:10:47Z</time>
      </trkpt>
      <trkpt lat="43.62931" lon="3.82965">
        <ele>78</ele>
        <time>2021-02-20T12:10:48Z</time>
      </trkpt>
      <trkpt lat="43.62933" lon="3.82966">
        <ele>78</ele>
        <time>2021-02-20T12:10:49Z</time>
      </trkpt>
      <trkpt lat="43.62936" lon="3.82967">
        <ele>78</ele>
        <time>2021-02-20T12:10:50Z</time>
      </trkpt>
      <trkpt lat="43.62939" lon="3.82969">
        <ele>78</ele>
        <time>2021-02-20T12:10:51Z</time>
      </trkpt>
      <trkpt lat="43.62941" lon="3.8297">
        <ele>78</ele>
        <time>2021-02-20T12:10:52Z</time>
      </trkpt>
      <trkpt lat="43.62944" lon="3.82971">
        <ele>78</ele>
        <time>2021-02-20T12:10:53Z</time>
      </trkpt>
      <trkpt lat="43.62946" lon="3.82972">
        <ele>78</ele>
        <time>2021-02-20T12:10:54Z</time>
      </trkpt>
      <trkpt lat="43.62949" lon="3.82973">
        <ele>79</ele>
        <time>2021-02-20T12:10:55Z</time>
      </trkpt>
      <trkpt lat="43.62951" lon="3.82974">
        <ele>79</ele>
        <time>2021-02-20T12:10:56Z</time>
      </trkpt>
      <trkpt lat="43.62954" lon="3.82975">
        <ele>79</ele>
        <time>2021-02-20T12:10:57Z</time>
      </trkpt>
      <trkpt lat="43.62956" lon="3.82976">
        <ele>79</ele>
        <time>2021-02-20T12:10:58Z</time>
      </trkpt>
      <trkpt lat="43.62959" lon="3.82977">
        <ele>79</ele>
        <time>2021-02-20T12:10:59Z</time>
      </trkpt>
      <trkpt lat="43.62962" lon="3.82977">
        <ele>79</ele>
        <time>2021-02-20T12:11:00Z</time>
      </trkpt>
      <trkpt lat="43.62965" lon="3.82978">
        <ele>79</ele>
        <time>2021-02-20T12:11:01Z</time>
      </trkpt>
      <trkpt lat="43.62968" lon="3.82977">
        <ele>79</ele>
        <time>2021-02-20T12:11:02Z</time>
      </trkpt>
      <trkpt lat="43.62972" lon="3.82976">
        <ele>79</ele>
        <time>2021-02-20T12:11:03Z</time>
      </trkpt>
      <trkpt lat="43.62975" lon="3.82975">
        <ele>79</ele>
        <time>2021-02-20T12:11:04Z</time>
      </trkpt>
      <trkpt lat="43.62978" lon="3.82974">
        <ele>80</ele>
        <time>2021-02-20T12:11:05Z</time>
      </trkpt>
      <trkpt lat="43.62981" lon="3.82972">
        <ele>80</ele>
        <time>2021-02-20T12:11:06Z</time>
      </trkpt>
      <trkpt lat="43.62985" lon="3.8297">
        <ele>80</ele>
        <time>2021-02-20T12:11:07Z</time>
      </trkpt>
      <trkpt lat="43.62988" lon="3.82969">
        <ele>80</ele>
        <time>2021-02-20T12:11:08Z</time>
      </trkpt>
      <trkpt lat="43.62991" lon="3.82967">
        <ele>80</ele>
        <time>2021-02-20T12:11:09Z</time>
      </trkpt>
      <trkpt lat="43.62995" lon="3.82965">
        <ele>80</ele>
        <time>2021-02-20T12:11:10Z</time>
      </trkpt>
      <trkpt lat="43.62998" lon="3.82963">
        <ele>80</ele>
        <time>2021-02-20T12:11:11Z</time>
      </trkpt>
      <trkpt lat="43.63001" lon="3.82961">
        <ele>80</ele>
        <time>2021-02-20T12:11:12Z</time>
      </trkpt>
      <trkpt lat="43.63005" lon="3.82959">
        <ele>80</ele>
        <time>2021-02-20T12:11:13Z</time>
      </trkpt>
      <trkpt lat="43.63008" lon="3.82957">
        <ele>80</ele>
        <time>2021-02-20T12:11:14Z</time>
      </trkpt>
      <trkpt lat="43.63011" lon="3.82955">
        <ele>80</ele>
        <time>2021-02-20T12:11:15Z</time>
      </trkpt>
      <trkpt lat="43.63014" lon="3.82953">
        <ele>80</ele>
        <time>2021-02-20T12:11:16Z</time>
      </trkpt>
      <trkpt lat="43.63017" lon="3.82951">
        <ele>80</ele>
        <time>2021-02-20T12:11:17Z</time>
      </trkpt>
      <trkpt lat="43.63021" lon="3.8295">
        <ele>80</ele>
        <time>2021-02-20T12:11:18Z</time>
      </trkpt>
      <trkpt lat="43.63024" lon="3.82949">
        <ele>80</ele>
        <time>2021-02-20T12:11:19Z</time>
      </trkpt>
      <trkpt lat="43.63027" lon="3.82951">
        <ele>80</ele>
        <time>2021-02-20T12:11:20Z</time>
      </trkpt>
      <trkpt lat="43.6303" lon="3.82953">
        <ele>80</ele>
        <time>2021-02-20T12:11:21Z</time>
      </trkpt>
      <trkpt lat="43.63032" lon="3.82956">
        <ele>80</ele>
        <time>2021-02-20T12:11:22Z</time>
      </trkpt>
      <trkpt lat="43.63034" lon="3.82959">
        <ele>80</ele>
        <time>2021-02-20T12:11:23Z</time>
      </trkpt>
      <trkpt lat="43.63037" lon="3.82961">
        <ele>80</ele>
        <time>2021-02-20T12:11:24Z</time>
      </trkpt>
      <trkpt lat="43.63039" lon="3.82964">
        <ele>81</ele>
        <time>2021-02-20T12:11:25Z</time>
      </trkpt>
      <trkpt lat="43.63041" lon="3.82967">
        <ele>81</ele>
        <time>2021-02-20T12:11:26Z</time>
      </trkpt>
      <trkpt lat="43.63043" lon="3.82969">
        <ele>81</ele>
        <time>2021-02-20T12:11:27Z</time>
      </trkpt>
      <trkpt lat="43.63045" lon="3.82972">
        <ele>81</ele>
        <time>2021-02-20T12:11:28Z</time>
      </trkpt>
      <trkpt lat="43.63047" lon="3.82974">
        <ele>81</ele>
        <time>2021-02-20T12:11:29Z</time>
      </trkpt>
      <trkpt lat="43.6305" lon="3.82977">
        <ele>81</ele>
        <time>2021-02-20T12:11:30Z</time>
      </trkpt>
      <trkpt lat="43.63052" lon="3.82979">
        <ele>81</ele>
        <time>2021-02-20T12:11:31Z</time>
      </trkpt>
      <trkpt lat="43.63054" lon="3.82982">
        <ele>81</ele>
        <time>2021-02-20T12:11:32Z</time>
      </trkpt>
      <trkpt lat="43.63056" lon="3.82984">
        <ele>81</ele>
        <time>2021-02-20T12:11:33Z</time>
      </trkpt>
      <trkpt lat="43.63058" lon="3.82987">
        <ele>81</ele>
        <time>2021-02-20T12:11:34Z</time>
      </trkpt>
      <trkpt lat="43.6306" lon="3.82989">
        <ele>82</ele>
        <time>2021-02-20T12:11:35Z</time>
      </trkpt>
      <trkpt lat="43.63062" lon="3.82991">
        <ele>82</ele>
        <time>2021-02-20T12:11:36Z</time>
      </trkpt>
      <trkpt lat="43.63064" lon="3.82993">
        <ele>82</ele>
        <time>2021-02-20T12:11:37Z</time>
      </trkpt>
      <trkpt lat="43.63066" lon="3.82993">
        <ele>82</ele>
        <time>2021-02-20T12:11:38Z</time>
      </trkpt>
      <trkpt lat="43.63069" lon="3.82992">
        <ele>82</ele>
        <time>2021-02-20T12:11:39Z</time>
      </trkpt>
      <trkpt lat="43.63071" lon="3.8299">
        <ele>82</ele>
        <time>2021-02-20T12:11:40Z</time>
      </trkpt>
      <trkpt lat="43.63073" lon="3.82987">
        <ele>82</ele>
        <time>2021-02-20T12:11:41Z</time>
      </trkpt>
      <trkpt lat="43.63076" lon="3.82983">
        <ele>82</ele>
        <time>2021-02-20T12:11:42Z</time>
      </trkpt>
      <trkpt lat="43.63078" lon="3.8298">
        <ele>82</ele>
        <time>2021-02-20T12:11:43Z</time>
      </trkpt>
      <trkpt lat="43.6308" lon="3.82976">
        <ele>82</ele>
        <time>2021-02-20T12:11:44Z</time>
      </trkpt>
      <trkpt lat="43.63084" lon="3.82973">
        <ele>81</ele>
        <time>2021-02-20T12:11:45Z</time>
      </trkpt>
      <trkpt lat="43.63088" lon="3.82971">
        <ele>81</ele>
        <time>2021-02-20T12:11:46Z</time>
      </trkpt>
      <trkpt lat="43.63092" lon="3.82971">
        <ele>81</ele>
        <time>2021-02-20T12:11:47Z</time>
      </trkpt>
      <trkpt lat="43.63096" lon="3.82972">
        <ele>81</ele>
        <time>2021-02-20T12:11:48Z</time>
      </trkpt>
      <trkpt lat="43.631" lon="3.82972">
        <ele>81</ele>
        <time>2021-02-20T12:11:49Z</time>
      </trkpt>
      <trkpt lat="43.63103" lon="3.82972">
        <ele>81</ele>
        <time>2021-02-20T12:11:50Z</time>
      </trkpt>
      <trkpt lat="43.63106" lon="3.82972">
        <ele>81</ele>
        <time>2021-02-20T12:11:51Z</time>
      </trkpt>
      <trkpt lat="43.63109" lon="3.82972">
        <ele>81</ele>
        <time>2021-02-20T12:11:52Z</time>
      </trkpt>
      <trkpt lat="43.63112" lon="3.82973">
        <ele>81</ele>
        <time>2021-02-20T12:11:53Z</time>
      </trkpt>
      <trkpt lat="43.63114" lon="3.82974">
        <ele>81</ele>
        <time>2021-02-20T12:11:54Z</time>
      </trkpt>
      <trkpt lat="43.63117" lon="3.82974">
        <ele>80</ele>
        <time>2021-02-20T12:11:55Z</time>
      </trkpt>
      <trkpt lat="43.63119" lon="3.82974">
        <ele>80</ele>
        <time>2021-02-20T12:11:56Z</time>
      </trkpt>
      <trkpt lat="43.63122" lon="3.82973">
        <ele>80</ele>
        <time>2021-02-20T12:11:57Z</time>
      </trkpt>
      <trkpt lat="43.63126" lon="3.82972">
        <ele>80</ele>
        <time>2021-02-20T12:11:58Z</time>
      </trkpt>
      <trkpt lat="43.6313" lon="3.82971">
        <ele>80</ele>
        <time>2021-02-20T12:11:59Z</time>
      </trkpt>
      <trkpt lat="43.63134" lon="3.82971">
        <ele>80</ele>
        <time>2021-02-20T12:12:00Z</time>
      </trkpt>
      <trkpt lat="43.63138" lon="3.82971">
        <ele>80</ele>
        <time>2021-02-20T12:12:01Z</time>
      </trkpt>
      <trkpt lat="43.63142" lon="3.82971">
        <ele>80</ele>
        <time>2021-02-20T12:12:02Z</time>
      </trkpt>
      <trkpt lat="43.63146" lon="3.82971">
        <ele>80</ele>
        <time>2021-02-20T12:12:03Z</time>
      </trkpt>
      <trkpt lat="43.63151" lon="3.82971">
        <ele>80</ele>
        <time>2021-02-20T12:12:04Z</time>
      </trkpt>
      <trkpt lat="43.63155" lon="3.8297">
        <ele>79</ele>
        <time>2021-02-20T12:12:05Z</time>
      </trkpt>
      <trkpt lat="43.6316" lon="3.82971">
        <ele>79</ele>
        <time>2021-02-20T12:12:06Z</time>
      </trkpt>
      <trkpt lat="43.63164" lon="3.82971">
        <ele>79</ele>
        <time>2021-02-20T12:12:07Z</time>
      </trkpt>
      <trkpt lat="43.63168" lon="3.8297">
        <ele>79</ele>
        <time>2021-02-20T12:12:08Z</time>
      </trkpt>
      <trkpt lat="43.63172" lon="3.8297">
        <ele>79</ele>
        <time>2021-02-20T12:12:09Z</time>
      </trkpt>
      <trkpt lat="43.63176" lon="3.8297">
        <ele>79</ele>
        <time>2021-02-20T12:12:10Z</time>
      </trkpt>
      <trkpt lat="43.63179" lon="3.8297">
        <ele>79</ele>
        <time>2021-02-20T12:12:11Z</time>
      </trkpt>
      <trkpt lat="43.63182" lon="3.82969">
        <ele>79</ele>
        <time>2021-02-20T12:12:12Z</time>
      </trkpt>
      <trkpt lat="43.63186" lon="3.82967">
        <ele>79</ele>
        <time>2021-02-20T12:12:13Z</time>
      </trkpt>
      <trkpt lat="43.63189" lon="3.82964">
        <ele>79</ele>
        <time>2021-02-20T12:12:14Z</time>
      </trkpt>
      <trkpt lat="43.63193" lon="3.82961">
        <ele>79</ele>
        <time>2021-02-20T12:12:15Z</time>
      </trkpt>
      <trkpt lat="43.63196" lon="3.82958">
        <ele>79</ele>
        <time>2021-02-20T12:12:16Z</time>
      </trkpt>
      <trkpt lat="43.632" lon="3.82956">
        <ele>79</ele>
        <time>2021-02-20T12:12:17Z</time>
      </trkpt>
      <trkpt lat="43.63203" lon="3.82954">
        <ele>79</ele>
        <time>2021-02-20T12:12:18Z</time>
      </trkpt>
      <trkpt lat="43.63206" lon="3.82951">
        <ele>79</ele>
        <time>2021-02-20T12:12:19Z</time>
      </trkpt>
      <trkpt lat="43.63208" lon="3.82949">
        <ele>79</ele>
        <time>2021-02-20T12:12:20Z</time>
      </trkpt>
      <trkpt lat="43.6321" lon="3.82946">
        <ele>79</ele>
        <time>2021-02-20T12:12:21Z</time>
      </trkpt>
      <trkpt lat="43.6321" lon="3.82942">
        <ele>79</ele>
        <time>2021-02-20T12:12:22Z</time>
      </trkpt>
      <trkpt lat="43.63209" lon="3.82939">
        <ele>79</ele>
        <time>2021-02-20T12:12:23Z</time>
      </trkpt>
      <trkpt lat="43.63208" lon="3.82935">
        <ele>79</ele>
        <time>2021-02-20T12:12:24Z</time>
      </trkpt>
      <trkpt lat="43.63207" lon="3.8293">
        <ele>79</ele>
        <time>2021-02-20T12:12:25Z</time>
      </trkpt>
      <trkpt lat="43.63206" lon="3.82926">
        <ele>79</ele>
        <time>2021-02-20T12:12:26Z</time>
      </trkpt>
      <trkpt lat="43.63204" lon="3.82922">
        <ele>79</ele>
        <time>2021-02-20T12:12:27Z</time>
      </trkpt>
      <trkpt lat="43.63203" lon="3.82918">
        <ele>79</ele>
        <time>2021-02-20T12:12:28Z</time>
      </trkpt>
      <trkpt lat="43.63202" lon="3.82914">
        <ele>79</ele>
        <time>2021-02-20T12:12:29Z</time>
      </trkpt>
      <trkpt lat="43.632" lon="3.8291">
        <ele>79</ele>
        <time>2021-02-20T12:12:30Z</time>
      </trkpt>
      <trkpt lat="43.63199" lon="3.82906">
        <ele>79</ele>
        <time>2021-02-20T12:12:31Z</time>
      </trkpt>
      <trkpt lat="43.63198" lon="3.82903">
        <ele>79</ele>
        <time>2021-02-20T12:12:32Z</time>
      </trkpt>
      <trkpt lat="43.63197" lon="3.82899">
        <ele>79</ele>
        <time>2021-02-20T12:12:33Z</time>
      </trkpt>
      <trkpt lat="43.63195" lon="3.82896">
        <ele>79</ele>
        <time>2021-02-20T12:12:34Z</time>
      </trkpt>
      <trkpt lat="43.63194" lon="3.82892">
        <ele>79</ele>
        <time>2021-02-20T12:12:35Z</time>
      </trkpt>
      <trkpt lat="43.63193" lon="3.82888">
        <ele>79</ele>
        <time>2021-02-20T12:12:36Z</time>
      </trkpt>
      <trkpt lat="43.63192" lon="3.82884">
        <ele>79</ele>
        <time>2021-02-20T12:12:37Z</time>
      </trkpt>
      <trkpt lat="43.63191" lon="3.8288">
        <ele>79</ele>
        <time>2021-02-20T12:12:38Z</time>
      </trkpt>
      <trkpt lat="43.63191" lon="3.82876">
        <ele>79</ele>
        <time>2021-02-20T12:12:39Z</time>
      </trkpt>
      <trkpt lat="43.6319" lon="3.82872">
        <ele>79</ele>
        <time>2021-02-20T12:12:40Z</time>
      </trkpt>
      <trkpt lat="43.63189" lon="3.82868">
        <ele>79</ele>
        <time>2021-02-20T12:12:41Z</time>
      </trkpt>
      <trkpt lat="43.63189" lon="3.82865">
        <ele>79</ele>
        <time>2021-02-20T12:12:42Z</time>
      </trkpt>
      <trkpt lat="43.63188" lon="3.82861">
        <ele>79</ele>
        <time>2021-02-20T12:12:43Z</time>
      </trkpt>
      <trkpt lat="43.63187" lon="3.82857">
        <ele>79</ele>
        <time>2021-02-20T12:12:44Z</time>
      </trkpt>
      <trkpt lat="43.63186" lon="3.82853">
        <ele>81</ele>
        <time>2021-02-20T12:12:45Z</time>
      </trkpt>
      <trkpt lat="43.63185" lon="3.82849">
        <ele>81</ele>
        <time>2021-02-20T12:12:46Z</time>
      </trkpt>
      <trkpt lat="43.63184" lon="3.82845">
        <ele>81</ele>
        <time>2021-02-20T12:12:47Z</time>
      </trkpt>
      <trkpt lat="43.63183" lon="3.82841">
        <ele>81</ele>
        <time>2021-02-20T12:12:48Z</time>
      </trkpt>
      <trkpt lat="43.63182" lon="3.82837">
        <ele>81</ele>
        <time>2021-02-20T12:12:49Z</time>
      </trkpt>
      <trkpt lat="43.63181" lon="3.82833">
        <ele>81</ele>
        <time>2021-02-20T12:12:50Z</time>
      </trkpt>
      <trkpt lat="43.6318" lon="3.82829">
        <ele>81</ele>
        <time>2021-02-20T12:12:51Z</time>
      </trkpt>
      <trkpt lat="43.63179" lon="3.82825">
        <ele>81</ele>
        <time>2021-02-20T12:12:52Z</time>
      </trkpt>
      <trkpt lat="43.63179" lon="3.82821">
        <ele>81</ele>
        <time>2021-02-20T12:12:53Z</time>
      </trkpt>
      <trkpt lat="43.63178" lon="3.82817">
        <ele>81</ele>
        <time>2021-02-20T12:12:54Z</time>
      </trkpt>
      <trkpt lat="43.63177" lon="3.82813">
        <ele>81</ele>
        <time>2021-02-20T12:12:55Z</time>
      </trkpt>
      <trkpt lat="43.63176" lon="3.82809">
        <ele>81</ele>
        <time>2021-02-20T12:12:56Z</time>
      </trkpt>
      <trkpt lat="43.63175" lon="3.82806">
        <ele>81</ele>
        <time>2021-02-20T12:12:57Z</time>
      </trkpt>
      <trkpt lat="43.63174" lon="3.82802">
        <ele>81</ele>
        <time>2021-02-20T12:12:58Z</time>
      </trkpt>
      <trkpt lat="43.63174" lon="3.82798">
        <ele>81</ele>
        <time>2021-02-20T12:12:59Z</time>
      </trkpt>
      <trkpt lat="43.63173" lon="3.82794">
        <ele>81</ele>
        <time>2021-02-20T12:13:00Z</time>
      </trkpt>
      <trkpt lat="43.63173" lon="3.8279">
        <ele>81</ele>
        <time>2021-02-20T12:13:01Z</time>
      </trkpt>
      <trkpt lat="43.63175" lon="3.82786">
        <ele>81</ele>
        <time>2021-02-20T12:13:02Z</time>
      </trkpt>
      <trkpt lat="43.63177" lon="3.82783">
        <ele>81</ele>
        <time>2021-02-20T12:13:03Z</time>
      </trkpt>
      <trkpt lat="43.63178" lon="3.8278">
        <ele>81</ele>
        <time>2021-02-20T12:13:04Z</time>
      </trkpt>
      <trkpt lat="43.6318" lon="3.82777">
        <ele>82</ele>
        <time>2021-02-20T12:13:05Z</time>
      </trkpt>
      <trkpt lat="43.63182" lon="3.82774">
        <ele>82</ele>
        <time>2021-02-20T12:13:06Z</time>
      </trkpt>
      <trkpt lat="43.63184" lon="3.82771">
        <ele>82</ele>
        <time>2021-02-20T12:13:07Z</time>
      </trkpt>
      <trkpt lat="43.63186" lon="3.82769">
        <ele>82</ele>
        <time>2021-02-20T12:13:08Z</time>
      </trkpt>
      <trkpt lat="43.63187" lon="3.82766">
        <ele>82</ele>
        <time>2021-02-20T12:13:09Z</time>
      </trkpt>
      <trkpt lat="43.63189" lon="3.82763">
        <ele>82</ele>
        <time>2021-02-20T12:13:10Z</time>
      </trkpt>
      <trkpt lat="43.6319" lon="3.8276">
        <ele>82</ele>
        <time>2021-02-20T12:13:11Z</time>
      </trkpt>
      <trkpt lat="43.63191" lon="3.82756">
        <ele>82</ele>
        <time>2021-02-20T12:13:12Z</time>
      </trkpt>
      <trkpt lat="43.63193" lon="3.82753">
        <ele>82</ele>
        <time>2021-02-20T12:13:13Z</time>
      </trkpt>
      <trkpt lat="43.63194" lon="3.8275">
        <ele>82</ele>
        <time>2021-02-20T12:13:14Z</time>
      </trkpt>
      <trkpt lat="43.63196" lon="3.82747">
        <ele>84</ele>
        <time>2021-02-20T12:13:15Z</time>
      </trkpt>
      <trkpt lat="43.63197" lon="3.82743">
        <ele>84</ele>
        <time>2021-02-20T12:13:16Z</time>
      </trkpt>
      <trkpt lat="43.63199" lon="3.8274">
        <ele>84</ele>
        <time>2021-02-20T12:13:17Z</time>
      </trkpt>
      <trkpt lat="43.63201" lon="3.82737">
        <ele>84</ele>
        <time>2021-02-20T12:13:18Z</time>
      </trkpt>
      <trkpt lat="43.63202" lon="3.82734">
        <ele>84</ele>
        <time>2021-02-20T12:13:19Z</time>
      </trkpt>
      <trkpt lat="43.63204" lon="3.82731">
        <ele>84</ele>
        <time>2021-02-20T12:13:20Z</time>
      </trkpt>
      <trkpt lat="43.63206" lon="3.82727">
        <ele>84</ele>
        <time>2021-02-20T12:13:21Z</time>
      </trkpt>
      <trkpt lat="43.63208" lon="3.82724">
        <ele>84</ele>
        <time>2021-02-20T12:13:22Z</time>
      </trkpt>
      <trkpt lat="43.6321" lon="3.82721">
        <ele>84</ele>
        <time>2021-02-20T12:13:23Z</time>
      </trkpt>
      <trkpt lat="43.63212" lon="3.82718">
        <ele>84</ele>
        <time>2021-02-20T12:13:24Z</time>
      </trkpt>
      <trkpt lat="43.63215" lon="3.82716">
        <ele>85</ele>
        <time>2021-02-20T12:13:25Z</time>
      </trkpt>
      <trkpt lat="43.63217" lon="3.82713">
        <ele>85</ele>
        <time>2021-02-20T12:13:26Z</time>
      </trkpt>
      <trkpt lat="43.63219" lon="3.82709">
        <ele>85</ele>
        <time>2021-02-20T12:13:27Z</time>
      </trkpt>
      <trkpt lat="43.63222" lon="3.82705">
        <ele>85</ele>
        <time>2021-02-20T12:13:28Z</time>
      </trkpt>
      <trkpt lat="43.63224" lon="3.82701">
        <ele>85</ele>
        <time>2021-02-20T12:13:29Z</time>
      </trkpt>
      <trkpt lat="43.63226" lon="3.82697">
        <ele>85</ele>
        <time>2021-02-20T12:13:30Z</time>
      </trkpt>
      <trkpt lat="43.63228" lon="3.82693">
        <ele>85</ele>
        <time>2021-02-20T12:13:31Z</time>
      </trkpt>
      <trkpt lat="43.6323" lon="3.82689">
        <ele>85</ele>
        <time>2021-02-20T12:13:32Z</time>
      </trkpt>
      <trkpt lat="43.63232" lon="3.82685">
        <ele>85</ele>
        <time>2021-02-20T12:13:33Z</time>
      </trkpt>
      <trkpt lat="43.63234" lon="3.82681">
        <ele>85</ele>
        <time>2021-02-20T12:13:34Z</time>
      </trkpt>
      <trkpt lat="43.63236" lon="3.82677">
        <ele>85</ele>
        <time>2021-02-20T12:13:35Z</time>
      </trkpt>
      <trkpt lat="43.63238" lon="3.82674">
        <ele>85</ele>
        <time>2021-02-20T12:13:36Z</time>
      </trkpt>
      <trkpt lat="43.63241" lon="3.8267">
        <ele>85</ele>
        <time>2021-02-20T12:13:37Z</time>
      </trkpt>
      <trkpt lat="43.63243" lon="3.82667">
        <ele>85</ele>
        <time>2021-02-20T12:13:38Z</time>
      </trkpt>
      <trkpt lat="43.63246" lon="3.82663">
        <ele>85</ele>
        <time>2021-02-20T12:13:39Z</time>
      </trkpt>
      <trkpt lat="43.63249" lon="3.8266">
        <ele>85</ele>
        <time>2021-02-20T12:13:40Z</time>
      </trkpt>
      <trkpt lat="43.63252" lon="3.82656">
        <ele>85</ele>
        <time>2021-02-20T12:13:41Z</time>
      </trkpt>
      <trkpt lat="43.63255" lon="3.82652">
        <ele>85</ele>
        <time>2021-02-20T12:13:42Z</time>
      </trkpt>
      <trkpt lat="43.63258" lon="3.82648">
        <ele>85</ele>
        <time>2021-02-20T12:13:43Z</time>
      </trkpt>
      <trkpt lat="43.63262" lon="3.82644">
        <ele>85</ele>
        <time>2021-02-20T12:13:44Z</time>
      </trkpt>
      <trkpt lat="43.63265" lon="3.8264">
        <ele>84</ele>
        <time>2021-02-20T12:13:45Z</time>
      </trkpt>
      <trkpt lat="43.63269" lon="3.82636">
        <ele>84</ele>
        <time>2021-02-20T12:13:46Z</time>
      </trkpt>
      <trkpt lat="43.63272" lon="3.82633">
        <ele>84</ele>
        <time>2021-02-20T12:13:47Z</time>
      </trkpt>
      <trkpt lat="43.63276" lon="3.82629">
        <ele>84</ele>
        <time>2021-02-20T12:13:48Z</time>
      </trkpt>
      <trkpt lat="43.63279" lon="3.82625">
        <ele>84</ele>
        <time>2021-02-20T12:13:49Z</time>
      </trkpt>
      <trkpt lat="43.63283" lon="3.82622">
        <ele>84</ele>
        <time>2021-02-20T12:13:50Z</time>
      </trkpt>
      <trkpt lat="43.63287" lon="3.82618">
        <ele>84</ele>
        <time>2021-02-20T12:13:51Z</time>
      </trkpt>
      <trkpt lat="43.63291" lon="3.82615">
        <ele>84</ele>
        <time>2021-02-20T12:13:52Z</time>
      </trkpt>
      <trkpt lat="43.63295" lon="3.82612">
        <ele>84</ele>
        <time>2021-02-20T12:13:53Z</time>
      </trkpt>
      <trkpt lat="43.63299" lon="3.82609">
        <ele>84</ele>
        <time>2021-02-20T12:13:54Z</time>
      </trkpt>
      <trkpt lat="43.63303" lon="3.82606">
        <ele>84</ele>
        <time>2021-02-20T12:13:55Z</time>
      </trkpt>
      <trkpt lat="43.63307" lon="3.82602">
        <ele>84</ele>
        <time>2021-02-20T12:13:56Z</time>
      </trkpt>
      <trkpt lat="43.63311" lon="3.82599">
        <ele>84</ele>
        <time>2021-02-20T12:13:57Z</time>
      </trkpt>
      <trkpt lat="43.63315" lon="3.82595">
        <ele>84</ele>
        <time>2021-02-20T12:13:58Z</time>
      </trkpt>
      <trkpt lat="43.63319" lon="3.82591">
        <ele>84</ele>
        <time>2021-02-20T12:13:59Z</time>
      </trkpt>
      <trkpt lat="43.63323" lon="3.82588">
        <ele>84</ele>
        <time>2021-02-20T12:14:00Z</time>
      </trkpt>
      <trkpt lat="43.63327" lon="3.82586">
        <ele>84</ele>
        <time>2021-02-20T12:14:01Z</time>
      </trkpt>
      <trkpt lat="43.6333" lon="3.82583">
        <ele>84</ele>
        <time>2021-02-20T12:14:02Z</time>
      </trkpt>
      <trkpt lat="43.63334" lon="3.8258">
        <ele>84</ele>
        <time>2021-02-20T12:14:03Z</time>
      </trkpt>
      <trkpt lat="43.63339" lon="3.82578">
        <ele>84</ele>
        <time>2021-02-20T12:14:04Z</time>
      </trkpt>
      <trkpt lat="43.63343" lon="3.82575">
        <ele>83</ele>
        <time>2021-02-20T12:14:05Z</time>
      </trkpt>
      <trkpt lat="43.63348" lon="3.82573">
        <ele>83</ele>
        <time>2021-02-20T12:14:06Z</time>
      </trkpt>
      <trkpt lat="43.63352" lon="3.82571">
        <ele>83</ele>
        <time>2021-02-20T12:14:07Z</time>
      </trkpt>
      <trkpt lat="43.63356" lon="3.82568">
        <ele>83</ele>
        <time>2021-02-20T12:14:08Z</time>
      </trkpt>
      <trkpt lat="43.6336" lon="3.82566">
        <ele>83</ele>
        <time>2021-02-20T12:14:09Z</time>
      </trkpt>
      <trkpt lat="43.63364" lon="3.82564">
        <ele>83</ele>
        <time>2021-02-20T12:14:10Z</time>
      </trkpt>
      <trkpt lat="43.63367" lon="3.82562">
        <ele>83</ele>
        <time>2021-02-20T12:14:11Z</time>
      </trkpt>
      <trkpt lat="43.63371" lon="3.8256">
        <ele>83</ele>
        <time>2021-02-20T12:14:12Z</time>
      </trkpt>
      <trkpt lat="43.63374" lon="3.82559">
        <ele>83</ele>
        <time>2021-02-20T12:14:13Z</time>
      </trkpt>
      <trkpt lat="43.63378" lon="3.82558">
        <ele>83</ele>
        <time>2021-02-20T12:14:14Z</time>
      </trkpt>
      <trkpt lat="43.63381" lon="3.82557">
        <ele>83</ele>
        <time>2021-02-20T12:14:15Z</time>
      </trkpt>
      <trkpt lat="43.63385" lon="3.82556">
        <ele>83</ele>
        <time>2021-02-20T12:14:16Z</time>
      </trkpt>
      <trkpt lat="43.63389" lon="3.82555">
        <ele>83</ele>
        <time>2021-02-20T12:14:17Z</time>
      </trkpt>
      <trkpt lat="43.63392" lon="3.82555">
        <ele>83</ele>
        <time>2021-02-20T12:14:18Z</time>
      </trkpt>
      <trkpt lat="43.63395" lon="3.82554">
        <ele>83</ele>
        <time>2021-02-20T12:14:19Z</time>
      </trkpt>
      <trkpt lat="43.63399" lon="3.82554">
        <ele>83</ele>
        <time>2021-02-20T12:14:20Z</time>
      </trkpt>
      <trkpt lat="43.63401" lon="3.82553">
        <ele>83</ele>
        <time>2021-02-20T12:14:21Z</time>
      </trkpt>
      <trkpt lat="43.63404" lon="3.82553">
        <ele>83</ele>
        <time>2021-02-20T12:14:22Z</time>
      </trkpt>
      <trkpt lat="43.63407" lon="3.82552">
        <ele>83</ele>
        <time>2021-02-20T12:14:23Z</time>
      </trkpt>
      <trkpt lat="43.63409" lon="3.82552">
        <ele>83</ele>
        <time>2021-02-20T12:14:24Z</time>
      </trkpt>
      <trkpt lat="43.63412" lon="3.82551">
        <ele>84</ele>
        <time>2021-02-20T12:14:25Z</time>
      </trkpt>
      <trkpt lat="43.63415" lon="3.8255">
        <ele>84</ele>
        <time>2021-02-20T12:14:26Z</time>
      </trkpt>
      <trkpt lat="43.63418" lon="3.8255">
        <ele>84</ele>
        <time>2021-02-20T12:14:27Z</time>
      </trkpt>
      <trkpt lat="43.63421" lon="3.8255">
        <ele>84</ele>
        <time>2021-02-20T12:14:28Z</time>
      </trkpt>
      <trkpt lat="43.63424" lon="3.82549">
        <ele>84</ele>
        <time>2021-02-20T12:14:29Z</time>
      </trkpt>
      <trkpt lat="43.63427" lon="3.82549">
        <ele>84</ele>
        <time>2021-02-20T12:14:30Z</time>
      </trkpt>
      <trkpt lat="43.6343" lon="3.82549">
        <ele>84</ele>
        <time>2021-02-20T12:14:31Z</time>
      </trkpt>
      <trkpt lat="43.63432" lon="3.82548">
        <ele>84</ele>
        <time>2021-02-20T12:14:32Z</time>
      </trkpt>
      <trkpt lat="43.63435" lon="3.82548">
        <ele>84</ele>
        <time>2021-02-20T12:14:33Z</time>
      </trkpt>
      <trkpt lat="43.63437" lon="3.82548">
        <ele>84</ele>
        <time>2021-02-20T12:14:34Z</time>
      </trkpt>
      <trkpt lat="43.6344" lon="3.82547">
        <ele>84</ele>
        <time>2021-02-20T12:14:35Z</time>
      </trkpt>
      <trkpt lat="43.63442" lon="3.82547">
        <ele>86</ele>
        <time>2021-02-20T12:14:36Z</time>
      </trkpt>
      <trkpt lat="43.63444" lon="3.82547">
        <ele>86</ele>
        <time>2021-02-20T12:14:37Z</time>
      </trkpt>
      <trkpt lat="43.63447" lon="3.82546">
        <ele>86</ele>
        <time>2021-02-20T12:14:38Z</time>
      </trkpt>
      <trkpt lat="43.63449" lon="3.82546">
        <ele>86</ele>
        <time>2021-02-20T12:14:39Z</time>
      </trkpt>
      <trkpt lat="43.63452" lon="3.82546">
        <ele>86</ele>
        <time>2021-02-20T12:14:40Z</time>
      </trkpt>
      <trkpt lat="43.63455" lon="3.82546">
        <ele>86</ele>
        <time>2021-02-20T12:14:41Z</time>
      </trkpt>
      <trkpt lat="43.63458" lon="3.82546">
        <ele>86</ele>
        <time>2021-02-20T12:14:42Z</time>
      </trkpt>
      <trkpt lat="43.6346" lon="3.82546">
        <ele>86</ele>
        <time>2021-02-20T12:14:43Z</time>
      </trkpt>
      <trkpt lat="43.63463" lon="3.82546">
        <ele>86</ele>
        <time>2021-02-20T12:14:44Z</time>
      </trkpt>
      <trkpt lat="43.63466" lon="3.82546">
        <ele>87</ele>
        <time>2021-02-20T12:14:45Z</time>
      </trkpt>
      <trkpt lat="43.63468" lon="3.82546">
        <ele>87</ele>
        <time>2021-02-20T12:14:46Z</time>
      </trkpt>
      <trkpt lat="43.6347" lon="3.82546">
        <ele>87</ele>
        <time>2021-02-20T12:14:47Z</time>
      </trkpt>
      <trkpt lat="43.63473" lon="3.82546">
        <ele>87</ele>
        <time>2021-02-20T12:14:49Z</time>
      </trkpt>
      <trkpt lat="43.63475" lon="3.82545">
        <ele>87</ele>
        <time>2021-02-20T12:14:50Z</time>
      </trkpt>
      <trkpt lat="43.63477" lon="3.82545">
        <ele>87</ele>
        <time>2021-02-20T12:14:51Z</time>
      </trkpt>
      <trkpt lat="43.63479" lon="3.82544">
        <ele>87</ele>
        <time>2021-02-20T12:14:52Z</time>
      </trkpt>
      <trkpt lat="43.63482" lon="3.82544">
        <ele>87</ele>
        <time>2021-02-20T12:14:54Z</time>
      </trkpt>
      <trkpt lat="43.63486" lon="3.82544">
        <ele>87</ele>
        <time>2021-02-20T12:14:56Z</time>
      </trkpt>
      <trkpt lat="43.63488" lon="3.82543">
        <ele>87</ele>
        <time>2021-02-20T12:14:57Z</time>
      </trkpt>
      <trkpt lat="43.6349" lon="3.82543">
        <ele>87</ele>
        <time>2021-02-20T12:14:58Z</time>
      </trkpt>
      <trkpt lat="43.63492" lon="3.82543">
        <ele>87</ele>
        <time>2021-02-20T12:14:59Z</time>
      </trkpt>
      <trkpt lat="43.63494" lon="3.82543">
        <ele>87</ele>
        <time>2021-02-20T12:15:00Z</time>
      </trkpt>
      <trkpt lat="43.63496" lon="3.82543">
        <ele>87</ele>
        <time>2021-02-20T12:15:01Z</time>
      </trkpt>
      <trkpt lat="43.63498" lon="3.82543">
        <ele>87</ele>
        <time>2021-02-20T12:15:02Z</time>
      </trkpt>
      <trkpt lat="43.635" lon="3.82542">
        <ele>87</ele>
        <time>2021-02-20T12:15:03Z</time>
      </trkpt>
      <trkpt lat="43.63502" lon="3.82542">
        <ele>87</ele>
        <time>2021-02-20T12:15:04Z</time>
      </trkpt>
      <trkpt lat="43.63504" lon="3.82542">
        <ele>89</ele>
        <time>2021-02-20T12:15:05Z</time>
      </trkpt>
      <trkpt lat="43.63506" lon="3.82542">
        <ele>89</ele>
        <time>2021-02-20T12:15:06Z</time>
      </trkpt>
      <trkpt lat="43.63508" lon="3.82541">
        <ele>89</ele>
        <time>2021-02-20T12:15:07Z</time>
      </trkpt>
      <trkpt lat="43.6351" lon="3.82541">
        <ele>89</ele>
        <time>2021-02-20T12:15:08Z</time>
      </trkpt>
      <trkpt lat="43.63512" lon="3.8254">
        <ele>89</ele>
        <time>2021-02-20T12:15:09Z</time>
      </trkpt>
      <trkpt lat="43.63514" lon="3.8254">
        <ele>89</ele>
        <time>2021-02-20T12:15:10Z</time>
      </trkpt>
      <trkpt lat="43.63516" lon="3.82539">
        <ele>89</ele>
        <time>2021-02-20T12:15:11Z</time>
      </trkpt>
      <trkpt lat="43.63518" lon="3.82539">
        <ele>89</ele>
        <time>2021-02-20T12:15:12Z</time>
      </trkpt>
      <trkpt lat="43.63521" lon="3.82539">
        <ele>89</ele>
        <time>2021-02-20T12:15:13Z</time>
      </trkpt>
      <trkpt lat="43.63523" lon="3.82538">
        <ele>89</ele>
        <time>2021-02-20T12:15:14Z</time>
      </trkpt>
      <trkpt lat="43.63526" lon="3.82538">
        <ele>90</ele>
        <time>2021-02-20T12:15:15Z</time>
      </trkpt>
      <trkpt lat="43.63529" lon="3.82537">
        <ele>90</ele>
        <time>2021-02-20T12:15:16Z</time>
      </trkpt>
      <trkpt lat="43.63531" lon="3.82537">
        <ele>90</ele>
        <time>2021-02-20T12:15:17Z</time>
      </trkpt>
      <trkpt lat="43.63534" lon="3.82536">
        <ele>90</ele>
        <time>2021-02-20T12:15:18Z</time>
      </trkpt>
      <trkpt lat="43.63537" lon="3.82536">
        <ele>90</ele>
        <time>2021-02-20T12:15:19Z</time>
      </trkpt>
      <trkpt lat="43.6354" lon="3.82535">
        <ele>90</ele>
        <time>2021-02-20T12:15:20Z</time>
      </trkpt>
      <trkpt lat="43.63543" lon="3.82535">
        <ele>90</ele>
        <time>2021-02-20T12:15:21Z</time>
      </trkpt>
      <trkpt lat="43.63546" lon="3.82534">
        <ele>90</ele>
        <time>2021-02-20T12:15:22Z</time>
      </trkpt>
      <trkpt lat="43.63549" lon="3.82534">
        <ele>90</ele>
        <time>2021-02-20T12:15:23Z</time>
      </trkpt>
      <trkpt lat="43.63552" lon="3.82532">
        <ele>90</ele>
        <time>2021-02-20T12:15:24Z</time>
      </trkpt>
      <trkpt lat="43.63555" lon="3.8253">
        <ele>91</ele>
        <time>2021-02-20T12:15:25Z</time>
      </trkpt>
      <trkpt lat="43.63557" lon="3.82528">
        <ele>91</ele>
        <time>2021-02-20T12:15:26Z</time>
      </trkpt>
      <trkpt lat="43.6356" lon="3.82526">
        <ele>91</ele>
        <time>2021-02-20T12:15:27Z</time>
      </trkpt>
      <trkpt lat="43.63562" lon="3.82524">
        <ele>91</ele>
        <time>2021-02-20T12:15:28Z</time>
      </trkpt>
      <trkpt lat="43.63564" lon="3.82522">
        <ele>91</ele>
        <time>2021-02-20T12:15:29Z</time>
      </trkpt>
      <trkpt lat="43.63567" lon="3.8252">
        <ele>91</ele>
        <time>2021-02-20T12:15:30Z</time>
      </trkpt>
      <trkpt lat="43.63569" lon="3.8252">
        <ele>91</ele>
        <time>2021-02-20T12:15:31Z</time>
      </trkpt>
      <trkpt lat="43.63571" lon="3.8252">
        <ele>91</ele>
        <time>2021-02-20T12:15:32Z</time>
      </trkpt>
      <trkpt lat="43.63573" lon="3.82521">
        <ele>91</ele>
        <time>2021-02-20T12:15:33Z</time>
      </trkpt>
      <trkpt lat="43.63574" lon="3.82522">
        <ele>91</ele>
        <time>2021-02-20T12:15:34Z</time>
      </trkpt>
      <trkpt lat="43.63575" lon="3.82525">
        <ele>91</ele>
        <time>2021-02-20T12:15:35Z</time>
      </trkpt>
      <trkpt lat="43.63576" lon="3.82529">
        <ele>91</ele>
        <time>2021-02-20T12:15:36Z</time>
      </trkpt>
      <trkpt lat="43.63577" lon="3.82534">
        <ele>91</ele>
        <time>2021-02-20T12:15:37Z</time>
      </trkpt>
      <trkpt lat="43.63578" lon="3.82538">
        <ele>91</ele>
        <time>2021-02-20T12:15:38Z</time>
      </trkpt>
      <trkpt lat="43.63578" lon="3.82542">
        <ele>91</ele>
        <time>2021-02-20T12:15:39Z</time>
      </trkpt>
      <trkpt lat="43.63579" lon="3.82547">
        <ele>91</ele>
        <time>2021-02-20T12:15:40Z</time>
      </trkpt>
      <trkpt lat="43.6358" lon="3.82551">
        <ele>91</ele>
        <time>2021-02-20T12:15:41Z</time>
      </trkpt>
      <trkpt lat="43.6358" lon="3.82556">
        <ele>91</ele>
        <time>2021-02-20T12:15:42Z</time>
      </trkpt>
      <trkpt lat="43.63581" lon="3.8256">
        <ele>91</ele>
        <time>2021-02-20T12:15:43Z</time>
      </trkpt>
      <trkpt lat="43.63582" lon="3.82563">
        <ele>91</ele>
        <time>2021-02-20T12:15:44Z</time>
      </trkpt>
      <trkpt lat="43.63583" lon="3.82567">
        <ele>91</ele>
        <time>2021-02-20T12:15:45Z</time>
      </trkpt>
      <trkpt lat="43.63583" lon="3.82571">
        <ele>92</ele>
        <time>2021-02-20T12:15:46Z</time>
      </trkpt>
      <trkpt lat="43.63584" lon="3.82576">
        <ele>92</ele>
        <time>2021-02-20T12:15:47Z</time>
      </trkpt>
      <trkpt lat="43.63585" lon="3.8258">
        <ele>92</ele>
        <time>2021-02-20T12:15:48Z</time>
      </trkpt>
      <trkpt lat="43.63585" lon="3.82584">
        <ele>92</ele>
        <time>2021-02-20T12:15:49Z</time>
      </trkpt>
      <trkpt lat="43.63586" lon="3.82588">
        <ele>92</ele>
        <time>2021-02-20T12:15:50Z</time>
      </trkpt>
      <trkpt lat="43.63587" lon="3.82592">
        <ele>92</ele>
        <time>2021-02-20T12:15:51Z</time>
      </trkpt>
      <trkpt lat="43.63588" lon="3.82596">
        <ele>92</ele>
        <time>2021-02-20T12:15:52Z</time>
      </trkpt>
      <trkpt lat="43.63589" lon="3.82601">
        <ele>92</ele>
        <time>2021-02-20T12:15:53Z</time>
      </trkpt>
      <trkpt lat="43.6359" lon="3.82606">
        <ele>92</ele>
        <time>2021-02-20T12:15:54Z</time>
      </trkpt>
      <trkpt lat="43.63591" lon="3.82611">
        <ele>91</ele>
        <time>2021-02-20T12:15:55Z</time>
      </trkpt>
      <trkpt lat="43.63592" lon="3.82617">
        <ele>91</ele>
        <time>2021-02-20T12:15:56Z</time>
      </trkpt>
      <trkpt lat="43.63594" lon="3.82622">
        <ele>91</ele>
        <time>2021-02-20T12:15:57Z</time>
      </trkpt>
      <trkpt lat="43.63595" lon="3.82628">
        <ele>91</ele>
        <time>2021-02-20T12:15:58Z</time>
      </trkpt>
      <trkpt lat="43.63597" lon="3.82634">
        <ele>91</ele>
        <time>2021-02-20T12:15:59Z</time>
      </trkpt>
      <trkpt lat="43.63599" lon="3.8264">
        <ele>91</ele>
        <time>2021-02-20T12:16:00Z</time>
      </trkpt>
      <trkpt lat="43.63603" lon="3.82643">
        <ele>91</ele>
        <time>2021-02-20T12:16:01Z</time>
      </trkpt>
      <trkpt lat="43.63607" lon="3.82645">
        <ele>91</ele>
        <time>2021-02-20T12:16:02Z</time>
      </trkpt>
      <trkpt lat="43.63612" lon="3.82647">
        <ele>91</ele>
        <time>2021-02-20T12:16:03Z</time>
      </trkpt>
      <trkpt lat="43.63617" lon="3.82652">
        <ele>91</ele>
        <time>2021-02-20T12:16:04Z</time>
      </trkpt>
      <trkpt lat="43.63622" lon="3.82659">
        <ele>90</ele>
        <time>2021-02-20T12:16:05Z</time>
      </trkpt>
      <trkpt lat="43.63625" lon="3.82668">
        <ele>90</ele>
        <time>2021-02-20T12:16:06Z</time>
      </trkpt>
      <trkpt lat="43.63628" lon="3.82675">
        <ele>90</ele>
        <time>2021-02-20T12:16:07Z</time>
      </trkpt>
      <trkpt lat="43.63632" lon="3.8268">
        <ele>90</ele>
        <time>2021-02-20T12:16:08Z</time>
      </trkpt>
      <trkpt lat="43.63637" lon="3.82687">
        <ele>90</ele>
        <time>2021-02-20T12:16:09Z</time>
      </trkpt>
      <trkpt lat="43.63639" lon="3.82696">
        <ele>90</ele>
        <time>2021-02-20T12:16:10Z</time>
      </trkpt>
      <trkpt lat="43.6364" lon="3.82706">
        <ele>90</ele>
        <time>2021-02-20T12:16:11Z</time>
      </trkpt>
      <trkpt lat="43.6364" lon="3.82714">
        <ele>90</ele>
        <time>2021-02-20T12:16:12Z</time>
      </trkpt>
      <trkpt lat="43.63639" lon="3.8272">
        <ele>90</ele>
        <time>2021-02-20T12:16:13Z</time>
      </trkpt>
      <trkpt lat="43.63638" lon="3.82726">
        <ele>90</ele>
        <time>2021-02-20T12:16:14Z</time>
      </trkpt>
      <trkpt lat="43.63637" lon="3.8273">
        <ele>87</ele>
        <time>2021-02-20T12:16:15Z</time>
      </trkpt>
      <trkpt lat="43.63636" lon="3.82733">
        <ele>87</ele>
        <time>2021-02-20T12:16:16Z</time>
      </trkpt>
      <trkpt lat="43.63636" lon="3.82737">
        <ele>87</ele>
        <time>2021-02-20T12:16:18Z</time>
      </trkpt>
      <trkpt lat="43.63636" lon="3.8274">
        <ele>87</ele>
        <time>2021-02-20T12:16:19Z</time>
      </trkpt>
      <trkpt lat="43.63637" lon="3.82744">
        <ele>87</ele>
        <time>2021-02-20T12:16:21Z</time>
      </trkpt>
      <trkpt lat="43.63638" lon="3.82746">
        <ele>87</ele>
        <time>2021-02-20T12:16:23Z</time>
      </trkpt>
      <trkpt lat="43.63639" lon="3.82749">
        <ele>85</ele>
        <time>2021-02-20T12:16:25Z</time>
      </trkpt>
      <trkpt lat="43.63637" lon="3.82751">
        <ele>85</ele>
        <time>2021-02-20T12:16:27Z</time>
      </trkpt>
      <trkpt lat="43.63636" lon="3.82749">
        <ele>85</ele>
        <time>2021-02-20T12:16:29Z</time>
      </trkpt>
      <trkpt lat="43.63636" lon="3.82745">
        <ele>85</ele>
        <time>2021-02-20T12:16:31Z</time>
      </trkpt>
      <trkpt lat="43.63638" lon="3.82744">
        <ele>85</ele>
        <time>2021-02-20T12:16:33Z</time>
      </trkpt>
      <trkpt lat="43.63639" lon="3.8275">
        <ele>84</ele>
        <time>2021-02-20T12:16:35Z</time>
      </trkpt>
      <trkpt lat="43.63639" lon="3.82755">
        <ele>84</ele>
        <time>2021-02-20T12:16:36Z</time>
      </trkpt>
      <trkpt lat="43.63639" lon="3.8276">
        <ele>84</ele>
        <time>2021-02-20T12:16:37Z</time>
      </trkpt>
      <trkpt lat="43.63641" lon="3.82763">
        <ele>84</ele>
        <time>2021-02-20T12:16:38Z</time>
      </trkpt>
      <trkpt lat="43.63643" lon="3.82765">
        <ele>84</ele>
        <time>2021-02-20T12:16:39Z</time>
      </trkpt>
      <trkpt lat="43.63646" lon="3.82768">
        <ele>84</ele>
        <time>2021-02-20T12:16:40Z</time>
      </trkpt>
      <trkpt lat="43.6365" lon="3.8277">
        <ele>84</ele>
        <time>2021-02-20T12:16:41Z</time>
      </trkpt>
      <trkpt lat="43.63654" lon="3.82771">
        <ele>84</ele>
        <time>2021-02-20T12:16:42Z</time>
      </trkpt>
      <trkpt lat="43.63658" lon="3.82771">
        <ele>84</ele>
        <time>2021-02-20T12:16:43Z</time>
      </trkpt>
      <trkpt lat="43.63661" lon="3.8277">
        <ele>84</ele>
        <time>2021-02-20T12:16:44Z</time>
      </trkpt>
      <trkpt lat="43.63665" lon="3.8277">
        <ele>84</ele>
        <time>2021-02-20T12:16:45Z</time>
      </trkpt>
      <trkpt lat="43.63668" lon="3.82769">
        <ele>84</ele>
        <time>2021-02-20T12:16:46Z</time>
      </trkpt>
      <trkpt lat="43.63671" lon="3.82768">
        <ele>84</ele>
        <time>2021-02-20T12:16:47Z</time>
      </trkpt>
      <trkpt lat="43.63675" lon="3.82767">
        <ele>84</ele>
        <time>2021-02-20T12:16:48Z</time>
      </trkpt>
      <trkpt lat="43.63679" lon="3.82767">
        <ele>84</ele>
        <time>2021-02-20T12:16:49Z</time>
      </trkpt>
      <trkpt lat="43.63682" lon="3.82766">
        <ele>84</ele>
        <time>2021-02-20T12:16:50Z</time>
      </trkpt>
      <trkpt lat="43.63686" lon="3.82765">
        <ele>84</ele>
        <time>2021-02-20T12:16:51Z</time>
      </trkpt>
      <trkpt lat="43.6369" lon="3.82764">
        <ele>84</ele>
        <time>2021-02-20T12:16:52Z</time>
      </trkpt>
      <trkpt lat="43.63694" lon="3.82763">
        <ele>84</ele>
        <time>2021-02-20T12:16:53Z</time>
      </trkpt>
      <trkpt lat="43.63698" lon="3.82762">
        <ele>84</ele>
        <time>2021-02-20T12:16:54Z</time>
      </trkpt>
      <trkpt lat="43.63703" lon="3.82761">
        <ele>83</ele>
        <time>2021-02-20T12:16:55Z</time>
      </trkpt>
      <trkpt lat="43.63707" lon="3.8276">
        <ele>83</ele>
        <time>2021-02-20T12:16:56Z</time>
      </trkpt>
      <trkpt lat="43.6371" lon="3.82759">
        <ele>83</ele>
        <time>2021-02-20T12:16:57Z</time>
      </trkpt>
      <trkpt lat="43.63714" lon="3.82758">
        <ele>83</ele>
        <time>2021-02-20T12:16:58Z</time>
      </trkpt>
      <trkpt lat="43.63718" lon="3.82757">
        <ele>83</ele>
        <time>2021-02-20T12:16:59Z</time>
      </trkpt>
      <trkpt lat="43.63722" lon="3.82758">
        <ele>83</ele>
        <time>2021-02-20T12:17:00Z</time>
      </trkpt>
      <trkpt lat="43.63725" lon="3.82759">
        <ele>83</ele>
        <time>2021-02-20T12:17:01Z</time>
      </trkpt>
      <trkpt lat="43.63728" lon="3.8276">
        <ele>83</ele>
        <time>2021-02-20T12:17:02Z</time>
      </trkpt>
      <trkpt lat="43.63731" lon="3.8276">
        <ele>83</ele>
        <time>2021-02-20T12:17:03Z</time>
      </trkpt>
      <trkpt lat="43.63735" lon="3.8276">
        <ele>83</ele>
        <time>2021-02-20T12:17:04Z</time>
      </trkpt>
      <trkpt lat="43.63738" lon="3.8276">
        <ele>83</ele>
        <time>2021-02-20T12:17:05Z</time>
      </trkpt>
      <trkpt lat="43.63743" lon="3.82759">
        <ele>83</ele>
        <time>2021-02-20T12:17:06Z</time>
      </trkpt>
      <trkpt lat="43.63747" lon="3.82758">
        <ele>83</ele>
        <time>2021-02-20T12:17:07Z</time>
      </trkpt>
      <trkpt lat="43.63751" lon="3.82757">
        <ele>83</ele>
        <time>2021-02-20T12:17:08Z</time>
      </trkpt>
      <trkpt lat="43.63755" lon="3.82755">
        <ele>83</ele>
        <time>2021-02-20T12:17:09Z</time>
      </trkpt>
      <trkpt lat="43.63759" lon="3.82754">
        <ele>83</ele>
        <time>2021-02-20T12:17:10Z</time>
      </trkpt>
      <trkpt lat="43.63763" lon="3.82752">
        <ele>83</ele>
        <time>2021-02-20T12:17:11Z</time>
      </trkpt>
      <trkpt lat="43.63767" lon="3.82751">
        <ele>83</ele>
        <time>2021-02-20T12:17:12Z</time>
      </trkpt>
      <trkpt lat="43.63771" lon="3.82749">
        <ele>83</ele>
        <time>2021-02-20T12:17:13Z</time>
      </trkpt>
      <trkpt lat="43.63775" lon="3.82748">
        <ele>83</ele>
        <time>2021-02-20T12:17:14Z</time>
      </trkpt>
      <trkpt lat="43.63779" lon="3.82747">
        <ele>82</ele>
        <time>2021-02-20T12:17:15Z</time>
      </trkpt>
      <trkpt lat="43.63783" lon="3.82746">
        <ele>82</ele>
        <time>2021-02-20T12:17:16Z</time>
      </trkpt>
      <trkpt lat="43.63787" lon="3.82744">
        <ele>82</ele>
        <time>2021-02-20T12:17:17Z</time>
      </trkpt>
      <trkpt lat="43.63791" lon="3.82743">
        <ele>82</ele>
        <time>2021-02-20T12:17:18Z</time>
      </trkpt>
      <trkpt lat="43.63794" lon="3.82741">
        <ele>82</ele>
        <time>2021-02-20T12:17:19Z</time>
      </trkpt>
      <trkpt lat="43.63798" lon="3.82739">
        <ele>82</ele>
        <time>2021-02-20T12:17:20Z</time>
      </trkpt>
      <trkpt lat="43.63802" lon="3.82737">
        <ele>82</ele>
        <time>2021-02-20T12:17:21Z</time>
      </trkpt>
      <trkpt lat="43.63806" lon="3.82734">
        <ele>82</ele>
        <time>2021-02-20T12:17:22Z</time>
      </trkpt>
      <trkpt lat="43.6381" lon="3.82732">
        <ele>82</ele>
        <time>2021-02-20T12:17:23Z</time>
      </trkpt>
      <trkpt lat="43.63814" lon="3.8273">
        <ele>82</ele>
        <time>2021-02-20T12:17:24Z</time>
      </trkpt>
      <trkpt lat="43.63818" lon="3.82728">
        <ele>82</ele>
        <time>2021-02-20T12:17:25Z</time>
      </trkpt>
      <trkpt lat="43.63822" lon="3.82726">
        <ele>82</ele>
        <time>2021-02-20T12:17:26Z</time>
      </trkpt>
      <trkpt lat="43.63826" lon="3.82725">
        <ele>82</ele>
        <time>2021-02-20T12:17:27Z</time>
      </trkpt>
      <trkpt lat="43.63829" lon="3.82724">
        <ele>82</ele>
        <time>2021-02-20T12:17:28Z</time>
      </trkpt>
      <trkpt lat="43.63833" lon="3.82722">
        <ele>82</ele>
        <time>2021-02-20T12:17:29Z</time>
      </trkpt>
      <trkpt lat="43.63836" lon="3.82722">
        <ele>82</ele>
        <time>2021-02-20T12:17:30Z</time>
      </trkpt>
      <trkpt lat="43.63839" lon="3.82721">
        <ele>82</ele>
        <time>2021-02-20T12:17:31Z</time>
      </trkpt>
      <trkpt lat="43.63842" lon="3.8272">
        <ele>82</ele>
        <time>2021-02-20T12:17:32Z</time>
      </trkpt>
      <trkpt lat="43.63845" lon="3.82719">
        <ele>82</ele>
        <time>2021-02-20T12:17:33Z</time>
      </trkpt>
      <trkpt lat="43.63848" lon="3.82718">
        <ele>82</ele>
        <time>2021-02-20T12:17:34Z</time>
      </trkpt>
      <trkpt lat="43.63851" lon="3.82717">
        <ele>83</ele>
        <time>2021-02-20T12:17:35Z</time>
      </trkpt>
      <trkpt lat="43.63854" lon="3.82716">
        <ele>83</ele>
        <time>2021-02-20T12:17:36Z</time>
      </trkpt>
      <trkpt lat="43.63856" lon="3.82716">
        <ele>83</ele>
        <time>2021-02-20T12:17:37Z</time>
      </trkpt>
      <trkpt lat="43.63859" lon="3.82715">
        <ele>83</ele>
        <time>2021-02-20T12:17:38Z</time>
      </trkpt>
      <trkpt lat="43.63862" lon="3.82715">
        <ele>83</ele>
        <time>2021-02-20T12:17:39Z</time>
      </trkpt>
      <trkpt lat="43.63864" lon="3.82716">
        <ele>83</ele>
        <time>2021-02-20T12:17:40Z</time>
      </trkpt>
      <trkpt lat="43.63867" lon="3.82717">
        <ele>83</ele>
        <time>2021-02-20T12:17:41Z</time>
      </trkpt>
      <trkpt lat="43.6387" lon="3.82719">
        <ele>83</ele>
        <time>2021-02-20T12:17:42Z</time>
      </trkpt>
      <trkpt lat="43.63871" lon="3.82723">
        <ele>83</ele>
        <time>2021-02-20T12:17:43Z</time>
      </trkpt>
      <trkpt lat="43.63873" lon="3.82728">
        <ele>83</ele>
        <time>2021-02-20T12:17:44Z</time>
      </trkpt>
      <trkpt lat="43.63875" lon="3.82732">
        <ele>84</ele>
        <time>2021-02-20T12:17:45Z</time>
      </trkpt>
      <trkpt lat="43.63876" lon="3.82737">
        <ele>84</ele>
        <time>2021-02-20T12:17:46Z</time>
      </trkpt>
      <trkpt lat="43.63878" lon="3.8274">
        <ele>84</ele>
        <time>2021-02-20T12:17:47Z</time>
      </trkpt>
      <trkpt lat="43.63881" lon="3.82743">
        <ele>84</ele>
        <time>2021-02-20T12:17:48Z</time>
      </trkpt>
      <trkpt lat="43.63883" lon="3.82745">
        <ele>84</ele>
        <time>2021-02-20T12:17:49Z</time>
      </trkpt>
      <trkpt lat="43.63885" lon="3.82746">
        <ele>84</ele>
        <time>2021-02-20T12:17:50Z</time>
      </trkpt>
      <trkpt lat="43.63888" lon="3.82747">
        <ele>84</ele>
        <time>2021-02-20T12:17:52Z</time>
      </trkpt>
      <trkpt lat="43.6389" lon="3.82748">
        <ele>84</ele>
        <time>2021-02-20T12:17:53Z</time>
      </trkpt>
      <trkpt lat="43.63892" lon="3.82751">
        <ele>84</ele>
        <time>2021-02-20T12:17:54Z</time>
      </trkpt>
      <trkpt lat="43.63894" lon="3.82756">
        <ele>83</ele>
        <time>2021-02-20T12:17:55Z</time>
      </trkpt>
      <trkpt lat="43.63895" lon="3.82761">
        <ele>83</ele>
        <time>2021-02-20T12:17:56Z</time>
      </trkpt>
      <trkpt lat="43.63897" lon="3.82766">
        <ele>83</ele>
        <time>2021-02-20T12:17:57Z</time>
      </trkpt>
      <trkpt lat="43.63899" lon="3.82771">
        <ele>83</ele>
        <time>2021-02-20T12:17:58Z</time>
      </trkpt>
      <trkpt lat="43.63901" lon="3.82777">
        <ele>83</ele>
        <time>2021-02-20T12:17:59Z</time>
      </trkpt>
      <trkpt lat="43.63904" lon="3.82782">
        <ele>83</ele>
        <time>2021-02-20T12:18:00Z</time>
      </trkpt>
      <trkpt lat="43.63906" lon="3.82788">
        <ele>83</ele>
        <time>2021-02-20T12:18:01Z</time>
      </trkpt>
      <trkpt lat="43.63909" lon="3.82793">
        <ele>83</ele>
        <time>2021-02-20T12:18:02Z</time>
      </trkpt>
      <trkpt lat="43.63912" lon="3.82797">
        <ele>83</ele>
        <time>2021-02-20T12:18:03Z</time>
      </trkpt>
      <trkpt lat="43.63916" lon="3.82802">
        <ele>83</ele>
        <time>2021-02-20T12:18:04Z</time>
      </trkpt>
      <trkpt lat="43.63919" lon="3.82807">
        <ele>83</ele>
        <time>2021-02-20T12:18:05Z</time>
      </trkpt>
      <trkpt lat="43.63921" lon="3.82813">
        <ele>83</ele>
        <time>2021-02-20T12:18:06Z</time>
      </trkpt>
      <trkpt lat="43.63923" lon="3.82819">
        <ele>83</ele>
        <time>2021-02-20T12:18:07Z</time>
      </trkpt>
      <trkpt lat="43.63924" lon="3.82824">
        <ele>83</ele>
        <time>2021-02-20T12:18:08Z</time>
      </trkpt>
      <trkpt lat="43.63926" lon="3.82827">
        <ele>83</ele>
        <time>2021-02-20T12:18:09Z</time>
      </trkpt>
      <trkpt lat="43.63927" lon="3.82829">
        <ele>83</ele>
        <time>2021-02-20T12:18:11Z</time>
      </trkpt>
      <trkpt lat="43.63929" lon="3.82829">
        <ele>83</ele>
        <time>2021-02-20T12:18:13Z</time>
      </trkpt>
      <trkpt lat="43.63933" lon="3.82827">
        <ele>82</ele>
        <time>2021-02-20T12:18:15Z</time>
      </trkpt>
      <trkpt lat="43.63935" lon="3.82824">
        <ele>82</ele>
        <time>2021-02-20T12:18:16Z</time>
      </trkpt>
      <trkpt lat="43.63938" lon="3.82822">
        <ele>82</ele>
        <time>2021-02-20T12:18:17Z</time>
      </trkpt>
      <trkpt lat="43.63942" lon="3.82821">
        <ele>82</ele>
        <time>2021-02-20T12:18:18Z</time>
      </trkpt>
      <trkpt lat="43.63946" lon="3.8282">
        <ele>82</ele>
        <time>2021-02-20T12:18:19Z</time>
      </trkpt>
      <trkpt lat="43.63949" lon="3.82818">
        <ele>82</ele>
        <time>2021-02-20T12:18:20Z</time>
      </trkpt>
      <trkpt lat="43.63953" lon="3.82816">
        <ele>82</ele>
        <time>2021-02-20T12:18:21Z</time>
      </trkpt>
      <trkpt lat="43.63956" lon="3.82814">
        <ele>82</ele>
        <time>2021-02-20T12:18:22Z</time>
      </trkpt>
      <trkpt lat="43.63958" lon="3.82812">
        <ele>82</ele>
        <time>2021-02-20T12:18:23Z</time>
      </trkpt>
      <trkpt lat="43.63961" lon="3.8281">
        <ele>82</ele>
        <time>2021-02-20T12:18:24Z</time>
      </trkpt>
      <trkpt lat="43.63964" lon="3.82807">
        <ele>83</ele>
        <time>2021-02-20T12:18:25Z</time>
      </trkpt>
      <trkpt lat="43.63967" lon="3.82806">
        <ele>83</ele>
        <time>2021-02-20T12:18:26Z</time>
      </trkpt>
      <trkpt lat="43.63969" lon="3.82804">
        <ele>83</ele>
        <time>2021-02-20T12:18:27Z</time>
      </trkpt>
      <trkpt lat="43.63972" lon="3.82803">
        <ele>83</ele>
        <time>2021-02-20T12:18:28Z</time>
      </trkpt>
      <trkpt lat="43.63975" lon="3.82802">
        <ele>83</ele>
        <time>2021-02-20T12:18:29Z</time>
      </trkpt>
      <trkpt lat="43.63978" lon="3.82801">
        <ele>83</ele>
        <time>2021-02-20T12:18:30Z</time>
      </trkpt>
      <trkpt lat="43.63981" lon="3.828">
        <ele>83</ele>
        <time>2021-02-20T12:18:31Z</time>
      </trkpt>
      <trkpt lat="43.63984" lon="3.828">
        <ele>83</ele>
        <time>2021-02-20T12:18:32Z</time>
      </trkpt>
      <trkpt lat="43.63987" lon="3.828">
        <ele>83</ele>
        <time>2021-02-20T12:18:33Z</time>
      </trkpt>
      <trkpt lat="43.63991" lon="3.828">
        <ele>83</ele>
        <time>2021-02-20T12:18:34Z</time>
      </trkpt>
      <trkpt lat="43.63994" lon="3.82799">
        <ele>84</ele>
        <time>2021-02-20T12:18:35Z</time>
      </trkpt>
      <trkpt lat="43.63997" lon="3.82799">
        <ele>84</ele>
        <time>2021-02-20T12:18:36Z</time>
      </trkpt>
      <trkpt lat="43.64001" lon="3.82798">
        <ele>84</ele>
        <time>2021-02-20T12:18:37Z</time>
      </trkpt>
      <trkpt lat="43.64003" lon="3.82798">
        <ele>84</ele>
        <time>2021-02-20T12:18:38Z</time>
      </trkpt>
      <trkpt lat="43.64006" lon="3.82797">
        <ele>84</ele>
        <time>2021-02-20T12:18:39Z</time>
      </trkpt>
      <trkpt lat="43.64009" lon="3.82795">
        <ele>84</ele>
        <time>2021-02-20T12:18:40Z</time>
      </trkpt>
      <trkpt lat="43.64012" lon="3.82794">
        <ele>84</ele>
        <time>2021-02-20T12:18:41Z</time>
      </trkpt>
      <trkpt lat="43.64014" lon="3.82792">
        <ele>84</ele>
        <time>2021-02-20T12:18:42Z</time>
      </trkpt>
      <trkpt lat="43.64016" lon="3.82789">
        <ele>84</ele>
        <time>2021-02-20T12:18:43Z</time>
      </trkpt>
      <trkpt lat="43.64017" lon="3.82785">
        <ele>84</ele>
        <time>2021-02-20T12:18:44Z</time>
      </trkpt>
      <trkpt lat="43.64017" lon="3.82781">
        <ele>85</ele>
        <time>2021-02-20T12:18:45Z</time>
      </trkpt>
      <trkpt lat="43.64018" lon="3.82777">
        <ele>85</ele>
        <time>2021-02-20T12:18:46Z</time>
      </trkpt>
      <trkpt lat="43.64019" lon="3.82774">
        <ele>85</ele>
        <time>2021-02-20T12:18:47Z</time>
      </trkpt>
      <trkpt lat="43.64021" lon="3.8277">
        <ele>85</ele>
        <time>2021-02-20T12:18:48Z</time>
      </trkpt>
      <trkpt lat="43.64023" lon="3.82767">
        <ele>85</ele>
        <time>2021-02-20T12:18:49Z</time>
      </trkpt>
      <trkpt lat="43.64025" lon="3.82763">
        <ele>85</ele>
        <time>2021-02-20T12:18:50Z</time>
      </trkpt>
      <trkpt lat="43.64027" lon="3.8276">
        <ele>85</ele>
        <time>2021-02-20T12:18:51Z</time>
      </trkpt>
      <trkpt lat="43.64029" lon="3.82756">
        <ele>85</ele>
        <time>2021-02-20T12:18:52Z</time>
      </trkpt>
      <trkpt lat="43.6403" lon="3.82753">
        <ele>85</ele>
        <time>2021-02-20T12:18:53Z</time>
      </trkpt>
      <trkpt lat="43.64032" lon="3.82749">
        <ele>85</ele>
        <time>2021-02-20T12:18:54Z</time>
      </trkpt>
      <trkpt lat="43.64033" lon="3.82745">
        <ele>87</ele>
        <time>2021-02-20T12:18:55Z</time>
      </trkpt>
      <trkpt lat="43.64035" lon="3.8274">
        <ele>87</ele>
        <time>2021-02-20T12:18:56Z</time>
      </trkpt>
      <trkpt lat="43.64037" lon="3.82737">
        <ele>87</ele>
        <time>2021-02-20T12:18:57Z</time>
      </trkpt>
      <trkpt lat="43.64039" lon="3.82733">
        <ele>87</ele>
        <time>2021-02-20T12:18:58Z</time>
      </trkpt>
      <trkpt lat="43.64041" lon="3.8273">
        <ele>87</ele>
        <time>2021-02-20T12:18:59Z</time>
      </trkpt>
      <trkpt lat="43.64043" lon="3.82727">
        <ele>87</ele>
        <time>2021-02-20T12:19:00Z</time>
      </trkpt>
      <trkpt lat="43.64044" lon="3.82723">
        <ele>87</ele>
        <time>2021-02-20T12:19:01Z</time>
      </trkpt>
      <trkpt lat="43.64046" lon="3.8272">
        <ele>87</ele>
        <time>2021-02-20T12:19:02Z</time>
      </trkpt>
      <trkpt lat="43.64048" lon="3.82716">
        <ele>87</ele>
        <time>2021-02-20T12:19:03Z</time>
      </trkpt>
      <trkpt lat="43.6405" lon="3.82713">
        <ele>87</ele>
        <time>2021-02-20T12:19:04Z</time>
      </trkpt>
      <trkpt lat="43.64051" lon="3.8271">
        <ele>88</ele>
        <time>2021-02-20T12:19:05Z</time>
      </trkpt>
      <trkpt lat="43.64053" lon="3.82707">
        <ele>88</ele>
        <time>2021-02-20T12:19:06Z</time>
      </trkpt>
      <trkpt lat="43.64055" lon="3.82704">
        <ele>88</ele>
        <time>2021-02-20T12:19:07Z</time>
      </trkpt>
      <trkpt lat="43.64056" lon="3.827">
        <ele>88</ele>
        <time>2021-02-20T12:19:08Z</time>
      </trkpt>
      <trkpt lat="43.64057" lon="3.82697">
        <ele>88</ele>
        <time>2021-02-20T12:19:09Z</time>
      </trkpt>
      <trkpt lat="43.64058" lon="3.82694">
        <ele>88</ele>
        <time>2021-02-20T12:19:10Z</time>
      </trkpt>
      <trkpt lat="43.64058" lon="3.8269">
        <ele>88</ele>
        <time>2021-02-20T12:19:11Z</time>
      </trkpt>
      <trkpt lat="43.64059" lon="3.82686">
        <ele>88</ele>
        <time>2021-02-20T12:19:12Z</time>
      </trkpt>
      <trkpt lat="43.6406" lon="3.82683">
        <ele>88</ele>
        <time>2021-02-20T12:19:13Z</time>
      </trkpt>
      <trkpt lat="43.64061" lon="3.8268">
        <ele>88</ele>
        <time>2021-02-20T12:19:14Z</time>
      </trkpt>
      <trkpt lat="43.64063" lon="3.82677">
        <ele>90</ele>
        <time>2021-02-20T12:19:15Z</time>
      </trkpt>
      <trkpt lat="43.64064" lon="3.82674">
        <ele>90</ele>
        <time>2021-02-20T12:19:16Z</time>
      </trkpt>
      <trkpt lat="43.64066" lon="3.8267">
        <ele>90</ele>
        <time>2021-02-20T12:19:17Z</time>
      </trkpt>
      <trkpt lat="43.64067" lon="3.82667">
        <ele>90</ele>
        <time>2021-02-20T12:19:18Z</time>
      </trkpt>
      <trkpt lat="43.64069" lon="3.82664">
        <ele>90</ele>
        <time>2021-02-20T12:19:19Z</time>
      </trkpt>
      <trkpt lat="43.6407" lon="3.82662">
        <ele>90</ele>
        <time>2021-02-20T12:19:20Z</time>
      </trkpt>
      <trkpt lat="43.64071" lon="3.82659">
        <ele>90</ele>
        <time>2021-02-20T12:19:21Z</time>
      </trkpt>
      <trkpt lat="43.64073" lon="3.82656">
        <ele>90</ele>
        <time>2021-02-20T12:19:22Z</time>
      </trkpt>
      <trkpt lat="43.64074" lon="3.82654">
        <ele>90</ele>
        <time>2021-02-20T12:19:23Z</time>
      </trkpt>
      <trkpt lat="43.64075" lon="3.82651">
        <ele>90</ele>
        <time>2021-02-20T12:19:24Z</time>
      </trkpt>
      <trkpt lat="43.64076" lon="3.82649">
        <ele>92</ele>
        <time>2021-02-20T12:19:25Z</time>
      </trkpt>
      <trkpt lat="43.64077" lon="3.82646">
        <ele>92</ele>
        <time>2021-02-20T12:19:26Z</time>
      </trkpt>
      <trkpt lat="43.64077" lon="3.82643">
        <ele>92</ele>
        <time>2021-02-20T12:19:27Z</time>
      </trkpt>
      <trkpt lat="43.64078" lon="3.8264">
        <ele>92</ele>
        <time>2021-02-20T12:19:28Z</time>
      </trkpt>
      <trkpt lat="43.64078" lon="3.82637">
        <ele>92</ele>
        <time>2021-02-20T12:19:29Z</time>
      </trkpt>
      <trkpt lat="43.64078" lon="3.82634">
        <ele>92</ele>
        <time>2021-02-20T12:19:30Z</time>
      </trkpt>
      <trkpt lat="43.64079" lon="3.82631">
        <ele>92</ele>
        <time>2021-02-20T12:19:31Z</time>
      </trkpt>
      <trkpt lat="43.64079" lon="3.82629">
        <ele>92</ele>
        <time>2021-02-20T12:19:32Z</time>
      </trkpt>
      <trkpt lat="43.64079" lon="3.82626">
        <ele>92</ele>
        <time>2021-02-20T12:19:33Z</time>
      </trkpt>
      <trkpt lat="43.64079" lon="3.82623">
        <ele>92</ele>
        <time>2021-02-20T12:19:34Z</time>
      </trkpt>
      <trkpt lat="43.6408" lon="3.8262">
        <ele>93</ele>
        <time>2021-02-20T12:19:35Z</time>
      </trkpt>
      <trkpt lat="43.64081" lon="3.82617">
        <ele>93</ele>
        <time>2021-02-20T12:19:36Z</time>
      </trkpt>
      <trkpt lat="43.64082" lon="3.82614">
        <ele>93</ele>
        <time>2021-02-20T12:19:37Z</time>
      </trkpt>
      <trkpt lat="43.64083" lon="3.8261">
        <ele>93</ele>
        <time>2021-02-20T12:19:38Z</time>
      </trkpt>
      <trkpt lat="43.64084" lon="3.82607">
        <ele>93</ele>
        <time>2021-02-20T12:19:39Z</time>
      </trkpt>
      <trkpt lat="43.64085" lon="3.82604">
        <ele>93</ele>
        <time>2021-02-20T12:19:40Z</time>
      </trkpt>
      <trkpt lat="43.64086" lon="3.82601">
        <ele>93</ele>
        <time>2021-02-20T12:19:41Z</time>
      </trkpt>
      <trkpt lat="43.64087" lon="3.82599">
        <ele>93</ele>
        <time>2021-02-20T12:19:42Z</time>
      </trkpt>
      <trkpt lat="43.64088" lon="3.82596">
        <ele>93</ele>
        <time>2021-02-20T12:19:43Z</time>
      </trkpt>
      <trkpt lat="43.64089" lon="3.82593">
        <ele>93</ele>
        <time>2021-02-20T12:19:44Z</time>
      </trkpt>
      <trkpt lat="43.6409" lon="3.8259">
        <ele>95</ele>
        <time>2021-02-20T12:19:45Z</time>
      </trkpt>
      <trkpt lat="43.6409" lon="3.82587">
        <ele>95</ele>
        <time>2021-02-20T12:19:46Z</time>
      </trkpt>
      <trkpt lat="43.64091" lon="3.82584">
        <ele>95</ele>
        <time>2021-02-20T12:19:47Z</time>
      </trkpt>
      <trkpt lat="43.64093" lon="3.82582">
        <ele>95</ele>
        <time>2021-02-20T12:19:48Z</time>
      </trkpt>
      <trkpt lat="43.64094" lon="3.8258">
        <ele>95</ele>
        <time>2021-02-20T12:19:49Z</time>
      </trkpt>
      <trkpt lat="43.64095" lon="3.82577">
        <ele>95</ele>
        <time>2021-02-20T12:19:50Z</time>
      </trkpt>
      <trkpt lat="43.64096" lon="3.82574">
        <ele>95</ele>
        <time>2021-02-20T12:19:51Z</time>
      </trkpt>
      <trkpt lat="43.64097" lon="3.82571">
        <ele>95</ele>
        <time>2021-02-20T12:19:52Z</time>
      </trkpt>
      <trkpt lat="43.64098" lon="3.82568">
        <ele>95</ele>
        <time>2021-02-20T12:19:53Z</time>
      </trkpt>
      <trkpt lat="43.64099" lon="3.82565">
        <ele>95</ele>
        <time>2021-02-20T12:19:54Z</time>
      </trkpt>
      <trkpt lat="43.64101" lon="3.82563">
        <ele>96</ele>
        <time>2021-02-20T12:19:55Z</time>
      </trkpt>
      <trkpt lat="43.64102" lon="3.8256">
        <ele>96</ele>
        <time>2021-02-20T12:19:56Z</time>
      </trkpt>
      <trkpt lat="43.64103" lon="3.82557">
        <ele>96</ele>
        <time>2021-02-20T12:19:57Z</time>
      </trkpt>
      <trkpt lat="43.64104" lon="3.82554">
        <ele>96</ele>
        <time>2021-02-20T12:19:58Z</time>
      </trkpt>
      <trkpt lat="43.64105" lon="3.82551">
        <ele>96</ele>
        <time>2021-02-20T12:19:59Z</time>
      </trkpt>
      <trkpt lat="43.64106" lon="3.82548">
        <ele>96</ele>
        <time>2021-02-20T12:20:00Z</time>
      </trkpt>
      <trkpt lat="43.64107" lon="3.82545">
        <ele>96</ele>
        <time>2021-02-20T12:20:01Z</time>
      </trkpt>
      <trkpt lat="43.64107" lon="3.82542">
        <ele>96</ele>
        <time>2021-02-20T12:20:02Z</time>
      </trkpt>
      <trkpt lat="43.64108" lon="3.8254">
        <ele>96</ele>
        <time>2021-02-20T12:20:03Z</time>
      </trkpt>
      <trkpt lat="43.64109" lon="3.82537">
        <ele>96</ele>
        <time>2021-02-20T12:20:04Z</time>
      </trkpt>
      <trkpt lat="43.6411" lon="3.82534">
        <ele>98</ele>
        <time>2021-02-20T12:20:05Z</time>
      </trkpt>
      <trkpt lat="43.64112" lon="3.82531">
        <ele>98</ele>
        <time>2021-02-20T12:20:06Z</time>
      </trkpt>
      <trkpt lat="43.64113" lon="3.82529">
        <ele>98</ele>
        <time>2021-02-20T12:20:07Z</time>
      </trkpt>
      <trkpt lat="43.64114" lon="3.82527">
        <ele>98</ele>
        <time>2021-02-20T12:20:08Z</time>
      </trkpt>
      <trkpt lat="43.64115" lon="3.82524">
        <ele>98</ele>
        <time>2021-02-20T12:20:09Z</time>
      </trkpt>
      <trkpt lat="43.64116" lon="3.82521">
        <ele>98</ele>
        <time>2021-02-20T12:20:10Z</time>
      </trkpt>
      <trkpt lat="43.64117" lon="3.82518">
        <ele>98</ele>
        <time>2021-02-20T12:20:11Z</time>
      </trkpt>
      <trkpt lat="43.64118" lon="3.82515">
        <ele>98</ele>
        <time>2021-02-20T12:20:12Z</time>
      </trkpt>
      <trkpt lat="43.64119" lon="3.82513">
        <ele>98</ele>
        <time>2021-02-20T12:20:13Z</time>
      </trkpt>
      <trkpt lat="43.64121" lon="3.82511">
        <ele>98</ele>
        <time>2021-02-20T12:20:14Z</time>
      </trkpt>
      <trkpt lat="43.64122" lon="3.82509">
        <ele>99</ele>
        <time>2021-02-20T12:20:15Z</time>
      </trkpt>
      <trkpt lat="43.64124" lon="3.82507">
        <ele>99</ele>
        <time>2021-02-20T12:20:16Z</time>
      </trkpt>
      <trkpt lat="43.64126" lon="3.82504">
        <ele>99</ele>
        <time>2021-02-20T12:20:17Z</time>
      </trkpt>
      <trkpt lat="43.64128" lon="3.82502">
        <ele>99</ele>
        <time>2021-02-20T12:20:18Z</time>
      </trkpt>
      <trkpt lat="43.64129" lon="3.82499">
        <ele>99</ele>
        <time>2021-02-20T12:20:19Z</time>
      </trkpt>
      <trkpt lat="43.64131" lon="3.82497">
        <ele>99</ele>
        <time>2021-02-20T12:20:20Z</time>
      </trkpt>
      <trkpt lat="43.64132" lon="3.82494">
        <ele>99</ele>
        <time>2021-02-20T12:20:21Z</time>
      </trkpt>
      <trkpt lat="43.64132" lon="3.82491">
        <ele>99</ele>
        <time>2021-02-20T12:20:22Z</time>
      </trkpt>
      <trkpt lat="43.64133" lon="3.82486">
        <ele>99</ele>
        <time>2021-02-20T12:20:24Z</time>
      </trkpt>
      <trkpt lat="43.64134" lon="3.82483">
        <ele>101</ele>
        <time>2021-02-20T12:20:25Z</time>
      </trkpt>
      <trkpt lat="43.64134" lon="3.82481">
        <ele>101</ele>
        <time>2021-02-20T12:20:26Z</time>
      </trkpt>
      <trkpt lat="43.64135" lon="3.82479">
        <ele>101</ele>
        <time>2021-02-20T12:20:27Z</time>
      </trkpt>
      <trkpt lat="43.64136" lon="3.82476">
        <ele>101</ele>
        <time>2021-02-20T12:20:28Z</time>
      </trkpt>
      <trkpt lat="43.64138" lon="3.82473">
        <ele>101</ele>
        <time>2021-02-20T12:20:29Z</time>
      </trkpt>
      <trkpt lat="43.6414" lon="3.82471">
        <ele>101</ele>
        <time>2021-02-20T12:20:30Z</time>
      </trkpt>
      <trkpt lat="43.64141" lon="3.82468">
        <ele>101</ele>
        <time>2021-02-20T12:20:31Z</time>
      </trkpt>
      <trkpt lat="43.64141" lon="3.82465">
        <ele>101</ele>
        <time>2021-02-20T12:20:32Z</time>
      </trkpt>
      <trkpt lat="43.64142" lon="3.82462">
        <ele>101</ele>
        <time>2021-02-20T12:20:33Z</time>
      </trkpt>
      <trkpt lat="43.64143" lon="3.82459">
        <ele>101</ele>
        <time>2021-02-20T12:20:34Z</time>
      </trkpt>
      <trkpt lat="43.64143" lon="3.82456">
        <ele>101</ele>
        <time>2021-02-20T12:20:35Z</time>
      </trkpt>
      <trkpt lat="43.64144" lon="3.82452">
        <ele>101</ele>
        <time>2021-02-20T12:20:36Z</time>
      </trkpt>
      <trkpt lat="43.64144" lon="3.82449">
        <ele>101</ele>
        <time>2021-02-20T12:20:37Z</time>
      </trkpt>
      <trkpt lat="43.64144" lon="3.82446">
        <ele>101</ele>
        <time>2021-02-20T12:20:38Z</time>
      </trkpt>
      <trkpt lat="43.64144" lon="3.82443">
        <ele>101</ele>
        <time>2021-02-20T12:20:39Z</time>
      </trkpt>
      <trkpt lat="43.64145" lon="3.8244">
        <ele>101</ele>
        <time>2021-02-20T12:20:40Z</time>
      </trkpt>
      <trkpt lat="43.64146" lon="3.82437">
        <ele>101</ele>
        <time>2021-02-20T12:20:41Z</time>
      </trkpt>
      <trkpt lat="43.64148" lon="3.82435">
        <ele>101</ele>
        <time>2021-02-20T12:20:42Z</time>
      </trkpt>
      <trkpt lat="43.64149" lon="3.82432">
        <ele>101</ele>
        <time>2021-02-20T12:20:43Z</time>
      </trkpt>
      <trkpt lat="43.64149" lon="3.8243">
        <ele>101</ele>
        <time>2021-02-20T12:20:44Z</time>
      </trkpt>
      <trkpt lat="43.64148" lon="3.82427">
        <ele>103</ele>
        <time>2021-02-20T12:20:45Z</time>
      </trkpt>
      <trkpt lat="43.64148" lon="3.82424">
        <ele>103</ele>
        <time>2021-02-20T12:20:46Z</time>
      </trkpt>
      <trkpt lat="43.64148" lon="3.82421">
        <ele>103</ele>
        <time>2021-02-20T12:20:47Z</time>
      </trkpt>
      <trkpt lat="43.64149" lon="3.82418">
        <ele>103</ele>
        <time>2021-02-20T12:20:48Z</time>
      </trkpt>
      <trkpt lat="43.6415" lon="3.82415">
        <ele>103</ele>
        <time>2021-02-20T12:20:49Z</time>
      </trkpt>
      <trkpt lat="43.64151" lon="3.82413">
        <ele>103</ele>
        <time>2021-02-20T12:20:50Z</time>
      </trkpt>
      <trkpt lat="43.64152" lon="3.8241">
        <ele>103</ele>
        <time>2021-02-20T12:20:51Z</time>
      </trkpt>
      <trkpt lat="43.64154" lon="3.82407">
        <ele>103</ele>
        <time>2021-02-20T12:20:52Z</time>
      </trkpt>
      <trkpt lat="43.64155" lon="3.82405">
        <ele>103</ele>
        <time>2021-02-20T12:20:53Z</time>
      </trkpt>
      <trkpt lat="43.64156" lon="3.82402">
        <ele>103</ele>
        <time>2021-02-20T12:20:54Z</time>
      </trkpt>
      <trkpt lat="43.64157" lon="3.824">
        <ele>104</ele>
        <time>2021-02-20T12:20:55Z</time>
      </trkpt>
      <trkpt lat="43.64158" lon="3.82397">
        <ele>104</ele>
        <time>2021-02-20T12:20:56Z</time>
      </trkpt>
      <trkpt lat="43.64159" lon="3.82395">
        <ele>104</ele>
        <time>2021-02-20T12:20:57Z</time>
      </trkpt>
      <trkpt lat="43.64159" lon="3.82392">
        <ele>104</ele>
        <time>2021-02-20T12:20:58Z</time>
      </trkpt>
      <trkpt lat="43.6416" lon="3.82389">
        <ele>104</ele>
        <time>2021-02-20T12:20:59Z</time>
      </trkpt>
      <trkpt lat="43.64161" lon="3.82387">
        <ele>104</ele>
        <time>2021-02-20T12:21:00Z</time>
      </trkpt>
      <trkpt lat="43.64161" lon="3.82384">
        <ele>104</ele>
        <time>2021-02-20T12:21:01Z</time>
      </trkpt>
      <trkpt lat="43.64162" lon="3.82382">
        <ele>104</ele>
        <time>2021-02-20T12:21:02Z</time>
      </trkpt>
      <trkpt lat="43.64164" lon="3.82379">
        <ele>104</ele>
        <time>2021-02-20T12:21:03Z</time>
      </trkpt>
      <trkpt lat="43.64165" lon="3.82377">
        <ele>104</ele>
        <time>2021-02-20T12:21:04Z</time>
      </trkpt>
      <trkpt lat="43.64167" lon="3.82375">
        <ele>105</ele>
        <time>2021-02-20T12:21:05Z</time>
      </trkpt>
      <trkpt lat="43.64169" lon="3.82375">
        <ele>105</ele>
        <time>2021-02-20T12:21:06Z</time>
      </trkpt>
      <trkpt lat="43.64171" lon="3.82375">
        <ele>105</ele>
        <time>2021-02-20T12:21:07Z</time>
      </trkpt>
      <trkpt lat="43.64173" lon="3.82372">
        <ele>105</ele>
        <time>2021-02-20T12:21:09Z</time>
      </trkpt>
      <trkpt lat="43.64174" lon="3.82369">
        <ele>105</ele>
        <time>2021-02-20T12:21:10Z</time>
      </trkpt>
      <trkpt lat="43.64175" lon="3.82366">
        <ele>105</ele>
        <time>2021-02-20T12:21:11Z</time>
      </trkpt>
      <trkpt lat="43.64176" lon="3.82363">
        <ele>105</ele>
        <time>2021-02-20T12:21:12Z</time>
      </trkpt>
      <trkpt lat="43.64177" lon="3.8236">
        <ele>105</ele>
        <time>2021-02-20T12:21:13Z</time>
      </trkpt>
      <trkpt lat="43.64178" lon="3.82357">
        <ele>105</ele>
        <time>2021-02-20T12:21:14Z</time>
      </trkpt>
      <trkpt lat="43.64179" lon="3.82354">
        <ele>106</ele>
        <time>2021-02-20T12:21:15Z</time>
      </trkpt>
      <trkpt lat="43.6418" lon="3.82351">
        <ele>106</ele>
        <time>2021-02-20T12:21:16Z</time>
      </trkpt>
      <trkpt lat="43.6418" lon="3.82348">
        <ele>106</ele>
        <time>2021-02-20T12:21:17Z</time>
      </trkpt>
      <trkpt lat="43.64181" lon="3.82345">
        <ele>106</ele>
        <time>2021-02-20T12:21:18Z</time>
      </trkpt>
      <trkpt lat="43.64182" lon="3.82342">
        <ele>106</ele>
        <time>2021-02-20T12:21:20Z</time>
      </trkpt>
      <trkpt lat="43.64181" lon="3.82337">
        <ele>106</ele>
        <time>2021-02-20T12:21:24Z</time>
      </trkpt>
      <trkpt lat="43.64182" lon="3.82335">
        <ele>106</ele>
        <time>2021-02-20T12:21:25Z</time>
      </trkpt>
      <trkpt lat="43.64183" lon="3.82332">
        <ele>106</ele>
        <time>2021-02-20T12:21:26Z</time>
      </trkpt>
      <trkpt lat="43.64185" lon="3.82329">
        <ele>106</ele>
        <time>2021-02-20T12:21:27Z</time>
      </trkpt>
      <trkpt lat="43.64187" lon="3.82326">
        <ele>106</ele>
        <time>2021-02-20T12:21:28Z</time>
      </trkpt>
      <trkpt lat="43.64189" lon="3.82323">
        <ele>106</ele>
        <time>2021-02-20T12:21:29Z</time>
      </trkpt>
      <trkpt lat="43.64192" lon="3.82319">
        <ele>106</ele>
        <time>2021-02-20T12:21:30Z</time>
      </trkpt>
      <trkpt lat="43.64195" lon="3.82316">
        <ele>106</ele>
        <time>2021-02-20T12:21:31Z</time>
      </trkpt>
      <trkpt lat="43.64199" lon="3.82314">
        <ele>106</ele>
        <time>2021-02-20T12:21:32Z</time>
      </trkpt>
      <trkpt lat="43.64202" lon="3.82312">
        <ele>106</ele>
        <time>2021-02-20T12:21:33Z</time>
      </trkpt>
      <trkpt lat="43.64205" lon="3.8231">
        <ele>106</ele>
        <time>2021-02-20T12:21:34Z</time>
      </trkpt>
      <trkpt lat="43.64209" lon="3.82307">
        <ele>106</ele>
        <time>2021-02-20T12:21:35Z</time>
      </trkpt>
      <trkpt lat="43.64212" lon="3.82305">
        <ele>106</ele>
        <time>2021-02-20T12:21:36Z</time>
      </trkpt>
      <trkpt lat="43.64215" lon="3.82304">
        <ele>106</ele>
        <time>2021-02-20T12:21:37Z</time>
      </trkpt>
      <trkpt lat="43.64218" lon="3.82303">
        <ele>106</ele>
        <time>2021-02-20T12:21:38Z</time>
      </trkpt>
      <trkpt lat="43.64222" lon="3.82303">
        <ele>106</ele>
        <time>2021-02-20T12:21:39Z</time>
      </trkpt>
      <trkpt lat="43.64227" lon="3.82303">
        <ele>106</ele>
        <time>2021-02-20T12:21:40Z</time>
      </trkpt>
      <trkpt lat="43.64231" lon="3.82303">
        <ele>106</ele>
        <time>2021-02-20T12:21:41Z</time>
      </trkpt>
      <trkpt lat="43.64235" lon="3.82303">
        <ele>106</ele>
        <time>2021-02-20T12:21:42Z</time>
      </trkpt>
      <trkpt lat="43.64239" lon="3.82304">
        <ele>106</ele>
        <time>2021-02-20T12:21:43Z</time>
      </trkpt>
      <trkpt lat="43.64242" lon="3.82304">
        <ele>106</ele>
        <time>2021-02-20T12:21:44Z</time>
      </trkpt>
      <trkpt lat="43.64246" lon="3.82303">
        <ele>106</ele>
        <time>2021-02-20T12:21:45Z</time>
      </trkpt>
      <trkpt lat="43.6425" lon="3.82303">
        <ele>106</ele>
        <time>2021-02-20T12:21:46Z</time>
      </trkpt>
      <trkpt lat="43.64254" lon="3.82302">
        <ele>106</ele>
        <time>2021-02-20T12:21:47Z</time>
      </trkpt>
      <trkpt lat="43.64258" lon="3.82303">
        <ele>106</ele>
        <time>2021-02-20T12:21:48Z</time>
      </trkpt>
      <trkpt lat="43.64262" lon="3.82304">
        <ele>106</ele>
        <time>2021-02-20T12:21:49Z</time>
      </trkpt>
      <trkpt lat="43.64265" lon="3.82306">
        <ele>106</ele>
        <time>2021-02-20T12:21:50Z</time>
      </trkpt>
      <trkpt lat="43.64269" lon="3.82309">
        <ele>106</ele>
        <time>2021-02-20T12:21:51Z</time>
      </trkpt>
      <trkpt lat="43.64272" lon="3.82312">
        <ele>106</ele>
        <time>2021-02-20T12:21:52Z</time>
      </trkpt>
      <trkpt lat="43.64276" lon="3.82313">
        <ele>106</ele>
        <time>2021-02-20T12:21:53Z</time>
      </trkpt>
      <trkpt lat="43.6428" lon="3.82312">
        <ele>106</ele>
        <time>2021-02-20T12:21:54Z</time>
      </trkpt>
      <trkpt lat="43.64284" lon="3.8231">
        <ele>106</ele>
        <time>2021-02-20T12:21:55Z</time>
      </trkpt>
      <trkpt lat="43.64288" lon="3.82308">
        <ele>106</ele>
        <time>2021-02-20T12:21:56Z</time>
      </trkpt>
      <trkpt lat="43.64291" lon="3.82304">
        <ele>106</ele>
        <time>2021-02-20T12:21:57Z</time>
      </trkpt>
      <trkpt lat="43.64294" lon="3.823">
        <ele>106</ele>
        <time>2021-02-20T12:21:58Z</time>
      </trkpt>
      <trkpt lat="43.64297" lon="3.82297">
        <ele>106</ele>
        <time>2021-02-20T12:21:59Z</time>
      </trkpt>
      <trkpt lat="43.64301" lon="3.82296">
        <ele>106</ele>
        <time>2021-02-20T12:22:00Z</time>
      </trkpt>
      <trkpt lat="43.64305" lon="3.82297">
        <ele>106</ele>
        <time>2021-02-20T12:22:01Z</time>
      </trkpt>
      <trkpt lat="43.6431" lon="3.82298">
        <ele>106</ele>
        <time>2021-02-20T12:22:02Z</time>
      </trkpt>
      <trkpt lat="43.64314" lon="3.82297">
        <ele>106</ele>
        <time>2021-02-20T12:22:03Z</time>
      </trkpt>
      <trkpt lat="43.64318" lon="3.82295">
        <ele>106</ele>
        <time>2021-02-20T12:22:04Z</time>
      </trkpt>
      <trkpt lat="43.64322" lon="3.82294">
        <ele>104</ele>
        <time>2021-02-20T12:22:05Z</time>
      </trkpt>
      <trkpt lat="43.64326" lon="3.82293">
        <ele>104</ele>
        <time>2021-02-20T12:22:06Z</time>
      </trkpt>
      <trkpt lat="43.6433" lon="3.82292">
        <ele>104</ele>
        <time>2021-02-20T12:22:07Z</time>
      </trkpt>
      <trkpt lat="43.64333" lon="3.82292">
        <ele>104</ele>
        <time>2021-02-20T12:22:08Z</time>
      </trkpt>
      <trkpt lat="43.64335" lon="3.82291">
        <ele>104</ele>
        <time>2021-02-20T12:22:09Z</time>
      </trkpt>
      <trkpt lat="43.64338" lon="3.8229">
        <ele>104</ele>
        <time>2021-02-20T12:22:10Z</time>
      </trkpt>
      <trkpt lat="43.6434" lon="3.82289">
        <ele>104</ele>
        <time>2021-02-20T12:22:11Z</time>
      </trkpt>
      <trkpt lat="43.64342" lon="3.82287">
        <ele>104</ele>
        <time>2021-02-20T12:22:12Z</time>
      </trkpt>
      <trkpt lat="43.64344" lon="3.82285">
        <ele>104</ele>
        <time>2021-02-20T12:22:13Z</time>
      </trkpt>
      <trkpt lat="43.64346" lon="3.82283">
        <ele>104</ele>
        <time>2021-02-20T12:22:14Z</time>
      </trkpt>
      <trkpt lat="43.64348" lon="3.8228">
        <ele>103</ele>
        <time>2021-02-20T12:22:15Z</time>
      </trkpt>
      <trkpt lat="43.6435" lon="3.82277">
        <ele>103</ele>
        <time>2021-02-20T12:22:16Z</time>
      </trkpt>
      <trkpt lat="43.64351" lon="3.82275">
        <ele>103</ele>
        <time>2021-02-20T12:22:17Z</time>
      </trkpt>
      <trkpt lat="43.64351" lon="3.82272">
        <ele>103</ele>
        <time>2021-02-20T12:22:24Z</time>
      </trkpt>
      <trkpt lat="43.64358" lon="3.82267">
        <ele>101</ele>
        <time>2021-02-20T12:24:46Z</time>
      </trkpt>
      <trkpt lat="43.64361" lon="3.82267">
        <ele>101</ele>
        <time>2021-02-20T12:24:47Z</time>
      </trkpt>
      <trkpt lat="43.64365" lon="3.82267">
        <ele>101</ele>
        <time>2021-02-20T12:24:48Z</time>
      </trkpt>
      <trkpt lat="43.64367" lon="3.82265">
        <ele>101</ele>
        <time>2021-02-20T12:24:49Z</time>
      </trkpt>
      <trkpt lat="43.64369" lon="3.82262">
        <ele>101</ele>
        <time>2021-02-20T12:24:50Z</time>
      </trkpt>
      <trkpt lat="43.64372" lon="3.82259">
        <ele>101</ele>
        <time>2021-02-20T12:24:51Z</time>
      </trkpt>
      <trkpt lat="43.64375" lon="3.82258">
        <ele>101</ele>
        <time>2021-02-20T12:24:52Z</time>
      </trkpt>
      <trkpt lat="43.64377" lon="3.82259">
        <ele>101</ele>
        <time>2021-02-20T12:24:53Z</time>
      </trkpt>
      <trkpt lat="43.64379" lon="3.8226">
        <ele>101</ele>
        <time>2021-02-20T12:24:54Z</time>
      </trkpt>
      <trkpt lat="43.64381" lon="3.8226">
        <ele>100</ele>
        <time>2021-02-20T12:24:55Z</time>
      </trkpt>
      <trkpt lat="43.64384" lon="3.82259">
        <ele>100</ele>
        <time>2021-02-20T12:24:56Z</time>
      </trkpt>
      <trkpt lat="43.64387" lon="3.82258">
        <ele>100</ele>
        <time>2021-02-20T12:24:57Z</time>
      </trkpt>
      <trkpt lat="43.64391" lon="3.82257">
        <ele>100</ele>
        <time>2021-02-20T12:24:58Z</time>
      </trkpt>
      <trkpt lat="43.64394" lon="3.82255">
        <ele>100</ele>
        <time>2021-02-20T12:24:59Z</time>
      </trkpt>
      <trkpt lat="43.64396" lon="3.82253">
        <ele>100</ele>
        <time>2021-02-20T12:25:00Z</time>
      </trkpt>
      <trkpt lat="43.64399" lon="3.82252">
        <ele>100</ele>
        <time>2021-02-20T12:25:01Z</time>
      </trkpt>
      <trkpt lat="43.64402" lon="3.82251">
        <ele>100</ele>
        <time>2021-02-20T12:25:02Z</time>
      </trkpt>
      <trkpt lat="43.64405" lon="3.82249">
        <ele>100</ele>
        <time>2021-02-20T12:25:03Z</time>
      </trkpt>
      <trkpt lat="43.64407" lon="3.82247">
        <ele>100</ele>
        <time>2021-02-20T12:25:04Z</time>
      </trkpt>
      <trkpt lat="43.6441" lon="3.82244">
        <ele>100</ele>
        <time>2021-02-20T12:25:05Z</time>
      </trkpt>
      <trkpt lat="43.64413" lon="3.82243">
        <ele>100</ele>
        <time>2021-02-20T12:25:06Z</time>
      </trkpt>
      <trkpt lat="43.64416" lon="3.82243">
        <ele>100</ele>
        <time>2021-02-20T12:25:07Z</time>
      </trkpt>
      <trkpt lat="43.64419" lon="3.82244">
        <ele>100</ele>
        <time>2021-02-20T12:25:08Z</time>
      </trkpt>
      <trkpt lat="43.64422" lon="3.82245">
        <ele>100</ele>
        <time>2021-02-20T12:25:09Z</time>
      </trkpt>
      <trkpt lat="43.64426" lon="3.82246">
        <ele>100</ele>
        <time>2021-02-20T12:25:10Z</time>
      </trkpt>
      <trkpt lat="43.64428" lon="3.82248">
        <ele>100</ele>
        <time>2021-02-20T12:25:11Z</time>
      </trkpt>
      <trkpt lat="43.64431" lon="3.82251">
        <ele>100</ele>
        <time>2021-02-20T12:25:12Z</time>
      </trkpt>
      <trkpt lat="43.64434" lon="3.82253">
        <ele>100</ele>
        <time>2021-02-20T12:25:13Z</time>
      </trkpt>
      <trkpt lat="43.64437" lon="3.82256">
        <ele>100</ele>
        <time>2021-02-20T12:25:14Z</time>
      </trkpt>
      <trkpt lat="43.6444" lon="3.82258">
        <ele>100</ele>
        <time>2021-02-20T12:25:15Z</time>
      </trkpt>
      <trkpt lat="43.64443" lon="3.82261">
        <ele>100</ele>
        <time>2021-02-20T12:25:16Z</time>
      </trkpt>
      <trkpt lat="43.64445" lon="3.82263">
        <ele>100</ele>
        <time>2021-02-20T12:25:17Z</time>
      </trkpt>
      <trkpt lat="43.64447" lon="3.82265">
        <ele>100</ele>
        <time>2021-02-20T12:25:18Z</time>
      </trkpt>
      <trkpt lat="43.64449" lon="3.82268">
        <ele>100</ele>
        <time>2021-02-20T12:25:19Z</time>
      </trkpt>
      <trkpt lat="43.64451" lon="3.8227">
        <ele>100</ele>
        <time>2021-02-20T12:25:20Z</time>
      </trkpt>
      <trkpt lat="43.64454" lon="3.82271">
        <ele>100</ele>
        <time>2021-02-20T12:25:21Z</time>
      </trkpt>
      <trkpt lat="43.64456" lon="3.82273">
        <ele>100</ele>
        <time>2021-02-20T12:25:22Z</time>
      </trkpt>
      <trkpt lat="43.64459" lon="3.82273">
        <ele>100</ele>
        <time>2021-02-20T12:25:23Z</time>
      </trkpt>
      <trkpt lat="43.64461" lon="3.82273">
        <ele>100</ele>
        <time>2021-02-20T12:25:24Z</time>
      </trkpt>
      <trkpt lat="43.64463" lon="3.82273">
        <ele>100</ele>
        <time>2021-02-20T12:25:26Z</time>
      </trkpt>
      <trkpt lat="43.64466" lon="3.82274">
        <ele>100</ele>
        <time>2021-02-20T12:25:28Z</time>
      </trkpt>
      <trkpt lat="43.64467" lon="3.82277">
        <ele>100</ele>
        <time>2021-02-20T12:25:29Z</time>
      </trkpt>
      <trkpt lat="43.64467" lon="3.8228">
        <ele>100</ele>
        <time>2021-02-20T12:25:30Z</time>
      </trkpt>
      <trkpt lat="43.64468" lon="3.82284">
        <ele>100</ele>
        <time>2021-02-20T12:25:31Z</time>
      </trkpt>
      <trkpt lat="43.6447" lon="3.82287">
        <ele>100</ele>
        <time>2021-02-20T12:25:32Z</time>
      </trkpt>
      <trkpt lat="43.64472" lon="3.8229">
        <ele>100</ele>
        <time>2021-02-20T12:25:33Z</time>
      </trkpt>
      <trkpt lat="43.64475" lon="3.8229">
        <ele>100</ele>
        <time>2021-02-20T12:25:34Z</time>
      </trkpt>
      <trkpt lat="43.64477" lon="3.82288">
        <ele>100</ele>
        <time>2021-02-20T12:25:35Z</time>
      </trkpt>
      <trkpt lat="43.64479" lon="3.82285">
        <ele>100</ele>
        <time>2021-02-20T12:25:36Z</time>
      </trkpt>
      <trkpt lat="43.64482" lon="3.82284">
        <ele>100</ele>
        <time>2021-02-20T12:25:37Z</time>
      </trkpt>
      <trkpt lat="43.64485" lon="3.82285">
        <ele>100</ele>
        <time>2021-02-20T12:25:38Z</time>
      </trkpt>
      <trkpt lat="43.64489" lon="3.82286">
        <ele>100</ele>
        <time>2021-02-20T12:25:39Z</time>
      </trkpt>
      <trkpt lat="43.64493" lon="3.82288">
        <ele>100</ele>
        <time>2021-02-20T12:25:40Z</time>
      </trkpt>
      <trkpt lat="43.64496" lon="3.82291">
        <ele>100</ele>
        <time>2021-02-20T12:25:41Z</time>
      </trkpt>
      <trkpt lat="43.64499" lon="3.82294">
        <ele>100</ele>
        <time>2021-02-20T12:25:42Z</time>
      </trkpt>
      <trkpt lat="43.64501" lon="3.82296">
        <ele>100</ele>
        <time>2021-02-20T12:25:43Z</time>
      </trkpt>
      <trkpt lat="43.64503" lon="3.82298">
        <ele>100</ele>
        <time>2021-02-20T12:25:44Z</time>
      </trkpt>
      <trkpt lat="43.64505" lon="3.823">
        <ele>101</ele>
        <time>2021-02-20T12:25:45Z</time>
      </trkpt>
      <trkpt lat="43.64507" lon="3.82301">
        <ele>101</ele>
        <time>2021-02-20T12:25:46Z</time>
      </trkpt>
      <trkpt lat="43.6451" lon="3.82302">
        <ele>101</ele>
        <time>2021-02-20T12:25:47Z</time>
      </trkpt>
      <trkpt lat="43.64513" lon="3.82303">
        <ele>101</ele>
        <time>2021-02-20T12:25:48Z</time>
      </trkpt>
      <trkpt lat="43.64516" lon="3.82304">
        <ele>101</ele>
        <time>2021-02-20T12:25:49Z</time>
      </trkpt>
      <trkpt lat="43.64519" lon="3.82304">
        <ele>101</ele>
        <time>2021-02-20T12:25:50Z</time>
      </trkpt>
      <trkpt lat="43.64523" lon="3.82305">
        <ele>101</ele>
        <time>2021-02-20T12:25:51Z</time>
      </trkpt>
      <trkpt lat="43.64526" lon="3.82306">
        <ele>101</ele>
        <time>2021-02-20T12:25:52Z</time>
      </trkpt>
      <trkpt lat="43.6453" lon="3.82307">
        <ele>101</ele>
        <time>2021-02-20T12:25:53Z</time>
      </trkpt>
      <trkpt lat="43.64533" lon="3.82307">
        <ele>101</ele>
        <time>2021-02-20T12:25:54Z</time>
      </trkpt>
      <trkpt lat="43.64537" lon="3.82308">
        <ele>102</ele>
        <time>2021-02-20T12:25:55Z</time>
      </trkpt>
      <trkpt lat="43.64541" lon="3.82309">
        <ele>102</ele>
        <time>2021-02-20T12:25:56Z</time>
      </trkpt>
      <trkpt lat="43.64544" lon="3.8231">
        <ele>102</ele>
        <time>2021-02-20T12:25:57Z</time>
      </trkpt>
      <trkpt lat="43.64548" lon="3.8231">
        <ele>102</ele>
        <time>2021-02-20T12:25:58Z</time>
      </trkpt>
      <trkpt lat="43.64551" lon="3.82311">
        <ele>102</ele>
        <time>2021-02-20T12:25:59Z</time>
      </trkpt>
      <trkpt lat="43.64555" lon="3.82312">
        <ele>102</ele>
        <time>2021-02-20T12:26:00Z</time>
      </trkpt>
      <trkpt lat="43.64558" lon="3.82312">
        <ele>102</ele>
        <time>2021-02-20T12:26:01Z</time>
      </trkpt>
      <trkpt lat="43.64561" lon="3.82313">
        <ele>102</ele>
        <time>2021-02-20T12:26:02Z</time>
      </trkpt>
      <trkpt lat="43.64565" lon="3.82315">
        <ele>102</ele>
        <time>2021-02-20T12:26:03Z</time>
      </trkpt>
      <trkpt lat="43.64568" lon="3.82316">
        <ele>102</ele>
        <time>2021-02-20T12:26:04Z</time>
      </trkpt>
      <trkpt lat="43.64571" lon="3.82318">
        <ele>101</ele>
        <time>2021-02-20T12:26:05Z</time>
      </trkpt>
      <trkpt lat="43.64574" lon="3.8232">
        <ele>101</ele>
        <time>2021-02-20T12:26:06Z</time>
      </trkpt>
      <trkpt lat="43.64577" lon="3.82323">
        <ele>101</ele>
        <time>2021-02-20T12:26:07Z</time>
      </trkpt>
      <trkpt lat="43.6458" lon="3.82326">
        <ele>101</ele>
        <time>2021-02-20T12:26:08Z</time>
      </trkpt>
      <trkpt lat="43.64583" lon="3.82329">
        <ele>101</ele>
        <time>2021-02-20T12:26:09Z</time>
      </trkpt>
      <trkpt lat="43.64585" lon="3.82331">
        <ele>101</ele>
        <time>2021-02-20T12:26:10Z</time>
      </trkpt>
      <trkpt lat="43.64588" lon="3.82333">
        <ele>101</ele>
        <time>2021-02-20T12:26:11Z</time>
      </trkpt>
      <trkpt lat="43.64591" lon="3.82336">
        <ele>101</ele>
        <time>2021-02-20T12:26:12Z</time>
      </trkpt>
      <trkpt lat="43.64593" lon="3.82338">
        <ele>101</ele>
        <time>2021-02-20T12:26:13Z</time>
      </trkpt>
      <trkpt lat="43.64596" lon="3.8234">
        <ele>101</ele>
        <time>2021-02-20T12:26:14Z</time>
      </trkpt>
      <trkpt lat="43.64599" lon="3.82343">
        <ele>101</ele>
        <time>2021-02-20T12:26:15Z</time>
      </trkpt>
      <trkpt lat="43.64603" lon="3.82346">
        <ele>101</ele>
        <time>2021-02-20T12:26:16Z</time>
      </trkpt>
      <trkpt lat="43.64606" lon="3.82348">
        <ele>101</ele>
        <time>2021-02-20T12:26:17Z</time>
      </trkpt>
      <trkpt lat="43.64609" lon="3.82351">
        <ele>101</ele>
        <time>2021-02-20T12:26:18Z</time>
      </trkpt>
      <trkpt lat="43.64612" lon="3.82354">
        <ele>101</ele>
        <time>2021-02-20T12:26:19Z</time>
      </trkpt>
      <trkpt lat="43.64616" lon="3.82356">
        <ele>101</ele>
        <time>2021-02-20T12:26:20Z</time>
      </trkpt>
      <trkpt lat="43.64619" lon="3.82359">
        <ele>101</ele>
        <time>2021-02-20T12:26:21Z</time>
      </trkpt>
      <trkpt lat="43.64622" lon="3.82361">
        <ele>101</ele>
        <time>2021-02-20T12:26:22Z</time>
      </trkpt>
      <trkpt lat="43.64625" lon="3.82364">
        <ele>101</ele>
        <time>2021-02-20T12:26:23Z</time>
      </trkpt>
      <trkpt lat="43.64628" lon="3.82367">
        <ele>101</ele>
        <time>2021-02-20T12:26:24Z</time>
      </trkpt>
      <trkpt lat="43.6463" lon="3.82369">
        <ele>100</ele>
        <time>2021-02-20T12:26:25Z</time>
      </trkpt>
      <trkpt lat="43.64632" lon="3.82371">
        <ele>100</ele>
        <time>2021-02-20T12:26:26Z</time>
      </trkpt>
      <trkpt lat="43.64635" lon="3.82373">
        <ele>100</ele>
        <time>2021-02-20T12:26:27Z</time>
      </trkpt>
      <trkpt lat="43.64639" lon="3.82375">
        <ele>100</ele>
        <time>2021-02-20T12:26:28Z</time>
      </trkpt>
      <trkpt lat="43.64642" lon="3.82377">
        <ele>100</ele>
        <time>2021-02-20T12:26:29Z</time>
      </trkpt>
      <trkpt lat="43.64645" lon="3.82379">
        <ele>100</ele>
        <time>2021-02-20T12:26:30Z</time>
      </trkpt>
      <trkpt lat="43.64648" lon="3.82381">
        <ele>100</ele>
        <time>2021-02-20T12:26:31Z</time>
      </trkpt>
      <trkpt lat="43.64651" lon="3.82382">
        <ele>100</ele>
        <time>2021-02-20T12:26:32Z</time>
      </trkpt>
      <trkpt lat="43.64654" lon="3.82384">
        <ele>100</ele>
        <time>2021-02-20T12:26:33Z</time>
      </trkpt>
      <trkpt lat="43.64657" lon="3.82387">
        <ele>100</ele>
        <time>2021-02-20T12:26:34Z</time>
      </trkpt>
      <trkpt lat="43.6466" lon="3.82389">
        <ele>101</ele>
        <time>2021-02-20T12:26:35Z</time>
      </trkpt>
      <trkpt lat="43.64662" lon="3.82391">
        <ele>101</ele>
        <time>2021-02-20T12:26:36Z</time>
      </trkpt>
      <trkpt lat="43.64665" lon="3.82393">
        <ele>101</ele>
        <time>2021-02-20T12:26:37Z</time>
      </trkpt>
      <trkpt lat="43.64668" lon="3.82396">
        <ele>101</ele>
        <time>2021-02-20T12:26:38Z</time>
      </trkpt>
      <trkpt lat="43.6467" lon="3.82398">
        <ele>101</ele>
        <time>2021-02-20T12:26:39Z</time>
      </trkpt>
      <trkpt lat="43.64673" lon="3.824">
        <ele>101</ele>
        <time>2021-02-20T12:26:40Z</time>
      </trkpt>
      <trkpt lat="43.64676" lon="3.82401">
        <ele>101</ele>
        <time>2021-02-20T12:26:41Z</time>
      </trkpt>
      <trkpt lat="43.64679" lon="3.82403">
        <ele>101</ele>
        <time>2021-02-20T12:26:42Z</time>
      </trkpt>
      <trkpt lat="43.64682" lon="3.82405">
        <ele>101</ele>
        <time>2021-02-20T12:26:43Z</time>
      </trkpt>
      <trkpt lat="43.64685" lon="3.82407">
        <ele>101</ele>
        <time>2021-02-20T12:26:44Z</time>
      </trkpt>
      <trkpt lat="43.64688" lon="3.82409">
        <ele>101</ele>
        <time>2021-02-20T12:26:45Z</time>
      </trkpt>
      <trkpt lat="43.64691" lon="3.82411">
        <ele>101</ele>
        <time>2021-02-20T12:26:46Z</time>
      </trkpt>
      <trkpt lat="43.64694" lon="3.82413">
        <ele>101</ele>
        <time>2021-02-20T12:26:47Z</time>
      </trkpt>
      <trkpt lat="43.64697" lon="3.82415">
        <ele>101</ele>
        <time>2021-02-20T12:26:48Z</time>
      </trkpt>
      <trkpt lat="43.647" lon="3.82416">
        <ele>101</ele>
        <time>2021-02-20T12:26:49Z</time>
      </trkpt>
      <trkpt lat="43.64703" lon="3.82418">
        <ele>101</ele>
        <time>2021-02-20T12:26:50Z</time>
      </trkpt>
      <trkpt lat="43.64706" lon="3.82419">
        <ele>101</ele>
        <time>2021-02-20T12:26:51Z</time>
      </trkpt>
      <trkpt lat="43.64708" lon="3.82421">
        <ele>101</ele>
        <time>2021-02-20T12:26:52Z</time>
      </trkpt>
      <trkpt lat="43.64711" lon="3.82423">
        <ele>101</ele>
        <time>2021-02-20T12:26:53Z</time>
      </trkpt>
      <trkpt lat="43.64714" lon="3.82425">
        <ele>101</ele>
        <time>2021-02-20T12:26:54Z</time>
      </trkpt>
      <trkpt lat="43.64717" lon="3.82426">
        <ele>101</ele>
        <time>2021-02-20T12:26:55Z</time>
      </trkpt>
      <trkpt lat="43.6472" lon="3.82427">
        <ele>101</ele>
        <time>2021-02-20T12:26:56Z</time>
      </trkpt>
      <trkpt lat="43.64724" lon="3.82428">
        <ele>101</ele>
        <time>2021-02-20T12:26:57Z</time>
      </trkpt>
      <trkpt lat="43.64727" lon="3.82429">
        <ele>101</ele>
        <time>2021-02-20T12:26:58Z</time>
      </trkpt>
      <trkpt lat="43.64731" lon="3.8243">
        <ele>101</ele>
        <time>2021-02-20T12:26:59Z</time>
      </trkpt>
      <trkpt lat="43.64734" lon="3.82431">
        <ele>101</ele>
        <time>2021-02-20T12:27:00Z</time>
      </trkpt>
      <trkpt lat="43.64738" lon="3.82431">
        <ele>101</ele>
        <time>2021-02-20T12:27:01Z</time>
      </trkpt>
      <trkpt lat="43.64741" lon="3.82432">
        <ele>101</ele>
        <time>2021-02-20T12:27:02Z</time>
      </trkpt>
      <trkpt lat="43.64744" lon="3.82432">
        <ele>101</ele>
        <time>2021-02-20T12:27:03Z</time>
      </trkpt>
      <trkpt lat="43.64748" lon="3.82432">
        <ele>101</ele>
        <time>2021-02-20T12:27:04Z</time>
      </trkpt>
      <trkpt lat="43.64751" lon="3.82432">
        <ele>102</ele>
        <time>2021-02-20T12:27:05Z</time>
      </trkpt>
      <trkpt lat="43.64754" lon="3.82432">
        <ele>102</ele>
        <time>2021-02-20T12:27:06Z</time>
      </trkpt>
      <trkpt lat="43.64757" lon="3.82431">
        <ele>102</ele>
        <time>2021-02-20T12:27:07Z</time>
      </trkpt>
      <trkpt lat="43.64761" lon="3.82431">
        <ele>102</ele>
        <time>2021-02-20T12:27:08Z</time>
      </trkpt>
      <trkpt lat="43.64764" lon="3.8243">
        <ele>102</ele>
        <time>2021-02-20T12:27:09Z</time>
      </trkpt>
      <trkpt lat="43.64767" lon="3.8243">
        <ele>102</ele>
        <time>2021-02-20T12:27:10Z</time>
      </trkpt>
      <trkpt lat="43.6477" lon="3.82429">
        <ele>102</ele>
        <time>2021-02-20T12:27:11Z</time>
      </trkpt>
      <trkpt lat="43.64773" lon="3.82428">
        <ele>102</ele>
        <time>2021-02-20T12:27:12Z</time>
      </trkpt>
      <trkpt lat="43.64775" lon="3.82428">
        <ele>102</ele>
        <time>2021-02-20T12:27:13Z</time>
      </trkpt>
      <trkpt lat="43.64778" lon="3.82428">
        <ele>102</ele>
        <time>2021-02-20T12:27:14Z</time>
      </trkpt>
      <trkpt lat="43.64781" lon="3.82427">
        <ele>103</ele>
        <time>2021-02-20T12:27:15Z</time>
      </trkpt>
      <trkpt lat="43.64783" lon="3.82427">
        <ele>103</ele>
        <time>2021-02-20T12:27:16Z</time>
      </trkpt>
      <trkpt lat="43.64786" lon="3.82426">
        <ele>103</ele>
        <time>2021-02-20T12:27:17Z</time>
      </trkpt>
      <trkpt lat="43.64789" lon="3.82426">
        <ele>103</ele>
        <time>2021-02-20T12:27:18Z</time>
      </trkpt>
      <trkpt lat="43.64791" lon="3.82425">
        <ele>103</ele>
        <time>2021-02-20T12:27:19Z</time>
      </trkpt>
      <trkpt lat="43.64793" lon="3.82424">
        <ele>103</ele>
        <time>2021-02-20T12:27:20Z</time>
      </trkpt>
      <trkpt lat="43.64796" lon="3.82424">
        <ele>103</ele>
        <time>2021-02-20T12:27:21Z</time>
      </trkpt>
      <trkpt lat="43.64798" lon="3.82423">
        <ele>103</ele>
        <time>2021-02-20T12:27:22Z</time>
      </trkpt>
      <trkpt lat="43.648" lon="3.82423">
        <ele>103</ele>
        <time>2021-02-20T12:27:23Z</time>
      </trkpt>
      <trkpt lat="43.64803" lon="3.82422">
        <ele>103</ele>
        <time>2021-02-20T12:27:24Z</time>
      </trkpt>
      <trkpt lat="43.64805" lon="3.82422">
        <ele>104</ele>
        <time>2021-02-20T12:27:25Z</time>
      </trkpt>
      <trkpt lat="43.64807" lon="3.82421">
        <ele>104</ele>
        <time>2021-02-20T12:27:26Z</time>
      </trkpt>
      <trkpt lat="43.64809" lon="3.82421">
        <ele>104</ele>
        <time>2021-02-20T12:27:27Z</time>
      </trkpt>
      <trkpt lat="43.64812" lon="3.82421">
        <ele>104</ele>
        <time>2021-02-20T12:27:28Z</time>
      </trkpt>
      <trkpt lat="43.64814" lon="3.8242">
        <ele>104</ele>
        <time>2021-02-20T12:27:29Z</time>
      </trkpt>
      <trkpt lat="43.64816" lon="3.8242">
        <ele>104</ele>
        <time>2021-02-20T12:27:30Z</time>
      </trkpt>
      <trkpt lat="43.64819" lon="3.8242">
        <ele>104</ele>
        <time>2021-02-20T12:27:31Z</time>
      </trkpt>
      <trkpt lat="43.64821" lon="3.82419">
        <ele>104</ele>
        <time>2021-02-20T12:27:32Z</time>
      </trkpt>
      <trkpt lat="43.64823" lon="3.82419">
        <ele>104</ele>
        <time>2021-02-20T12:27:33Z</time>
      </trkpt>
      <trkpt lat="43.64826" lon="3.82419">
        <ele>104</ele>
        <time>2021-02-20T12:27:34Z</time>
      </trkpt>
      <trkpt lat="43.64828" lon="3.82418">
        <ele>104</ele>
        <time>2021-02-20T12:27:35Z</time>
      </trkpt>
      <trkpt lat="43.6483" lon="3.82418">
        <ele>104</ele>
        <time>2021-02-20T12:27:36Z</time>
      </trkpt>
      <trkpt lat="43.64833" lon="3.82418">
        <ele>104</ele>
        <time>2021-02-20T12:27:37Z</time>
      </trkpt>
      <trkpt lat="43.64835" lon="3.82418">
        <ele>104</ele>
        <time>2021-02-20T12:27:38Z</time>
      </trkpt>
      <trkpt lat="43.64837" lon="3.82417">
        <ele>104</ele>
        <time>2021-02-20T12:27:39Z</time>
      </trkpt>
      <trkpt lat="43.64839" lon="3.82417">
        <ele>104</ele>
        <time>2021-02-20T12:27:40Z</time>
      </trkpt>
      <trkpt lat="43.64842" lon="3.82416">
        <ele>104</ele>
        <time>2021-02-20T12:27:41Z</time>
      </trkpt>
      <trkpt lat="43.64844" lon="3.82416">
        <ele>104</ele>
        <time>2021-02-20T12:27:42Z</time>
      </trkpt>
      <trkpt lat="43.64846" lon="3.82415">
        <ele>104</ele>
        <time>2021-02-20T12:27:43Z</time>
      </trkpt>
      <trkpt lat="43.64849" lon="3.82415">
        <ele>104</ele>
        <time>2021-02-20T12:27:44Z</time>
      </trkpt>
      <trkpt lat="43.64851" lon="3.82414">
        <ele>106</ele>
        <time>2021-02-20T12:27:45Z</time>
      </trkpt>
      <trkpt lat="43.64853" lon="3.82414">
        <ele>106</ele>
        <time>2021-02-20T12:27:46Z</time>
      </trkpt>
      <trkpt lat="43.64855" lon="3.82413">
        <ele>106</ele>
        <time>2021-02-20T12:27:47Z</time>
      </trkpt>
      <trkpt lat="43.64857" lon="3.82413">
        <ele>106</ele>
        <time>2021-02-20T12:27:48Z</time>
      </trkpt>
      <trkpt lat="43.6486" lon="3.82413">
        <ele>106</ele>
        <time>2021-02-20T12:27:49Z</time>
      </trkpt>
      <trkpt lat="43.64862" lon="3.82413">
        <ele>106</ele>
        <time>2021-02-20T12:27:50Z</time>
      </trkpt>
      <trkpt lat="43.64864" lon="3.82414">
        <ele>106</ele>
        <time>2021-02-20T12:27:51Z</time>
      </trkpt>
      <trkpt lat="43.64866" lon="3.82414">
        <ele>106</ele>
        <time>2021-02-20T12:27:52Z</time>
      </trkpt>
      <trkpt lat="43.64868" lon="3.82415">
        <ele>106</ele>
        <time>2021-02-20T12:27:53Z</time>
      </trkpt>
      <trkpt lat="43.6487" lon="3.82416">
        <ele>106</ele>
        <time>2021-02-20T12:27:54Z</time>
      </trkpt>
      <trkpt lat="43.64872" lon="3.82418">
        <ele>106</ele>
        <time>2021-02-20T12:27:55Z</time>
      </trkpt>
      <trkpt lat="43.64875" lon="3.8242">
        <ele>106</ele>
        <time>2021-02-20T12:27:56Z</time>
      </trkpt>
      <trkpt lat="43.64877" lon="3.82422">
        <ele>106</ele>
        <time>2021-02-20T12:27:57Z</time>
      </trkpt>
      <trkpt lat="43.64878" lon="3.82424">
        <ele>106</ele>
        <time>2021-02-20T12:27:58Z</time>
      </trkpt>
      <trkpt lat="43.6488" lon="3.82426">
        <ele>106</ele>
        <time>2021-02-20T12:27:59Z</time>
      </trkpt>
      <trkpt lat="43.64881" lon="3.82428">
        <ele>106</ele>
        <time>2021-02-20T12:28:00Z</time>
      </trkpt>
      <trkpt lat="43.64883" lon="3.8243">
        <ele>106</ele>
        <time>2021-02-20T12:28:01Z</time>
      </trkpt>
      <trkpt lat="43.64884" lon="3.82432">
        <ele>106</ele>
        <time>2021-02-20T12:28:02Z</time>
      </trkpt>
      <trkpt lat="43.64885" lon="3.82434">
        <ele>106</ele>
        <time>2021-02-20T12:28:03Z</time>
      </trkpt>
      <trkpt lat="43.64886" lon="3.82437">
        <ele>106</ele>
        <time>2021-02-20T12:28:04Z</time>
      </trkpt>
      <trkpt lat="43.64888" lon="3.82439">
        <ele>108</ele>
        <time>2021-02-20T12:28:05Z</time>
      </trkpt>
      <trkpt lat="43.64889" lon="3.82441">
        <ele>108</ele>
        <time>2021-02-20T12:28:06Z</time>
      </trkpt>
      <trkpt lat="43.64891" lon="3.82443">
        <ele>108</ele>
        <time>2021-02-20T12:28:07Z</time>
      </trkpt>
      <trkpt lat="43.64893" lon="3.82445">
        <ele>108</ele>
        <time>2021-02-20T12:28:08Z</time>
      </trkpt>
      <trkpt lat="43.64894" lon="3.82446">
        <ele>108</ele>
        <time>2021-02-20T12:28:09Z</time>
      </trkpt>
      <trkpt lat="43.64896" lon="3.82448">
        <ele>108</ele>
        <time>2021-02-20T12:28:10Z</time>
      </trkpt>
      <trkpt lat="43.64897" lon="3.8245">
        <ele>108</ele>
        <time>2021-02-20T12:28:11Z</time>
      </trkpt>
      <trkpt lat="43.64899" lon="3.82452">
        <ele>108</ele>
        <time>2021-02-20T12:28:12Z</time>
      </trkpt>
      <trkpt lat="43.64901" lon="3.82454">
        <ele>108</ele>
        <time>2021-02-20T12:28:13Z</time>
      </trkpt>
      <trkpt lat="43.64902" lon="3.82456">
        <ele>108</ele>
        <time>2021-02-20T12:28:14Z</time>
      </trkpt>
      <trkpt lat="43.64904" lon="3.82458">
        <ele>109</ele>
        <time>2021-02-20T12:28:15Z</time>
      </trkpt>
      <trkpt lat="43.64906" lon="3.8246">
        <ele>109</ele>
        <time>2021-02-20T12:28:16Z</time>
      </trkpt>
      <trkpt lat="43.64908" lon="3.82461">
        <ele>109</ele>
        <time>2021-02-20T12:28:17Z</time>
      </trkpt>
      <trkpt lat="43.6491" lon="3.82462">
        <ele>109</ele>
        <time>2021-02-20T12:28:18Z</time>
      </trkpt>
      <trkpt lat="43.64912" lon="3.82462">
        <ele>109</ele>
        <time>2021-02-20T12:28:19Z</time>
      </trkpt>
      <trkpt lat="43.64914" lon="3.82463">
        <ele>109</ele>
        <time>2021-02-20T12:28:20Z</time>
      </trkpt>
      <trkpt lat="43.64916" lon="3.82463">
        <ele>109</ele>
        <time>2021-02-20T12:28:21Z</time>
      </trkpt>
      <trkpt lat="43.64918" lon="3.82463">
        <ele>109</ele>
        <time>2021-02-20T12:28:22Z</time>
      </trkpt>
      <trkpt lat="43.64921" lon="3.82463">
        <ele>109</ele>
        <time>2021-02-20T12:28:23Z</time>
      </trkpt>
      <trkpt lat="43.64923" lon="3.82462">
        <ele>109</ele>
        <time>2021-02-20T12:28:24Z</time>
      </trkpt>
      <trkpt lat="43.64925" lon="3.82461">
        <ele>110</ele>
        <time>2021-02-20T12:28:25Z</time>
      </trkpt>
      <trkpt lat="43.64926" lon="3.8246">
        <ele>110</ele>
        <time>2021-02-20T12:28:26Z</time>
      </trkpt>
      <trkpt lat="43.64928" lon="3.82458">
        <ele>110</ele>
        <time>2021-02-20T12:28:27Z</time>
      </trkpt>
      <trkpt lat="43.6493" lon="3.82455">
        <ele>110</ele>
        <time>2021-02-20T12:28:28Z</time>
      </trkpt>
      <trkpt lat="43.64932" lon="3.82453">
        <ele>110</ele>
        <time>2021-02-20T12:28:29Z</time>
      </trkpt>
      <trkpt lat="43.64934" lon="3.82451">
        <ele>110</ele>
        <time>2021-02-20T12:28:30Z</time>
      </trkpt>
      <trkpt lat="43.64936" lon="3.82449">
        <ele>110</ele>
        <time>2021-02-20T12:28:31Z</time>
      </trkpt>
      <trkpt lat="43.64939" lon="3.82448">
        <ele>110</ele>
        <time>2021-02-20T12:28:32Z</time>
      </trkpt>
      <trkpt lat="43.64941" lon="3.82446">
        <ele>110</ele>
        <time>2021-02-20T12:28:33Z</time>
      </trkpt>
      <trkpt lat="43.64943" lon="3.82445">
        <ele>110</ele>
        <time>2021-02-20T12:28:34Z</time>
      </trkpt>
      <trkpt lat="43.64946" lon="3.82444">
        <ele>110</ele>
        <time>2021-02-20T12:28:35Z</time>
      </trkpt>
      <trkpt lat="43.64948" lon="3.82443">
        <ele>110</ele>
        <time>2021-02-20T12:28:36Z</time>
      </trkpt>
      <trkpt lat="43.64951" lon="3.82442">
        <ele>110</ele>
        <time>2021-02-20T12:28:37Z</time>
      </trkpt>
      <trkpt lat="43.64953" lon="3.82441">
        <ele>110</ele>
        <time>2021-02-20T12:28:38Z</time>
      </trkpt>
      <trkpt lat="43.64955" lon="3.8244">
        <ele>110</ele>
        <time>2021-02-20T12:28:39Z</time>
      </trkpt>
      <trkpt lat="43.64957" lon="3.82438">
        <ele>110</ele>
        <time>2021-02-20T12:28:40Z</time>
      </trkpt>
      <trkpt lat="43.64959" lon="3.82436">
        <ele>110</ele>
        <time>2021-02-20T12:28:41Z</time>
      </trkpt>
      <trkpt lat="43.64961" lon="3.82435">
        <ele>110</ele>
        <time>2021-02-20T12:28:42Z</time>
      </trkpt>
      <trkpt lat="43.64963" lon="3.82433">
        <ele>110</ele>
        <time>2021-02-20T12:28:43Z</time>
      </trkpt>
      <trkpt lat="43.64964" lon="3.82431">
        <ele>110</ele>
        <time>2021-02-20T12:28:44Z</time>
      </trkpt>
      <trkpt lat="43.64966" lon="3.8243">
        <ele>111</ele>
        <time>2021-02-20T12:28:45Z</time>
      </trkpt>
      <trkpt lat="43.64968" lon="3.82428">
        <ele>111</ele>
        <time>2021-02-20T12:28:46Z</time>
      </trkpt>
      <trkpt lat="43.6497" lon="3.82427">
        <ele>111</ele>
        <time>2021-02-20T12:28:47Z</time>
      </trkpt>
      <trkpt lat="43.64972" lon="3.82427">
        <ele>111</ele>
        <time>2021-02-20T12:28:48Z</time>
      </trkpt>
      <trkpt lat="43.64974" lon="3.82427">
        <ele>111</ele>
        <time>2021-02-20T12:28:49Z</time>
      </trkpt>
      <trkpt lat="43.64976" lon="3.82427">
        <ele>111</ele>
        <time>2021-02-20T12:28:50Z</time>
      </trkpt>
      <trkpt lat="43.64978" lon="3.82427">
        <ele>111</ele>
        <time>2021-02-20T12:28:51Z</time>
      </trkpt>
      <trkpt lat="43.6498" lon="3.82427">
        <ele>111</ele>
        <time>2021-02-20T12:28:52Z</time>
      </trkpt>
      <trkpt lat="43.64982" lon="3.82426">
        <ele>111</ele>
        <time>2021-02-20T12:28:53Z</time>
      </trkpt>
      <trkpt lat="43.64984" lon="3.82425">
        <ele>111</ele>
        <time>2021-02-20T12:28:54Z</time>
      </trkpt>
      <trkpt lat="43.64986" lon="3.82424">
        <ele>114</ele>
        <time>2021-02-20T12:28:55Z</time>
      </trkpt>
      <trkpt lat="43.64988" lon="3.82423">
        <ele>114</ele>
        <time>2021-02-20T12:28:56Z</time>
      </trkpt>
      <trkpt lat="43.6499" lon="3.82422">
        <ele>114</ele>
        <time>2021-02-20T12:28:57Z</time>
      </trkpt>
      <trkpt lat="43.64992" lon="3.8242">
        <ele>114</ele>
        <time>2021-02-20T12:28:58Z</time>
      </trkpt>
      <trkpt lat="43.64994" lon="3.82419">
        <ele>114</ele>
        <time>2021-02-20T12:28:59Z</time>
      </trkpt>
      <trkpt lat="43.64996" lon="3.82418">
        <ele>114</ele>
        <time>2021-02-20T12:29:00Z</time>
      </trkpt>
      <trkpt lat="43.64998" lon="3.82418">
        <ele>114</ele>
        <time>2021-02-20T12:29:01Z</time>
      </trkpt>
      <trkpt lat="43.65" lon="3.82417">
        <ele>114</ele>
        <time>2021-02-20T12:29:02Z</time>
      </trkpt>
      <trkpt lat="43.65002" lon="3.82416">
        <ele>114</ele>
        <time>2021-02-20T12:29:03Z</time>
      </trkpt>
      <trkpt lat="43.65004" lon="3.82416">
        <ele>114</ele>
        <time>2021-02-20T12:29:04Z</time>
      </trkpt>
      <trkpt lat="43.65007" lon="3.82415">
        <ele>115</ele>
        <time>2021-02-20T12:29:05Z</time>
      </trkpt>
      <trkpt lat="43.65009" lon="3.82416">
        <ele>115</ele>
        <time>2021-02-20T12:29:06Z</time>
      </trkpt>
      <trkpt lat="43.65011" lon="3.82416">
        <ele>115</ele>
        <time>2021-02-20T12:29:07Z</time>
      </trkpt>
      <trkpt lat="43.65013" lon="3.82416">
        <ele>115</ele>
        <time>2021-02-20T12:29:08Z</time>
      </trkpt>
      <trkpt lat="43.65015" lon="3.82415">
        <ele>115</ele>
        <time>2021-02-20T12:29:09Z</time>
      </trkpt>
      <trkpt lat="43.65017" lon="3.82414">
        <ele>115</ele>
        <time>2021-02-20T12:29:10Z</time>
      </trkpt>
      <trkpt lat="43.65018" lon="3.82414">
        <ele>115</ele>
        <time>2021-02-20T12:29:11Z</time>
      </trkpt>
      <trkpt lat="43.6502" lon="3.82413">
        <ele>115</ele>
        <time>2021-02-20T12:29:12Z</time>
      </trkpt>
      <trkpt lat="43.65022" lon="3.82412">
        <ele>115</ele>
        <time>2021-02-20T12:29:13Z</time>
      </trkpt>
      <trkpt lat="43.65024" lon="3.82412">
        <ele>115</ele>
        <time>2021-02-20T12:29:14Z</time>
      </trkpt>
      <trkpt lat="43.65026" lon="3.82411">
        <ele>116</ele>
        <time>2021-02-20T12:29:15Z</time>
      </trkpt>
      <trkpt lat="43.65028" lon="3.8241">
        <ele>116</ele>
        <time>2021-02-20T12:29:16Z</time>
      </trkpt>
      <trkpt lat="43.65031" lon="3.8241">
        <ele>116</ele>
        <time>2021-02-20T12:29:17Z</time>
      </trkpt>
      <trkpt lat="43.65033" lon="3.82409">
        <ele>116</ele>
        <time>2021-02-20T12:29:18Z</time>
      </trkpt>
      <trkpt lat="43.65035" lon="3.82409">
        <ele>116</ele>
        <time>2021-02-20T12:29:19Z</time>
      </trkpt>
      <trkpt lat="43.65037" lon="3.82408">
        <ele>116</ele>
        <time>2021-02-20T12:29:20Z</time>
      </trkpt>
      <trkpt lat="43.6504" lon="3.82408">
        <ele>116</ele>
        <time>2021-02-20T12:29:21Z</time>
      </trkpt>
      <trkpt lat="43.65042" lon="3.82407">
        <ele>116</ele>
        <time>2021-02-20T12:29:22Z</time>
      </trkpt>
      <trkpt lat="43.65045" lon="3.82407">
        <ele>116</ele>
        <time>2021-02-20T12:29:23Z</time>
      </trkpt>
      <trkpt lat="43.65047" lon="3.82406">
        <ele>116</ele>
        <time>2021-02-20T12:29:24Z</time>
      </trkpt>
      <trkpt lat="43.65049" lon="3.82406">
        <ele>117</ele>
        <time>2021-02-20T12:29:25Z</time>
      </trkpt>
      <trkpt lat="43.65052" lon="3.82405">
        <ele>117</ele>
        <time>2021-02-20T12:29:26Z</time>
      </trkpt>
      <trkpt lat="43.65054" lon="3.82405">
        <ele>117</ele>
        <time>2021-02-20T12:29:27Z</time>
      </trkpt>
      <trkpt lat="43.65056" lon="3.82405">
        <ele>117</ele>
        <time>2021-02-20T12:29:28Z</time>
      </trkpt>
      <trkpt lat="43.65058" lon="3.82404">
        <ele>117</ele>
        <time>2021-02-20T12:29:29Z</time>
      </trkpt>
      <trkpt lat="43.6506" lon="3.82404">
        <ele>117</ele>
        <time>2021-02-20T12:29:30Z</time>
      </trkpt>
      <trkpt lat="43.65063" lon="3.82403">
        <ele>117</ele>
        <time>2021-02-20T12:29:32Z</time>
      </trkpt>
      <trkpt lat="43.65065" lon="3.82399">
        <ele>117</ele>
        <time>2021-02-20T12:29:34Z</time>
      </trkpt>
      <trkpt lat="43.65065" lon="3.82396">
        <ele>118</ele>
        <time>2021-02-20T12:29:35Z</time>
      </trkpt>
      <trkpt lat="43.65066" lon="3.82393">
        <ele>118</ele>
        <time>2021-02-20T12:29:36Z</time>
      </trkpt>
      <trkpt lat="43.65066" lon="3.8239">
        <ele>118</ele>
        <time>2021-02-20T12:29:37Z</time>
      </trkpt>
      <trkpt lat="43.65067" lon="3.82386">
        <ele>118</ele>
        <time>2021-02-20T12:29:38Z</time>
      </trkpt>
      <trkpt lat="43.65068" lon="3.82382">
        <ele>118</ele>
        <time>2021-02-20T12:29:39Z</time>
      </trkpt>
      <trkpt lat="43.65068" lon="3.82378">
        <ele>118</ele>
        <time>2021-02-20T12:29:40Z</time>
      </trkpt>
      <trkpt lat="43.65069" lon="3.82374">
        <ele>118</ele>
        <time>2021-02-20T12:29:41Z</time>
      </trkpt>
      <trkpt lat="43.65071" lon="3.8237">
        <ele>118</ele>
        <time>2021-02-20T12:29:42Z</time>
      </trkpt>
      <trkpt lat="43.65073" lon="3.82366">
        <ele>118</ele>
        <time>2021-02-20T12:29:43Z</time>
      </trkpt>
      <trkpt lat="43.65075" lon="3.82363">
        <ele>118</ele>
        <time>2021-02-20T12:29:44Z</time>
      </trkpt>
      <trkpt lat="43.65078" lon="3.8236">
        <ele>118</ele>
        <time>2021-02-20T12:29:45Z</time>
      </trkpt>
      <trkpt lat="43.6508" lon="3.82358">
        <ele>118</ele>
        <time>2021-02-20T12:29:46Z</time>
      </trkpt>
      <trkpt lat="43.65083" lon="3.82355">
        <ele>118</ele>
        <time>2021-02-20T12:29:47Z</time>
      </trkpt>
      <trkpt lat="43.65086" lon="3.82354">
        <ele>118</ele>
        <time>2021-02-20T12:29:48Z</time>
      </trkpt>
      <trkpt lat="43.65088" lon="3.82352">
        <ele>118</ele>
        <time>2021-02-20T12:29:49Z</time>
      </trkpt>
      <trkpt lat="43.65091" lon="3.82351">
        <ele>118</ele>
        <time>2021-02-20T12:29:50Z</time>
      </trkpt>
      <trkpt lat="43.65094" lon="3.82351">
        <ele>118</ele>
        <time>2021-02-20T12:29:51Z</time>
      </trkpt>
      <trkpt lat="43.65097" lon="3.82351">
        <ele>118</ele>
        <time>2021-02-20T12:29:52Z</time>
      </trkpt>
      <trkpt lat="43.651" lon="3.82352">
        <ele>118</ele>
        <time>2021-02-20T12:29:53Z</time>
      </trkpt>
      <trkpt lat="43.65102" lon="3.82353">
        <ele>118</ele>
        <time>2021-02-20T12:29:54Z</time>
      </trkpt>
      <trkpt lat="43.65105" lon="3.82353">
        <ele>119</ele>
        <time>2021-02-20T12:29:55Z</time>
      </trkpt>
      <trkpt lat="43.65107" lon="3.82354">
        <ele>119</ele>
        <time>2021-02-20T12:29:56Z</time>
      </trkpt>
      <trkpt lat="43.6511" lon="3.82355">
        <ele>119</ele>
        <time>2021-02-20T12:29:57Z</time>
      </trkpt>
      <trkpt lat="43.65112" lon="3.82357">
        <ele>119</ele>
        <time>2021-02-20T12:29:58Z</time>
      </trkpt>
      <trkpt lat="43.65114" lon="3.82358">
        <ele>119</ele>
        <time>2021-02-20T12:29:59Z</time>
      </trkpt>
      <trkpt lat="43.65117" lon="3.8236">
        <ele>119</ele>
        <time>2021-02-20T12:30:00Z</time>
      </trkpt>
      <trkpt lat="43.65119" lon="3.82361">
        <ele>119</ele>
        <time>2021-02-20T12:30:01Z</time>
      </trkpt>
      <trkpt lat="43.65121" lon="3.82363">
        <ele>119</ele>
        <time>2021-02-20T12:30:02Z</time>
      </trkpt>
      <trkpt lat="43.65124" lon="3.82365">
        <ele>119</ele>
        <time>2021-02-20T12:30:03Z</time>
      </trkpt>
      <trkpt lat="43.65126" lon="3.82366">
        <ele>119</ele>
        <time>2021-02-20T12:30:04Z</time>
      </trkpt>
      <trkpt lat="43.65128" lon="3.82369">
        <ele>120</ele>
        <time>2021-02-20T12:30:05Z</time>
      </trkpt>
      <trkpt lat="43.6513" lon="3.82371">
        <ele>120</ele>
        <time>2021-02-20T12:30:06Z</time>
      </trkpt>
      <trkpt lat="43.65133" lon="3.82373">
        <ele>120</ele>
        <time>2021-02-20T12:30:07Z</time>
      </trkpt>
      <trkpt lat="43.65134" lon="3.82376">
        <ele>120</ele>
        <time>2021-02-20T12:30:08Z</time>
      </trkpt>
      <trkpt lat="43.65136" lon="3.82379">
        <ele>120</ele>
        <time>2021-02-20T12:30:09Z</time>
      </trkpt>
      <trkpt lat="43.65137" lon="3.82383">
        <ele>120</ele>
        <time>2021-02-20T12:30:10Z</time>
      </trkpt>
      <trkpt lat="43.65139" lon="3.82386">
        <ele>120</ele>
        <time>2021-02-20T12:30:11Z</time>
      </trkpt>
      <trkpt lat="43.6514" lon="3.82389">
        <ele>120</ele>
        <time>2021-02-20T12:30:12Z</time>
      </trkpt>
      <trkpt lat="43.65141" lon="3.82393">
        <ele>120</ele>
        <time>2021-02-20T12:30:13Z</time>
      </trkpt>
      <trkpt lat="43.65143" lon="3.82397">
        <ele>120</ele>
        <time>2021-02-20T12:30:14Z</time>
      </trkpt>
      <trkpt lat="43.65144" lon="3.824">
        <ele>120</ele>
        <time>2021-02-20T12:30:15Z</time>
      </trkpt>
      <trkpt lat="43.65146" lon="3.82404">
        <ele>120</ele>
        <time>2021-02-20T12:30:16Z</time>
      </trkpt>
      <trkpt lat="43.65147" lon="3.82407">
        <ele>120</ele>
        <time>2021-02-20T12:30:17Z</time>
      </trkpt>
      <trkpt lat="43.65149" lon="3.82411">
        <ele>120</ele>
        <time>2021-02-20T12:30:18Z</time>
      </trkpt>
      <trkpt lat="43.65151" lon="3.82414">
        <ele>120</ele>
        <time>2021-02-20T12:30:19Z</time>
      </trkpt>
      <trkpt lat="43.65153" lon="3.82418">
        <ele>120</ele>
        <time>2021-02-20T12:30:20Z</time>
      </trkpt>
      <trkpt lat="43.65155" lon="3.82423">
        <ele>120</ele>
        <time>2021-02-20T12:30:21Z</time>
      </trkpt>
      <trkpt lat="43.65156" lon="3.82427">
        <ele>120</ele>
        <time>2021-02-20T12:30:22Z</time>
      </trkpt>
      <trkpt lat="43.65157" lon="3.82432">
        <ele>120</ele>
        <time>2021-02-20T12:30:23Z</time>
      </trkpt>
      <trkpt lat="43.65159" lon="3.82438">
        <ele>120</ele>
        <time>2021-02-20T12:30:24Z</time>
      </trkpt>
      <trkpt lat="43.65159" lon="3.82444">
        <ele>120</ele>
        <time>2021-02-20T12:30:25Z</time>
      </trkpt>
      <trkpt lat="43.6516" lon="3.82449">
        <ele>120</ele>
        <time>2021-02-20T12:30:26Z</time>
      </trkpt>
      <trkpt lat="43.6516" lon="3.82454">
        <ele>120</ele>
        <time>2021-02-20T12:30:27Z</time>
      </trkpt>
      <trkpt lat="43.65159" lon="3.82459">
        <ele>120</ele>
        <time>2021-02-20T12:30:28Z</time>
      </trkpt>
      <trkpt lat="43.65159" lon="3.82463">
        <ele>120</ele>
        <time>2021-02-20T12:30:29Z</time>
      </trkpt>
      <trkpt lat="43.65158" lon="3.82467">
        <ele>120</ele>
        <time>2021-02-20T12:30:30Z</time>
      </trkpt>
      <trkpt lat="43.65158" lon="3.82471">
        <ele>120</ele>
        <time>2021-02-20T12:30:31Z</time>
      </trkpt>
      <trkpt lat="43.65157" lon="3.82474">
        <ele>120</ele>
        <time>2021-02-20T12:30:32Z</time>
      </trkpt>
      <trkpt lat="43.65156" lon="3.82477">
        <ele>120</ele>
        <time>2021-02-20T12:30:33Z</time>
      </trkpt>
      <trkpt lat="43.65154" lon="3.8248">
        <ele>120</ele>
        <time>2021-02-20T12:30:35Z</time>
      </trkpt>
      <trkpt lat="43.65152" lon="3.82482">
        <ele>120</ele>
        <time>2021-02-20T12:30:37Z</time>
      </trkpt>
      <trkpt lat="43.65154" lon="3.82485">
        <ele>120</ele>
        <time>2021-02-20T12:30:41Z</time>
      </trkpt>
      <trkpt lat="43.65155" lon="3.82488">
        <ele>120</ele>
        <time>2021-02-20T12:30:42Z</time>
      </trkpt>
      <trkpt lat="43.65156" lon="3.82491">
        <ele>120</ele>
        <time>2021-02-20T12:30:43Z</time>
      </trkpt>
      <trkpt lat="43.65158" lon="3.82495">
        <ele>120</ele>
        <time>2021-02-20T12:30:44Z</time>
      </trkpt>
      <trkpt lat="43.65159" lon="3.825">
        <ele>120</ele>
        <time>2021-02-20T12:30:45Z</time>
      </trkpt>
      <trkpt lat="43.6516" lon="3.82505">
        <ele>120</ele>
        <time>2021-02-20T12:30:46Z</time>
      </trkpt>
      <trkpt lat="43.65161" lon="3.8251">
        <ele>120</ele>
        <time>2021-02-20T12:30:47Z</time>
      </trkpt>
      <trkpt lat="43.65162" lon="3.82513">
        <ele>120</ele>
        <time>2021-02-20T12:30:48Z</time>
      </trkpt>
      <trkpt lat="43.65163" lon="3.82515">
        <ele>120</ele>
        <time>2021-02-20T12:30:49Z</time>
      </trkpt>
      <trkpt lat="43.65166" lon="3.82515">
        <ele>120</ele>
        <time>2021-02-20T12:30:50Z</time>
      </trkpt>
      <trkpt lat="43.65169" lon="3.82514">
        <ele>120</ele>
        <time>2021-02-20T12:30:51Z</time>
      </trkpt>
      <trkpt lat="43.65172" lon="3.82513">
        <ele>120</ele>
        <time>2021-02-20T12:30:52Z</time>
      </trkpt>
      <trkpt lat="43.65176" lon="3.82512">
        <ele>120</ele>
        <time>2021-02-20T12:30:53Z</time>
      </trkpt>
      <trkpt lat="43.65179" lon="3.82512">
        <ele>120</ele>
        <time>2021-02-20T12:30:54Z</time>
      </trkpt>
      <trkpt lat="43.65183" lon="3.82513">
        <ele>117</ele>
        <time>2021-02-20T12:30:55Z</time>
      </trkpt>
      <trkpt lat="43.65188" lon="3.82514">
        <ele>117</ele>
        <time>2021-02-20T12:30:56Z</time>
      </trkpt>
      <trkpt lat="43.65192" lon="3.82516">
        <ele>117</ele>
        <time>2021-02-20T12:30:57Z</time>
      </trkpt>
      <trkpt lat="43.65197" lon="3.82517">
        <ele>117</ele>
        <time>2021-02-20T12:30:58Z</time>
      </trkpt>
      <trkpt lat="43.65201" lon="3.82518">
        <ele>117</ele>
        <time>2021-02-20T12:30:59Z</time>
      </trkpt>
      <trkpt lat="43.65205" lon="3.82519">
        <ele>117</ele>
        <time>2021-02-20T12:31:00Z</time>
      </trkpt>
      <trkpt lat="43.6521" lon="3.8252">
        <ele>117</ele>
        <time>2021-02-20T12:31:01Z</time>
      </trkpt>
      <trkpt lat="43.65215" lon="3.82521">
        <ele>117</ele>
        <time>2021-02-20T12:31:02Z</time>
      </trkpt>
      <trkpt lat="43.6522" lon="3.82522">
        <ele>117</ele>
        <time>2021-02-20T12:31:03Z</time>
      </trkpt>
      <trkpt lat="43.65224" lon="3.82523">
        <ele>117</ele>
        <time>2021-02-20T12:31:04Z</time>
      </trkpt>
      <trkpt lat="43.65228" lon="3.82525">
        <ele>114</ele>
        <time>2021-02-20T12:31:05Z</time>
      </trkpt>
      <trkpt lat="43.65232" lon="3.82527">
        <ele>114</ele>
        <time>2021-02-20T12:31:06Z</time>
      </trkpt>
      <trkpt lat="43.65237" lon="3.82529">
        <ele>114</ele>
        <time>2021-02-20T12:31:07Z</time>
      </trkpt>
      <trkpt lat="43.65241" lon="3.82531">
        <ele>114</ele>
        <time>2021-02-20T12:31:08Z</time>
      </trkpt>
      <trkpt lat="43.65246" lon="3.82533">
        <ele>114</ele>
        <time>2021-02-20T12:31:09Z</time>
      </trkpt>
      <trkpt lat="43.65251" lon="3.82535">
        <ele>114</ele>
        <time>2021-02-20T12:31:10Z</time>
      </trkpt>
      <trkpt lat="43.65256" lon="3.82538">
        <ele>114</ele>
        <time>2021-02-20T12:31:11Z</time>
      </trkpt>
      <trkpt lat="43.65261" lon="3.82539">
        <ele>114</ele>
        <time>2021-02-20T12:31:12Z</time>
      </trkpt>
      <trkpt lat="43.65266" lon="3.82539">
        <ele>114</ele>
        <time>2021-02-20T12:31:13Z</time>
      </trkpt>
      <trkpt lat="43.65271" lon="3.8254">
        <ele>114</ele>
        <time>2021-02-20T12:31:14Z</time>
      </trkpt>
      <trkpt lat="43.65275" lon="3.82541">
        <ele>112</ele>
        <time>2021-02-20T12:31:15Z</time>
      </trkpt>
      <trkpt lat="43.6528" lon="3.82543">
        <ele>112</ele>
        <time>2021-02-20T12:31:16Z</time>
      </trkpt>
      <trkpt lat="43.65284" lon="3.82546">
        <ele>112</ele>
        <time>2021-02-20T12:31:17Z</time>
      </trkpt>
      <trkpt lat="43.65288" lon="3.82549">
        <ele>112</ele>
        <time>2021-02-20T12:31:18Z</time>
      </trkpt>
      <trkpt lat="43.65292" lon="3.82551">
        <ele>112</ele>
        <time>2021-02-20T12:31:19Z</time>
      </trkpt>
      <trkpt lat="43.65296" lon="3.82553">
        <ele>112</ele>
        <time>2021-02-20T12:31:20Z</time>
      </trkpt>
      <trkpt lat="43.653" lon="3.82555">
        <ele>112</ele>
        <time>2021-02-20T12:31:21Z</time>
      </trkpt>
      <trkpt lat="43.65304" lon="3.82557">
        <ele>112</ele>
        <time>2021-02-20T12:31:22Z</time>
      </trkpt>
      <trkpt lat="43.65308" lon="3.82559">
        <ele>112</ele>
        <time>2021-02-20T12:31:23Z</time>
      </trkpt>
      <trkpt lat="43.65312" lon="3.82562">
        <ele>112</ele>
        <time>2021-02-20T12:31:24Z</time>
      </trkpt>
      <trkpt lat="43.65316" lon="3.82564">
        <ele>110</ele>
        <time>2021-02-20T12:31:25Z</time>
      </trkpt>
      <trkpt lat="43.6532" lon="3.82566">
        <ele>110</ele>
        <time>2021-02-20T12:31:26Z</time>
      </trkpt>
      <trkpt lat="43.65325" lon="3.82568">
        <ele>110</ele>
        <time>2021-02-20T12:31:27Z</time>
      </trkpt>
      <trkpt lat="43.6533" lon="3.8257">
        <ele>110</ele>
        <time>2021-02-20T12:31:28Z</time>
      </trkpt>
      <trkpt lat="43.65334" lon="3.82573">
        <ele>110</ele>
        <time>2021-02-20T12:31:29Z</time>
      </trkpt>
      <trkpt lat="43.65339" lon="3.82576">
        <ele>110</ele>
        <time>2021-02-20T12:31:30Z</time>
      </trkpt>
      <trkpt lat="43.65344" lon="3.8258">
        <ele>110</ele>
        <time>2021-02-20T12:31:31Z</time>
      </trkpt>
      <trkpt lat="43.6535" lon="3.82583">
        <ele>110</ele>
        <time>2021-02-20T12:31:32Z</time>
      </trkpt>
      <trkpt lat="43.65356" lon="3.82587">
        <ele>110</ele>
        <time>2021-02-20T12:31:33Z</time>
      </trkpt>
      <trkpt lat="43.65362" lon="3.8259">
        <ele>110</ele>
        <time>2021-02-20T12:31:34Z</time>
      </trkpt>
      <trkpt lat="43.65368" lon="3.82594">
        <ele>108</ele>
        <time>2021-02-20T12:31:35Z</time>
      </trkpt>
      <trkpt lat="43.65374" lon="3.82597">
        <ele>108</ele>
        <time>2021-02-20T12:31:36Z</time>
      </trkpt>
      <trkpt lat="43.65379" lon="3.826">
        <ele>108</ele>
        <time>2021-02-20T12:31:37Z</time>
      </trkpt>
      <trkpt lat="43.65384" lon="3.82603">
        <ele>108</ele>
        <time>2021-02-20T12:31:38Z</time>
      </trkpt>
      <trkpt lat="43.65389" lon="3.82605">
        <ele>108</ele>
        <time>2021-02-20T12:31:39Z</time>
      </trkpt>
      <trkpt lat="43.65394" lon="3.82606">
        <ele>108</ele>
        <time>2021-02-20T12:31:40Z</time>
      </trkpt>
      <trkpt lat="43.65399" lon="3.82607">
        <ele>108</ele>
        <time>2021-02-20T12:31:41Z</time>
      </trkpt>
      <trkpt lat="43.65404" lon="3.82609">
        <ele>108</ele>
        <time>2021-02-20T12:31:42Z</time>
      </trkpt>
      <trkpt lat="43.65409" lon="3.8261">
        <ele>108</ele>
        <time>2021-02-20T12:31:43Z</time>
      </trkpt>
      <trkpt lat="43.65414" lon="3.82612">
        <ele>108</ele>
        <time>2021-02-20T12:31:44Z</time>
      </trkpt>
      <trkpt lat="43.65418" lon="3.82613">
        <ele>107</ele>
        <time>2021-02-20T12:31:45Z</time>
      </trkpt>
      <trkpt lat="43.65422" lon="3.82615">
        <ele>107</ele>
        <time>2021-02-20T12:31:46Z</time>
      </trkpt>
      <trkpt lat="43.65427" lon="3.82618">
        <ele>107</ele>
        <time>2021-02-20T12:31:47Z</time>
      </trkpt>
      <trkpt lat="43.6543" lon="3.82621">
        <ele>107</ele>
        <time>2021-02-20T12:31:48Z</time>
      </trkpt>
      <trkpt lat="43.65434" lon="3.82624">
        <ele>107</ele>
        <time>2021-02-20T12:31:49Z</time>
      </trkpt>
      <trkpt lat="43.65437" lon="3.82627">
        <ele>107</ele>
        <time>2021-02-20T12:31:50Z</time>
      </trkpt>
      <trkpt lat="43.6544" lon="3.8263">
        <ele>107</ele>
        <time>2021-02-20T12:31:51Z</time>
      </trkpt>
      <trkpt lat="43.65443" lon="3.82632">
        <ele>107</ele>
        <time>2021-02-20T12:31:52Z</time>
      </trkpt>
      <trkpt lat="43.65446" lon="3.82635">
        <ele>107</ele>
        <time>2021-02-20T12:31:53Z</time>
      </trkpt>
      <trkpt lat="43.65448" lon="3.82638">
        <ele>107</ele>
        <time>2021-02-20T12:31:54Z</time>
      </trkpt>
      <trkpt lat="43.65451" lon="3.82641">
        <ele>107</ele>
        <time>2021-02-20T12:31:55Z</time>
      </trkpt>
      <trkpt lat="43.65454" lon="3.82644">
        <ele>107</ele>
        <time>2021-02-20T12:31:56Z</time>
      </trkpt>
      <trkpt lat="43.65457" lon="3.82647">
        <ele>107</ele>
        <time>2021-02-20T12:31:57Z</time>
      </trkpt>
      <trkpt lat="43.65459" lon="3.82651">
        <ele>107</ele>
        <time>2021-02-20T12:31:58Z</time>
      </trkpt>
      <trkpt lat="43.65461" lon="3.82655">
        <ele>107</ele>
        <time>2021-02-20T12:31:59Z</time>
      </trkpt>
      <trkpt lat="43.65463" lon="3.82658">
        <ele>107</ele>
        <time>2021-02-20T12:32:00Z</time>
      </trkpt>
      <trkpt lat="43.65465" lon="3.82661">
        <ele>107</ele>
        <time>2021-02-20T12:32:01Z</time>
      </trkpt>
      <trkpt lat="43.65467" lon="3.82663">
        <ele>107</ele>
        <time>2021-02-20T12:32:02Z</time>
      </trkpt>
      <trkpt lat="43.6547" lon="3.82664">
        <ele>107</ele>
        <time>2021-02-20T12:32:03Z</time>
      </trkpt>
      <trkpt lat="43.65472" lon="3.82665">
        <ele>107</ele>
        <time>2021-02-20T12:32:04Z</time>
      </trkpt>
      <trkpt lat="43.65474" lon="3.82666">
        <ele>108</ele>
        <time>2021-02-20T12:32:05Z</time>
      </trkpt>
      <trkpt lat="43.65477" lon="3.82667">
        <ele>108</ele>
        <time>2021-02-20T12:32:06Z</time>
      </trkpt>
      <trkpt lat="43.6548" lon="3.82669">
        <ele>108</ele>
        <time>2021-02-20T12:32:07Z</time>
      </trkpt>
      <trkpt lat="43.65482" lon="3.82671">
        <ele>108</ele>
        <time>2021-02-20T12:32:08Z</time>
      </trkpt>
      <trkpt lat="43.65485" lon="3.82674">
        <ele>108</ele>
        <time>2021-02-20T12:32:09Z</time>
      </trkpt>
      <trkpt lat="43.65487" lon="3.82677">
        <ele>108</ele>
        <time>2021-02-20T12:32:10Z</time>
      </trkpt>
      <trkpt lat="43.6549" lon="3.8268">
        <ele>108</ele>
        <time>2021-02-20T12:32:11Z</time>
      </trkpt>
      <trkpt lat="43.65492" lon="3.82683">
        <ele>108</ele>
        <time>2021-02-20T12:32:12Z</time>
      </trkpt>
      <trkpt lat="43.65495" lon="3.82685">
        <ele>108</ele>
        <time>2021-02-20T12:32:13Z</time>
      </trkpt>
      <trkpt lat="43.65498" lon="3.82687">
        <ele>108</ele>
        <time>2021-02-20T12:32:14Z</time>
      </trkpt>
      <trkpt lat="43.65501" lon="3.8269">
        <ele>109</ele>
        <time>2021-02-20T12:32:15Z</time>
      </trkpt>
      <trkpt lat="43.65503" lon="3.82693">
        <ele>109</ele>
        <time>2021-02-20T12:32:16Z</time>
      </trkpt>
      <trkpt lat="43.65504" lon="3.82697">
        <ele>109</ele>
        <time>2021-02-20T12:32:17Z</time>
      </trkpt>
      <trkpt lat="43.65506" lon="3.82699">
        <ele>109</ele>
        <time>2021-02-20T12:32:18Z</time>
      </trkpt>
      <trkpt lat="43.65507" lon="3.82702">
        <ele>109</ele>
        <time>2021-02-20T12:32:19Z</time>
      </trkpt>
      <trkpt lat="43.65508" lon="3.82706">
        <ele>109</ele>
        <time>2021-02-20T12:32:20Z</time>
      </trkpt>
      <trkpt lat="43.65509" lon="3.8271">
        <ele>109</ele>
        <time>2021-02-20T12:32:21Z</time>
      </trkpt>
      <trkpt lat="43.65509" lon="3.82714">
        <ele>109</ele>
        <time>2021-02-20T12:32:22Z</time>
      </trkpt>
      <trkpt lat="43.65509" lon="3.82718">
        <ele>109</ele>
        <time>2021-02-20T12:32:23Z</time>
      </trkpt>
      <trkpt lat="43.6551" lon="3.82721">
        <ele>109</ele>
        <time>2021-02-20T12:32:24Z</time>
      </trkpt>
      <trkpt lat="43.65511" lon="3.82724">
        <ele>110</ele>
        <time>2021-02-20T12:32:25Z</time>
      </trkpt>
      <trkpt lat="43.65512" lon="3.82727">
        <ele>110</ele>
        <time>2021-02-20T12:32:26Z</time>
      </trkpt>
      <trkpt lat="43.65516" lon="3.82734">
        <ele>110</ele>
        <time>2021-02-20T12:32:29Z</time>
      </trkpt>
      <trkpt lat="43.65517" lon="3.82737">
        <ele>110</ele>
        <time>2021-02-20T12:32:31Z</time>
      </trkpt>
      <trkpt lat="43.6552" lon="3.8274">
        <ele>110</ele>
        <time>2021-02-20T12:32:33Z</time>
      </trkpt>
      <trkpt lat="43.65522" lon="3.82741">
        <ele>110</ele>
        <time>2021-02-20T12:32:34Z</time>
      </trkpt>
      <trkpt lat="43.65523" lon="3.82743">
        <ele>112</ele>
        <time>2021-02-20T12:32:35Z</time>
      </trkpt>
      <trkpt lat="43.65524" lon="3.82745">
        <ele>112</ele>
        <time>2021-02-20T12:32:36Z</time>
      </trkpt>
      <trkpt lat="43.65525" lon="3.82747">
        <ele>112</ele>
        <time>2021-02-20T12:32:37Z</time>
      </trkpt>
      <trkpt lat="43.65526" lon="3.82749">
        <ele>112</ele>
        <time>2021-02-20T12:32:38Z</time>
      </trkpt>
      <trkpt lat="43.65527" lon="3.82752">
        <ele>112</ele>
        <time>2021-02-20T12:32:39Z</time>
      </trkpt>
      <trkpt lat="43.65527" lon="3.82756">
        <ele>112</ele>
        <time>2021-02-20T12:32:40Z</time>
      </trkpt>
      <trkpt lat="43.65527" lon="3.82759">
        <ele>112</ele>
        <time>2021-02-20T12:32:41Z</time>
      </trkpt>
      <trkpt lat="43.65528" lon="3.82762">
        <ele>112</ele>
        <time>2021-02-20T12:32:42Z</time>
      </trkpt>
      <trkpt lat="43.65529" lon="3.82765">
        <ele>112</ele>
        <time>2021-02-20T12:32:43Z</time>
      </trkpt>
      <trkpt lat="43.6553" lon="3.82766">
        <ele>112</ele>
        <time>2021-02-20T12:32:44Z</time>
      </trkpt>
      <trkpt lat="43.65532" lon="3.82769">
        <ele>114</ele>
        <time>2021-02-20T12:32:45Z</time>
      </trkpt>
      <trkpt lat="43.65532" lon="3.82771">
        <ele>114</ele>
        <time>2021-02-20T12:32:46Z</time>
      </trkpt>
      <trkpt lat="43.65533" lon="3.82774">
        <ele>114</ele>
        <time>2021-02-20T12:32:47Z</time>
      </trkpt>
      <trkpt lat="43.65534" lon="3.82776">
        <ele>114</ele>
        <time>2021-02-20T12:32:48Z</time>
      </trkpt>
      <trkpt lat="43.65536" lon="3.82779">
        <ele>114</ele>
        <time>2021-02-20T12:32:49Z</time>
      </trkpt>
      <trkpt lat="43.65537" lon="3.82781">
        <ele>114</ele>
        <time>2021-02-20T12:32:50Z</time>
      </trkpt>
      <trkpt lat="43.65538" lon="3.82783">
        <ele>114</ele>
        <time>2021-02-20T12:32:51Z</time>
      </trkpt>
      <trkpt lat="43.6554" lon="3.82785">
        <ele>114</ele>
        <time>2021-02-20T12:32:52Z</time>
      </trkpt>
      <trkpt lat="43.65542" lon="3.82787">
        <ele>114</ele>
        <time>2021-02-20T12:32:53Z</time>
      </trkpt>
      <trkpt lat="43.65544" lon="3.82789">
        <ele>114</ele>
        <time>2021-02-20T12:32:54Z</time>
      </trkpt>
      <trkpt lat="43.65546" lon="3.82791">
        <ele>115</ele>
        <time>2021-02-20T12:32:55Z</time>
      </trkpt>
      <trkpt lat="43.65549" lon="3.82793">
        <ele>115</ele>
        <time>2021-02-20T12:32:56Z</time>
      </trkpt>
      <trkpt lat="43.65551" lon="3.82795">
        <ele>115</ele>
        <time>2021-02-20T12:32:57Z</time>
      </trkpt>
      <trkpt lat="43.65554" lon="3.82797">
        <ele>115</ele>
        <time>2021-02-20T12:32:58Z</time>
      </trkpt>
      <trkpt lat="43.65557" lon="3.82799">
        <ele>115</ele>
        <time>2021-02-20T12:32:59Z</time>
      </trkpt>
      <trkpt lat="43.65559" lon="3.82801">
        <ele>115</ele>
        <time>2021-02-20T12:33:00Z</time>
      </trkpt>
      <trkpt lat="43.65562" lon="3.82804">
        <ele>115</ele>
        <time>2021-02-20T12:33:01Z</time>
      </trkpt>
      <trkpt lat="43.65564" lon="3.82806">
        <ele>115</ele>
        <time>2021-02-20T12:33:02Z</time>
      </trkpt>
      <trkpt lat="43.65567" lon="3.82806">
        <ele>115</ele>
        <time>2021-02-20T12:33:03Z</time>
      </trkpt>
      <trkpt lat="43.6557" lon="3.82806">
        <ele>115</ele>
        <time>2021-02-20T12:33:04Z</time>
      </trkpt>
      <trkpt lat="43.65573" lon="3.82806">
        <ele>116</ele>
        <time>2021-02-20T12:33:05Z</time>
      </trkpt>
      <trkpt lat="43.65576" lon="3.82807">
        <ele>116</ele>
        <time>2021-02-20T12:33:06Z</time>
      </trkpt>
      <trkpt lat="43.65578" lon="3.82808">
        <ele>116</ele>
        <time>2021-02-20T12:33:07Z</time>
      </trkpt>
      <trkpt lat="43.65581" lon="3.82808">
        <ele>116</ele>
        <time>2021-02-20T12:33:08Z</time>
      </trkpt>
      <trkpt lat="43.65584" lon="3.82807">
        <ele>116</ele>
        <time>2021-02-20T12:33:10Z</time>
      </trkpt>
      <trkpt lat="43.65586" lon="3.82806">
        <ele>116</ele>
        <time>2021-02-20T12:33:11Z</time>
      </trkpt>
      <trkpt lat="43.65588" lon="3.82807">
        <ele>116</ele>
        <time>2021-02-20T12:33:12Z</time>
      </trkpt>
      <trkpt lat="43.6559" lon="3.82809">
        <ele>116</ele>
        <time>2021-02-20T12:33:13Z</time>
      </trkpt>
      <trkpt lat="43.65591" lon="3.82812">
        <ele>116</ele>
        <time>2021-02-20T12:33:14Z</time>
      </trkpt>
      <trkpt lat="43.65593" lon="3.82814">
        <ele>115</ele>
        <time>2021-02-20T12:33:15Z</time>
      </trkpt>
      <trkpt lat="43.65595" lon="3.82817">
        <ele>115</ele>
        <time>2021-02-20T12:33:16Z</time>
      </trkpt>
      <trkpt lat="43.65597" lon="3.8282">
        <ele>115</ele>
        <time>2021-02-20T12:33:17Z</time>
      </trkpt>
      <trkpt lat="43.65598" lon="3.82823">
        <ele>115</ele>
        <time>2021-02-20T12:33:18Z</time>
      </trkpt>
      <trkpt lat="43.65599" lon="3.82827">
        <ele>115</ele>
        <time>2021-02-20T12:33:20Z</time>
      </trkpt>
      <trkpt lat="43.65598" lon="3.8283">
        <ele>115</ele>
        <time>2021-02-20T12:33:21Z</time>
      </trkpt>
      <trkpt lat="43.65596" lon="3.82833">
        <ele>115</ele>
        <time>2021-02-20T12:33:22Z</time>
      </trkpt>
      <trkpt lat="43.65596" lon="3.82836">
        <ele>115</ele>
        <time>2021-02-20T12:33:24Z</time>
      </trkpt>
      <trkpt lat="43.65598" lon="3.82841">
        <ele>115</ele>
        <time>2021-02-20T12:33:26Z</time>
      </trkpt>
      <trkpt lat="43.65598" lon="3.82843">
        <ele>115</ele>
        <time>2021-02-20T12:33:27Z</time>
      </trkpt>
      <trkpt lat="43.65598" lon="3.82846">
        <ele>115</ele>
        <time>2021-02-20T12:33:28Z</time>
      </trkpt>
      <trkpt lat="43.65597" lon="3.82849">
        <ele>115</ele>
        <time>2021-02-20T12:33:29Z</time>
      </trkpt>
      <trkpt lat="43.656" lon="3.82852">
        <ele>115</ele>
        <time>2021-02-20T12:33:33Z</time>
      </trkpt>
      <trkpt lat="43.65602" lon="3.82855">
        <ele>115</ele>
        <time>2021-02-20T12:33:34Z</time>
      </trkpt>
      <trkpt lat="43.65604" lon="3.82857">
        <ele>113</ele>
        <time>2021-02-20T12:33:35Z</time>
      </trkpt>
      <trkpt lat="43.65607" lon="3.8286">
        <ele>113</ele>
        <time>2021-02-20T12:33:36Z</time>
      </trkpt>
      <trkpt lat="43.65609" lon="3.82863">
        <ele>113</ele>
        <time>2021-02-20T12:33:37Z</time>
      </trkpt>
      <trkpt lat="43.65611" lon="3.82866">
        <ele>113</ele>
        <time>2021-02-20T12:33:38Z</time>
      </trkpt>
      <trkpt lat="43.65612" lon="3.8287">
        <ele>113</ele>
        <time>2021-02-20T12:33:39Z</time>
      </trkpt>
      <trkpt lat="43.65614" lon="3.82873">
        <ele>113</ele>
        <time>2021-02-20T12:33:40Z</time>
      </trkpt>
      <trkpt lat="43.65615" lon="3.82876">
        <ele>113</ele>
        <time>2021-02-20T12:33:41Z</time>
      </trkpt>
      <trkpt lat="43.65618" lon="3.82878">
        <ele>113</ele>
        <time>2021-02-20T12:33:42Z</time>
      </trkpt>
      <trkpt lat="43.6562" lon="3.82881">
        <ele>113</ele>
        <time>2021-02-20T12:33:43Z</time>
      </trkpt>
      <trkpt lat="43.65622" lon="3.82883">
        <ele>113</ele>
        <time>2021-02-20T12:33:44Z</time>
      </trkpt>
      <trkpt lat="43.65624" lon="3.82884">
        <ele>113</ele>
        <time>2021-02-20T12:33:45Z</time>
      </trkpt>
      <trkpt lat="43.65626" lon="3.82885">
        <ele>113</ele>
        <time>2021-02-20T12:33:46Z</time>
      </trkpt>
      <trkpt lat="43.65629" lon="3.82886">
        <ele>113</ele>
        <time>2021-02-20T12:33:47Z</time>
      </trkpt>
      <trkpt lat="43.65631" lon="3.82887">
        <ele>113</ele>
        <time>2021-02-20T12:33:48Z</time>
      </trkpt>
      <trkpt lat="43.65633" lon="3.82889">
        <ele>113</ele>
        <time>2021-02-20T12:33:49Z</time>
      </trkpt>
      <trkpt lat="43.65635" lon="3.82891">
        <ele>113</ele>
        <time>2021-02-20T12:33:50Z</time>
      </trkpt>
      <trkpt lat="43.65639" lon="3.82892">
        <ele>113</ele>
        <time>2021-02-20T12:33:51Z</time>
      </trkpt>
      <trkpt lat="43.65642" lon="3.82893">
        <ele>113</ele>
        <time>2021-02-20T12:33:52Z</time>
      </trkpt>
      <trkpt lat="43.65646" lon="3.82894">
        <ele>113</ele>
        <time>2021-02-20T12:33:53Z</time>
      </trkpt>
      <trkpt lat="43.6565" lon="3.82896">
        <ele>113</ele>
        <time>2021-02-20T12:33:54Z</time>
      </trkpt>
      <trkpt lat="43.65653" lon="3.82898">
        <ele>114</ele>
        <time>2021-02-20T12:33:55Z</time>
      </trkpt>
      <trkpt lat="43.65656" lon="3.829">
        <ele>114</ele>
        <time>2021-02-20T12:33:56Z</time>
      </trkpt>
      <trkpt lat="43.65659" lon="3.82902">
        <ele>114</ele>
        <time>2021-02-20T12:33:57Z</time>
      </trkpt>
      <trkpt lat="43.65663" lon="3.82903">
        <ele>114</ele>
        <time>2021-02-20T12:33:58Z</time>
      </trkpt>
      <trkpt lat="43.65667" lon="3.82904">
        <ele>114</ele>
        <time>2021-02-20T12:33:59Z</time>
      </trkpt>
      <trkpt lat="43.6567" lon="3.82906">
        <ele>114</ele>
        <time>2021-02-20T12:34:00Z</time>
      </trkpt>
      <trkpt lat="43.65673" lon="3.82908">
        <ele>114</ele>
        <time>2021-02-20T12:34:01Z</time>
      </trkpt>
      <trkpt lat="43.65675" lon="3.8291">
        <ele>114</ele>
        <time>2021-02-20T12:34:02Z</time>
      </trkpt>
      <trkpt lat="43.65678" lon="3.82912">
        <ele>114</ele>
        <time>2021-02-20T12:34:04Z</time>
      </trkpt>
      <trkpt lat="43.6568" lon="3.82912">
        <ele>114</ele>
        <time>2021-02-20T12:34:05Z</time>
      </trkpt>
      <trkpt lat="43.65683" lon="3.82913">
        <ele>114</ele>
        <time>2021-02-20T12:34:06Z</time>
      </trkpt>
      <trkpt lat="43.65685" lon="3.82913">
        <ele>114</ele>
        <time>2021-02-20T12:34:07Z</time>
      </trkpt>
      <trkpt lat="43.65686" lon="3.82913">
        <ele>114</ele>
        <time>2021-02-20T12:34:08Z</time>
      </trkpt>
      <trkpt lat="43.65689" lon="3.82915">
        <ele>114</ele>
        <time>2021-02-20T12:34:09Z</time>
      </trkpt>
      <trkpt lat="43.65691" lon="3.82916">
        <ele>114</ele>
        <time>2021-02-20T12:34:10Z</time>
      </trkpt>
      <trkpt lat="43.65694" lon="3.82916">
        <ele>114</ele>
        <time>2021-02-20T12:34:11Z</time>
      </trkpt>
      <trkpt lat="43.65697" lon="3.82918">
        <ele>114</ele>
        <time>2021-02-20T12:34:12Z</time>
      </trkpt>
      <trkpt lat="43.65699" lon="3.82919">
        <ele>114</ele>
        <time>2021-02-20T12:34:13Z</time>
      </trkpt>
      <trkpt lat="43.65701" lon="3.8292">
        <ele>114</ele>
        <time>2021-02-20T12:34:14Z</time>
      </trkpt>
      <trkpt lat="43.65704" lon="3.82921">
        <ele>114</ele>
        <time>2021-02-20T12:34:16Z</time>
      </trkpt>
      <trkpt lat="43.65706" lon="3.82922">
        <ele>114</ele>
        <time>2021-02-20T12:34:17Z</time>
      </trkpt>
      <trkpt lat="43.65708" lon="3.82923">
        <ele>114</ele>
        <time>2021-02-20T12:34:18Z</time>
      </trkpt>
      <trkpt lat="43.65711" lon="3.82924">
        <ele>114</ele>
        <time>2021-02-20T12:34:19Z</time>
      </trkpt>
      <trkpt lat="43.65714" lon="3.82924">
        <ele>114</ele>
        <time>2021-02-20T12:34:20Z</time>
      </trkpt>
      <trkpt lat="43.65717" lon="3.82924">
        <ele>114</ele>
        <time>2021-02-20T12:34:21Z</time>
      </trkpt>
      <trkpt lat="43.6572" lon="3.82922">
        <ele>114</ele>
        <time>2021-02-20T12:34:22Z</time>
      </trkpt>
      <trkpt lat="43.65723" lon="3.8292">
        <ele>114</ele>
        <time>2021-02-20T12:34:23Z</time>
      </trkpt>
      <trkpt lat="43.65726" lon="3.82918">
        <ele>114</ele>
        <time>2021-02-20T12:34:24Z</time>
      </trkpt>
      <trkpt lat="43.65728" lon="3.82917">
        <ele>108</ele>
        <time>2021-02-20T12:34:25Z</time>
      </trkpt>
      <trkpt lat="43.6573" lon="3.82918">
        <ele>108</ele>
        <time>2021-02-20T12:34:26Z</time>
      </trkpt>
      <trkpt lat="43.65732" lon="3.82919">
        <ele>108</ele>
        <time>2021-02-20T12:34:27Z</time>
      </trkpt>
      <trkpt lat="43.65735" lon="3.82921">
        <ele>108</ele>
        <time>2021-02-20T12:34:28Z</time>
      </trkpt>
      <trkpt lat="43.65738" lon="3.82923">
        <ele>108</ele>
        <time>2021-02-20T12:34:29Z</time>
      </trkpt>
      <trkpt lat="43.6574" lon="3.82925">
        <ele>108</ele>
        <time>2021-02-20T12:34:30Z</time>
      </trkpt>
      <trkpt lat="43.65743" lon="3.82928">
        <ele>108</ele>
        <time>2021-02-20T12:34:31Z</time>
      </trkpt>
      <trkpt lat="43.65746" lon="3.82931">
        <ele>108</ele>
        <time>2021-02-20T12:34:32Z</time>
      </trkpt>
      <trkpt lat="43.65749" lon="3.82935">
        <ele>108</ele>
        <time>2021-02-20T12:34:33Z</time>
      </trkpt>
      <trkpt lat="43.65751" lon="3.82939">
        <ele>108</ele>
        <time>2021-02-20T12:34:34Z</time>
      </trkpt>
      <trkpt lat="43.65754" lon="3.82944">
        <ele>103</ele>
        <time>2021-02-20T12:34:35Z</time>
      </trkpt>
      <trkpt lat="43.65755" lon="3.82949">
        <ele>103</ele>
        <time>2021-02-20T12:34:36Z</time>
      </trkpt>
      <trkpt lat="43.65757" lon="3.82953">
        <ele>103</ele>
        <time>2021-02-20T12:34:37Z</time>
      </trkpt>
      <trkpt lat="43.65758" lon="3.82957">
        <ele>103</ele>
        <time>2021-02-20T12:34:38Z</time>
      </trkpt>
      <trkpt lat="43.65759" lon="3.8296">
        <ele>103</ele>
        <time>2021-02-20T12:34:39Z</time>
      </trkpt>
      <trkpt lat="43.6576" lon="3.82963">
        <ele>103</ele>
        <time>2021-02-20T12:34:40Z</time>
      </trkpt>
      <trkpt lat="43.65761" lon="3.82967">
        <ele>103</ele>
        <time>2021-02-20T12:34:41Z</time>
      </trkpt>
      <trkpt lat="43.65762" lon="3.82971">
        <ele>103</ele>
        <time>2021-02-20T12:34:42Z</time>
      </trkpt>
      <trkpt lat="43.65763" lon="3.82976">
        <ele>103</ele>
        <time>2021-02-20T12:34:43Z</time>
      </trkpt>
      <trkpt lat="43.65764" lon="3.8298">
        <ele>103</ele>
        <time>2021-02-20T12:34:44Z</time>
      </trkpt>
      <trkpt lat="43.65765" lon="3.82985">
        <ele>100</ele>
        <time>2021-02-20T12:34:45Z</time>
      </trkpt>
      <trkpt lat="43.65766" lon="3.82988">
        <ele>100</ele>
        <time>2021-02-20T12:34:46Z</time>
      </trkpt>
      <trkpt lat="43.65767" lon="3.82992">
        <ele>100</ele>
        <time>2021-02-20T12:34:47Z</time>
      </trkpt>
      <trkpt lat="43.65769" lon="3.82996">
        <ele>100</ele>
        <time>2021-02-20T12:34:48Z</time>
      </trkpt>
      <trkpt lat="43.6577" lon="3.82999">
        <ele>100</ele>
        <time>2021-02-20T12:34:49Z</time>
      </trkpt>
      <trkpt lat="43.65772" lon="3.83003">
        <ele>100</ele>
        <time>2021-02-20T12:34:50Z</time>
      </trkpt>
      <trkpt lat="43.65773" lon="3.83007">
        <ele>100</ele>
        <time>2021-02-20T12:34:51Z</time>
      </trkpt>
      <trkpt lat="43.65774" lon="3.83011">
        <ele>100</ele>
        <time>2021-02-20T12:34:52Z</time>
      </trkpt>
      <trkpt lat="43.65775" lon="3.83014">
        <ele>100</ele>
        <time>2021-02-20T12:34:53Z</time>
      </trkpt>
      <trkpt lat="43.65776" lon="3.83018">
        <ele>100</ele>
        <time>2021-02-20T12:34:54Z</time>
      </trkpt>
      <trkpt lat="43.65777" lon="3.83021">
        <ele>99</ele>
        <time>2021-02-20T12:34:55Z</time>
      </trkpt>
      <trkpt lat="43.65779" lon="3.83025">
        <ele>99</ele>
        <time>2021-02-20T12:34:56Z</time>
      </trkpt>
      <trkpt lat="43.6578" lon="3.83029">
        <ele>99</ele>
        <time>2021-02-20T12:34:57Z</time>
      </trkpt>
      <trkpt lat="43.6578" lon="3.83033">
        <ele>99</ele>
        <time>2021-02-20T12:34:58Z</time>
      </trkpt>
      <trkpt lat="43.65782" lon="3.83036">
        <ele>99</ele>
        <time>2021-02-20T12:34:59Z</time>
      </trkpt>
      <trkpt lat="43.65783" lon="3.83039">
        <ele>99</ele>
        <time>2021-02-20T12:35:00Z</time>
      </trkpt>
      <trkpt lat="43.65785" lon="3.83041">
        <ele>99</ele>
        <time>2021-02-20T12:35:01Z</time>
      </trkpt>
      <trkpt lat="43.65787" lon="3.83041">
        <ele>99</ele>
        <time>2021-02-20T12:35:02Z</time>
      </trkpt>
      <trkpt lat="43.65788" lon="3.8304">
        <ele>99</ele>
        <time>2021-02-20T12:35:03Z</time>
      </trkpt>
      <trkpt lat="43.65791" lon="3.83039">
        <ele>99</ele>
        <time>2021-02-20T12:35:04Z</time>
      </trkpt>
      <trkpt lat="43.65792" lon="3.83037">
        <ele>97</ele>
        <time>2021-02-20T12:35:05Z</time>
      </trkpt>
      <trkpt lat="43.65794" lon="3.83035">
        <ele>97</ele>
        <time>2021-02-20T12:35:06Z</time>
      </trkpt>
      <trkpt lat="43.65795" lon="3.83033">
        <ele>97</ele>
        <time>2021-02-20T12:35:08Z</time>
      </trkpt>
      <trkpt lat="43.65797" lon="3.8303">
        <ele>97</ele>
        <time>2021-02-20T12:35:10Z</time>
      </trkpt>
      <trkpt lat="43.65798" lon="3.83029">
        <ele>97</ele>
        <time>2021-02-20T12:35:11Z</time>
      </trkpt>
      <trkpt lat="43.658" lon="3.83028">
        <ele>97</ele>
        <time>2021-02-20T12:35:12Z</time>
      </trkpt>
      <trkpt lat="43.65803" lon="3.83027">
        <ele>97</ele>
        <time>2021-02-20T12:35:13Z</time>
      </trkpt>
      <trkpt lat="43.65806" lon="3.83028">
        <ele>97</ele>
        <time>2021-02-20T12:35:14Z</time>
      </trkpt>
      <trkpt lat="43.65809" lon="3.83029">
        <ele>96</ele>
        <time>2021-02-20T12:35:15Z</time>
      </trkpt>
      <trkpt lat="43.65811" lon="3.83028">
        <ele>96</ele>
        <time>2021-02-20T12:35:16Z</time>
      </trkpt>
      <trkpt lat="43.65814" lon="3.83027">
        <ele>96</ele>
        <time>2021-02-20T12:35:17Z</time>
      </trkpt>
      <trkpt lat="43.65817" lon="3.83027">
        <ele>96</ele>
        <time>2021-02-20T12:35:18Z</time>
      </trkpt>
      <trkpt lat="43.6582" lon="3.83026">
        <ele>96</ele>
        <time>2021-02-20T12:35:19Z</time>
      </trkpt>
      <trkpt lat="43.65824" lon="3.83026">
        <ele>96</ele>
        <time>2021-02-20T12:35:20Z</time>
      </trkpt>
      <trkpt lat="43.65827" lon="3.83025">
        <ele>96</ele>
        <time>2021-02-20T12:35:21Z</time>
      </trkpt>
      <trkpt lat="43.6583" lon="3.83024">
        <ele>96</ele>
        <time>2021-02-20T12:35:22Z</time>
      </trkpt>
      <trkpt lat="43.65833" lon="3.83023">
        <ele>96</ele>
        <time>2021-02-20T12:35:23Z</time>
      </trkpt>
      <trkpt lat="43.65835" lon="3.83021">
        <ele>96</ele>
        <time>2021-02-20T12:35:24Z</time>
      </trkpt>
      <trkpt lat="43.65838" lon="3.83019">
        <ele>95</ele>
        <time>2021-02-20T12:35:25Z</time>
      </trkpt>
      <trkpt lat="43.65841" lon="3.83018">
        <ele>95</ele>
        <time>2021-02-20T12:35:26Z</time>
      </trkpt>
      <trkpt lat="43.65844" lon="3.83016">
        <ele>95</ele>
        <time>2021-02-20T12:35:27Z</time>
      </trkpt>
      <trkpt lat="43.65847" lon="3.83014">
        <ele>95</ele>
        <time>2021-02-20T12:35:28Z</time>
      </trkpt>
      <trkpt lat="43.6585" lon="3.83013">
        <ele>95</ele>
        <time>2021-02-20T12:35:29Z</time>
      </trkpt>
      <trkpt lat="43.65853" lon="3.83012">
        <ele>95</ele>
        <time>2021-02-20T12:35:30Z</time>
      </trkpt>
      <trkpt lat="43.65856" lon="3.83012">
        <ele>95</ele>
        <time>2021-02-20T12:35:31Z</time>
      </trkpt>
      <trkpt lat="43.65859" lon="3.83011">
        <ele>95</ele>
        <time>2021-02-20T12:35:32Z</time>
      </trkpt>
      <trkpt lat="43.65862" lon="3.83011">
        <ele>95</ele>
        <time>2021-02-20T12:35:33Z</time>
      </trkpt>
      <trkpt lat="43.65864" lon="3.8301">
        <ele>95</ele>
        <time>2021-02-20T12:35:34Z</time>
      </trkpt>
      <trkpt lat="43.65867" lon="3.8301">
        <ele>96</ele>
        <time>2021-02-20T12:35:35Z</time>
      </trkpt>
      <trkpt lat="43.6587" lon="3.83011">
        <ele>96</ele>
        <time>2021-02-20T12:35:36Z</time>
      </trkpt>
      <trkpt lat="43.65872" lon="3.8301">
        <ele>96</ele>
        <time>2021-02-20T12:35:37Z</time>
      </trkpt>
      <trkpt lat="43.65875" lon="3.83009">
        <ele>96</ele>
        <time>2021-02-20T12:35:38Z</time>
      </trkpt>
      <trkpt lat="43.65877" lon="3.83008">
        <ele>96</ele>
        <time>2021-02-20T12:35:39Z</time>
      </trkpt>
      <trkpt lat="43.65879" lon="3.83008">
        <ele>96</ele>
        <time>2021-02-20T12:35:40Z</time>
      </trkpt>
      <trkpt lat="43.65882" lon="3.83007">
        <ele>96</ele>
        <time>2021-02-20T12:35:41Z</time>
      </trkpt>
      <trkpt lat="43.65884" lon="3.83007">
        <ele>96</ele>
        <time>2021-02-20T12:35:42Z</time>
      </trkpt>
      <trkpt lat="43.65887" lon="3.83006">
        <ele>96</ele>
        <time>2021-02-20T12:35:43Z</time>
      </trkpt>
      <trkpt lat="43.65889" lon="3.83005">
        <ele>96</ele>
        <time>2021-02-20T12:35:44Z</time>
      </trkpt>
      <trkpt lat="43.65891" lon="3.83005">
        <ele>96</ele>
        <time>2021-02-20T12:35:45Z</time>
      </trkpt>
      <trkpt lat="43.65894" lon="3.83005">
        <ele>96</ele>
        <time>2021-02-20T12:35:46Z</time>
      </trkpt>
      <trkpt lat="43.65897" lon="3.83005">
        <ele>96</ele>
        <time>2021-02-20T12:35:47Z</time>
      </trkpt>
      <trkpt lat="43.659" lon="3.83005">
        <ele>96</ele>
        <time>2021-02-20T12:35:48Z</time>
      </trkpt>
      <trkpt lat="43.65902" lon="3.83005">
        <ele>96</ele>
        <time>2021-02-20T12:35:49Z</time>
      </trkpt>
      <trkpt lat="43.65905" lon="3.83004">
        <ele>96</ele>
        <time>2021-02-20T12:35:50Z</time>
      </trkpt>
      <trkpt lat="43.65907" lon="3.83003">
        <ele>96</ele>
        <time>2021-02-20T12:35:51Z</time>
      </trkpt>
      <trkpt lat="43.6591" lon="3.83002">
        <ele>96</ele>
        <time>2021-02-20T12:35:52Z</time>
      </trkpt>
      <trkpt lat="43.65912" lon="3.83002">
        <ele>96</ele>
        <time>2021-02-20T12:35:53Z</time>
      </trkpt>
      <trkpt lat="43.65914" lon="3.83001">
        <ele>96</ele>
        <time>2021-02-20T12:35:54Z</time>
      </trkpt>
      <trkpt lat="43.65916" lon="3.83001">
        <ele>96</ele>
        <time>2021-02-20T12:35:55Z</time>
      </trkpt>
      <trkpt lat="43.65919" lon="3.83">
        <ele>96</ele>
        <time>2021-02-20T12:35:56Z</time>
      </trkpt>
      <trkpt lat="43.65921" lon="3.83">
        <ele>96</ele>
        <time>2021-02-20T12:35:57Z</time>
      </trkpt>
      <trkpt lat="43.65923" lon="3.82999">
        <ele>96</ele>
        <time>2021-02-20T12:35:58Z</time>
      </trkpt>
      <trkpt lat="43.65926" lon="3.82999">
        <ele>96</ele>
        <time>2021-02-20T12:35:59Z</time>
      </trkpt>
      <trkpt lat="43.65928" lon="3.82998">
        <ele>96</ele>
        <time>2021-02-20T12:36:00Z</time>
      </trkpt>
      <trkpt lat="43.65931" lon="3.82998">
        <ele>96</ele>
        <time>2021-02-20T12:36:01Z</time>
      </trkpt>
      <trkpt lat="43.65933" lon="3.82998">
        <ele>96</ele>
        <time>2021-02-20T12:36:02Z</time>
      </trkpt>
      <trkpt lat="43.65936" lon="3.82998">
        <ele>96</ele>
        <time>2021-02-20T12:36:03Z</time>
      </trkpt>
      <trkpt lat="43.65938" lon="3.82998">
        <ele>96</ele>
        <time>2021-02-20T12:36:04Z</time>
      </trkpt>
      <trkpt lat="43.6594" lon="3.82997">
        <ele>97</ele>
        <time>2021-02-20T12:36:05Z</time>
      </trkpt>
      <trkpt lat="43.65942" lon="3.82996">
        <ele>97</ele>
        <time>2021-02-20T12:36:06Z</time>
      </trkpt>
      <trkpt lat="43.65945" lon="3.82996">
        <ele>97</ele>
        <time>2021-02-20T12:36:07Z</time>
      </trkpt>
      <trkpt lat="43.65948" lon="3.82996">
        <ele>97</ele>
        <time>2021-02-20T12:36:08Z</time>
      </trkpt>
      <trkpt lat="43.6595" lon="3.82996">
        <ele>97</ele>
        <time>2021-02-20T12:36:09Z</time>
      </trkpt>
      <trkpt lat="43.65952" lon="3.82996">
        <ele>97</ele>
        <time>2021-02-20T12:36:10Z</time>
      </trkpt>
      <trkpt lat="43.65954" lon="3.82995">
        <ele>97</ele>
        <time>2021-02-20T12:36:11Z</time>
      </trkpt>
      <trkpt lat="43.65956" lon="3.82994">
        <ele>97</ele>
        <time>2021-02-20T12:36:12Z</time>
      </trkpt>
      <trkpt lat="43.65958" lon="3.82993">
        <ele>97</ele>
        <time>2021-02-20T12:36:13Z</time>
      </trkpt>
      <trkpt lat="43.65961" lon="3.82992">
        <ele>97</ele>
        <time>2021-02-20T12:36:14Z</time>
      </trkpt>
      <trkpt lat="43.65963" lon="3.82992">
        <ele>99</ele>
        <time>2021-02-20T12:36:15Z</time>
      </trkpt>
      <trkpt lat="43.65965" lon="3.82991">
        <ele>99</ele>
        <time>2021-02-20T12:36:16Z</time>
      </trkpt>
      <trkpt lat="43.65967" lon="3.8299">
        <ele>99</ele>
        <time>2021-02-20T12:36:17Z</time>
      </trkpt>
      <trkpt lat="43.6597" lon="3.8299">
        <ele>99</ele>
        <time>2021-02-20T12:36:18Z</time>
      </trkpt>
      <trkpt lat="43.65972" lon="3.82989">
        <ele>99</ele>
        <time>2021-02-20T12:36:19Z</time>
      </trkpt>
      <trkpt lat="43.65974" lon="3.82989">
        <ele>99</ele>
        <time>2021-02-20T12:36:20Z</time>
      </trkpt>
      <trkpt lat="43.65976" lon="3.82988">
        <ele>99</ele>
        <time>2021-02-20T12:36:21Z</time>
      </trkpt>
      <trkpt lat="43.65979" lon="3.82988">
        <ele>99</ele>
        <time>2021-02-20T12:36:22Z</time>
      </trkpt>
      <trkpt lat="43.65982" lon="3.82988">
        <ele>99</ele>
        <time>2021-02-20T12:36:23Z</time>
      </trkpt>
      <trkpt lat="43.65984" lon="3.82987">
        <ele>99</ele>
        <time>2021-02-20T12:36:24Z</time>
      </trkpt>
      <trkpt lat="43.65986" lon="3.82987">
        <ele>101</ele>
        <time>2021-02-20T12:36:25Z</time>
      </trkpt>
      <trkpt lat="43.65989" lon="3.82986">
        <ele>101</ele>
        <time>2021-02-20T12:36:26Z</time>
      </trkpt>
      <trkpt lat="43.65991" lon="3.82985">
        <ele>101</ele>
        <time>2021-02-20T12:36:27Z</time>
      </trkpt>
      <trkpt lat="43.65994" lon="3.82984">
        <ele>101</ele>
        <time>2021-02-20T12:36:28Z</time>
      </trkpt>
      <trkpt lat="43.65996" lon="3.82984">
        <ele>101</ele>
        <time>2021-02-20T12:36:29Z</time>
      </trkpt>
      <trkpt lat="43.65998" lon="3.82984">
        <ele>101</ele>
        <time>2021-02-20T12:36:30Z</time>
      </trkpt>
      <trkpt lat="43.66" lon="3.82983">
        <ele>101</ele>
        <time>2021-02-20T12:36:31Z</time>
      </trkpt>
      <trkpt lat="43.66002" lon="3.82983">
        <ele>101</ele>
        <time>2021-02-20T12:36:32Z</time>
      </trkpt>
      <trkpt lat="43.66004" lon="3.82983">
        <ele>101</ele>
        <time>2021-02-20T12:36:33Z</time>
      </trkpt>
      <trkpt lat="43.66006" lon="3.82982">
        <ele>101</ele>
        <time>2021-02-20T12:36:34Z</time>
      </trkpt>
      <trkpt lat="43.66008" lon="3.82981">
        <ele>102</ele>
        <time>2021-02-20T12:36:35Z</time>
      </trkpt>
      <trkpt lat="43.6601" lon="3.8298">
        <ele>102</ele>
        <time>2021-02-20T12:36:36Z</time>
      </trkpt>
      <trkpt lat="43.66011" lon="3.82979">
        <ele>102</ele>
        <time>2021-02-20T12:36:37Z</time>
      </trkpt>
      <trkpt lat="43.66013" lon="3.82978">
        <ele>102</ele>
        <time>2021-02-20T12:36:38Z</time>
      </trkpt>
      <trkpt lat="43.66016" lon="3.82977">
        <ele>102</ele>
        <time>2021-02-20T12:36:39Z</time>
      </trkpt>
      <trkpt lat="43.66018" lon="3.82977">
        <ele>102</ele>
        <time>2021-02-20T12:36:40Z</time>
      </trkpt>
      <trkpt lat="43.66021" lon="3.82979">
        <ele>102</ele>
        <time>2021-02-20T12:36:41Z</time>
      </trkpt>
      <trkpt lat="43.66024" lon="3.8298">
        <ele>102</ele>
        <time>2021-02-20T12:36:42Z</time>
      </trkpt>
      <trkpt lat="43.66027" lon="3.82981">
        <ele>102</ele>
        <time>2021-02-20T12:36:43Z</time>
      </trkpt>
      <trkpt lat="43.66029" lon="3.82982">
        <ele>102</ele>
        <time>2021-02-20T12:36:44Z</time>
      </trkpt>
      <trkpt lat="43.66032" lon="3.82983">
        <ele>101</ele>
        <time>2021-02-20T12:36:45Z</time>
      </trkpt>
      <trkpt lat="43.66035" lon="3.82983">
        <ele>101</ele>
        <time>2021-02-20T12:36:46Z</time>
      </trkpt>
      <trkpt lat="43.66038" lon="3.82982">
        <ele>101</ele>
        <time>2021-02-20T12:36:47Z</time>
      </trkpt>
      <trkpt lat="43.6604" lon="3.82982">
        <ele>101</ele>
        <time>2021-02-20T12:36:48Z</time>
      </trkpt>
      <trkpt lat="43.66043" lon="3.82982">
        <ele>101</ele>
        <time>2021-02-20T12:36:49Z</time>
      </trkpt>
      <trkpt lat="43.66045" lon="3.82982">
        <ele>101</ele>
        <time>2021-02-20T12:36:50Z</time>
      </trkpt>
      <trkpt lat="43.66048" lon="3.82981">
        <ele>101</ele>
        <time>2021-02-20T12:36:51Z</time>
      </trkpt>
      <trkpt lat="43.6605" lon="3.82981">
        <ele>101</ele>
        <time>2021-02-20T12:36:52Z</time>
      </trkpt>
      <trkpt lat="43.66053" lon="3.82982">
        <ele>101</ele>
        <time>2021-02-20T12:36:53Z</time>
      </trkpt>
      <trkpt lat="43.66055" lon="3.82982">
        <ele>101</ele>
        <time>2021-02-20T12:36:54Z</time>
      </trkpt>
      <trkpt lat="43.66057" lon="3.82982">
        <ele>102</ele>
        <time>2021-02-20T12:36:55Z</time>
      </trkpt>
      <trkpt lat="43.6606" lon="3.82981">
        <ele>102</ele>
        <time>2021-02-20T12:36:56Z</time>
      </trkpt>
      <trkpt lat="43.66062" lon="3.82981">
        <ele>102</ele>
        <time>2021-02-20T12:36:57Z</time>
      </trkpt>
      <trkpt lat="43.66064" lon="3.8298">
        <ele>102</ele>
        <time>2021-02-20T12:36:58Z</time>
      </trkpt>
      <trkpt lat="43.66066" lon="3.8298">
        <ele>102</ele>
        <time>2021-02-20T12:36:59Z</time>
      </trkpt>
      <trkpt lat="43.66069" lon="3.8298">
        <ele>103</ele>
        <time>2021-02-20T12:37:00Z</time>
      </trkpt>
      <trkpt lat="43.66071" lon="3.8298">
        <ele>103</ele>
        <time>2021-02-20T12:37:01Z</time>
      </trkpt>
      <trkpt lat="43.66073" lon="3.8298">
        <ele>103</ele>
        <time>2021-02-20T12:37:02Z</time>
      </trkpt>
      <trkpt lat="43.66076" lon="3.82981">
        <ele>103</ele>
        <time>2021-02-20T12:37:03Z</time>
      </trkpt>
      <trkpt lat="43.66078" lon="3.82981">
        <ele>103</ele>
        <time>2021-02-20T12:37:04Z</time>
      </trkpt>
      <trkpt lat="43.6608" lon="3.82981">
        <ele>103</ele>
        <time>2021-02-20T12:37:05Z</time>
      </trkpt>
      <trkpt lat="43.66083" lon="3.82981">
        <ele>103</ele>
        <time>2021-02-20T12:37:06Z</time>
      </trkpt>
      <trkpt lat="43.66085" lon="3.82981">
        <ele>103</ele>
        <time>2021-02-20T12:37:07Z</time>
      </trkpt>
      <trkpt lat="43.66087" lon="3.82981">
        <ele>103</ele>
        <time>2021-02-20T12:37:08Z</time>
      </trkpt>
      <trkpt lat="43.6609" lon="3.82981">
        <ele>103</ele>
        <time>2021-02-20T12:37:09Z</time>
      </trkpt>
      <trkpt lat="43.66092" lon="3.82981">
        <ele>103</ele>
        <time>2021-02-20T12:37:10Z</time>
      </trkpt>
      <trkpt lat="43.66094" lon="3.82981">
        <ele>103</ele>
        <time>2021-02-20T12:37:11Z</time>
      </trkpt>
      <trkpt lat="43.66097" lon="3.82981">
        <ele>103</ele>
        <time>2021-02-20T12:37:12Z</time>
      </trkpt>
      <trkpt lat="43.66099" lon="3.82981">
        <ele>103</ele>
        <time>2021-02-20T12:37:13Z</time>
      </trkpt>
      <trkpt lat="43.66101" lon="3.82982">
        <ele>103</ele>
        <time>2021-02-20T12:37:14Z</time>
      </trkpt>
      <trkpt lat="43.66104" lon="3.82982">
        <ele>103</ele>
        <time>2021-02-20T12:37:15Z</time>
      </trkpt>
      <trkpt lat="43.66106" lon="3.82982">
        <ele>103</ele>
        <time>2021-02-20T12:37:16Z</time>
      </trkpt>
      <trkpt lat="43.66108" lon="3.82983">
        <ele>103</ele>
        <time>2021-02-20T12:37:17Z</time>
      </trkpt>
      <trkpt lat="43.6611" lon="3.82983">
        <ele>103</ele>
        <time>2021-02-20T12:37:18Z</time>
      </trkpt>
      <trkpt lat="43.66113" lon="3.82984">
        <ele>103</ele>
        <time>2021-02-20T12:37:19Z</time>
      </trkpt>
      <trkpt lat="43.66115" lon="3.82985">
        <ele>103</ele>
        <time>2021-02-20T12:37:20Z</time>
      </trkpt>
      <trkpt lat="43.66117" lon="3.82985">
        <ele>103</ele>
        <time>2021-02-20T12:37:21Z</time>
      </trkpt>
      <trkpt lat="43.66119" lon="3.82986">
        <ele>103</ele>
        <time>2021-02-20T12:37:22Z</time>
      </trkpt>
      <trkpt lat="43.66121" lon="3.82987">
        <ele>103</ele>
        <time>2021-02-20T12:37:23Z</time>
      </trkpt>
      <trkpt lat="43.66124" lon="3.82988">
        <ele>103</ele>
        <time>2021-02-20T12:37:24Z</time>
      </trkpt>
      <trkpt lat="43.66126" lon="3.8299">
        <ele>104</ele>
        <time>2021-02-20T12:37:25Z</time>
      </trkpt>
      <trkpt lat="43.66128" lon="3.82992">
        <ele>104</ele>
        <time>2021-02-20T12:37:26Z</time>
      </trkpt>
      <trkpt lat="43.6613" lon="3.82993">
        <ele>104</ele>
        <time>2021-02-20T12:37:27Z</time>
      </trkpt>
      <trkpt lat="43.66132" lon="3.82995">
        <ele>104</ele>
        <time>2021-02-20T12:37:28Z</time>
      </trkpt>
      <trkpt lat="43.66134" lon="3.82996">
        <ele>104</ele>
        <time>2021-02-20T12:37:29Z</time>
      </trkpt>
      <trkpt lat="43.66136" lon="3.82997">
        <ele>104</ele>
        <time>2021-02-20T12:37:30Z</time>
      </trkpt>
      <trkpt lat="43.66138" lon="3.82998">
        <ele>104</ele>
        <time>2021-02-20T12:37:31Z</time>
      </trkpt>
      <trkpt lat="43.6614" lon="3.83">
        <ele>104</ele>
        <time>2021-02-20T12:37:32Z</time>
      </trkpt>
      <trkpt lat="43.66142" lon="3.83003">
        <ele>104</ele>
        <time>2021-02-20T12:37:33Z</time>
      </trkpt>
      <trkpt lat="43.66144" lon="3.83005">
        <ele>104</ele>
        <time>2021-02-20T12:37:34Z</time>
      </trkpt>
      <trkpt lat="43.66146" lon="3.83006">
        <ele>106</ele>
        <time>2021-02-20T12:37:35Z</time>
      </trkpt>
      <trkpt lat="43.66148" lon="3.83007">
        <ele>106</ele>
        <time>2021-02-20T12:37:36Z</time>
      </trkpt>
      <trkpt lat="43.6615" lon="3.83008">
        <ele>106</ele>
        <time>2021-02-20T12:37:37Z</time>
      </trkpt>
      <trkpt lat="43.66152" lon="3.8301">
        <ele>106</ele>
        <time>2021-02-20T12:37:38Z</time>
      </trkpt>
      <trkpt lat="43.66154" lon="3.83011">
        <ele>106</ele>
        <time>2021-02-20T12:37:39Z</time>
      </trkpt>
      <trkpt lat="43.66155" lon="3.83012">
        <ele>106</ele>
        <time>2021-02-20T12:37:40Z</time>
      </trkpt>
      <trkpt lat="43.66157" lon="3.83013">
        <ele>106</ele>
        <time>2021-02-20T12:37:41Z</time>
      </trkpt>
      <trkpt lat="43.66159" lon="3.83014">
        <ele>106</ele>
        <time>2021-02-20T12:37:42Z</time>
      </trkpt>
      <trkpt lat="43.66161" lon="3.83016">
        <ele>106</ele>
        <time>2021-02-20T12:37:43Z</time>
      </trkpt>
      <trkpt lat="43.66163" lon="3.83017">
        <ele>106</ele>
        <time>2021-02-20T12:37:44Z</time>
      </trkpt>
      <trkpt lat="43.66164" lon="3.83019">
        <ele>106</ele>
        <time>2021-02-20T12:37:45Z</time>
      </trkpt>
      <trkpt lat="43.66166" lon="3.83021">
        <ele>107</ele>
        <time>2021-02-20T12:37:46Z</time>
      </trkpt>
      <trkpt lat="43.66168" lon="3.83022">
        <ele>107</ele>
        <time>2021-02-20T12:37:47Z</time>
      </trkpt>
      <trkpt lat="43.6617" lon="3.83023">
        <ele>107</ele>
        <time>2021-02-20T12:37:48Z</time>
      </trkpt>
      <trkpt lat="43.66172" lon="3.83024">
        <ele>107</ele>
        <time>2021-02-20T12:37:49Z</time>
      </trkpt>
      <trkpt lat="43.66174" lon="3.83025">
        <ele>107</ele>
        <time>2021-02-20T12:37:50Z</time>
      </trkpt>
      <trkpt lat="43.66176" lon="3.83026">
        <ele>107</ele>
        <time>2021-02-20T12:37:51Z</time>
      </trkpt>
      <trkpt lat="43.66178" lon="3.83028">
        <ele>107</ele>
        <time>2021-02-20T12:37:52Z</time>
      </trkpt>
      <trkpt lat="43.6618" lon="3.83029">
        <ele>107</ele>
        <time>2021-02-20T12:37:53Z</time>
      </trkpt>
      <trkpt lat="43.66182" lon="3.8303">
        <ele>107</ele>
        <time>2021-02-20T12:37:54Z</time>
      </trkpt>
      <trkpt lat="43.66183" lon="3.83031">
        <ele>108</ele>
        <time>2021-02-20T12:37:55Z</time>
      </trkpt>
      <trkpt lat="43.66185" lon="3.83033">
        <ele>108</ele>
        <time>2021-02-20T12:37:56Z</time>
      </trkpt>
      <trkpt lat="43.66187" lon="3.83034">
        <ele>108</ele>
        <time>2021-02-20T12:37:57Z</time>
      </trkpt>
      <trkpt lat="43.66189" lon="3.83035">
        <ele>108</ele>
        <time>2021-02-20T12:37:58Z</time>
      </trkpt>
      <trkpt lat="43.66192" lon="3.83036">
        <ele>108</ele>
        <time>2021-02-20T12:37:59Z</time>
      </trkpt>
      <trkpt lat="43.66194" lon="3.83037">
        <ele>108</ele>
        <time>2021-02-20T12:38:00Z</time>
      </trkpt>
      <trkpt lat="43.66196" lon="3.83038">
        <ele>108</ele>
        <time>2021-02-20T12:38:01Z</time>
      </trkpt>
      <trkpt lat="43.66198" lon="3.83039">
        <ele>108</ele>
        <time>2021-02-20T12:38:02Z</time>
      </trkpt>
      <trkpt lat="43.66201" lon="3.83041">
        <ele>108</ele>
        <time>2021-02-20T12:38:04Z</time>
      </trkpt>
      <trkpt lat="43.66204" lon="3.83042">
        <ele>108</ele>
        <time>2021-02-20T12:38:06Z</time>
      </trkpt>
      <trkpt lat="43.66207" lon="3.83042">
        <ele>108</ele>
        <time>2021-02-20T12:38:08Z</time>
      </trkpt>
      <trkpt lat="43.66209" lon="3.83042">
        <ele>108</ele>
        <time>2021-02-20T12:38:09Z</time>
      </trkpt>
      <trkpt lat="43.66211" lon="3.83042">
        <ele>108</ele>
        <time>2021-02-20T12:38:10Z</time>
      </trkpt>
      <trkpt lat="43.66215" lon="3.83042">
        <ele>108</ele>
        <time>2021-02-20T12:38:12Z</time>
      </trkpt>
      <trkpt lat="43.66217" lon="3.83041">
        <ele>108</ele>
        <time>2021-02-20T12:38:14Z</time>
      </trkpt>
      <trkpt lat="43.6622" lon="3.83041">
        <ele>108</ele>
        <time>2021-02-20T12:38:16Z</time>
      </trkpt>
      <trkpt lat="43.66223" lon="3.8304">
        <ele>108</ele>
        <time>2021-02-20T12:38:18Z</time>
      </trkpt>
      <trkpt lat="43.66226" lon="3.8304">
        <ele>108</ele>
        <time>2021-02-20T12:38:20Z</time>
      </trkpt>
      <trkpt lat="43.66229" lon="3.83039">
        <ele>108</ele>
        <time>2021-02-20T12:38:22Z</time>
      </trkpt>
      <trkpt lat="43.66229" lon="3.83039">
        <ele>110</ele>
        <time>2021-02-20T12:38:27Z</time>
      </trkpt>
      <trkpt lat="43.66236" lon="3.83039">
        <ele>110</ele>
        <time>2021-02-20T12:38:46Z</time>
      </trkpt>
      <trkpt lat="43.66239" lon="3.8304">
        <ele>110</ele>
        <time>2021-02-20T12:38:48Z</time>
      </trkpt>
      <trkpt lat="43.66243" lon="3.8304">
        <ele>110</ele>
        <time>2021-02-20T12:38:50Z</time>
      </trkpt>
      <trkpt lat="43.66246" lon="3.83039">
        <ele>110</ele>
        <time>2021-02-20T12:38:52Z</time>
      </trkpt>
      <trkpt lat="43.66249" lon="3.83038">
        <ele>110</ele>
        <time>2021-02-20T12:38:54Z</time>
      </trkpt>
      <trkpt lat="43.66251" lon="3.83038">
        <ele>111</ele>
        <time>2021-02-20T12:38:56Z</time>
      </trkpt>
      <trkpt lat="43.66253" lon="3.83037">
        <ele>111</ele>
        <time>2021-02-20T12:38:58Z</time>
      </trkpt>
      <trkpt lat="43.66255" lon="3.83035">
        <ele>111</ele>
        <time>2021-02-20T12:39:00Z</time>
      </trkpt>
      <trkpt lat="43.66258" lon="3.83033">
        <ele>111</ele>
        <time>2021-02-20T12:39:02Z</time>
      </trkpt>
      <trkpt lat="43.6626" lon="3.83032">
        <ele>111</ele>
        <time>2021-02-20T12:39:03Z</time>
      </trkpt>
      <trkpt lat="43.66263" lon="3.83032">
        <ele>111</ele>
        <time>2021-02-20T12:39:04Z</time>
      </trkpt>
      <trkpt lat="43.66265" lon="3.8303">
        <ele>111</ele>
        <time>2021-02-20T12:39:05Z</time>
      </trkpt>
      <trkpt lat="43.66268" lon="3.83029">
        <ele>112</ele>
        <time>2021-02-20T12:39:06Z</time>
      </trkpt>
      <trkpt lat="43.66271" lon="3.83028">
        <ele>112</ele>
        <time>2021-02-20T12:39:07Z</time>
      </trkpt>
      <trkpt lat="43.66274" lon="3.83027">
        <ele>112</ele>
        <time>2021-02-20T12:39:08Z</time>
      </trkpt>
      <trkpt lat="43.66276" lon="3.83025">
        <ele>112</ele>
        <time>2021-02-20T12:39:09Z</time>
      </trkpt>
      <trkpt lat="43.66279" lon="3.83024">
        <ele>112</ele>
        <time>2021-02-20T12:39:10Z</time>
      </trkpt>
      <trkpt lat="43.66281" lon="3.83022">
        <ele>112</ele>
        <time>2021-02-20T12:39:11Z</time>
      </trkpt>
      <trkpt lat="43.66284" lon="3.83021">
        <ele>112</ele>
        <time>2021-02-20T12:39:12Z</time>
      </trkpt>
      <trkpt lat="43.66287" lon="3.8302">
        <ele>112</ele>
        <time>2021-02-20T12:39:13Z</time>
      </trkpt>
      <trkpt lat="43.6629" lon="3.83018">
        <ele>112</ele>
        <time>2021-02-20T12:39:14Z</time>
      </trkpt>
      <trkpt lat="43.66293" lon="3.83017">
        <ele>112</ele>
        <time>2021-02-20T12:39:15Z</time>
      </trkpt>
      <trkpt lat="43.66296" lon="3.83015">
        <ele>113</ele>
        <time>2021-02-20T12:39:16Z</time>
      </trkpt>
      <trkpt lat="43.66299" lon="3.83013">
        <ele>113</ele>
        <time>2021-02-20T12:39:17Z</time>
      </trkpt>
      <trkpt lat="43.66302" lon="3.83011">
        <ele>113</ele>
        <time>2021-02-20T12:39:18Z</time>
      </trkpt>
      <trkpt lat="43.66305" lon="3.8301">
        <ele>113</ele>
        <time>2021-02-20T12:39:19Z</time>
      </trkpt>
      <trkpt lat="43.66308" lon="3.83009">
        <ele>113</ele>
        <time>2021-02-20T12:39:20Z</time>
      </trkpt>
      <trkpt lat="43.6631" lon="3.83007">
        <ele>113</ele>
        <time>2021-02-20T12:39:21Z</time>
      </trkpt>
      <trkpt lat="43.66313" lon="3.83006">
        <ele>113</ele>
        <time>2021-02-20T12:39:22Z</time>
      </trkpt>
      <trkpt lat="43.66316" lon="3.83004">
        <ele>113</ele>
        <time>2021-02-20T12:39:23Z</time>
      </trkpt>
      <trkpt lat="43.66318" lon="3.83002">
        <ele>113</ele>
        <time>2021-02-20T12:39:24Z</time>
      </trkpt>
      <trkpt lat="43.66321" lon="3.83">
        <ele>113</ele>
        <time>2021-02-20T12:39:25Z</time>
      </trkpt>
      <trkpt lat="43.66323" lon="3.82998">
        <ele>114</ele>
        <time>2021-02-20T12:39:26Z</time>
      </trkpt>
      <trkpt lat="43.66325" lon="3.82996">
        <ele>114</ele>
        <time>2021-02-20T12:39:27Z</time>
      </trkpt>
      <trkpt lat="43.66328" lon="3.82995">
        <ele>114</ele>
        <time>2021-02-20T12:39:28Z</time>
      </trkpt>
      <trkpt lat="43.6633" lon="3.82994">
        <ele>114</ele>
        <time>2021-02-20T12:39:29Z</time>
      </trkpt>
      <trkpt lat="43.66332" lon="3.82992">
        <ele>114</ele>
        <time>2021-02-20T12:39:30Z</time>
      </trkpt>
      <trkpt lat="43.66335" lon="3.82991">
        <ele>114</ele>
        <time>2021-02-20T12:39:31Z</time>
      </trkpt>
      <trkpt lat="43.66337" lon="3.82989">
        <ele>114</ele>
        <time>2021-02-20T12:39:32Z</time>
      </trkpt>
      <trkpt lat="43.6634" lon="3.82987">
        <ele>114</ele>
        <time>2021-02-20T12:39:33Z</time>
      </trkpt>
      <trkpt lat="43.66342" lon="3.82985">
        <ele>114</ele>
        <time>2021-02-20T12:39:34Z</time>
      </trkpt>
      <trkpt lat="43.66344" lon="3.82983">
        <ele>114</ele>
        <time>2021-02-20T12:39:35Z</time>
      </trkpt>
      <trkpt lat="43.66347" lon="3.82981">
        <ele>115</ele>
        <time>2021-02-20T12:39:36Z</time>
      </trkpt>
      <trkpt lat="43.66349" lon="3.82979">
        <ele>115</ele>
        <time>2021-02-20T12:39:37Z</time>
      </trkpt>
      <trkpt lat="43.66351" lon="3.82977">
        <ele>115</ele>
        <time>2021-02-20T12:39:38Z</time>
      </trkpt>
      <trkpt lat="43.66353" lon="3.82975">
        <ele>115</ele>
        <time>2021-02-20T12:39:40Z</time>
      </trkpt>
      <trkpt lat="43.66354" lon="3.82974">
        <ele>116</ele>
        <time>2021-02-20T12:39:46Z</time>
      </trkpt>
      <trkpt lat="43.66355" lon="3.82968">
        <ele>118</ele>
        <time>2021-02-20T12:39:58Z</time>
      </trkpt>
      <trkpt lat="43.66356" lon="3.82966">
        <ele>118</ele>
        <time>2021-02-20T12:40:00Z</time>
      </trkpt>
      <trkpt lat="43.66357" lon="3.82964">
        <ele>118</ele>
        <time>2021-02-20T12:40:03Z</time>
      </trkpt>
      <trkpt lat="43.66367" lon="3.82957">
        <ele>124</ele>
        <time>2021-02-20T12:42:52Z</time>
      </trkpt>
      <trkpt lat="43.66364" lon="3.82959">
        <ele>122</ele>
        <time>2021-02-20T12:43:02Z</time>
      </trkpt>
      <trkpt lat="43.66364" lon="3.82961">
        <ele>122</ele>
        <time>2021-02-20T12:43:05Z</time>
      </trkpt>
      <trkpt lat="43.66368" lon="3.82958">
        <ele>122</ele>
        <time>2021-02-20T12:43:16Z</time>
      </trkpt>
      <trkpt lat="43.66371" lon="3.82956">
        <ele>122</ele>
        <time>2021-02-20T12:43:18Z</time>
      </trkpt>
      <trkpt lat="43.66374" lon="3.82953">
        <ele>122</ele>
        <time>2021-02-20T12:43:20Z</time>
      </trkpt>
      <trkpt lat="43.66377" lon="3.82951">
        <ele>122</ele>
        <time>2021-02-20T12:43:21Z</time>
      </trkpt>
      <trkpt lat="43.6638" lon="3.82949">
        <ele>122</ele>
        <time>2021-02-20T12:43:22Z</time>
      </trkpt>
      <trkpt lat="43.66382" lon="3.82947">
        <ele>122</ele>
        <time>2021-02-20T12:43:23Z</time>
      </trkpt>
      <trkpt lat="43.66384" lon="3.82944">
        <ele>122</ele>
        <time>2021-02-20T12:43:24Z</time>
      </trkpt>
      <trkpt lat="43.66387" lon="3.82942">
        <ele>122</ele>
        <time>2021-02-20T12:43:25Z</time>
      </trkpt>
      <trkpt lat="43.66389" lon="3.8294">
        <ele>122</ele>
        <time>2021-02-20T12:43:26Z</time>
      </trkpt>
      <trkpt lat="43.66392" lon="3.82938">
        <ele>122</ele>
        <time>2021-02-20T12:43:27Z</time>
      </trkpt>
      <trkpt lat="43.66394" lon="3.82935">
        <ele>122</ele>
        <time>2021-02-20T12:43:28Z</time>
      </trkpt>
      <trkpt lat="43.66397" lon="3.82933">
        <ele>122</ele>
        <time>2021-02-20T12:43:29Z</time>
      </trkpt>
      <trkpt lat="43.66399" lon="3.82931">
        <ele>122</ele>
        <time>2021-02-20T12:43:30Z</time>
      </trkpt>
      <trkpt lat="43.66403" lon="3.82928">
        <ele>122</ele>
        <time>2021-02-20T12:43:31Z</time>
      </trkpt>
      <trkpt lat="43.66406" lon="3.82926">
        <ele>122</ele>
        <time>2021-02-20T12:43:32Z</time>
      </trkpt>
      <trkpt lat="43.66409" lon="3.82924">
        <ele>122</ele>
        <time>2021-02-20T12:43:33Z</time>
      </trkpt>
      <trkpt lat="43.66413" lon="3.82922">
        <ele>122</ele>
        <time>2021-02-20T12:43:34Z</time>
      </trkpt>
      <trkpt lat="43.66416" lon="3.82919">
        <ele>122</ele>
        <time>2021-02-20T12:43:35Z</time>
      </trkpt>
      <trkpt lat="43.6642" lon="3.82916">
        <ele>122</ele>
        <time>2021-02-20T12:43:36Z</time>
      </trkpt>
      <trkpt lat="43.66423" lon="3.82914">
        <ele>122</ele>
        <time>2021-02-20T12:43:37Z</time>
      </trkpt>
      <trkpt lat="43.66426" lon="3.82912">
        <ele>122</ele>
        <time>2021-02-20T12:43:38Z</time>
      </trkpt>
      <trkpt lat="43.66429" lon="3.82909">
        <ele>122</ele>
        <time>2021-02-20T12:43:39Z</time>
      </trkpt>
      <trkpt lat="43.66432" lon="3.82907">
        <ele>122</ele>
        <time>2021-02-20T12:43:40Z</time>
      </trkpt>
      <trkpt lat="43.66435" lon="3.82904">
        <ele>122</ele>
        <time>2021-02-20T12:43:41Z</time>
      </trkpt>
      <trkpt lat="43.66439" lon="3.82901">
        <ele>122</ele>
        <time>2021-02-20T12:43:42Z</time>
      </trkpt>
      <trkpt lat="43.66443" lon="3.82898">
        <ele>122</ele>
        <time>2021-02-20T12:43:43Z</time>
      </trkpt>
      <trkpt lat="43.66447" lon="3.82896">
        <ele>122</ele>
        <time>2021-02-20T12:43:44Z</time>
      </trkpt>
      <trkpt lat="43.66451" lon="3.82893">
        <ele>122</ele>
        <time>2021-02-20T12:43:45Z</time>
      </trkpt>
      <trkpt lat="43.66455" lon="3.8289">
        <ele>122</ele>
        <time>2021-02-20T12:43:46Z</time>
      </trkpt>
      <trkpt lat="43.66459" lon="3.82888">
        <ele>122</ele>
        <time>2021-02-20T12:43:47Z</time>
      </trkpt>
      <trkpt lat="43.66467" lon="3.82883">
        <ele>122</ele>
        <time>2021-02-20T12:43:49Z</time>
      </trkpt>
      <trkpt lat="43.66471" lon="3.8288">
        <ele>122</ele>
        <time>2021-02-20T12:43:50Z</time>
      </trkpt>
      <trkpt lat="43.66476" lon="3.82877">
        <ele>122</ele>
        <time>2021-02-20T12:43:51Z</time>
      </trkpt>
      <trkpt lat="43.66486" lon="3.82869">
        <ele>122</ele>
        <time>2021-02-20T12:43:53Z</time>
      </trkpt>
      <trkpt lat="43.66491" lon="3.82864">
        <ele>122</ele>
        <time>2021-02-20T12:43:54Z</time>
      </trkpt>
      <trkpt lat="43.66496" lon="3.82859">
        <ele>122</ele>
        <time>2021-02-20T12:43:55Z</time>
      </trkpt>
      <trkpt lat="43.665" lon="3.82856">
        <ele>122</ele>
        <time>2021-02-20T12:43:56Z</time>
      </trkpt>
      <trkpt lat="43.66504" lon="3.82854">
        <ele>122</ele>
        <time>2021-02-20T12:43:57Z</time>
      </trkpt>
      <trkpt lat="43.66509" lon="3.82851">
        <ele>122</ele>
        <time>2021-02-20T12:43:58Z</time>
      </trkpt>
      <trkpt lat="43.66513" lon="3.82849">
        <ele>122</ele>
        <time>2021-02-20T12:43:59Z</time>
      </trkpt>
      <trkpt lat="43.66518" lon="3.82846">
        <ele>122</ele>
        <time>2021-02-20T12:44:00Z</time>
      </trkpt>
      <trkpt lat="43.66524" lon="3.82842">
        <ele>122</ele>
        <time>2021-02-20T12:44:01Z</time>
      </trkpt>
      <trkpt lat="43.66529" lon="3.8284">
        <ele>122</ele>
        <time>2021-02-20T12:44:02Z</time>
      </trkpt>
      <trkpt lat="43.66534" lon="3.82836">
        <ele>122</ele>
        <time>2021-02-20T12:44:03Z</time>
      </trkpt>
      <trkpt lat="43.6654" lon="3.82833">
        <ele>122</ele>
        <time>2021-02-20T12:44:04Z</time>
      </trkpt>
      <trkpt lat="43.66545" lon="3.82829">
        <ele>122</ele>
        <time>2021-02-20T12:44:05Z</time>
      </trkpt>
      <trkpt lat="43.6655" lon="3.82825">
        <ele>122</ele>
        <time>2021-02-20T12:44:06Z</time>
      </trkpt>
      <trkpt lat="43.66554" lon="3.82821">
        <ele>122</ele>
        <time>2021-02-20T12:44:07Z</time>
      </trkpt>
      <trkpt lat="43.66559" lon="3.82818">
        <ele>122</ele>
        <time>2021-02-20T12:44:08Z</time>
      </trkpt>
      <trkpt lat="43.66563" lon="3.82814">
        <ele>122</ele>
        <time>2021-02-20T12:44:09Z</time>
      </trkpt>
      <trkpt lat="43.66566" lon="3.8281">
        <ele>122</ele>
        <time>2021-02-20T12:44:10Z</time>
      </trkpt>
      <trkpt lat="43.6657" lon="3.82807">
        <ele>122</ele>
        <time>2021-02-20T12:44:11Z</time>
      </trkpt>
      <trkpt lat="43.66573" lon="3.82805">
        <ele>122</ele>
        <time>2021-02-20T12:44:12Z</time>
      </trkpt>
      <trkpt lat="43.66577" lon="3.82802">
        <ele>122</ele>
        <time>2021-02-20T12:44:13Z</time>
      </trkpt>
      <trkpt lat="43.66582" lon="3.82799">
        <ele>122</ele>
        <time>2021-02-20T12:44:14Z</time>
      </trkpt>
      <trkpt lat="43.66586" lon="3.82795">
        <ele>122</ele>
        <time>2021-02-20T12:44:15Z</time>
      </trkpt>
      <trkpt lat="43.66591" lon="3.82793">
        <ele>122</ele>
        <time>2021-02-20T12:44:16Z</time>
      </trkpt>
      <trkpt lat="43.66594" lon="3.82791">
        <ele>122</ele>
        <time>2021-02-20T12:44:17Z</time>
      </trkpt>
      <trkpt lat="43.66597" lon="3.82788">
        <ele>122</ele>
        <time>2021-02-20T12:44:18Z</time>
      </trkpt>
      <trkpt lat="43.66602" lon="3.82785">
        <ele>122</ele>
        <time>2021-02-20T12:44:19Z</time>
      </trkpt>
      <trkpt lat="43.66606" lon="3.82781">
        <ele>122</ele>
        <time>2021-02-20T12:44:20Z</time>
      </trkpt>
      <trkpt lat="43.66611" lon="3.82777">
        <ele>122</ele>
        <time>2021-02-20T12:44:21Z</time>
      </trkpt>
      <trkpt lat="43.66615" lon="3.82773">
        <ele>122</ele>
        <time>2021-02-20T12:44:22Z</time>
      </trkpt>
      <trkpt lat="43.66619" lon="3.82771">
        <ele>122</ele>
        <time>2021-02-20T12:44:23Z</time>
      </trkpt>
      <trkpt lat="43.66623" lon="3.82768">
        <ele>122</ele>
        <time>2021-02-20T12:44:24Z</time>
      </trkpt>
      <trkpt lat="43.66626" lon="3.82766">
        <ele>122</ele>
        <time>2021-02-20T12:44:25Z</time>
      </trkpt>
      <trkpt lat="43.6663" lon="3.82763">
        <ele>121</ele>
        <time>2021-02-20T12:44:26Z</time>
      </trkpt>
      <trkpt lat="43.66634" lon="3.82759">
        <ele>121</ele>
        <time>2021-02-20T12:44:27Z</time>
      </trkpt>
      <trkpt lat="43.66638" lon="3.82756">
        <ele>121</ele>
        <time>2021-02-20T12:44:28Z</time>
      </trkpt>
      <trkpt lat="43.66642" lon="3.82753">
        <ele>121</ele>
        <time>2021-02-20T12:44:29Z</time>
      </trkpt>
      <trkpt lat="43.66646" lon="3.8275">
        <ele>121</ele>
        <time>2021-02-20T12:44:30Z</time>
      </trkpt>
      <trkpt lat="43.6665" lon="3.82745">
        <ele>121</ele>
        <time>2021-02-20T12:44:31Z</time>
      </trkpt>
      <trkpt lat="43.66654" lon="3.82741">
        <ele>121</ele>
        <time>2021-02-20T12:44:32Z</time>
      </trkpt>
      <trkpt lat="43.66658" lon="3.82737">
        <ele>121</ele>
        <time>2021-02-20T12:44:33Z</time>
      </trkpt>
      <trkpt lat="43.6666" lon="3.82733">
        <ele>121</ele>
        <time>2021-02-20T12:44:34Z</time>
      </trkpt>
      <trkpt lat="43.66663" lon="3.82729">
        <ele>121</ele>
        <time>2021-02-20T12:44:35Z</time>
      </trkpt>
      <trkpt lat="43.66665" lon="3.82726">
        <ele>119</ele>
        <time>2021-02-20T12:44:36Z</time>
      </trkpt>
      <trkpt lat="43.66666" lon="3.82724">
        <ele>119</ele>
        <time>2021-02-20T12:44:37Z</time>
      </trkpt>
      <trkpt lat="43.66668" lon="3.82721">
        <ele>119</ele>
        <time>2021-02-20T12:44:39Z</time>
      </trkpt>
      <trkpt lat="43.66671" lon="3.82723">
        <ele>119</ele>
        <time>2021-02-20T12:44:41Z</time>
      </trkpt>
      <trkpt lat="43.66671" lon="3.82727">
        <ele>119</ele>
        <time>2021-02-20T12:44:43Z</time>
      </trkpt>
      <trkpt lat="43.66669" lon="3.82728">
        <ele>119</ele>
        <time>2021-02-20T12:44:45Z</time>
      </trkpt>
      <trkpt lat="43.66668" lon="3.82725">
        <ele>119</ele>
        <time>2021-02-20T12:44:47Z</time>
      </trkpt>
      <trkpt lat="43.6667" lon="3.82722">
        <ele>119</ele>
        <time>2021-02-20T12:44:49Z</time>
      </trkpt>
      <trkpt lat="43.66673" lon="3.8272">
        <ele>119</ele>
        <time>2021-02-20T12:44:54Z</time>
      </trkpt>
      <trkpt lat="43.66675" lon="3.82718">
        <ele>119</ele>
        <time>2021-02-20T12:44:55Z</time>
      </trkpt>
      <trkpt lat="43.66677" lon="3.82715">
        <ele>119</ele>
        <time>2021-02-20T12:44:56Z</time>
      </trkpt>
      <trkpt lat="43.66679" lon="3.82712">
        <ele>119</ele>
        <time>2021-02-20T12:44:57Z</time>
      </trkpt>
      <trkpt lat="43.66682" lon="3.8271">
        <ele>119</ele>
        <time>2021-02-20T12:44:58Z</time>
      </trkpt>
      <trkpt lat="43.66686" lon="3.82706">
        <ele>119</ele>
        <time>2021-02-20T12:44:59Z</time>
      </trkpt>
      <trkpt lat="43.66689" lon="3.82702">
        <ele>119</ele>
        <time>2021-02-20T12:45:00Z</time>
      </trkpt>
      <trkpt lat="43.66692" lon="3.82696">
        <ele>119</ele>
        <time>2021-02-20T12:45:01Z</time>
      </trkpt>
      <trkpt lat="43.66694" lon="3.82692">
        <ele>119</ele>
        <time>2021-02-20T12:45:02Z</time>
      </trkpt>
      <trkpt lat="43.66697" lon="3.82689">
        <ele>119</ele>
        <time>2021-02-20T12:45:03Z</time>
      </trkpt>
      <trkpt lat="43.667" lon="3.82687">
        <ele>119</ele>
        <time>2021-02-20T12:45:04Z</time>
      </trkpt>
      <trkpt lat="43.66703" lon="3.82686">
        <ele>119</ele>
        <time>2021-02-20T12:45:05Z</time>
      </trkpt>
      <trkpt lat="43.66706" lon="3.82684">
        <ele>118</ele>
        <time>2021-02-20T12:45:06Z</time>
      </trkpt>
      <trkpt lat="43.66708" lon="3.82682">
        <ele>118</ele>
        <time>2021-02-20T12:45:07Z</time>
      </trkpt>
      <trkpt lat="43.6671" lon="3.82679">
        <ele>118</ele>
        <time>2021-02-20T12:45:08Z</time>
      </trkpt>
      <trkpt lat="43.66711" lon="3.82676">
        <ele>118</ele>
        <time>2021-02-20T12:45:09Z</time>
      </trkpt>
      <trkpt lat="43.66713" lon="3.82673">
        <ele>118</ele>
        <time>2021-02-20T12:45:10Z</time>
      </trkpt>
      <trkpt lat="43.66715" lon="3.8267">
        <ele>118</ele>
        <time>2021-02-20T12:45:11Z</time>
      </trkpt>
      <trkpt lat="43.66716" lon="3.82668">
        <ele>118</ele>
        <time>2021-02-20T12:45:12Z</time>
      </trkpt>
      <trkpt lat="43.66719" lon="3.82666">
        <ele>118</ele>
        <time>2021-02-20T12:45:13Z</time>
      </trkpt>
      <trkpt lat="43.66721" lon="3.82665">
        <ele>118</ele>
        <time>2021-02-20T12:45:14Z</time>
      </trkpt>
      <trkpt lat="43.66723" lon="3.82664">
        <ele>118</ele>
        <time>2021-02-20T12:45:15Z</time>
      </trkpt>
      <trkpt lat="43.66726" lon="3.82662">
        <ele>119</ele>
        <time>2021-02-20T12:45:16Z</time>
      </trkpt>
      <trkpt lat="43.66729" lon="3.8266">
        <ele>119</ele>
        <time>2021-02-20T12:45:17Z</time>
      </trkpt>
      <trkpt lat="43.66732" lon="3.82659">
        <ele>119</ele>
        <time>2021-02-20T12:45:18Z</time>
      </trkpt>
      <trkpt lat="43.66736" lon="3.82657">
        <ele>119</ele>
        <time>2021-02-20T12:45:19Z</time>
      </trkpt>
      <trkpt lat="43.66739" lon="3.82655">
        <ele>119</ele>
        <time>2021-02-20T12:45:20Z</time>
      </trkpt>
      <trkpt lat="43.66742" lon="3.82653">
        <ele>119</ele>
        <time>2021-02-20T12:45:21Z</time>
      </trkpt>
      <trkpt lat="43.66747" lon="3.82649">
        <ele>119</ele>
        <time>2021-02-20T12:45:22Z</time>
      </trkpt>
      <trkpt lat="43.66751" lon="3.82645">
        <ele>119</ele>
        <time>2021-02-20T12:45:23Z</time>
      </trkpt>
      <trkpt lat="43.66756" lon="3.82642">
        <ele>119</ele>
        <time>2021-02-20T12:45:24Z</time>
      </trkpt>
      <trkpt lat="43.6676" lon="3.82639">
        <ele>119</ele>
        <time>2021-02-20T12:45:25Z</time>
      </trkpt>
      <trkpt lat="43.66764" lon="3.82635">
        <ele>119</ele>
        <time>2021-02-20T12:45:26Z</time>
      </trkpt>
      <trkpt lat="43.66767" lon="3.82632">
        <ele>119</ele>
        <time>2021-02-20T12:45:27Z</time>
      </trkpt>
      <trkpt lat="43.66772" lon="3.82629">
        <ele>119</ele>
        <time>2021-02-20T12:45:28Z</time>
      </trkpt>
      <trkpt lat="43.66776" lon="3.82627">
        <ele>119</ele>
        <time>2021-02-20T12:45:29Z</time>
      </trkpt>
      <trkpt lat="43.6678" lon="3.82624">
        <ele>119</ele>
        <time>2021-02-20T12:45:30Z</time>
      </trkpt>
      <trkpt lat="43.66785" lon="3.82621">
        <ele>119</ele>
        <time>2021-02-20T12:45:31Z</time>
      </trkpt>
      <trkpt lat="43.6679" lon="3.82618">
        <ele>119</ele>
        <time>2021-02-20T12:45:32Z</time>
      </trkpt>
      <trkpt lat="43.66794" lon="3.82615">
        <ele>119</ele>
        <time>2021-02-20T12:45:33Z</time>
      </trkpt>
      <trkpt lat="43.66799" lon="3.82612">
        <ele>119</ele>
        <time>2021-02-20T12:45:34Z</time>
      </trkpt>
      <trkpt lat="43.66803" lon="3.82608">
        <ele>119</ele>
        <time>2021-02-20T12:45:35Z</time>
      </trkpt>
      <trkpt lat="43.66807" lon="3.82605">
        <ele>119</ele>
        <time>2021-02-20T12:45:36Z</time>
      </trkpt>
      <trkpt lat="43.6681" lon="3.82601">
        <ele>119</ele>
        <time>2021-02-20T12:45:37Z</time>
      </trkpt>
      <trkpt lat="43.66813" lon="3.82598">
        <ele>119</ele>
        <time>2021-02-20T12:45:38Z</time>
      </trkpt>
      <trkpt lat="43.66815" lon="3.82594">
        <ele>119</ele>
        <time>2021-02-20T12:45:39Z</time>
      </trkpt>
      <trkpt lat="43.66818" lon="3.82591">
        <ele>119</ele>
        <time>2021-02-20T12:45:40Z</time>
      </trkpt>
      <trkpt lat="43.6682" lon="3.82587">
        <ele>119</ele>
        <time>2021-02-20T12:45:41Z</time>
      </trkpt>
      <trkpt lat="43.66822" lon="3.82584">
        <ele>119</ele>
        <time>2021-02-20T12:45:42Z</time>
      </trkpt>
      <trkpt lat="43.66825" lon="3.82582">
        <ele>119</ele>
        <time>2021-02-20T12:45:43Z</time>
      </trkpt>
      <trkpt lat="43.66828" lon="3.82579">
        <ele>119</ele>
        <time>2021-02-20T12:45:44Z</time>
      </trkpt>
      <trkpt lat="43.6683" lon="3.82576">
        <ele>119</ele>
        <time>2021-02-20T12:45:45Z</time>
      </trkpt>
      <trkpt lat="43.66833" lon="3.82574">
        <ele>119</ele>
        <time>2021-02-20T12:45:46Z</time>
      </trkpt>
      <trkpt lat="43.66836" lon="3.82572">
        <ele>119</ele>
        <time>2021-02-20T12:45:47Z</time>
      </trkpt>
      <trkpt lat="43.66839" lon="3.82569">
        <ele>119</ele>
        <time>2021-02-20T12:45:48Z</time>
      </trkpt>
      <trkpt lat="43.66842" lon="3.82567">
        <ele>119</ele>
        <time>2021-02-20T12:45:49Z</time>
      </trkpt>
      <trkpt lat="43.66845" lon="3.82565">
        <ele>119</ele>
        <time>2021-02-20T12:45:50Z</time>
      </trkpt>
      <trkpt lat="43.66849" lon="3.82563">
        <ele>119</ele>
        <time>2021-02-20T12:45:51Z</time>
      </trkpt>
      <trkpt lat="43.66852" lon="3.8256">
        <ele>119</ele>
        <time>2021-02-20T12:45:52Z</time>
      </trkpt>
      <trkpt lat="43.66854" lon="3.82557">
        <ele>119</ele>
        <time>2021-02-20T12:45:53Z</time>
      </trkpt>
      <trkpt lat="43.66856" lon="3.82554">
        <ele>119</ele>
        <time>2021-02-20T12:45:54Z</time>
      </trkpt>
      <trkpt lat="43.66859" lon="3.8255">
        <ele>119</ele>
        <time>2021-02-20T12:45:55Z</time>
      </trkpt>
      <trkpt lat="43.66862" lon="3.82546">
        <ele>119</ele>
        <time>2021-02-20T12:45:56Z</time>
      </trkpt>
      <trkpt lat="43.66865" lon="3.82544">
        <ele>118</ele>
        <time>2021-02-20T12:45:57Z</time>
      </trkpt>
      <trkpt lat="43.66868" lon="3.82541">
        <ele>118</ele>
        <time>2021-02-20T12:45:58Z</time>
      </trkpt>
      <trkpt lat="43.66871" lon="3.82538">
        <ele>118</ele>
        <time>2021-02-20T12:45:59Z</time>
      </trkpt>
      <trkpt lat="43.66874" lon="3.82535">
        <ele>118</ele>
        <time>2021-02-20T12:46:00Z</time>
      </trkpt>
      <trkpt lat="43.66878" lon="3.82532">
        <ele>118</ele>
        <time>2021-02-20T12:46:01Z</time>
      </trkpt>
      <trkpt lat="43.66882" lon="3.82529">
        <ele>118</ele>
        <time>2021-02-20T12:46:02Z</time>
      </trkpt>
      <trkpt lat="43.66886" lon="3.82526">
        <ele>118</ele>
        <time>2021-02-20T12:46:03Z</time>
      </trkpt>
      <trkpt lat="43.66891" lon="3.82523">
        <ele>118</ele>
        <time>2021-02-20T12:46:04Z</time>
      </trkpt>
      <trkpt lat="43.66894" lon="3.82519">
        <ele>118</ele>
        <time>2021-02-20T12:46:05Z</time>
      </trkpt>
      <trkpt lat="43.66898" lon="3.82515">
        <ele>118</ele>
        <time>2021-02-20T12:46:06Z</time>
      </trkpt>
      <trkpt lat="43.66901" lon="3.82512">
        <ele>118</ele>
        <time>2021-02-20T12:46:07Z</time>
      </trkpt>
      <trkpt lat="43.66904" lon="3.82509">
        <ele>118</ele>
        <time>2021-02-20T12:46:08Z</time>
      </trkpt>
      <trkpt lat="43.66906" lon="3.82506">
        <ele>118</ele>
        <time>2021-02-20T12:46:09Z</time>
      </trkpt>
      <trkpt lat="43.66908" lon="3.82504">
        <ele>118</ele>
        <time>2021-02-20T12:46:10Z</time>
      </trkpt>
      <trkpt lat="43.66909" lon="3.82502">
        <ele>118</ele>
        <time>2021-02-20T12:46:11Z</time>
      </trkpt>
      <trkpt lat="43.66912" lon="3.82501">
        <ele>118</ele>
        <time>2021-02-20T12:46:12Z</time>
      </trkpt>
      <trkpt lat="43.66914" lon="3.825">
        <ele>118</ele>
        <time>2021-02-20T12:46:13Z</time>
      </trkpt>
      <trkpt lat="43.66917" lon="3.82497">
        <ele>118</ele>
        <time>2021-02-20T12:46:14Z</time>
      </trkpt>
      <trkpt lat="43.66919" lon="3.82495">
        <ele>118</ele>
        <time>2021-02-20T12:46:15Z</time>
      </trkpt>
      <trkpt lat="43.66921" lon="3.82492">
        <ele>119</ele>
        <time>2021-02-20T12:46:16Z</time>
      </trkpt>
      <trkpt lat="43.66923" lon="3.8249">
        <ele>119</ele>
        <time>2021-02-20T12:46:17Z</time>
      </trkpt>
      <trkpt lat="43.66925" lon="3.82487">
        <ele>119</ele>
        <time>2021-02-20T12:46:18Z</time>
      </trkpt>
      <trkpt lat="43.66927" lon="3.82484">
        <ele>119</ele>
        <time>2021-02-20T12:46:19Z</time>
      </trkpt>
      <trkpt lat="43.66929" lon="3.82482">
        <ele>119</ele>
        <time>2021-02-20T12:46:20Z</time>
      </trkpt>
      <trkpt lat="43.66932" lon="3.8248">
        <ele>119</ele>
        <time>2021-02-20T12:46:21Z</time>
      </trkpt>
      <trkpt lat="43.66934" lon="3.82477">
        <ele>119</ele>
        <time>2021-02-20T12:46:22Z</time>
      </trkpt>
      <trkpt lat="43.66936" lon="3.82475">
        <ele>119</ele>
        <time>2021-02-20T12:46:23Z</time>
      </trkpt>
      <trkpt lat="43.66938" lon="3.82473">
        <ele>119</ele>
        <time>2021-02-20T12:46:24Z</time>
      </trkpt>
      <trkpt lat="43.6694" lon="3.82471">
        <ele>119</ele>
        <time>2021-02-20T12:46:25Z</time>
      </trkpt>
      <trkpt lat="43.66942" lon="3.82469">
        <ele>119</ele>
        <time>2021-02-20T12:46:26Z</time>
      </trkpt>
      <trkpt lat="43.66945" lon="3.82466">
        <ele>119</ele>
        <time>2021-02-20T12:46:27Z</time>
      </trkpt>
      <trkpt lat="43.66949" lon="3.82463">
        <ele>119</ele>
        <time>2021-02-20T12:46:28Z</time>
      </trkpt>
      <trkpt lat="43.66953" lon="3.8246">
        <ele>119</ele>
        <time>2021-02-20T12:46:29Z</time>
      </trkpt>
      <trkpt lat="43.66956" lon="3.82457">
        <ele>119</ele>
        <time>2021-02-20T12:46:30Z</time>
      </trkpt>
      <trkpt lat="43.66958" lon="3.82453">
        <ele>119</ele>
        <time>2021-02-20T12:46:31Z</time>
      </trkpt>
      <trkpt lat="43.66962" lon="3.82449">
        <ele>119</ele>
        <time>2021-02-20T12:46:32Z</time>
      </trkpt>
      <trkpt lat="43.66965" lon="3.82445">
        <ele>119</ele>
        <time>2021-02-20T12:46:33Z</time>
      </trkpt>
      <trkpt lat="43.66969" lon="3.82442">
        <ele>119</ele>
        <time>2021-02-20T12:46:34Z</time>
      </trkpt>
      <trkpt lat="43.66973" lon="3.82439">
        <ele>119</ele>
        <time>2021-02-20T12:46:35Z</time>
      </trkpt>
      <trkpt lat="43.66977" lon="3.82436">
        <ele>118</ele>
        <time>2021-02-20T12:46:36Z</time>
      </trkpt>
      <trkpt lat="43.6698" lon="3.82432">
        <ele>118</ele>
        <time>2021-02-20T12:46:37Z</time>
      </trkpt>
      <trkpt lat="43.66982" lon="3.82428">
        <ele>118</ele>
        <time>2021-02-20T12:46:38Z</time>
      </trkpt>
      <trkpt lat="43.66983" lon="3.82423">
        <ele>118</ele>
        <time>2021-02-20T12:46:39Z</time>
      </trkpt>
      <trkpt lat="43.66984" lon="3.82418">
        <ele>118</ele>
        <time>2021-02-20T12:46:40Z</time>
      </trkpt>
      <trkpt lat="43.66987" lon="3.82413">
        <ele>118</ele>
        <time>2021-02-20T12:46:41Z</time>
      </trkpt>
      <trkpt lat="43.66989" lon="3.82411">
        <ele>118</ele>
        <time>2021-02-20T12:46:42Z</time>
      </trkpt>
      <trkpt lat="43.66991" lon="3.82409">
        <ele>118</ele>
        <time>2021-02-20T12:46:43Z</time>
      </trkpt>
      <trkpt lat="43.66993" lon="3.82408">
        <ele>118</ele>
        <time>2021-02-20T12:46:44Z</time>
      </trkpt>
      <trkpt lat="43.66995" lon="3.82406">
        <ele>118</ele>
        <time>2021-02-20T12:46:45Z</time>
      </trkpt>
      <trkpt lat="43.66998" lon="3.82405">
        <ele>119</ele>
        <time>2021-02-20T12:46:46Z</time>
      </trkpt>
      <trkpt lat="43.67" lon="3.82403">
        <ele>119</ele>
        <time>2021-02-20T12:46:47Z</time>
      </trkpt>
      <trkpt lat="43.67002" lon="3.82401">
        <ele>119</ele>
        <time>2021-02-20T12:46:48Z</time>
      </trkpt>
      <trkpt lat="43.67004" lon="3.824">
        <ele>119</ele>
        <time>2021-02-20T12:46:49Z</time>
      </trkpt>
      <trkpt lat="43.67006" lon="3.82398">
        <ele>119</ele>
        <time>2021-02-20T12:46:50Z</time>
      </trkpt>
      <trkpt lat="43.67008" lon="3.82397">
        <ele>119</ele>
        <time>2021-02-20T12:46:51Z</time>
      </trkpt>
      <trkpt lat="43.67009" lon="3.82395">
        <ele>119</ele>
        <time>2021-02-20T12:46:52Z</time>
      </trkpt>
      <trkpt lat="43.67011" lon="3.82393">
        <ele>119</ele>
        <time>2021-02-20T12:46:53Z</time>
      </trkpt>
      <trkpt lat="43.67013" lon="3.82391">
        <ele>119</ele>
        <time>2021-02-20T12:46:54Z</time>
      </trkpt>
      <trkpt lat="43.67014" lon="3.82388">
        <ele>119</ele>
        <time>2021-02-20T12:46:55Z</time>
      </trkpt>
      <trkpt lat="43.67015" lon="3.82386">
        <ele>121</ele>
        <time>2021-02-20T12:46:56Z</time>
      </trkpt>
      <trkpt lat="43.67016" lon="3.82383">
        <ele>121</ele>
        <time>2021-02-20T12:46:57Z</time>
      </trkpt>
      <trkpt lat="43.67016" lon="3.82379">
        <ele>121</ele>
        <time>2021-02-20T12:46:59Z</time>
      </trkpt>
      <trkpt lat="43.67018" lon="3.82376">
        <ele>121</ele>
        <time>2021-02-20T12:47:00Z</time>
      </trkpt>
      <trkpt lat="43.6702" lon="3.82372">
        <ele>121</ele>
        <time>2021-02-20T12:47:01Z</time>
      </trkpt>
      <trkpt lat="43.67022" lon="3.82369">
        <ele>121</ele>
        <time>2021-02-20T12:47:02Z</time>
      </trkpt>
      <trkpt lat="43.67024" lon="3.82365">
        <ele>121</ele>
        <time>2021-02-20T12:47:03Z</time>
      </trkpt>
      <trkpt lat="43.67025" lon="3.82361">
        <ele>121</ele>
        <time>2021-02-20T12:47:04Z</time>
      </trkpt>
      <trkpt lat="43.67026" lon="3.82358">
        <ele>121</ele>
        <time>2021-02-20T12:47:05Z</time>
      </trkpt>
      <trkpt lat="43.67027" lon="3.82354">
        <ele>121</ele>
        <time>2021-02-20T12:47:06Z</time>
      </trkpt>
      <trkpt lat="43.67027" lon="3.82351">
        <ele>121</ele>
        <time>2021-02-20T12:47:07Z</time>
      </trkpt>
      <trkpt lat="43.67028" lon="3.82347">
        <ele>121</ele>
        <time>2021-02-20T12:47:08Z</time>
      </trkpt>
      <trkpt lat="43.67028" lon="3.82344">
        <ele>121</ele>
        <time>2021-02-20T12:47:09Z</time>
      </trkpt>
      <trkpt lat="43.67029" lon="3.8234">
        <ele>121</ele>
        <time>2021-02-20T12:47:10Z</time>
      </trkpt>
      <trkpt lat="43.6703" lon="3.82336">
        <ele>121</ele>
        <time>2021-02-20T12:47:11Z</time>
      </trkpt>
      <trkpt lat="43.67031" lon="3.82333">
        <ele>121</ele>
        <time>2021-02-20T12:47:12Z</time>
      </trkpt>
      <trkpt lat="43.67032" lon="3.8233">
        <ele>121</ele>
        <time>2021-02-20T12:47:13Z</time>
      </trkpt>
      <trkpt lat="43.67033" lon="3.82327">
        <ele>121</ele>
        <time>2021-02-20T12:47:14Z</time>
      </trkpt>
      <trkpt lat="43.67034" lon="3.82324">
        <ele>121</ele>
        <time>2021-02-20T12:47:15Z</time>
      </trkpt>
      <trkpt lat="43.67035" lon="3.82321">
        <ele>123</ele>
        <time>2021-02-20T12:47:16Z</time>
      </trkpt>
      <trkpt lat="43.67036" lon="3.82318">
        <ele>123</ele>
        <time>2021-02-20T12:47:17Z</time>
      </trkpt>
      <trkpt lat="43.67038" lon="3.82315">
        <ele>123</ele>
        <time>2021-02-20T12:47:18Z</time>
      </trkpt>
      <trkpt lat="43.67039" lon="3.82313">
        <ele>123</ele>
        <time>2021-02-20T12:47:19Z</time>
      </trkpt>
      <trkpt lat="43.6704" lon="3.8231">
        <ele>123</ele>
        <time>2021-02-20T12:47:20Z</time>
      </trkpt>
      <trkpt lat="43.67041" lon="3.82307">
        <ele>123</ele>
        <time>2021-02-20T12:47:21Z</time>
      </trkpt>
      <trkpt lat="43.67042" lon="3.82304">
        <ele>123</ele>
        <time>2021-02-20T12:47:22Z</time>
      </trkpt>
      <trkpt lat="43.67043" lon="3.82301">
        <ele>123</ele>
        <time>2021-02-20T12:47:23Z</time>
      </trkpt>
      <trkpt lat="43.67044" lon="3.82298">
        <ele>123</ele>
        <time>2021-02-20T12:47:24Z</time>
      </trkpt>
      <trkpt lat="43.67044" lon="3.82295">
        <ele>123</ele>
        <time>2021-02-20T12:47:25Z</time>
      </trkpt>
      <trkpt lat="43.67045" lon="3.82293">
        <ele>125</ele>
        <time>2021-02-20T12:47:26Z</time>
      </trkpt>
      <trkpt lat="43.67046" lon="3.82289">
        <ele>125</ele>
        <time>2021-02-20T12:47:27Z</time>
      </trkpt>
      <trkpt lat="43.67047" lon="3.82286">
        <ele>125</ele>
        <time>2021-02-20T12:47:28Z</time>
      </trkpt>
      <trkpt lat="43.67048" lon="3.82283">
        <ele>125</ele>
        <time>2021-02-20T12:47:29Z</time>
      </trkpt>
      <trkpt lat="43.6705" lon="3.8228">
        <ele>125</ele>
        <time>2021-02-20T12:47:30Z</time>
      </trkpt>
      <trkpt lat="43.67051" lon="3.82277">
        <ele>125</ele>
        <time>2021-02-20T12:47:31Z</time>
      </trkpt>
      <trkpt lat="43.67052" lon="3.82274">
        <ele>125</ele>
        <time>2021-02-20T12:47:32Z</time>
      </trkpt>
      <trkpt lat="43.67052" lon="3.82271">
        <ele>125</ele>
        <time>2021-02-20T12:47:33Z</time>
      </trkpt>
      <trkpt lat="43.67053" lon="3.82268">
        <ele>125</ele>
        <time>2021-02-20T12:47:34Z</time>
      </trkpt>
      <trkpt lat="43.67053" lon="3.82265">
        <ele>125</ele>
        <time>2021-02-20T12:47:35Z</time>
      </trkpt>
      <trkpt lat="43.67054" lon="3.82262">
        <ele>127</ele>
        <time>2021-02-20T12:47:36Z</time>
      </trkpt>
      <trkpt lat="43.67055" lon="3.82258">
        <ele>127</ele>
        <time>2021-02-20T12:47:37Z</time>
      </trkpt>
      <trkpt lat="43.67055" lon="3.82255">
        <ele>127</ele>
        <time>2021-02-20T12:47:38Z</time>
      </trkpt>
      <trkpt lat="43.67055" lon="3.82253">
        <ele>127</ele>
        <time>2021-02-20T12:47:39Z</time>
      </trkpt>
      <trkpt lat="43.67056" lon="3.82249">
        <ele>127</ele>
        <time>2021-02-20T12:47:41Z</time>
      </trkpt>
      <trkpt lat="43.67057" lon="3.82244">
        <ele>127</ele>
        <time>2021-02-20T12:47:43Z</time>
      </trkpt>
      <trkpt lat="43.67059" lon="3.82239">
        <ele>127</ele>
        <time>2021-02-20T12:47:45Z</time>
      </trkpt>
      <trkpt lat="43.6706" lon="3.82235">
        <ele>127</ele>
        <time>2021-02-20T12:47:47Z</time>
      </trkpt>
      <trkpt lat="43.6706" lon="3.82232">
        <ele>127</ele>
        <time>2021-02-20T12:47:48Z</time>
      </trkpt>
      <trkpt lat="43.67062" lon="3.82229">
        <ele>127</ele>
        <time>2021-02-20T12:47:49Z</time>
      </trkpt>
      <trkpt lat="43.67064" lon="3.82226">
        <ele>127</ele>
        <time>2021-02-20T12:47:51Z</time>
      </trkpt>
      <trkpt lat="43.67066" lon="3.82229">
        <ele>127</ele>
        <time>2021-02-20T12:47:53Z</time>
      </trkpt>
      <trkpt lat="43.67067" lon="3.82232">
        <ele>127</ele>
        <time>2021-02-20T12:47:54Z</time>
      </trkpt>
      <trkpt lat="43.67067" lon="3.82234">
        <ele>127</ele>
        <time>2021-02-20T12:47:55Z</time>
      </trkpt>
      <trkpt lat="43.67066" lon="3.82237">
        <ele>129</ele>
        <time>2021-02-20T12:47:56Z</time>
      </trkpt>
      <trkpt lat="43.67065" lon="3.8224">
        <ele>129</ele>
        <time>2021-02-20T12:47:57Z</time>
      </trkpt>
      <trkpt lat="43.67063" lon="3.82243">
        <ele>129</ele>
        <time>2021-02-20T12:47:58Z</time>
      </trkpt>
      <trkpt lat="43.67063" lon="3.82245">
        <ele>129</ele>
        <time>2021-02-20T12:47:59Z</time>
      </trkpt>
      <trkpt lat="43.67063" lon="3.82249">
        <ele>129</ele>
        <time>2021-02-20T12:48:00Z</time>
      </trkpt>
      <trkpt lat="43.67064" lon="3.82252">
        <ele>129</ele>
        <time>2021-02-20T12:48:01Z</time>
      </trkpt>
      <trkpt lat="43.67066" lon="3.82254">
        <ele>129</ele>
        <time>2021-02-20T12:48:02Z</time>
      </trkpt>
      <trkpt lat="43.67068" lon="3.82255">
        <ele>129</ele>
        <time>2021-02-20T12:48:03Z</time>
      </trkpt>
      <trkpt lat="43.6707" lon="3.82256">
        <ele>129</ele>
        <time>2021-02-20T12:48:04Z</time>
      </trkpt>
      <trkpt lat="43.67071" lon="3.82255">
        <ele>129</ele>
        <time>2021-02-20T12:48:05Z</time>
      </trkpt>
      <trkpt lat="43.67073" lon="3.82255">
        <ele>128</ele>
        <time>2021-02-20T12:48:06Z</time>
      </trkpt>
      <trkpt lat="43.67075" lon="3.82256">
        <ele>128</ele>
        <time>2021-02-20T12:48:07Z</time>
      </trkpt>
      <trkpt lat="43.67078" lon="3.82257">
        <ele>128</ele>
        <time>2021-02-20T12:48:08Z</time>
      </trkpt>
      <trkpt lat="43.67081" lon="3.82259">
        <ele>128</ele>
        <time>2021-02-20T12:48:09Z</time>
      </trkpt>
      <trkpt lat="43.67084" lon="3.82263">
        <ele>128</ele>
        <time>2021-02-20T12:48:10Z</time>
      </trkpt>
      <trkpt lat="43.67088" lon="3.82267">
        <ele>128</ele>
        <time>2021-02-20T12:48:11Z</time>
      </trkpt>
      <trkpt lat="43.67092" lon="3.82271">
        <ele>128</ele>
        <time>2021-02-20T12:48:12Z</time>
      </trkpt>
      <trkpt lat="43.67096" lon="3.82274">
        <ele>128</ele>
        <time>2021-02-20T12:48:13Z</time>
      </trkpt>
      <trkpt lat="43.67098" lon="3.82277">
        <ele>128</ele>
        <time>2021-02-20T12:48:14Z</time>
      </trkpt>
      <trkpt lat="43.67101" lon="3.82282">
        <ele>128</ele>
        <time>2021-02-20T12:48:15Z</time>
      </trkpt>
      <trkpt lat="43.67105" lon="3.82287">
        <ele>125</ele>
        <time>2021-02-20T12:48:16Z</time>
      </trkpt>
      <trkpt lat="43.67113" lon="3.82295">
        <ele>125</ele>
        <time>2021-02-20T12:48:18Z</time>
      </trkpt>
      <trkpt lat="43.67118" lon="3.82298">
        <ele>125</ele>
        <time>2021-02-20T12:48:19Z</time>
      </trkpt>
      <trkpt lat="43.67124" lon="3.82301">
        <ele>125</ele>
        <time>2021-02-20T12:48:20Z</time>
      </trkpt>
      <trkpt lat="43.67128" lon="3.82305">
        <ele>125</ele>
        <time>2021-02-20T12:48:21Z</time>
      </trkpt>
      <trkpt lat="43.67131" lon="3.82308">
        <ele>125</ele>
        <time>2021-02-20T12:48:22Z</time>
      </trkpt>
      <trkpt lat="43.67133" lon="3.8231">
        <ele>125</ele>
        <time>2021-02-20T12:48:23Z</time>
      </trkpt>
      <trkpt lat="43.67135" lon="3.8231">
        <ele>125</ele>
        <time>2021-02-20T12:48:24Z</time>
      </trkpt>
      <trkpt lat="43.67138" lon="3.82307">
        <ele>125</ele>
        <time>2021-02-20T12:48:26Z</time>
      </trkpt>
      <trkpt lat="43.67139" lon="3.82305">
        <ele>125</ele>
        <time>2021-02-20T12:48:27Z</time>
      </trkpt>
      <trkpt lat="43.67141" lon="3.82303">
        <ele>125</ele>
        <time>2021-02-20T12:48:28Z</time>
      </trkpt>
      <trkpt lat="43.67142" lon="3.823">
        <ele>125</ele>
        <time>2021-02-20T12:48:29Z</time>
      </trkpt>
      <trkpt lat="43.67143" lon="3.82297">
        <ele>125</ele>
        <time>2021-02-20T12:48:30Z</time>
      </trkpt>
      <trkpt lat="43.67144" lon="3.82293">
        <ele>125</ele>
        <time>2021-02-20T12:48:31Z</time>
      </trkpt>
      <trkpt lat="43.67146" lon="3.82289">
        <ele>125</ele>
        <time>2021-02-20T12:48:32Z</time>
      </trkpt>
      <trkpt lat="43.67148" lon="3.82285">
        <ele>125</ele>
        <time>2021-02-20T12:48:33Z</time>
      </trkpt>
      <trkpt lat="43.67151" lon="3.82282">
        <ele>125</ele>
        <time>2021-02-20T12:48:34Z</time>
      </trkpt>
      <trkpt lat="43.67153" lon="3.82278">
        <ele>125</ele>
        <time>2021-02-20T12:48:35Z</time>
      </trkpt>
      <trkpt lat="43.67155" lon="3.82274">
        <ele>124</ele>
        <time>2021-02-20T12:48:36Z</time>
      </trkpt>
      <trkpt lat="43.67157" lon="3.8227">
        <ele>124</ele>
        <time>2021-02-20T12:48:37Z</time>
      </trkpt>
      <trkpt lat="43.67159" lon="3.82267">
        <ele>124</ele>
        <time>2021-02-20T12:48:38Z</time>
      </trkpt>
      <trkpt lat="43.67161" lon="3.82264">
        <ele>124</ele>
        <time>2021-02-20T12:48:39Z</time>
      </trkpt>
      <trkpt lat="43.67163" lon="3.82261">
        <ele>124</ele>
        <time>2021-02-20T12:48:40Z</time>
      </trkpt>
      <trkpt lat="43.67166" lon="3.82258">
        <ele>124</ele>
        <time>2021-02-20T12:48:41Z</time>
      </trkpt>
      <trkpt lat="43.67168" lon="3.82255">
        <ele>124</ele>
        <time>2021-02-20T12:48:42Z</time>
      </trkpt>
      <trkpt lat="43.6717" lon="3.82252">
        <ele>124</ele>
        <time>2021-02-20T12:48:43Z</time>
      </trkpt>
      <trkpt lat="43.67172" lon="3.8225">
        <ele>124</ele>
        <time>2021-02-20T12:48:44Z</time>
      </trkpt>
      <trkpt lat="43.67173" lon="3.82247">
        <ele>124</ele>
        <time>2021-02-20T12:48:45Z</time>
      </trkpt>
      <trkpt lat="43.67175" lon="3.82244">
        <ele>126</ele>
        <time>2021-02-20T12:48:46Z</time>
      </trkpt>
      <trkpt lat="43.67177" lon="3.82242">
        <ele>126</ele>
        <time>2021-02-20T12:48:47Z</time>
      </trkpt>
      <trkpt lat="43.67178" lon="3.8224">
        <ele>126</ele>
        <time>2021-02-20T12:48:48Z</time>
      </trkpt>
      <trkpt lat="43.6718" lon="3.82238">
        <ele>126</ele>
        <time>2021-02-20T12:48:49Z</time>
      </trkpt>
      <trkpt lat="43.67182" lon="3.82236">
        <ele>126</ele>
        <time>2021-02-20T12:48:50Z</time>
      </trkpt>
      <trkpt lat="43.67183" lon="3.82234">
        <ele>126</ele>
        <time>2021-02-20T12:48:51Z</time>
      </trkpt>
      <trkpt lat="43.67185" lon="3.82232">
        <ele>126</ele>
        <time>2021-02-20T12:48:52Z</time>
      </trkpt>
      <trkpt lat="43.67187" lon="3.8223">
        <ele>126</ele>
        <time>2021-02-20T12:48:53Z</time>
      </trkpt>
      <trkpt lat="43.67188" lon="3.82228">
        <ele>126</ele>
        <time>2021-02-20T12:48:54Z</time>
      </trkpt>
      <trkpt lat="43.6719" lon="3.82226">
        <ele>126</ele>
        <time>2021-02-20T12:48:55Z</time>
      </trkpt>
      <trkpt lat="43.67191" lon="3.82224">
        <ele>127</ele>
        <time>2021-02-20T12:48:56Z</time>
      </trkpt>
      <trkpt lat="43.67193" lon="3.82222">
        <ele>127</ele>
        <time>2021-02-20T12:48:57Z</time>
      </trkpt>
      <trkpt lat="43.67195" lon="3.8222">
        <ele>127</ele>
        <time>2021-02-20T12:48:58Z</time>
      </trkpt>
      <trkpt lat="43.67196" lon="3.82218">
        <ele>127</ele>
        <time>2021-02-20T12:48:59Z</time>
      </trkpt>
      <trkpt lat="43.67198" lon="3.82216">
        <ele>127</ele>
        <time>2021-02-20T12:49:00Z</time>
      </trkpt>
      <trkpt lat="43.672" lon="3.82212">
        <ele>127</ele>
        <time>2021-02-20T12:49:02Z</time>
      </trkpt>
      <trkpt lat="43.67202" lon="3.82208">
        <ele>127</ele>
        <time>2021-02-20T12:49:04Z</time>
      </trkpt>
      <trkpt lat="43.67203" lon="3.82206">
        <ele>127</ele>
        <time>2021-02-20T12:49:05Z</time>
      </trkpt>
      <trkpt lat="43.67204" lon="3.82202">
        <ele>127</ele>
        <time>2021-02-20T12:49:07Z</time>
      </trkpt>
      <trkpt lat="43.67204" lon="3.82198">
        <ele>127</ele>
        <time>2021-02-20T12:49:09Z</time>
      </trkpt>
      <trkpt lat="43.67207" lon="3.82195">
        <ele>127</ele>
        <time>2021-02-20T12:49:11Z</time>
      </trkpt>
      <trkpt lat="43.67209" lon="3.82193">
        <ele>127</ele>
        <time>2021-02-20T12:49:13Z</time>
      </trkpt>
      <trkpt lat="43.67211" lon="3.82191">
        <ele>127</ele>
        <time>2021-02-20T12:49:15Z</time>
      </trkpt>
      <trkpt lat="43.67213" lon="3.82187">
        <ele>127</ele>
        <time>2021-02-20T12:49:17Z</time>
      </trkpt>
      <trkpt lat="43.67213" lon="3.82184">
        <ele>127</ele>
        <time>2021-02-20T12:49:19Z</time>
      </trkpt>
      <trkpt lat="43.67213" lon="3.82181">
        <ele>127</ele>
        <time>2021-02-20T12:49:21Z</time>
      </trkpt>
      <trkpt lat="43.67213" lon="3.82178">
        <ele>127</ele>
        <time>2021-02-20T12:49:23Z</time>
      </trkpt>
      <trkpt lat="43.67215" lon="3.82174">
        <ele>127</ele>
        <time>2021-02-20T12:49:25Z</time>
      </trkpt>
      <trkpt lat="43.67218" lon="3.82172">
        <ele>127</ele>
        <time>2021-02-20T12:49:27Z</time>
      </trkpt>
      <trkpt lat="43.67221" lon="3.82172">
        <ele>127</ele>
        <time>2021-02-20T12:49:29Z</time>
      </trkpt>
      <trkpt lat="43.67224" lon="3.82171">
        <ele>127</ele>
        <time>2021-02-20T12:49:31Z</time>
      </trkpt>
      <trkpt lat="43.67226" lon="3.8217">
        <ele>127</ele>
        <time>2021-02-20T12:49:33Z</time>
      </trkpt>
      <trkpt lat="43.67228" lon="3.82169">
        <ele>127</ele>
        <time>2021-02-20T12:49:35Z</time>
      </trkpt>
      <trkpt lat="43.6723" lon="3.82169">
        <ele>131</ele>
        <time>2021-02-20T12:49:36Z</time>
      </trkpt>
      <trkpt lat="43.67232" lon="3.82169">
        <ele>131</ele>
        <time>2021-02-20T12:49:37Z</time>
      </trkpt>
      <trkpt lat="43.67234" lon="3.8217">
        <ele>131</ele>
        <time>2021-02-20T12:49:38Z</time>
      </trkpt>
      <trkpt lat="43.67236" lon="3.82171">
        <ele>131</ele>
        <time>2021-02-20T12:49:39Z</time>
      </trkpt>
      <trkpt lat="43.67238" lon="3.82172">
        <ele>131</ele>
        <time>2021-02-20T12:49:40Z</time>
      </trkpt>
      <trkpt lat="43.6724" lon="3.82173">
        <ele>131</ele>
        <time>2021-02-20T12:49:41Z</time>
      </trkpt>
      <trkpt lat="43.67241" lon="3.82174">
        <ele>131</ele>
        <time>2021-02-20T12:49:42Z</time>
      </trkpt>
      <trkpt lat="43.67243" lon="3.82176">
        <ele>131</ele>
        <time>2021-02-20T12:49:43Z</time>
      </trkpt>
      <trkpt lat="43.67245" lon="3.82177">
        <ele>131</ele>
        <time>2021-02-20T12:49:44Z</time>
      </trkpt>
      <trkpt lat="43.67246" lon="3.82178">
        <ele>131</ele>
        <time>2021-02-20T12:49:45Z</time>
      </trkpt>
      <trkpt lat="43.6725" lon="3.82179">
        <ele>131</ele>
        <time>2021-02-20T12:49:47Z</time>
      </trkpt>
      <trkpt lat="43.67253" lon="3.82177">
        <ele>131</ele>
        <time>2021-02-20T12:49:49Z</time>
      </trkpt>
      <trkpt lat="43.67256" lon="3.82174">
        <ele>131</ele>
        <time>2021-02-20T12:49:51Z</time>
      </trkpt>
      <trkpt lat="43.67259" lon="3.82173">
        <ele>131</ele>
        <time>2021-02-20T12:49:53Z</time>
      </trkpt>
      <trkpt lat="43.67262" lon="3.82174">
        <ele>131</ele>
        <time>2021-02-20T12:49:55Z</time>
      </trkpt>
      <trkpt lat="43.67264" lon="3.82175">
        <ele>131</ele>
        <time>2021-02-20T12:49:56Z</time>
      </trkpt>
      <trkpt lat="43.67266" lon="3.82176">
        <ele>131</ele>
        <time>2021-02-20T12:49:57Z</time>
      </trkpt>
      <trkpt lat="43.67268" lon="3.82179">
        <ele>131</ele>
        <time>2021-02-20T12:49:59Z</time>
      </trkpt>
      <trkpt lat="43.6727" lon="3.8218">
        <ele>131</ele>
        <time>2021-02-20T12:50:00Z</time>
      </trkpt>
      <trkpt lat="43.67272" lon="3.8218">
        <ele>131</ele>
        <time>2021-02-20T12:50:01Z</time>
      </trkpt>
      <trkpt lat="43.67274" lon="3.82179">
        <ele>131</ele>
        <time>2021-02-20T12:50:02Z</time>
      </trkpt>
      <trkpt lat="43.67276" lon="3.82178">
        <ele>131</ele>
        <time>2021-02-20T12:50:03Z</time>
      </trkpt>
      <trkpt lat="43.67278" lon="3.82177">
        <ele>131</ele>
        <time>2021-02-20T12:50:04Z</time>
      </trkpt>
      <trkpt lat="43.6728" lon="3.82176">
        <ele>131</ele>
        <time>2021-02-20T12:50:05Z</time>
      </trkpt>
      <trkpt lat="43.67281" lon="3.82175">
        <ele>132</ele>
        <time>2021-02-20T12:50:06Z</time>
      </trkpt>
      <trkpt lat="43.67283" lon="3.82174">
        <ele>132</ele>
        <time>2021-02-20T12:50:07Z</time>
      </trkpt>
      <trkpt lat="43.67286" lon="3.82171">
        <ele>132</ele>
        <time>2021-02-20T12:50:09Z</time>
      </trkpt>
      <trkpt lat="43.67289" lon="3.82169">
        <ele>132</ele>
        <time>2021-02-20T12:50:11Z</time>
      </trkpt>
      <trkpt lat="43.67291" lon="3.82167">
        <ele>132</ele>
        <time>2021-02-20T12:50:13Z</time>
      </trkpt>
      <trkpt lat="43.67293" lon="3.82164">
        <ele>132</ele>
        <time>2021-02-20T12:50:15Z</time>
      </trkpt>
      <trkpt lat="43.67295" lon="3.82159">
        <ele>132</ele>
        <time>2021-02-20T12:50:17Z</time>
      </trkpt>
      <trkpt lat="43.67297" lon="3.82155">
        <ele>132</ele>
        <time>2021-02-20T12:50:19Z</time>
      </trkpt>
      <trkpt lat="43.67299" lon="3.82153">
        <ele>132</ele>
        <time>2021-02-20T12:50:20Z</time>
      </trkpt>
      <trkpt lat="43.673" lon="3.82152">
        <ele>132</ele>
        <time>2021-02-20T12:50:21Z</time>
      </trkpt>
      <trkpt lat="43.67302" lon="3.82151">
        <ele>132</ele>
        <time>2021-02-20T12:50:22Z</time>
      </trkpt>
      <trkpt lat="43.67305" lon="3.82149">
        <ele>132</ele>
        <time>2021-02-20T12:50:24Z</time>
      </trkpt>
      <trkpt lat="43.67309" lon="3.82148">
        <ele>136</ele>
        <time>2021-02-20T12:50:26Z</time>
      </trkpt>
      <trkpt lat="43.67312" lon="3.82147">
        <ele>136</ele>
        <time>2021-02-20T12:50:28Z</time>
      </trkpt>
      <trkpt lat="43.67314" lon="3.82146">
        <ele>136</ele>
        <time>2021-02-20T12:50:30Z</time>
      </trkpt>
      <trkpt lat="43.67317" lon="3.82146">
        <ele>136</ele>
        <time>2021-02-20T12:50:32Z</time>
      </trkpt>
      <trkpt lat="43.6732" lon="3.82145">
        <ele>136</ele>
        <time>2021-02-20T12:50:34Z</time>
      </trkpt>
      <trkpt lat="43.67322" lon="3.82145">
        <ele>137</ele>
        <time>2021-02-20T12:50:36Z</time>
      </trkpt>
      <trkpt lat="43.67324" lon="3.82144">
        <ele>137</ele>
        <time>2021-02-20T12:50:38Z</time>
      </trkpt>
      <trkpt lat="43.67327" lon="3.82143">
        <ele>137</ele>
        <time>2021-02-20T12:50:40Z</time>
      </trkpt>
      <trkpt lat="43.6733" lon="3.82143">
        <ele>137</ele>
        <time>2021-02-20T12:50:42Z</time>
      </trkpt>
      <trkpt lat="43.67332" lon="3.82142">
        <ele>137</ele>
        <time>2021-02-20T12:50:44Z</time>
      </trkpt>
      <trkpt lat="43.67335" lon="3.82141">
        <ele>139</ele>
        <time>2021-02-20T12:50:46Z</time>
      </trkpt>
      <trkpt lat="43.67337" lon="3.8214">
        <ele>139</ele>
        <time>2021-02-20T12:50:48Z</time>
      </trkpt>
      <trkpt lat="43.67339" lon="3.82138">
        <ele>139</ele>
        <time>2021-02-20T12:50:50Z</time>
      </trkpt>
      <trkpt lat="43.67342" lon="3.82137">
        <ele>139</ele>
        <time>2021-02-20T12:50:52Z</time>
      </trkpt>
      <trkpt lat="43.67344" lon="3.82136">
        <ele>139</ele>
        <time>2021-02-20T12:50:54Z</time>
      </trkpt>
      <trkpt lat="43.67347" lon="3.82135">
        <ele>141</ele>
        <time>2021-02-20T12:50:56Z</time>
      </trkpt>
      <trkpt lat="43.67349" lon="3.82135">
        <ele>141</ele>
        <time>2021-02-20T12:50:58Z</time>
      </trkpt>
      <trkpt lat="43.67352" lon="3.82136">
        <ele>141</ele>
        <time>2021-02-20T12:51:00Z</time>
      </trkpt>
      <trkpt lat="43.67354" lon="3.82137">
        <ele>141</ele>
        <time>2021-02-20T12:51:02Z</time>
      </trkpt>
      <trkpt lat="43.67356" lon="3.82137">
        <ele>141</ele>
        <time>2021-02-20T12:51:04Z</time>
      </trkpt>
      <trkpt lat="43.67358" lon="3.82137">
        <ele>142</ele>
        <time>2021-02-20T12:51:06Z</time>
      </trkpt>
      <trkpt lat="43.67361" lon="3.82137">
        <ele>142</ele>
        <time>2021-02-20T12:51:08Z</time>
      </trkpt>
      <trkpt lat="43.67365" lon="3.82136">
        <ele>142</ele>
        <time>2021-02-20T12:51:10Z</time>
      </trkpt>
      <trkpt lat="43.67366" lon="3.82135">
        <ele>142</ele>
        <time>2021-02-20T12:51:11Z</time>
      </trkpt>
      <trkpt lat="43.67368" lon="3.82135">
        <ele>142</ele>
        <time>2021-02-20T12:51:12Z</time>
      </trkpt>
      <trkpt lat="43.6737" lon="3.82134">
        <ele>142</ele>
        <time>2021-02-20T12:51:13Z</time>
      </trkpt>
      <trkpt lat="43.67372" lon="3.82134">
        <ele>142</ele>
        <time>2021-02-20T12:51:14Z</time>
      </trkpt>
      <trkpt lat="43.67374" lon="3.82134">
        <ele>142</ele>
        <time>2021-02-20T12:51:15Z</time>
      </trkpt>
      <trkpt lat="43.67377" lon="3.82133">
        <ele>143</ele>
        <time>2021-02-20T12:51:16Z</time>
      </trkpt>
      <trkpt lat="43.67379" lon="3.82133">
        <ele>143</ele>
        <time>2021-02-20T12:51:17Z</time>
      </trkpt>
      <trkpt lat="43.67381" lon="3.82133">
        <ele>143</ele>
        <time>2021-02-20T12:51:18Z</time>
      </trkpt>
      <trkpt lat="43.67384" lon="3.82133">
        <ele>143</ele>
        <time>2021-02-20T12:51:19Z</time>
      </trkpt>
      <trkpt lat="43.67387" lon="3.82133">
        <ele>143</ele>
        <time>2021-02-20T12:51:20Z</time>
      </trkpt>
      <trkpt lat="43.6739" lon="3.82134">
        <ele>143</ele>
        <time>2021-02-20T12:51:21Z</time>
      </trkpt>
      <trkpt lat="43.67393" lon="3.82135">
        <ele>143</ele>
        <time>2021-02-20T12:51:22Z</time>
      </trkpt>
      <trkpt lat="43.67396" lon="3.82135">
        <ele>143</ele>
        <time>2021-02-20T12:51:23Z</time>
      </trkpt>
      <trkpt lat="43.67399" lon="3.82136">
        <ele>143</ele>
        <time>2021-02-20T12:51:24Z</time>
      </trkpt>
      <trkpt lat="43.67401" lon="3.82136">
        <ele>143</ele>
        <time>2021-02-20T12:51:25Z</time>
      </trkpt>
      <trkpt lat="43.67403" lon="3.82136">
        <ele>144</ele>
        <time>2021-02-20T12:51:26Z</time>
      </trkpt>
      <trkpt lat="43.67404" lon="3.82136">
        <ele>144</ele>
        <time>2021-02-20T12:51:27Z</time>
      </trkpt>
      <trkpt lat="43.67408" lon="3.82137">
        <ele>144</ele>
        <time>2021-02-20T12:51:29Z</time>
      </trkpt>
      <trkpt lat="43.6741" lon="3.82137">
        <ele>144</ele>
        <time>2021-02-20T12:51:30Z</time>
      </trkpt>
      <trkpt lat="43.67414" lon="3.82136">
        <ele>144</ele>
        <time>2021-02-20T12:51:32Z</time>
      </trkpt>
      <trkpt lat="43.67416" lon="3.82136">
        <ele>144</ele>
        <time>2021-02-20T12:51:33Z</time>
      </trkpt>
      <trkpt lat="43.67419" lon="3.82135">
        <ele>144</ele>
        <time>2021-02-20T12:51:34Z</time>
      </trkpt>
      <trkpt lat="43.67422" lon="3.82134">
        <ele>144</ele>
        <time>2021-02-20T12:51:35Z</time>
      </trkpt>
      <trkpt lat="43.67425" lon="3.82133">
        <ele>143</ele>
        <time>2021-02-20T12:51:36Z</time>
      </trkpt>
      <trkpt lat="43.67428" lon="3.82132">
        <ele>143</ele>
        <time>2021-02-20T12:51:37Z</time>
      </trkpt>
      <trkpt lat="43.67431" lon="3.82132">
        <ele>143</ele>
        <time>2021-02-20T12:51:38Z</time>
      </trkpt>
      <trkpt lat="43.67434" lon="3.82132">
        <ele>143</ele>
        <time>2021-02-20T12:51:39Z</time>
      </trkpt>
      <trkpt lat="43.67436" lon="3.82132">
        <ele>143</ele>
        <time>2021-02-20T12:51:40Z</time>
      </trkpt>
      <trkpt lat="43.67438" lon="3.82131">
        <ele>143</ele>
        <time>2021-02-20T12:51:41Z</time>
      </trkpt>
      <trkpt lat="43.67441" lon="3.82131">
        <ele>143</ele>
        <time>2021-02-20T12:51:42Z</time>
      </trkpt>
      <trkpt lat="43.67443" lon="3.8213">
        <ele>143</ele>
        <time>2021-02-20T12:51:43Z</time>
      </trkpt>
      <trkpt lat="43.67445" lon="3.8213">
        <ele>143</ele>
        <time>2021-02-20T12:51:44Z</time>
      </trkpt>
      <trkpt lat="43.67447" lon="3.82129">
        <ele>143</ele>
        <time>2021-02-20T12:51:45Z</time>
      </trkpt>
      <trkpt lat="43.67449" lon="3.82129">
        <ele>143</ele>
        <time>2021-02-20T12:51:46Z</time>
      </trkpt>
      <trkpt lat="43.67452" lon="3.82129">
        <ele>143</ele>
        <time>2021-02-20T12:51:48Z</time>
      </trkpt>
      <trkpt lat="43.67455" lon="3.82129">
        <ele>143</ele>
        <time>2021-02-20T12:51:49Z</time>
      </trkpt>
      <trkpt lat="43.67458" lon="3.82129">
        <ele>143</ele>
        <time>2021-02-20T12:51:50Z</time>
      </trkpt>
      <trkpt lat="43.6746" lon="3.82129">
        <ele>143</ele>
        <time>2021-02-20T12:51:51Z</time>
      </trkpt>
      <trkpt lat="43.67463" lon="3.82128">
        <ele>143</ele>
        <time>2021-02-20T12:51:52Z</time>
      </trkpt>
      <trkpt lat="43.67466" lon="3.82128">
        <ele>143</ele>
        <time>2021-02-20T12:51:53Z</time>
      </trkpt>
      <trkpt lat="43.67469" lon="3.82128">
        <ele>143</ele>
        <time>2021-02-20T12:51:54Z</time>
      </trkpt>
      <trkpt lat="43.67473" lon="3.82127">
        <ele>143</ele>
        <time>2021-02-20T12:51:55Z</time>
      </trkpt>
      <trkpt lat="43.67477" lon="3.82126">
        <ele>142</ele>
        <time>2021-02-20T12:51:56Z</time>
      </trkpt>
      <trkpt lat="43.67481" lon="3.82125">
        <ele>142</ele>
        <time>2021-02-20T12:51:57Z</time>
      </trkpt>
      <trkpt lat="43.67485" lon="3.82125">
        <ele>142</ele>
        <time>2021-02-20T12:51:58Z</time>
      </trkpt>
      <trkpt lat="43.6749" lon="3.82125">
        <ele>142</ele>
        <time>2021-02-20T12:51:59Z</time>
      </trkpt>
      <trkpt lat="43.67493" lon="3.82124">
        <ele>142</ele>
        <time>2021-02-20T12:52:00Z</time>
      </trkpt>
      <trkpt lat="43.67498" lon="3.82124">
        <ele>142</ele>
        <time>2021-02-20T12:52:01Z</time>
      </trkpt>
      <trkpt lat="43.67502" lon="3.82123">
        <ele>142</ele>
        <time>2021-02-20T12:52:02Z</time>
      </trkpt>
      <trkpt lat="43.67505" lon="3.82122">
        <ele>142</ele>
        <time>2021-02-20T12:52:03Z</time>
      </trkpt>
      <trkpt lat="43.67509" lon="3.82122">
        <ele>142</ele>
        <time>2021-02-20T12:52:04Z</time>
      </trkpt>
      <trkpt lat="43.67514" lon="3.82121">
        <ele>142</ele>
        <time>2021-02-20T12:52:05Z</time>
      </trkpt>
      <trkpt lat="43.67518" lon="3.8212">
        <ele>140</ele>
        <time>2021-02-20T12:52:06Z</time>
      </trkpt>
      <trkpt lat="43.67522" lon="3.82119">
        <ele>140</ele>
        <time>2021-02-20T12:52:07Z</time>
      </trkpt>
      <trkpt lat="43.67525" lon="3.82118">
        <ele>140</ele>
        <time>2021-02-20T12:52:08Z</time>
      </trkpt>
      <trkpt lat="43.67529" lon="3.82118">
        <ele>140</ele>
        <time>2021-02-20T12:52:09Z</time>
      </trkpt>
      <trkpt lat="43.67532" lon="3.82117">
        <ele>140</ele>
        <time>2021-02-20T12:52:10Z</time>
      </trkpt>
      <trkpt lat="43.67535" lon="3.82117">
        <ele>140</ele>
        <time>2021-02-20T12:52:11Z</time>
      </trkpt>
      <trkpt lat="43.67538" lon="3.82116">
        <ele>140</ele>
        <time>2021-02-20T12:52:12Z</time>
      </trkpt>
      <trkpt lat="43.67541" lon="3.82115">
        <ele>140</ele>
        <time>2021-02-20T12:52:13Z</time>
      </trkpt>
      <trkpt lat="43.67544" lon="3.82115">
        <ele>140</ele>
        <time>2021-02-20T12:52:14Z</time>
      </trkpt>
      <trkpt lat="43.67546" lon="3.82114">
        <ele>140</ele>
        <time>2021-02-20T12:52:15Z</time>
      </trkpt>
      <trkpt lat="43.67549" lon="3.82113">
        <ele>138</ele>
        <time>2021-02-20T12:52:16Z</time>
      </trkpt>
      <trkpt lat="43.67552" lon="3.82113">
        <ele>138</ele>
        <time>2021-02-20T12:52:17Z</time>
      </trkpt>
      <trkpt lat="43.67555" lon="3.82113">
        <ele>138</ele>
        <time>2021-02-20T12:52:18Z</time>
      </trkpt>
      <trkpt lat="43.67559" lon="3.82114">
        <ele>138</ele>
        <time>2021-02-20T12:52:19Z</time>
      </trkpt>
      <trkpt lat="43.67562" lon="3.82114">
        <ele>138</ele>
        <time>2021-02-20T12:52:20Z</time>
      </trkpt>
      <trkpt lat="43.67565" lon="3.82116">
        <ele>138</ele>
        <time>2021-02-20T12:52:21Z</time>
      </trkpt>
      <trkpt lat="43.67568" lon="3.82119">
        <ele>138</ele>
        <time>2021-02-20T12:52:22Z</time>
      </trkpt>
      <trkpt lat="43.67569" lon="3.82122">
        <ele>138</ele>
        <time>2021-02-20T12:52:23Z</time>
      </trkpt>
      <trkpt lat="43.67569" lon="3.82126">
        <ele>138</ele>
        <time>2021-02-20T12:52:24Z</time>
      </trkpt>
      <trkpt lat="43.67569" lon="3.8213">
        <ele>138</ele>
        <time>2021-02-20T12:52:25Z</time>
      </trkpt>
      <trkpt lat="43.67569" lon="3.82133">
        <ele>136</ele>
        <time>2021-02-20T12:52:26Z</time>
      </trkpt>
      <trkpt lat="43.6757" lon="3.82137">
        <ele>136</ele>
        <time>2021-02-20T12:52:27Z</time>
      </trkpt>
      <trkpt lat="43.6757" lon="3.8214">
        <ele>136</ele>
        <time>2021-02-20T12:52:28Z</time>
      </trkpt>
      <trkpt lat="43.67571" lon="3.82144">
        <ele>136</ele>
        <time>2021-02-20T12:52:29Z</time>
      </trkpt>
      <trkpt lat="43.67572" lon="3.82147">
        <ele>136</ele>
        <time>2021-02-20T12:52:30Z</time>
      </trkpt>
      <trkpt lat="43.67573" lon="3.8215">
        <ele>136</ele>
        <time>2021-02-20T12:52:31Z</time>
      </trkpt>
      <trkpt lat="43.67573" lon="3.82153">
        <ele>136</ele>
        <time>2021-02-20T12:52:32Z</time>
      </trkpt>
      <trkpt lat="43.67574" lon="3.82157">
        <ele>136</ele>
        <time>2021-02-20T12:52:33Z</time>
      </trkpt>
      <trkpt lat="43.67575" lon="3.8216">
        <ele>136</ele>
        <time>2021-02-20T12:52:34Z</time>
      </trkpt>
      <trkpt lat="43.67576" lon="3.82163">
        <ele>136</ele>
        <time>2021-02-20T12:52:35Z</time>
      </trkpt>
      <trkpt lat="43.67577" lon="3.82165">
        <ele>134</ele>
        <time>2021-02-20T12:52:36Z</time>
      </trkpt>
      <trkpt lat="43.67578" lon="3.82168">
        <ele>134</ele>
        <time>2021-02-20T12:52:37Z</time>
      </trkpt>
      <trkpt lat="43.67579" lon="3.8217">
        <ele>134</ele>
        <time>2021-02-20T12:52:38Z</time>
      </trkpt>
      <trkpt lat="43.6758" lon="3.82172">
        <ele>134</ele>
        <time>2021-02-20T12:52:39Z</time>
      </trkpt>
      <trkpt lat="43.67582" lon="3.82173">
        <ele>134</ele>
        <time>2021-02-20T12:52:40Z</time>
      </trkpt>
      <trkpt lat="43.67584" lon="3.82174">
        <ele>134</ele>
        <time>2021-02-20T12:52:41Z</time>
      </trkpt>
      <trkpt lat="43.67585" lon="3.82174">
        <ele>134</ele>
        <time>2021-02-20T12:52:42Z</time>
      </trkpt>
      <trkpt lat="43.67589" lon="3.82172">
        <ele>134</ele>
        <time>2021-02-20T12:52:44Z</time>
      </trkpt>
      <trkpt lat="43.6759" lon="3.82171">
        <ele>134</ele>
        <time>2021-02-20T12:52:45Z</time>
      </trkpt>
      <trkpt lat="43.67592" lon="3.82169">
        <ele>132</ele>
        <time>2021-02-20T12:52:46Z</time>
      </trkpt>
      <trkpt lat="43.67594" lon="3.82168">
        <ele>132</ele>
        <time>2021-02-20T12:52:47Z</time>
      </trkpt>
      <trkpt lat="43.67597" lon="3.82167">
        <ele>132</ele>
        <time>2021-02-20T12:52:48Z</time>
      </trkpt>
      <trkpt lat="43.676" lon="3.82166">
        <ele>132</ele>
        <time>2021-02-20T12:52:49Z</time>
      </trkpt>
      <trkpt lat="43.67602" lon="3.82167">
        <ele>132</ele>
        <time>2021-02-20T12:52:50Z</time>
      </trkpt>
      <trkpt lat="43.67605" lon="3.82168">
        <ele>132</ele>
        <time>2021-02-20T12:52:51Z</time>
      </trkpt>
      <trkpt lat="43.67608" lon="3.82169">
        <ele>132</ele>
        <time>2021-02-20T12:52:52Z</time>
      </trkpt>
      <trkpt lat="43.67611" lon="3.8217">
        <ele>132</ele>
        <time>2021-02-20T12:52:53Z</time>
      </trkpt>
      <trkpt lat="43.67614" lon="3.82171">
        <ele>132</ele>
        <time>2021-02-20T12:52:54Z</time>
      </trkpt>
      <trkpt lat="43.67616" lon="3.82172">
        <ele>132</ele>
        <time>2021-02-20T12:52:55Z</time>
      </trkpt>
      <trkpt lat="43.67618" lon="3.82172">
        <ele>131</ele>
        <time>2021-02-20T12:52:56Z</time>
      </trkpt>
      <trkpt lat="43.67621" lon="3.82171">
        <ele>131</ele>
        <time>2021-02-20T12:52:57Z</time>
      </trkpt>
      <trkpt lat="43.67623" lon="3.82171">
        <ele>131</ele>
        <time>2021-02-20T12:52:58Z</time>
      </trkpt>
      <trkpt lat="43.67625" lon="3.82171">
        <ele>131</ele>
        <time>2021-02-20T12:52:59Z</time>
      </trkpt>
      <trkpt lat="43.67627" lon="3.8217">
        <ele>131</ele>
        <time>2021-02-20T12:53:00Z</time>
      </trkpt>
      <trkpt lat="43.67628" lon="3.82169">
        <ele>131</ele>
        <time>2021-02-20T12:53:01Z</time>
      </trkpt>
      <trkpt lat="43.67631" lon="3.82167">
        <ele>131</ele>
        <time>2021-02-20T12:53:02Z</time>
      </trkpt>
      <trkpt lat="43.67633" lon="3.82166">
        <ele>131</ele>
        <time>2021-02-20T12:53:03Z</time>
      </trkpt>
      <trkpt lat="43.67636" lon="3.82167">
        <ele>131</ele>
        <time>2021-02-20T12:53:04Z</time>
      </trkpt>
      <trkpt lat="43.67638" lon="3.82168">
        <ele>131</ele>
        <time>2021-02-20T12:53:05Z</time>
      </trkpt>
      <trkpt lat="43.67639" lon="3.82171">
        <ele>130</ele>
        <time>2021-02-20T12:53:06Z</time>
      </trkpt>
      <trkpt lat="43.6764" lon="3.82173">
        <ele>130</ele>
        <time>2021-02-20T12:53:07Z</time>
      </trkpt>
      <trkpt lat="43.6764" lon="3.82176">
        <ele>130</ele>
        <time>2021-02-20T12:53:08Z</time>
      </trkpt>
      <trkpt lat="43.6764" lon="3.82179">
        <ele>130</ele>
        <time>2021-02-20T12:53:09Z</time>
      </trkpt>
      <trkpt lat="43.67641" lon="3.82182">
        <ele>130</ele>
        <time>2021-02-20T12:53:10Z</time>
      </trkpt>
      <trkpt lat="43.67642" lon="3.82184">
        <ele>130</ele>
        <time>2021-02-20T12:53:11Z</time>
      </trkpt>
      <trkpt lat="43.67646" lon="3.82185">
        <ele>130</ele>
        <time>2021-02-20T12:53:13Z</time>
      </trkpt>
      <trkpt lat="43.67649" lon="3.82186">
        <ele>130</ele>
        <time>2021-02-20T12:53:14Z</time>
      </trkpt>
      <trkpt lat="43.67652" lon="3.82185">
        <ele>130</ele>
        <time>2021-02-20T12:53:15Z</time>
      </trkpt>
      <trkpt lat="43.67655" lon="3.82184">
        <ele>129</ele>
        <time>2021-02-20T12:53:16Z</time>
      </trkpt>
      <trkpt lat="43.67658" lon="3.82185">
        <ele>129</ele>
        <time>2021-02-20T12:53:17Z</time>
      </trkpt>
      <trkpt lat="43.67661" lon="3.82185">
        <ele>129</ele>
        <time>2021-02-20T12:53:18Z</time>
      </trkpt>
      <trkpt lat="43.67664" lon="3.82185">
        <ele>129</ele>
        <time>2021-02-20T12:53:19Z</time>
      </trkpt>
      <trkpt lat="43.67667" lon="3.82184">
        <ele>129</ele>
        <time>2021-02-20T12:53:20Z</time>
      </trkpt>
      <trkpt lat="43.6767" lon="3.82184">
        <ele>129</ele>
        <time>2021-02-20T12:53:21Z</time>
      </trkpt>
      <trkpt lat="43.67673" lon="3.82184">
        <ele>129</ele>
        <time>2021-02-20T12:53:22Z</time>
      </trkpt>
      <trkpt lat="43.67677" lon="3.82185">
        <ele>129</ele>
        <time>2021-02-20T12:53:23Z</time>
      </trkpt>
      <trkpt lat="43.6768" lon="3.82185">
        <ele>129</ele>
        <time>2021-02-20T12:53:24Z</time>
      </trkpt>
      <trkpt lat="43.67683" lon="3.82186">
        <ele>129</ele>
        <time>2021-02-20T12:53:25Z</time>
      </trkpt>
      <trkpt lat="43.67687" lon="3.82186">
        <ele>129</ele>
        <time>2021-02-20T12:53:26Z</time>
      </trkpt>
      <trkpt lat="43.6769" lon="3.82186">
        <ele>129</ele>
        <time>2021-02-20T12:53:27Z</time>
      </trkpt>
      <trkpt lat="43.67693" lon="3.82186">
        <ele>129</ele>
        <time>2021-02-20T12:53:28Z</time>
      </trkpt>
      <trkpt lat="43.67696" lon="3.82186">
        <ele>129</ele>
        <time>2021-02-20T12:53:29Z</time>
      </trkpt>
      <trkpt lat="43.67699" lon="3.82185">
        <ele>129</ele>
        <time>2021-02-20T12:53:30Z</time>
      </trkpt>
      <trkpt lat="43.67703" lon="3.82185">
        <ele>129</ele>
        <time>2021-02-20T12:53:31Z</time>
      </trkpt>
      <trkpt lat="43.67706" lon="3.82185">
        <ele>129</ele>
        <time>2021-02-20T12:53:32Z</time>
      </trkpt>
      <trkpt lat="43.67709" lon="3.82184">
        <ele>129</ele>
        <time>2021-02-20T12:53:33Z</time>
      </trkpt>
      <trkpt lat="43.67712" lon="3.82184">
        <ele>129</ele>
        <time>2021-02-20T12:53:34Z</time>
      </trkpt>
      <trkpt lat="43.67716" lon="3.82184">
        <ele>129</ele>
        <time>2021-02-20T12:53:35Z</time>
      </trkpt>
      <trkpt lat="43.6772" lon="3.82185">
        <ele>127</ele>
        <time>2021-02-20T12:53:36Z</time>
      </trkpt>
      <trkpt lat="43.67723" lon="3.82186">
        <ele>127</ele>
        <time>2021-02-20T12:53:37Z</time>
      </trkpt>
      <trkpt lat="43.67727" lon="3.82186">
        <ele>127</ele>
        <time>2021-02-20T12:53:38Z</time>
      </trkpt>
      <trkpt lat="43.6773" lon="3.82187">
        <ele>127</ele>
        <time>2021-02-20T12:53:39Z</time>
      </trkpt>
      <trkpt lat="43.67734" lon="3.82188">
        <ele>127</ele>
        <time>2021-02-20T12:53:40Z</time>
      </trkpt>
      <trkpt lat="43.67737" lon="3.82189">
        <ele>127</ele>
        <time>2021-02-20T12:53:41Z</time>
      </trkpt>
      <trkpt lat="43.67741" lon="3.82189">
        <ele>127</ele>
        <time>2021-02-20T12:53:42Z</time>
      </trkpt>
      <trkpt lat="43.67745" lon="3.8219">
        <ele>127</ele>
        <time>2021-02-20T12:53:43Z</time>
      </trkpt>
      <trkpt lat="43.67748" lon="3.82191">
        <ele>127</ele>
        <time>2021-02-20T12:53:44Z</time>
      </trkpt>
      <trkpt lat="43.67752" lon="3.82192">
        <ele>127</ele>
        <time>2021-02-20T12:53:45Z</time>
      </trkpt>
      <trkpt lat="43.67755" lon="3.82193">
        <ele>126</ele>
        <time>2021-02-20T12:53:46Z</time>
      </trkpt>
      <trkpt lat="43.67759" lon="3.82194">
        <ele>126</ele>
        <time>2021-02-20T12:53:47Z</time>
      </trkpt>
      <trkpt lat="43.67762" lon="3.82195">
        <ele>126</ele>
        <time>2021-02-20T12:53:48Z</time>
      </trkpt>
      <trkpt lat="43.67765" lon="3.82195">
        <ele>126</ele>
        <time>2021-02-20T12:53:49Z</time>
      </trkpt>
      <trkpt lat="43.67768" lon="3.82196">
        <ele>126</ele>
        <time>2021-02-20T12:53:50Z</time>
      </trkpt>
      <trkpt lat="43.67771" lon="3.82197">
        <ele>126</ele>
        <time>2021-02-20T12:53:51Z</time>
      </trkpt>
      <trkpt lat="43.67774" lon="3.82198">
        <ele>126</ele>
        <time>2021-02-20T12:53:52Z</time>
      </trkpt>
      <trkpt lat="43.67777" lon="3.82199">
        <ele>126</ele>
        <time>2021-02-20T12:53:53Z</time>
      </trkpt>
      <trkpt lat="43.67779" lon="3.822">
        <ele>126</ele>
        <time>2021-02-20T12:53:54Z</time>
      </trkpt>
      <trkpt lat="43.67781" lon="3.82201">
        <ele>126</ele>
        <time>2021-02-20T12:53:55Z</time>
      </trkpt>
      <trkpt lat="43.67784" lon="3.82202">
        <ele>126</ele>
        <time>2021-02-20T12:53:56Z</time>
      </trkpt>
      <trkpt lat="43.67786" lon="3.82203">
        <ele>126</ele>
        <time>2021-02-20T12:53:57Z</time>
      </trkpt>
      <trkpt lat="43.67789" lon="3.82204">
        <ele>126</ele>
        <time>2021-02-20T12:53:58Z</time>
      </trkpt>
      <trkpt lat="43.67791" lon="3.82205">
        <ele>126</ele>
        <time>2021-02-20T12:53:59Z</time>
      </trkpt>
      <trkpt lat="43.67793" lon="3.82206">
        <ele>126</ele>
        <time>2021-02-20T12:54:00Z</time>
      </trkpt>
      <trkpt lat="43.67796" lon="3.82207">
        <ele>126</ele>
        <time>2021-02-20T12:54:01Z</time>
      </trkpt>
      <trkpt lat="43.67798" lon="3.82208">
        <ele>126</ele>
        <time>2021-02-20T12:54:02Z</time>
      </trkpt>
      <trkpt lat="43.67801" lon="3.82208">
        <ele>126</ele>
        <time>2021-02-20T12:54:03Z</time>
      </trkpt>
      <trkpt lat="43.67803" lon="3.82209">
        <ele>126</ele>
        <time>2021-02-20T12:54:04Z</time>
      </trkpt>
      <trkpt lat="43.67805" lon="3.82208">
        <ele>126</ele>
        <time>2021-02-20T12:54:05Z</time>
      </trkpt>
      <trkpt lat="43.67807" lon="3.82206">
        <ele>126</ele>
        <time>2021-02-20T12:54:06Z</time>
      </trkpt>
      <trkpt lat="43.67809" lon="3.82203">
        <ele>126</ele>
        <time>2021-02-20T12:54:07Z</time>
      </trkpt>
      <trkpt lat="43.67812" lon="3.82202">
        <ele>126</ele>
        <time>2021-02-20T12:54:08Z</time>
      </trkpt>
      <trkpt lat="43.67816" lon="3.82204">
        <ele>126</ele>
        <time>2021-02-20T12:54:09Z</time>
      </trkpt>
      <trkpt lat="43.67819" lon="3.82206">
        <ele>126</ele>
        <time>2021-02-20T12:54:10Z</time>
      </trkpt>
      <trkpt lat="43.67823" lon="3.82207">
        <ele>126</ele>
        <time>2021-02-20T12:54:11Z</time>
      </trkpt>
      <trkpt lat="43.67826" lon="3.82209">
        <ele>126</ele>
        <time>2021-02-20T12:54:12Z</time>
      </trkpt>
      <trkpt lat="43.6783" lon="3.82211">
        <ele>126</ele>
        <time>2021-02-20T12:54:13Z</time>
      </trkpt>
      <trkpt lat="43.67833" lon="3.82212">
        <ele>126</ele>
        <time>2021-02-20T12:54:14Z</time>
      </trkpt>
      <trkpt lat="43.67837" lon="3.82213">
        <ele>126</ele>
        <time>2021-02-20T12:54:15Z</time>
      </trkpt>
      <trkpt lat="43.6784" lon="3.82214">
        <ele>126</ele>
        <time>2021-02-20T12:54:16Z</time>
      </trkpt>
      <trkpt lat="43.67843" lon="3.82214">
        <ele>126</ele>
        <time>2021-02-20T12:54:17Z</time>
      </trkpt>
      <trkpt lat="43.67846" lon="3.82216">
        <ele>126</ele>
        <time>2021-02-20T12:54:18Z</time>
      </trkpt>
      <trkpt lat="43.67849" lon="3.82217">
        <ele>126</ele>
        <time>2021-02-20T12:54:19Z</time>
      </trkpt>
      <trkpt lat="43.67852" lon="3.82218">
        <ele>126</ele>
        <time>2021-02-20T12:54:20Z</time>
      </trkpt>
      <trkpt lat="43.67855" lon="3.8222">
        <ele>126</ele>
        <time>2021-02-20T12:54:21Z</time>
      </trkpt>
      <trkpt lat="43.67857" lon="3.82222">
        <ele>126</ele>
        <time>2021-02-20T12:54:22Z</time>
      </trkpt>
      <trkpt lat="43.6786" lon="3.82223">
        <ele>126</ele>
        <time>2021-02-20T12:54:23Z</time>
      </trkpt>
      <trkpt lat="43.67862" lon="3.82225">
        <ele>126</ele>
        <time>2021-02-20T12:54:24Z</time>
      </trkpt>
      <trkpt lat="43.67864" lon="3.82227">
        <ele>126</ele>
        <time>2021-02-20T12:54:25Z</time>
      </trkpt>
      <trkpt lat="43.67867" lon="3.82229">
        <ele>127</ele>
        <time>2021-02-20T12:54:26Z</time>
      </trkpt>
      <trkpt lat="43.67869" lon="3.8223">
        <ele>127</ele>
        <time>2021-02-20T12:54:27Z</time>
      </trkpt>
      <trkpt lat="43.67871" lon="3.82232">
        <ele>127</ele>
        <time>2021-02-20T12:54:28Z</time>
      </trkpt>
      <trkpt lat="43.67873" lon="3.82234">
        <ele>127</ele>
        <time>2021-02-20T12:54:29Z</time>
      </trkpt>
      <trkpt lat="43.67875" lon="3.82235">
        <ele>127</ele>
        <time>2021-02-20T12:54:30Z</time>
      </trkpt>
      <trkpt lat="43.67877" lon="3.82237">
        <ele>127</ele>
        <time>2021-02-20T12:54:31Z</time>
      </trkpt>
      <trkpt lat="43.67879" lon="3.8224">
        <ele>127</ele>
        <time>2021-02-20T12:54:33Z</time>
      </trkpt>
      <trkpt lat="43.67881" lon="3.82242">
        <ele>127</ele>
        <time>2021-02-20T12:54:34Z</time>
      </trkpt>
      <trkpt lat="43.67882" lon="3.82244">
        <ele>127</ele>
        <time>2021-02-20T12:54:35Z</time>
      </trkpt>
      <trkpt lat="43.67884" lon="3.82245">
        <ele>128</ele>
        <time>2021-02-20T12:54:36Z</time>
      </trkpt>
      <trkpt lat="43.67887" lon="3.82248">
        <ele>128</ele>
        <time>2021-02-20T12:54:38Z</time>
      </trkpt>
      <trkpt lat="43.67889" lon="3.82252">
        <ele>128</ele>
        <time>2021-02-20T12:54:40Z</time>
      </trkpt>
      <trkpt lat="43.6789" lon="3.82255">
        <ele>128</ele>
        <time>2021-02-20T12:54:42Z</time>
      </trkpt>
      <trkpt lat="43.67892" lon="3.82257">
        <ele>128</ele>
        <time>2021-02-20T12:54:44Z</time>
      </trkpt>
      <trkpt lat="43.67893" lon="3.82259">
        <ele>127</ele>
        <time>2021-02-20T12:54:46Z</time>
      </trkpt>
      <trkpt lat="43.67893" lon="3.82262">
        <ele>127</ele>
        <time>2021-02-20T12:54:48Z</time>
      </trkpt>
      <trkpt lat="43.67894" lon="3.82264">
        <ele>127</ele>
        <time>2021-02-20T12:54:50Z</time>
      </trkpt>
      <trkpt lat="43.67893" lon="3.82263">
        <ele>126</ele>
        <time>2021-02-20T12:54:56Z</time>
      </trkpt>
      <trkpt lat="43.67886" lon="3.82254">
        <ele>126</ele>
        <time>2021-02-20T12:55:00Z</time>
      </trkpt>
      <trkpt lat="43.67885" lon="3.8225">
        <ele>126</ele>
        <time>2021-02-20T12:55:01Z</time>
      </trkpt>
      <trkpt lat="43.67885" lon="3.82245">
        <ele>126</ele>
        <time>2021-02-20T12:55:02Z</time>
      </trkpt>
      <trkpt lat="43.67885" lon="3.8224">
        <ele>126</ele>
        <time>2021-02-20T12:55:03Z</time>
      </trkpt>
      <trkpt lat="43.67885" lon="3.82235">
        <ele>126</ele>
        <time>2021-02-20T12:55:04Z</time>
      </trkpt>
      <trkpt lat="43.67885" lon="3.8223">
        <ele>126</ele>
        <time>2021-02-20T12:55:05Z</time>
      </trkpt>
      <trkpt lat="43.67885" lon="3.82225">
        <ele>126</ele>
        <time>2021-02-20T12:55:06Z</time>
      </trkpt>
      <trkpt lat="43.67884" lon="3.8222">
        <ele>126</ele>
        <time>2021-02-20T12:55:07Z</time>
      </trkpt>
      <trkpt lat="43.67883" lon="3.82216">
        <ele>126</ele>
        <time>2021-02-20T12:55:08Z</time>
      </trkpt>
      <trkpt lat="43.67881" lon="3.82212">
        <ele>126</ele>
        <time>2021-02-20T12:55:09Z</time>
      </trkpt>
      <trkpt lat="43.6788" lon="3.82208">
        <ele>126</ele>
        <time>2021-02-20T12:55:10Z</time>
      </trkpt>
      <trkpt lat="43.67878" lon="3.82205">
        <ele>126</ele>
        <time>2021-02-20T12:55:11Z</time>
      </trkpt>
      <trkpt lat="43.67877" lon="3.82202">
        <ele>126</ele>
        <time>2021-02-20T12:55:12Z</time>
      </trkpt>
      <trkpt lat="43.67876" lon="3.822">
        <ele>126</ele>
        <time>2021-02-20T12:55:13Z</time>
      </trkpt>
      <trkpt lat="43.67876" lon="3.82197">
        <ele>126</ele>
        <time>2021-02-20T12:55:21Z</time>
      </trkpt>
      <trkpt lat="43.67881" lon="3.82193">
        <ele>126</ele>
        <time>2021-02-20T12:55:28Z</time>
      </trkpt>
      <trkpt lat="43.67885" lon="3.82192">
        <ele>126</ele>
        <time>2021-02-20T12:55:29Z</time>
      </trkpt>
      <trkpt lat="43.67888" lon="3.82191">
        <ele>126</ele>
        <time>2021-02-20T12:55:30Z</time>
      </trkpt>
      <trkpt lat="43.67891" lon="3.8219">
        <ele>126</ele>
        <time>2021-02-20T12:55:31Z</time>
      </trkpt>
      <trkpt lat="43.67894" lon="3.8219">
        <ele>126</ele>
        <time>2021-02-20T12:55:32Z</time>
      </trkpt>
      <trkpt lat="43.67896" lon="3.82189">
        <ele>126</ele>
        <time>2021-02-20T12:55:33Z</time>
      </trkpt>
      <trkpt lat="43.67899" lon="3.82188">
        <ele>126</ele>
        <time>2021-02-20T12:55:34Z</time>
      </trkpt>
      <trkpt lat="43.67901" lon="3.82187">
        <ele>126</ele>
        <time>2021-02-20T12:55:35Z</time>
      </trkpt>
      <trkpt lat="43.67903" lon="3.82185">
        <ele>126</ele>
        <time>2021-02-20T12:55:36Z</time>
      </trkpt>
      <trkpt lat="43.67906" lon="3.82184">
        <ele>124</ele>
        <time>2021-02-20T12:55:37Z</time>
      </trkpt>
      <trkpt lat="43.67908" lon="3.82183">
        <ele>124</ele>
        <time>2021-02-20T12:55:38Z</time>
      </trkpt>
      <trkpt lat="43.6791" lon="3.82183">
        <ele>124</ele>
        <time>2021-02-20T12:55:39Z</time>
      </trkpt>
      <trkpt lat="43.67912" lon="3.82182">
        <ele>124</ele>
        <time>2021-02-20T12:55:40Z</time>
      </trkpt>
      <trkpt lat="43.67914" lon="3.82181">
        <ele>124</ele>
        <time>2021-02-20T12:55:41Z</time>
      </trkpt>
      <trkpt lat="43.67916" lon="3.8218">
        <ele>124</ele>
        <time>2021-02-20T12:55:42Z</time>
      </trkpt>
      <trkpt lat="43.67918" lon="3.8218">
        <ele>124</ele>
        <time>2021-02-20T12:55:43Z</time>
      </trkpt>
      <trkpt lat="43.67921" lon="3.82179">
        <ele>124</ele>
        <time>2021-02-20T12:55:44Z</time>
      </trkpt>
      <trkpt lat="43.67923" lon="3.82179">
        <ele>124</ele>
        <time>2021-02-20T12:55:45Z</time>
      </trkpt>
      <trkpt lat="43.67925" lon="3.82178">
        <ele>124</ele>
        <time>2021-02-20T12:55:46Z</time>
      </trkpt>
      <trkpt lat="43.67928" lon="3.82177">
        <ele>120</ele>
        <time>2021-02-20T12:55:47Z</time>
      </trkpt>
      <trkpt lat="43.67931" lon="3.82176">
        <ele>120</ele>
        <time>2021-02-20T12:55:48Z</time>
      </trkpt>
      <trkpt lat="43.67934" lon="3.82175">
        <ele>120</ele>
        <time>2021-02-20T12:55:49Z</time>
      </trkpt>
      <trkpt lat="43.67936" lon="3.82173">
        <ele>120</ele>
        <time>2021-02-20T12:55:50Z</time>
      </trkpt>
      <trkpt lat="43.67938" lon="3.82172">
        <ele>120</ele>
        <time>2021-02-20T12:55:51Z</time>
      </trkpt>
      <trkpt lat="43.6794" lon="3.8217">
        <ele>120</ele>
        <time>2021-02-20T12:55:52Z</time>
      </trkpt>
      <trkpt lat="43.67942" lon="3.82169">
        <ele>120</ele>
        <time>2021-02-20T12:55:53Z</time>
      </trkpt>
      <trkpt lat="43.67944" lon="3.82169">
        <ele>120</ele>
        <time>2021-02-20T12:55:54Z</time>
      </trkpt>
      <trkpt lat="43.67947" lon="3.8217">
        <ele>120</ele>
        <time>2021-02-20T12:55:55Z</time>
      </trkpt>
      <trkpt lat="43.6795" lon="3.82172">
        <ele>120</ele>
        <time>2021-02-20T12:55:56Z</time>
      </trkpt>
      <trkpt lat="43.67953" lon="3.82176">
        <ele>114</ele>
        <time>2021-02-20T12:55:57Z</time>
      </trkpt>
      <trkpt lat="43.67954" lon="3.8218">
        <ele>114</ele>
        <time>2021-02-20T12:55:58Z</time>
      </trkpt>
      <trkpt lat="43.67955" lon="3.82182">
        <ele>114</ele>
        <time>2021-02-20T12:56:04Z</time>
      </trkpt>
      <trkpt lat="43.67958" lon="3.82175">
        <ele>113</ele>
        <time>2021-02-20T12:56:09Z</time>
      </trkpt>
      <trkpt lat="43.67958" lon="3.82173">
        <ele>113</ele>
        <time>2021-02-20T12:56:10Z</time>
      </trkpt>
      <trkpt lat="43.67958" lon="3.8217">
        <ele>113</ele>
        <time>2021-02-20T12:56:11Z</time>
      </trkpt>
      <trkpt lat="43.67959" lon="3.82167">
        <ele>113</ele>
        <time>2021-02-20T12:56:12Z</time>
      </trkpt>
      <trkpt lat="43.6796" lon="3.82165">
        <ele>113</ele>
        <time>2021-02-20T12:56:13Z</time>
      </trkpt>
      <trkpt lat="43.67962" lon="3.82165">
        <ele>113</ele>
        <time>2021-02-20T12:56:14Z</time>
      </trkpt>
      <trkpt lat="43.67965" lon="3.82167">
        <ele>113</ele>
        <time>2021-02-20T12:56:15Z</time>
      </trkpt>
      <trkpt lat="43.67968" lon="3.82169">
        <ele>113</ele>
        <time>2021-02-20T12:56:16Z</time>
      </trkpt>
      <trkpt lat="43.67972" lon="3.82171">
        <ele>113</ele>
        <time>2021-02-20T12:56:17Z</time>
      </trkpt>
      <trkpt lat="43.67976" lon="3.82173">
        <ele>113</ele>
        <time>2021-02-20T12:56:18Z</time>
      </trkpt>
      <trkpt lat="43.67981" lon="3.82174">
        <ele>109</ele>
        <time>2021-02-20T12:56:19Z</time>
      </trkpt>
      <trkpt lat="43.67986" lon="3.82175">
        <ele>109</ele>
        <time>2021-02-20T12:56:20Z</time>
      </trkpt>
      <trkpt lat="43.67991" lon="3.82176">
        <ele>109</ele>
        <time>2021-02-20T12:56:21Z</time>
      </trkpt>
      <trkpt lat="43.67996" lon="3.82177">
        <ele>109</ele>
        <time>2021-02-20T12:56:22Z</time>
      </trkpt>
      <trkpt lat="43.68002" lon="3.82177">
        <ele>109</ele>
        <time>2021-02-20T12:56:23Z</time>
      </trkpt>
      <trkpt lat="43.68008" lon="3.82178">
        <ele>109</ele>
        <time>2021-02-20T12:56:24Z</time>
      </trkpt>
      <trkpt lat="43.68014" lon="3.82179">
        <ele>109</ele>
        <time>2021-02-20T12:56:25Z</time>
      </trkpt>
      <trkpt lat="43.6802" lon="3.82179">
        <ele>109</ele>
        <time>2021-02-20T12:56:26Z</time>
      </trkpt>
      <trkpt lat="43.68025" lon="3.82179">
        <ele>109</ele>
        <time>2021-02-20T12:56:27Z</time>
      </trkpt>
      <trkpt lat="43.68031" lon="3.8218">
        <ele>109</ele>
        <time>2021-02-20T12:56:28Z</time>
      </trkpt>
      <trkpt lat="43.68035" lon="3.82181">
        <ele>106</ele>
        <time>2021-02-20T12:56:29Z</time>
      </trkpt>
      <trkpt lat="43.6804" lon="3.82182">
        <ele>106</ele>
        <time>2021-02-20T12:56:30Z</time>
      </trkpt>
      <trkpt lat="43.68044" lon="3.82182">
        <ele>106</ele>
        <time>2021-02-20T12:56:31Z</time>
      </trkpt>
      <trkpt lat="43.68048" lon="3.82183">
        <ele>106</ele>
        <time>2021-02-20T12:56:32Z</time>
      </trkpt>
      <trkpt lat="43.68053" lon="3.82183">
        <ele>106</ele>
        <time>2021-02-20T12:56:33Z</time>
      </trkpt>
      <trkpt lat="43.68057" lon="3.82184">
        <ele>106</ele>
        <time>2021-02-20T12:56:34Z</time>
      </trkpt>
      <trkpt lat="43.6806" lon="3.82185">
        <ele>106</ele>
        <time>2021-02-20T12:56:35Z</time>
      </trkpt>
      <trkpt lat="43.68064" lon="3.82185">
        <ele>106</ele>
        <time>2021-02-20T12:56:36Z</time>
      </trkpt>
      <trkpt lat="43.68068" lon="3.82186">
        <ele>106</ele>
        <time>2021-02-20T12:56:37Z</time>
      </trkpt>
      <trkpt lat="43.68071" lon="3.82187">
        <ele>106</ele>
        <time>2021-02-20T12:56:38Z</time>
      </trkpt>
      <trkpt lat="43.68075" lon="3.82187">
        <ele>105</ele>
        <time>2021-02-20T12:56:39Z</time>
      </trkpt>
      <trkpt lat="43.68078" lon="3.82188">
        <ele>105</ele>
        <time>2021-02-20T12:56:40Z</time>
      </trkpt>
      <trkpt lat="43.68079" lon="3.82188">
        <ele>105</ele>
        <time>2021-02-20T12:56:41Z</time>
      </trkpt>
      <trkpt lat="43.68082" lon="3.8219">
        <ele>105</ele>
        <time>2021-02-20T12:56:43Z</time>
      </trkpt>
      <trkpt lat="43.68084" lon="3.82191">
        <ele>105</ele>
        <time>2021-02-20T12:56:45Z</time>
      </trkpt>
      <trkpt lat="43.68087" lon="3.82189">
        <ele>105</ele>
        <time>2021-02-20T12:56:47Z</time>
      </trkpt>
      <trkpt lat="43.68091" lon="3.82187">
        <ele>103</ele>
        <time>2021-02-20T12:56:49Z</time>
      </trkpt>
      <trkpt lat="43.68093" lon="3.82188">
        <ele>103</ele>
        <time>2021-02-20T12:56:50Z</time>
      </trkpt>
      <trkpt lat="43.68095" lon="3.82188">
        <ele>103</ele>
        <time>2021-02-20T12:56:51Z</time>
      </trkpt>
      <trkpt lat="43.68097" lon="3.82188">
        <ele>103</ele>
        <time>2021-02-20T12:56:52Z</time>
      </trkpt>
      <trkpt lat="43.68099" lon="3.82188">
        <ele>103</ele>
        <time>2021-02-20T12:56:53Z</time>
      </trkpt>
      <trkpt lat="43.68102" lon="3.82189">
        <ele>103</ele>
        <time>2021-02-20T12:56:54Z</time>
      </trkpt>
      <trkpt lat="43.68105" lon="3.82189">
        <ele>103</ele>
        <time>2021-02-20T12:56:55Z</time>
      </trkpt>
      <trkpt lat="43.68108" lon="3.82189">
        <ele>103</ele>
        <time>2021-02-20T12:56:56Z</time>
      </trkpt>
      <trkpt lat="43.68111" lon="3.8219">
        <ele>103</ele>
        <time>2021-02-20T12:56:57Z</time>
      </trkpt>
      <trkpt lat="43.68114" lon="3.82191">
        <ele>103</ele>
        <time>2021-02-20T12:56:58Z</time>
      </trkpt>
      <trkpt lat="43.68117" lon="3.82191">
        <ele>102</ele>
        <time>2021-02-20T12:56:59Z</time>
      </trkpt>
      <trkpt lat="43.6812" lon="3.8219">
        <ele>102</ele>
        <time>2021-02-20T12:57:00Z</time>
      </trkpt>
      <trkpt lat="43.68123" lon="3.8219">
        <ele>102</ele>
        <time>2021-02-20T12:57:01Z</time>
      </trkpt>
      <trkpt lat="43.68126" lon="3.8219">
        <ele>102</ele>
        <time>2021-02-20T12:57:02Z</time>
      </trkpt>
      <trkpt lat="43.68128" lon="3.8219">
        <ele>102</ele>
        <time>2021-02-20T12:57:03Z</time>
      </trkpt>
      <trkpt lat="43.68131" lon="3.82189">
        <ele>102</ele>
        <time>2021-02-20T12:57:04Z</time>
      </trkpt>
      <trkpt lat="43.68135" lon="3.8219">
        <ele>102</ele>
        <time>2021-02-20T12:57:05Z</time>
      </trkpt>
      <trkpt lat="43.68138" lon="3.82191">
        <ele>102</ele>
        <time>2021-02-20T12:57:06Z</time>
      </trkpt>
      <trkpt lat="43.68142" lon="3.82192">
        <ele>102</ele>
        <time>2021-02-20T12:57:07Z</time>
      </trkpt>
      <trkpt lat="43.68145" lon="3.82192">
        <ele>102</ele>
        <time>2021-02-20T12:57:08Z</time>
      </trkpt>
      <trkpt lat="43.68149" lon="3.82192">
        <ele>101</ele>
        <time>2021-02-20T12:57:09Z</time>
      </trkpt>
      <trkpt lat="43.68152" lon="3.82193">
        <ele>101</ele>
        <time>2021-02-20T12:57:10Z</time>
      </trkpt>
      <trkpt lat="43.68156" lon="3.82193">
        <ele>101</ele>
        <time>2021-02-20T12:57:11Z</time>
      </trkpt>
      <trkpt lat="43.6816" lon="3.82194">
        <ele>101</ele>
        <time>2021-02-20T12:57:12Z</time>
      </trkpt>
      <trkpt lat="43.68163" lon="3.82194">
        <ele>101</ele>
        <time>2021-02-20T12:57:13Z</time>
      </trkpt>
      <trkpt lat="43.68167" lon="3.82195">
        <ele>101</ele>
        <time>2021-02-20T12:57:14Z</time>
      </trkpt>
      <trkpt lat="43.6817" lon="3.82195">
        <ele>101</ele>
        <time>2021-02-20T12:57:15Z</time>
      </trkpt>
      <trkpt lat="43.68174" lon="3.82195">
        <ele>101</ele>
        <time>2021-02-20T12:57:16Z</time>
      </trkpt>
      <trkpt lat="43.68177" lon="3.82196">
        <ele>101</ele>
        <time>2021-02-20T12:57:17Z</time>
      </trkpt>
      <trkpt lat="43.6818" lon="3.82196">
        <ele>101</ele>
        <time>2021-02-20T12:57:18Z</time>
      </trkpt>
      <trkpt lat="43.68183" lon="3.82197">
        <ele>100</ele>
        <time>2021-02-20T12:57:19Z</time>
      </trkpt>
      <trkpt lat="43.68186" lon="3.82197">
        <ele>100</ele>
        <time>2021-02-20T12:57:20Z</time>
      </trkpt>
      <trkpt lat="43.68189" lon="3.82197">
        <ele>100</ele>
        <time>2021-02-20T12:57:21Z</time>
      </trkpt>
      <trkpt lat="43.68192" lon="3.82198">
        <ele>100</ele>
        <time>2021-02-20T12:57:22Z</time>
      </trkpt>
      <trkpt lat="43.68195" lon="3.82198">
        <ele>100</ele>
        <time>2021-02-20T12:57:23Z</time>
      </trkpt>
      <trkpt lat="43.68199" lon="3.82198">
        <ele>100</ele>
        <time>2021-02-20T12:57:24Z</time>
      </trkpt>
      <trkpt lat="43.68203" lon="3.82199">
        <ele>100</ele>
        <time>2021-02-20T12:57:25Z</time>
      </trkpt>
      <trkpt lat="43.68207" lon="3.822">
        <ele>100</ele>
        <time>2021-02-20T12:57:26Z</time>
      </trkpt>
      <trkpt lat="43.68211" lon="3.822">
        <ele>100</ele>
        <time>2021-02-20T12:57:27Z</time>
      </trkpt>
      <trkpt lat="43.68215" lon="3.82201">
        <ele>100</ele>
        <time>2021-02-20T12:57:28Z</time>
      </trkpt>
      <trkpt lat="43.68219" lon="3.82201">
        <ele>99</ele>
        <time>2021-02-20T12:57:29Z</time>
      </trkpt>
      <trkpt lat="43.68223" lon="3.82202">
        <ele>99</ele>
        <time>2021-02-20T12:57:30Z</time>
      </trkpt>
      <trkpt lat="43.68227" lon="3.82203">
        <ele>99</ele>
        <time>2021-02-20T12:57:31Z</time>
      </trkpt>
      <trkpt lat="43.68231" lon="3.82204">
        <ele>99</ele>
        <time>2021-02-20T12:57:32Z</time>
      </trkpt>
      <trkpt lat="43.68235" lon="3.82205">
        <ele>99</ele>
        <time>2021-02-20T12:57:33Z</time>
      </trkpt>
      <trkpt lat="43.68238" lon="3.82206">
        <ele>99</ele>
        <time>2021-02-20T12:57:34Z</time>
      </trkpt>
      <trkpt lat="43.68242" lon="3.82206">
        <ele>99</ele>
        <time>2021-02-20T12:57:35Z</time>
      </trkpt>
      <trkpt lat="43.68245" lon="3.82206">
        <ele>99</ele>
        <time>2021-02-20T12:57:36Z</time>
      </trkpt>
      <trkpt lat="43.68249" lon="3.82206">
        <ele>99</ele>
        <time>2021-02-20T12:57:37Z</time>
      </trkpt>
      <trkpt lat="43.68252" lon="3.82207">
        <ele>99</ele>
        <time>2021-02-20T12:57:38Z</time>
      </trkpt>
      <trkpt lat="43.68256" lon="3.82207">
        <ele>99</ele>
        <time>2021-02-20T12:57:39Z</time>
      </trkpt>
      <trkpt lat="43.6826" lon="3.82208">
        <ele>99</ele>
        <time>2021-02-20T12:57:40Z</time>
      </trkpt>
      <trkpt lat="43.68264" lon="3.82208">
        <ele>99</ele>
        <time>2021-02-20T12:57:41Z</time>
      </trkpt>
      <trkpt lat="43.68268" lon="3.82208">
        <ele>99</ele>
        <time>2021-02-20T12:57:42Z</time>
      </trkpt>
      <trkpt lat="43.68271" lon="3.82208">
        <ele>99</ele>
        <time>2021-02-20T12:57:43Z</time>
      </trkpt>
      <trkpt lat="43.68275" lon="3.82209">
        <ele>99</ele>
        <time>2021-02-20T12:57:44Z</time>
      </trkpt>
      <trkpt lat="43.68279" lon="3.82209">
        <ele>99</ele>
        <time>2021-02-20T12:57:45Z</time>
      </trkpt>
      <trkpt lat="43.68283" lon="3.8221">
        <ele>99</ele>
        <time>2021-02-20T12:57:46Z</time>
      </trkpt>
      <trkpt lat="43.68288" lon="3.8221">
        <ele>99</ele>
        <time>2021-02-20T12:57:47Z</time>
      </trkpt>
      <trkpt lat="43.68292" lon="3.82212">
        <ele>99</ele>
        <time>2021-02-20T12:57:48Z</time>
      </trkpt>
      <trkpt lat="43.68296" lon="3.82213">
        <ele>98</ele>
        <time>2021-02-20T12:57:49Z</time>
      </trkpt>
      <trkpt lat="43.683" lon="3.82214">
        <ele>98</ele>
        <time>2021-02-20T12:57:50Z</time>
      </trkpt>
      <trkpt lat="43.68304" lon="3.82215">
        <ele>98</ele>
        <time>2021-02-20T12:57:51Z</time>
      </trkpt>
      <trkpt lat="43.68308" lon="3.82215">
        <ele>98</ele>
        <time>2021-02-20T12:57:52Z</time>
      </trkpt>
      <trkpt lat="43.68313" lon="3.82217">
        <ele>98</ele>
        <time>2021-02-20T12:57:53Z</time>
      </trkpt>
      <trkpt lat="43.68317" lon="3.82218">
        <ele>98</ele>
        <time>2021-02-20T12:57:54Z</time>
      </trkpt>
      <trkpt lat="43.68321" lon="3.82219">
        <ele>98</ele>
        <time>2021-02-20T12:57:55Z</time>
      </trkpt>
      <trkpt lat="43.68325" lon="3.82219">
        <ele>98</ele>
        <time>2021-02-20T12:57:56Z</time>
      </trkpt>
      <trkpt lat="43.68329" lon="3.82219">
        <ele>98</ele>
        <time>2021-02-20T12:57:57Z</time>
      </trkpt>
      <trkpt lat="43.68334" lon="3.8222">
        <ele>98</ele>
        <time>2021-02-20T12:57:58Z</time>
      </trkpt>
      <trkpt lat="43.68338" lon="3.82221">
        <ele>98</ele>
        <time>2021-02-20T12:57:59Z</time>
      </trkpt>
      <trkpt lat="43.68342" lon="3.82222">
        <ele>98</ele>
        <time>2021-02-20T12:58:00Z</time>
      </trkpt>
      <trkpt lat="43.68345" lon="3.82222">
        <ele>98</ele>
        <time>2021-02-20T12:58:01Z</time>
      </trkpt>
      <trkpt lat="43.6835" lon="3.82223">
        <ele>98</ele>
        <time>2021-02-20T12:58:02Z</time>
      </trkpt>
      <trkpt lat="43.68354" lon="3.82223">
        <ele>98</ele>
        <time>2021-02-20T12:58:03Z</time>
      </trkpt>
      <trkpt lat="43.68358" lon="3.82224">
        <ele>98</ele>
        <time>2021-02-20T12:58:04Z</time>
      </trkpt>
      <trkpt lat="43.68362" lon="3.82225">
        <ele>98</ele>
        <time>2021-02-20T12:58:05Z</time>
      </trkpt>
      <trkpt lat="43.68366" lon="3.82226">
        <ele>98</ele>
        <time>2021-02-20T12:58:06Z</time>
      </trkpt>
      <trkpt lat="43.68371" lon="3.82226">
        <ele>98</ele>
        <time>2021-02-20T12:58:07Z</time>
      </trkpt>
      <trkpt lat="43.68374" lon="3.82227">
        <ele>98</ele>
        <time>2021-02-20T12:58:08Z</time>
      </trkpt>
      <trkpt lat="43.68378" lon="3.82227">
        <ele>97</ele>
        <time>2021-02-20T12:58:09Z</time>
      </trkpt>
      <trkpt lat="43.68383" lon="3.82227">
        <ele>97</ele>
        <time>2021-02-20T12:58:10Z</time>
      </trkpt>
      <trkpt lat="43.68387" lon="3.82227">
        <ele>97</ele>
        <time>2021-02-20T12:58:11Z</time>
      </trkpt>
      <trkpt lat="43.68391" lon="3.82228">
        <ele>97</ele>
        <time>2021-02-20T12:58:12Z</time>
      </trkpt>
      <trkpt lat="43.68395" lon="3.8223">
        <ele>97</ele>
        <time>2021-02-20T12:58:13Z</time>
      </trkpt>
      <trkpt lat="43.68399" lon="3.82232">
        <ele>97</ele>
        <time>2021-02-20T12:58:14Z</time>
      </trkpt>
      <trkpt lat="43.68403" lon="3.82233">
        <ele>97</ele>
        <time>2021-02-20T12:58:15Z</time>
      </trkpt>
      <trkpt lat="43.68407" lon="3.82234">
        <ele>97</ele>
        <time>2021-02-20T12:58:16Z</time>
      </trkpt>
      <trkpt lat="43.68412" lon="3.82235">
        <ele>97</ele>
        <time>2021-02-20T12:58:17Z</time>
      </trkpt>
      <trkpt lat="43.68416" lon="3.82236">
        <ele>97</ele>
        <time>2021-02-20T12:58:18Z</time>
      </trkpt>
      <trkpt lat="43.6842" lon="3.82237">
        <ele>97</ele>
        <time>2021-02-20T12:58:19Z</time>
      </trkpt>
      <trkpt lat="43.68424" lon="3.82238">
        <ele>97</ele>
        <time>2021-02-20T12:58:20Z</time>
      </trkpt>
      <trkpt lat="43.68429" lon="3.82239">
        <ele>97</ele>
        <time>2021-02-20T12:58:21Z</time>
      </trkpt>
      <trkpt lat="43.68433" lon="3.82241">
        <ele>97</ele>
        <time>2021-02-20T12:58:22Z</time>
      </trkpt>
      <trkpt lat="43.68437" lon="3.82242">
        <ele>97</ele>
        <time>2021-02-20T12:58:23Z</time>
      </trkpt>
      <trkpt lat="43.68442" lon="3.82243">
        <ele>97</ele>
        <time>2021-02-20T12:58:24Z</time>
      </trkpt>
      <trkpt lat="43.68446" lon="3.82244">
        <ele>97</ele>
        <time>2021-02-20T12:58:25Z</time>
      </trkpt>
      <trkpt lat="43.6845" lon="3.82245">
        <ele>97</ele>
        <time>2021-02-20T12:58:26Z</time>
      </trkpt>
      <trkpt lat="43.68455" lon="3.82246">
        <ele>97</ele>
        <time>2021-02-20T12:58:27Z</time>
      </trkpt>
      <trkpt lat="43.68459" lon="3.82247">
        <ele>97</ele>
        <time>2021-02-20T12:58:28Z</time>
      </trkpt>
      <trkpt lat="43.68463" lon="3.82247">
        <ele>96</ele>
        <time>2021-02-20T12:58:29Z</time>
      </trkpt>
      <trkpt lat="43.68467" lon="3.82248">
        <ele>96</ele>
        <time>2021-02-20T12:58:30Z</time>
      </trkpt>
      <trkpt lat="43.68472" lon="3.82249">
        <ele>96</ele>
        <time>2021-02-20T12:58:31Z</time>
      </trkpt>
      <trkpt lat="43.68476" lon="3.8225">
        <ele>96</ele>
        <time>2021-02-20T12:58:32Z</time>
      </trkpt>
      <trkpt lat="43.6848" lon="3.8225">
        <ele>96</ele>
        <time>2021-02-20T12:58:33Z</time>
      </trkpt>
      <trkpt lat="43.68484" lon="3.82251">
        <ele>96</ele>
        <time>2021-02-20T12:58:34Z</time>
      </trkpt>
      <trkpt lat="43.68488" lon="3.82253">
        <ele>96</ele>
        <time>2021-02-20T12:58:35Z</time>
      </trkpt>
      <trkpt lat="43.68492" lon="3.82254">
        <ele>96</ele>
        <time>2021-02-20T12:58:36Z</time>
      </trkpt>
      <trkpt lat="43.68495" lon="3.82256">
        <ele>96</ele>
        <time>2021-02-20T12:58:37Z</time>
      </trkpt>
      <trkpt lat="43.68498" lon="3.82258">
        <ele>96</ele>
        <time>2021-02-20T12:58:38Z</time>
      </trkpt>
      <trkpt lat="43.685" lon="3.82259">
        <ele>96</ele>
        <time>2021-02-20T12:58:39Z</time>
      </trkpt>
      <trkpt lat="43.68502" lon="3.8226">
        <ele>96</ele>
        <time>2021-02-20T12:58:40Z</time>
      </trkpt>
      <trkpt lat="43.68505" lon="3.82261">
        <ele>96</ele>
        <time>2021-02-20T12:58:41Z</time>
      </trkpt>
      <trkpt lat="43.68507" lon="3.82262">
        <ele>96</ele>
        <time>2021-02-20T12:58:42Z</time>
      </trkpt>
      <trkpt lat="43.68509" lon="3.82262">
        <ele>96</ele>
        <time>2021-02-20T12:58:43Z</time>
      </trkpt>
      <trkpt lat="43.68512" lon="3.82263">
        <ele>96</ele>
        <time>2021-02-20T12:58:44Z</time>
      </trkpt>
      <trkpt lat="43.68514" lon="3.82263">
        <ele>96</ele>
        <time>2021-02-20T12:58:45Z</time>
      </trkpt>
      <trkpt lat="43.68516" lon="3.82264">
        <ele>96</ele>
        <time>2021-02-20T12:58:46Z</time>
      </trkpt>
      <trkpt lat="43.68519" lon="3.82265">
        <ele>96</ele>
        <time>2021-02-20T12:58:47Z</time>
      </trkpt>
      <trkpt lat="43.68521" lon="3.82266">
        <ele>96</ele>
        <time>2021-02-20T12:58:48Z</time>
      </trkpt>
      <trkpt lat="43.68524" lon="3.82267">
        <ele>97</ele>
        <time>2021-02-20T12:58:49Z</time>
      </trkpt>
      <trkpt lat="43.68527" lon="3.82268">
        <ele>97</ele>
        <time>2021-02-20T12:58:50Z</time>
      </trkpt>
      <trkpt lat="43.6853" lon="3.82269">
        <ele>97</ele>
        <time>2021-02-20T12:58:51Z</time>
      </trkpt>
      <trkpt lat="43.68533" lon="3.8227">
        <ele>97</ele>
        <time>2021-02-20T12:58:52Z</time>
      </trkpt>
      <trkpt lat="43.68536" lon="3.82271">
        <ele>97</ele>
        <time>2021-02-20T12:58:53Z</time>
      </trkpt>
      <trkpt lat="43.6854" lon="3.82273">
        <ele>97</ele>
        <time>2021-02-20T12:58:54Z</time>
      </trkpt>
      <trkpt lat="43.68543" lon="3.82274">
        <ele>97</ele>
        <time>2021-02-20T12:58:55Z</time>
      </trkpt>
      <trkpt lat="43.68546" lon="3.82275">
        <ele>97</ele>
        <time>2021-02-20T12:58:56Z</time>
      </trkpt>
      <trkpt lat="43.68549" lon="3.82276">
        <ele>97</ele>
        <time>2021-02-20T12:58:57Z</time>
      </trkpt>
      <trkpt lat="43.68552" lon="3.82277">
        <ele>97</ele>
        <time>2021-02-20T12:58:58Z</time>
      </trkpt>
      <trkpt lat="43.68555" lon="3.82278">
        <ele>97</ele>
        <time>2021-02-20T12:58:59Z</time>
      </trkpt>
      <trkpt lat="43.68558" lon="3.8228">
        <ele>97</ele>
        <time>2021-02-20T12:59:00Z</time>
      </trkpt>
      <trkpt lat="43.68561" lon="3.82281">
        <ele>97</ele>
        <time>2021-02-20T12:59:01Z</time>
      </trkpt>
      <trkpt lat="43.68564" lon="3.82282">
        <ele>97</ele>
        <time>2021-02-20T12:59:02Z</time>
      </trkpt>
      <trkpt lat="43.68568" lon="3.82283">
        <ele>97</ele>
        <time>2021-02-20T12:59:03Z</time>
      </trkpt>
      <trkpt lat="43.68571" lon="3.82284">
        <ele>97</ele>
        <time>2021-02-20T12:59:04Z</time>
      </trkpt>
      <trkpt lat="43.68574" lon="3.82286">
        <ele>97</ele>
        <time>2021-02-20T12:59:05Z</time>
      </trkpt>
      <trkpt lat="43.68577" lon="3.82287">
        <ele>97</ele>
        <time>2021-02-20T12:59:06Z</time>
      </trkpt>
      <trkpt lat="43.68581" lon="3.82288">
        <ele>97</ele>
        <time>2021-02-20T12:59:07Z</time>
      </trkpt>
      <trkpt lat="43.68584" lon="3.82289">
        <ele>97</ele>
        <time>2021-02-20T12:59:08Z</time>
      </trkpt>
      <trkpt lat="43.68588" lon="3.82291">
        <ele>97</ele>
        <time>2021-02-20T12:59:09Z</time>
      </trkpt>
      <trkpt lat="43.68591" lon="3.82292">
        <ele>97</ele>
        <time>2021-02-20T12:59:10Z</time>
      </trkpt>
      <trkpt lat="43.68595" lon="3.82293">
        <ele>97</ele>
        <time>2021-02-20T12:59:11Z</time>
      </trkpt>
      <trkpt lat="43.68598" lon="3.82294">
        <ele>97</ele>
        <time>2021-02-20T12:59:12Z</time>
      </trkpt>
      <trkpt lat="43.68602" lon="3.82296">
        <ele>97</ele>
        <time>2021-02-20T12:59:13Z</time>
      </trkpt>
      <trkpt lat="43.68605" lon="3.82297">
        <ele>97</ele>
        <time>2021-02-20T12:59:14Z</time>
      </trkpt>
      <trkpt lat="43.68609" lon="3.82298">
        <ele>97</ele>
        <time>2021-02-20T12:59:15Z</time>
      </trkpt>
      <trkpt lat="43.68612" lon="3.82299">
        <ele>97</ele>
        <time>2021-02-20T12:59:16Z</time>
      </trkpt>
      <trkpt lat="43.68615" lon="3.82301">
        <ele>97</ele>
        <time>2021-02-20T12:59:17Z</time>
      </trkpt>
      <trkpt lat="43.68619" lon="3.82302">
        <ele>97</ele>
        <time>2021-02-20T12:59:18Z</time>
      </trkpt>
      <trkpt lat="43.68622" lon="3.82303">
        <ele>98</ele>
        <time>2021-02-20T12:59:19Z</time>
      </trkpt>
      <trkpt lat="43.68625" lon="3.82304">
        <ele>98</ele>
        <time>2021-02-20T12:59:20Z</time>
      </trkpt>
      <trkpt lat="43.68628" lon="3.82305">
        <ele>98</ele>
        <time>2021-02-20T12:59:21Z</time>
      </trkpt>
      <trkpt lat="43.68631" lon="3.82306">
        <ele>98</ele>
        <time>2021-02-20T12:59:22Z</time>
      </trkpt>
      <trkpt lat="43.68634" lon="3.82307">
        <ele>98</ele>
        <time>2021-02-20T12:59:23Z</time>
      </trkpt>
      <trkpt lat="43.68637" lon="3.82308">
        <ele>98</ele>
        <time>2021-02-20T12:59:24Z</time>
      </trkpt>
      <trkpt lat="43.6864" lon="3.82309">
        <ele>98</ele>
        <time>2021-02-20T12:59:25Z</time>
      </trkpt>
      <trkpt lat="43.68643" lon="3.82311">
        <ele>98</ele>
        <time>2021-02-20T12:59:26Z</time>
      </trkpt>
      <trkpt lat="43.68646" lon="3.82312">
        <ele>98</ele>
        <time>2021-02-20T12:59:27Z</time>
      </trkpt>
      <trkpt lat="43.68649" lon="3.82313">
        <ele>98</ele>
        <time>2021-02-20T12:59:28Z</time>
      </trkpt>
      <trkpt lat="43.68652" lon="3.82314">
        <ele>98</ele>
        <time>2021-02-20T12:59:29Z</time>
      </trkpt>
      <trkpt lat="43.68655" lon="3.82316">
        <ele>98</ele>
        <time>2021-02-20T12:59:30Z</time>
      </trkpt>
      <trkpt lat="43.68658" lon="3.82317">
        <ele>98</ele>
        <time>2021-02-20T12:59:31Z</time>
      </trkpt>
      <trkpt lat="43.68662" lon="3.82319">
        <ele>98</ele>
        <time>2021-02-20T12:59:32Z</time>
      </trkpt>
      <trkpt lat="43.68665" lon="3.82321">
        <ele>98</ele>
        <time>2021-02-20T12:59:33Z</time>
      </trkpt>
      <trkpt lat="43.68668" lon="3.82322">
        <ele>98</ele>
        <time>2021-02-20T12:59:34Z</time>
      </trkpt>
      <trkpt lat="43.68671" lon="3.82324">
        <ele>98</ele>
        <time>2021-02-20T12:59:35Z</time>
      </trkpt>
      <trkpt lat="43.68673" lon="3.82327">
        <ele>98</ele>
        <time>2021-02-20T12:59:36Z</time>
      </trkpt>
      <trkpt lat="43.68676" lon="3.82329">
        <ele>98</ele>
        <time>2021-02-20T12:59:37Z</time>
      </trkpt>
      <trkpt lat="43.68679" lon="3.82331">
        <ele>98</ele>
        <time>2021-02-20T12:59:38Z</time>
      </trkpt>
      <trkpt lat="43.68683" lon="3.82332">
        <ele>99</ele>
        <time>2021-02-20T12:59:39Z</time>
      </trkpt>
      <trkpt lat="43.68686" lon="3.82334">
        <ele>99</ele>
        <time>2021-02-20T12:59:40Z</time>
      </trkpt>
      <trkpt lat="43.68689" lon="3.82336">
        <ele>99</ele>
        <time>2021-02-20T12:59:41Z</time>
      </trkpt>
      <trkpt lat="43.68693" lon="3.82338">
        <ele>99</ele>
        <time>2021-02-20T12:59:42Z</time>
      </trkpt>
      <trkpt lat="43.68696" lon="3.8234">
        <ele>99</ele>
        <time>2021-02-20T12:59:43Z</time>
      </trkpt>
      <trkpt lat="43.68699" lon="3.82342">
        <ele>99</ele>
        <time>2021-02-20T12:59:44Z</time>
      </trkpt>
      <trkpt lat="43.68702" lon="3.82345">
        <ele>99</ele>
        <time>2021-02-20T12:59:45Z</time>
      </trkpt>
      <trkpt lat="43.68705" lon="3.82348">
        <ele>99</ele>
        <time>2021-02-20T12:59:46Z</time>
      </trkpt>
      <trkpt lat="43.68708" lon="3.82351">
        <ele>99</ele>
        <time>2021-02-20T12:59:47Z</time>
      </trkpt>
      <trkpt lat="43.68711" lon="3.82354">
        <ele>99</ele>
        <time>2021-02-20T12:59:48Z</time>
      </trkpt>
      <trkpt lat="43.68714" lon="3.82356">
        <ele>99</ele>
        <time>2021-02-20T12:59:49Z</time>
      </trkpt>
      <trkpt lat="43.68717" lon="3.82359">
        <ele>99</ele>
        <time>2021-02-20T12:59:50Z</time>
      </trkpt>
      <trkpt lat="43.6872" lon="3.82362">
        <ele>99</ele>
        <time>2021-02-20T12:59:51Z</time>
      </trkpt>
      <trkpt lat="43.68723" lon="3.82365">
        <ele>99</ele>
        <time>2021-02-20T12:59:52Z</time>
      </trkpt>
      <trkpt lat="43.68726" lon="3.82368">
        <ele>99</ele>
        <time>2021-02-20T12:59:53Z</time>
      </trkpt>
      <trkpt lat="43.68729" lon="3.82371">
        <ele>99</ele>
        <time>2021-02-20T12:59:54Z</time>
      </trkpt>
      <trkpt lat="43.68732" lon="3.82374">
        <ele>99</ele>
        <time>2021-02-20T12:59:55Z</time>
      </trkpt>
      <trkpt lat="43.68735" lon="3.82377">
        <ele>99</ele>
        <time>2021-02-20T12:59:56Z</time>
      </trkpt>
      <trkpt lat="43.68738" lon="3.82379">
        <ele>99</ele>
        <time>2021-02-20T12:59:57Z</time>
      </trkpt>
      <trkpt lat="43.6874" lon="3.82382">
        <ele>99</ele>
        <time>2021-02-20T12:59:58Z</time>
      </trkpt>
      <trkpt lat="43.68743" lon="3.82385">
        <ele>99</ele>
        <time>2021-02-20T12:59:59Z</time>
      </trkpt>
      <trkpt lat="43.68745" lon="3.82388">
        <ele>99</ele>
        <time>2021-02-20T13:00:00Z</time>
      </trkpt>
      <trkpt lat="43.68746" lon="3.82391">
        <ele>99</ele>
        <time>2021-02-20T13:00:01Z</time>
      </trkpt>
      <trkpt lat="43.68748" lon="3.82395">
        <ele>99</ele>
        <time>2021-02-20T13:00:02Z</time>
      </trkpt>
      <trkpt lat="43.68749" lon="3.82399">
        <ele>99</ele>
        <time>2021-02-20T13:00:03Z</time>
      </trkpt>
      <trkpt lat="43.6875" lon="3.82402">
        <ele>99</ele>
        <time>2021-02-20T13:00:04Z</time>
      </trkpt>
      <trkpt lat="43.68752" lon="3.82405">
        <ele>99</ele>
        <time>2021-02-20T13:00:05Z</time>
      </trkpt>
      <trkpt lat="43.68753" lon="3.82408">
        <ele>99</ele>
        <time>2021-02-20T13:00:06Z</time>
      </trkpt>
      <trkpt lat="43.68755" lon="3.82411">
        <ele>99</ele>
        <time>2021-02-20T13:00:07Z</time>
      </trkpt>
      <trkpt lat="43.68757" lon="3.82414">
        <ele>99</ele>
        <time>2021-02-20T13:00:08Z</time>
      </trkpt>
      <trkpt lat="43.68759" lon="3.82417">
        <ele>99</ele>
        <time>2021-02-20T13:00:09Z</time>
      </trkpt>
      <trkpt lat="43.68761" lon="3.82421">
        <ele>99</ele>
        <time>2021-02-20T13:00:10Z</time>
      </trkpt>
      <trkpt lat="43.68763" lon="3.82424">
        <ele>99</ele>
        <time>2021-02-20T13:00:11Z</time>
      </trkpt>
      <trkpt lat="43.68765" lon="3.82427">
        <ele>99</ele>
        <time>2021-02-20T13:00:12Z</time>
      </trkpt>
      <trkpt lat="43.68768" lon="3.8243">
        <ele>99</ele>
        <time>2021-02-20T13:00:13Z</time>
      </trkpt>
      <trkpt lat="43.6877" lon="3.82433">
        <ele>99</ele>
        <time>2021-02-20T13:00:14Z</time>
      </trkpt>
      <trkpt lat="43.68773" lon="3.82436">
        <ele>99</ele>
        <time>2021-02-20T13:00:15Z</time>
      </trkpt>
      <trkpt lat="43.68776" lon="3.82438">
        <ele>99</ele>
        <time>2021-02-20T13:00:16Z</time>
      </trkpt>
      <trkpt lat="43.68778" lon="3.82441">
        <ele>99</ele>
        <time>2021-02-20T13:00:17Z</time>
      </trkpt>
      <trkpt lat="43.68781" lon="3.82442">
        <ele>99</ele>
        <time>2021-02-20T13:00:18Z</time>
      </trkpt>
      <trkpt lat="43.68783" lon="3.82443">
        <ele>98</ele>
        <time>2021-02-20T13:00:19Z</time>
      </trkpt>
      <trkpt lat="43.68786" lon="3.82443">
        <ele>98</ele>
        <time>2021-02-20T13:00:20Z</time>
      </trkpt>
      <trkpt lat="43.68788" lon="3.82444">
        <ele>98</ele>
        <time>2021-02-20T13:00:21Z</time>
      </trkpt>
      <trkpt lat="43.6879" lon="3.82444">
        <ele>98</ele>
        <time>2021-02-20T13:00:23Z</time>
      </trkpt>
      <trkpt lat="43.68792" lon="3.82446">
        <ele>98</ele>
        <time>2021-02-20T13:00:25Z</time>
      </trkpt>
      <trkpt lat="43.68791" lon="3.82449">
        <ele>98</ele>
        <time>2021-02-20T13:00:27Z</time>
      </trkpt>
      <trkpt lat="43.6879" lon="3.82452">
        <ele>98</ele>
        <time>2021-02-20T13:00:28Z</time>
      </trkpt>
      <trkpt lat="43.6879" lon="3.82455">
        <ele>98</ele>
        <time>2021-02-20T13:00:29Z</time>
      </trkpt>
      <trkpt lat="43.68791" lon="3.82459">
        <ele>98</ele>
        <time>2021-02-20T13:00:31Z</time>
      </trkpt>
      <trkpt lat="43.68793" lon="3.8246">
        <ele>98</ele>
        <time>2021-02-20T13:00:33Z</time>
      </trkpt>
      <trkpt lat="43.68794" lon="3.82463">
        <ele>98</ele>
        <time>2021-02-20T13:00:36Z</time>
      </trkpt>
      <trkpt lat="43.68791" lon="3.82465">
        <ele>98</ele>
        <time>2021-02-20T13:00:38Z</time>
      </trkpt>
      <trkpt lat="43.68787" lon="3.82465">
        <ele>98</ele>
        <time>2021-02-20T13:00:40Z</time>
      </trkpt>
      <trkpt lat="43.68786" lon="3.82466">
        <ele>98</ele>
        <time>2021-02-20T13:00:41Z</time>
      </trkpt>
      <trkpt lat="43.68783" lon="3.82466">
        <ele>98</ele>
        <time>2021-02-20T13:00:42Z</time>
      </trkpt>
      <trkpt lat="43.68781" lon="3.82466">
        <ele>98</ele>
        <time>2021-02-20T13:00:43Z</time>
      </trkpt>
      <trkpt lat="43.6878" lon="3.82467">
        <ele>98</ele>
        <time>2021-02-20T13:00:44Z</time>
      </trkpt>
      <trkpt lat="43.68778" lon="3.82469">
        <ele>98</ele>
        <time>2021-02-20T13:00:46Z</time>
      </trkpt>
      <trkpt lat="43.6878" lon="3.8247">
        <ele>99</ele>
        <time>2021-02-20T13:00:49Z</time>
      </trkpt>
      <trkpt lat="43.68782" lon="3.82469">
        <ele>99</ele>
        <time>2021-02-20T13:00:50Z</time>
      </trkpt>
      <trkpt lat="43.68784" lon="3.82467">
        <ele>99</ele>
        <time>2021-02-20T13:00:51Z</time>
      </trkpt>
      <trkpt lat="43.68787" lon="3.82465">
        <ele>99</ele>
        <time>2021-02-20T13:00:52Z</time>
      </trkpt>
      <trkpt lat="43.6879" lon="3.82465">
        <ele>99</ele>
        <time>2021-02-20T13:00:53Z</time>
      </trkpt>
      <trkpt lat="43.68792" lon="3.82465">
        <ele>99</ele>
        <time>2021-02-20T13:00:54Z</time>
      </trkpt>
      <trkpt lat="43.68794" lon="3.82464">
        <ele>99</ele>
        <time>2021-02-20T13:00:55Z</time>
      </trkpt>
      <trkpt lat="43.68797" lon="3.82464">
        <ele>99</ele>
        <time>2021-02-20T13:00:57Z</time>
      </trkpt>
      <trkpt lat="43.68805" lon="3.82458">
        <ele>100</ele>
        <time>2021-02-20T13:01:11Z</time>
      </trkpt>
      <trkpt lat="43.68807" lon="3.82456">
        <ele>100</ele>
        <time>2021-02-20T13:01:12Z</time>
      </trkpt>
      <trkpt lat="43.68809" lon="3.82455">
        <ele>100</ele>
        <time>2021-02-20T13:01:13Z</time>
      </trkpt>
      <trkpt lat="43.68813" lon="3.82455">
        <ele>100</ele>
        <time>2021-02-20T13:01:14Z</time>
      </trkpt>
      <trkpt lat="43.68816" lon="3.82454">
        <ele>100</ele>
        <time>2021-02-20T13:01:15Z</time>
      </trkpt>
      <trkpt lat="43.68819" lon="3.82453">
        <ele>100</ele>
        <time>2021-02-20T13:01:16Z</time>
      </trkpt>
      <trkpt lat="43.68823" lon="3.82451">
        <ele>100</ele>
        <time>2021-02-20T13:01:17Z</time>
      </trkpt>
      <trkpt lat="43.68826" lon="3.8245">
        <ele>100</ele>
        <time>2021-02-20T13:01:18Z</time>
      </trkpt>
      <trkpt lat="43.6883" lon="3.82448">
        <ele>100</ele>
        <time>2021-02-20T13:01:19Z</time>
      </trkpt>
      <trkpt lat="43.68834" lon="3.82447">
        <ele>100</ele>
        <time>2021-02-20T13:01:20Z</time>
      </trkpt>
      <trkpt lat="43.68837" lon="3.82445">
        <ele>100</ele>
        <time>2021-02-20T13:01:21Z</time>
      </trkpt>
      <trkpt lat="43.68841" lon="3.82443">
        <ele>100</ele>
        <time>2021-02-20T13:01:22Z</time>
      </trkpt>
      <trkpt lat="43.68844" lon="3.82441">
        <ele>100</ele>
        <time>2021-02-20T13:01:23Z</time>
      </trkpt>
      <trkpt lat="43.68848" lon="3.8244">
        <ele>100</ele>
        <time>2021-02-20T13:01:24Z</time>
      </trkpt>
      <trkpt lat="43.68852" lon="3.82439">
        <ele>100</ele>
        <time>2021-02-20T13:01:25Z</time>
      </trkpt>
      <trkpt lat="43.68856" lon="3.82438">
        <ele>100</ele>
        <time>2021-02-20T13:01:26Z</time>
      </trkpt>
      <trkpt lat="43.6886" lon="3.82438">
        <ele>100</ele>
        <time>2021-02-20T13:01:27Z</time>
      </trkpt>
      <trkpt lat="43.68863" lon="3.82439">
        <ele>100</ele>
        <time>2021-02-20T13:01:28Z</time>
      </trkpt>
      <trkpt lat="43.68866" lon="3.8244">
        <ele>100</ele>
        <time>2021-02-20T13:01:29Z</time>
      </trkpt>
      <trkpt lat="43.6887" lon="3.82441">
        <ele>101</ele>
        <time>2021-02-20T13:01:30Z</time>
      </trkpt>
      <trkpt lat="43.68873" lon="3.82441">
        <ele>101</ele>
        <time>2021-02-20T13:01:31Z</time>
      </trkpt>
      <trkpt lat="43.68876" lon="3.82441">
        <ele>101</ele>
        <time>2021-02-20T13:01:32Z</time>
      </trkpt>
      <trkpt lat="43.68879" lon="3.82441">
        <ele>101</ele>
        <time>2021-02-20T13:01:33Z</time>
      </trkpt>
      <trkpt lat="43.68882" lon="3.8244">
        <ele>101</ele>
        <time>2021-02-20T13:01:34Z</time>
      </trkpt>
      <trkpt lat="43.68885" lon="3.8244">
        <ele>101</ele>
        <time>2021-02-20T13:01:35Z</time>
      </trkpt>
      <trkpt lat="43.68888" lon="3.8244">
        <ele>101</ele>
        <time>2021-02-20T13:01:36Z</time>
      </trkpt>
      <trkpt lat="43.68891" lon="3.8244">
        <ele>101</ele>
        <time>2021-02-20T13:01:37Z</time>
      </trkpt>
      <trkpt lat="43.68894" lon="3.8244">
        <ele>101</ele>
        <time>2021-02-20T13:01:38Z</time>
      </trkpt>
      <trkpt lat="43.68897" lon="3.8244">
        <ele>101</ele>
        <time>2021-02-20T13:01:39Z</time>
      </trkpt>
      <trkpt lat="43.689" lon="3.8244">
        <ele>101</ele>
        <time>2021-02-20T13:01:40Z</time>
      </trkpt>
      <trkpt lat="43.68903" lon="3.8244">
        <ele>101</ele>
        <time>2021-02-20T13:01:41Z</time>
      </trkpt>
      <trkpt lat="43.68906" lon="3.8244">
        <ele>101</ele>
        <time>2021-02-20T13:01:42Z</time>
      </trkpt>
      <trkpt lat="43.68909" lon="3.8244">
        <ele>101</ele>
        <time>2021-02-20T13:01:43Z</time>
      </trkpt>
      <trkpt lat="43.68912" lon="3.8244">
        <ele>101</ele>
        <time>2021-02-20T13:01:44Z</time>
      </trkpt>
      <trkpt lat="43.68914" lon="3.8244">
        <ele>101</ele>
        <time>2021-02-20T13:01:45Z</time>
      </trkpt>
      <trkpt lat="43.68916" lon="3.8244">
        <ele>101</ele>
        <time>2021-02-20T13:01:46Z</time>
      </trkpt>
      <trkpt lat="43.68919" lon="3.8244">
        <ele>101</ele>
        <time>2021-02-20T13:01:47Z</time>
      </trkpt>
      <trkpt lat="43.68921" lon="3.8244">
        <ele>101</ele>
        <time>2021-02-20T13:01:48Z</time>
      </trkpt>
      <trkpt lat="43.68923" lon="3.8244">
        <ele>101</ele>
        <time>2021-02-20T13:01:49Z</time>
      </trkpt>
      <trkpt lat="43.68925" lon="3.82441">
        <ele>102</ele>
        <time>2021-02-20T13:01:50Z</time>
      </trkpt>
      <trkpt lat="43.68928" lon="3.82441">
        <ele>102</ele>
        <time>2021-02-20T13:01:51Z</time>
      </trkpt>
      <trkpt lat="43.6893" lon="3.82442">
        <ele>102</ele>
        <time>2021-02-20T13:01:52Z</time>
      </trkpt>
      <trkpt lat="43.68932" lon="3.82443">
        <ele>102</ele>
        <time>2021-02-20T13:01:53Z</time>
      </trkpt>
      <trkpt lat="43.68934" lon="3.82444">
        <ele>102</ele>
        <time>2021-02-20T13:01:54Z</time>
      </trkpt>
      <trkpt lat="43.68936" lon="3.82446">
        <ele>102</ele>
        <time>2021-02-20T13:01:56Z</time>
      </trkpt>
      <trkpt lat="43.68939" lon="3.82448">
        <ele>102</ele>
        <time>2021-02-20T13:01:58Z</time>
      </trkpt>
      <trkpt lat="43.68941" lon="3.8245">
        <ele>104</ele>
        <time>2021-02-20T13:02:00Z</time>
      </trkpt>
      <trkpt lat="43.68944" lon="3.82452">
        <ele>104</ele>
        <time>2021-02-20T13:02:02Z</time>
      </trkpt>
      <trkpt lat="43.68946" lon="3.82453">
        <ele>104</ele>
        <time>2021-02-20T13:02:04Z</time>
      </trkpt>
      <trkpt lat="43.68949" lon="3.82454">
        <ele>104</ele>
        <time>2021-02-20T13:02:06Z</time>
      </trkpt>
      <trkpt lat="43.68952" lon="3.82456">
        <ele>104</ele>
        <time>2021-02-20T13:02:08Z</time>
      </trkpt>
      <trkpt lat="43.68954" lon="3.82457">
        <ele>107</ele>
        <time>2021-02-20T13:02:10Z</time>
      </trkpt>
      <trkpt lat="43.68956" lon="3.82459">
        <ele>107</ele>
        <time>2021-02-20T13:02:12Z</time>
      </trkpt>
      <trkpt lat="43.68958" lon="3.8246">
        <ele>107</ele>
        <time>2021-02-20T13:02:14Z</time>
      </trkpt>
      <trkpt lat="43.68961" lon="3.82462">
        <ele>107</ele>
        <time>2021-02-20T13:02:16Z</time>
      </trkpt>
      <trkpt lat="43.68963" lon="3.82463">
        <ele>107</ele>
        <time>2021-02-20T13:02:18Z</time>
      </trkpt>
      <trkpt lat="43.68965" lon="3.82464">
        <ele>110</ele>
        <time>2021-02-20T13:02:20Z</time>
      </trkpt>
      <trkpt lat="43.68968" lon="3.82465">
        <ele>110</ele>
        <time>2021-02-20T13:02:22Z</time>
      </trkpt>
      <trkpt lat="43.6897" lon="3.82467">
        <ele>110</ele>
        <time>2021-02-20T13:02:24Z</time>
      </trkpt>
      <trkpt lat="43.68972" lon="3.82468">
        <ele>110</ele>
        <time>2021-02-20T13:02:26Z</time>
      </trkpt>
      <trkpt lat="43.68975" lon="3.82469">
        <ele>110</ele>
        <time>2021-02-20T13:02:28Z</time>
      </trkpt>
      <trkpt lat="43.68977" lon="3.8247">
        <ele>112</ele>
        <time>2021-02-20T13:02:30Z</time>
      </trkpt>
      <trkpt lat="43.6898" lon="3.82471">
        <ele>112</ele>
        <time>2021-02-20T13:02:32Z</time>
      </trkpt>
      <trkpt lat="43.68982" lon="3.82473">
        <ele>112</ele>
        <time>2021-02-20T13:02:34Z</time>
      </trkpt>
      <trkpt lat="43.68984" lon="3.82474">
        <ele>112</ele>
        <time>2021-02-20T13:02:36Z</time>
      </trkpt>
      <trkpt lat="43.68987" lon="3.82475">
        <ele>112</ele>
        <time>2021-02-20T13:02:38Z</time>
      </trkpt>
      <trkpt lat="43.6899" lon="3.82476">
        <ele>114</ele>
        <time>2021-02-20T13:02:40Z</time>
      </trkpt>
      <trkpt lat="43.68992" lon="3.82478">
        <ele>114</ele>
        <time>2021-02-20T13:02:42Z</time>
      </trkpt>
      <trkpt lat="43.68994" lon="3.82479">
        <ele>114</ele>
        <time>2021-02-20T13:02:44Z</time>
      </trkpt>
      <trkpt lat="43.68996" lon="3.82481">
        <ele>114</ele>
        <time>2021-02-20T13:02:46Z</time>
      </trkpt>
      <trkpt lat="43.68999" lon="3.82483">
        <ele>114</ele>
        <time>2021-02-20T13:02:48Z</time>
      </trkpt>
      <trkpt lat="43.69002" lon="3.82486">
        <ele>115</ele>
        <time>2021-02-20T13:02:50Z</time>
      </trkpt>
      <trkpt lat="43.69004" lon="3.82487">
        <ele>115</ele>
        <time>2021-02-20T13:02:51Z</time>
      </trkpt>
      <trkpt lat="43.69005" lon="3.82489">
        <ele>115</ele>
        <time>2021-02-20T13:02:52Z</time>
      </trkpt>
      <trkpt lat="43.69008" lon="3.82491">
        <ele>115</ele>
        <time>2021-02-20T13:02:54Z</time>
      </trkpt>
      <trkpt lat="43.69011" lon="3.82493">
        <ele>115</ele>
        <time>2021-02-20T13:02:56Z</time>
      </trkpt>
      <trkpt lat="43.69013" lon="3.82493">
        <ele>115</ele>
        <time>2021-02-20T13:02:57Z</time>
      </trkpt>
      <trkpt lat="43.69015" lon="3.82494">
        <ele>115</ele>
        <time>2021-02-20T13:02:58Z</time>
      </trkpt>
      <trkpt lat="43.69017" lon="3.82495">
        <ele>115</ele>
        <time>2021-02-20T13:02:59Z</time>
      </trkpt>
      <trkpt lat="43.69019" lon="3.82496">
        <ele>115</ele>
        <time>2021-02-20T13:03:00Z</time>
      </trkpt>
      <trkpt lat="43.69021" lon="3.82497">
        <ele>115</ele>
        <time>2021-02-20T13:03:01Z</time>
      </trkpt>
      <trkpt lat="43.69023" lon="3.82499">
        <ele>115</ele>
        <time>2021-02-20T13:03:02Z</time>
      </trkpt>
      <trkpt lat="43.69025" lon="3.825">
        <ele>115</ele>
        <time>2021-02-20T13:03:03Z</time>
      </trkpt>
      <trkpt lat="43.69027" lon="3.82501">
        <ele>115</ele>
        <time>2021-02-20T13:03:04Z</time>
      </trkpt>
      <trkpt lat="43.69029" lon="3.82502">
        <ele>115</ele>
        <time>2021-02-20T13:03:05Z</time>
      </trkpt>
      <trkpt lat="43.69031" lon="3.82503">
        <ele>115</ele>
        <time>2021-02-20T13:03:06Z</time>
      </trkpt>
      <trkpt lat="43.69034" lon="3.82505">
        <ele>115</ele>
        <time>2021-02-20T13:03:07Z</time>
      </trkpt>
      <trkpt lat="43.69036" lon="3.82506">
        <ele>115</ele>
        <time>2021-02-20T13:03:08Z</time>
      </trkpt>
      <trkpt lat="43.69037" lon="3.82508">
        <ele>115</ele>
        <time>2021-02-20T13:03:09Z</time>
      </trkpt>
      <trkpt lat="43.6904" lon="3.82509">
        <ele>115</ele>
        <time>2021-02-20T13:03:10Z</time>
      </trkpt>
      <trkpt lat="43.69043" lon="3.82512">
        <ele>115</ele>
        <time>2021-02-20T13:03:11Z</time>
      </trkpt>
      <trkpt lat="43.69047" lon="3.82514">
        <ele>115</ele>
        <time>2021-02-20T13:03:12Z</time>
      </trkpt>
      <trkpt lat="43.69051" lon="3.82515">
        <ele>115</ele>
        <time>2021-02-20T13:03:13Z</time>
      </trkpt>
      <trkpt lat="43.69054" lon="3.82516">
        <ele>115</ele>
        <time>2021-02-20T13:03:14Z</time>
      </trkpt>
      <trkpt lat="43.69058" lon="3.82517">
        <ele>115</ele>
        <time>2021-02-20T13:03:15Z</time>
      </trkpt>
      <trkpt lat="43.6906" lon="3.82519">
        <ele>115</ele>
        <time>2021-02-20T13:03:16Z</time>
      </trkpt>
      <trkpt lat="43.69062" lon="3.8252">
        <ele>115</ele>
        <time>2021-02-20T13:03:17Z</time>
      </trkpt>
      <trkpt lat="43.69064" lon="3.82523">
        <ele>115</ele>
        <time>2021-02-20T13:03:18Z</time>
      </trkpt>
      <trkpt lat="43.69068" lon="3.82527">
        <ele>115</ele>
        <time>2021-02-20T13:03:19Z</time>
      </trkpt>
      <trkpt lat="43.69073" lon="3.8253">
        <ele>114</ele>
        <time>2021-02-20T13:03:20Z</time>
      </trkpt>
      <trkpt lat="43.69077" lon="3.82532">
        <ele>114</ele>
        <time>2021-02-20T13:03:21Z</time>
      </trkpt>
      <trkpt lat="43.6908" lon="3.82535">
        <ele>114</ele>
        <time>2021-02-20T13:03:22Z</time>
      </trkpt>
      <trkpt lat="43.69082" lon="3.82537">
        <ele>114</ele>
        <time>2021-02-20T13:03:23Z</time>
      </trkpt>
      <trkpt lat="43.69084" lon="3.82539">
        <ele>114</ele>
        <time>2021-02-20T13:03:24Z</time>
      </trkpt>
      <trkpt lat="43.69087" lon="3.82542">
        <ele>114</ele>
        <time>2021-02-20T13:03:25Z</time>
      </trkpt>
      <trkpt lat="43.69092" lon="3.82545">
        <ele>114</ele>
        <time>2021-02-20T13:03:26Z</time>
      </trkpt>
      <trkpt lat="43.69097" lon="3.82547">
        <ele>114</ele>
        <time>2021-02-20T13:03:27Z</time>
      </trkpt>
      <trkpt lat="43.69103" lon="3.8255">
        <ele>114</ele>
        <time>2021-02-20T13:03:28Z</time>
      </trkpt>
      <trkpt lat="43.69108" lon="3.82553">
        <ele>114</ele>
        <time>2021-02-20T13:03:29Z</time>
      </trkpt>
      <trkpt lat="43.69113" lon="3.82555">
        <ele>113</ele>
        <time>2021-02-20T13:03:30Z</time>
      </trkpt>
      <trkpt lat="43.69119" lon="3.82556">
        <ele>113</ele>
        <time>2021-02-20T13:03:31Z</time>
      </trkpt>
      <trkpt lat="43.69123" lon="3.82559">
        <ele>113</ele>
        <time>2021-02-20T13:03:32Z</time>
      </trkpt>
      <trkpt lat="43.69127" lon="3.82561">
        <ele>113</ele>
        <time>2021-02-20T13:03:33Z</time>
      </trkpt>
      <trkpt lat="43.69129" lon="3.82565">
        <ele>113</ele>
        <time>2021-02-20T13:03:34Z</time>
      </trkpt>
      <trkpt lat="43.69132" lon="3.82567">
        <ele>113</ele>
        <time>2021-02-20T13:03:35Z</time>
      </trkpt>
      <trkpt lat="43.69134" lon="3.82569">
        <ele>113</ele>
        <time>2021-02-20T13:03:36Z</time>
      </trkpt>
      <trkpt lat="43.69136" lon="3.82571">
        <ele>113</ele>
        <time>2021-02-20T13:03:37Z</time>
      </trkpt>
      <trkpt lat="43.69139" lon="3.82573">
        <ele>113</ele>
        <time>2021-02-20T13:03:38Z</time>
      </trkpt>
      <trkpt lat="43.69141" lon="3.82574">
        <ele>113</ele>
        <time>2021-02-20T13:03:39Z</time>
      </trkpt>
      <trkpt lat="43.69143" lon="3.82575">
        <ele>114</ele>
        <time>2021-02-20T13:03:40Z</time>
      </trkpt>
      <trkpt lat="43.69145" lon="3.82576">
        <ele>114</ele>
        <time>2021-02-20T13:03:41Z</time>
      </trkpt>
      <trkpt lat="43.69147" lon="3.82577">
        <ele>114</ele>
        <time>2021-02-20T13:03:42Z</time>
      </trkpt>
      <trkpt lat="43.6915" lon="3.82578">
        <ele>114</ele>
        <time>2021-02-20T13:03:43Z</time>
      </trkpt>
      <trkpt lat="43.69152" lon="3.82579">
        <ele>114</ele>
        <time>2021-02-20T13:03:44Z</time>
      </trkpt>
      <trkpt lat="43.69154" lon="3.8258">
        <ele>114</ele>
        <time>2021-02-20T13:03:45Z</time>
      </trkpt>
      <trkpt lat="43.69156" lon="3.82581">
        <ele>114</ele>
        <time>2021-02-20T13:03:46Z</time>
      </trkpt>
      <trkpt lat="43.69159" lon="3.82581">
        <ele>114</ele>
        <time>2021-02-20T13:03:47Z</time>
      </trkpt>
      <trkpt lat="43.69161" lon="3.82582">
        <ele>114</ele>
        <time>2021-02-20T13:03:48Z</time>
      </trkpt>
      <trkpt lat="43.69163" lon="3.82582">
        <ele>114</ele>
        <time>2021-02-20T13:03:49Z</time>
      </trkpt>
      <trkpt lat="43.69165" lon="3.82583">
        <ele>115</ele>
        <time>2021-02-20T13:03:50Z</time>
      </trkpt>
      <trkpt lat="43.69167" lon="3.82584">
        <ele>115</ele>
        <time>2021-02-20T13:03:51Z</time>
      </trkpt>
      <trkpt lat="43.69169" lon="3.82585">
        <ele>115</ele>
        <time>2021-02-20T13:03:52Z</time>
      </trkpt>
      <trkpt lat="43.69172" lon="3.82586">
        <ele>115</ele>
        <time>2021-02-20T13:03:53Z</time>
      </trkpt>
      <trkpt lat="43.69175" lon="3.82587">
        <ele>115</ele>
        <time>2021-02-20T13:03:54Z</time>
      </trkpt>
      <trkpt lat="43.69177" lon="3.82589">
        <ele>115</ele>
        <time>2021-02-20T13:03:55Z</time>
      </trkpt>
      <trkpt lat="43.6918" lon="3.82591">
        <ele>115</ele>
        <time>2021-02-20T13:03:56Z</time>
      </trkpt>
      <trkpt lat="43.69184" lon="3.82593">
        <ele>115</ele>
        <time>2021-02-20T13:03:57Z</time>
      </trkpt>
      <trkpt lat="43.69188" lon="3.82595">
        <ele>115</ele>
        <time>2021-02-20T13:03:58Z</time>
      </trkpt>
      <trkpt lat="43.69193" lon="3.82597">
        <ele>115</ele>
        <time>2021-02-20T13:03:59Z</time>
      </trkpt>
      <trkpt lat="43.69197" lon="3.826">
        <ele>114</ele>
        <time>2021-02-20T13:04:00Z</time>
      </trkpt>
      <trkpt lat="43.69201" lon="3.82602">
        <ele>114</ele>
        <time>2021-02-20T13:04:01Z</time>
      </trkpt>
      <trkpt lat="43.69205" lon="3.82605">
        <ele>114</ele>
        <time>2021-02-20T13:04:02Z</time>
      </trkpt>
      <trkpt lat="43.69209" lon="3.82607">
        <ele>114</ele>
        <time>2021-02-20T13:04:03Z</time>
      </trkpt>
      <trkpt lat="43.69214" lon="3.82609">
        <ele>114</ele>
        <time>2021-02-20T13:04:04Z</time>
      </trkpt>
      <trkpt lat="43.69218" lon="3.82613">
        <ele>114</ele>
        <time>2021-02-20T13:04:05Z</time>
      </trkpt>
      <trkpt lat="43.69223" lon="3.82616">
        <ele>114</ele>
        <time>2021-02-20T13:04:06Z</time>
      </trkpt>
      <trkpt lat="43.69228" lon="3.8262">
        <ele>114</ele>
        <time>2021-02-20T13:04:07Z</time>
      </trkpt>
      <trkpt lat="43.69233" lon="3.82623">
        <ele>114</ele>
        <time>2021-02-20T13:04:08Z</time>
      </trkpt>
      <trkpt lat="43.69236" lon="3.82624">
        <ele>114</ele>
        <time>2021-02-20T13:04:09Z</time>
      </trkpt>
      <trkpt lat="43.69238" lon="3.82625">
        <ele>113</ele>
        <time>2021-02-20T13:04:10Z</time>
      </trkpt>
      <trkpt lat="43.6924" lon="3.82626">
        <ele>113</ele>
        <time>2021-02-20T13:04:11Z</time>
      </trkpt>
      <trkpt lat="43.69242" lon="3.82627">
        <ele>113</ele>
        <time>2021-02-20T13:04:12Z</time>
      </trkpt>
      <trkpt lat="43.69244" lon="3.82628">
        <ele>113</ele>
        <time>2021-02-20T13:04:13Z</time>
      </trkpt>
      <trkpt lat="43.69247" lon="3.82629">
        <ele>113</ele>
        <time>2021-02-20T13:04:14Z</time>
      </trkpt>
      <trkpt lat="43.69252" lon="3.8263">
        <ele>113</ele>
        <time>2021-02-20T13:04:15Z</time>
      </trkpt>
      <trkpt lat="43.69257" lon="3.82631">
        <ele>113</ele>
        <time>2021-02-20T13:04:16Z</time>
      </trkpt>
      <trkpt lat="43.69263" lon="3.82632">
        <ele>113</ele>
        <time>2021-02-20T13:04:17Z</time>
      </trkpt>
      <trkpt lat="43.69269" lon="3.82632">
        <ele>113</ele>
        <time>2021-02-20T13:04:18Z</time>
      </trkpt>
      <trkpt lat="43.69275" lon="3.82633">
        <ele>113</ele>
        <time>2021-02-20T13:04:19Z</time>
      </trkpt>
      <trkpt lat="43.69281" lon="3.82633">
        <ele>113</ele>
        <time>2021-02-20T13:04:20Z</time>
      </trkpt>
      <trkpt lat="43.69286" lon="3.82634">
        <ele>111</ele>
        <time>2021-02-20T13:04:21Z</time>
      </trkpt>
      <trkpt lat="43.69289" lon="3.82637">
        <ele>111</ele>
        <time>2021-02-20T13:04:22Z</time>
      </trkpt>
      <trkpt lat="43.69292" lon="3.82641">
        <ele>111</ele>
        <time>2021-02-20T13:04:23Z</time>
      </trkpt>
      <trkpt lat="43.69294" lon="3.82646">
        <ele>111</ele>
        <time>2021-02-20T13:04:24Z</time>
      </trkpt>
      <trkpt lat="43.69294" lon="3.82652">
        <ele>111</ele>
        <time>2021-02-20T13:04:25Z</time>
      </trkpt>
      <trkpt lat="43.69295" lon="3.82655">
        <ele>111</ele>
        <time>2021-02-20T13:04:26Z</time>
      </trkpt>
      <trkpt lat="43.69296" lon="3.82657">
        <ele>111</ele>
        <time>2021-02-20T13:04:27Z</time>
      </trkpt>
      <trkpt lat="43.69299" lon="3.82658">
        <ele>111</ele>
        <time>2021-02-20T13:04:28Z</time>
      </trkpt>
      <trkpt lat="43.69302" lon="3.82659">
        <ele>111</ele>
        <time>2021-02-20T13:04:29Z</time>
      </trkpt>
      <trkpt lat="43.69304" lon="3.82661">
        <ele>108</ele>
        <time>2021-02-20T13:04:30Z</time>
      </trkpt>
      <trkpt lat="43.69307" lon="3.82662">
        <ele>108</ele>
        <time>2021-02-20T13:04:31Z</time>
      </trkpt>
      <trkpt lat="43.6931" lon="3.82663">
        <ele>108</ele>
        <time>2021-02-20T13:04:32Z</time>
      </trkpt>
      <trkpt lat="43.69313" lon="3.82663">
        <ele>108</ele>
        <time>2021-02-20T13:04:33Z</time>
      </trkpt>
      <trkpt lat="43.69316" lon="3.82663">
        <ele>108</ele>
        <time>2021-02-20T13:04:34Z</time>
      </trkpt>
      <trkpt lat="43.6932" lon="3.82663">
        <ele>108</ele>
        <time>2021-02-20T13:04:35Z</time>
      </trkpt>
      <trkpt lat="43.69323" lon="3.82662">
        <ele>108</ele>
        <time>2021-02-20T13:04:36Z</time>
      </trkpt>
      <trkpt lat="43.69327" lon="3.82661">
        <ele>108</ele>
        <time>2021-02-20T13:04:37Z</time>
      </trkpt>
      <trkpt lat="43.69331" lon="3.82661">
        <ele>108</ele>
        <time>2021-02-20T13:04:38Z</time>
      </trkpt>
      <trkpt lat="43.69336" lon="3.82662">
        <ele>108</ele>
        <time>2021-02-20T13:04:39Z</time>
      </trkpt>
      <trkpt lat="43.6934" lon="3.82663">
        <ele>108</ele>
        <time>2021-02-20T13:04:40Z</time>
      </trkpt>
      <trkpt lat="43.69345" lon="3.82665">
        <ele>107</ele>
        <time>2021-02-20T13:04:41Z</time>
      </trkpt>
      <trkpt lat="43.6935" lon="3.82667">
        <ele>107</ele>
        <time>2021-02-20T13:04:42Z</time>
      </trkpt>
      <trkpt lat="43.69355" lon="3.82669">
        <ele>107</ele>
        <time>2021-02-20T13:04:43Z</time>
      </trkpt>
      <trkpt lat="43.6936" lon="3.8267">
        <ele>107</ele>
        <time>2021-02-20T13:04:44Z</time>
      </trkpt>
      <trkpt lat="43.69364" lon="3.82671">
        <ele>107</ele>
        <time>2021-02-20T13:04:45Z</time>
      </trkpt>
      <trkpt lat="43.69368" lon="3.82673">
        <ele>107</ele>
        <time>2021-02-20T13:04:46Z</time>
      </trkpt>
      <trkpt lat="43.69373" lon="3.82674">
        <ele>107</ele>
        <time>2021-02-20T13:04:47Z</time>
      </trkpt>
      <trkpt lat="43.69377" lon="3.82675">
        <ele>107</ele>
        <time>2021-02-20T13:04:48Z</time>
      </trkpt>
      <trkpt lat="43.69382" lon="3.82677">
        <ele>107</ele>
        <time>2021-02-20T13:04:49Z</time>
      </trkpt>
      <trkpt lat="43.69387" lon="3.82678">
        <ele>106</ele>
        <time>2021-02-20T13:04:50Z</time>
      </trkpt>
      <trkpt lat="43.69391" lon="3.82679">
        <ele>106</ele>
        <time>2021-02-20T13:04:51Z</time>
      </trkpt>
      <trkpt lat="43.69396" lon="3.82681">
        <ele>106</ele>
        <time>2021-02-20T13:04:52Z</time>
      </trkpt>
      <trkpt lat="43.69401" lon="3.82683">
        <ele>106</ele>
        <time>2021-02-20T13:04:53Z</time>
      </trkpt>
      <trkpt lat="43.69405" lon="3.82684">
        <ele>106</ele>
        <time>2021-02-20T13:04:54Z</time>
      </trkpt>
      <trkpt lat="43.6941" lon="3.82686">
        <ele>106</ele>
        <time>2021-02-20T13:04:55Z</time>
      </trkpt>
      <trkpt lat="43.69414" lon="3.82687">
        <ele>106</ele>
        <time>2021-02-20T13:04:56Z</time>
      </trkpt>
      <trkpt lat="43.69419" lon="3.82688">
        <ele>106</ele>
        <time>2021-02-20T13:04:57Z</time>
      </trkpt>
      <trkpt lat="43.69423" lon="3.8269">
        <ele>106</ele>
        <time>2021-02-20T13:04:58Z</time>
      </trkpt>
      <trkpt lat="43.69427" lon="3.82692">
        <ele>106</ele>
        <time>2021-02-20T13:04:59Z</time>
      </trkpt>
      <trkpt lat="43.69432" lon="3.82693">
        <ele>106</ele>
        <time>2021-02-20T13:05:00Z</time>
      </trkpt>
      <trkpt lat="43.69436" lon="3.82694">
        <ele>106</ele>
        <time>2021-02-20T13:05:01Z</time>
      </trkpt>
      <trkpt lat="43.6944" lon="3.82694">
        <ele>106</ele>
        <time>2021-02-20T13:05:02Z</time>
      </trkpt>
      <trkpt lat="43.69444" lon="3.82694">
        <ele>106</ele>
        <time>2021-02-20T13:05:03Z</time>
      </trkpt>
      <trkpt lat="43.69448" lon="3.82694">
        <ele>106</ele>
        <time>2021-02-20T13:05:04Z</time>
      </trkpt>
      <trkpt lat="43.69452" lon="3.82694">
        <ele>106</ele>
        <time>2021-02-20T13:05:05Z</time>
      </trkpt>
      <trkpt lat="43.69456" lon="3.82695">
        <ele>106</ele>
        <time>2021-02-20T13:05:06Z</time>
      </trkpt>
      <trkpt lat="43.6946" lon="3.82696">
        <ele>106</ele>
        <time>2021-02-20T13:05:07Z</time>
      </trkpt>
      <trkpt lat="43.69463" lon="3.82698">
        <ele>106</ele>
        <time>2021-02-20T13:05:08Z</time>
      </trkpt>
      <trkpt lat="43.69467" lon="3.827">
        <ele>106</ele>
        <time>2021-02-20T13:05:09Z</time>
      </trkpt>
      <trkpt lat="43.6947" lon="3.82701">
        <ele>108</ele>
        <time>2021-02-20T13:05:10Z</time>
      </trkpt>
      <trkpt lat="43.69473" lon="3.82702">
        <ele>108</ele>
        <time>2021-02-20T13:05:11Z</time>
      </trkpt>
      <trkpt lat="43.69476" lon="3.82701">
        <ele>108</ele>
        <time>2021-02-20T13:05:12Z</time>
      </trkpt>
      <trkpt lat="43.69478" lon="3.827">
        <ele>108</ele>
        <time>2021-02-20T13:05:13Z</time>
      </trkpt>
      <trkpt lat="43.6948" lon="3.82699">
        <ele>108</ele>
        <time>2021-02-20T13:05:14Z</time>
      </trkpt>
      <trkpt lat="43.69482" lon="3.82699">
        <ele>108</ele>
        <time>2021-02-20T13:05:15Z</time>
      </trkpt>
      <trkpt lat="43.69485" lon="3.82698">
        <ele>108</ele>
        <time>2021-02-20T13:05:16Z</time>
      </trkpt>
      <trkpt lat="43.69487" lon="3.82697">
        <ele>108</ele>
        <time>2021-02-20T13:05:17Z</time>
      </trkpt>
      <trkpt lat="43.69489" lon="3.82697">
        <ele>108</ele>
        <time>2021-02-20T13:05:18Z</time>
      </trkpt>
      <trkpt lat="43.69492" lon="3.82696">
        <ele>108</ele>
        <time>2021-02-20T13:05:19Z</time>
      </trkpt>
      <trkpt lat="43.69494" lon="3.82696">
        <ele>108</ele>
        <time>2021-02-20T13:05:20Z</time>
      </trkpt>
      <trkpt lat="43.69496" lon="3.82696">
        <ele>108</ele>
        <time>2021-02-20T13:05:21Z</time>
      </trkpt>
      <trkpt lat="43.69499" lon="3.82695">
        <ele>108</ele>
        <time>2021-02-20T13:05:22Z</time>
      </trkpt>
      <trkpt lat="43.69501" lon="3.82695">
        <ele>108</ele>
        <time>2021-02-20T13:05:23Z</time>
      </trkpt>
      <trkpt lat="43.69504" lon="3.82694">
        <ele>108</ele>
        <time>2021-02-20T13:05:24Z</time>
      </trkpt>
      <trkpt lat="43.69506" lon="3.82693">
        <ele>108</ele>
        <time>2021-02-20T13:05:25Z</time>
      </trkpt>
      <trkpt lat="43.69509" lon="3.82693">
        <ele>108</ele>
        <time>2021-02-20T13:05:26Z</time>
      </trkpt>
      <trkpt lat="43.69511" lon="3.82692">
        <ele>108</ele>
        <time>2021-02-20T13:05:27Z</time>
      </trkpt>
      <trkpt lat="43.69514" lon="3.82691">
        <ele>108</ele>
        <time>2021-02-20T13:05:28Z</time>
      </trkpt>
      <trkpt lat="43.69516" lon="3.8269">
        <ele>108</ele>
        <time>2021-02-20T13:05:29Z</time>
      </trkpt>
      <trkpt lat="43.69518" lon="3.8269">
        <ele>108</ele>
        <time>2021-02-20T13:05:30Z</time>
      </trkpt>
      <trkpt lat="43.69521" lon="3.82689">
        <ele>108</ele>
        <time>2021-02-20T13:05:31Z</time>
      </trkpt>
      <trkpt lat="43.69523" lon="3.82689">
        <ele>108</ele>
        <time>2021-02-20T13:05:32Z</time>
      </trkpt>
      <trkpt lat="43.69525" lon="3.82688">
        <ele>108</ele>
        <time>2021-02-20T13:05:33Z</time>
      </trkpt>
      <trkpt lat="43.69527" lon="3.82687">
        <ele>108</ele>
        <time>2021-02-20T13:05:34Z</time>
      </trkpt>
      <trkpt lat="43.69529" lon="3.82686">
        <ele>108</ele>
        <time>2021-02-20T13:05:36Z</time>
      </trkpt>
      <trkpt lat="43.69532" lon="3.82685">
        <ele>108</ele>
        <time>2021-02-20T13:05:38Z</time>
      </trkpt>
      <trkpt lat="43.69535" lon="3.82685">
        <ele>108</ele>
        <time>2021-02-20T13:05:39Z</time>
      </trkpt>
      <trkpt lat="43.69537" lon="3.82686">
        <ele>108</ele>
        <time>2021-02-20T13:05:40Z</time>
      </trkpt>
      <trkpt lat="43.69539" lon="3.82687">
        <ele>108</ele>
        <time>2021-02-20T13:05:41Z</time>
      </trkpt>
      <trkpt lat="43.69541" lon="3.82689">
        <ele>108</ele>
        <time>2021-02-20T13:05:42Z</time>
      </trkpt>
      <trkpt lat="43.69543" lon="3.82692">
        <ele>108</ele>
        <time>2021-02-20T13:05:43Z</time>
      </trkpt>
      <trkpt lat="43.69544" lon="3.82694">
        <ele>108</ele>
        <time>2021-02-20T13:05:44Z</time>
      </trkpt>
      <trkpt lat="43.69545" lon="3.82696">
        <ele>108</ele>
        <time>2021-02-20T13:05:45Z</time>
      </trkpt>
      <trkpt lat="43.69546" lon="3.82698">
        <ele>108</ele>
        <time>2021-02-20T13:05:46Z</time>
      </trkpt>
      <trkpt lat="43.69549" lon="3.82701">
        <ele>108</ele>
        <time>2021-02-20T13:05:48Z</time>
      </trkpt>
      <trkpt lat="43.69552" lon="3.82702">
        <ele>109</ele>
        <time>2021-02-20T13:05:50Z</time>
      </trkpt>
      <trkpt lat="43.69554" lon="3.82701">
        <ele>109</ele>
        <time>2021-02-20T13:05:51Z</time>
      </trkpt>
      <trkpt lat="43.69557" lon="3.827">
        <ele>109</ele>
        <time>2021-02-20T13:05:52Z</time>
      </trkpt>
      <trkpt lat="43.69559" lon="3.82699">
        <ele>109</ele>
        <time>2021-02-20T13:05:53Z</time>
      </trkpt>
      <trkpt lat="43.69561" lon="3.82697">
        <ele>109</ele>
        <time>2021-02-20T13:05:54Z</time>
      </trkpt>
      <trkpt lat="43.69563" lon="3.82695">
        <ele>109</ele>
        <time>2021-02-20T13:05:55Z</time>
      </trkpt>
      <trkpt lat="43.69564" lon="3.82692">
        <ele>109</ele>
        <time>2021-02-20T13:05:56Z</time>
      </trkpt>
      <trkpt lat="43.69566" lon="3.82689">
        <ele>109</ele>
        <time>2021-02-20T13:05:57Z</time>
      </trkpt>
      <trkpt lat="43.69568" lon="3.82686">
        <ele>109</ele>
        <time>2021-02-20T13:05:58Z</time>
      </trkpt>
      <trkpt lat="43.6957" lon="3.82684">
        <ele>109</ele>
        <time>2021-02-20T13:05:59Z</time>
      </trkpt>
      <trkpt lat="43.69573" lon="3.82682">
        <ele>109</ele>
        <time>2021-02-20T13:06:00Z</time>
      </trkpt>
      <trkpt lat="43.69577" lon="3.82681">
        <ele>109</ele>
        <time>2021-02-20T13:06:01Z</time>
      </trkpt>
      <trkpt lat="43.6958" lon="3.82681">
        <ele>109</ele>
        <time>2021-02-20T13:06:02Z</time>
      </trkpt>
      <trkpt lat="43.69585" lon="3.82681">
        <ele>109</ele>
        <time>2021-02-20T13:06:03Z</time>
      </trkpt>
      <trkpt lat="43.69589" lon="3.82681">
        <ele>109</ele>
        <time>2021-02-20T13:06:04Z</time>
      </trkpt>
      <trkpt lat="43.69595" lon="3.82681">
        <ele>109</ele>
        <time>2021-02-20T13:06:05Z</time>
      </trkpt>
      <trkpt lat="43.696" lon="3.82681">
        <ele>109</ele>
        <time>2021-02-20T13:06:06Z</time>
      </trkpt>
      <trkpt lat="43.69606" lon="3.82681">
        <ele>109</ele>
        <time>2021-02-20T13:06:07Z</time>
      </trkpt>
      <trkpt lat="43.69611" lon="3.82681">
        <ele>109</ele>
        <time>2021-02-20T13:06:08Z</time>
      </trkpt>
      <trkpt lat="43.69615" lon="3.82681">
        <ele>109</ele>
        <time>2021-02-20T13:06:09Z</time>
      </trkpt>
      <trkpt lat="43.69619" lon="3.8268">
        <ele>107</ele>
        <time>2021-02-20T13:06:10Z</time>
      </trkpt>
      <trkpt lat="43.69623" lon="3.8268">
        <ele>107</ele>
        <time>2021-02-20T13:06:11Z</time>
      </trkpt>
      <trkpt lat="43.69627" lon="3.8268">
        <ele>107</ele>
        <time>2021-02-20T13:06:12Z</time>
      </trkpt>
      <trkpt lat="43.69631" lon="3.8268">
        <ele>107</ele>
        <time>2021-02-20T13:06:13Z</time>
      </trkpt>
      <trkpt lat="43.69634" lon="3.8268">
        <ele>107</ele>
        <time>2021-02-20T13:06:14Z</time>
      </trkpt>
      <trkpt lat="43.69637" lon="3.82681">
        <ele>107</ele>
        <time>2021-02-20T13:06:15Z</time>
      </trkpt>
      <trkpt lat="43.6964" lon="3.82681">
        <ele>107</ele>
        <time>2021-02-20T13:06:16Z</time>
      </trkpt>
      <trkpt lat="43.69643" lon="3.82681">
        <ele>107</ele>
        <time>2021-02-20T13:06:17Z</time>
      </trkpt>
      <trkpt lat="43.69646" lon="3.82681">
        <ele>107</ele>
        <time>2021-02-20T13:06:18Z</time>
      </trkpt>
      <trkpt lat="43.69648" lon="3.8268">
        <ele>107</ele>
        <time>2021-02-20T13:06:19Z</time>
      </trkpt>
      <trkpt lat="43.69651" lon="3.82679">
        <ele>110</ele>
        <time>2021-02-20T13:06:20Z</time>
      </trkpt>
      <trkpt lat="43.69653" lon="3.82678">
        <ele>110</ele>
        <time>2021-02-20T13:06:21Z</time>
      </trkpt>
      <trkpt lat="43.69655" lon="3.82678">
        <ele>110</ele>
        <time>2021-02-20T13:06:22Z</time>
      </trkpt>
      <trkpt lat="43.69657" lon="3.82677">
        <ele>110</ele>
        <time>2021-02-20T13:06:23Z</time>
      </trkpt>
      <trkpt lat="43.69659" lon="3.82676">
        <ele>110</ele>
        <time>2021-02-20T13:06:24Z</time>
      </trkpt>
      <trkpt lat="43.69661" lon="3.82676">
        <ele>110</ele>
        <time>2021-02-20T13:06:25Z</time>
      </trkpt>
      <trkpt lat="43.69663" lon="3.82675">
        <ele>110</ele>
        <time>2021-02-20T13:06:26Z</time>
      </trkpt>
      <trkpt lat="43.69665" lon="3.82674">
        <ele>110</ele>
        <time>2021-02-20T13:06:27Z</time>
      </trkpt>
      <trkpt lat="43.69668" lon="3.82673">
        <ele>110</ele>
        <time>2021-02-20T13:06:28Z</time>
      </trkpt>
      <trkpt lat="43.6967" lon="3.82672">
        <ele>110</ele>
        <time>2021-02-20T13:06:29Z</time>
      </trkpt>
      <trkpt lat="43.69673" lon="3.82671">
        <ele>111</ele>
        <time>2021-02-20T13:06:30Z</time>
      </trkpt>
      <trkpt lat="43.69675" lon="3.8267">
        <ele>111</ele>
        <time>2021-02-20T13:06:31Z</time>
      </trkpt>
      <trkpt lat="43.69678" lon="3.8267">
        <ele>111</ele>
        <time>2021-02-20T13:06:32Z</time>
      </trkpt>
      <trkpt lat="43.6968" lon="3.82669">
        <ele>111</ele>
        <time>2021-02-20T13:06:33Z</time>
      </trkpt>
      <trkpt lat="43.69682" lon="3.82668">
        <ele>111</ele>
        <time>2021-02-20T13:06:34Z</time>
      </trkpt>
      <trkpt lat="43.69685" lon="3.82667">
        <ele>111</ele>
        <time>2021-02-20T13:06:35Z</time>
      </trkpt>
      <trkpt lat="43.69687" lon="3.82666">
        <ele>111</ele>
        <time>2021-02-20T13:06:36Z</time>
      </trkpt>
      <trkpt lat="43.6969" lon="3.82666">
        <ele>111</ele>
        <time>2021-02-20T13:06:37Z</time>
      </trkpt>
      <trkpt lat="43.69692" lon="3.82665">
        <ele>111</ele>
        <time>2021-02-20T13:06:38Z</time>
      </trkpt>
      <trkpt lat="43.69695" lon="3.82664">
        <ele>111</ele>
        <time>2021-02-20T13:06:39Z</time>
      </trkpt>
      <trkpt lat="43.69697" lon="3.82663">
        <ele>113</ele>
        <time>2021-02-20T13:06:40Z</time>
      </trkpt>
      <trkpt lat="43.69699" lon="3.82663">
        <ele>113</ele>
        <time>2021-02-20T13:06:41Z</time>
      </trkpt>
      <trkpt lat="43.69701" lon="3.82662">
        <ele>113</ele>
        <time>2021-02-20T13:06:42Z</time>
      </trkpt>
      <trkpt lat="43.69704" lon="3.82661">
        <ele>113</ele>
        <time>2021-02-20T13:06:43Z</time>
      </trkpt>
      <trkpt lat="43.69706" lon="3.8266">
        <ele>113</ele>
        <time>2021-02-20T13:06:44Z</time>
      </trkpt>
      <trkpt lat="43.69708" lon="3.82659">
        <ele>113</ele>
        <time>2021-02-20T13:06:45Z</time>
      </trkpt>
      <trkpt lat="43.69711" lon="3.82658">
        <ele>113</ele>
        <time>2021-02-20T13:06:46Z</time>
      </trkpt>
      <trkpt lat="43.69713" lon="3.82657">
        <ele>113</ele>
        <time>2021-02-20T13:06:47Z</time>
      </trkpt>
      <trkpt lat="43.69715" lon="3.82657">
        <ele>113</ele>
        <time>2021-02-20T13:06:48Z</time>
      </trkpt>
      <trkpt lat="43.69718" lon="3.82656">
        <ele>113</ele>
        <time>2021-02-20T13:06:49Z</time>
      </trkpt>
      <trkpt lat="43.6972" lon="3.82655">
        <ele>114</ele>
        <time>2021-02-20T13:06:50Z</time>
      </trkpt>
      <trkpt lat="43.69723" lon="3.82654">
        <ele>114</ele>
        <time>2021-02-20T13:06:51Z</time>
      </trkpt>
      <trkpt lat="43.69725" lon="3.82653">
        <ele>114</ele>
        <time>2021-02-20T13:06:52Z</time>
      </trkpt>
      <trkpt lat="43.69727" lon="3.82652">
        <ele>114</ele>
        <time>2021-02-20T13:06:53Z</time>
      </trkpt>
      <trkpt lat="43.69729" lon="3.82652">
        <ele>114</ele>
        <time>2021-02-20T13:06:54Z</time>
      </trkpt>
      <trkpt lat="43.69732" lon="3.82651">
        <ele>114</ele>
        <time>2021-02-20T13:06:55Z</time>
      </trkpt>
      <trkpt lat="43.69734" lon="3.8265">
        <ele>114</ele>
        <time>2021-02-20T13:06:56Z</time>
      </trkpt>
      <trkpt lat="43.69737" lon="3.82649">
        <ele>114</ele>
        <time>2021-02-20T13:06:57Z</time>
      </trkpt>
      <trkpt lat="43.69739" lon="3.82649">
        <ele>114</ele>
        <time>2021-02-20T13:06:58Z</time>
      </trkpt>
      <trkpt lat="43.69741" lon="3.82648">
        <ele>114</ele>
        <time>2021-02-20T13:06:59Z</time>
      </trkpt>
      <trkpt lat="43.69743" lon="3.82647">
        <ele>115</ele>
        <time>2021-02-20T13:07:00Z</time>
      </trkpt>
      <trkpt lat="43.69746" lon="3.82646">
        <ele>115</ele>
        <time>2021-02-20T13:07:01Z</time>
      </trkpt>
      <trkpt lat="43.69748" lon="3.82646">
        <ele>115</ele>
        <time>2021-02-20T13:07:02Z</time>
      </trkpt>
      <trkpt lat="43.6975" lon="3.82645">
        <ele>115</ele>
        <time>2021-02-20T13:07:03Z</time>
      </trkpt>
      <trkpt lat="43.69752" lon="3.82644">
        <ele>115</ele>
        <time>2021-02-20T13:07:04Z</time>
      </trkpt>
      <trkpt lat="43.69754" lon="3.82643">
        <ele>115</ele>
        <time>2021-02-20T13:07:05Z</time>
      </trkpt>
      <trkpt lat="43.69756" lon="3.82643">
        <ele>115</ele>
        <time>2021-02-20T13:07:06Z</time>
      </trkpt>
      <trkpt lat="43.69758" lon="3.82642">
        <ele>115</ele>
        <time>2021-02-20T13:07:07Z</time>
      </trkpt>
      <trkpt lat="43.6976" lon="3.82641">
        <ele>115</ele>
        <time>2021-02-20T13:07:08Z</time>
      </trkpt>
      <trkpt lat="43.69762" lon="3.8264">
        <ele>115</ele>
        <time>2021-02-20T13:07:09Z</time>
      </trkpt>
      <trkpt lat="43.69765" lon="3.82639">
        <ele>116</ele>
        <time>2021-02-20T13:07:10Z</time>
      </trkpt>
      <trkpt lat="43.69767" lon="3.82638">
        <ele>116</ele>
        <time>2021-02-20T13:07:11Z</time>
      </trkpt>
      <trkpt lat="43.69769" lon="3.82639">
        <ele>116</ele>
        <time>2021-02-20T13:07:12Z</time>
      </trkpt>
      <trkpt lat="43.69771" lon="3.8264">
        <ele>116</ele>
        <time>2021-02-20T13:07:13Z</time>
      </trkpt>
      <trkpt lat="43.69772" lon="3.82642">
        <ele>116</ele>
        <time>2021-02-20T13:07:14Z</time>
      </trkpt>
      <trkpt lat="43.69773" lon="3.82646">
        <ele>116</ele>
        <time>2021-02-20T13:07:16Z</time>
      </trkpt>
      <trkpt lat="43.69774" lon="3.82649">
        <ele>116</ele>
        <time>2021-02-20T13:07:18Z</time>
      </trkpt>
      <trkpt lat="43.69776" lon="3.82653">
        <ele>118</ele>
        <time>2021-02-20T13:07:20Z</time>
      </trkpt>
      <trkpt lat="43.69779" lon="3.82657">
        <ele>118</ele>
        <time>2021-02-20T13:07:22Z</time>
      </trkpt>
      <trkpt lat="43.6978" lon="3.82658">
        <ele>118</ele>
        <time>2021-02-20T13:07:23Z</time>
      </trkpt>
      <trkpt lat="43.69782" lon="3.82659">
        <ele>118</ele>
        <time>2021-02-20T13:07:24Z</time>
      </trkpt>
      <trkpt lat="43.69783" lon="3.8266">
        <ele>118</ele>
        <time>2021-02-20T13:07:25Z</time>
      </trkpt>
      <trkpt lat="43.69786" lon="3.82661">
        <ele>118</ele>
        <time>2021-02-20T13:07:26Z</time>
      </trkpt>
      <trkpt lat="43.69788" lon="3.82661">
        <ele>118</ele>
        <time>2021-02-20T13:07:27Z</time>
      </trkpt>
      <trkpt lat="43.6979" lon="3.82661">
        <ele>118</ele>
        <time>2021-02-20T13:07:28Z</time>
      </trkpt>
      <trkpt lat="43.69792" lon="3.82661">
        <ele>118</ele>
        <time>2021-02-20T13:07:29Z</time>
      </trkpt>
      <trkpt lat="43.69795" lon="3.82661">
        <ele>119</ele>
        <time>2021-02-20T13:07:30Z</time>
      </trkpt>
      <trkpt lat="43.69797" lon="3.8266">
        <ele>119</ele>
        <time>2021-02-20T13:07:31Z</time>
      </trkpt>
      <trkpt lat="43.69799" lon="3.8266">
        <ele>119</ele>
        <time>2021-02-20T13:07:32Z</time>
      </trkpt>
      <trkpt lat="43.69801" lon="3.8266">
        <ele>119</ele>
        <time>2021-02-20T13:07:33Z</time>
      </trkpt>
      <trkpt lat="43.69803" lon="3.8266">
        <ele>119</ele>
        <time>2021-02-20T13:07:34Z</time>
      </trkpt>
      <trkpt lat="43.69805" lon="3.82659">
        <ele>119</ele>
        <time>2021-02-20T13:07:35Z</time>
      </trkpt>
      <trkpt lat="43.69808" lon="3.82659">
        <ele>119</ele>
        <time>2021-02-20T13:07:36Z</time>
      </trkpt>
      <trkpt lat="43.6981" lon="3.82658">
        <ele>119</ele>
        <time>2021-02-20T13:07:37Z</time>
      </trkpt>
      <trkpt lat="43.69812" lon="3.82658">
        <ele>119</ele>
        <time>2021-02-20T13:07:38Z</time>
      </trkpt>
      <trkpt lat="43.69814" lon="3.82657">
        <ele>119</ele>
        <time>2021-02-20T13:07:39Z</time>
      </trkpt>
      <trkpt lat="43.69816" lon="3.82657">
        <ele>120</ele>
        <time>2021-02-20T13:07:40Z</time>
      </trkpt>
      <trkpt lat="43.69818" lon="3.82657">
        <ele>120</ele>
        <time>2021-02-20T13:07:41Z</time>
      </trkpt>
      <trkpt lat="43.6982" lon="3.82656">
        <ele>120</ele>
        <time>2021-02-20T13:07:42Z</time>
      </trkpt>
      <trkpt lat="43.69822" lon="3.82655">
        <ele>120</ele>
        <time>2021-02-20T13:07:43Z</time>
      </trkpt>
      <trkpt lat="43.69824" lon="3.82654">
        <ele>120</ele>
        <time>2021-02-20T13:07:44Z</time>
      </trkpt>
      <trkpt lat="43.69826" lon="3.82653">
        <ele>120</ele>
        <time>2021-02-20T13:07:45Z</time>
      </trkpt>
      <trkpt lat="43.69828" lon="3.82652">
        <ele>120</ele>
        <time>2021-02-20T13:07:46Z</time>
      </trkpt>
      <trkpt lat="43.69831" lon="3.82652">
        <ele>120</ele>
        <time>2021-02-20T13:07:47Z</time>
      </trkpt>
      <trkpt lat="43.69832" lon="3.82652">
        <ele>120</ele>
        <time>2021-02-20T13:07:48Z</time>
      </trkpt>
      <trkpt lat="43.69834" lon="3.82653">
        <ele>120</ele>
        <time>2021-02-20T13:07:49Z</time>
      </trkpt>
      <trkpt lat="43.69837" lon="3.82656">
        <ele>120</ele>
        <time>2021-02-20T13:07:51Z</time>
      </trkpt>
      <trkpt lat="43.69838" lon="3.8266">
        <ele>120</ele>
        <time>2021-02-20T13:07:53Z</time>
      </trkpt>
      <trkpt lat="43.69837" lon="3.82664">
        <ele>120</ele>
        <time>2021-02-20T13:07:55Z</time>
      </trkpt>
      <trkpt lat="43.69836" lon="3.82669">
        <ele>120</ele>
        <time>2021-02-20T13:07:57Z</time>
      </trkpt>
      <trkpt lat="43.69833" lon="3.82671">
        <ele>120</ele>
        <time>2021-02-20T13:07:59Z</time>
      </trkpt>
      <trkpt lat="43.69831" lon="3.82672">
        <ele>120</ele>
        <time>2021-02-20T13:08:02Z</time>
      </trkpt>
      <trkpt lat="43.69829" lon="3.82674">
        <ele>120</ele>
        <time>2021-02-20T13:08:04Z</time>
      </trkpt>
      <trkpt lat="43.69827" lon="3.82677">
        <ele>120</ele>
        <time>2021-02-20T13:08:06Z</time>
      </trkpt>
      <trkpt lat="43.69825" lon="3.82679">
        <ele>120</ele>
        <time>2021-02-20T13:08:07Z</time>
      </trkpt>
      <trkpt lat="43.69823" lon="3.8268">
        <ele>120</ele>
        <time>2021-02-20T13:08:08Z</time>
      </trkpt>
      <trkpt lat="43.69821" lon="3.82681">
        <ele>120</ele>
        <time>2021-02-20T13:08:09Z</time>
      </trkpt>
      <trkpt lat="43.6982" lon="3.82683">
        <ele>123</ele>
        <time>2021-02-20T13:08:10Z</time>
      </trkpt>
      <trkpt lat="43.69818" lon="3.82686">
        <ele>123</ele>
        <time>2021-02-20T13:08:12Z</time>
      </trkpt>
      <trkpt lat="43.69816" lon="3.82688">
        <ele>123</ele>
        <time>2021-02-20T13:08:13Z</time>
      </trkpt>
      <trkpt lat="43.69814" lon="3.8269">
        <ele>123</ele>
        <time>2021-02-20T13:08:14Z</time>
      </trkpt>
      <trkpt lat="43.69812" lon="3.82692">
        <ele>123</ele>
        <time>2021-02-20T13:08:15Z</time>
      </trkpt>
      <trkpt lat="43.6981" lon="3.82693">
        <ele>123</ele>
        <time>2021-02-20T13:08:16Z</time>
      </trkpt>
      <trkpt lat="43.69808" lon="3.82693">
        <ele>123</ele>
        <time>2021-02-20T13:08:18Z</time>
      </trkpt>
      <trkpt lat="43.6981" lon="3.82693">
        <ele>121</ele>
        <time>2021-02-20T13:09:53Z</time>
      </trkpt>
      <trkpt lat="43.69812" lon="3.82691">
        <ele>121</ele>
        <time>2021-02-20T13:09:54Z</time>
      </trkpt>
      <trkpt lat="43.69815" lon="3.82687">
        <ele>121</ele>
        <time>2021-02-20T13:09:56Z</time>
      </trkpt>
      <trkpt lat="43.69817" lon="3.82685">
        <ele>121</ele>
        <time>2021-02-20T13:09:57Z</time>
      </trkpt>
      <trkpt lat="43.69819" lon="3.82683">
        <ele>121</ele>
        <time>2021-02-20T13:09:58Z</time>
      </trkpt>
      <trkpt lat="43.69821" lon="3.82681">
        <ele>121</ele>
        <time>2021-02-20T13:09:59Z</time>
      </trkpt>
      <trkpt lat="43.69824" lon="3.82679">
        <ele>121</ele>
        <time>2021-02-20T13:10:00Z</time>
      </trkpt>
      <trkpt lat="43.69826" lon="3.82676">
        <ele>121</ele>
        <time>2021-02-20T13:10:01Z</time>
      </trkpt>
      <trkpt lat="43.69828" lon="3.82673">
        <ele>121</ele>
        <time>2021-02-20T13:10:02Z</time>
      </trkpt>
      <trkpt lat="43.6983" lon="3.8267">
        <ele>120</ele>
        <time>2021-02-20T13:10:03Z</time>
      </trkpt>
      <trkpt lat="43.69833" lon="3.82668">
        <ele>120</ele>
        <time>2021-02-20T13:10:04Z</time>
      </trkpt>
      <trkpt lat="43.69834" lon="3.82665">
        <ele>120</ele>
        <time>2021-02-20T13:10:05Z</time>
      </trkpt>
      <trkpt lat="43.69835" lon="3.82663">
        <ele>120</ele>
        <time>2021-02-20T13:10:06Z</time>
      </trkpt>
      <trkpt lat="43.69836" lon="3.82659">
        <ele>120</ele>
        <time>2021-02-20T13:10:08Z</time>
      </trkpt>
      <trkpt lat="43.69836" lon="3.82655">
        <ele>120</ele>
        <time>2021-02-20T13:10:10Z</time>
      </trkpt>
      <trkpt lat="43.69837" lon="3.82653">
        <ele>120</ele>
        <time>2021-02-20T13:10:12Z</time>
      </trkpt>
      <trkpt lat="43.69839" lon="3.82651">
        <ele>120</ele>
        <time>2021-02-20T13:10:15Z</time>
      </trkpt>
      <trkpt lat="43.69832" lon="3.82649">
        <ele>121</ele>
        <time>2021-02-20T13:10:36Z</time>
      </trkpt>
      <trkpt lat="43.69829" lon="3.82649">
        <ele>121</ele>
        <time>2021-02-20T13:10:37Z</time>
      </trkpt>
      <trkpt lat="43.69826" lon="3.82651">
        <ele>121</ele>
        <time>2021-02-20T13:10:39Z</time>
      </trkpt>
      <trkpt lat="43.69823" lon="3.82653">
        <ele>121</ele>
        <time>2021-02-20T13:10:41Z</time>
      </trkpt>
      <trkpt lat="43.6982" lon="3.82654">
        <ele>121</ele>
        <time>2021-02-20T13:10:42Z</time>
      </trkpt>
      <trkpt lat="43.69818" lon="3.82655">
        <ele>121</ele>
        <time>2021-02-20T13:10:43Z</time>
      </trkpt>
      <trkpt lat="43.69815" lon="3.82656">
        <ele>121</ele>
        <time>2021-02-20T13:10:44Z</time>
      </trkpt>
      <trkpt lat="43.69813" lon="3.82657">
        <ele>121</ele>
        <time>2021-02-20T13:10:45Z</time>
      </trkpt>
      <trkpt lat="43.6981" lon="3.82658">
        <ele>121</ele>
        <time>2021-02-20T13:10:46Z</time>
      </trkpt>
      <trkpt lat="43.69807" lon="3.82658">
        <ele>121</ele>
        <time>2021-02-20T13:10:47Z</time>
      </trkpt>
      <trkpt lat="43.69804" lon="3.82659">
        <ele>121</ele>
        <time>2021-02-20T13:10:48Z</time>
      </trkpt>
      <trkpt lat="43.69802" lon="3.82659">
        <ele>121</ele>
        <time>2021-02-20T13:10:49Z</time>
      </trkpt>
      <trkpt lat="43.69799" lon="3.8266">
        <ele>121</ele>
        <time>2021-02-20T13:10:50Z</time>
      </trkpt>
      <trkpt lat="43.69796" lon="3.8266">
        <ele>121</ele>
        <time>2021-02-20T13:10:51Z</time>
      </trkpt>
      <trkpt lat="43.69793" lon="3.82661">
        <ele>121</ele>
        <time>2021-02-20T13:10:52Z</time>
      </trkpt>
      <trkpt lat="43.6979" lon="3.82662">
        <ele>121</ele>
        <time>2021-02-20T13:10:53Z</time>
      </trkpt>
      <trkpt lat="43.69787" lon="3.82662">
        <ele>121</ele>
        <time>2021-02-20T13:10:54Z</time>
      </trkpt>
      <trkpt lat="43.69784" lon="3.82663">
        <ele>121</ele>
        <time>2021-02-20T13:10:55Z</time>
      </trkpt>
      <trkpt lat="43.69781" lon="3.82662">
        <ele>121</ele>
        <time>2021-02-20T13:10:56Z</time>
      </trkpt>
      <trkpt lat="43.69778" lon="3.8266">
        <ele>121</ele>
        <time>2021-02-20T13:10:57Z</time>
      </trkpt>
      <trkpt lat="43.69777" lon="3.82657">
        <ele>121</ele>
        <time>2021-02-20T13:10:58Z</time>
      </trkpt>
      <trkpt lat="43.69776" lon="3.82654">
        <ele>121</ele>
        <time>2021-02-20T13:10:59Z</time>
      </trkpt>
      <trkpt lat="43.69777" lon="3.82651">
        <ele>121</ele>
        <time>2021-02-20T13:11:00Z</time>
      </trkpt>
      <trkpt lat="43.69779" lon="3.82649">
        <ele>121</ele>
        <time>2021-02-20T13:11:01Z</time>
      </trkpt>
      <trkpt lat="43.69781" lon="3.82647">
        <ele>121</ele>
        <time>2021-02-20T13:11:02Z</time>
      </trkpt>
      <trkpt lat="43.69784" lon="3.82646">
        <ele>121</ele>
        <time>2021-02-20T13:11:03Z</time>
      </trkpt>
      <trkpt lat="43.69786" lon="3.82645">
        <ele>121</ele>
        <time>2021-02-20T13:11:04Z</time>
      </trkpt>
      <trkpt lat="43.69789" lon="3.82643">
        <ele>120</ele>
        <time>2021-02-20T13:11:05Z</time>
      </trkpt>
      <trkpt lat="43.69791" lon="3.82642">
        <ele>120</ele>
        <time>2021-02-20T13:11:06Z</time>
      </trkpt>
      <trkpt lat="43.69793" lon="3.82641">
        <ele>120</ele>
        <time>2021-02-20T13:11:07Z</time>
      </trkpt>
      <trkpt lat="43.69796" lon="3.8264">
        <ele>120</ele>
        <time>2021-02-20T13:11:08Z</time>
      </trkpt>
      <trkpt lat="43.69799" lon="3.82638">
        <ele>120</ele>
        <time>2021-02-20T13:11:09Z</time>
      </trkpt>
      <trkpt lat="43.69802" lon="3.82636">
        <ele>120</ele>
        <time>2021-02-20T13:11:10Z</time>
      </trkpt>
      <trkpt lat="43.69804" lon="3.82634">
        <ele>120</ele>
        <time>2021-02-20T13:11:11Z</time>
      </trkpt>
      <trkpt lat="43.69807" lon="3.82633">
        <ele>120</ele>
        <time>2021-02-20T13:11:12Z</time>
      </trkpt>
      <trkpt lat="43.6981" lon="3.82631">
        <ele>120</ele>
        <time>2021-02-20T13:11:13Z</time>
      </trkpt>
      <trkpt lat="43.69813" lon="3.8263">
        <ele>120</ele>
        <time>2021-02-20T13:11:14Z</time>
      </trkpt>
      <trkpt lat="43.69815" lon="3.82628">
        <ele>120</ele>
        <time>2021-02-20T13:11:15Z</time>
      </trkpt>
      <trkpt lat="43.69818" lon="3.82627">
        <ele>120</ele>
        <time>2021-02-20T13:11:16Z</time>
      </trkpt>
      <trkpt lat="43.6982" lon="3.82625">
        <ele>120</ele>
        <time>2021-02-20T13:11:17Z</time>
      </trkpt>
      <trkpt lat="43.69822" lon="3.82624">
        <ele>120</ele>
        <time>2021-02-20T13:11:18Z</time>
      </trkpt>
      <trkpt lat="43.69824" lon="3.82623">
        <ele>120</ele>
        <time>2021-02-20T13:11:19Z</time>
      </trkpt>
      <trkpt lat="43.69827" lon="3.82621">
        <ele>120</ele>
        <time>2021-02-20T13:11:20Z</time>
      </trkpt>
      <trkpt lat="43.6983" lon="3.82619">
        <ele>120</ele>
        <time>2021-02-20T13:11:21Z</time>
      </trkpt>
      <trkpt lat="43.69833" lon="3.82617">
        <ele>120</ele>
        <time>2021-02-20T13:11:22Z</time>
      </trkpt>
      <trkpt lat="43.69836" lon="3.82616">
        <ele>120</ele>
        <time>2021-02-20T13:11:23Z</time>
      </trkpt>
      <trkpt lat="43.69839" lon="3.82614">
        <ele>120</ele>
        <time>2021-02-20T13:11:24Z</time>
      </trkpt>
      <trkpt lat="43.69842" lon="3.82613">
        <ele>118</ele>
        <time>2021-02-20T13:11:25Z</time>
      </trkpt>
      <trkpt lat="43.69845" lon="3.82612">
        <ele>118</ele>
        <time>2021-02-20T13:11:26Z</time>
      </trkpt>
      <trkpt lat="43.69848" lon="3.8261">
        <ele>118</ele>
        <time>2021-02-20T13:11:27Z</time>
      </trkpt>
      <trkpt lat="43.69851" lon="3.82607">
        <ele>118</ele>
        <time>2021-02-20T13:11:28Z</time>
      </trkpt>
      <trkpt lat="43.69854" lon="3.82605">
        <ele>118</ele>
        <time>2021-02-20T13:11:29Z</time>
      </trkpt>
      <trkpt lat="43.69857" lon="3.82603">
        <ele>118</ele>
        <time>2021-02-20T13:11:30Z</time>
      </trkpt>
      <trkpt lat="43.6986" lon="3.82601">
        <ele>118</ele>
        <time>2021-02-20T13:11:31Z</time>
      </trkpt>
      <trkpt lat="43.69864" lon="3.826">
        <ele>118</ele>
        <time>2021-02-20T13:11:32Z</time>
      </trkpt>
      <trkpt lat="43.69867" lon="3.82598">
        <ele>118</ele>
        <time>2021-02-20T13:11:33Z</time>
      </trkpt>
      <trkpt lat="43.6987" lon="3.82596">
        <ele>118</ele>
        <time>2021-02-20T13:11:34Z</time>
      </trkpt>
      <trkpt lat="43.69872" lon="3.82594">
        <ele>117</ele>
        <time>2021-02-20T13:11:35Z</time>
      </trkpt>
      <trkpt lat="43.69875" lon="3.82592">
        <ele>117</ele>
        <time>2021-02-20T13:11:36Z</time>
      </trkpt>
      <trkpt lat="43.69877" lon="3.82591">
        <ele>117</ele>
        <time>2021-02-20T13:11:37Z</time>
      </trkpt>
      <trkpt lat="43.69879" lon="3.8259">
        <ele>117</ele>
        <time>2021-02-20T13:11:38Z</time>
      </trkpt>
      <trkpt lat="43.69882" lon="3.82589">
        <ele>117</ele>
        <time>2021-02-20T13:11:39Z</time>
      </trkpt>
      <trkpt lat="43.69885" lon="3.82588">
        <ele>117</ele>
        <time>2021-02-20T13:11:40Z</time>
      </trkpt>
      <trkpt lat="43.69887" lon="3.82587">
        <ele>117</ele>
        <time>2021-02-20T13:11:41Z</time>
      </trkpt>
      <trkpt lat="43.6989" lon="3.82585">
        <ele>117</ele>
        <time>2021-02-20T13:11:42Z</time>
      </trkpt>
      <trkpt lat="43.69892" lon="3.82584">
        <ele>117</ele>
        <time>2021-02-20T13:11:43Z</time>
      </trkpt>
      <trkpt lat="43.69894" lon="3.82584">
        <ele>117</ele>
        <time>2021-02-20T13:11:44Z</time>
      </trkpt>
      <trkpt lat="43.69897" lon="3.82583">
        <ele>116</ele>
        <time>2021-02-20T13:11:45Z</time>
      </trkpt>
      <trkpt lat="43.69901" lon="3.82581">
        <ele>116</ele>
        <time>2021-02-20T13:11:46Z</time>
      </trkpt>
      <trkpt lat="43.69905" lon="3.8258">
        <ele>116</ele>
        <time>2021-02-20T13:11:47Z</time>
      </trkpt>
      <trkpt lat="43.69909" lon="3.82579">
        <ele>116</ele>
        <time>2021-02-20T13:11:48Z</time>
      </trkpt>
      <trkpt lat="43.69914" lon="3.82579">
        <ele>116</ele>
        <time>2021-02-20T13:11:49Z</time>
      </trkpt>
      <trkpt lat="43.69919" lon="3.82581">
        <ele>116</ele>
        <time>2021-02-20T13:11:50Z</time>
      </trkpt>
      <trkpt lat="43.69923" lon="3.82582">
        <ele>116</ele>
        <time>2021-02-20T13:11:51Z</time>
      </trkpt>
      <trkpt lat="43.69926" lon="3.82584">
        <ele>116</ele>
        <time>2021-02-20T13:11:52Z</time>
      </trkpt>
      <trkpt lat="43.69929" lon="3.82586">
        <ele>116</ele>
        <time>2021-02-20T13:11:53Z</time>
      </trkpt>
      <trkpt lat="43.69933" lon="3.82588">
        <ele>116</ele>
        <time>2021-02-20T13:11:54Z</time>
      </trkpt>
      <trkpt lat="43.69936" lon="3.8259">
        <ele>113</ele>
        <time>2021-02-20T13:11:55Z</time>
      </trkpt>
      <trkpt lat="43.69939" lon="3.82594">
        <ele>113</ele>
        <time>2021-02-20T13:11:56Z</time>
      </trkpt>
      <trkpt lat="43.69942" lon="3.82596">
        <ele>113</ele>
        <time>2021-02-20T13:11:57Z</time>
      </trkpt>
      <trkpt lat="43.69944" lon="3.82599">
        <ele>113</ele>
        <time>2021-02-20T13:11:58Z</time>
      </trkpt>
      <trkpt lat="43.69947" lon="3.826">
        <ele>113</ele>
        <time>2021-02-20T13:11:59Z</time>
      </trkpt>
      <trkpt lat="43.6995" lon="3.82601">
        <ele>113</ele>
        <time>2021-02-20T13:12:00Z</time>
      </trkpt>
      <trkpt lat="43.69953" lon="3.82601">
        <ele>113</ele>
        <time>2021-02-20T13:12:01Z</time>
      </trkpt>
      <trkpt lat="43.69955" lon="3.82601">
        <ele>113</ele>
        <time>2021-02-20T13:12:02Z</time>
      </trkpt>
      <trkpt lat="43.69957" lon="3.82603">
        <ele>113</ele>
        <time>2021-02-20T13:12:03Z</time>
      </trkpt>
      <trkpt lat="43.69959" lon="3.82604">
        <ele>113</ele>
        <time>2021-02-20T13:12:04Z</time>
      </trkpt>
      <trkpt lat="43.69962" lon="3.82606">
        <ele>112</ele>
        <time>2021-02-20T13:12:05Z</time>
      </trkpt>
      <trkpt lat="43.69965" lon="3.82606">
        <ele>112</ele>
        <time>2021-02-20T13:12:06Z</time>
      </trkpt>
      <trkpt lat="43.69968" lon="3.82606">
        <ele>112</ele>
        <time>2021-02-20T13:12:07Z</time>
      </trkpt>
      <trkpt lat="43.69971" lon="3.82607">
        <ele>112</ele>
        <time>2021-02-20T13:12:08Z</time>
      </trkpt>
      <trkpt lat="43.69975" lon="3.82608">
        <ele>112</ele>
        <time>2021-02-20T13:12:09Z</time>
      </trkpt>
      <trkpt lat="43.69978" lon="3.8261">
        <ele>112</ele>
        <time>2021-02-20T13:12:10Z</time>
      </trkpt>
      <trkpt lat="43.69982" lon="3.82611">
        <ele>112</ele>
        <time>2021-02-20T13:12:11Z</time>
      </trkpt>
      <trkpt lat="43.69985" lon="3.82612">
        <ele>112</ele>
        <time>2021-02-20T13:12:12Z</time>
      </trkpt>
      <trkpt lat="43.69988" lon="3.82612">
        <ele>112</ele>
        <time>2021-02-20T13:12:13Z</time>
      </trkpt>
      <trkpt lat="43.69992" lon="3.82613">
        <ele>112</ele>
        <time>2021-02-20T13:12:14Z</time>
      </trkpt>
      <trkpt lat="43.69995" lon="3.82613">
        <ele>112</ele>
        <time>2021-02-20T13:12:15Z</time>
      </trkpt>
      <trkpt lat="43.69998" lon="3.82612">
        <ele>112</ele>
        <time>2021-02-20T13:12:16Z</time>
      </trkpt>
      <trkpt lat="43.7" lon="3.8261">
        <ele>112</ele>
        <time>2021-02-20T13:12:17Z</time>
      </trkpt>
      <trkpt lat="43.70003" lon="3.82608">
        <ele>112</ele>
        <time>2021-02-20T13:12:18Z</time>
      </trkpt>
      <trkpt lat="43.70005" lon="3.82606">
        <ele>112</ele>
        <time>2021-02-20T13:12:19Z</time>
      </trkpt>
      <trkpt lat="43.70007" lon="3.82603">
        <ele>112</ele>
        <time>2021-02-20T13:12:20Z</time>
      </trkpt>
      <trkpt lat="43.70009" lon="3.82601">
        <ele>112</ele>
        <time>2021-02-20T13:12:22Z</time>
      </trkpt>
      <trkpt lat="43.70009" lon="3.82599">
        <ele>112</ele>
        <time>2021-02-20T13:12:26Z</time>
      </trkpt>
      <trkpt lat="43.70011" lon="3.82593">
        <ele>111</ele>
        <time>2021-02-20T13:12:30Z</time>
      </trkpt>
      <trkpt lat="43.70011" lon="3.82588">
        <ele>111</ele>
        <time>2021-02-20T13:12:31Z</time>
      </trkpt>
      <trkpt lat="43.70011" lon="3.82585">
        <ele>111</ele>
        <time>2021-02-20T13:12:32Z</time>
      </trkpt>
      <trkpt lat="43.70011" lon="3.82582">
        <ele>111</ele>
        <time>2021-02-20T13:12:33Z</time>
      </trkpt>
      <trkpt lat="43.70011" lon="3.82577">
        <ele>111</ele>
        <time>2021-02-20T13:12:34Z</time>
      </trkpt>
      <trkpt lat="43.7001" lon="3.82572">
        <ele>111</ele>
        <time>2021-02-20T13:12:35Z</time>
      </trkpt>
      <trkpt lat="43.7001" lon="3.82567">
        <ele>111</ele>
        <time>2021-02-20T13:12:36Z</time>
      </trkpt>
      <trkpt lat="43.70011" lon="3.82563">
        <ele>111</ele>
        <time>2021-02-20T13:12:37Z</time>
      </trkpt>
      <trkpt lat="43.70012" lon="3.82559">
        <ele>111</ele>
        <time>2021-02-20T13:12:38Z</time>
      </trkpt>
      <trkpt lat="43.70014" lon="3.82556">
        <ele>111</ele>
        <time>2021-02-20T13:12:39Z</time>
      </trkpt>
      <trkpt lat="43.70016" lon="3.82554">
        <ele>111</ele>
        <time>2021-02-20T13:12:40Z</time>
      </trkpt>
      <trkpt lat="43.7002" lon="3.82551">
        <ele>111</ele>
        <time>2021-02-20T13:12:41Z</time>
      </trkpt>
      <trkpt lat="43.70023" lon="3.82548">
        <ele>111</ele>
        <time>2021-02-20T13:12:42Z</time>
      </trkpt>
      <trkpt lat="43.70027" lon="3.82546">
        <ele>111</ele>
        <time>2021-02-20T13:12:43Z</time>
      </trkpt>
      <trkpt lat="43.7003" lon="3.82547">
        <ele>111</ele>
        <time>2021-02-20T13:12:44Z</time>
      </trkpt>
      <trkpt lat="43.70032" lon="3.8255">
        <ele>111</ele>
        <time>2021-02-20T13:12:45Z</time>
      </trkpt>
      <trkpt lat="43.70035" lon="3.82553">
        <ele>111</ele>
        <time>2021-02-20T13:12:46Z</time>
      </trkpt>
      <trkpt lat="43.70039" lon="3.82554">
        <ele>111</ele>
        <time>2021-02-20T13:12:47Z</time>
      </trkpt>
      <trkpt lat="43.70043" lon="3.82556">
        <ele>111</ele>
        <time>2021-02-20T13:12:48Z</time>
      </trkpt>
      <trkpt lat="43.70047" lon="3.82558">
        <ele>110</ele>
        <time>2021-02-20T13:12:49Z</time>
      </trkpt>
      <trkpt lat="43.7005" lon="3.82561">
        <ele>110</ele>
        <time>2021-02-20T13:12:50Z</time>
      </trkpt>
      <trkpt lat="43.70053" lon="3.82563">
        <ele>110</ele>
        <time>2021-02-20T13:12:51Z</time>
      </trkpt>
      <trkpt lat="43.70055" lon="3.82565">
        <ele>110</ele>
        <time>2021-02-20T13:12:52Z</time>
      </trkpt>
      <trkpt lat="43.70056" lon="3.82566">
        <ele>110</ele>
        <time>2021-02-20T13:12:53Z</time>
      </trkpt>
      <trkpt lat="43.70058" lon="3.82569">
        <ele>110</ele>
        <time>2021-02-20T13:12:54Z</time>
      </trkpt>
      <trkpt lat="43.70061" lon="3.82571">
        <ele>110</ele>
        <time>2021-02-20T13:12:55Z</time>
      </trkpt>
      <trkpt lat="43.70063" lon="3.82573">
        <ele>110</ele>
        <time>2021-02-20T13:12:56Z</time>
      </trkpt>
      <trkpt lat="43.70066" lon="3.82575">
        <ele>110</ele>
        <time>2021-02-20T13:12:57Z</time>
      </trkpt>
      <trkpt lat="43.70068" lon="3.82577">
        <ele>110</ele>
        <time>2021-02-20T13:12:58Z</time>
      </trkpt>
      <trkpt lat="43.70072" lon="3.82579">
        <ele>110</ele>
        <time>2021-02-20T13:12:59Z</time>
      </trkpt>
      <trkpt lat="43.70075" lon="3.82581">
        <ele>110</ele>
        <time>2021-02-20T13:13:00Z</time>
      </trkpt>
      <trkpt lat="43.70078" lon="3.82583">
        <ele>110</ele>
        <time>2021-02-20T13:13:01Z</time>
      </trkpt>
      <trkpt lat="43.70081" lon="3.82585">
        <ele>110</ele>
        <time>2021-02-20T13:13:02Z</time>
      </trkpt>
      <trkpt lat="43.70084" lon="3.82588">
        <ele>110</ele>
        <time>2021-02-20T13:13:03Z</time>
      </trkpt>
      <trkpt lat="43.70086" lon="3.82591">
        <ele>110</ele>
        <time>2021-02-20T13:13:04Z</time>
      </trkpt>
      <trkpt lat="43.70089" lon="3.82593">
        <ele>110</ele>
        <time>2021-02-20T13:13:05Z</time>
      </trkpt>
      <trkpt lat="43.70091" lon="3.82596">
        <ele>110</ele>
        <time>2021-02-20T13:13:06Z</time>
      </trkpt>
      <trkpt lat="43.70094" lon="3.82599">
        <ele>110</ele>
        <time>2021-02-20T13:13:07Z</time>
      </trkpt>
      <trkpt lat="43.70096" lon="3.82602">
        <ele>110</ele>
        <time>2021-02-20T13:13:08Z</time>
      </trkpt>
      <trkpt lat="43.70099" lon="3.82604">
        <ele>110</ele>
        <time>2021-02-20T13:13:09Z</time>
      </trkpt>
      <trkpt lat="43.70102" lon="3.82606">
        <ele>110</ele>
        <time>2021-02-20T13:13:10Z</time>
      </trkpt>
      <trkpt lat="43.70104" lon="3.82609">
        <ele>110</ele>
        <time>2021-02-20T13:13:11Z</time>
      </trkpt>
      <trkpt lat="43.70107" lon="3.82611">
        <ele>110</ele>
        <time>2021-02-20T13:13:12Z</time>
      </trkpt>
      <trkpt lat="43.70109" lon="3.82613">
        <ele>110</ele>
        <time>2021-02-20T13:13:13Z</time>
      </trkpt>
      <trkpt lat="43.70112" lon="3.82615">
        <ele>110</ele>
        <time>2021-02-20T13:13:14Z</time>
      </trkpt>
      <trkpt lat="43.70114" lon="3.82618">
        <ele>110</ele>
        <time>2021-02-20T13:13:15Z</time>
      </trkpt>
      <trkpt lat="43.70115" lon="3.82621">
        <ele>110</ele>
        <time>2021-02-20T13:13:16Z</time>
      </trkpt>
      <trkpt lat="43.70117" lon="3.82624">
        <ele>110</ele>
        <time>2021-02-20T13:13:17Z</time>
      </trkpt>
      <trkpt lat="43.70118" lon="3.82628">
        <ele>110</ele>
        <time>2021-02-20T13:13:18Z</time>
      </trkpt>
      <trkpt lat="43.7012" lon="3.82631">
        <ele>109</ele>
        <time>2021-02-20T13:13:19Z</time>
      </trkpt>
      <trkpt lat="43.7012" lon="3.82635">
        <ele>109</ele>
        <time>2021-02-20T13:13:20Z</time>
      </trkpt>
      <trkpt lat="43.70121" lon="3.82638">
        <ele>109</ele>
        <time>2021-02-20T13:13:21Z</time>
      </trkpt>
      <trkpt lat="43.70121" lon="3.82642">
        <ele>109</ele>
        <time>2021-02-20T13:13:22Z</time>
      </trkpt>
      <trkpt lat="43.70122" lon="3.82645">
        <ele>109</ele>
        <time>2021-02-20T13:13:23Z</time>
      </trkpt>
      <trkpt lat="43.70122" lon="3.82648">
        <ele>109</ele>
        <time>2021-02-20T13:13:24Z</time>
      </trkpt>
      <trkpt lat="43.70123" lon="3.82651">
        <ele>109</ele>
        <time>2021-02-20T13:13:25Z</time>
      </trkpt>
      <trkpt lat="43.70124" lon="3.82653">
        <ele>109</ele>
        <time>2021-02-20T13:13:26Z</time>
      </trkpt>
      <trkpt lat="43.70125" lon="3.82655">
        <ele>109</ele>
        <time>2021-02-20T13:13:27Z</time>
      </trkpt>
      <trkpt lat="43.70127" lon="3.82658">
        <ele>109</ele>
        <time>2021-02-20T13:13:28Z</time>
      </trkpt>
      <trkpt lat="43.7013" lon="3.8266">
        <ele>109</ele>
        <time>2021-02-20T13:13:29Z</time>
      </trkpt>
      <trkpt lat="43.70133" lon="3.82662">
        <ele>109</ele>
        <time>2021-02-20T13:13:30Z</time>
      </trkpt>
      <trkpt lat="43.70136" lon="3.82664">
        <ele>109</ele>
        <time>2021-02-20T13:13:31Z</time>
      </trkpt>
      <trkpt lat="43.70139" lon="3.82665">
        <ele>109</ele>
        <time>2021-02-20T13:13:32Z</time>
      </trkpt>
      <trkpt lat="43.70141" lon="3.82666">
        <ele>109</ele>
        <time>2021-02-20T13:13:33Z</time>
      </trkpt>
      <trkpt lat="43.70143" lon="3.82667">
        <ele>109</ele>
        <time>2021-02-20T13:13:34Z</time>
      </trkpt>
      <trkpt lat="43.70145" lon="3.82668">
        <ele>109</ele>
        <time>2021-02-20T13:13:35Z</time>
      </trkpt>
      <trkpt lat="43.70148" lon="3.82669">
        <ele>109</ele>
        <time>2021-02-20T13:13:37Z</time>
      </trkpt>
      <trkpt lat="43.70156" lon="3.82671">
        <ele>108</ele>
        <time>2021-02-20T13:14:16Z</time>
      </trkpt>
      <trkpt lat="43.70158" lon="3.82671">
        <ele>108</ele>
        <time>2021-02-20T13:14:17Z</time>
      </trkpt>
      <trkpt lat="43.70159" lon="3.82672">
        <ele>108</ele>
        <time>2021-02-20T13:14:18Z</time>
      </trkpt>
      <trkpt lat="43.70161" lon="3.82673">
        <ele>108</ele>
        <time>2021-02-20T13:14:19Z</time>
      </trkpt>
      <trkpt lat="43.70163" lon="3.82674">
        <ele>108</ele>
        <time>2021-02-20T13:14:20Z</time>
      </trkpt>
      <trkpt lat="43.70165" lon="3.82675">
        <ele>108</ele>
        <time>2021-02-20T13:14:21Z</time>
      </trkpt>
      <trkpt lat="43.70167" lon="3.82675">
        <ele>108</ele>
        <time>2021-02-20T13:14:22Z</time>
      </trkpt>
      <trkpt lat="43.70169" lon="3.82676">
        <ele>108</ele>
        <time>2021-02-20T13:14:23Z</time>
      </trkpt>
      <trkpt lat="43.70171" lon="3.82677">
        <ele>108</ele>
        <time>2021-02-20T13:14:24Z</time>
      </trkpt>
      <trkpt lat="43.70173" lon="3.82678">
        <ele>108</ele>
        <time>2021-02-20T13:14:25Z</time>
      </trkpt>
      <trkpt lat="43.70176" lon="3.82679">
        <ele>108</ele>
        <time>2021-02-20T13:14:26Z</time>
      </trkpt>
      <trkpt lat="43.70178" lon="3.8268">
        <ele>108</ele>
        <time>2021-02-20T13:14:27Z</time>
      </trkpt>
      <trkpt lat="43.7018" lon="3.82681">
        <ele>108</ele>
        <time>2021-02-20T13:14:28Z</time>
      </trkpt>
      <trkpt lat="43.70182" lon="3.82683">
        <ele>108</ele>
        <time>2021-02-20T13:14:29Z</time>
      </trkpt>
      <trkpt lat="43.70185" lon="3.82684">
        <ele>108</ele>
        <time>2021-02-20T13:14:30Z</time>
      </trkpt>
      <trkpt lat="43.70187" lon="3.82685">
        <ele>108</ele>
        <time>2021-02-20T13:14:31Z</time>
      </trkpt>
      <trkpt lat="43.7019" lon="3.82686">
        <ele>108</ele>
        <time>2021-02-20T13:14:32Z</time>
      </trkpt>
      <trkpt lat="43.70193" lon="3.82687">
        <ele>108</ele>
        <time>2021-02-20T13:14:33Z</time>
      </trkpt>
      <trkpt lat="43.70195" lon="3.82689">
        <ele>108</ele>
        <time>2021-02-20T13:14:34Z</time>
      </trkpt>
      <trkpt lat="43.70198" lon="3.8269">
        <ele>108</ele>
        <time>2021-02-20T13:14:35Z</time>
      </trkpt>
      <trkpt lat="43.70201" lon="3.82691">
        <ele>107</ele>
        <time>2021-02-20T13:14:36Z</time>
      </trkpt>
      <trkpt lat="43.70204" lon="3.82693">
        <ele>107</ele>
        <time>2021-02-20T13:14:37Z</time>
      </trkpt>
      <trkpt lat="43.70206" lon="3.82694">
        <ele>107</ele>
        <time>2021-02-20T13:14:38Z</time>
      </trkpt>
      <trkpt lat="43.70209" lon="3.82696">
        <ele>107</ele>
        <time>2021-02-20T13:14:39Z</time>
      </trkpt>
      <trkpt lat="43.70212" lon="3.82697">
        <ele>107</ele>
        <time>2021-02-20T13:14:40Z</time>
      </trkpt>
      <trkpt lat="43.70215" lon="3.82699">
        <ele>107</ele>
        <time>2021-02-20T13:14:41Z</time>
      </trkpt>
      <trkpt lat="43.70218" lon="3.827">
        <ele>107</ele>
        <time>2021-02-20T13:14:42Z</time>
      </trkpt>
      <trkpt lat="43.7022" lon="3.82702">
        <ele>107</ele>
        <time>2021-02-20T13:14:43Z</time>
      </trkpt>
      <trkpt lat="43.70223" lon="3.82703">
        <ele>107</ele>
        <time>2021-02-20T13:14:44Z</time>
      </trkpt>
      <trkpt lat="43.70226" lon="3.82706">
        <ele>106</ele>
        <time>2021-02-20T13:14:45Z</time>
      </trkpt>
      <trkpt lat="43.70229" lon="3.82707">
        <ele>106</ele>
        <time>2021-02-20T13:14:46Z</time>
      </trkpt>
      <trkpt lat="43.70231" lon="3.82709">
        <ele>106</ele>
        <time>2021-02-20T13:14:47Z</time>
      </trkpt>
      <trkpt lat="43.70234" lon="3.8271">
        <ele>106</ele>
        <time>2021-02-20T13:14:48Z</time>
      </trkpt>
      <trkpt lat="43.70237" lon="3.82711">
        <ele>106</ele>
        <time>2021-02-20T13:14:49Z</time>
      </trkpt>
      <trkpt lat="43.7024" lon="3.82713">
        <ele>106</ele>
        <time>2021-02-20T13:14:50Z</time>
      </trkpt>
      <trkpt lat="43.70243" lon="3.82714">
        <ele>106</ele>
        <time>2021-02-20T13:14:51Z</time>
      </trkpt>
      <trkpt lat="43.70245" lon="3.82715">
        <ele>106</ele>
        <time>2021-02-20T13:14:52Z</time>
      </trkpt>
      <trkpt lat="43.70248" lon="3.82717">
        <ele>106</ele>
        <time>2021-02-20T13:14:53Z</time>
      </trkpt>
      <trkpt lat="43.70251" lon="3.82718">
        <ele>106</ele>
        <time>2021-02-20T13:14:54Z</time>
      </trkpt>
      <trkpt lat="43.70254" lon="3.82719">
        <ele>106</ele>
        <time>2021-02-20T13:14:55Z</time>
      </trkpt>
      <trkpt lat="43.70257" lon="3.8272">
        <ele>106</ele>
        <time>2021-02-20T13:14:56Z</time>
      </trkpt>
      <trkpt lat="43.7026" lon="3.82721">
        <ele>106</ele>
        <time>2021-02-20T13:14:57Z</time>
      </trkpt>
      <trkpt lat="43.70262" lon="3.82723">
        <ele>106</ele>
        <time>2021-02-20T13:14:58Z</time>
      </trkpt>
      <trkpt lat="43.70265" lon="3.82724">
        <ele>106</ele>
        <time>2021-02-20T13:14:59Z</time>
      </trkpt>
      <trkpt lat="43.70268" lon="3.82725">
        <ele>106</ele>
        <time>2021-02-20T13:15:00Z</time>
      </trkpt>
      <trkpt lat="43.70271" lon="3.82726">
        <ele>106</ele>
        <time>2021-02-20T13:15:01Z</time>
      </trkpt>
      <trkpt lat="43.70273" lon="3.82728">
        <ele>106</ele>
        <time>2021-02-20T13:15:02Z</time>
      </trkpt>
      <trkpt lat="43.70276" lon="3.82729">
        <ele>106</ele>
        <time>2021-02-20T13:15:03Z</time>
      </trkpt>
      <trkpt lat="43.70279" lon="3.8273">
        <ele>106</ele>
        <time>2021-02-20T13:15:04Z</time>
      </trkpt>
      <trkpt lat="43.70282" lon="3.82731">
        <ele>106</ele>
        <time>2021-02-20T13:15:05Z</time>
      </trkpt>
      <trkpt lat="43.70285" lon="3.82732">
        <ele>106</ele>
        <time>2021-02-20T13:15:06Z</time>
      </trkpt>
      <trkpt lat="43.70288" lon="3.82733">
        <ele>106</ele>
        <time>2021-02-20T13:15:07Z</time>
      </trkpt>
      <trkpt lat="43.70291" lon="3.82733">
        <ele>106</ele>
        <time>2021-02-20T13:15:08Z</time>
      </trkpt>
      <trkpt lat="43.70293" lon="3.82732">
        <ele>106</ele>
        <time>2021-02-20T13:15:09Z</time>
      </trkpt>
      <trkpt lat="43.70296" lon="3.82729">
        <ele>106</ele>
        <time>2021-02-20T13:15:10Z</time>
      </trkpt>
      <trkpt lat="43.70298" lon="3.82726">
        <ele>106</ele>
        <time>2021-02-20T13:15:11Z</time>
      </trkpt>
      <trkpt lat="43.70299" lon="3.82722">
        <ele>106</ele>
        <time>2021-02-20T13:15:12Z</time>
      </trkpt>
      <trkpt lat="43.70301" lon="3.82718">
        <ele>106</ele>
        <time>2021-02-20T13:15:13Z</time>
      </trkpt>
      <trkpt lat="43.70302" lon="3.82714">
        <ele>106</ele>
        <time>2021-02-20T13:15:14Z</time>
      </trkpt>
      <trkpt lat="43.70303" lon="3.82709">
        <ele>105</ele>
        <time>2021-02-20T13:15:15Z</time>
      </trkpt>
      <trkpt lat="43.70305" lon="3.82705">
        <ele>105</ele>
        <time>2021-02-20T13:15:16Z</time>
      </trkpt>
      <trkpt lat="43.70307" lon="3.82702">
        <ele>105</ele>
        <time>2021-02-20T13:15:17Z</time>
      </trkpt>
      <trkpt lat="43.70309" lon="3.82698">
        <ele>105</ele>
        <time>2021-02-20T13:15:18Z</time>
      </trkpt>
      <trkpt lat="43.70311" lon="3.82695">
        <ele>105</ele>
        <time>2021-02-20T13:15:19Z</time>
      </trkpt>
      <trkpt lat="43.70314" lon="3.82693">
        <ele>105</ele>
        <time>2021-02-20T13:15:20Z</time>
      </trkpt>
      <trkpt lat="43.70317" lon="3.82692">
        <ele>105</ele>
        <time>2021-02-20T13:15:21Z</time>
      </trkpt>
      <trkpt lat="43.7032" lon="3.82691">
        <ele>105</ele>
        <time>2021-02-20T13:15:22Z</time>
      </trkpt>
      <trkpt lat="43.70323" lon="3.82691">
        <ele>105</ele>
        <time>2021-02-20T13:15:23Z</time>
      </trkpt>
      <trkpt lat="43.70326" lon="3.82691">
        <ele>105</ele>
        <time>2021-02-20T13:15:24Z</time>
      </trkpt>
      <trkpt lat="43.7033" lon="3.82691">
        <ele>105</ele>
        <time>2021-02-20T13:15:25Z</time>
      </trkpt>
      <trkpt lat="43.70333" lon="3.82691">
        <ele>105</ele>
        <time>2021-02-20T13:15:26Z</time>
      </trkpt>
      <trkpt lat="43.70337" lon="3.82691">
        <ele>105</ele>
        <time>2021-02-20T13:15:27Z</time>
      </trkpt>
      <trkpt lat="43.7034" lon="3.82691">
        <ele>105</ele>
        <time>2021-02-20T13:15:28Z</time>
      </trkpt>
      <trkpt lat="43.70344" lon="3.82691">
        <ele>105</ele>
        <time>2021-02-20T13:15:29Z</time>
      </trkpt>
      <trkpt lat="43.70347" lon="3.82691">
        <ele>105</ele>
        <time>2021-02-20T13:15:30Z</time>
      </trkpt>
      <trkpt lat="43.70351" lon="3.82691">
        <ele>105</ele>
        <time>2021-02-20T13:15:31Z</time>
      </trkpt>
      <trkpt lat="43.70354" lon="3.82691">
        <ele>105</ele>
        <time>2021-02-20T13:15:32Z</time>
      </trkpt>
      <trkpt lat="43.70358" lon="3.82691">
        <ele>105</ele>
        <time>2021-02-20T13:15:33Z</time>
      </trkpt>
      <trkpt lat="43.70361" lon="3.82691">
        <ele>105</ele>
        <time>2021-02-20T13:15:34Z</time>
      </trkpt>
      <trkpt lat="43.70365" lon="3.82692">
        <ele>105</ele>
        <time>2021-02-20T13:15:35Z</time>
      </trkpt>
      <trkpt lat="43.70368" lon="3.82693">
        <ele>105</ele>
        <time>2021-02-20T13:15:36Z</time>
      </trkpt>
      <trkpt lat="43.70372" lon="3.82694">
        <ele>105</ele>
        <time>2021-02-20T13:15:37Z</time>
      </trkpt>
      <trkpt lat="43.70375" lon="3.82694">
        <ele>105</ele>
        <time>2021-02-20T13:15:38Z</time>
      </trkpt>
      <trkpt lat="43.70379" lon="3.82695">
        <ele>105</ele>
        <time>2021-02-20T13:15:39Z</time>
      </trkpt>
      <trkpt lat="43.70382" lon="3.82695">
        <ele>105</ele>
        <time>2021-02-20T13:15:40Z</time>
      </trkpt>
      <trkpt lat="43.70385" lon="3.82695">
        <ele>105</ele>
        <time>2021-02-20T13:15:41Z</time>
      </trkpt>
      <trkpt lat="43.70388" lon="3.82694">
        <ele>105</ele>
        <time>2021-02-20T13:15:42Z</time>
      </trkpt>
      <trkpt lat="43.70391" lon="3.82692">
        <ele>105</ele>
        <time>2021-02-20T13:15:43Z</time>
      </trkpt>
      <trkpt lat="43.70394" lon="3.82691">
        <ele>105</ele>
        <time>2021-02-20T13:15:44Z</time>
      </trkpt>
      <trkpt lat="43.70397" lon="3.8269">
        <ele>105</ele>
        <time>2021-02-20T13:15:45Z</time>
      </trkpt>
      <trkpt lat="43.704" lon="3.82689">
        <ele>105</ele>
        <time>2021-02-20T13:15:46Z</time>
      </trkpt>
      <trkpt lat="43.70403" lon="3.8269">
        <ele>105</ele>
        <time>2021-02-20T13:15:47Z</time>
      </trkpt>
      <trkpt lat="43.70406" lon="3.82691">
        <ele>105</ele>
        <time>2021-02-20T13:15:48Z</time>
      </trkpt>
      <trkpt lat="43.7041" lon="3.82692">
        <ele>105</ele>
        <time>2021-02-20T13:15:49Z</time>
      </trkpt>
      <trkpt lat="43.70413" lon="3.82693">
        <ele>105</ele>
        <time>2021-02-20T13:15:50Z</time>
      </trkpt>
      <trkpt lat="43.70416" lon="3.82694">
        <ele>105</ele>
        <time>2021-02-20T13:15:51Z</time>
      </trkpt>
      <trkpt lat="43.70419" lon="3.82694">
        <ele>105</ele>
        <time>2021-02-20T13:15:52Z</time>
      </trkpt>
      <trkpt lat="43.70422" lon="3.82695">
        <ele>105</ele>
        <time>2021-02-20T13:15:53Z</time>
      </trkpt>
      <trkpt lat="43.70425" lon="3.82696">
        <ele>105</ele>
        <time>2021-02-20T13:15:54Z</time>
      </trkpt>
      <trkpt lat="43.70429" lon="3.82698">
        <ele>105</ele>
        <time>2021-02-20T13:15:55Z</time>
      </trkpt>
      <trkpt lat="43.70432" lon="3.82698">
        <ele>105</ele>
        <time>2021-02-20T13:15:56Z</time>
      </trkpt>
      <trkpt lat="43.70436" lon="3.82699">
        <ele>105</ele>
        <time>2021-02-20T13:15:57Z</time>
      </trkpt>
      <trkpt lat="43.7044" lon="3.827">
        <ele>105</ele>
        <time>2021-02-20T13:15:58Z</time>
      </trkpt>
      <trkpt lat="43.70443" lon="3.82701">
        <ele>105</ele>
        <time>2021-02-20T13:15:59Z</time>
      </trkpt>
      <trkpt lat="43.70447" lon="3.82702">
        <ele>105</ele>
        <time>2021-02-20T13:16:00Z</time>
      </trkpt>
      <trkpt lat="43.7045" lon="3.82702">
        <ele>105</ele>
        <time>2021-02-20T13:16:01Z</time>
      </trkpt>
      <trkpt lat="43.70453" lon="3.82701">
        <ele>105</ele>
        <time>2021-02-20T13:16:02Z</time>
      </trkpt>
      <trkpt lat="43.70455" lon="3.82699">
        <ele>105</ele>
        <time>2021-02-20T13:16:03Z</time>
      </trkpt>
      <trkpt lat="43.70457" lon="3.82696">
        <ele>105</ele>
        <time>2021-02-20T13:16:04Z</time>
      </trkpt>
      <trkpt lat="43.70459" lon="3.82692">
        <ele>105</ele>
        <time>2021-02-20T13:16:05Z</time>
      </trkpt>
      <trkpt lat="43.7046" lon="3.82688">
        <ele>105</ele>
        <time>2021-02-20T13:16:06Z</time>
      </trkpt>
      <trkpt lat="43.70461" lon="3.82683">
        <ele>105</ele>
        <time>2021-02-20T13:16:07Z</time>
      </trkpt>
      <trkpt lat="43.70461" lon="3.82678">
        <ele>105</ele>
        <time>2021-02-20T13:16:08Z</time>
      </trkpt>
      <trkpt lat="43.70461" lon="3.82673">
        <ele>105</ele>
        <time>2021-02-20T13:16:09Z</time>
      </trkpt>
      <trkpt lat="43.70461" lon="3.82669">
        <ele>105</ele>
        <time>2021-02-20T13:16:10Z</time>
      </trkpt>
      <trkpt lat="43.70462" lon="3.82664">
        <ele>105</ele>
        <time>2021-02-20T13:16:11Z</time>
      </trkpt>
      <trkpt lat="43.70462" lon="3.82658">
        <ele>105</ele>
        <time>2021-02-20T13:16:12Z</time>
      </trkpt>
      <trkpt lat="43.70462" lon="3.82653">
        <ele>105</ele>
        <time>2021-02-20T13:16:13Z</time>
      </trkpt>
      <trkpt lat="43.70463" lon="3.82648">
        <ele>105</ele>
        <time>2021-02-20T13:16:14Z</time>
      </trkpt>
      <trkpt lat="43.70463" lon="3.82642">
        <ele>105</ele>
        <time>2021-02-20T13:16:15Z</time>
      </trkpt>
      <trkpt lat="43.70464" lon="3.82637">
        <ele>105</ele>
        <time>2021-02-20T13:16:16Z</time>
      </trkpt>
      <trkpt lat="43.70465" lon="3.82631">
        <ele>105</ele>
        <time>2021-02-20T13:16:17Z</time>
      </trkpt>
      <trkpt lat="43.70465" lon="3.82626">
        <ele>105</ele>
        <time>2021-02-20T13:16:18Z</time>
      </trkpt>
      <trkpt lat="43.70466" lon="3.8262">
        <ele>105</ele>
        <time>2021-02-20T13:16:19Z</time>
      </trkpt>
      <trkpt lat="43.70466" lon="3.82615">
        <ele>105</ele>
        <time>2021-02-20T13:16:20Z</time>
      </trkpt>
      <trkpt lat="43.70466" lon="3.8261">
        <ele>105</ele>
        <time>2021-02-20T13:16:21Z</time>
      </trkpt>
      <trkpt lat="43.70467" lon="3.82605">
        <ele>105</ele>
        <time>2021-02-20T13:16:22Z</time>
      </trkpt>
      <trkpt lat="43.70467" lon="3.826">
        <ele>105</ele>
        <time>2021-02-20T13:16:23Z</time>
      </trkpt>
      <trkpt lat="43.70468" lon="3.82595">
        <ele>105</ele>
        <time>2021-02-20T13:16:24Z</time>
      </trkpt>
      <trkpt lat="43.70468" lon="3.8259">
        <ele>105</ele>
        <time>2021-02-20T13:16:25Z</time>
      </trkpt>
      <trkpt lat="43.70469" lon="3.82585">
        <ele>105</ele>
        <time>2021-02-20T13:16:26Z</time>
      </trkpt>
      <trkpt lat="43.7047" lon="3.8258">
        <ele>105</ele>
        <time>2021-02-20T13:16:27Z</time>
      </trkpt>
      <trkpt lat="43.70471" lon="3.82575">
        <ele>105</ele>
        <time>2021-02-20T13:16:28Z</time>
      </trkpt>
      <trkpt lat="43.70472" lon="3.8257">
        <ele>105</ele>
        <time>2021-02-20T13:16:29Z</time>
      </trkpt>
      <trkpt lat="43.70473" lon="3.82566">
        <ele>105</ele>
        <time>2021-02-20T13:16:30Z</time>
      </trkpt>
      <trkpt lat="43.70475" lon="3.82561">
        <ele>105</ele>
        <time>2021-02-20T13:16:31Z</time>
      </trkpt>
      <trkpt lat="43.70476" lon="3.82556">
        <ele>105</ele>
        <time>2021-02-20T13:16:32Z</time>
      </trkpt>
      <trkpt lat="43.70478" lon="3.82552">
        <ele>105</ele>
        <time>2021-02-20T13:16:33Z</time>
      </trkpt>
      <trkpt lat="43.70479" lon="3.82548">
        <ele>105</ele>
        <time>2021-02-20T13:16:34Z</time>
      </trkpt>
      <trkpt lat="43.7048" lon="3.82544">
        <ele>105</ele>
        <time>2021-02-20T13:16:35Z</time>
      </trkpt>
      <trkpt lat="43.70481" lon="3.8254">
        <ele>105</ele>
        <time>2021-02-20T13:16:36Z</time>
      </trkpt>
      <trkpt lat="43.70483" lon="3.82536">
        <ele>105</ele>
        <time>2021-02-20T13:16:37Z</time>
      </trkpt>
      <trkpt lat="43.70484" lon="3.82532">
        <ele>105</ele>
        <time>2021-02-20T13:16:38Z</time>
      </trkpt>
      <trkpt lat="43.70485" lon="3.82528">
        <ele>105</ele>
        <time>2021-02-20T13:16:39Z</time>
      </trkpt>
      <trkpt lat="43.70486" lon="3.82524">
        <ele>105</ele>
        <time>2021-02-20T13:16:40Z</time>
      </trkpt>
      <trkpt lat="43.70487" lon="3.8252">
        <ele>105</ele>
        <time>2021-02-20T13:16:41Z</time>
      </trkpt>
      <trkpt lat="43.70488" lon="3.82515">
        <ele>105</ele>
        <time>2021-02-20T13:16:42Z</time>
      </trkpt>
      <trkpt lat="43.70489" lon="3.82511">
        <ele>105</ele>
        <time>2021-02-20T13:16:43Z</time>
      </trkpt>
      <trkpt lat="43.70489" lon="3.82506">
        <ele>105</ele>
        <time>2021-02-20T13:16:44Z</time>
      </trkpt>
      <trkpt lat="43.7049" lon="3.82501">
        <ele>104</ele>
        <time>2021-02-20T13:16:45Z</time>
      </trkpt>
      <trkpt lat="43.70491" lon="3.82497">
        <ele>104</ele>
        <time>2021-02-20T13:16:46Z</time>
      </trkpt>
      <trkpt lat="43.70493" lon="3.82492">
        <ele>104</ele>
        <time>2021-02-20T13:16:47Z</time>
      </trkpt>
      <trkpt lat="43.70494" lon="3.82487">
        <ele>104</ele>
        <time>2021-02-20T13:16:48Z</time>
      </trkpt>
      <trkpt lat="43.70495" lon="3.82483">
        <ele>104</ele>
        <time>2021-02-20T13:16:49Z</time>
      </trkpt>
      <trkpt lat="43.70497" lon="3.82478">
        <ele>104</ele>
        <time>2021-02-20T13:16:50Z</time>
      </trkpt>
      <trkpt lat="43.70498" lon="3.82473">
        <ele>104</ele>
        <time>2021-02-20T13:16:51Z</time>
      </trkpt>
      <trkpt lat="43.70499" lon="3.82469">
        <ele>104</ele>
        <time>2021-02-20T13:16:52Z</time>
      </trkpt>
      <trkpt lat="43.705" lon="3.82465">
        <ele>104</ele>
        <time>2021-02-20T13:16:53Z</time>
      </trkpt>
      <trkpt lat="43.70501" lon="3.82461">
        <ele>104</ele>
        <time>2021-02-20T13:16:54Z</time>
      </trkpt>
      <trkpt lat="43.70501" lon="3.82457">
        <ele>103</ele>
        <time>2021-02-20T13:16:55Z</time>
      </trkpt>
      <trkpt lat="43.70502" lon="3.82453">
        <ele>103</ele>
        <time>2021-02-20T13:16:56Z</time>
      </trkpt>
      <trkpt lat="43.70503" lon="3.82449">
        <ele>103</ele>
        <time>2021-02-20T13:16:57Z</time>
      </trkpt>
      <trkpt lat="43.70504" lon="3.82445">
        <ele>103</ele>
        <time>2021-02-20T13:16:58Z</time>
      </trkpt>
      <trkpt lat="43.70505" lon="3.82441">
        <ele>103</ele>
        <time>2021-02-20T13:16:59Z</time>
      </trkpt>
      <trkpt lat="43.70507" lon="3.82436">
        <ele>103</ele>
        <time>2021-02-20T13:17:00Z</time>
      </trkpt>
      <trkpt lat="43.70508" lon="3.82432">
        <ele>103</ele>
        <time>2021-02-20T13:17:01Z</time>
      </trkpt>
      <trkpt lat="43.70509" lon="3.82428">
        <ele>103</ele>
        <time>2021-02-20T13:17:02Z</time>
      </trkpt>
      <trkpt lat="43.7051" lon="3.82424">
        <ele>103</ele>
        <time>2021-02-20T13:17:03Z</time>
      </trkpt>
      <trkpt lat="43.70511" lon="3.8242">
        <ele>103</ele>
        <time>2021-02-20T13:17:04Z</time>
      </trkpt>
      <trkpt lat="43.70511" lon="3.82416">
        <ele>102</ele>
        <time>2021-02-20T13:17:05Z</time>
      </trkpt>
      <trkpt lat="43.70512" lon="3.82411">
        <ele>102</ele>
        <time>2021-02-20T13:17:06Z</time>
      </trkpt>
      <trkpt lat="43.70513" lon="3.82406">
        <ele>102</ele>
        <time>2021-02-20T13:17:07Z</time>
      </trkpt>
      <trkpt lat="43.70513" lon="3.82401">
        <ele>102</ele>
        <time>2021-02-20T13:17:08Z</time>
      </trkpt>
      <trkpt lat="43.70514" lon="3.82396">
        <ele>102</ele>
        <time>2021-02-20T13:17:09Z</time>
      </trkpt>
      <trkpt lat="43.70515" lon="3.82392">
        <ele>102</ele>
        <time>2021-02-20T13:17:10Z</time>
      </trkpt>
      <trkpt lat="43.70516" lon="3.82387">
        <ele>102</ele>
        <time>2021-02-20T13:17:11Z</time>
      </trkpt>
      <trkpt lat="43.70517" lon="3.82382">
        <ele>102</ele>
        <time>2021-02-20T13:17:12Z</time>
      </trkpt>
      <trkpt lat="43.70517" lon="3.82378">
        <ele>102</ele>
        <time>2021-02-20T13:17:13Z</time>
      </trkpt>
      <trkpt lat="43.70518" lon="3.82374">
        <ele>102</ele>
        <time>2021-02-20T13:17:14Z</time>
      </trkpt>
      <trkpt lat="43.70519" lon="3.8237">
        <ele>102</ele>
        <time>2021-02-20T13:17:15Z</time>
      </trkpt>
      <trkpt lat="43.70519" lon="3.82366">
        <ele>102</ele>
        <time>2021-02-20T13:17:16Z</time>
      </trkpt>
      <trkpt lat="43.70521" lon="3.82362">
        <ele>102</ele>
        <time>2021-02-20T13:17:17Z</time>
      </trkpt>
      <trkpt lat="43.70522" lon="3.82359">
        <ele>102</ele>
        <time>2021-02-20T13:17:18Z</time>
      </trkpt>
      <trkpt lat="43.70524" lon="3.82356">
        <ele>102</ele>
        <time>2021-02-20T13:17:19Z</time>
      </trkpt>
      <trkpt lat="43.70526" lon="3.82353">
        <ele>102</ele>
        <time>2021-02-20T13:17:20Z</time>
      </trkpt>
      <trkpt lat="43.70527" lon="3.8235">
        <ele>102</ele>
        <time>2021-02-20T13:17:21Z</time>
      </trkpt>
      <trkpt lat="43.70528" lon="3.82346">
        <ele>102</ele>
        <time>2021-02-20T13:17:22Z</time>
      </trkpt>
      <trkpt lat="43.70529" lon="3.82342">
        <ele>102</ele>
        <time>2021-02-20T13:17:23Z</time>
      </trkpt>
      <trkpt lat="43.7053" lon="3.82338">
        <ele>102</ele>
        <time>2021-02-20T13:17:24Z</time>
      </trkpt>
      <trkpt lat="43.70531" lon="3.82334">
        <ele>101</ele>
        <time>2021-02-20T13:17:25Z</time>
      </trkpt>
      <trkpt lat="43.70531" lon="3.8233">
        <ele>101</ele>
        <time>2021-02-20T13:17:26Z</time>
      </trkpt>
      <trkpt lat="43.70532" lon="3.82326">
        <ele>101</ele>
        <time>2021-02-20T13:17:27Z</time>
      </trkpt>
      <trkpt lat="43.70533" lon="3.82321">
        <ele>101</ele>
        <time>2021-02-20T13:17:28Z</time>
      </trkpt>
      <trkpt lat="43.70534" lon="3.82317">
        <ele>101</ele>
        <time>2021-02-20T13:17:29Z</time>
      </trkpt>
      <trkpt lat="43.70535" lon="3.82312">
        <ele>101</ele>
        <time>2021-02-20T13:17:30Z</time>
      </trkpt>
      <trkpt lat="43.70535" lon="3.82308">
        <ele>101</ele>
        <time>2021-02-20T13:17:31Z</time>
      </trkpt>
      <trkpt lat="43.70536" lon="3.82304">
        <ele>101</ele>
        <time>2021-02-20T13:17:32Z</time>
      </trkpt>
      <trkpt lat="43.70537" lon="3.82299">
        <ele>101</ele>
        <time>2021-02-20T13:17:33Z</time>
      </trkpt>
      <trkpt lat="43.70538" lon="3.82295">
        <ele>101</ele>
        <time>2021-02-20T13:17:34Z</time>
      </trkpt>
      <trkpt lat="43.70539" lon="3.82292">
        <ele>102</ele>
        <time>2021-02-20T13:17:35Z</time>
      </trkpt>
      <trkpt lat="43.7054" lon="3.82289">
        <ele>102</ele>
        <time>2021-02-20T13:17:36Z</time>
      </trkpt>
      <trkpt lat="43.7054" lon="3.82287">
        <ele>102</ele>
        <time>2021-02-20T13:17:37Z</time>
      </trkpt>
      <trkpt lat="43.70541" lon="3.82282">
        <ele>102</ele>
        <time>2021-02-20T13:17:39Z</time>
      </trkpt>
      <trkpt lat="43.70542" lon="3.82279">
        <ele>102</ele>
        <time>2021-02-20T13:17:40Z</time>
      </trkpt>
      <trkpt lat="43.70543" lon="3.82276">
        <ele>102</ele>
        <time>2021-02-20T13:17:41Z</time>
      </trkpt>
      <trkpt lat="43.70543" lon="3.82273">
        <ele>102</ele>
        <time>2021-02-20T13:17:42Z</time>
      </trkpt>
      <trkpt lat="43.70544" lon="3.82269">
        <ele>102</ele>
        <time>2021-02-20T13:17:43Z</time>
      </trkpt>
      <trkpt lat="43.70544" lon="3.82265">
        <ele>102</ele>
        <time>2021-02-20T13:17:44Z</time>
      </trkpt>
      <trkpt lat="43.70545" lon="3.82261">
        <ele>102</ele>
        <time>2021-02-20T13:17:45Z</time>
      </trkpt>
      <trkpt lat="43.70546" lon="3.82257">
        <ele>102</ele>
        <time>2021-02-20T13:17:46Z</time>
      </trkpt>
      <trkpt lat="43.70547" lon="3.82253">
        <ele>102</ele>
        <time>2021-02-20T13:17:47Z</time>
      </trkpt>
      <trkpt lat="43.70548" lon="3.82249">
        <ele>102</ele>
        <time>2021-02-20T13:17:48Z</time>
      </trkpt>
      <trkpt lat="43.70549" lon="3.82246">
        <ele>102</ele>
        <time>2021-02-20T13:17:49Z</time>
      </trkpt>
      <trkpt lat="43.70549" lon="3.82243">
        <ele>102</ele>
        <time>2021-02-20T13:17:50Z</time>
      </trkpt>
      <trkpt lat="43.7055" lon="3.82239">
        <ele>102</ele>
        <time>2021-02-20T13:17:52Z</time>
      </trkpt>
      <trkpt lat="43.70553" lon="3.82235">
        <ele>102</ele>
        <time>2021-02-20T13:17:54Z</time>
      </trkpt>
      <trkpt lat="43.70554" lon="3.82232">
        <ele>102</ele>
        <time>2021-02-20T13:17:56Z</time>
      </trkpt>
      <trkpt lat="43.70557" lon="3.82229">
        <ele>102</ele>
        <time>2021-02-20T13:17:58Z</time>
      </trkpt>
      <trkpt lat="43.70559" lon="3.82229">
        <ele>102</ele>
        <time>2021-02-20T13:17:59Z</time>
      </trkpt>
      <trkpt lat="43.70561" lon="3.82229">
        <ele>102</ele>
        <time>2021-02-20T13:18:00Z</time>
      </trkpt>
      <trkpt lat="43.70563" lon="3.82229">
        <ele>102</ele>
        <time>2021-02-20T13:18:01Z</time>
      </trkpt>
      <trkpt lat="43.70567" lon="3.82228">
        <ele>102</ele>
        <time>2021-02-20T13:18:03Z</time>
      </trkpt>
      <trkpt lat="43.7057" lon="3.82227">
        <ele>102</ele>
        <time>2021-02-20T13:18:04Z</time>
      </trkpt>
      <trkpt lat="43.70573" lon="3.82227">
        <ele>103</ele>
        <time>2021-02-20T13:18:05Z</time>
      </trkpt>
      <trkpt lat="43.70576" lon="3.82228">
        <ele>103</ele>
        <time>2021-02-20T13:18:06Z</time>
      </trkpt>
      <trkpt lat="43.70579" lon="3.8223">
        <ele>103</ele>
        <time>2021-02-20T13:18:07Z</time>
      </trkpt>
      <trkpt lat="43.70582" lon="3.82232">
        <ele>103</ele>
        <time>2021-02-20T13:18:08Z</time>
      </trkpt>
      <trkpt lat="43.70585" lon="3.82234">
        <ele>103</ele>
        <time>2021-02-20T13:18:09Z</time>
      </trkpt>
      <trkpt lat="43.70587" lon="3.82235">
        <ele>103</ele>
        <time>2021-02-20T13:18:10Z</time>
      </trkpt>
      <trkpt lat="43.7059" lon="3.82238">
        <ele>103</ele>
        <time>2021-02-20T13:18:11Z</time>
      </trkpt>
      <trkpt lat="43.70592" lon="3.8224">
        <ele>103</ele>
        <time>2021-02-20T13:18:12Z</time>
      </trkpt>
      <trkpt lat="43.70595" lon="3.82241">
        <ele>103</ele>
        <time>2021-02-20T13:18:13Z</time>
      </trkpt>
      <trkpt lat="43.70598" lon="3.82243">
        <ele>103</ele>
        <time>2021-02-20T13:18:14Z</time>
      </trkpt>
      <trkpt lat="43.70601" lon="3.82244">
        <ele>103</ele>
        <time>2021-02-20T13:18:15Z</time>
      </trkpt>
      <trkpt lat="43.70603" lon="3.82246">
        <ele>103</ele>
        <time>2021-02-20T13:18:16Z</time>
      </trkpt>
      <trkpt lat="43.70606" lon="3.82248">
        <ele>103</ele>
        <time>2021-02-20T13:18:17Z</time>
      </trkpt>
      <trkpt lat="43.70609" lon="3.82249">
        <ele>103</ele>
        <time>2021-02-20T13:18:18Z</time>
      </trkpt>
      <trkpt lat="43.70612" lon="3.82251">
        <ele>103</ele>
        <time>2021-02-20T13:18:19Z</time>
      </trkpt>
      <trkpt lat="43.70614" lon="3.82252">
        <ele>103</ele>
        <time>2021-02-20T13:18:20Z</time>
      </trkpt>
      <trkpt lat="43.70617" lon="3.82254">
        <ele>103</ele>
        <time>2021-02-20T13:18:21Z</time>
      </trkpt>
      <trkpt lat="43.7062" lon="3.82256">
        <ele>103</ele>
        <time>2021-02-20T13:18:22Z</time>
      </trkpt>
      <trkpt lat="43.70623" lon="3.82259">
        <ele>103</ele>
        <time>2021-02-20T13:18:23Z</time>
      </trkpt>
      <trkpt lat="43.70626" lon="3.82261">
        <ele>103</ele>
        <time>2021-02-20T13:18:24Z</time>
      </trkpt>
      <trkpt lat="43.70629" lon="3.82264">
        <ele>103</ele>
        <time>2021-02-20T13:18:25Z</time>
      </trkpt>
      <trkpt lat="43.70632" lon="3.82267">
        <ele>103</ele>
        <time>2021-02-20T13:18:26Z</time>
      </trkpt>
      <trkpt lat="43.70635" lon="3.82271">
        <ele>103</ele>
        <time>2021-02-20T13:18:27Z</time>
      </trkpt>
      <trkpt lat="43.70638" lon="3.82274">
        <ele>103</ele>
        <time>2021-02-20T13:18:28Z</time>
      </trkpt>
      <trkpt lat="43.70641" lon="3.82277">
        <ele>103</ele>
        <time>2021-02-20T13:18:29Z</time>
      </trkpt>
      <trkpt lat="43.70643" lon="3.8228">
        <ele>103</ele>
        <time>2021-02-20T13:18:30Z</time>
      </trkpt>
      <trkpt lat="43.70646" lon="3.82283">
        <ele>103</ele>
        <time>2021-02-20T13:18:31Z</time>
      </trkpt>
      <trkpt lat="43.70648" lon="3.82286">
        <ele>103</ele>
        <time>2021-02-20T13:18:32Z</time>
      </trkpt>
      <trkpt lat="43.7065" lon="3.82289">
        <ele>103</ele>
        <time>2021-02-20T13:18:33Z</time>
      </trkpt>
      <trkpt lat="43.70653" lon="3.82293">
        <ele>103</ele>
        <time>2021-02-20T13:18:34Z</time>
      </trkpt>
      <trkpt lat="43.70655" lon="3.82296">
        <ele>104</ele>
        <time>2021-02-20T13:18:35Z</time>
      </trkpt>
      <trkpt lat="43.70658" lon="3.82299">
        <ele>104</ele>
        <time>2021-02-20T13:18:36Z</time>
      </trkpt>
      <trkpt lat="43.70661" lon="3.82302">
        <ele>104</ele>
        <time>2021-02-20T13:18:37Z</time>
      </trkpt>
      <trkpt lat="43.70664" lon="3.82306">
        <ele>104</ele>
        <time>2021-02-20T13:18:38Z</time>
      </trkpt>
      <trkpt lat="43.70666" lon="3.82309">
        <ele>104</ele>
        <time>2021-02-20T13:18:39Z</time>
      </trkpt>
      <trkpt lat="43.70669" lon="3.82312">
        <ele>104</ele>
        <time>2021-02-20T13:18:40Z</time>
      </trkpt>
      <trkpt lat="43.70671" lon="3.82315">
        <ele>104</ele>
        <time>2021-02-20T13:18:41Z</time>
      </trkpt>
      <trkpt lat="43.70674" lon="3.82317">
        <ele>104</ele>
        <time>2021-02-20T13:18:42Z</time>
      </trkpt>
      <trkpt lat="43.70676" lon="3.8232">
        <ele>104</ele>
        <time>2021-02-20T13:18:43Z</time>
      </trkpt>
      <trkpt lat="43.70679" lon="3.82323">
        <ele>104</ele>
        <time>2021-02-20T13:18:44Z</time>
      </trkpt>
      <trkpt lat="43.70682" lon="3.82325">
        <ele>105</ele>
        <time>2021-02-20T13:18:45Z</time>
      </trkpt>
      <trkpt lat="43.70685" lon="3.82328">
        <ele>105</ele>
        <time>2021-02-20T13:18:46Z</time>
      </trkpt>
      <trkpt lat="43.70688" lon="3.82331">
        <ele>105</ele>
        <time>2021-02-20T13:18:47Z</time>
      </trkpt>
      <trkpt lat="43.70691" lon="3.82333">
        <ele>105</ele>
        <time>2021-02-20T13:18:48Z</time>
      </trkpt>
      <trkpt lat="43.70694" lon="3.82337">
        <ele>105</ele>
        <time>2021-02-20T13:18:49Z</time>
      </trkpt>
      <trkpt lat="43.70698" lon="3.8234">
        <ele>105</ele>
        <time>2021-02-20T13:18:50Z</time>
      </trkpt>
      <trkpt lat="43.70701" lon="3.82343">
        <ele>105</ele>
        <time>2021-02-20T13:18:51Z</time>
      </trkpt>
      <trkpt lat="43.70703" lon="3.82347">
        <ele>105</ele>
        <time>2021-02-20T13:18:52Z</time>
      </trkpt>
      <trkpt lat="43.70705" lon="3.82352">
        <ele>105</ele>
        <time>2021-02-20T13:18:53Z</time>
      </trkpt>
      <trkpt lat="43.70707" lon="3.82356">
        <ele>105</ele>
        <time>2021-02-20T13:18:54Z</time>
      </trkpt>
      <trkpt lat="43.70708" lon="3.82359">
        <ele>104</ele>
        <time>2021-02-20T13:18:55Z</time>
      </trkpt>
      <trkpt lat="43.70709" lon="3.82363">
        <ele>104</ele>
        <time>2021-02-20T13:18:56Z</time>
      </trkpt>
      <trkpt lat="43.7071" lon="3.82367">
        <ele>104</ele>
        <time>2021-02-20T13:18:57Z</time>
      </trkpt>
      <trkpt lat="43.7071" lon="3.82371">
        <ele>104</ele>
        <time>2021-02-20T13:18:58Z</time>
      </trkpt>
      <trkpt lat="43.7071" lon="3.82375">
        <ele>104</ele>
        <time>2021-02-20T13:18:59Z</time>
      </trkpt>
      <trkpt lat="43.7071" lon="3.82379">
        <ele>104</ele>
        <time>2021-02-20T13:19:00Z</time>
      </trkpt>
      <trkpt lat="43.7071" lon="3.82384">
        <ele>104</ele>
        <time>2021-02-20T13:19:01Z</time>
      </trkpt>
      <trkpt lat="43.70709" lon="3.82388">
        <ele>104</ele>
        <time>2021-02-20T13:19:02Z</time>
      </trkpt>
      <trkpt lat="43.70709" lon="3.82393">
        <ele>104</ele>
        <time>2021-02-20T13:19:03Z</time>
      </trkpt>
      <trkpt lat="43.70708" lon="3.82398">
        <ele>104</ele>
        <time>2021-02-20T13:19:04Z</time>
      </trkpt>
      <trkpt lat="43.70707" lon="3.82402">
        <ele>103</ele>
        <time>2021-02-20T13:19:05Z</time>
      </trkpt>
      <trkpt lat="43.70705" lon="3.82406">
        <ele>103</ele>
        <time>2021-02-20T13:19:06Z</time>
      </trkpt>
      <trkpt lat="43.70704" lon="3.8241">
        <ele>103</ele>
        <time>2021-02-20T13:19:07Z</time>
      </trkpt>
      <trkpt lat="43.70702" lon="3.82413">
        <ele>103</ele>
        <time>2021-02-20T13:19:08Z</time>
      </trkpt>
      <trkpt lat="43.70699" lon="3.82416">
        <ele>103</ele>
        <time>2021-02-20T13:19:09Z</time>
      </trkpt>
      <trkpt lat="43.70697" lon="3.82419">
        <ele>103</ele>
        <time>2021-02-20T13:19:10Z</time>
      </trkpt>
      <trkpt lat="43.70695" lon="3.82422">
        <ele>103</ele>
        <time>2021-02-20T13:19:11Z</time>
      </trkpt>
      <trkpt lat="43.70692" lon="3.82424">
        <ele>103</ele>
        <time>2021-02-20T13:19:12Z</time>
      </trkpt>
      <trkpt lat="43.70689" lon="3.82426">
        <ele>103</ele>
        <time>2021-02-20T13:19:13Z</time>
      </trkpt>
      <trkpt lat="43.70687" lon="3.82428">
        <ele>103</ele>
        <time>2021-02-20T13:19:14Z</time>
      </trkpt>
      <trkpt lat="43.70684" lon="3.82429">
        <ele>102</ele>
        <time>2021-02-20T13:19:15Z</time>
      </trkpt>
      <trkpt lat="43.70682" lon="3.82431">
        <ele>102</ele>
        <time>2021-02-20T13:19:16Z</time>
      </trkpt>
      <trkpt lat="43.70679" lon="3.82432">
        <ele>102</ele>
        <time>2021-02-20T13:19:17Z</time>
      </trkpt>
      <trkpt lat="43.70676" lon="3.82433">
        <ele>102</ele>
        <time>2021-02-20T13:19:18Z</time>
      </trkpt>
      <trkpt lat="43.70673" lon="3.82434">
        <ele>102</ele>
        <time>2021-02-20T13:19:19Z</time>
      </trkpt>
      <trkpt lat="43.7067" lon="3.82436">
        <ele>102</ele>
        <time>2021-02-20T13:19:20Z</time>
      </trkpt>
      <trkpt lat="43.70668" lon="3.82438">
        <ele>102</ele>
        <time>2021-02-20T13:19:21Z</time>
      </trkpt>
      <trkpt lat="43.70665" lon="3.82439">
        <ele>102</ele>
        <time>2021-02-20T13:19:22Z</time>
      </trkpt>
      <trkpt lat="43.70662" lon="3.82441">
        <ele>102</ele>
        <time>2021-02-20T13:19:23Z</time>
      </trkpt>
      <trkpt lat="43.7066" lon="3.82444">
        <ele>102</ele>
        <time>2021-02-20T13:19:24Z</time>
      </trkpt>
      <trkpt lat="43.70657" lon="3.82446">
        <ele>102</ele>
        <time>2021-02-20T13:19:25Z</time>
      </trkpt>
      <trkpt lat="43.70655" lon="3.82449">
        <ele>102</ele>
        <time>2021-02-20T13:19:26Z</time>
      </trkpt>
      <trkpt lat="43.70653" lon="3.82452">
        <ele>102</ele>
        <time>2021-02-20T13:19:27Z</time>
      </trkpt>
      <trkpt lat="43.70651" lon="3.82456">
        <ele>102</ele>
        <time>2021-02-20T13:19:28Z</time>
      </trkpt>
      <trkpt lat="43.7065" lon="3.8246">
        <ele>102</ele>
        <time>2021-02-20T13:19:29Z</time>
      </trkpt>
      <trkpt lat="43.70648" lon="3.82464">
        <ele>102</ele>
        <time>2021-02-20T13:19:30Z</time>
      </trkpt>
      <trkpt lat="43.70647" lon="3.82468">
        <ele>102</ele>
        <time>2021-02-20T13:19:31Z</time>
      </trkpt>
      <trkpt lat="43.70646" lon="3.82472">
        <ele>102</ele>
        <time>2021-02-20T13:19:32Z</time>
      </trkpt>
      <trkpt lat="43.70645" lon="3.82477">
        <ele>102</ele>
        <time>2021-02-20T13:19:33Z</time>
      </trkpt>
      <trkpt lat="43.70644" lon="3.82481">
        <ele>102</ele>
        <time>2021-02-20T13:19:34Z</time>
      </trkpt>
      <trkpt lat="43.70643" lon="3.82485">
        <ele>103</ele>
        <time>2021-02-20T13:19:35Z</time>
      </trkpt>
      <trkpt lat="43.70642" lon="3.82489">
        <ele>103</ele>
        <time>2021-02-20T13:19:36Z</time>
      </trkpt>
      <trkpt lat="43.70642" lon="3.82493">
        <ele>103</ele>
        <time>2021-02-20T13:19:37Z</time>
      </trkpt>
      <trkpt lat="43.70642" lon="3.82497">
        <ele>103</ele>
        <time>2021-02-20T13:19:38Z</time>
      </trkpt>
      <trkpt lat="43.70641" lon="3.82501">
        <ele>103</ele>
        <time>2021-02-20T13:19:39Z</time>
      </trkpt>
      <trkpt lat="43.70642" lon="3.82505">
        <ele>103</ele>
        <time>2021-02-20T13:19:40Z</time>
      </trkpt>
      <trkpt lat="43.70642" lon="3.82509">
        <ele>103</ele>
        <time>2021-02-20T13:19:41Z</time>
      </trkpt>
      <trkpt lat="43.70642" lon="3.82513">
        <ele>103</ele>
        <time>2021-02-20T13:19:42Z</time>
      </trkpt>
      <trkpt lat="43.70642" lon="3.82517">
        <ele>103</ele>
        <time>2021-02-20T13:19:43Z</time>
      </trkpt>
      <trkpt lat="43.70642" lon="3.82521">
        <ele>103</ele>
        <time>2021-02-20T13:19:44Z</time>
      </trkpt>
      <trkpt lat="43.70643" lon="3.82524">
        <ele>103</ele>
        <time>2021-02-20T13:19:45Z</time>
      </trkpt>
      <trkpt lat="43.70643" lon="3.82528">
        <ele>103</ele>
        <time>2021-02-20T13:19:46Z</time>
      </trkpt>
      <trkpt lat="43.70644" lon="3.82532">
        <ele>103</ele>
        <time>2021-02-20T13:19:47Z</time>
      </trkpt>
      <trkpt lat="43.70645" lon="3.82536">
        <ele>103</ele>
        <time>2021-02-20T13:19:48Z</time>
      </trkpt>
      <trkpt lat="43.70645" lon="3.82539">
        <ele>103</ele>
        <time>2021-02-20T13:19:49Z</time>
      </trkpt>
      <trkpt lat="43.70647" lon="3.82543">
        <ele>103</ele>
        <time>2021-02-20T13:19:50Z</time>
      </trkpt>
      <trkpt lat="43.70649" lon="3.82546">
        <ele>103</ele>
        <time>2021-02-20T13:19:51Z</time>
      </trkpt>
      <trkpt lat="43.7065" lon="3.8255">
        <ele>103</ele>
        <time>2021-02-20T13:19:52Z</time>
      </trkpt>
      <trkpt lat="43.70652" lon="3.82554">
        <ele>103</ele>
        <time>2021-02-20T13:19:53Z</time>
      </trkpt>
      <trkpt lat="43.70653" lon="3.82558">
        <ele>103</ele>
        <time>2021-02-20T13:19:54Z</time>
      </trkpt>
      <trkpt lat="43.70654" lon="3.8256">
        <ele>104</ele>
        <time>2021-02-20T13:19:55Z</time>
      </trkpt>
      <trkpt lat="43.70655" lon="3.82564">
        <ele>104</ele>
        <time>2021-02-20T13:19:57Z</time>
      </trkpt>
      <trkpt lat="43.70657" lon="3.82568">
        <ele>104</ele>
        <time>2021-02-20T13:19:59Z</time>
      </trkpt>
      <trkpt lat="43.70658" lon="3.82571">
        <ele>104</ele>
        <time>2021-02-20T13:20:00Z</time>
      </trkpt>
      <trkpt lat="43.7066" lon="3.82574">
        <ele>104</ele>
        <time>2021-02-20T13:20:01Z</time>
      </trkpt>
      <trkpt lat="43.70661" lon="3.82577">
        <ele>104</ele>
        <time>2021-02-20T13:20:02Z</time>
      </trkpt>
      <trkpt lat="43.70662" lon="3.8258">
        <ele>104</ele>
        <time>2021-02-20T13:20:03Z</time>
      </trkpt>
      <trkpt lat="43.70663" lon="3.82583">
        <ele>104</ele>
        <time>2021-02-20T13:20:04Z</time>
      </trkpt>
      <trkpt lat="43.70665" lon="3.82586">
        <ele>104</ele>
        <time>2021-02-20T13:20:05Z</time>
      </trkpt>
      <trkpt lat="43.70666" lon="3.8259">
        <ele>104</ele>
        <time>2021-02-20T13:20:06Z</time>
      </trkpt>
      <trkpt lat="43.70667" lon="3.82593">
        <ele>104</ele>
        <time>2021-02-20T13:20:07Z</time>
      </trkpt>
      <trkpt lat="43.70669" lon="3.82596">
        <ele>104</ele>
        <time>2021-02-20T13:20:08Z</time>
      </trkpt>
      <trkpt lat="43.7067" lon="3.826">
        <ele>104</ele>
        <time>2021-02-20T13:20:09Z</time>
      </trkpt>
      <trkpt lat="43.70671" lon="3.82603">
        <ele>104</ele>
        <time>2021-02-20T13:20:10Z</time>
      </trkpt>
      <trkpt lat="43.70673" lon="3.82606">
        <ele>104</ele>
        <time>2021-02-20T13:20:11Z</time>
      </trkpt>
      <trkpt lat="43.70674" lon="3.8261">
        <ele>104</ele>
        <time>2021-02-20T13:20:12Z</time>
      </trkpt>
      <trkpt lat="43.70676" lon="3.82613">
        <ele>104</ele>
        <time>2021-02-20T13:20:13Z</time>
      </trkpt>
      <trkpt lat="43.70677" lon="3.82617">
        <ele>104</ele>
        <time>2021-02-20T13:20:14Z</time>
      </trkpt>
      <trkpt lat="43.70679" lon="3.8262">
        <ele>105</ele>
        <time>2021-02-20T13:20:15Z</time>
      </trkpt>
      <trkpt lat="43.7068" lon="3.82623">
        <ele>105</ele>
        <time>2021-02-20T13:20:16Z</time>
      </trkpt>
      <trkpt lat="43.70682" lon="3.82627">
        <ele>105</ele>
        <time>2021-02-20T13:20:17Z</time>
      </trkpt>
      <trkpt lat="43.70683" lon="3.8263">
        <ele>105</ele>
        <time>2021-02-20T13:20:18Z</time>
      </trkpt>
      <trkpt lat="43.70685" lon="3.82634">
        <ele>105</ele>
        <time>2021-02-20T13:20:19Z</time>
      </trkpt>
      <trkpt lat="43.70686" lon="3.82638">
        <ele>105</ele>
        <time>2021-02-20T13:20:20Z</time>
      </trkpt>
      <trkpt lat="43.70688" lon="3.82642">
        <ele>105</ele>
        <time>2021-02-20T13:20:21Z</time>
      </trkpt>
      <trkpt lat="43.70689" lon="3.82645">
        <ele>105</ele>
        <time>2021-02-20T13:20:22Z</time>
      </trkpt>
      <trkpt lat="43.70691" lon="3.82649">
        <ele>105</ele>
        <time>2021-02-20T13:20:23Z</time>
      </trkpt>
      <trkpt lat="43.70693" lon="3.82653">
        <ele>105</ele>
        <time>2021-02-20T13:20:24Z</time>
      </trkpt>
      <trkpt lat="43.70694" lon="3.82657">
        <ele>106</ele>
        <time>2021-02-20T13:20:25Z</time>
      </trkpt>
      <trkpt lat="43.70696" lon="3.82661">
        <ele>106</ele>
        <time>2021-02-20T13:20:26Z</time>
      </trkpt>
      <trkpt lat="43.70697" lon="3.82665">
        <ele>106</ele>
        <time>2021-02-20T13:20:27Z</time>
      </trkpt>
      <trkpt lat="43.70699" lon="3.82669">
        <ele>106</ele>
        <time>2021-02-20T13:20:28Z</time>
      </trkpt>
      <trkpt lat="43.70701" lon="3.82673">
        <ele>106</ele>
        <time>2021-02-20T13:20:29Z</time>
      </trkpt>
      <trkpt lat="43.70702" lon="3.82677">
        <ele>106</ele>
        <time>2021-02-20T13:20:30Z</time>
      </trkpt>
      <trkpt lat="43.70704" lon="3.82682">
        <ele>106</ele>
        <time>2021-02-20T13:20:31Z</time>
      </trkpt>
      <trkpt lat="43.70706" lon="3.82686">
        <ele>106</ele>
        <time>2021-02-20T13:20:32Z</time>
      </trkpt>
      <trkpt lat="43.70707" lon="3.8269">
        <ele>106</ele>
        <time>2021-02-20T13:20:33Z</time>
      </trkpt>
      <trkpt lat="43.70709" lon="3.82694">
        <ele>106</ele>
        <time>2021-02-20T13:20:34Z</time>
      </trkpt>
      <trkpt lat="43.7071" lon="3.82698">
        <ele>106</ele>
        <time>2021-02-20T13:20:35Z</time>
      </trkpt>
      <trkpt lat="43.70712" lon="3.82701">
        <ele>106</ele>
        <time>2021-02-20T13:20:36Z</time>
      </trkpt>
      <trkpt lat="43.70713" lon="3.82704">
        <ele>106</ele>
        <time>2021-02-20T13:20:37Z</time>
      </trkpt>
      <trkpt lat="43.70714" lon="3.82707">
        <ele>106</ele>
        <time>2021-02-20T13:20:38Z</time>
      </trkpt>
      <trkpt lat="43.70715" lon="3.8271">
        <ele>106</ele>
        <time>2021-02-20T13:20:39Z</time>
      </trkpt>
      <trkpt lat="43.70716" lon="3.82714">
        <ele>106</ele>
        <time>2021-02-20T13:20:40Z</time>
      </trkpt>
      <trkpt lat="43.70718" lon="3.82718">
        <ele>106</ele>
        <time>2021-02-20T13:20:41Z</time>
      </trkpt>
      <trkpt lat="43.70719" lon="3.82722">
        <ele>106</ele>
        <time>2021-02-20T13:20:42Z</time>
      </trkpt>
      <trkpt lat="43.7072" lon="3.82727">
        <ele>106</ele>
        <time>2021-02-20T13:20:43Z</time>
      </trkpt>
      <trkpt lat="43.70722" lon="3.82731">
        <ele>106</ele>
        <time>2021-02-20T13:20:44Z</time>
      </trkpt>
      <trkpt lat="43.70723" lon="3.82736">
        <ele>108</ele>
        <time>2021-02-20T13:20:45Z</time>
      </trkpt>
      <trkpt lat="43.70725" lon="3.8274">
        <ele>108</ele>
        <time>2021-02-20T13:20:46Z</time>
      </trkpt>
      <trkpt lat="43.70726" lon="3.82745">
        <ele>108</ele>
        <time>2021-02-20T13:20:47Z</time>
      </trkpt>
      <trkpt lat="43.70727" lon="3.8275">
        <ele>108</ele>
        <time>2021-02-20T13:20:48Z</time>
      </trkpt>
      <trkpt lat="43.70729" lon="3.82755">
        <ele>108</ele>
        <time>2021-02-20T13:20:49Z</time>
      </trkpt>
      <trkpt lat="43.7073" lon="3.8276">
        <ele>108</ele>
        <time>2021-02-20T13:20:50Z</time>
      </trkpt>
      <trkpt lat="43.70731" lon="3.82764">
        <ele>108</ele>
        <time>2021-02-20T13:20:51Z</time>
      </trkpt>
      <trkpt lat="43.70733" lon="3.82769">
        <ele>108</ele>
        <time>2021-02-20T13:20:52Z</time>
      </trkpt>
      <trkpt lat="43.70734" lon="3.82774">
        <ele>108</ele>
        <time>2021-02-20T13:20:53Z</time>
      </trkpt>
      <trkpt lat="43.70735" lon="3.82779">
        <ele>108</ele>
        <time>2021-02-20T13:20:54Z</time>
      </trkpt>
      <trkpt lat="43.70736" lon="3.82783">
        <ele>109</ele>
        <time>2021-02-20T13:20:55Z</time>
      </trkpt>
      <trkpt lat="43.70737" lon="3.82788">
        <ele>109</ele>
        <time>2021-02-20T13:20:56Z</time>
      </trkpt>
      <trkpt lat="43.70738" lon="3.82793">
        <ele>109</ele>
        <time>2021-02-20T13:20:57Z</time>
      </trkpt>
      <trkpt lat="43.70739" lon="3.82797">
        <ele>109</ele>
        <time>2021-02-20T13:20:58Z</time>
      </trkpt>
      <trkpt lat="43.70739" lon="3.82799">
        <ele>109</ele>
        <time>2021-02-20T13:20:59Z</time>
      </trkpt>
      <trkpt lat="43.7074" lon="3.82803">
        <ele>109</ele>
        <time>2021-02-20T13:21:01Z</time>
      </trkpt>
      <trkpt lat="43.70739" lon="3.82807">
        <ele>110</ele>
        <time>2021-02-20T13:21:05Z</time>
      </trkpt>
      <trkpt lat="43.70739" lon="3.8281">
        <ele>110</ele>
        <time>2021-02-20T13:21:06Z</time>
      </trkpt>
      <trkpt lat="43.7074" lon="3.82813">
        <ele>110</ele>
        <time>2021-02-20T13:21:07Z</time>
      </trkpt>
      <trkpt lat="43.7074" lon="3.82817">
        <ele>110</ele>
        <time>2021-02-20T13:21:08Z</time>
      </trkpt>
      <trkpt lat="43.70741" lon="3.82821">
        <ele>110</ele>
        <time>2021-02-20T13:21:09Z</time>
      </trkpt>
      <trkpt lat="43.70742" lon="3.82825">
        <ele>110</ele>
        <time>2021-02-20T13:21:10Z</time>
      </trkpt>
      <trkpt lat="43.70743" lon="3.82829">
        <ele>110</ele>
        <time>2021-02-20T13:21:11Z</time>
      </trkpt>
      <trkpt lat="43.70744" lon="3.82834">
        <ele>110</ele>
        <time>2021-02-20T13:21:12Z</time>
      </trkpt>
      <trkpt lat="43.70745" lon="3.82838">
        <ele>110</ele>
        <time>2021-02-20T13:21:13Z</time>
      </trkpt>
      <trkpt lat="43.70746" lon="3.82842">
        <ele>110</ele>
        <time>2021-02-20T13:21:14Z</time>
      </trkpt>
      <trkpt lat="43.70746" lon="3.82846">
        <ele>111</ele>
        <time>2021-02-20T13:21:15Z</time>
      </trkpt>
      <trkpt lat="43.70747" lon="3.82851">
        <ele>111</ele>
        <time>2021-02-20T13:21:16Z</time>
      </trkpt>
      <trkpt lat="43.70748" lon="3.82855">
        <ele>111</ele>
        <time>2021-02-20T13:21:17Z</time>
      </trkpt>
      <trkpt lat="43.70748" lon="3.82859">
        <ele>111</ele>
        <time>2021-02-20T13:21:18Z</time>
      </trkpt>
      <trkpt lat="43.70748" lon="3.82863">
        <ele>111</ele>
        <time>2021-02-20T13:21:19Z</time>
      </trkpt>
      <trkpt lat="43.70749" lon="3.82867">
        <ele>111</ele>
        <time>2021-02-20T13:21:20Z</time>
      </trkpt>
      <trkpt lat="43.7075" lon="3.82871">
        <ele>111</ele>
        <time>2021-02-20T13:21:21Z</time>
      </trkpt>
      <trkpt lat="43.7075" lon="3.82875">
        <ele>111</ele>
        <time>2021-02-20T13:21:22Z</time>
      </trkpt>
      <trkpt lat="43.7075" lon="3.82878">
        <ele>111</ele>
        <time>2021-02-20T13:21:23Z</time>
      </trkpt>
      <trkpt lat="43.70751" lon="3.82881">
        <ele>111</ele>
        <time>2021-02-20T13:21:24Z</time>
      </trkpt>
      <trkpt lat="43.70751" lon="3.82883">
        <ele>112</ele>
        <time>2021-02-20T13:21:25Z</time>
      </trkpt>
      <trkpt lat="43.70752" lon="3.82888">
        <ele>112</ele>
        <time>2021-02-20T13:21:27Z</time>
      </trkpt>
      <trkpt lat="43.70752" lon="3.82891">
        <ele>112</ele>
        <time>2021-02-20T13:21:29Z</time>
      </trkpt>
      <trkpt lat="43.70753" lon="3.82896">
        <ele>112</ele>
        <time>2021-02-20T13:21:31Z</time>
      </trkpt>
      <trkpt lat="43.70753" lon="3.82899">
        <ele>112</ele>
        <time>2021-02-20T13:21:32Z</time>
      </trkpt>
      <trkpt lat="43.70753" lon="3.82902">
        <ele>112</ele>
        <time>2021-02-20T13:21:33Z</time>
      </trkpt>
      <trkpt lat="43.70753" lon="3.82905">
        <ele>112</ele>
        <time>2021-02-20T13:21:34Z</time>
      </trkpt>
      <trkpt lat="43.70753" lon="3.82909">
        <ele>112</ele>
        <time>2021-02-20T13:21:35Z</time>
      </trkpt>
      <trkpt lat="43.70753" lon="3.82912">
        <ele>112</ele>
        <time>2021-02-20T13:21:36Z</time>
      </trkpt>
      <trkpt lat="43.70753" lon="3.82914">
        <ele>112</ele>
        <time>2021-02-20T13:21:37Z</time>
      </trkpt>
      <trkpt lat="43.70753" lon="3.82917">
        <ele>112</ele>
        <time>2021-02-20T13:21:38Z</time>
      </trkpt>
      <trkpt lat="43.70755" lon="3.8292">
        <ele>112</ele>
        <time>2021-02-20T13:21:39Z</time>
      </trkpt>
      <trkpt lat="43.70758" lon="3.82921">
        <ele>112</ele>
        <time>2021-02-20T13:21:40Z</time>
      </trkpt>
      <trkpt lat="43.7076" lon="3.82923">
        <ele>112</ele>
        <time>2021-02-20T13:21:41Z</time>
      </trkpt>
      <trkpt lat="43.70763" lon="3.82925">
        <ele>112</ele>
        <time>2021-02-20T13:21:42Z</time>
      </trkpt>
      <trkpt lat="43.70765" lon="3.82926">
        <ele>112</ele>
        <time>2021-02-20T13:21:43Z</time>
      </trkpt>
      <trkpt lat="43.70766" lon="3.82927">
        <ele>112</ele>
        <time>2021-02-20T13:21:44Z</time>
      </trkpt>
      <trkpt lat="43.70769" lon="3.82928">
        <ele>113</ele>
        <time>2021-02-20T13:21:45Z</time>
      </trkpt>
      <trkpt lat="43.70771" lon="3.82929">
        <ele>113</ele>
        <time>2021-02-20T13:21:46Z</time>
      </trkpt>
      <trkpt lat="43.70774" lon="3.8293">
        <ele>113</ele>
        <time>2021-02-20T13:21:47Z</time>
      </trkpt>
      <trkpt lat="43.70777" lon="3.82929">
        <ele>113</ele>
        <time>2021-02-20T13:21:48Z</time>
      </trkpt>
      <trkpt lat="43.7078" lon="3.8293">
        <ele>113</ele>
        <time>2021-02-20T13:21:49Z</time>
      </trkpt>
      <trkpt lat="43.70783" lon="3.8293">
        <ele>113</ele>
        <time>2021-02-20T13:21:50Z</time>
      </trkpt>
      <trkpt lat="43.70786" lon="3.82929">
        <ele>113</ele>
        <time>2021-02-20T13:21:51Z</time>
      </trkpt>
      <trkpt lat="43.70788" lon="3.8293">
        <ele>113</ele>
        <time>2021-02-20T13:21:52Z</time>
      </trkpt>
      <trkpt lat="43.7079" lon="3.82932">
        <ele>113</ele>
        <time>2021-02-20T13:21:53Z</time>
      </trkpt>
      <trkpt lat="43.70791" lon="3.82936">
        <ele>113</ele>
        <time>2021-02-20T13:21:54Z</time>
      </trkpt>
      <trkpt lat="43.70793" lon="3.82939">
        <ele>113</ele>
        <time>2021-02-20T13:21:55Z</time>
      </trkpt>
      <trkpt lat="43.70796" lon="3.82942">
        <ele>113</ele>
        <time>2021-02-20T13:21:56Z</time>
      </trkpt>
      <trkpt lat="43.70798" lon="3.82945">
        <ele>113</ele>
        <time>2021-02-20T13:21:57Z</time>
      </trkpt>
      <trkpt lat="43.708" lon="3.82948">
        <ele>113</ele>
        <time>2021-02-20T13:21:58Z</time>
      </trkpt>
      <trkpt lat="43.70803" lon="3.82952">
        <ele>113</ele>
        <time>2021-02-20T13:21:59Z</time>
      </trkpt>
      <trkpt lat="43.70805" lon="3.82956">
        <ele>113</ele>
        <time>2021-02-20T13:22:00Z</time>
      </trkpt>
      <trkpt lat="43.70807" lon="3.8296">
        <ele>113</ele>
        <time>2021-02-20T13:22:01Z</time>
      </trkpt>
      <trkpt lat="43.7081" lon="3.82962">
        <ele>113</ele>
        <time>2021-02-20T13:22:02Z</time>
      </trkpt>
      <trkpt lat="43.70812" lon="3.82963">
        <ele>113</ele>
        <time>2021-02-20T13:22:03Z</time>
      </trkpt>
      <trkpt lat="43.70814" lon="3.82964">
        <ele>113</ele>
        <time>2021-02-20T13:22:04Z</time>
      </trkpt>
      <trkpt lat="43.70816" lon="3.82965">
        <ele>113</ele>
        <time>2021-02-20T13:22:05Z</time>
      </trkpt>
      <trkpt lat="43.70818" lon="3.82965">
        <ele>113</ele>
        <time>2021-02-20T13:22:06Z</time>
      </trkpt>
      <trkpt lat="43.70821" lon="3.82966">
        <ele>113</ele>
        <time>2021-02-20T13:22:07Z</time>
      </trkpt>
      <trkpt lat="43.70823" lon="3.82967">
        <ele>113</ele>
        <time>2021-02-20T13:22:08Z</time>
      </trkpt>
      <trkpt lat="43.70825" lon="3.82969">
        <ele>113</ele>
        <time>2021-02-20T13:22:09Z</time>
      </trkpt>
      <trkpt lat="43.70827" lon="3.8297">
        <ele>113</ele>
        <time>2021-02-20T13:22:10Z</time>
      </trkpt>
      <trkpt lat="43.7083" lon="3.82972">
        <ele>113</ele>
        <time>2021-02-20T13:22:11Z</time>
      </trkpt>
      <trkpt lat="43.70832" lon="3.82973">
        <ele>113</ele>
        <time>2021-02-20T13:22:12Z</time>
      </trkpt>
      <trkpt lat="43.70834" lon="3.82975">
        <ele>113</ele>
        <time>2021-02-20T13:22:13Z</time>
      </trkpt>
      <trkpt lat="43.70836" lon="3.82977">
        <ele>113</ele>
        <time>2021-02-20T13:22:14Z</time>
      </trkpt>
      <trkpt lat="43.70839" lon="3.82978">
        <ele>115</ele>
        <time>2021-02-20T13:22:15Z</time>
      </trkpt>
      <trkpt lat="43.70842" lon="3.8298">
        <ele>115</ele>
        <time>2021-02-20T13:22:16Z</time>
      </trkpt>
      <trkpt lat="43.70845" lon="3.82981">
        <ele>115</ele>
        <time>2021-02-20T13:22:17Z</time>
      </trkpt>
      <trkpt lat="43.70848" lon="3.82984">
        <ele>115</ele>
        <time>2021-02-20T13:22:18Z</time>
      </trkpt>
      <trkpt lat="43.70851" lon="3.82987">
        <ele>115</ele>
        <time>2021-02-20T13:22:19Z</time>
      </trkpt>
      <trkpt lat="43.70854" lon="3.82989">
        <ele>115</ele>
        <time>2021-02-20T13:22:20Z</time>
      </trkpt>
      <trkpt lat="43.70857" lon="3.82991">
        <ele>115</ele>
        <time>2021-02-20T13:22:21Z</time>
      </trkpt>
      <trkpt lat="43.7086" lon="3.82993">
        <ele>115</ele>
        <time>2021-02-20T13:22:22Z</time>
      </trkpt>
      <trkpt lat="43.70864" lon="3.82995">
        <ele>115</ele>
        <time>2021-02-20T13:22:23Z</time>
      </trkpt>
      <trkpt lat="43.70868" lon="3.82997">
        <ele>115</ele>
        <time>2021-02-20T13:22:24Z</time>
      </trkpt>
      <trkpt lat="43.70871" lon="3.82999">
        <ele>115</ele>
        <time>2021-02-20T13:22:25Z</time>
      </trkpt>
      <trkpt lat="43.70874" lon="3.83">
        <ele>115</ele>
        <time>2021-02-20T13:22:26Z</time>
      </trkpt>
      <trkpt lat="43.70876" lon="3.83002">
        <ele>115</ele>
        <time>2021-02-20T13:22:27Z</time>
      </trkpt>
      <trkpt lat="43.70878" lon="3.83004">
        <ele>115</ele>
        <time>2021-02-20T13:22:28Z</time>
      </trkpt>
      <trkpt lat="43.7088" lon="3.83006">
        <ele>115</ele>
        <time>2021-02-20T13:22:29Z</time>
      </trkpt>
      <trkpt lat="43.70882" lon="3.83008">
        <ele>115</ele>
        <time>2021-02-20T13:22:30Z</time>
      </trkpt>
      <trkpt lat="43.70885" lon="3.8301">
        <ele>115</ele>
        <time>2021-02-20T13:22:31Z</time>
      </trkpt>
      <trkpt lat="43.70888" lon="3.83011">
        <ele>115</ele>
        <time>2021-02-20T13:22:32Z</time>
      </trkpt>
      <trkpt lat="43.70891" lon="3.83013">
        <ele>115</ele>
        <time>2021-02-20T13:22:33Z</time>
      </trkpt>
      <trkpt lat="43.70894" lon="3.83014">
        <ele>115</ele>
        <time>2021-02-20T13:22:34Z</time>
      </trkpt>
      <trkpt lat="43.70897" lon="3.83016">
        <ele>116</ele>
        <time>2021-02-20T13:22:35Z</time>
      </trkpt>
      <trkpt lat="43.70901" lon="3.83018">
        <ele>116</ele>
        <time>2021-02-20T13:22:36Z</time>
      </trkpt>
      <trkpt lat="43.70904" lon="3.83019">
        <ele>116</ele>
        <time>2021-02-20T13:22:37Z</time>
      </trkpt>
      <trkpt lat="43.70908" lon="3.83021">
        <ele>116</ele>
        <time>2021-02-20T13:22:38Z</time>
      </trkpt>
      <trkpt lat="43.7091" lon="3.83022">
        <ele>116</ele>
        <time>2021-02-20T13:22:39Z</time>
      </trkpt>
      <trkpt lat="43.70913" lon="3.83023">
        <ele>116</ele>
        <time>2021-02-20T13:22:40Z</time>
      </trkpt>
      <trkpt lat="43.70916" lon="3.83025">
        <ele>116</ele>
        <time>2021-02-20T13:22:41Z</time>
      </trkpt>
      <trkpt lat="43.70919" lon="3.83026">
        <ele>116</ele>
        <time>2021-02-20T13:22:42Z</time>
      </trkpt>
      <trkpt lat="43.70922" lon="3.83027">
        <ele>116</ele>
        <time>2021-02-20T13:22:43Z</time>
      </trkpt>
      <trkpt lat="43.70925" lon="3.83028">
        <ele>116</ele>
        <time>2021-02-20T13:22:44Z</time>
      </trkpt>
      <trkpt lat="43.70927" lon="3.8303">
        <ele>117</ele>
        <time>2021-02-20T13:22:45Z</time>
      </trkpt>
      <trkpt lat="43.7093" lon="3.83031">
        <ele>117</ele>
        <time>2021-02-20T13:22:46Z</time>
      </trkpt>
      <trkpt lat="43.70934" lon="3.83032">
        <ele>117</ele>
        <time>2021-02-20T13:22:47Z</time>
      </trkpt>
      <trkpt lat="43.70936" lon="3.83033">
        <ele>117</ele>
        <time>2021-02-20T13:22:48Z</time>
      </trkpt>
      <trkpt lat="43.70939" lon="3.83034">
        <ele>117</ele>
        <time>2021-02-20T13:22:49Z</time>
      </trkpt>
      <trkpt lat="43.70941" lon="3.83035">
        <ele>117</ele>
        <time>2021-02-20T13:22:50Z</time>
      </trkpt>
      <trkpt lat="43.70943" lon="3.83037">
        <ele>117</ele>
        <time>2021-02-20T13:22:51Z</time>
      </trkpt>
      <trkpt lat="43.70946" lon="3.83039">
        <ele>117</ele>
        <time>2021-02-20T13:22:52Z</time>
      </trkpt>
      <trkpt lat="43.70949" lon="3.83042">
        <ele>117</ele>
        <time>2021-02-20T13:22:54Z</time>
      </trkpt>
      <trkpt lat="43.70951" lon="3.83043">
        <ele>118</ele>
        <time>2021-02-20T13:22:55Z</time>
      </trkpt>
      <trkpt lat="43.70953" lon="3.83043">
        <ele>118</ele>
        <time>2021-02-20T13:22:56Z</time>
      </trkpt>
      <trkpt lat="43.70954" lon="3.83045">
        <ele>118</ele>
        <time>2021-02-20T13:22:57Z</time>
      </trkpt>
      <trkpt lat="43.70956" lon="3.83046">
        <ele>118</ele>
        <time>2021-02-20T13:22:58Z</time>
      </trkpt>
      <trkpt lat="43.70958" lon="3.83047">
        <ele>118</ele>
        <time>2021-02-20T13:22:59Z</time>
      </trkpt>
      <trkpt lat="43.7096" lon="3.83048">
        <ele>118</ele>
        <time>2021-02-20T13:23:00Z</time>
      </trkpt>
      <trkpt lat="43.70963" lon="3.83049">
        <ele>118</ele>
        <time>2021-02-20T13:23:01Z</time>
      </trkpt>
      <trkpt lat="43.70965" lon="3.83051">
        <ele>118</ele>
        <time>2021-02-20T13:23:02Z</time>
      </trkpt>
      <trkpt lat="43.70967" lon="3.83052">
        <ele>118</ele>
        <time>2021-02-20T13:23:03Z</time>
      </trkpt>
      <trkpt lat="43.70969" lon="3.83054">
        <ele>118</ele>
        <time>2021-02-20T13:23:04Z</time>
      </trkpt>
      <trkpt lat="43.70971" lon="3.83056">
        <ele>118</ele>
        <time>2021-02-20T13:23:05Z</time>
      </trkpt>
      <trkpt lat="43.70973" lon="3.83058">
        <ele>118</ele>
        <time>2021-02-20T13:23:06Z</time>
      </trkpt>
      <trkpt lat="43.70975" lon="3.83059">
        <ele>118</ele>
        <time>2021-02-20T13:23:07Z</time>
      </trkpt>
      <trkpt lat="43.70977" lon="3.8306">
        <ele>118</ele>
        <time>2021-02-20T13:23:08Z</time>
      </trkpt>
      <trkpt lat="43.7098" lon="3.83062">
        <ele>118</ele>
        <time>2021-02-20T13:23:09Z</time>
      </trkpt>
      <trkpt lat="43.70983" lon="3.83064">
        <ele>118</ele>
        <time>2021-02-20T13:23:10Z</time>
      </trkpt>
      <trkpt lat="43.70986" lon="3.83066">
        <ele>118</ele>
        <time>2021-02-20T13:23:11Z</time>
      </trkpt>
      <trkpt lat="43.70989" lon="3.83069">
        <ele>118</ele>
        <time>2021-02-20T13:23:12Z</time>
      </trkpt>
      <trkpt lat="43.70991" lon="3.83071">
        <ele>118</ele>
        <time>2021-02-20T13:23:13Z</time>
      </trkpt>
      <trkpt lat="43.70994" lon="3.83074">
        <ele>118</ele>
        <time>2021-02-20T13:23:14Z</time>
      </trkpt>
      <trkpt lat="43.70997" lon="3.83076">
        <ele>118</ele>
        <time>2021-02-20T13:23:15Z</time>
      </trkpt>
      <trkpt lat="43.70999" lon="3.83078">
        <ele>118</ele>
        <time>2021-02-20T13:23:16Z</time>
      </trkpt>
      <trkpt lat="43.71001" lon="3.8308">
        <ele>118</ele>
        <time>2021-02-20T13:23:17Z</time>
      </trkpt>
      <trkpt lat="43.71004" lon="3.83082">
        <ele>118</ele>
        <time>2021-02-20T13:23:18Z</time>
      </trkpt>
      <trkpt lat="43.71007" lon="3.83083">
        <ele>118</ele>
        <time>2021-02-20T13:23:19Z</time>
      </trkpt>
      <trkpt lat="43.71009" lon="3.83085">
        <ele>118</ele>
        <time>2021-02-20T13:23:20Z</time>
      </trkpt>
      <trkpt lat="43.71012" lon="3.83087">
        <ele>118</ele>
        <time>2021-02-20T13:23:21Z</time>
      </trkpt>
      <trkpt lat="43.71015" lon="3.83089">
        <ele>118</ele>
        <time>2021-02-20T13:23:22Z</time>
      </trkpt>
      <trkpt lat="43.71018" lon="3.83092">
        <ele>118</ele>
        <time>2021-02-20T13:23:23Z</time>
      </trkpt>
      <trkpt lat="43.7102" lon="3.83094">
        <ele>118</ele>
        <time>2021-02-20T13:23:24Z</time>
      </trkpt>
      <trkpt lat="43.71023" lon="3.83095">
        <ele>119</ele>
        <time>2021-02-20T13:23:25Z</time>
      </trkpt>
      <trkpt lat="43.71025" lon="3.83097">
        <ele>119</ele>
        <time>2021-02-20T13:23:26Z</time>
      </trkpt>
      <trkpt lat="43.71027" lon="3.83098">
        <ele>119</ele>
        <time>2021-02-20T13:23:27Z</time>
      </trkpt>
      <trkpt lat="43.71029" lon="3.83099">
        <ele>119</ele>
        <time>2021-02-20T13:23:28Z</time>
      </trkpt>
      <trkpt lat="43.71031" lon="3.831">
        <ele>119</ele>
        <time>2021-02-20T13:23:29Z</time>
      </trkpt>
      <trkpt lat="43.71033" lon="3.83102">
        <ele>119</ele>
        <time>2021-02-20T13:23:30Z</time>
      </trkpt>
      <trkpt lat="43.71036" lon="3.83104">
        <ele>119</ele>
        <time>2021-02-20T13:23:31Z</time>
      </trkpt>
      <trkpt lat="43.71038" lon="3.83106">
        <ele>119</ele>
        <time>2021-02-20T13:23:32Z</time>
      </trkpt>
      <trkpt lat="43.71042" lon="3.83108">
        <ele>119</ele>
        <time>2021-02-20T13:23:33Z</time>
      </trkpt>
      <trkpt lat="43.71044" lon="3.8311">
        <ele>119</ele>
        <time>2021-02-20T13:23:34Z</time>
      </trkpt>
      <trkpt lat="43.71047" lon="3.83112">
        <ele>119</ele>
        <time>2021-02-20T13:23:35Z</time>
      </trkpt>
      <trkpt lat="43.7105" lon="3.83114">
        <ele>119</ele>
        <time>2021-02-20T13:23:36Z</time>
      </trkpt>
      <trkpt lat="43.71052" lon="3.83117">
        <ele>119</ele>
        <time>2021-02-20T13:23:37Z</time>
      </trkpt>
      <trkpt lat="43.71055" lon="3.83119">
        <ele>119</ele>
        <time>2021-02-20T13:23:38Z</time>
      </trkpt>
      <trkpt lat="43.71057" lon="3.83122">
        <ele>119</ele>
        <time>2021-02-20T13:23:39Z</time>
      </trkpt>
      <trkpt lat="43.71059" lon="3.83124">
        <ele>119</ele>
        <time>2021-02-20T13:23:40Z</time>
      </trkpt>
      <trkpt lat="43.71062" lon="3.83127">
        <ele>119</ele>
        <time>2021-02-20T13:23:41Z</time>
      </trkpt>
      <trkpt lat="43.71064" lon="3.83129">
        <ele>119</ele>
        <time>2021-02-20T13:23:42Z</time>
      </trkpt>
      <trkpt lat="43.71066" lon="3.83131">
        <ele>119</ele>
        <time>2021-02-20T13:23:43Z</time>
      </trkpt>
      <trkpt lat="43.71069" lon="3.83133">
        <ele>119</ele>
        <time>2021-02-20T13:23:44Z</time>
      </trkpt>
      <trkpt lat="43.71072" lon="3.83135">
        <ele>120</ele>
        <time>2021-02-20T13:23:45Z</time>
      </trkpt>
      <trkpt lat="43.71074" lon="3.83137">
        <ele>120</ele>
        <time>2021-02-20T13:23:46Z</time>
      </trkpt>
      <trkpt lat="43.71077" lon="3.83138">
        <ele>120</ele>
        <time>2021-02-20T13:23:47Z</time>
      </trkpt>
      <trkpt lat="43.71079" lon="3.8314">
        <ele>120</ele>
        <time>2021-02-20T13:23:48Z</time>
      </trkpt>
      <trkpt lat="43.71082" lon="3.83142">
        <ele>120</ele>
        <time>2021-02-20T13:23:49Z</time>
      </trkpt>
      <trkpt lat="43.71085" lon="3.83144">
        <ele>120</ele>
        <time>2021-02-20T13:23:50Z</time>
      </trkpt>
      <trkpt lat="43.71088" lon="3.83146">
        <ele>120</ele>
        <time>2021-02-20T13:23:51Z</time>
      </trkpt>
      <trkpt lat="43.71091" lon="3.83149">
        <ele>120</ele>
        <time>2021-02-20T13:23:52Z</time>
      </trkpt>
      <trkpt lat="43.71094" lon="3.83151">
        <ele>120</ele>
        <time>2021-02-20T13:23:53Z</time>
      </trkpt>
      <trkpt lat="43.71098" lon="3.83154">
        <ele>120</ele>
        <time>2021-02-20T13:23:54Z</time>
      </trkpt>
      <trkpt lat="43.71101" lon="3.83157">
        <ele>120</ele>
        <time>2021-02-20T13:23:55Z</time>
      </trkpt>
      <trkpt lat="43.71104" lon="3.8316">
        <ele>120</ele>
        <time>2021-02-20T13:23:56Z</time>
      </trkpt>
      <trkpt lat="43.71107" lon="3.83163">
        <ele>120</ele>
        <time>2021-02-20T13:23:57Z</time>
      </trkpt>
      <trkpt lat="43.71109" lon="3.83166">
        <ele>120</ele>
        <time>2021-02-20T13:23:58Z</time>
      </trkpt>
      <trkpt lat="43.71112" lon="3.83168">
        <ele>120</ele>
        <time>2021-02-20T13:23:59Z</time>
      </trkpt>
      <trkpt lat="43.71114" lon="3.8317">
        <ele>120</ele>
        <time>2021-02-20T13:24:00Z</time>
      </trkpt>
      <trkpt lat="43.71117" lon="3.83173">
        <ele>120</ele>
        <time>2021-02-20T13:24:01Z</time>
      </trkpt>
      <trkpt lat="43.7112" lon="3.83175">
        <ele>120</ele>
        <time>2021-02-20T13:24:02Z</time>
      </trkpt>
      <trkpt lat="43.71123" lon="3.83177">
        <ele>120</ele>
        <time>2021-02-20T13:24:03Z</time>
      </trkpt>
      <trkpt lat="43.71127" lon="3.83179">
        <ele>120</ele>
        <time>2021-02-20T13:24:04Z</time>
      </trkpt>
      <trkpt lat="43.7113" lon="3.83181">
        <ele>120</ele>
        <time>2021-02-20T13:24:05Z</time>
      </trkpt>
      <trkpt lat="43.71133" lon="3.83183">
        <ele>120</ele>
        <time>2021-02-20T13:24:06Z</time>
      </trkpt>
      <trkpt lat="43.71135" lon="3.83186">
        <ele>120</ele>
        <time>2021-02-20T13:24:07Z</time>
      </trkpt>
      <trkpt lat="43.71138" lon="3.83189">
        <ele>120</ele>
        <time>2021-02-20T13:24:08Z</time>
      </trkpt>
      <trkpt lat="43.71141" lon="3.83191">
        <ele>120</ele>
        <time>2021-02-20T13:24:09Z</time>
      </trkpt>
      <trkpt lat="43.71144" lon="3.83194">
        <ele>120</ele>
        <time>2021-02-20T13:24:10Z</time>
      </trkpt>
      <trkpt lat="43.71147" lon="3.83196">
        <ele>120</ele>
        <time>2021-02-20T13:24:11Z</time>
      </trkpt>
      <trkpt lat="43.7115" lon="3.83198">
        <ele>120</ele>
        <time>2021-02-20T13:24:12Z</time>
      </trkpt>
      <trkpt lat="43.71152" lon="3.832">
        <ele>120</ele>
        <time>2021-02-20T13:24:13Z</time>
      </trkpt>
      <trkpt lat="43.71155" lon="3.83202">
        <ele>120</ele>
        <time>2021-02-20T13:24:14Z</time>
      </trkpt>
      <trkpt lat="43.71159" lon="3.83204">
        <ele>122</ele>
        <time>2021-02-20T13:24:15Z</time>
      </trkpt>
      <trkpt lat="43.71162" lon="3.83207">
        <ele>122</ele>
        <time>2021-02-20T13:24:16Z</time>
      </trkpt>
      <trkpt lat="43.71165" lon="3.83209">
        <ele>122</ele>
        <time>2021-02-20T13:24:17Z</time>
      </trkpt>
      <trkpt lat="43.71168" lon="3.83212">
        <ele>122</ele>
        <time>2021-02-20T13:24:18Z</time>
      </trkpt>
      <trkpt lat="43.71172" lon="3.83214">
        <ele>122</ele>
        <time>2021-02-20T13:24:19Z</time>
      </trkpt>
      <trkpt lat="43.71175" lon="3.83217">
        <ele>122</ele>
        <time>2021-02-20T13:24:20Z</time>
      </trkpt>
      <trkpt lat="43.71177" lon="3.8322">
        <ele>122</ele>
        <time>2021-02-20T13:24:21Z</time>
      </trkpt>
      <trkpt lat="43.71181" lon="3.83222">
        <ele>122</ele>
        <time>2021-02-20T13:24:22Z</time>
      </trkpt>
      <trkpt lat="43.71185" lon="3.83223">
        <ele>122</ele>
        <time>2021-02-20T13:24:23Z</time>
      </trkpt>
      <trkpt lat="43.71189" lon="3.83225">
        <ele>122</ele>
        <time>2021-02-20T13:24:24Z</time>
      </trkpt>
      <trkpt lat="43.71193" lon="3.83225">
        <ele>122</ele>
        <time>2021-02-20T13:24:25Z</time>
      </trkpt>
      <trkpt lat="43.71198" lon="3.83227">
        <ele>122</ele>
        <time>2021-02-20T13:24:26Z</time>
      </trkpt>
      <trkpt lat="43.71203" lon="3.83229">
        <ele>122</ele>
        <time>2021-02-20T13:24:27Z</time>
      </trkpt>
      <trkpt lat="43.71209" lon="3.83232">
        <ele>122</ele>
        <time>2021-02-20T13:24:28Z</time>
      </trkpt>
      <trkpt lat="43.71213" lon="3.83234">
        <ele>122</ele>
        <time>2021-02-20T13:24:29Z</time>
      </trkpt>
      <trkpt lat="43.71217" lon="3.83237">
        <ele>122</ele>
        <time>2021-02-20T13:24:30Z</time>
      </trkpt>
      <trkpt lat="43.7122" lon="3.8324">
        <ele>122</ele>
        <time>2021-02-20T13:24:31Z</time>
      </trkpt>
      <trkpt lat="43.71223" lon="3.83241">
        <ele>122</ele>
        <time>2021-02-20T13:24:32Z</time>
      </trkpt>
      <trkpt lat="43.71225" lon="3.83242">
        <ele>122</ele>
        <time>2021-02-20T13:24:33Z</time>
      </trkpt>
      <trkpt lat="43.71227" lon="3.83243">
        <ele>122</ele>
        <time>2021-02-20T13:24:34Z</time>
      </trkpt>
      <trkpt lat="43.7123" lon="3.83244">
        <ele>122</ele>
        <time>2021-02-20T13:24:35Z</time>
      </trkpt>
      <trkpt lat="43.71231" lon="3.83245">
        <ele>122</ele>
        <time>2021-02-20T13:24:38Z</time>
      </trkpt>
      <trkpt lat="43.71233" lon="3.83246">
        <ele>122</ele>
        <time>2021-02-20T13:24:44Z</time>
      </trkpt>
      <trkpt lat="43.71242" lon="3.83255">
        <ele>121</ele>
        <time>2021-02-20T13:25:02Z</time>
      </trkpt>
      <trkpt lat="43.71245" lon="3.83257">
        <ele>121</ele>
        <time>2021-02-20T13:25:03Z</time>
      </trkpt>
      <trkpt lat="43.71248" lon="3.83259">
        <ele>121</ele>
        <time>2021-02-20T13:25:04Z</time>
      </trkpt>
      <trkpt lat="43.71252" lon="3.8326">
        <ele>121</ele>
        <time>2021-02-20T13:25:05Z</time>
      </trkpt>
      <trkpt lat="43.71255" lon="3.83262">
        <ele>121</ele>
        <time>2021-02-20T13:25:06Z</time>
      </trkpt>
      <trkpt lat="43.71259" lon="3.83264">
        <ele>121</ele>
        <time>2021-02-20T13:25:07Z</time>
      </trkpt>
      <trkpt lat="43.71262" lon="3.83266">
        <ele>121</ele>
        <time>2021-02-20T13:25:08Z</time>
      </trkpt>
      <trkpt lat="43.71265" lon="3.83267">
        <ele>121</ele>
        <time>2021-02-20T13:25:09Z</time>
      </trkpt>
      <trkpt lat="43.71269" lon="3.83269">
        <ele>121</ele>
        <time>2021-02-20T13:25:10Z</time>
      </trkpt>
      <trkpt lat="43.71272" lon="3.8327">
        <ele>120</ele>
        <time>2021-02-20T13:25:11Z</time>
      </trkpt>
      <trkpt lat="43.71274" lon="3.83271">
        <ele>120</ele>
        <time>2021-02-20T13:25:12Z</time>
      </trkpt>
      <trkpt lat="43.71277" lon="3.83273">
        <ele>120</ele>
        <time>2021-02-20T13:25:13Z</time>
      </trkpt>
      <trkpt lat="43.71281" lon="3.83275">
        <ele>120</ele>
        <time>2021-02-20T13:25:14Z</time>
      </trkpt>
      <trkpt lat="43.71284" lon="3.83276">
        <ele>120</ele>
        <time>2021-02-20T13:25:15Z</time>
      </trkpt>
      <trkpt lat="43.71287" lon="3.83276">
        <ele>120</ele>
        <time>2021-02-20T13:25:16Z</time>
      </trkpt>
      <trkpt lat="43.7129" lon="3.83274">
        <ele>120</ele>
        <time>2021-02-20T13:25:17Z</time>
      </trkpt>
      <trkpt lat="43.71292" lon="3.83272">
        <ele>120</ele>
        <time>2021-02-20T13:25:18Z</time>
      </trkpt>
      <trkpt lat="43.71293" lon="3.8327">
        <ele>120</ele>
        <time>2021-02-20T13:25:19Z</time>
      </trkpt>
      <trkpt lat="43.71295" lon="3.83269">
        <ele>120</ele>
        <time>2021-02-20T13:25:20Z</time>
      </trkpt>
      <trkpt lat="43.71298" lon="3.83268">
        <ele>119</ele>
        <time>2021-02-20T13:25:21Z</time>
      </trkpt>
      <trkpt lat="43.71301" lon="3.83268">
        <ele>119</ele>
        <time>2021-02-20T13:25:23Z</time>
      </trkpt>
      <trkpt lat="43.71303" lon="3.83269">
        <ele>119</ele>
        <time>2021-02-20T13:25:25Z</time>
      </trkpt>
      <trkpt lat="43.71305" lon="3.83272">
        <ele>119</ele>
        <time>2021-02-20T13:25:27Z</time>
      </trkpt>
      <trkpt lat="43.71304" lon="3.83273">
        <ele>119</ele>
        <time>2021-02-20T13:25:34Z</time>
      </trkpt>
      <trkpt lat="43.71301" lon="3.83288">
        <ele>119</ele>
        <time>2021-02-20T13:26:58Z</time>
      </trkpt>
      <trkpt lat="43.713" lon="3.83293">
        <ele>119</ele>
        <time>2021-02-20T13:26:59Z</time>
      </trkpt>
      <trkpt lat="43.71299" lon="3.83297">
        <ele>119</ele>
        <time>2021-02-20T13:27:00Z</time>
      </trkpt>
      <trkpt lat="43.71297" lon="3.83301">
        <ele>119</ele>
        <time>2021-02-20T13:27:01Z</time>
      </trkpt>
      <trkpt lat="43.71296" lon="3.83304">
        <ele>119</ele>
        <time>2021-02-20T13:27:02Z</time>
      </trkpt>
      <trkpt lat="43.71295" lon="3.83307">
        <ele>119</ele>
        <time>2021-02-20T13:27:03Z</time>
      </trkpt>
      <trkpt lat="43.71294" lon="3.8331">
        <ele>119</ele>
        <time>2021-02-20T13:27:04Z</time>
      </trkpt>
      <trkpt lat="43.71294" lon="3.83312">
        <ele>119</ele>
        <time>2021-02-20T13:27:05Z</time>
      </trkpt>
      <trkpt lat="43.71293" lon="3.83315">
        <ele>119</ele>
        <time>2021-02-20T13:27:06Z</time>
      </trkpt>
      <trkpt lat="43.71292" lon="3.83317">
        <ele>121</ele>
        <time>2021-02-20T13:27:07Z</time>
      </trkpt>
      <trkpt lat="43.71291" lon="3.8332">
        <ele>121</ele>
        <time>2021-02-20T13:27:08Z</time>
      </trkpt>
      <trkpt lat="43.7129" lon="3.83322">
        <ele>121</ele>
        <time>2021-02-20T13:27:09Z</time>
      </trkpt>
      <trkpt lat="43.71288" lon="3.83324">
        <ele>121</ele>
        <time>2021-02-20T13:27:10Z</time>
      </trkpt>
      <trkpt lat="43.71288" lon="3.83327">
        <ele>121</ele>
        <time>2021-02-20T13:27:11Z</time>
      </trkpt>
      <trkpt lat="43.71287" lon="3.83329">
        <ele>121</ele>
        <time>2021-02-20T13:27:12Z</time>
      </trkpt>
      <trkpt lat="43.71286" lon="3.83333">
        <ele>121</ele>
        <time>2021-02-20T13:27:14Z</time>
      </trkpt>
      <trkpt lat="43.7128" lon="3.83337">
        <ele>124</ele>
        <time>2021-02-20T13:27:44Z</time>
      </trkpt>
      <trkpt lat="43.71278" lon="3.8334">
        <ele>124</ele>
        <time>2021-02-20T13:27:46Z</time>
      </trkpt>
      <trkpt lat="43.71277" lon="3.83345">
        <ele>124</ele>
        <time>2021-02-20T13:27:48Z</time>
      </trkpt>
      <trkpt lat="43.71277" lon="3.83349">
        <ele>124</ele>
        <time>2021-02-20T13:27:50Z</time>
      </trkpt>
      <trkpt lat="43.71278" lon="3.83354">
        <ele>124</ele>
        <time>2021-02-20T13:27:52Z</time>
      </trkpt>
      <trkpt lat="43.71278" lon="3.83357">
        <ele>125</ele>
        <time>2021-02-20T13:27:53Z</time>
      </trkpt>
      <trkpt lat="43.71279" lon="3.8336">
        <ele>125</ele>
        <time>2021-02-20T13:27:54Z</time>
      </trkpt>
      <trkpt lat="43.71279" lon="3.83364">
        <ele>125</ele>
        <time>2021-02-20T13:27:55Z</time>
      </trkpt>
      <trkpt lat="43.71279" lon="3.83367">
        <ele>125</ele>
        <time>2021-02-20T13:27:56Z</time>
      </trkpt>
      <trkpt lat="43.71279" lon="3.83371">
        <ele>125</ele>
        <time>2021-02-20T13:27:57Z</time>
      </trkpt>
      <trkpt lat="43.71279" lon="3.83374">
        <ele>125</ele>
        <time>2021-02-20T13:27:58Z</time>
      </trkpt>
      <trkpt lat="43.71278" lon="3.83377">
        <ele>125</ele>
        <time>2021-02-20T13:27:59Z</time>
      </trkpt>
      <trkpt lat="43.71278" lon="3.83381">
        <ele>125</ele>
        <time>2021-02-20T13:28:00Z</time>
      </trkpt>
      <trkpt lat="43.71277" lon="3.83384">
        <ele>125</ele>
        <time>2021-02-20T13:28:01Z</time>
      </trkpt>
      <trkpt lat="43.71277" lon="3.83386">
        <ele>125</ele>
        <time>2021-02-20T13:28:02Z</time>
      </trkpt>
      <trkpt lat="43.71276" lon="3.83389">
        <ele>126</ele>
        <time>2021-02-20T13:28:03Z</time>
      </trkpt>
      <trkpt lat="43.71275" lon="3.83392">
        <ele>126</ele>
        <time>2021-02-20T13:28:05Z</time>
      </trkpt>
      <trkpt lat="43.71272" lon="3.83394">
        <ele>126</ele>
        <time>2021-02-20T13:28:07Z</time>
      </trkpt>
      <trkpt lat="43.7127" lon="3.83395">
        <ele>126</ele>
        <time>2021-02-20T13:28:09Z</time>
      </trkpt>
      <trkpt lat="43.71267" lon="3.83395">
        <ele>126</ele>
        <time>2021-02-20T13:28:11Z</time>
      </trkpt>
      <trkpt lat="43.71265" lon="3.83397">
        <ele>126</ele>
        <time>2021-02-20T13:28:13Z</time>
      </trkpt>
      <trkpt lat="43.71263" lon="3.83398">
        <ele>126</ele>
        <time>2021-02-20T13:28:15Z</time>
      </trkpt>
      <trkpt lat="43.71261" lon="3.83395">
        <ele>126</ele>
        <time>2021-02-20T13:28:17Z</time>
      </trkpt>
      <trkpt lat="43.71262" lon="3.83393">
        <ele>126</ele>
        <time>2021-02-20T13:28:19Z</time>
      </trkpt>
      <trkpt lat="43.71263" lon="3.83391">
        <ele>127</ele>
        <time>2021-02-20T13:28:26Z</time>
      </trkpt>
      <trkpt lat="43.71265" lon="3.83394">
        <ele>127</ele>
        <time>2021-02-20T13:30:30Z</time>
      </trkpt>
      <trkpt lat="43.71265" lon="3.83391">
        <ele>127</ele>
        <time>2021-02-20T13:30:36Z</time>
      </trkpt>
      <trkpt lat="43.71265" lon="3.83394">
        <ele>129</ele>
        <time>2021-02-20T13:33:58Z</time>
      </trkpt>
      <trkpt lat="43.71265" lon="3.83394">
        <ele>129</ele>
        <time>2021-02-20T13:34:01Z</time>
      </trkpt>
      <trkpt lat="43.7126" lon="3.83389">
        <ele>129</ele>
        <time>2021-02-20T13:36:54Z</time>
      </trkpt>
      <trkpt lat="43.71261" lon="3.83392">
        <ele>129</ele>
        <time>2021-02-20T13:36:55Z</time>
      </trkpt>
      <trkpt lat="43.71262" lon="3.83394">
        <ele>129</ele>
        <time>2021-02-20T13:36:57Z</time>
      </trkpt>
      <trkpt lat="43.71264" lon="3.83396">
        <ele>129</ele>
        <time>2021-02-20T13:37:00Z</time>
      </trkpt>
      <trkpt lat="43.71264" lon="3.83395">
        <ele>128</ele>
        <time>2021-02-20T13:37:06Z</time>
      </trkpt>
      <trkpt lat="43.71259" lon="3.83396">
        <ele>129</ele>
        <time>2021-02-20T13:37:11Z</time>
      </trkpt>
      <trkpt lat="43.71261" lon="3.83397">
        <ele>129</ele>
        <time>2021-02-20T13:37:16Z</time>
      </trkpt>
      <trkpt lat="43.71263" lon="3.83397">
        <ele>129</ele>
        <time>2021-02-20T13:37:21Z</time>
      </trkpt>
      <trkpt lat="43.71262" lon="3.83397">
        <ele>129</ele>
        <time>2021-02-20T13:37:24Z</time>
      </trkpt>
      <trkpt lat="43.71273" lon="3.83397">
        <ele>129</ele>
        <time>2021-02-20T13:38:04Z</time>
      </trkpt>
      <trkpt lat="43.71274" lon="3.83395">
        <ele>129</ele>
        <time>2021-02-20T13:38:05Z</time>
      </trkpt>
      <trkpt lat="43.71275" lon="3.83393">
        <ele>129</ele>
        <time>2021-02-20T13:38:06Z</time>
      </trkpt>
      <trkpt lat="43.71276" lon="3.8339">
        <ele>129</ele>
        <time>2021-02-20T13:38:07Z</time>
      </trkpt>
      <trkpt lat="43.71277" lon="3.83387">
        <ele>129</ele>
        <time>2021-02-20T13:38:08Z</time>
      </trkpt>
      <trkpt lat="43.71278" lon="3.83384">
        <ele>129</ele>
        <time>2021-02-20T13:38:09Z</time>
      </trkpt>
      <trkpt lat="43.71279" lon="3.83381">
        <ele>129</ele>
        <time>2021-02-20T13:38:10Z</time>
      </trkpt>
      <trkpt lat="43.7128" lon="3.83377">
        <ele>129</ele>
        <time>2021-02-20T13:38:11Z</time>
      </trkpt>
      <trkpt lat="43.71281" lon="3.83374">
        <ele>129</ele>
        <time>2021-02-20T13:38:12Z</time>
      </trkpt>
      <trkpt lat="43.71281" lon="3.83369">
        <ele>128</ele>
        <time>2021-02-20T13:38:13Z</time>
      </trkpt>
      <trkpt lat="43.71281" lon="3.83365">
        <ele>128</ele>
        <time>2021-02-20T13:38:14Z</time>
      </trkpt>
      <trkpt lat="43.71282" lon="3.83361">
        <ele>128</ele>
        <time>2021-02-20T13:38:15Z</time>
      </trkpt>
      <trkpt lat="43.71281" lon="3.83357">
        <ele>128</ele>
        <time>2021-02-20T13:38:16Z</time>
      </trkpt>
      <trkpt lat="43.71281" lon="3.83353">
        <ele>128</ele>
        <time>2021-02-20T13:38:17Z</time>
      </trkpt>
      <trkpt lat="43.7128" lon="3.8335">
        <ele>128</ele>
        <time>2021-02-20T13:38:18Z</time>
      </trkpt>
      <trkpt lat="43.7128" lon="3.83346">
        <ele>128</ele>
        <time>2021-02-20T13:38:19Z</time>
      </trkpt>
      <trkpt lat="43.71281" lon="3.83342">
        <ele>128</ele>
        <time>2021-02-20T13:38:20Z</time>
      </trkpt>
      <trkpt lat="43.71282" lon="3.8334">
        <ele>128</ele>
        <time>2021-02-20T13:38:21Z</time>
      </trkpt>
      <trkpt lat="43.71283" lon="3.83337">
        <ele>128</ele>
        <time>2021-02-20T13:38:22Z</time>
      </trkpt>
      <trkpt lat="43.71284" lon="3.83335">
        <ele>128</ele>
        <time>2021-02-20T13:38:23Z</time>
      </trkpt>
      <trkpt lat="43.71287" lon="3.83332">
        <ele>128</ele>
        <time>2021-02-20T13:38:25Z</time>
      </trkpt>
      <trkpt lat="43.71289" lon="3.83329">
        <ele>128</ele>
        <time>2021-02-20T13:38:27Z</time>
      </trkpt>
      <trkpt lat="43.71289" lon="3.83327">
        <ele>128</ele>
        <time>2021-02-20T13:38:29Z</time>
      </trkpt>
      <trkpt lat="43.71288" lon="3.83326">
        <ele>128</ele>
        <time>2021-02-20T13:38:40Z</time>
      </trkpt>
      <trkpt lat="43.71296" lon="3.83302">
        <ele>126</ele>
        <time>2021-02-20T13:38:46Z</time>
      </trkpt>
      <trkpt lat="43.71299" lon="3.83295">
        <ele>126</ele>
        <time>2021-02-20T13:38:47Z</time>
      </trkpt>
      <trkpt lat="43.71301" lon="3.83289">
        <ele>126</ele>
        <time>2021-02-20T13:38:48Z</time>
      </trkpt>
      <trkpt lat="43.71302" lon="3.83284">
        <ele>126</ele>
        <time>2021-02-20T13:38:49Z</time>
      </trkpt>
      <trkpt lat="43.71302" lon="3.83279">
        <ele>126</ele>
        <time>2021-02-20T13:38:50Z</time>
      </trkpt>
      <trkpt lat="43.71303" lon="3.83277">
        <ele>126</ele>
        <time>2021-02-20T13:38:51Z</time>
      </trkpt>
      <trkpt lat="43.71305" lon="3.83278">
        <ele>126</ele>
        <time>2021-02-20T13:38:58Z</time>
      </trkpt>
      <trkpt lat="43.71306" lon="3.83278">
        <ele>122</ele>
        <time>2021-02-20T13:39:00Z</time>
      </trkpt>
      <trkpt lat="43.71312" lon="3.83284">
        <ele>119</ele>
        <time>2021-02-20T13:39:18Z</time>
      </trkpt>
      <trkpt lat="43.71313" lon="3.83292">
        <ele>119</ele>
        <time>2021-02-20T13:39:34Z</time>
      </trkpt>
      <trkpt lat="43.71311" lon="3.83295">
        <ele>119</ele>
        <time>2021-02-20T13:39:36Z</time>
      </trkpt>
      <trkpt lat="43.7131" lon="3.83297">
        <ele>119</ele>
        <time>2021-02-20T13:39:37Z</time>
      </trkpt>
      <trkpt lat="43.71308" lon="3.833">
        <ele>119</ele>
        <time>2021-02-20T13:39:38Z</time>
      </trkpt>
      <trkpt lat="43.71308" lon="3.83302">
        <ele>119</ele>
        <time>2021-02-20T13:39:39Z</time>
      </trkpt>
      <trkpt lat="43.71308" lon="3.83305">
        <ele>119</ele>
        <time>2021-02-20T13:39:40Z</time>
      </trkpt>
      <trkpt lat="43.71307" lon="3.83308">
        <ele>119</ele>
        <time>2021-02-20T13:39:41Z</time>
      </trkpt>
      <trkpt lat="43.71307" lon="3.8331">
        <ele>119</ele>
        <time>2021-02-20T13:39:42Z</time>
      </trkpt>
      <trkpt lat="43.71306" lon="3.83313">
        <ele>119</ele>
        <time>2021-02-20T13:39:43Z</time>
      </trkpt>
      <trkpt lat="43.71305" lon="3.83315">
        <ele>119</ele>
        <time>2021-02-20T13:39:44Z</time>
      </trkpt>
      <trkpt lat="43.71305" lon="3.83318">
        <ele>119</ele>
        <time>2021-02-20T13:39:45Z</time>
      </trkpt>
      <trkpt lat="43.71304" lon="3.83321">
        <ele>119</ele>
        <time>2021-02-20T13:39:46Z</time>
      </trkpt>
      <trkpt lat="43.71305" lon="3.83324">
        <ele>119</ele>
        <time>2021-02-20T13:39:47Z</time>
      </trkpt>
      <trkpt lat="43.71306" lon="3.83327">
        <ele>119</ele>
        <time>2021-02-20T13:39:48Z</time>
      </trkpt>
      <trkpt lat="43.71306" lon="3.83331">
        <ele>119</ele>
        <time>2021-02-20T13:39:49Z</time>
      </trkpt>
      <trkpt lat="43.71305" lon="3.83334">
        <ele>119</ele>
        <time>2021-02-20T13:39:50Z</time>
      </trkpt>
      <trkpt lat="43.71305" lon="3.83338">
        <ele>119</ele>
        <time>2021-02-20T13:39:51Z</time>
      </trkpt>
      <trkpt lat="43.71304" lon="3.83341">
        <ele>119</ele>
        <time>2021-02-20T13:39:52Z</time>
      </trkpt>
      <trkpt lat="43.71304" lon="3.83344">
        <ele>120</ele>
        <time>2021-02-20T13:39:53Z</time>
      </trkpt>
      <trkpt lat="43.71304" lon="3.83348">
        <ele>120</ele>
        <time>2021-02-20T13:39:54Z</time>
      </trkpt>
      <trkpt lat="43.71303" lon="3.83352">
        <ele>120</ele>
        <time>2021-02-20T13:39:55Z</time>
      </trkpt>
      <trkpt lat="43.71303" lon="3.83356">
        <ele>120</ele>
        <time>2021-02-20T13:39:56Z</time>
      </trkpt>
      <trkpt lat="43.71302" lon="3.83359">
        <ele>120</ele>
        <time>2021-02-20T13:39:57Z</time>
      </trkpt>
      <trkpt lat="43.71302" lon="3.83362">
        <ele>120</ele>
        <time>2021-02-20T13:39:58Z</time>
      </trkpt>
      <trkpt lat="43.71303" lon="3.83366">
        <ele>120</ele>
        <time>2021-02-20T13:40:00Z</time>
      </trkpt>
      <trkpt lat="43.71303" lon="3.8337">
        <ele>120</ele>
        <time>2021-02-20T13:40:02Z</time>
      </trkpt>
      <trkpt lat="43.71303" lon="3.83375">
        <ele>120</ele>
        <time>2021-02-20T13:40:04Z</time>
      </trkpt>
      <trkpt lat="43.71303" lon="3.83378">
        <ele>120</ele>
        <time>2021-02-20T13:40:05Z</time>
      </trkpt>
      <trkpt lat="43.71302" lon="3.8338">
        <ele>120</ele>
        <time>2021-02-20T13:40:06Z</time>
      </trkpt>
      <trkpt lat="43.71301" lon="3.83383">
        <ele>120</ele>
        <time>2021-02-20T13:40:07Z</time>
      </trkpt>
      <trkpt lat="43.713" lon="3.83385">
        <ele>120</ele>
        <time>2021-02-20T13:40:08Z</time>
      </trkpt>
      <trkpt lat="43.713" lon="3.83388">
        <ele>120</ele>
        <time>2021-02-20T13:40:09Z</time>
      </trkpt>
      <trkpt lat="43.71299" lon="3.83391">
        <ele>120</ele>
        <time>2021-02-20T13:40:10Z</time>
      </trkpt>
      <trkpt lat="43.71299" lon="3.83393">
        <ele>120</ele>
        <time>2021-02-20T13:40:11Z</time>
      </trkpt>
      <trkpt lat="43.71299" lon="3.83396">
        <ele>120</ele>
        <time>2021-02-20T13:40:12Z</time>
      </trkpt>
      <trkpt lat="43.71298" lon="3.83399">
        <ele>121</ele>
        <time>2021-02-20T13:40:13Z</time>
      </trkpt>
      <trkpt lat="43.71298" lon="3.83401">
        <ele>121</ele>
        <time>2021-02-20T13:40:14Z</time>
      </trkpt>
      <trkpt lat="43.71297" lon="3.83404">
        <ele>121</ele>
        <time>2021-02-20T13:40:15Z</time>
      </trkpt>
      <trkpt lat="43.71296" lon="3.83406">
        <ele>121</ele>
        <time>2021-02-20T13:40:16Z</time>
      </trkpt>
      <trkpt lat="43.71296" lon="3.83409">
        <ele>121</ele>
        <time>2021-02-20T13:40:17Z</time>
      </trkpt>
      <trkpt lat="43.71296" lon="3.83411">
        <ele>121</ele>
        <time>2021-02-20T13:40:18Z</time>
      </trkpt>
      <trkpt lat="43.71298" lon="3.83413">
        <ele>121</ele>
        <time>2021-02-20T13:40:19Z</time>
      </trkpt>
      <trkpt lat="43.71299" lon="3.83415">
        <ele>121</ele>
        <time>2021-02-20T13:40:20Z</time>
      </trkpt>
      <trkpt lat="43.71301" lon="3.83416">
        <ele>121</ele>
        <time>2021-02-20T13:40:21Z</time>
      </trkpt>
      <trkpt lat="43.71303" lon="3.83418">
        <ele>121</ele>
        <time>2021-02-20T13:40:22Z</time>
      </trkpt>
      <trkpt lat="43.71306" lon="3.83419">
        <ele>122</ele>
        <time>2021-02-20T13:40:23Z</time>
      </trkpt>
      <trkpt lat="43.71308" lon="3.8342">
        <ele>122</ele>
        <time>2021-02-20T13:40:24Z</time>
      </trkpt>
      <trkpt lat="43.7131" lon="3.83421">
        <ele>122</ele>
        <time>2021-02-20T13:40:25Z</time>
      </trkpt>
      <trkpt lat="43.71311" lon="3.83423">
        <ele>122</ele>
        <time>2021-02-20T13:40:26Z</time>
      </trkpt>
      <trkpt lat="43.71313" lon="3.83424">
        <ele>122</ele>
        <time>2021-02-20T13:40:27Z</time>
      </trkpt>
      <trkpt lat="43.71315" lon="3.83424">
        <ele>122</ele>
        <time>2021-02-20T13:40:28Z</time>
      </trkpt>
      <trkpt lat="43.71317" lon="3.83425">
        <ele>122</ele>
        <time>2021-02-20T13:40:29Z</time>
      </trkpt>
      <trkpt lat="43.71318" lon="3.83426">
        <ele>122</ele>
        <time>2021-02-20T13:40:30Z</time>
      </trkpt>
      <trkpt lat="43.71322" lon="3.83428">
        <ele>122</ele>
        <time>2021-02-20T13:40:32Z</time>
      </trkpt>
      <trkpt lat="43.71325" lon="3.8343">
        <ele>122</ele>
        <time>2021-02-20T13:40:34Z</time>
      </trkpt>
      <trkpt lat="43.71327" lon="3.83432">
        <ele>122</ele>
        <time>2021-02-20T13:40:36Z</time>
      </trkpt>
      <trkpt lat="43.7133" lon="3.83435">
        <ele>122</ele>
        <time>2021-02-20T13:40:38Z</time>
      </trkpt>
      <trkpt lat="43.71332" lon="3.83436">
        <ele>122</ele>
        <time>2021-02-20T13:40:40Z</time>
      </trkpt>
      <trkpt lat="43.71335" lon="3.83437">
        <ele>122</ele>
        <time>2021-02-20T13:40:42Z</time>
      </trkpt>
      <trkpt lat="43.71338" lon="3.83439">
        <ele>122</ele>
        <time>2021-02-20T13:40:44Z</time>
      </trkpt>
      <trkpt lat="43.7134" lon="3.83441">
        <ele>122</ele>
        <time>2021-02-20T13:40:45Z</time>
      </trkpt>
      <trkpt lat="43.71342" lon="3.83442">
        <ele>122</ele>
        <time>2021-02-20T13:40:46Z</time>
      </trkpt>
      <trkpt lat="43.71345" lon="3.83445">
        <ele>122</ele>
        <time>2021-02-20T13:40:48Z</time>
      </trkpt>
      <trkpt lat="43.71348" lon="3.83448">
        <ele>122</ele>
        <time>2021-02-20T13:40:50Z</time>
      </trkpt>
      <trkpt lat="43.71349" lon="3.8345">
        <ele>122</ele>
        <time>2021-02-20T13:40:51Z</time>
      </trkpt>
      <trkpt lat="43.7135" lon="3.83452">
        <ele>122</ele>
        <time>2021-02-20T13:40:52Z</time>
      </trkpt>
      <trkpt lat="43.71351" lon="3.83454">
        <ele>127</ele>
        <time>2021-02-20T13:40:53Z</time>
      </trkpt>
      <trkpt lat="43.7135" lon="3.83459">
        <ele>127</ele>
        <time>2021-02-20T13:40:55Z</time>
      </trkpt>
      <trkpt lat="43.71348" lon="3.83462">
        <ele>127</ele>
        <time>2021-02-20T13:40:57Z</time>
      </trkpt>
      <trkpt lat="43.71346" lon="3.83463">
        <ele>127</ele>
        <time>2021-02-20T13:40:58Z</time>
      </trkpt>
      <trkpt lat="43.71345" lon="3.83465">
        <ele>127</ele>
        <time>2021-02-20T13:40:59Z</time>
      </trkpt>
      <trkpt lat="43.71343" lon="3.83466">
        <ele>127</ele>
        <time>2021-02-20T13:41:00Z</time>
      </trkpt>
      <trkpt lat="43.71341" lon="3.83468">
        <ele>127</ele>
        <time>2021-02-20T13:41:01Z</time>
      </trkpt>
      <trkpt lat="43.71339" lon="3.83471">
        <ele>127</ele>
        <time>2021-02-20T13:41:02Z</time>
      </trkpt>
      <trkpt lat="43.71338" lon="3.83474">
        <ele>127</ele>
        <time>2021-02-20T13:41:03Z</time>
      </trkpt>
      <trkpt lat="43.71336" lon="3.83477">
        <ele>127</ele>
        <time>2021-02-20T13:41:04Z</time>
      </trkpt>
      <trkpt lat="43.71335" lon="3.8348">
        <ele>127</ele>
        <time>2021-02-20T13:41:05Z</time>
      </trkpt>
      <trkpt lat="43.71335" lon="3.83483">
        <ele>127</ele>
        <time>2021-02-20T13:41:06Z</time>
      </trkpt>
      <trkpt lat="43.71334" lon="3.83485">
        <ele>127</ele>
        <time>2021-02-20T13:41:07Z</time>
      </trkpt>
      <trkpt lat="43.71333" lon="3.83488">
        <ele>127</ele>
        <time>2021-02-20T13:41:08Z</time>
      </trkpt>
      <trkpt lat="43.71332" lon="3.8349">
        <ele>127</ele>
        <time>2021-02-20T13:41:09Z</time>
      </trkpt>
      <trkpt lat="43.71331" lon="3.83493">
        <ele>127</ele>
        <time>2021-02-20T13:41:10Z</time>
      </trkpt>
      <trkpt lat="43.7133" lon="3.83497">
        <ele>127</ele>
        <time>2021-02-20T13:41:12Z</time>
      </trkpt>
      <trkpt lat="43.71329" lon="3.83499">
        <ele>127</ele>
        <time>2021-02-20T13:41:13Z</time>
      </trkpt>
      <trkpt lat="43.71328" lon="3.83502">
        <ele>127</ele>
        <time>2021-02-20T13:41:14Z</time>
      </trkpt>
      <trkpt lat="43.71326" lon="3.83506">
        <ele>127</ele>
        <time>2021-02-20T13:41:16Z</time>
      </trkpt>
      <trkpt lat="43.71325" lon="3.8351">
        <ele>127</ele>
        <time>2021-02-20T13:41:18Z</time>
      </trkpt>
      <trkpt lat="43.71325" lon="3.83512">
        <ele>127</ele>
        <time>2021-02-20T13:41:19Z</time>
      </trkpt>
      <trkpt lat="43.71324" lon="3.83515">
        <ele>127</ele>
        <time>2021-02-20T13:41:20Z</time>
      </trkpt>
      <trkpt lat="43.71323" lon="3.83519">
        <ele>127</ele>
        <time>2021-02-20T13:41:22Z</time>
      </trkpt>
      <trkpt lat="43.71322" lon="3.83524">
        <ele>127</ele>
        <time>2021-02-20T13:41:24Z</time>
      </trkpt>
      <trkpt lat="43.7132" lon="3.83528">
        <ele>127</ele>
        <time>2021-02-20T13:41:26Z</time>
      </trkpt>
      <trkpt lat="43.71319" lon="3.83532">
        <ele>127</ele>
        <time>2021-02-20T13:41:28Z</time>
      </trkpt>
      <trkpt lat="43.71317" lon="3.83536">
        <ele>127</ele>
        <time>2021-02-20T13:41:30Z</time>
      </trkpt>
      <trkpt lat="43.71316" lon="3.8354">
        <ele>127</ele>
        <time>2021-02-20T13:41:32Z</time>
      </trkpt>
      <trkpt lat="43.71316" lon="3.83545">
        <ele>127</ele>
        <time>2021-02-20T13:41:34Z</time>
      </trkpt>
      <trkpt lat="43.71316" lon="3.8355">
        <ele>127</ele>
        <time>2021-02-20T13:41:36Z</time>
      </trkpt>
      <trkpt lat="43.71317" lon="3.83554">
        <ele>127</ele>
        <time>2021-02-20T13:41:38Z</time>
      </trkpt>
      <trkpt lat="43.71318" lon="3.83556">
        <ele>127</ele>
        <time>2021-02-20T13:41:39Z</time>
      </trkpt>
      <trkpt lat="43.71319" lon="3.83558">
        <ele>127</ele>
        <time>2021-02-20T13:41:40Z</time>
      </trkpt>
      <trkpt lat="43.71321" lon="3.8356">
        <ele>127</ele>
        <time>2021-02-20T13:41:41Z</time>
      </trkpt>
      <trkpt lat="43.71322" lon="3.83561">
        <ele>127</ele>
        <time>2021-02-20T13:41:42Z</time>
      </trkpt>
      <trkpt lat="43.71323" lon="3.83563">
        <ele>131</ele>
        <time>2021-02-20T13:41:43Z</time>
      </trkpt>
      <trkpt lat="43.71326" lon="3.83566">
        <ele>131</ele>
        <time>2021-02-20T13:41:45Z</time>
      </trkpt>
      <trkpt lat="43.71329" lon="3.83568">
        <ele>131</ele>
        <time>2021-02-20T13:41:47Z</time>
      </trkpt>
      <trkpt lat="43.71332" lon="3.83571">
        <ele>131</ele>
        <time>2021-02-20T13:41:49Z</time>
      </trkpt>
      <trkpt lat="43.71335" lon="3.83573">
        <ele>131</ele>
        <time>2021-02-20T13:41:51Z</time>
      </trkpt>
      <trkpt lat="43.71338" lon="3.83576">
        <ele>132</ele>
        <time>2021-02-20T13:41:53Z</time>
      </trkpt>
      <trkpt lat="43.7134" lon="3.83577">
        <ele>132</ele>
        <time>2021-02-20T13:41:54Z</time>
      </trkpt>
      <trkpt lat="43.71341" lon="3.83579">
        <ele>132</ele>
        <time>2021-02-20T13:41:55Z</time>
      </trkpt>
      <trkpt lat="43.71343" lon="3.8358">
        <ele>132</ele>
        <time>2021-02-20T13:41:56Z</time>
      </trkpt>
      <trkpt lat="43.71345" lon="3.83582">
        <ele>132</ele>
        <time>2021-02-20T13:41:57Z</time>
      </trkpt>
      <trkpt lat="43.71347" lon="3.83583">
        <ele>132</ele>
        <time>2021-02-20T13:41:58Z</time>
      </trkpt>
      <trkpt lat="43.71349" lon="3.83585">
        <ele>132</ele>
        <time>2021-02-20T13:41:59Z</time>
      </trkpt>
      <trkpt lat="43.71351" lon="3.83588">
        <ele>132</ele>
        <time>2021-02-20T13:42:00Z</time>
      </trkpt>
      <trkpt lat="43.71353" lon="3.83591">
        <ele>132</ele>
        <time>2021-02-20T13:42:01Z</time>
      </trkpt>
      <trkpt lat="43.71354" lon="3.83594">
        <ele>132</ele>
        <time>2021-02-20T13:42:02Z</time>
      </trkpt>
      <trkpt lat="43.71355" lon="3.83598">
        <ele>132</ele>
        <time>2021-02-20T13:42:03Z</time>
      </trkpt>
      <trkpt lat="43.71356" lon="3.83602">
        <ele>132</ele>
        <time>2021-02-20T13:42:04Z</time>
      </trkpt>
      <trkpt lat="43.71356" lon="3.83606">
        <ele>132</ele>
        <time>2021-02-20T13:42:05Z</time>
      </trkpt>
      <trkpt lat="43.71357" lon="3.8361">
        <ele>132</ele>
        <time>2021-02-20T13:42:06Z</time>
      </trkpt>
      <trkpt lat="43.71357" lon="3.83616">
        <ele>132</ele>
        <time>2021-02-20T13:42:07Z</time>
      </trkpt>
      <trkpt lat="43.71359" lon="3.83623">
        <ele>132</ele>
        <time>2021-02-20T13:42:08Z</time>
      </trkpt>
      <trkpt lat="43.71361" lon="3.8363">
        <ele>132</ele>
        <time>2021-02-20T13:42:09Z</time>
      </trkpt>
      <trkpt lat="43.71364" lon="3.83637">
        <ele>132</ele>
        <time>2021-02-20T13:42:10Z</time>
      </trkpt>
      <trkpt lat="43.71367" lon="3.83644">
        <ele>132</ele>
        <time>2021-02-20T13:42:11Z</time>
      </trkpt>
      <trkpt lat="43.7137" lon="3.8365">
        <ele>132</ele>
        <time>2021-02-20T13:42:12Z</time>
      </trkpt>
      <trkpt lat="43.71372" lon="3.83657">
        <ele>131</ele>
        <time>2021-02-20T13:42:13Z</time>
      </trkpt>
      <trkpt lat="43.71375" lon="3.83663">
        <ele>131</ele>
        <time>2021-02-20T13:42:14Z</time>
      </trkpt>
      <trkpt lat="43.71376" lon="3.83669">
        <ele>131</ele>
        <time>2021-02-20T13:42:15Z</time>
      </trkpt>
      <trkpt lat="43.71377" lon="3.83674">
        <ele>131</ele>
        <time>2021-02-20T13:42:16Z</time>
      </trkpt>
      <trkpt lat="43.71377" lon="3.83679">
        <ele>131</ele>
        <time>2021-02-20T13:42:17Z</time>
      </trkpt>
      <trkpt lat="43.71376" lon="3.83684">
        <ele>131</ele>
        <time>2021-02-20T13:42:18Z</time>
      </trkpt>
      <trkpt lat="43.71377" lon="3.83689">
        <ele>131</ele>
        <time>2021-02-20T13:42:19Z</time>
      </trkpt>
      <trkpt lat="43.71379" lon="3.83694">
        <ele>131</ele>
        <time>2021-02-20T13:42:20Z</time>
      </trkpt>
      <trkpt lat="43.71381" lon="3.83697">
        <ele>131</ele>
        <time>2021-02-20T13:42:21Z</time>
      </trkpt>
      <trkpt lat="43.71384" lon="3.837">
        <ele>131</ele>
        <time>2021-02-20T13:42:22Z</time>
      </trkpt>
      <trkpt lat="43.71387" lon="3.83702">
        <ele>130</ele>
        <time>2021-02-20T13:42:23Z</time>
      </trkpt>
      <trkpt lat="43.7139" lon="3.83703">
        <ele>130</ele>
        <time>2021-02-20T13:42:24Z</time>
      </trkpt>
      <trkpt lat="43.71392" lon="3.83705">
        <ele>130</ele>
        <time>2021-02-20T13:42:25Z</time>
      </trkpt>
      <trkpt lat="43.71395" lon="3.83706">
        <ele>130</ele>
        <time>2021-02-20T13:42:26Z</time>
      </trkpt>
      <trkpt lat="43.71397" lon="3.83708">
        <ele>130</ele>
        <time>2021-02-20T13:42:27Z</time>
      </trkpt>
      <trkpt lat="43.714" lon="3.8371">
        <ele>130</ele>
        <time>2021-02-20T13:42:28Z</time>
      </trkpt>
      <trkpt lat="43.71402" lon="3.83712">
        <ele>130</ele>
        <time>2021-02-20T13:42:29Z</time>
      </trkpt>
      <trkpt lat="43.71404" lon="3.83715">
        <ele>130</ele>
        <time>2021-02-20T13:42:30Z</time>
      </trkpt>
      <trkpt lat="43.71406" lon="3.83718">
        <ele>130</ele>
        <time>2021-02-20T13:42:31Z</time>
      </trkpt>
      <trkpt lat="43.71408" lon="3.83721">
        <ele>130</ele>
        <time>2021-02-20T13:42:32Z</time>
      </trkpt>
      <trkpt lat="43.71411" lon="3.83724">
        <ele>130</ele>
        <time>2021-02-20T13:42:33Z</time>
      </trkpt>
      <trkpt lat="43.71413" lon="3.83726">
        <ele>130</ele>
        <time>2021-02-20T13:42:34Z</time>
      </trkpt>
      <trkpt lat="43.71415" lon="3.83729">
        <ele>130</ele>
        <time>2021-02-20T13:42:35Z</time>
      </trkpt>
      <trkpt lat="43.71417" lon="3.83732">
        <ele>130</ele>
        <time>2021-02-20T13:42:36Z</time>
      </trkpt>
      <trkpt lat="43.71419" lon="3.83734">
        <ele>130</ele>
        <time>2021-02-20T13:42:37Z</time>
      </trkpt>
      <trkpt lat="43.71421" lon="3.83737">
        <ele>130</ele>
        <time>2021-02-20T13:42:38Z</time>
      </trkpt>
      <trkpt lat="43.71423" lon="3.8374">
        <ele>130</ele>
        <time>2021-02-20T13:42:39Z</time>
      </trkpt>
      <trkpt lat="43.71425" lon="3.83743">
        <ele>130</ele>
        <time>2021-02-20T13:42:40Z</time>
      </trkpt>
      <trkpt lat="43.71427" lon="3.83746">
        <ele>130</ele>
        <time>2021-02-20T13:42:41Z</time>
      </trkpt>
      <trkpt lat="43.7143" lon="3.83749">
        <ele>130</ele>
        <time>2021-02-20T13:42:42Z</time>
      </trkpt>
      <trkpt lat="43.71432" lon="3.83751">
        <ele>130</ele>
        <time>2021-02-20T13:42:43Z</time>
      </trkpt>
      <trkpt lat="43.71435" lon="3.83753">
        <ele>130</ele>
        <time>2021-02-20T13:42:44Z</time>
      </trkpt>
      <trkpt lat="43.71438" lon="3.83755">
        <ele>130</ele>
        <time>2021-02-20T13:42:45Z</time>
      </trkpt>
      <trkpt lat="43.7144" lon="3.83757">
        <ele>130</ele>
        <time>2021-02-20T13:42:46Z</time>
      </trkpt>
      <trkpt lat="43.71443" lon="3.83759">
        <ele>130</ele>
        <time>2021-02-20T13:42:47Z</time>
      </trkpt>
      <trkpt lat="43.71446" lon="3.83761">
        <ele>130</ele>
        <time>2021-02-20T13:42:48Z</time>
      </trkpt>
      <trkpt lat="43.71449" lon="3.83762">
        <ele>130</ele>
        <time>2021-02-20T13:42:49Z</time>
      </trkpt>
      <trkpt lat="43.71451" lon="3.83764">
        <ele>130</ele>
        <time>2021-02-20T13:42:50Z</time>
      </trkpt>
      <trkpt lat="43.71454" lon="3.83766">
        <ele>130</ele>
        <time>2021-02-20T13:42:51Z</time>
      </trkpt>
      <trkpt lat="43.71457" lon="3.83768">
        <ele>130</ele>
        <time>2021-02-20T13:42:52Z</time>
      </trkpt>
      <trkpt lat="43.71459" lon="3.8377">
        <ele>130</ele>
        <time>2021-02-20T13:42:53Z</time>
      </trkpt>
      <trkpt lat="43.71462" lon="3.83772">
        <ele>130</ele>
        <time>2021-02-20T13:42:54Z</time>
      </trkpt>
      <trkpt lat="43.71464" lon="3.83775">
        <ele>130</ele>
        <time>2021-02-20T13:42:55Z</time>
      </trkpt>
      <trkpt lat="43.71467" lon="3.83777">
        <ele>130</ele>
        <time>2021-02-20T13:42:56Z</time>
      </trkpt>
      <trkpt lat="43.71469" lon="3.8378">
        <ele>130</ele>
        <time>2021-02-20T13:42:57Z</time>
      </trkpt>
      <trkpt lat="43.71471" lon="3.83783">
        <ele>130</ele>
        <time>2021-02-20T13:42:58Z</time>
      </trkpt>
      <trkpt lat="43.71473" lon="3.83785">
        <ele>130</ele>
        <time>2021-02-20T13:42:59Z</time>
      </trkpt>
      <trkpt lat="43.71475" lon="3.83788">
        <ele>130</ele>
        <time>2021-02-20T13:43:00Z</time>
      </trkpt>
      <trkpt lat="43.71477" lon="3.83792">
        <ele>130</ele>
        <time>2021-02-20T13:43:01Z</time>
      </trkpt>
      <trkpt lat="43.71479" lon="3.83796">
        <ele>130</ele>
        <time>2021-02-20T13:43:02Z</time>
      </trkpt>
      <trkpt lat="43.71484" lon="3.83804">
        <ele>129</ele>
        <time>2021-02-20T13:43:04Z</time>
      </trkpt>
      <trkpt lat="43.71487" lon="3.83809">
        <ele>129</ele>
        <time>2021-02-20T13:43:05Z</time>
      </trkpt>
      <trkpt lat="43.7149" lon="3.83813">
        <ele>129</ele>
        <time>2021-02-20T13:43:06Z</time>
      </trkpt>
      <trkpt lat="43.71493" lon="3.83818">
        <ele>129</ele>
        <time>2021-02-20T13:43:07Z</time>
      </trkpt>
      <trkpt lat="43.71495" lon="3.83822">
        <ele>129</ele>
        <time>2021-02-20T13:43:08Z</time>
      </trkpt>
      <trkpt lat="43.71498" lon="3.83826">
        <ele>129</ele>
        <time>2021-02-20T13:43:09Z</time>
      </trkpt>
      <trkpt lat="43.715" lon="3.8383">
        <ele>129</ele>
        <time>2021-02-20T13:43:10Z</time>
      </trkpt>
      <trkpt lat="43.71502" lon="3.83834">
        <ele>129</ele>
        <time>2021-02-20T13:43:11Z</time>
      </trkpt>
      <trkpt lat="43.71504" lon="3.83839">
        <ele>129</ele>
        <time>2021-02-20T13:43:12Z</time>
      </trkpt>
      <trkpt lat="43.71506" lon="3.83844">
        <ele>128</ele>
        <time>2021-02-20T13:43:13Z</time>
      </trkpt>
      <trkpt lat="43.71508" lon="3.83849">
        <ele>128</ele>
        <time>2021-02-20T13:43:14Z</time>
      </trkpt>
      <trkpt lat="43.71509" lon="3.83853">
        <ele>128</ele>
        <time>2021-02-20T13:43:15Z</time>
      </trkpt>
      <trkpt lat="43.71509" lon="3.83858">
        <ele>128</ele>
        <time>2021-02-20T13:43:16Z</time>
      </trkpt>
      <trkpt lat="43.7151" lon="3.83863">
        <ele>128</ele>
        <time>2021-02-20T13:43:17Z</time>
      </trkpt>
      <trkpt lat="43.71511" lon="3.83869">
        <ele>128</ele>
        <time>2021-02-20T13:43:18Z</time>
      </trkpt>
      <trkpt lat="43.71512" lon="3.83875">
        <ele>128</ele>
        <time>2021-02-20T13:43:19Z</time>
      </trkpt>
      <trkpt lat="43.71514" lon="3.8388">
        <ele>128</ele>
        <time>2021-02-20T13:43:20Z</time>
      </trkpt>
      <trkpt lat="43.71516" lon="3.83887">
        <ele>128</ele>
        <time>2021-02-20T13:43:21Z</time>
      </trkpt>
      <trkpt lat="43.71518" lon="3.83893">
        <ele>128</ele>
        <time>2021-02-20T13:43:22Z</time>
      </trkpt>
      <trkpt lat="43.7152" lon="3.83899">
        <ele>128</ele>
        <time>2021-02-20T13:43:23Z</time>
      </trkpt>
      <trkpt lat="43.71522" lon="3.83903">
        <ele>128</ele>
        <time>2021-02-20T13:43:24Z</time>
      </trkpt>
      <trkpt lat="43.71524" lon="3.83906">
        <ele>128</ele>
        <time>2021-02-20T13:43:25Z</time>
      </trkpt>
      <trkpt lat="43.71526" lon="3.83908">
        <ele>128</ele>
        <time>2021-02-20T13:43:26Z</time>
      </trkpt>
      <trkpt lat="43.71528" lon="3.8391">
        <ele>128</ele>
        <time>2021-02-20T13:43:27Z</time>
      </trkpt>
      <trkpt lat="43.7153" lon="3.83912">
        <ele>128</ele>
        <time>2021-02-20T13:43:28Z</time>
      </trkpt>
      <trkpt lat="43.71532" lon="3.83914">
        <ele>128</ele>
        <time>2021-02-20T13:43:29Z</time>
      </trkpt>
      <trkpt lat="43.71535" lon="3.83915">
        <ele>128</ele>
        <time>2021-02-20T13:43:30Z</time>
      </trkpt>
      <trkpt lat="43.71538" lon="3.83917">
        <ele>128</ele>
        <time>2021-02-20T13:43:31Z</time>
      </trkpt>
      <trkpt lat="43.71541" lon="3.83919">
        <ele>128</ele>
        <time>2021-02-20T13:43:32Z</time>
      </trkpt>
      <trkpt lat="43.71544" lon="3.83922">
        <ele>126</ele>
        <time>2021-02-20T13:43:33Z</time>
      </trkpt>
      <trkpt lat="43.71547" lon="3.83924">
        <ele>126</ele>
        <time>2021-02-20T13:43:34Z</time>
      </trkpt>
      <trkpt lat="43.7155" lon="3.83927">
        <ele>126</ele>
        <time>2021-02-20T13:43:35Z</time>
      </trkpt>
      <trkpt lat="43.71553" lon="3.8393">
        <ele>126</ele>
        <time>2021-02-20T13:43:36Z</time>
      </trkpt>
      <trkpt lat="43.71556" lon="3.83933">
        <ele>126</ele>
        <time>2021-02-20T13:43:37Z</time>
      </trkpt>
      <trkpt lat="43.71558" lon="3.83936">
        <ele>126</ele>
        <time>2021-02-20T13:43:38Z</time>
      </trkpt>
      <trkpt lat="43.7156" lon="3.83938">
        <ele>126</ele>
        <time>2021-02-20T13:43:39Z</time>
      </trkpt>
      <trkpt lat="43.71562" lon="3.8394">
        <ele>126</ele>
        <time>2021-02-20T13:43:40Z</time>
      </trkpt>
      <trkpt lat="43.71564" lon="3.83943">
        <ele>126</ele>
        <time>2021-02-20T13:43:41Z</time>
      </trkpt>
      <trkpt lat="43.71566" lon="3.83945">
        <ele>126</ele>
        <time>2021-02-20T13:43:42Z</time>
      </trkpt>
      <trkpt lat="43.71569" lon="3.83949">
        <ele>125</ele>
        <time>2021-02-20T13:43:43Z</time>
      </trkpt>
      <trkpt lat="43.71571" lon="3.83954">
        <ele>125</ele>
        <time>2021-02-20T13:43:44Z</time>
      </trkpt>
      <trkpt lat="43.71573" lon="3.83959">
        <ele>125</ele>
        <time>2021-02-20T13:43:45Z</time>
      </trkpt>
      <trkpt lat="43.71576" lon="3.83963">
        <ele>125</ele>
        <time>2021-02-20T13:43:46Z</time>
      </trkpt>
      <trkpt lat="43.71578" lon="3.83967">
        <ele>125</ele>
        <time>2021-02-20T13:43:47Z</time>
      </trkpt>
      <trkpt lat="43.71581" lon="3.83971">
        <ele>125</ele>
        <time>2021-02-20T13:43:48Z</time>
      </trkpt>
      <trkpt lat="43.71584" lon="3.83974">
        <ele>125</ele>
        <time>2021-02-20T13:43:49Z</time>
      </trkpt>
      <trkpt lat="43.71587" lon="3.83978">
        <ele>125</ele>
        <time>2021-02-20T13:43:50Z</time>
      </trkpt>
      <trkpt lat="43.7159" lon="3.83982">
        <ele>125</ele>
        <time>2021-02-20T13:43:51Z</time>
      </trkpt>
      <trkpt lat="43.71592" lon="3.83985">
        <ele>125</ele>
        <time>2021-02-20T13:43:52Z</time>
      </trkpt>
      <trkpt lat="43.71595" lon="3.83989">
        <ele>124</ele>
        <time>2021-02-20T13:43:53Z</time>
      </trkpt>
      <trkpt lat="43.71597" lon="3.83993">
        <ele>124</ele>
        <time>2021-02-20T13:43:54Z</time>
      </trkpt>
      <trkpt lat="43.71599" lon="3.83996">
        <ele>124</ele>
        <time>2021-02-20T13:43:55Z</time>
      </trkpt>
      <trkpt lat="43.71602" lon="3.84">
        <ele>124</ele>
        <time>2021-02-20T13:43:56Z</time>
      </trkpt>
      <trkpt lat="43.71604" lon="3.84003">
        <ele>124</ele>
        <time>2021-02-20T13:43:57Z</time>
      </trkpt>
      <trkpt lat="43.71606" lon="3.84007">
        <ele>124</ele>
        <time>2021-02-20T13:43:58Z</time>
      </trkpt>
      <trkpt lat="43.71608" lon="3.84011">
        <ele>124</ele>
        <time>2021-02-20T13:43:59Z</time>
      </trkpt>
      <trkpt lat="43.7161" lon="3.84014">
        <ele>124</ele>
        <time>2021-02-20T13:44:00Z</time>
      </trkpt>
      <trkpt lat="43.71612" lon="3.84018">
        <ele>124</ele>
        <time>2021-02-20T13:44:01Z</time>
      </trkpt>
      <trkpt lat="43.71614" lon="3.84021">
        <ele>124</ele>
        <time>2021-02-20T13:44:02Z</time>
      </trkpt>
      <trkpt lat="43.71616" lon="3.84025">
        <ele>122</ele>
        <time>2021-02-20T13:44:03Z</time>
      </trkpt>
      <trkpt lat="43.71618" lon="3.84028">
        <ele>122</ele>
        <time>2021-02-20T13:44:04Z</time>
      </trkpt>
      <trkpt lat="43.7162" lon="3.84031">
        <ele>122</ele>
        <time>2021-02-20T13:44:05Z</time>
      </trkpt>
      <trkpt lat="43.71622" lon="3.84033">
        <ele>122</ele>
        <time>2021-02-20T13:44:06Z</time>
      </trkpt>
      <trkpt lat="43.71625" lon="3.84036">
        <ele>122</ele>
        <time>2021-02-20T13:44:07Z</time>
      </trkpt>
      <trkpt lat="43.71627" lon="3.84038">
        <ele>122</ele>
        <time>2021-02-20T13:44:08Z</time>
      </trkpt>
      <trkpt lat="43.71628" lon="3.84042">
        <ele>122</ele>
        <time>2021-02-20T13:44:09Z</time>
      </trkpt>
      <trkpt lat="43.7163" lon="3.84045">
        <ele>122</ele>
        <time>2021-02-20T13:44:10Z</time>
      </trkpt>
      <trkpt lat="43.71632" lon="3.84048">
        <ele>122</ele>
        <time>2021-02-20T13:44:11Z</time>
      </trkpt>
      <trkpt lat="43.71633" lon="3.84052">
        <ele>122</ele>
        <time>2021-02-20T13:44:12Z</time>
      </trkpt>
      <trkpt lat="43.71634" lon="3.84055">
        <ele>121</ele>
        <time>2021-02-20T13:44:13Z</time>
      </trkpt>
      <trkpt lat="43.71636" lon="3.84057">
        <ele>121</ele>
        <time>2021-02-20T13:44:14Z</time>
      </trkpt>
      <trkpt lat="43.71637" lon="3.8406">
        <ele>121</ele>
        <time>2021-02-20T13:44:15Z</time>
      </trkpt>
      <trkpt lat="43.71638" lon="3.84063">
        <ele>121</ele>
        <time>2021-02-20T13:44:16Z</time>
      </trkpt>
      <trkpt lat="43.71638" lon="3.84066">
        <ele>121</ele>
        <time>2021-02-20T13:44:17Z</time>
      </trkpt>
      <trkpt lat="43.71637" lon="3.84069">
        <ele>121</ele>
        <time>2021-02-20T13:44:18Z</time>
      </trkpt>
      <trkpt lat="43.71636" lon="3.84073">
        <ele>121</ele>
        <time>2021-02-20T13:44:19Z</time>
      </trkpt>
      <trkpt lat="43.71634" lon="3.84076">
        <ele>121</ele>
        <time>2021-02-20T13:44:20Z</time>
      </trkpt>
      <trkpt lat="43.71633" lon="3.8408">
        <ele>121</ele>
        <time>2021-02-20T13:44:21Z</time>
      </trkpt>
      <trkpt lat="43.71631" lon="3.84083">
        <ele>121</ele>
        <time>2021-02-20T13:44:22Z</time>
      </trkpt>
      <trkpt lat="43.71628" lon="3.84086">
        <ele>120</ele>
        <time>2021-02-20T13:44:23Z</time>
      </trkpt>
      <trkpt lat="43.71626" lon="3.84088">
        <ele>120</ele>
        <time>2021-02-20T13:44:24Z</time>
      </trkpt>
      <trkpt lat="43.71623" lon="3.8409">
        <ele>120</ele>
        <time>2021-02-20T13:44:25Z</time>
      </trkpt>
      <trkpt lat="43.71621" lon="3.84092">
        <ele>120</ele>
        <time>2021-02-20T13:44:26Z</time>
      </trkpt>
      <trkpt lat="43.71618" lon="3.84094">
        <ele>120</ele>
        <time>2021-02-20T13:44:27Z</time>
      </trkpt>
      <trkpt lat="43.71616" lon="3.84095">
        <ele>120</ele>
        <time>2021-02-20T13:44:28Z</time>
      </trkpt>
      <trkpt lat="43.71613" lon="3.84096">
        <ele>120</ele>
        <time>2021-02-20T13:44:29Z</time>
      </trkpt>
      <trkpt lat="43.7161" lon="3.84096">
        <ele>120</ele>
        <time>2021-02-20T13:44:30Z</time>
      </trkpt>
      <trkpt lat="43.71607" lon="3.84096">
        <ele>120</ele>
        <time>2021-02-20T13:44:31Z</time>
      </trkpt>
      <trkpt lat="43.71605" lon="3.84096">
        <ele>120</ele>
        <time>2021-02-20T13:44:32Z</time>
      </trkpt>
      <trkpt lat="43.71603" lon="3.84096">
        <ele>120</ele>
        <time>2021-02-20T13:44:33Z</time>
      </trkpt>
      <trkpt lat="43.71602" lon="3.84095">
        <ele>120</ele>
        <time>2021-02-20T13:44:34Z</time>
      </trkpt>
      <trkpt lat="43.71599" lon="3.84094">
        <ele>120</ele>
        <time>2021-02-20T13:44:36Z</time>
      </trkpt>
      <trkpt lat="43.71597" lon="3.8409">
        <ele>120</ele>
        <time>2021-02-20T13:44:38Z</time>
      </trkpt>
      <trkpt lat="43.71596" lon="3.84086">
        <ele>120</ele>
        <time>2021-02-20T13:44:40Z</time>
      </trkpt>
      <trkpt lat="43.71594" lon="3.84084">
        <ele>120</ele>
        <time>2021-02-20T13:44:41Z</time>
      </trkpt>
      <trkpt lat="43.71593" lon="3.84082">
        <ele>120</ele>
        <time>2021-02-20T13:44:42Z</time>
      </trkpt>
      <trkpt lat="43.71591" lon="3.84081">
        <ele>120</ele>
        <time>2021-02-20T13:44:44Z</time>
      </trkpt>
      <trkpt lat="43.71589" lon="3.84082">
        <ele>120</ele>
        <time>2021-02-20T13:44:46Z</time>
      </trkpt>
      <trkpt lat="43.71589" lon="3.84085">
        <ele>120</ele>
        <time>2021-02-20T13:44:48Z</time>
      </trkpt>
      <trkpt lat="43.7159" lon="3.84087">
        <ele>120</ele>
        <time>2021-02-20T13:44:50Z</time>
      </trkpt>
      <trkpt lat="43.71593" lon="3.84088">
        <ele>119</ele>
        <time>2021-02-20T13:44:53Z</time>
      </trkpt>
      <trkpt lat="43.71597" lon="3.84088">
        <ele>119</ele>
        <time>2021-02-20T13:44:55Z</time>
      </trkpt>
      <trkpt lat="43.71599" lon="3.84091">
        <ele>119</ele>
        <time>2021-02-20T13:44:57Z</time>
      </trkpt>
      <trkpt lat="43.71601" lon="3.84095">
        <ele>119</ele>
        <time>2021-02-20T13:44:59Z</time>
      </trkpt>
      <trkpt lat="43.71603" lon="3.84097">
        <ele>119</ele>
        <time>2021-02-20T13:45:00Z</time>
      </trkpt>
      <trkpt lat="43.71604" lon="3.84099">
        <ele>119</ele>
        <time>2021-02-20T13:45:01Z</time>
      </trkpt>
      <trkpt lat="43.71606" lon="3.841">
        <ele>119</ele>
        <time>2021-02-20T13:45:02Z</time>
      </trkpt>
      <trkpt lat="43.71609" lon="3.84101">
        <ele>119</ele>
        <time>2021-02-20T13:45:03Z</time>
      </trkpt>
      <trkpt lat="43.7161" lon="3.84104">
        <ele>119</ele>
        <time>2021-02-20T13:45:04Z</time>
      </trkpt>
      <trkpt lat="43.71612" lon="3.84109">
        <ele>119</ele>
        <time>2021-02-20T13:45:05Z</time>
      </trkpt>
      <trkpt lat="43.71613" lon="3.84115">
        <ele>119</ele>
        <time>2021-02-20T13:45:06Z</time>
      </trkpt>
      <trkpt lat="43.71613" lon="3.84123">
        <ele>119</ele>
        <time>2021-02-20T13:45:07Z</time>
      </trkpt>
      <trkpt lat="43.71614" lon="3.84131">
        <ele>119</ele>
        <time>2021-02-20T13:45:08Z</time>
      </trkpt>
      <trkpt lat="43.71615" lon="3.84139">
        <ele>119</ele>
        <time>2021-02-20T13:45:09Z</time>
      </trkpt>
      <trkpt lat="43.71616" lon="3.84146">
        <ele>119</ele>
        <time>2021-02-20T13:45:10Z</time>
      </trkpt>
      <trkpt lat="43.71616" lon="3.84153">
        <ele>119</ele>
        <time>2021-02-20T13:45:11Z</time>
      </trkpt>
      <trkpt lat="43.71617" lon="3.84158">
        <ele>119</ele>
        <time>2021-02-20T13:45:12Z</time>
      </trkpt>
      <trkpt lat="43.71618" lon="3.84163">
        <ele>117</ele>
        <time>2021-02-20T13:45:13Z</time>
      </trkpt>
      <trkpt lat="43.71618" lon="3.84168">
        <ele>117</ele>
        <time>2021-02-20T13:45:14Z</time>
      </trkpt>
      <trkpt lat="43.71619" lon="3.84173">
        <ele>117</ele>
        <time>2021-02-20T13:45:15Z</time>
      </trkpt>
      <trkpt lat="43.7162" lon="3.84177">
        <ele>117</ele>
        <time>2021-02-20T13:45:16Z</time>
      </trkpt>
      <trkpt lat="43.71621" lon="3.8418">
        <ele>117</ele>
        <time>2021-02-20T13:45:17Z</time>
      </trkpt>
      <trkpt lat="43.71622" lon="3.84182">
        <ele>117</ele>
        <time>2021-02-20T13:45:18Z</time>
      </trkpt>
      <trkpt lat="43.71623" lon="3.84185">
        <ele>117</ele>
        <time>2021-02-20T13:45:19Z</time>
      </trkpt>
      <trkpt lat="43.71624" lon="3.84187">
        <ele>117</ele>
        <time>2021-02-20T13:45:20Z</time>
      </trkpt>
      <trkpt lat="43.71624" lon="3.8419">
        <ele>117</ele>
        <time>2021-02-20T13:45:21Z</time>
      </trkpt>
      <trkpt lat="43.71622" lon="3.84193">
        <ele>114</ele>
        <time>2021-02-20T13:45:23Z</time>
      </trkpt>
      <trkpt lat="43.71619" lon="3.84194">
        <ele>114</ele>
        <time>2021-02-20T13:45:25Z</time>
      </trkpt>
      <trkpt lat="43.71617" lon="3.84195">
        <ele>114</ele>
        <time>2021-02-20T13:45:27Z</time>
      </trkpt>
      <trkpt lat="43.71615" lon="3.84195">
        <ele>114</ele>
        <time>2021-02-20T13:45:29Z</time>
      </trkpt>
      <trkpt lat="43.71613" lon="3.84197">
        <ele>114</ele>
        <time>2021-02-20T13:45:31Z</time>
      </trkpt>
      <trkpt lat="43.71611" lon="3.84198">
        <ele>114</ele>
        <time>2021-02-20T13:45:32Z</time>
      </trkpt>
      <trkpt lat="43.71609" lon="3.84198">
        <ele>111</ele>
        <time>2021-02-20T13:45:33Z</time>
      </trkpt>
      <trkpt lat="43.71607" lon="3.84199">
        <ele>111</ele>
        <time>2021-02-20T13:45:34Z</time>
      </trkpt>
      <trkpt lat="43.71605" lon="3.84199">
        <ele>111</ele>
        <time>2021-02-20T13:45:35Z</time>
      </trkpt>
      <trkpt lat="43.71602" lon="3.842">
        <ele>111</ele>
        <time>2021-02-20T13:45:36Z</time>
      </trkpt>
      <trkpt lat="43.716" lon="3.842">
        <ele>111</ele>
        <time>2021-02-20T13:45:37Z</time>
      </trkpt>
      <trkpt lat="43.71597" lon="3.842">
        <ele>111</ele>
        <time>2021-02-20T13:45:38Z</time>
      </trkpt>
      <trkpt lat="43.71595" lon="3.842">
        <ele>111</ele>
        <time>2021-02-20T13:45:39Z</time>
      </trkpt>
      <trkpt lat="43.71592" lon="3.84201">
        <ele>111</ele>
        <time>2021-02-20T13:45:40Z</time>
      </trkpt>
      <trkpt lat="43.71589" lon="3.842">
        <ele>111</ele>
        <time>2021-02-20T13:45:41Z</time>
      </trkpt>
      <trkpt lat="43.71586" lon="3.842">
        <ele>111</ele>
        <time>2021-02-20T13:45:42Z</time>
      </trkpt>
      <trkpt lat="43.71583" lon="3.842">
        <ele>110</ele>
        <time>2021-02-20T13:45:43Z</time>
      </trkpt>
      <trkpt lat="43.71581" lon="3.842">
        <ele>110</ele>
        <time>2021-02-20T13:45:44Z</time>
      </trkpt>
      <trkpt lat="43.71578" lon="3.84199">
        <ele>110</ele>
        <time>2021-02-20T13:45:45Z</time>
      </trkpt>
      <trkpt lat="43.71575" lon="3.84198">
        <ele>110</ele>
        <time>2021-02-20T13:45:46Z</time>
      </trkpt>
      <trkpt lat="43.71572" lon="3.84197">
        <ele>110</ele>
        <time>2021-02-20T13:45:47Z</time>
      </trkpt>
      <trkpt lat="43.71569" lon="3.84195">
        <ele>110</ele>
        <time>2021-02-20T13:45:48Z</time>
      </trkpt>
      <trkpt lat="43.71567" lon="3.84193">
        <ele>110</ele>
        <time>2021-02-20T13:45:49Z</time>
      </trkpt>
      <trkpt lat="43.71564" lon="3.84191">
        <ele>110</ele>
        <time>2021-02-20T13:45:50Z</time>
      </trkpt>
      <trkpt lat="43.71562" lon="3.84188">
        <ele>110</ele>
        <time>2021-02-20T13:45:51Z</time>
      </trkpt>
      <trkpt lat="43.71559" lon="3.84185">
        <ele>110</ele>
        <time>2021-02-20T13:45:52Z</time>
      </trkpt>
      <trkpt lat="43.71557" lon="3.84181">
        <ele>109</ele>
        <time>2021-02-20T13:45:53Z</time>
      </trkpt>
      <trkpt lat="43.71555" lon="3.84178">
        <ele>109</ele>
        <time>2021-02-20T13:45:54Z</time>
      </trkpt>
      <trkpt lat="43.71553" lon="3.84174">
        <ele>109</ele>
        <time>2021-02-20T13:45:55Z</time>
      </trkpt>
      <trkpt lat="43.7155" lon="3.84171">
        <ele>109</ele>
        <time>2021-02-20T13:45:56Z</time>
      </trkpt>
      <trkpt lat="43.71548" lon="3.84168">
        <ele>109</ele>
        <time>2021-02-20T13:45:57Z</time>
      </trkpt>
      <trkpt lat="43.71546" lon="3.84164">
        <ele>109</ele>
        <time>2021-02-20T13:45:58Z</time>
      </trkpt>
      <trkpt lat="43.71544" lon="3.84161">
        <ele>109</ele>
        <time>2021-02-20T13:45:59Z</time>
      </trkpt>
      <trkpt lat="43.71541" lon="3.84158">
        <ele>109</ele>
        <time>2021-02-20T13:46:00Z</time>
      </trkpt>
      <trkpt lat="43.71539" lon="3.84155">
        <ele>109</ele>
        <time>2021-02-20T13:46:01Z</time>
      </trkpt>
      <trkpt lat="43.71536" lon="3.84153">
        <ele>109</ele>
        <time>2021-02-20T13:46:02Z</time>
      </trkpt>
      <trkpt lat="43.71533" lon="3.84151">
        <ele>109</ele>
        <time>2021-02-20T13:46:03Z</time>
      </trkpt>
      <trkpt lat="43.7153" lon="3.84148">
        <ele>109</ele>
        <time>2021-02-20T13:46:04Z</time>
      </trkpt>
      <trkpt lat="43.71527" lon="3.84146">
        <ele>109</ele>
        <time>2021-02-20T13:46:05Z</time>
      </trkpt>
      <trkpt lat="43.71524" lon="3.84143">
        <ele>109</ele>
        <time>2021-02-20T13:46:06Z</time>
      </trkpt>
      <trkpt lat="43.71521" lon="3.84141">
        <ele>109</ele>
        <time>2021-02-20T13:46:07Z</time>
      </trkpt>
      <trkpt lat="43.71519" lon="3.84139">
        <ele>109</ele>
        <time>2021-02-20T13:46:08Z</time>
      </trkpt>
      <trkpt lat="43.71516" lon="3.8414">
        <ele>109</ele>
        <time>2021-02-20T13:46:09Z</time>
      </trkpt>
      <trkpt lat="43.71513" lon="3.84142">
        <ele>109</ele>
        <time>2021-02-20T13:46:10Z</time>
      </trkpt>
      <trkpt lat="43.71511" lon="3.84145">
        <ele>109</ele>
        <time>2021-02-20T13:46:11Z</time>
      </trkpt>
      <trkpt lat="43.71509" lon="3.84149">
        <ele>109</ele>
        <time>2021-02-20T13:46:12Z</time>
      </trkpt>
      <trkpt lat="43.71506" lon="3.84153">
        <ele>108</ele>
        <time>2021-02-20T13:46:13Z</time>
      </trkpt>
      <trkpt lat="43.71503" lon="3.84156">
        <ele>108</ele>
        <time>2021-02-20T13:46:14Z</time>
      </trkpt>
      <trkpt lat="43.715" lon="3.8416">
        <ele>108</ele>
        <time>2021-02-20T13:46:15Z</time>
      </trkpt>
      <trkpt lat="43.71496" lon="3.84164">
        <ele>108</ele>
        <time>2021-02-20T13:46:16Z</time>
      </trkpt>
      <trkpt lat="43.71493" lon="3.84169">
        <ele>108</ele>
        <time>2021-02-20T13:46:17Z</time>
      </trkpt>
      <trkpt lat="43.71489" lon="3.84173">
        <ele>108</ele>
        <time>2021-02-20T13:46:18Z</time>
      </trkpt>
      <trkpt lat="43.71485" lon="3.84178">
        <ele>108</ele>
        <time>2021-02-20T13:46:19Z</time>
      </trkpt>
      <trkpt lat="43.71482" lon="3.84183">
        <ele>108</ele>
        <time>2021-02-20T13:46:20Z</time>
      </trkpt>
      <trkpt lat="43.71478" lon="3.84188">
        <ele>108</ele>
        <time>2021-02-20T13:46:21Z</time>
      </trkpt>
      <trkpt lat="43.71474" lon="3.84192">
        <ele>108</ele>
        <time>2021-02-20T13:46:22Z</time>
      </trkpt>
      <trkpt lat="43.7147" lon="3.84196">
        <ele>107</ele>
        <time>2021-02-20T13:46:23Z</time>
      </trkpt>
      <trkpt lat="43.71465" lon="3.84197">
        <ele>107</ele>
        <time>2021-02-20T13:46:24Z</time>
      </trkpt>
      <trkpt lat="43.71461" lon="3.84197">
        <ele>107</ele>
        <time>2021-02-20T13:46:25Z</time>
      </trkpt>
      <trkpt lat="43.71456" lon="3.84198">
        <ele>107</ele>
        <time>2021-02-20T13:46:26Z</time>
      </trkpt>
      <trkpt lat="43.71452" lon="3.84199">
        <ele>107</ele>
        <time>2021-02-20T13:46:27Z</time>
      </trkpt>
      <trkpt lat="43.71449" lon="3.84201">
        <ele>107</ele>
        <time>2021-02-20T13:46:28Z</time>
      </trkpt>
      <trkpt lat="43.71446" lon="3.84205">
        <ele>107</ele>
        <time>2021-02-20T13:46:29Z</time>
      </trkpt>
      <trkpt lat="43.71442" lon="3.84209">
        <ele>107</ele>
        <time>2021-02-20T13:46:30Z</time>
      </trkpt>
      <trkpt lat="43.7144" lon="3.84213">
        <ele>107</ele>
        <time>2021-02-20T13:46:31Z</time>
      </trkpt>
      <trkpt lat="43.71438" lon="3.84218">
        <ele>107</ele>
        <time>2021-02-20T13:46:32Z</time>
      </trkpt>
      <trkpt lat="43.71436" lon="3.84221">
        <ele>106</ele>
        <time>2021-02-20T13:46:33Z</time>
      </trkpt>
      <trkpt lat="43.71435" lon="3.84224">
        <ele>106</ele>
        <time>2021-02-20T13:46:34Z</time>
      </trkpt>
      <trkpt lat="43.71434" lon="3.84227">
        <ele>106</ele>
        <time>2021-02-20T13:46:35Z</time>
      </trkpt>
      <trkpt lat="43.71432" lon="3.8423">
        <ele>106</ele>
        <time>2021-02-20T13:46:36Z</time>
      </trkpt>
      <trkpt lat="43.71431" lon="3.84234">
        <ele>106</ele>
        <time>2021-02-20T13:46:37Z</time>
      </trkpt>
      <trkpt lat="43.71429" lon="3.84236">
        <ele>106</ele>
        <time>2021-02-20T13:46:38Z</time>
      </trkpt>
      <trkpt lat="43.71427" lon="3.84239">
        <ele>106</ele>
        <time>2021-02-20T13:46:39Z</time>
      </trkpt>
      <trkpt lat="43.71425" lon="3.84242">
        <ele>106</ele>
        <time>2021-02-20T13:46:40Z</time>
      </trkpt>
      <trkpt lat="43.71423" lon="3.84245">
        <ele>106</ele>
        <time>2021-02-20T13:46:41Z</time>
      </trkpt>
      <trkpt lat="43.71422" lon="3.84249">
        <ele>106</ele>
        <time>2021-02-20T13:46:42Z</time>
      </trkpt>
      <trkpt lat="43.71422" lon="3.84253">
        <ele>107</ele>
        <time>2021-02-20T13:46:43Z</time>
      </trkpt>
      <trkpt lat="43.71421" lon="3.84259">
        <ele>107</ele>
        <time>2021-02-20T13:46:44Z</time>
      </trkpt>
      <trkpt lat="43.7142" lon="3.84266">
        <ele>107</ele>
        <time>2021-02-20T13:46:45Z</time>
      </trkpt>
      <trkpt lat="43.7142" lon="3.84272">
        <ele>107</ele>
        <time>2021-02-20T13:46:46Z</time>
      </trkpt>
      <trkpt lat="43.71419" lon="3.84278">
        <ele>107</ele>
        <time>2021-02-20T13:46:47Z</time>
      </trkpt>
      <trkpt lat="43.71418" lon="3.84282">
        <ele>107</ele>
        <time>2021-02-20T13:46:48Z</time>
      </trkpt>
      <trkpt lat="43.71417" lon="3.84285">
        <ele>107</ele>
        <time>2021-02-20T13:46:49Z</time>
      </trkpt>
      <trkpt lat="43.71417" lon="3.84289">
        <ele>107</ele>
        <time>2021-02-20T13:46:50Z</time>
      </trkpt>
      <trkpt lat="43.71416" lon="3.84292">
        <ele>107</ele>
        <time>2021-02-20T13:46:51Z</time>
      </trkpt>
      <trkpt lat="43.71414" lon="3.84294">
        <ele>107</ele>
        <time>2021-02-20T13:46:52Z</time>
      </trkpt>
      <trkpt lat="43.71413" lon="3.84297">
        <ele>108</ele>
        <time>2021-02-20T13:46:53Z</time>
      </trkpt>
      <trkpt lat="43.71412" lon="3.84299">
        <ele>108</ele>
        <time>2021-02-20T13:46:54Z</time>
      </trkpt>
      <trkpt lat="43.71411" lon="3.84302">
        <ele>108</ele>
        <time>2021-02-20T13:46:55Z</time>
      </trkpt>
      <trkpt lat="43.7141" lon="3.84305">
        <ele>108</ele>
        <time>2021-02-20T13:46:56Z</time>
      </trkpt>
      <trkpt lat="43.71408" lon="3.84307">
        <ele>108</ele>
        <time>2021-02-20T13:46:57Z</time>
      </trkpt>
      <trkpt lat="43.71407" lon="3.8431">
        <ele>108</ele>
        <time>2021-02-20T13:46:58Z</time>
      </trkpt>
      <trkpt lat="43.71405" lon="3.84313">
        <ele>108</ele>
        <time>2021-02-20T13:46:59Z</time>
      </trkpt>
      <trkpt lat="43.71404" lon="3.84315">
        <ele>108</ele>
        <time>2021-02-20T13:47:00Z</time>
      </trkpt>
      <trkpt lat="43.71403" lon="3.84318">
        <ele>108</ele>
        <time>2021-02-20T13:47:01Z</time>
      </trkpt>
      <trkpt lat="43.71401" lon="3.8432">
        <ele>108</ele>
        <time>2021-02-20T13:47:02Z</time>
      </trkpt>
      <trkpt lat="43.714" lon="3.84322">
        <ele>109</ele>
        <time>2021-02-20T13:47:03Z</time>
      </trkpt>
      <trkpt lat="43.71398" lon="3.84324">
        <ele>109</ele>
        <time>2021-02-20T13:47:04Z</time>
      </trkpt>
      <trkpt lat="43.71397" lon="3.84326">
        <ele>109</ele>
        <time>2021-02-20T13:47:05Z</time>
      </trkpt>
      <trkpt lat="43.71396" lon="3.84328">
        <ele>109</ele>
        <time>2021-02-20T13:47:06Z</time>
      </trkpt>
      <trkpt lat="43.71394" lon="3.84333">
        <ele>109</ele>
        <time>2021-02-20T13:47:08Z</time>
      </trkpt>
      <trkpt lat="43.71392" lon="3.84337">
        <ele>109</ele>
        <time>2021-02-20T13:47:10Z</time>
      </trkpt>
      <trkpt lat="43.71391" lon="3.84341">
        <ele>109</ele>
        <time>2021-02-20T13:47:12Z</time>
      </trkpt>
      <trkpt lat="43.7139" lon="3.84343">
        <ele>111</ele>
        <time>2021-02-20T13:47:13Z</time>
      </trkpt>
      <trkpt lat="43.71388" lon="3.84348">
        <ele>111</ele>
        <time>2021-02-20T13:47:14Z</time>
      </trkpt>
      <trkpt lat="43.71387" lon="3.84355">
        <ele>111</ele>
        <time>2021-02-20T13:47:15Z</time>
      </trkpt>
      <trkpt lat="43.71385" lon="3.84363">
        <ele>111</ele>
        <time>2021-02-20T13:47:16Z</time>
      </trkpt>
      <trkpt lat="43.71383" lon="3.84372">
        <ele>111</ele>
        <time>2021-02-20T13:47:17Z</time>
      </trkpt>
      <trkpt lat="43.71382" lon="3.84381">
        <ele>111</ele>
        <time>2021-02-20T13:47:18Z</time>
      </trkpt>
      <trkpt lat="43.71381" lon="3.8439">
        <ele>111</ele>
        <time>2021-02-20T13:47:19Z</time>
      </trkpt>
      <trkpt lat="43.7138" lon="3.84398">
        <ele>111</ele>
        <time>2021-02-20T13:47:20Z</time>
      </trkpt>
      <trkpt lat="43.71379" lon="3.84404">
        <ele>111</ele>
        <time>2021-02-20T13:47:21Z</time>
      </trkpt>
      <trkpt lat="43.71378" lon="3.8441">
        <ele>111</ele>
        <time>2021-02-20T13:47:22Z</time>
      </trkpt>
      <trkpt lat="43.71378" lon="3.84414">
        <ele>111</ele>
        <time>2021-02-20T13:47:23Z</time>
      </trkpt>
      <trkpt lat="43.71377" lon="3.84417">
        <ele>111</ele>
        <time>2021-02-20T13:47:24Z</time>
      </trkpt>
      <trkpt lat="43.71377" lon="3.8442">
        <ele>111</ele>
        <time>2021-02-20T13:47:25Z</time>
      </trkpt>
      <trkpt lat="43.71376" lon="3.84423">
        <ele>111</ele>
        <time>2021-02-20T13:47:26Z</time>
      </trkpt>
      <trkpt lat="43.71376" lon="3.84425">
        <ele>111</ele>
        <time>2021-02-20T13:47:27Z</time>
      </trkpt>
      <trkpt lat="43.71376" lon="3.84428">
        <ele>111</ele>
        <time>2021-02-20T13:47:28Z</time>
      </trkpt>
      <trkpt lat="43.71377" lon="3.84432">
        <ele>111</ele>
        <time>2021-02-20T13:47:29Z</time>
      </trkpt>
      <trkpt lat="43.71377" lon="3.84437">
        <ele>111</ele>
        <time>2021-02-20T13:47:30Z</time>
      </trkpt>
      <trkpt lat="43.71378" lon="3.84443">
        <ele>111</ele>
        <time>2021-02-20T13:47:31Z</time>
      </trkpt>
      <trkpt lat="43.71377" lon="3.84449">
        <ele>111</ele>
        <time>2021-02-20T13:47:32Z</time>
      </trkpt>
      <trkpt lat="43.71376" lon="3.84454">
        <ele>111</ele>
        <time>2021-02-20T13:47:33Z</time>
      </trkpt>
      <trkpt lat="43.71373" lon="3.84458">
        <ele>111</ele>
        <time>2021-02-20T13:47:34Z</time>
      </trkpt>
      <trkpt lat="43.71371" lon="3.84461">
        <ele>111</ele>
        <time>2021-02-20T13:47:35Z</time>
      </trkpt>
      <trkpt lat="43.71368" lon="3.84463">
        <ele>111</ele>
        <time>2021-02-20T13:47:36Z</time>
      </trkpt>
      <trkpt lat="43.71366" lon="3.84466">
        <ele>111</ele>
        <time>2021-02-20T13:47:37Z</time>
      </trkpt>
      <trkpt lat="43.71364" lon="3.84469">
        <ele>111</ele>
        <time>2021-02-20T13:47:38Z</time>
      </trkpt>
      <trkpt lat="43.71362" lon="3.84471">
        <ele>111</ele>
        <time>2021-02-20T13:47:39Z</time>
      </trkpt>
      <trkpt lat="43.71361" lon="3.84474">
        <ele>111</ele>
        <time>2021-02-20T13:47:40Z</time>
      </trkpt>
      <trkpt lat="43.7136" lon="3.84477">
        <ele>111</ele>
        <time>2021-02-20T13:47:41Z</time>
      </trkpt>
      <trkpt lat="43.71358" lon="3.84481">
        <ele>111</ele>
        <time>2021-02-20T13:47:42Z</time>
      </trkpt>
      <trkpt lat="43.71357" lon="3.84487">
        <ele>110</ele>
        <time>2021-02-20T13:47:43Z</time>
      </trkpt>
      <trkpt lat="43.71355" lon="3.84492">
        <ele>110</ele>
        <time>2021-02-20T13:47:44Z</time>
      </trkpt>
      <trkpt lat="43.71355" lon="3.84498">
        <ele>110</ele>
        <time>2021-02-20T13:47:45Z</time>
      </trkpt>
      <trkpt lat="43.71354" lon="3.84505">
        <ele>110</ele>
        <time>2021-02-20T13:47:46Z</time>
      </trkpt>
      <trkpt lat="43.71352" lon="3.84512">
        <ele>110</ele>
        <time>2021-02-20T13:47:47Z</time>
      </trkpt>
      <trkpt lat="43.7135" lon="3.84519">
        <ele>110</ele>
        <time>2021-02-20T13:47:48Z</time>
      </trkpt>
      <trkpt lat="43.71348" lon="3.84527">
        <ele>110</ele>
        <time>2021-02-20T13:47:49Z</time>
      </trkpt>
      <trkpt lat="43.71346" lon="3.84534">
        <ele>110</ele>
        <time>2021-02-20T13:47:50Z</time>
      </trkpt>
      <trkpt lat="43.71345" lon="3.8454">
        <ele>110</ele>
        <time>2021-02-20T13:47:51Z</time>
      </trkpt>
      <trkpt lat="43.71344" lon="3.84544">
        <ele>110</ele>
        <time>2021-02-20T13:47:52Z</time>
      </trkpt>
      <trkpt lat="43.71343" lon="3.84547">
        <ele>110</ele>
        <time>2021-02-20T13:47:53Z</time>
      </trkpt>
      <trkpt lat="43.71344" lon="3.84551">
        <ele>110</ele>
        <time>2021-02-20T13:47:55Z</time>
      </trkpt>
      <trkpt lat="43.71345" lon="3.84554">
        <ele>110</ele>
        <time>2021-02-20T13:47:56Z</time>
      </trkpt>
      <trkpt lat="43.71345" lon="3.84557">
        <ele>110</ele>
        <time>2021-02-20T13:47:57Z</time>
      </trkpt>
      <trkpt lat="43.71345" lon="3.84559">
        <ele>110</ele>
        <time>2021-02-20T13:47:58Z</time>
      </trkpt>
      <trkpt lat="43.71346" lon="3.84562">
        <ele>110</ele>
        <time>2021-02-20T13:47:59Z</time>
      </trkpt>
      <trkpt lat="43.71346" lon="3.84565">
        <ele>110</ele>
        <time>2021-02-20T13:48:00Z</time>
      </trkpt>
      <trkpt lat="43.71345" lon="3.84568">
        <ele>110</ele>
        <time>2021-02-20T13:48:01Z</time>
      </trkpt>
      <trkpt lat="43.71345" lon="3.84572">
        <ele>110</ele>
        <time>2021-02-20T13:48:02Z</time>
      </trkpt>
      <trkpt lat="43.71345" lon="3.84574">
        <ele>108</ele>
        <time>2021-02-20T13:48:03Z</time>
      </trkpt>
      <trkpt lat="43.71344" lon="3.84578">
        <ele>108</ele>
        <time>2021-02-20T13:48:05Z</time>
      </trkpt>
      <trkpt lat="43.71343" lon="3.84583">
        <ele>108</ele>
        <time>2021-02-20T13:48:07Z</time>
      </trkpt>
      <trkpt lat="43.71342" lon="3.84587">
        <ele>108</ele>
        <time>2021-02-20T13:48:09Z</time>
      </trkpt>
      <trkpt lat="43.71342" lon="3.84592">
        <ele>108</ele>
        <time>2021-02-20T13:48:11Z</time>
      </trkpt>
      <trkpt lat="43.71342" lon="3.84596">
        <ele>107</ele>
        <time>2021-02-20T13:48:13Z</time>
      </trkpt>
      <trkpt lat="43.71342" lon="3.84601">
        <ele>107</ele>
        <time>2021-02-20T13:48:15Z</time>
      </trkpt>
      <trkpt lat="43.71342" lon="3.84604">
        <ele>107</ele>
        <time>2021-02-20T13:48:16Z</time>
      </trkpt>
      <trkpt lat="43.71342" lon="3.84607">
        <ele>107</ele>
        <time>2021-02-20T13:48:17Z</time>
      </trkpt>
      <trkpt lat="43.71341" lon="3.8461">
        <ele>107</ele>
        <time>2021-02-20T13:48:18Z</time>
      </trkpt>
      <trkpt lat="43.71341" lon="3.84614">
        <ele>107</ele>
        <time>2021-02-20T13:48:19Z</time>
      </trkpt>
      <trkpt lat="43.71341" lon="3.84618">
        <ele>107</ele>
        <time>2021-02-20T13:48:20Z</time>
      </trkpt>
      <trkpt lat="43.71341" lon="3.84624">
        <ele>107</ele>
        <time>2021-02-20T13:48:21Z</time>
      </trkpt>
      <trkpt lat="43.71341" lon="3.84629">
        <ele>107</ele>
        <time>2021-02-20T13:48:22Z</time>
      </trkpt>
      <trkpt lat="43.71341" lon="3.84633">
        <ele>104</ele>
        <time>2021-02-20T13:48:23Z</time>
      </trkpt>
      <trkpt lat="43.71341" lon="3.84638">
        <ele>104</ele>
        <time>2021-02-20T13:48:24Z</time>
      </trkpt>
      <trkpt lat="43.71341" lon="3.84642">
        <ele>104</ele>
        <time>2021-02-20T13:48:25Z</time>
      </trkpt>
      <trkpt lat="43.71341" lon="3.84646">
        <ele>104</ele>
        <time>2021-02-20T13:48:26Z</time>
      </trkpt>
      <trkpt lat="43.7134" lon="3.8465">
        <ele>104</ele>
        <time>2021-02-20T13:48:27Z</time>
      </trkpt>
      <trkpt lat="43.71339" lon="3.84652">
        <ele>104</ele>
        <time>2021-02-20T13:48:28Z</time>
      </trkpt>
      <trkpt lat="43.71337" lon="3.84652">
        <ele>104</ele>
        <time>2021-02-20T13:48:29Z</time>
      </trkpt>
      <trkpt lat="43.71335" lon="3.84651">
        <ele>104</ele>
        <time>2021-02-20T13:48:30Z</time>
      </trkpt>
      <trkpt lat="43.71332" lon="3.84649">
        <ele>104</ele>
        <time>2021-02-20T13:48:31Z</time>
      </trkpt>
      <trkpt lat="43.71328" lon="3.84645">
        <ele>104</ele>
        <time>2021-02-20T13:48:32Z</time>
      </trkpt>
      <trkpt lat="43.71325" lon="3.84641">
        <ele>101</ele>
        <time>2021-02-20T13:48:33Z</time>
      </trkpt>
      <trkpt lat="43.71321" lon="3.84635">
        <ele>101</ele>
        <time>2021-02-20T13:48:34Z</time>
      </trkpt>
      <trkpt lat="43.71316" lon="3.8463">
        <ele>101</ele>
        <time>2021-02-20T13:48:35Z</time>
      </trkpt>
      <trkpt lat="43.71312" lon="3.84626">
        <ele>101</ele>
        <time>2021-02-20T13:48:36Z</time>
      </trkpt>
      <trkpt lat="43.71308" lon="3.84622">
        <ele>101</ele>
        <time>2021-02-20T13:48:37Z</time>
      </trkpt>
      <trkpt lat="43.71303" lon="3.84618">
        <ele>101</ele>
        <time>2021-02-20T13:48:38Z</time>
      </trkpt>
      <trkpt lat="43.71299" lon="3.84614">
        <ele>101</ele>
        <time>2021-02-20T13:48:39Z</time>
      </trkpt>
      <trkpt lat="43.71295" lon="3.84609">
        <ele>101</ele>
        <time>2021-02-20T13:48:40Z</time>
      </trkpt>
      <trkpt lat="43.71291" lon="3.84605">
        <ele>101</ele>
        <time>2021-02-20T13:48:41Z</time>
      </trkpt>
      <trkpt lat="43.71288" lon="3.84601">
        <ele>101</ele>
        <time>2021-02-20T13:48:42Z</time>
      </trkpt>
      <trkpt lat="43.71285" lon="3.846">
        <ele>99</ele>
        <time>2021-02-20T13:48:43Z</time>
      </trkpt>
      <trkpt lat="43.71281" lon="3.846">
        <ele>99</ele>
        <time>2021-02-20T13:48:44Z</time>
      </trkpt>
      <trkpt lat="43.71277" lon="3.84601">
        <ele>99</ele>
        <time>2021-02-20T13:48:45Z</time>
      </trkpt>
      <trkpt lat="43.71273" lon="3.84601">
        <ele>99</ele>
        <time>2021-02-20T13:48:46Z</time>
      </trkpt>
      <trkpt lat="43.71269" lon="3.84601">
        <ele>99</ele>
        <time>2021-02-20T13:48:47Z</time>
      </trkpt>
      <trkpt lat="43.71266" lon="3.846">
        <ele>99</ele>
        <time>2021-02-20T13:48:48Z</time>
      </trkpt>
      <trkpt lat="43.71263" lon="3.84599">
        <ele>99</ele>
        <time>2021-02-20T13:48:49Z</time>
      </trkpt>
      <trkpt lat="43.7126" lon="3.84598">
        <ele>99</ele>
        <time>2021-02-20T13:48:50Z</time>
      </trkpt>
      <trkpt lat="43.71258" lon="3.84598">
        <ele>99</ele>
        <time>2021-02-20T13:48:51Z</time>
      </trkpt>
      <trkpt lat="43.71256" lon="3.84598">
        <ele>99</ele>
        <time>2021-02-20T13:48:52Z</time>
      </trkpt>
      <trkpt lat="43.71253" lon="3.84598">
        <ele>98</ele>
        <time>2021-02-20T13:48:53Z</time>
      </trkpt>
      <trkpt lat="43.71251" lon="3.84598">
        <ele>98</ele>
        <time>2021-02-20T13:48:54Z</time>
      </trkpt>
      <trkpt lat="43.71249" lon="3.84597">
        <ele>98</ele>
        <time>2021-02-20T13:48:55Z</time>
      </trkpt>
      <trkpt lat="43.71246" lon="3.84595">
        <ele>98</ele>
        <time>2021-02-20T13:48:57Z</time>
      </trkpt>
      <trkpt lat="43.71244" lon="3.84595">
        <ele>98</ele>
        <time>2021-02-20T13:48:58Z</time>
      </trkpt>
      <trkpt lat="43.71242" lon="3.84594">
        <ele>98</ele>
        <time>2021-02-20T13:48:59Z</time>
      </trkpt>
      <trkpt lat="43.7124" lon="3.84594">
        <ele>98</ele>
        <time>2021-02-20T13:49:00Z</time>
      </trkpt>
      <trkpt lat="43.71238" lon="3.84594">
        <ele>98</ele>
        <time>2021-02-20T13:49:01Z</time>
      </trkpt>
      <trkpt lat="43.71236" lon="3.84594">
        <ele>98</ele>
        <time>2021-02-20T13:49:02Z</time>
      </trkpt>
      <trkpt lat="43.71234" lon="3.84594">
        <ele>99</ele>
        <time>2021-02-20T13:49:03Z</time>
      </trkpt>
      <trkpt lat="43.71232" lon="3.84595">
        <ele>99</ele>
        <time>2021-02-20T13:49:04Z</time>
      </trkpt>
      <trkpt lat="43.7123" lon="3.84595">
        <ele>99</ele>
        <time>2021-02-20T13:49:05Z</time>
      </trkpt>
      <trkpt lat="43.71227" lon="3.84594">
        <ele>99</ele>
        <time>2021-02-20T13:49:06Z</time>
      </trkpt>
      <trkpt lat="43.71225" lon="3.84593">
        <ele>99</ele>
        <time>2021-02-20T13:49:07Z</time>
      </trkpt>
      <trkpt lat="43.71223" lon="3.84592">
        <ele>99</ele>
        <time>2021-02-20T13:49:08Z</time>
      </trkpt>
      <trkpt lat="43.7122" lon="3.84592">
        <ele>99</ele>
        <time>2021-02-20T13:49:09Z</time>
      </trkpt>
      <trkpt lat="43.71218" lon="3.8459">
        <ele>99</ele>
        <time>2021-02-20T13:49:10Z</time>
      </trkpt>
      <trkpt lat="43.71216" lon="3.84588">
        <ele>99</ele>
        <time>2021-02-20T13:49:11Z</time>
      </trkpt>
      <trkpt lat="43.71214" lon="3.84584">
        <ele>99</ele>
        <time>2021-02-20T13:49:12Z</time>
      </trkpt>
      <trkpt lat="43.71213" lon="3.84581">
        <ele>99</ele>
        <time>2021-02-20T13:49:13Z</time>
      </trkpt>
      <trkpt lat="43.71212" lon="3.84579">
        <ele>99</ele>
        <time>2021-02-20T13:49:14Z</time>
      </trkpt>
      <trkpt lat="43.7121" lon="3.84576">
        <ele>99</ele>
        <time>2021-02-20T13:49:16Z</time>
      </trkpt>
      <trkpt lat="43.71208" lon="3.84574">
        <ele>99</ele>
        <time>2021-02-20T13:49:17Z</time>
      </trkpt>
      <trkpt lat="43.71205" lon="3.84571">
        <ele>99</ele>
        <time>2021-02-20T13:49:18Z</time>
      </trkpt>
      <trkpt lat="43.71203" lon="3.84568">
        <ele>99</ele>
        <time>2021-02-20T13:49:19Z</time>
      </trkpt>
      <trkpt lat="43.71201" lon="3.84566">
        <ele>99</ele>
        <time>2021-02-20T13:49:20Z</time>
      </trkpt>
      <trkpt lat="43.712" lon="3.84564">
        <ele>99</ele>
        <time>2021-02-20T13:49:22Z</time>
      </trkpt>
      <trkpt lat="43.71199" lon="3.84564">
        <ele>98</ele>
        <time>2021-02-20T13:49:30Z</time>
      </trkpt>
      <trkpt lat="43.71194" lon="3.84577">
        <ele>96</ele>
        <time>2021-02-20T13:50:03Z</time>
      </trkpt>
      <trkpt lat="43.71194" lon="3.84581">
        <ele>96</ele>
        <time>2021-02-20T13:50:04Z</time>
      </trkpt>
      <trkpt lat="43.71194" lon="3.84586">
        <ele>96</ele>
        <time>2021-02-20T13:50:05Z</time>
      </trkpt>
      <trkpt lat="43.71195" lon="3.84591">
        <ele>96</ele>
        <time>2021-02-20T13:50:06Z</time>
      </trkpt>
      <trkpt lat="43.71196" lon="3.84596">
        <ele>96</ele>
        <time>2021-02-20T13:50:07Z</time>
      </trkpt>
      <trkpt lat="43.71196" lon="3.84601">
        <ele>96</ele>
        <time>2021-02-20T13:50:08Z</time>
      </trkpt>
      <trkpt lat="43.71195" lon="3.84607">
        <ele>96</ele>
        <time>2021-02-20T13:50:09Z</time>
      </trkpt>
      <trkpt lat="43.71195" lon="3.84613">
        <ele>96</ele>
        <time>2021-02-20T13:50:10Z</time>
      </trkpt>
      <trkpt lat="43.71194" lon="3.84618">
        <ele>96</ele>
        <time>2021-02-20T13:50:11Z</time>
      </trkpt>
      <trkpt lat="43.71194" lon="3.84623">
        <ele>96</ele>
        <time>2021-02-20T13:50:12Z</time>
      </trkpt>
      <trkpt lat="43.71194" lon="3.84626">
        <ele>96</ele>
        <time>2021-02-20T13:50:13Z</time>
      </trkpt>
      <trkpt lat="43.71194" lon="3.84629">
        <ele>96</ele>
        <time>2021-02-20T13:50:14Z</time>
      </trkpt>
      <trkpt lat="43.71194" lon="3.84633">
        <ele>96</ele>
        <time>2021-02-20T13:50:15Z</time>
      </trkpt>
      <trkpt lat="43.71194" lon="3.84636">
        <ele>96</ele>
        <time>2021-02-20T13:50:16Z</time>
      </trkpt>
      <trkpt lat="43.71194" lon="3.84642">
        <ele>96</ele>
        <time>2021-02-20T13:50:17Z</time>
      </trkpt>
      <trkpt lat="43.71194" lon="3.84647">
        <ele>96</ele>
        <time>2021-02-20T13:50:18Z</time>
      </trkpt>
      <trkpt lat="43.71194" lon="3.84651">
        <ele>96</ele>
        <time>2021-02-20T13:50:19Z</time>
      </trkpt>
      <trkpt lat="43.71193" lon="3.84655">
        <ele>96</ele>
        <time>2021-02-20T13:50:20Z</time>
      </trkpt>
      <trkpt lat="43.71193" lon="3.84659">
        <ele>96</ele>
        <time>2021-02-20T13:50:22Z</time>
      </trkpt>
      <trkpt lat="43.71195" lon="3.84663">
        <ele>96</ele>
        <time>2021-02-20T13:50:24Z</time>
      </trkpt>
      <trkpt lat="43.71195" lon="3.84665">
        <ele>96</ele>
        <time>2021-02-20T13:50:25Z</time>
      </trkpt>
      <trkpt lat="43.71194" lon="3.84668">
        <ele>96</ele>
        <time>2021-02-20T13:50:26Z</time>
      </trkpt>
      <trkpt lat="43.71193" lon="3.84671">
        <ele>96</ele>
        <time>2021-02-20T13:50:27Z</time>
      </trkpt>
      <trkpt lat="43.71192" lon="3.84674">
        <ele>96</ele>
        <time>2021-02-20T13:50:28Z</time>
      </trkpt>
      <trkpt lat="43.71192" lon="3.84679">
        <ele>96</ele>
        <time>2021-02-20T13:50:29Z</time>
      </trkpt>
      <trkpt lat="43.71194" lon="3.84686">
        <ele>96</ele>
        <time>2021-02-20T13:50:30Z</time>
      </trkpt>
      <trkpt lat="43.71196" lon="3.84691">
        <ele>96</ele>
        <time>2021-02-20T13:50:31Z</time>
      </trkpt>
      <trkpt lat="43.71199" lon="3.84695">
        <ele>96</ele>
        <time>2021-02-20T13:50:32Z</time>
      </trkpt>
      <trkpt lat="43.71203" lon="3.84698">
        <ele>94</ele>
        <time>2021-02-20T13:50:33Z</time>
      </trkpt>
      <trkpt lat="43.71206" lon="3.84699">
        <ele>94</ele>
        <time>2021-02-20T13:50:34Z</time>
      </trkpt>
      <trkpt lat="43.71209" lon="3.84701">
        <ele>94</ele>
        <time>2021-02-20T13:50:35Z</time>
      </trkpt>
      <trkpt lat="43.71212" lon="3.84704">
        <ele>94</ele>
        <time>2021-02-20T13:50:36Z</time>
      </trkpt>
      <trkpt lat="43.71215" lon="3.84706">
        <ele>94</ele>
        <time>2021-02-20T13:50:37Z</time>
      </trkpt>
      <trkpt lat="43.71217" lon="3.8471">
        <ele>94</ele>
        <time>2021-02-20T13:50:38Z</time>
      </trkpt>
      <trkpt lat="43.71219" lon="3.84714">
        <ele>94</ele>
        <time>2021-02-20T13:50:39Z</time>
      </trkpt>
      <trkpt lat="43.71221" lon="3.84717">
        <ele>94</ele>
        <time>2021-02-20T13:50:40Z</time>
      </trkpt>
      <trkpt lat="43.71223" lon="3.8472">
        <ele>94</ele>
        <time>2021-02-20T13:50:41Z</time>
      </trkpt>
      <trkpt lat="43.71224" lon="3.84723">
        <ele>94</ele>
        <time>2021-02-20T13:50:42Z</time>
      </trkpt>
      <trkpt lat="43.71225" lon="3.84725">
        <ele>91</ele>
        <time>2021-02-20T13:50:43Z</time>
      </trkpt>
      <trkpt lat="43.71226" lon="3.84728">
        <ele>91</ele>
        <time>2021-02-20T13:50:44Z</time>
      </trkpt>
      <trkpt lat="43.71226" lon="3.84731">
        <ele>91</ele>
        <time>2021-02-20T13:50:45Z</time>
      </trkpt>
      <trkpt lat="43.71225" lon="3.84735">
        <ele>91</ele>
        <time>2021-02-20T13:50:46Z</time>
      </trkpt>
      <trkpt lat="43.71225" lon="3.84738">
        <ele>91</ele>
        <time>2021-02-20T13:50:47Z</time>
      </trkpt>
      <trkpt lat="43.71225" lon="3.84741">
        <ele>91</ele>
        <time>2021-02-20T13:50:48Z</time>
      </trkpt>
      <trkpt lat="43.71225" lon="3.84747">
        <ele>91</ele>
        <time>2021-02-20T13:50:49Z</time>
      </trkpt>
      <trkpt lat="43.71226" lon="3.84755">
        <ele>91</ele>
        <time>2021-02-20T13:50:50Z</time>
      </trkpt>
      <trkpt lat="43.71227" lon="3.84762">
        <ele>91</ele>
        <time>2021-02-20T13:50:51Z</time>
      </trkpt>
      <trkpt lat="43.71229" lon="3.8477">
        <ele>91</ele>
        <time>2021-02-20T13:50:52Z</time>
      </trkpt>
      <trkpt lat="43.71232" lon="3.84776">
        <ele>89</ele>
        <time>2021-02-20T13:50:53Z</time>
      </trkpt>
      <trkpt lat="43.71235" lon="3.84781">
        <ele>89</ele>
        <time>2021-02-20T13:50:54Z</time>
      </trkpt>
      <trkpt lat="43.71239" lon="3.84783">
        <ele>89</ele>
        <time>2021-02-20T13:50:55Z</time>
      </trkpt>
      <trkpt lat="43.71243" lon="3.84786">
        <ele>89</ele>
        <time>2021-02-20T13:50:56Z</time>
      </trkpt>
      <trkpt lat="43.71246" lon="3.84787">
        <ele>89</ele>
        <time>2021-02-20T13:50:57Z</time>
      </trkpt>
      <trkpt lat="43.7125" lon="3.84789">
        <ele>89</ele>
        <time>2021-02-20T13:50:58Z</time>
      </trkpt>
      <trkpt lat="43.71253" lon="3.84789">
        <ele>89</ele>
        <time>2021-02-20T13:50:59Z</time>
      </trkpt>
      <trkpt lat="43.71256" lon="3.8479">
        <ele>89</ele>
        <time>2021-02-20T13:51:00Z</time>
      </trkpt>
      <trkpt lat="43.7126" lon="3.8479">
        <ele>89</ele>
        <time>2021-02-20T13:51:01Z</time>
      </trkpt>
      <trkpt lat="43.71263" lon="3.8479">
        <ele>89</ele>
        <time>2021-02-20T13:51:02Z</time>
      </trkpt>
      <trkpt lat="43.71266" lon="3.8479">
        <ele>87</ele>
        <time>2021-02-20T13:51:03Z</time>
      </trkpt>
      <trkpt lat="43.7127" lon="3.8479">
        <ele>87</ele>
        <time>2021-02-20T13:51:04Z</time>
      </trkpt>
      <trkpt lat="43.71274" lon="3.84791">
        <ele>87</ele>
        <time>2021-02-20T13:51:05Z</time>
      </trkpt>
      <trkpt lat="43.71277" lon="3.84792">
        <ele>87</ele>
        <time>2021-02-20T13:51:06Z</time>
      </trkpt>
      <trkpt lat="43.7128" lon="3.84793">
        <ele>87</ele>
        <time>2021-02-20T13:51:07Z</time>
      </trkpt>
      <trkpt lat="43.71283" lon="3.84794">
        <ele>87</ele>
        <time>2021-02-20T13:51:08Z</time>
      </trkpt>
      <trkpt lat="43.71286" lon="3.84795">
        <ele>87</ele>
        <time>2021-02-20T13:51:09Z</time>
      </trkpt>
      <trkpt lat="43.71289" lon="3.84797">
        <ele>87</ele>
        <time>2021-02-20T13:51:10Z</time>
      </trkpt>
      <trkpt lat="43.71291" lon="3.84799">
        <ele>87</ele>
        <time>2021-02-20T13:51:11Z</time>
      </trkpt>
      <trkpt lat="43.71294" lon="3.84801">
        <ele>87</ele>
        <time>2021-02-20T13:51:12Z</time>
      </trkpt>
      <trkpt lat="43.71297" lon="3.84802">
        <ele>86</ele>
        <time>2021-02-20T13:51:13Z</time>
      </trkpt>
      <trkpt lat="43.71299" lon="3.84803">
        <ele>86</ele>
        <time>2021-02-20T13:51:14Z</time>
      </trkpt>
      <trkpt lat="43.71302" lon="3.84805">
        <ele>86</ele>
        <time>2021-02-20T13:51:15Z</time>
      </trkpt>
      <trkpt lat="43.71304" lon="3.84804">
        <ele>86</ele>
        <time>2021-02-20T13:51:16Z</time>
      </trkpt>
      <trkpt lat="43.71307" lon="3.84804">
        <ele>86</ele>
        <time>2021-02-20T13:51:17Z</time>
      </trkpt>
      <trkpt lat="43.71309" lon="3.84803">
        <ele>86</ele>
        <time>2021-02-20T13:51:18Z</time>
      </trkpt>
      <trkpt lat="43.71311" lon="3.84802">
        <ele>86</ele>
        <time>2021-02-20T13:51:19Z</time>
      </trkpt>
      <trkpt lat="43.71314" lon="3.84802">
        <ele>86</ele>
        <time>2021-02-20T13:51:20Z</time>
      </trkpt>
      <trkpt lat="43.71316" lon="3.84801">
        <ele>86</ele>
        <time>2021-02-20T13:51:21Z</time>
      </trkpt>
      <trkpt lat="43.71319" lon="3.848">
        <ele>86</ele>
        <time>2021-02-20T13:51:22Z</time>
      </trkpt>
      <trkpt lat="43.71324" lon="3.84797">
        <ele>85</ele>
        <time>2021-02-20T13:51:24Z</time>
      </trkpt>
      <trkpt lat="43.71326" lon="3.84795">
        <ele>85</ele>
        <time>2021-02-20T13:51:25Z</time>
      </trkpt>
      <trkpt lat="43.71329" lon="3.84794">
        <ele>85</ele>
        <time>2021-02-20T13:51:26Z</time>
      </trkpt>
      <trkpt lat="43.71331" lon="3.84793">
        <ele>85</ele>
        <time>2021-02-20T13:51:27Z</time>
      </trkpt>
      <trkpt lat="43.71333" lon="3.84791">
        <ele>85</ele>
        <time>2021-02-20T13:51:28Z</time>
      </trkpt>
      <trkpt lat="43.71335" lon="3.8479">
        <ele>85</ele>
        <time>2021-02-20T13:51:29Z</time>
      </trkpt>
      <trkpt lat="43.71337" lon="3.84789">
        <ele>85</ele>
        <time>2021-02-20T13:51:30Z</time>
      </trkpt>
      <trkpt lat="43.7134" lon="3.84788">
        <ele>85</ele>
        <time>2021-02-20T13:51:31Z</time>
      </trkpt>
      <trkpt lat="43.71342" lon="3.84787">
        <ele>85</ele>
        <time>2021-02-20T13:51:32Z</time>
      </trkpt>
      <trkpt lat="43.71344" lon="3.84786">
        <ele>85</ele>
        <time>2021-02-20T13:51:33Z</time>
      </trkpt>
      <trkpt lat="43.71346" lon="3.84784">
        <ele>85</ele>
        <time>2021-02-20T13:51:34Z</time>
      </trkpt>
      <trkpt lat="43.71348" lon="3.84783">
        <ele>85</ele>
        <time>2021-02-20T13:51:35Z</time>
      </trkpt>
      <trkpt lat="43.71351" lon="3.84782">
        <ele>85</ele>
        <time>2021-02-20T13:51:37Z</time>
      </trkpt>
      <trkpt lat="43.71352" lon="3.8478">
        <ele>85</ele>
        <time>2021-02-20T13:51:39Z</time>
      </trkpt>
      <trkpt lat="43.71354" lon="3.8478">
        <ele>85</ele>
        <time>2021-02-20T13:51:41Z</time>
      </trkpt>
      <trkpt lat="43.71356" lon="3.84779">
        <ele>85</ele>
        <time>2021-02-20T13:51:43Z</time>
      </trkpt>
      <trkpt lat="43.71358" lon="3.84778">
        <ele>85</ele>
        <time>2021-02-20T13:51:44Z</time>
      </trkpt>
      <trkpt lat="43.71361" lon="3.84776">
        <ele>85</ele>
        <time>2021-02-20T13:51:46Z</time>
      </trkpt>
      <trkpt lat="43.71363" lon="3.84773">
        <ele>85</ele>
        <time>2021-02-20T13:51:48Z</time>
      </trkpt>
      <trkpt lat="43.71365" lon="3.8477">
        <ele>85</ele>
        <time>2021-02-20T13:51:50Z</time>
      </trkpt>
      <trkpt lat="43.71368" lon="3.84767">
        <ele>85</ele>
        <time>2021-02-20T13:51:52Z</time>
      </trkpt>
      <trkpt lat="43.7137" lon="3.84766">
        <ele>86</ele>
        <time>2021-02-20T13:51:53Z</time>
      </trkpt>
      <trkpt lat="43.71372" lon="3.84764">
        <ele>86</ele>
        <time>2021-02-20T13:51:55Z</time>
      </trkpt>
      <trkpt lat="43.71374" lon="3.84762">
        <ele>86</ele>
        <time>2021-02-20T13:51:57Z</time>
      </trkpt>
      <trkpt lat="43.71376" lon="3.84762">
        <ele>87</ele>
        <time>2021-02-20T13:52:03Z</time>
      </trkpt>
      <trkpt lat="43.71379" lon="3.84762">
        <ele>87</ele>
        <time>2021-02-20T13:52:05Z</time>
      </trkpt>
      <trkpt lat="43.71381" lon="3.84761">
        <ele>87</ele>
        <time>2021-02-20T13:52:06Z</time>
      </trkpt>
      <trkpt lat="43.71382" lon="3.84761">
        <ele>87</ele>
        <time>2021-02-20T13:52:07Z</time>
      </trkpt>
      <trkpt lat="43.71385" lon="3.84761">
        <ele>87</ele>
        <time>2021-02-20T13:52:08Z</time>
      </trkpt>
      <trkpt lat="43.71387" lon="3.84761">
        <ele>87</ele>
        <time>2021-02-20T13:52:09Z</time>
      </trkpt>
      <trkpt lat="43.71388" lon="3.8476">
        <ele>87</ele>
        <time>2021-02-20T13:52:10Z</time>
      </trkpt>
      <trkpt lat="43.7139" lon="3.84759">
        <ele>87</ele>
        <time>2021-02-20T13:52:11Z</time>
      </trkpt>
      <trkpt lat="43.71392" lon="3.84759">
        <ele>87</ele>
        <time>2021-02-20T13:52:12Z</time>
      </trkpt>
      <trkpt lat="43.71395" lon="3.8476">
        <ele>87</ele>
        <time>2021-02-20T13:52:13Z</time>
      </trkpt>
      <trkpt lat="43.71397" lon="3.84762">
        <ele>89</ele>
        <time>2021-02-20T13:52:14Z</time>
      </trkpt>
      <trkpt lat="43.71398" lon="3.84763">
        <ele>89</ele>
        <time>2021-02-20T13:52:15Z</time>
      </trkpt>
      <trkpt lat="43.714" lon="3.84765">
        <ele>89</ele>
        <time>2021-02-20T13:52:16Z</time>
      </trkpt>
      <trkpt lat="43.71402" lon="3.84766">
        <ele>89</ele>
        <time>2021-02-20T13:52:17Z</time>
      </trkpt>
      <trkpt lat="43.71404" lon="3.84767">
        <ele>89</ele>
        <time>2021-02-20T13:52:18Z</time>
      </trkpt>
      <trkpt lat="43.71406" lon="3.84768">
        <ele>89</ele>
        <time>2021-02-20T13:52:19Z</time>
      </trkpt>
      <trkpt lat="43.71408" lon="3.84769">
        <ele>89</ele>
        <time>2021-02-20T13:52:20Z</time>
      </trkpt>
      <trkpt lat="43.7141" lon="3.84769">
        <ele>89</ele>
        <time>2021-02-20T13:52:21Z</time>
      </trkpt>
      <trkpt lat="43.71413" lon="3.8477">
        <ele>89</ele>
        <time>2021-02-20T13:52:23Z</time>
      </trkpt>
      <trkpt lat="43.71416" lon="3.84772">
        <ele>89</ele>
        <time>2021-02-20T13:52:25Z</time>
      </trkpt>
      <trkpt lat="43.71419" lon="3.84774">
        <ele>89</ele>
        <time>2021-02-20T13:52:27Z</time>
      </trkpt>
      <trkpt lat="43.71421" lon="3.84775">
        <ele>89</ele>
        <time>2021-02-20T13:52:28Z</time>
      </trkpt>
      <trkpt lat="43.71424" lon="3.84775">
        <ele>89</ele>
        <time>2021-02-20T13:52:29Z</time>
      </trkpt>
      <trkpt lat="43.71427" lon="3.84775">
        <ele>89</ele>
        <time>2021-02-20T13:52:30Z</time>
      </trkpt>
      <trkpt lat="43.7143" lon="3.84775">
        <ele>89</ele>
        <time>2021-02-20T13:52:31Z</time>
      </trkpt>
      <trkpt lat="43.71434" lon="3.84776">
        <ele>89</ele>
        <time>2021-02-20T13:52:32Z</time>
      </trkpt>
      <trkpt lat="43.71437" lon="3.84776">
        <ele>89</ele>
        <time>2021-02-20T13:52:33Z</time>
      </trkpt>
      <trkpt lat="43.71439" lon="3.84777">
        <ele>89</ele>
        <time>2021-02-20T13:52:34Z</time>
      </trkpt>
      <trkpt lat="43.71441" lon="3.84778">
        <ele>89</ele>
        <time>2021-02-20T13:52:35Z</time>
      </trkpt>
      <trkpt lat="43.71444" lon="3.84778">
        <ele>89</ele>
        <time>2021-02-20T13:52:36Z</time>
      </trkpt>
      <trkpt lat="43.71446" lon="3.84779">
        <ele>89</ele>
        <time>2021-02-20T13:52:37Z</time>
      </trkpt>
      <trkpt lat="43.71448" lon="3.84779">
        <ele>89</ele>
        <time>2021-02-20T13:52:38Z</time>
      </trkpt>
      <trkpt lat="43.7145" lon="3.8478">
        <ele>89</ele>
        <time>2021-02-20T13:52:39Z</time>
      </trkpt>
      <trkpt lat="43.71454" lon="3.8478">
        <ele>89</ele>
        <time>2021-02-20T13:52:41Z</time>
      </trkpt>
      <trkpt lat="43.71456" lon="3.84781">
        <ele>88</ele>
        <time>2021-02-20T13:52:43Z</time>
      </trkpt>
      <trkpt lat="43.71458" lon="3.8478">
        <ele>88</ele>
        <time>2021-02-20T13:52:46Z</time>
      </trkpt>
      <trkpt lat="43.71461" lon="3.84779">
        <ele>88</ele>
        <time>2021-02-20T13:52:49Z</time>
      </trkpt>
      <trkpt lat="43.71463" lon="3.84779">
        <ele>88</ele>
        <time>2021-02-20T13:52:51Z</time>
      </trkpt>
      <trkpt lat="43.71465" lon="3.8478">
        <ele>87</ele>
        <time>2021-02-20T13:52:53Z</time>
      </trkpt>
      <trkpt lat="43.71469" lon="3.84781">
        <ele>87</ele>
        <time>2021-02-20T13:52:55Z</time>
      </trkpt>
      <trkpt lat="43.71471" lon="3.84779">
        <ele>87</ele>
        <time>2021-02-20T13:52:57Z</time>
      </trkpt>
      <trkpt lat="43.71472" lon="3.84776">
        <ele>87</ele>
        <time>2021-02-20T13:52:59Z</time>
      </trkpt>
      <trkpt lat="43.71473" lon="3.84771">
        <ele>87</ele>
        <time>2021-02-20T13:53:01Z</time>
      </trkpt>
      <trkpt lat="43.71473" lon="3.84767">
        <ele>87</ele>
        <time>2021-02-20T13:53:03Z</time>
      </trkpt>
      <trkpt lat="43.71474" lon="3.84765">
        <ele>87</ele>
        <time>2021-02-20T13:53:04Z</time>
      </trkpt>
      <trkpt lat="43.71474" lon="3.84761">
        <ele>87</ele>
        <time>2021-02-20T13:53:06Z</time>
      </trkpt>
      <trkpt lat="43.71475" lon="3.84757">
        <ele>87</ele>
        <time>2021-02-20T13:53:08Z</time>
      </trkpt>
      <trkpt lat="43.71475" lon="3.84754">
        <ele>87</ele>
        <time>2021-02-20T13:53:10Z</time>
      </trkpt>
      <trkpt lat="43.71475" lon="3.84751">
        <ele>87</ele>
        <time>2021-02-20T13:53:12Z</time>
      </trkpt>
      <trkpt lat="43.71475" lon="3.84748">
        <ele>87</ele>
        <time>2021-02-20T13:53:14Z</time>
      </trkpt>
      <trkpt lat="43.71475" lon="3.84743">
        <ele>87</ele>
        <time>2021-02-20T13:53:16Z</time>
      </trkpt>
      <trkpt lat="43.71476" lon="3.84739">
        <ele>87</ele>
        <time>2021-02-20T13:53:18Z</time>
      </trkpt>
      <trkpt lat="43.71477" lon="3.84734">
        <ele>87</ele>
        <time>2021-02-20T13:53:20Z</time>
      </trkpt>
      <trkpt lat="43.71477" lon="3.8473">
        <ele>87</ele>
        <time>2021-02-20T13:53:22Z</time>
      </trkpt>
      <trkpt lat="43.71477" lon="3.84727">
        <ele>87</ele>
        <time>2021-02-20T13:53:24Z</time>
      </trkpt>
      <trkpt lat="43.71477" lon="3.84724">
        <ele>87</ele>
        <time>2021-02-20T13:53:26Z</time>
      </trkpt>
      <trkpt lat="43.71478" lon="3.84721">
        <ele>87</ele>
        <time>2021-02-20T13:53:28Z</time>
      </trkpt>
      <trkpt lat="43.71479" lon="3.84718">
        <ele>87</ele>
        <time>2021-02-20T13:53:30Z</time>
      </trkpt>
      <trkpt lat="43.7148" lon="3.84713">
        <ele>87</ele>
        <time>2021-02-20T13:53:32Z</time>
      </trkpt>
      <trkpt lat="43.71481" lon="3.8471">
        <ele>87</ele>
        <time>2021-02-20T13:53:34Z</time>
      </trkpt>
      <trkpt lat="43.71482" lon="3.84706">
        <ele>87</ele>
        <time>2021-02-20T13:53:36Z</time>
      </trkpt>
      <trkpt lat="43.71483" lon="3.84702">
        <ele>87</ele>
        <time>2021-02-20T13:53:38Z</time>
      </trkpt>
      <trkpt lat="43.71483" lon="3.84699">
        <ele>87</ele>
        <time>2021-02-20T13:53:40Z</time>
      </trkpt>
      <trkpt lat="43.71482" lon="3.84695">
        <ele>87</ele>
        <time>2021-02-20T13:53:42Z</time>
      </trkpt>
      <trkpt lat="43.71479" lon="3.84687">
        <ele>99</ele>
        <time>2021-02-20T13:54:37Z</time>
      </trkpt>
      <trkpt lat="43.71478" lon="3.84687">
        <ele>99</ele>
        <time>2021-02-20T13:54:38Z</time>
      </trkpt>
      <trkpt lat="43.71475" lon="3.84685">
        <ele>99</ele>
        <time>2021-02-20T13:54:40Z</time>
      </trkpt>
      <trkpt lat="43.71474" lon="3.84682">
        <ele>99</ele>
        <time>2021-02-20T13:54:42Z</time>
      </trkpt>
      <trkpt lat="43.71475" lon="3.84677">
        <ele>99</ele>
        <time>2021-02-20T13:54:44Z</time>
      </trkpt>
      <trkpt lat="43.71476" lon="3.84672">
        <ele>99</ele>
        <time>2021-02-20T13:54:46Z</time>
      </trkpt>
      <trkpt lat="43.71475" lon="3.84669">
        <ele>99</ele>
        <time>2021-02-20T13:54:48Z</time>
      </trkpt>
      <trkpt lat="43.71473" lon="3.84668">
        <ele>99</ele>
        <time>2021-02-20T13:54:50Z</time>
      </trkpt>
      <trkpt lat="43.71471" lon="3.84667">
        <ele>99</ele>
        <time>2021-02-20T13:54:52Z</time>
      </trkpt>
      <trkpt lat="43.71473" lon="3.84668">
        <ele>101</ele>
        <time>2021-02-20T13:55:02Z</time>
      </trkpt>
      <trkpt lat="43.71463" lon="3.84671">
        <ele>101</ele>
        <time>2021-02-20T13:55:18Z</time>
      </trkpt>
      <trkpt lat="43.71461" lon="3.8467">
        <ele>101</ele>
        <time>2021-02-20T13:55:19Z</time>
      </trkpt>
      <trkpt lat="43.71458" lon="3.84669">
        <ele>101</ele>
        <time>2021-02-20T13:55:20Z</time>
      </trkpt>
      <trkpt lat="43.71455" lon="3.84669">
        <ele>101</ele>
        <time>2021-02-20T13:55:21Z</time>
      </trkpt>
      <trkpt lat="43.71453" lon="3.84668">
        <ele>101</ele>
        <time>2021-02-20T13:55:22Z</time>
      </trkpt>
      <trkpt lat="43.7145" lon="3.84669">
        <ele>101</ele>
        <time>2021-02-20T13:55:23Z</time>
      </trkpt>
      <trkpt lat="43.71447" lon="3.84669">
        <ele>101</ele>
        <time>2021-02-20T13:55:24Z</time>
      </trkpt>
      <trkpt lat="43.71444" lon="3.84669">
        <ele>101</ele>
        <time>2021-02-20T13:55:25Z</time>
      </trkpt>
      <trkpt lat="43.71442" lon="3.84668">
        <ele>101</ele>
        <time>2021-02-20T13:55:26Z</time>
      </trkpt>
      <trkpt lat="43.7144" lon="3.84668">
        <ele>102</ele>
        <time>2021-02-20T13:55:27Z</time>
      </trkpt>
      <trkpt lat="43.71438" lon="3.84667">
        <ele>102</ele>
        <time>2021-02-20T13:55:28Z</time>
      </trkpt>
      <trkpt lat="43.71436" lon="3.84667">
        <ele>102</ele>
        <time>2021-02-20T13:55:29Z</time>
      </trkpt>
      <trkpt lat="43.71434" lon="3.84667">
        <ele>102</ele>
        <time>2021-02-20T13:55:30Z</time>
      </trkpt>
      <trkpt lat="43.71432" lon="3.84667">
        <ele>102</ele>
        <time>2021-02-20T13:55:31Z</time>
      </trkpt>
      <trkpt lat="43.71429" lon="3.84666">
        <ele>102</ele>
        <time>2021-02-20T13:55:32Z</time>
      </trkpt>
      <trkpt lat="43.71427" lon="3.84665">
        <ele>102</ele>
        <time>2021-02-20T13:55:33Z</time>
      </trkpt>
      <trkpt lat="43.71425" lon="3.84665">
        <ele>102</ele>
        <time>2021-02-20T13:55:34Z</time>
      </trkpt>
      <trkpt lat="43.71422" lon="3.84665">
        <ele>102</ele>
        <time>2021-02-20T13:55:35Z</time>
      </trkpt>
      <trkpt lat="43.7142" lon="3.84664">
        <ele>102</ele>
        <time>2021-02-20T13:55:36Z</time>
      </trkpt>
      <trkpt lat="43.71418" lon="3.84664">
        <ele>102</ele>
        <time>2021-02-20T13:55:37Z</time>
      </trkpt>
      <trkpt lat="43.71416" lon="3.84663">
        <ele>102</ele>
        <time>2021-02-20T13:55:38Z</time>
      </trkpt>
      <trkpt lat="43.71413" lon="3.84662">
        <ele>102</ele>
        <time>2021-02-20T13:55:39Z</time>
      </trkpt>
      <trkpt lat="43.71411" lon="3.84661">
        <ele>102</ele>
        <time>2021-02-20T13:55:40Z</time>
      </trkpt>
      <trkpt lat="43.71408" lon="3.84661">
        <ele>102</ele>
        <time>2021-02-20T13:55:41Z</time>
      </trkpt>
      <trkpt lat="43.71406" lon="3.84661">
        <ele>102</ele>
        <time>2021-02-20T13:55:42Z</time>
      </trkpt>
      <trkpt lat="43.71404" lon="3.84661">
        <ele>102</ele>
        <time>2021-02-20T13:55:43Z</time>
      </trkpt>
      <trkpt lat="43.71401" lon="3.8466">
        <ele>102</ele>
        <time>2021-02-20T13:55:44Z</time>
      </trkpt>
      <trkpt lat="43.71399" lon="3.8466">
        <ele>102</ele>
        <time>2021-02-20T13:55:45Z</time>
      </trkpt>
      <trkpt lat="43.71397" lon="3.84659">
        <ele>102</ele>
        <time>2021-02-20T13:55:46Z</time>
      </trkpt>
      <trkpt lat="43.71394" lon="3.84659">
        <ele>103</ele>
        <time>2021-02-20T13:55:47Z</time>
      </trkpt>
      <trkpt lat="43.71392" lon="3.84658">
        <ele>103</ele>
        <time>2021-02-20T13:55:48Z</time>
      </trkpt>
      <trkpt lat="43.7139" lon="3.84657">
        <ele>103</ele>
        <time>2021-02-20T13:55:49Z</time>
      </trkpt>
      <trkpt lat="43.71388" lon="3.84657">
        <ele>103</ele>
        <time>2021-02-20T13:55:50Z</time>
      </trkpt>
      <trkpt lat="43.71385" lon="3.84656">
        <ele>103</ele>
        <time>2021-02-20T13:55:51Z</time>
      </trkpt>
      <trkpt lat="43.71383" lon="3.84656">
        <ele>103</ele>
        <time>2021-02-20T13:55:52Z</time>
      </trkpt>
      <trkpt lat="43.7138" lon="3.84655">
        <ele>103</ele>
        <time>2021-02-20T13:55:53Z</time>
      </trkpt>
      <trkpt lat="43.71378" lon="3.84654">
        <ele>103</ele>
        <time>2021-02-20T13:55:54Z</time>
      </trkpt>
      <trkpt lat="43.71375" lon="3.84653">
        <ele>103</ele>
        <time>2021-02-20T13:55:55Z</time>
      </trkpt>
      <trkpt lat="43.71373" lon="3.84652">
        <ele>103</ele>
        <time>2021-02-20T13:55:56Z</time>
      </trkpt>
      <trkpt lat="43.71371" lon="3.84652">
        <ele>103</ele>
        <time>2021-02-20T13:55:57Z</time>
      </trkpt>
      <trkpt lat="43.71369" lon="3.84651">
        <ele>103</ele>
        <time>2021-02-20T13:55:58Z</time>
      </trkpt>
      <trkpt lat="43.71366" lon="3.84649">
        <ele>103</ele>
        <time>2021-02-20T13:55:59Z</time>
      </trkpt>
      <trkpt lat="43.71364" lon="3.84648">
        <ele>103</ele>
        <time>2021-02-20T13:56:00Z</time>
      </trkpt>
      <trkpt lat="43.71362" lon="3.84647">
        <ele>103</ele>
        <time>2021-02-20T13:56:01Z</time>
      </trkpt>
      <trkpt lat="43.7136" lon="3.84645">
        <ele>103</ele>
        <time>2021-02-20T13:56:02Z</time>
      </trkpt>
      <trkpt lat="43.71358" lon="3.84643">
        <ele>103</ele>
        <time>2021-02-20T13:56:03Z</time>
      </trkpt>
      <trkpt lat="43.71356" lon="3.84642">
        <ele>103</ele>
        <time>2021-02-20T13:56:04Z</time>
      </trkpt>
      <trkpt lat="43.71354" lon="3.84639">
        <ele>103</ele>
        <time>2021-02-20T13:56:05Z</time>
      </trkpt>
      <trkpt lat="43.71352" lon="3.84637">
        <ele>103</ele>
        <time>2021-02-20T13:56:06Z</time>
      </trkpt>
      <trkpt lat="43.7135" lon="3.84635">
        <ele>103</ele>
        <time>2021-02-20T13:56:07Z</time>
      </trkpt>
      <trkpt lat="43.71349" lon="3.84632">
        <ele>103</ele>
        <time>2021-02-20T13:56:08Z</time>
      </trkpt>
      <trkpt lat="43.71347" lon="3.84629">
        <ele>103</ele>
        <time>2021-02-20T13:56:09Z</time>
      </trkpt>
      <trkpt lat="43.71347" lon="3.84627">
        <ele>103</ele>
        <time>2021-02-20T13:56:10Z</time>
      </trkpt>
      <trkpt lat="43.71346" lon="3.84624">
        <ele>103</ele>
        <time>2021-02-20T13:56:11Z</time>
      </trkpt>
      <trkpt lat="43.71346" lon="3.84621">
        <ele>103</ele>
        <time>2021-02-20T13:56:12Z</time>
      </trkpt>
      <trkpt lat="43.71346" lon="3.84618">
        <ele>103</ele>
        <time>2021-02-20T13:56:13Z</time>
      </trkpt>
      <trkpt lat="43.71346" lon="3.84615">
        <ele>103</ele>
        <time>2021-02-20T13:56:14Z</time>
      </trkpt>
      <trkpt lat="43.71346" lon="3.84611">
        <ele>103</ele>
        <time>2021-02-20T13:56:15Z</time>
      </trkpt>
      <trkpt lat="43.71345" lon="3.84608">
        <ele>103</ele>
        <time>2021-02-20T13:56:16Z</time>
      </trkpt>
      <trkpt lat="43.71345" lon="3.84604">
        <ele>102</ele>
        <time>2021-02-20T13:56:17Z</time>
      </trkpt>
      <trkpt lat="43.71345" lon="3.846">
        <ele>102</ele>
        <time>2021-02-20T13:56:18Z</time>
      </trkpt>
      <trkpt lat="43.71345" lon="3.84595">
        <ele>102</ele>
        <time>2021-02-20T13:56:19Z</time>
      </trkpt>
      <trkpt lat="43.71345" lon="3.84591">
        <ele>102</ele>
        <time>2021-02-20T13:56:20Z</time>
      </trkpt>
      <trkpt lat="43.71345" lon="3.84587">
        <ele>102</ele>
        <time>2021-02-20T13:56:21Z</time>
      </trkpt>
      <trkpt lat="43.71345" lon="3.84583">
        <ele>102</ele>
        <time>2021-02-20T13:56:22Z</time>
      </trkpt>
      <trkpt lat="43.71345" lon="3.84579">
        <ele>102</ele>
        <time>2021-02-20T13:56:23Z</time>
      </trkpt>
      <trkpt lat="43.71345" lon="3.84575">
        <ele>102</ele>
        <time>2021-02-20T13:56:24Z</time>
      </trkpt>
      <trkpt lat="43.71345" lon="3.84571">
        <ele>102</ele>
        <time>2021-02-20T13:56:25Z</time>
      </trkpt>
      <trkpt lat="43.71345" lon="3.84567">
        <ele>102</ele>
        <time>2021-02-20T13:56:26Z</time>
      </trkpt>
      <trkpt lat="43.71345" lon="3.84563">
        <ele>102</ele>
        <time>2021-02-20T13:56:27Z</time>
      </trkpt>
      <trkpt lat="43.71345" lon="3.84559">
        <ele>102</ele>
        <time>2021-02-20T13:56:28Z</time>
      </trkpt>
      <trkpt lat="43.71345" lon="3.84555">
        <ele>102</ele>
        <time>2021-02-20T13:56:29Z</time>
      </trkpt>
      <trkpt lat="43.71344" lon="3.84551">
        <ele>102</ele>
        <time>2021-02-20T13:56:30Z</time>
      </trkpt>
      <trkpt lat="43.71344" lon="3.84547">
        <ele>102</ele>
        <time>2021-02-20T13:56:31Z</time>
      </trkpt>
      <trkpt lat="43.71344" lon="3.84543">
        <ele>102</ele>
        <time>2021-02-20T13:56:32Z</time>
      </trkpt>
      <trkpt lat="43.71344" lon="3.84539">
        <ele>102</ele>
        <time>2021-02-20T13:56:33Z</time>
      </trkpt>
      <trkpt lat="43.71343" lon="3.84536">
        <ele>102</ele>
        <time>2021-02-20T13:56:34Z</time>
      </trkpt>
      <trkpt lat="43.71342" lon="3.84532">
        <ele>102</ele>
        <time>2021-02-20T13:56:35Z</time>
      </trkpt>
      <trkpt lat="43.7134" lon="3.8453">
        <ele>102</ele>
        <time>2021-02-20T13:56:36Z</time>
      </trkpt>
      <trkpt lat="43.71339" lon="3.84528">
        <ele>102</ele>
        <time>2021-02-20T13:56:37Z</time>
      </trkpt>
      <trkpt lat="43.71337" lon="3.84527">
        <ele>102</ele>
        <time>2021-02-20T13:56:38Z</time>
      </trkpt>
      <trkpt lat="43.71335" lon="3.84525">
        <ele>102</ele>
        <time>2021-02-20T13:56:39Z</time>
      </trkpt>
      <trkpt lat="43.71333" lon="3.84524">
        <ele>102</ele>
        <time>2021-02-20T13:56:40Z</time>
      </trkpt>
      <trkpt lat="43.71331" lon="3.84523">
        <ele>102</ele>
        <time>2021-02-20T13:56:41Z</time>
      </trkpt>
      <trkpt lat="43.71328" lon="3.84522">
        <ele>102</ele>
        <time>2021-02-20T13:56:42Z</time>
      </trkpt>
      <trkpt lat="43.71326" lon="3.84522">
        <ele>102</ele>
        <time>2021-02-20T13:56:43Z</time>
      </trkpt>
      <trkpt lat="43.71323" lon="3.84522">
        <ele>102</ele>
        <time>2021-02-20T13:56:44Z</time>
      </trkpt>
      <trkpt lat="43.7132" lon="3.84523">
        <ele>102</ele>
        <time>2021-02-20T13:56:45Z</time>
      </trkpt>
      <trkpt lat="43.71317" lon="3.84523">
        <ele>102</ele>
        <time>2021-02-20T13:56:46Z</time>
      </trkpt>
      <trkpt lat="43.71314" lon="3.84523">
        <ele>101</ele>
        <time>2021-02-20T13:56:47Z</time>
      </trkpt>
      <trkpt lat="43.71312" lon="3.84523">
        <ele>101</ele>
        <time>2021-02-20T13:56:48Z</time>
      </trkpt>
      <trkpt lat="43.71309" lon="3.84523">
        <ele>101</ele>
        <time>2021-02-20T13:56:49Z</time>
      </trkpt>
      <trkpt lat="43.71306" lon="3.84524">
        <ele>101</ele>
        <time>2021-02-20T13:56:50Z</time>
      </trkpt>
      <trkpt lat="43.71303" lon="3.84525">
        <ele>101</ele>
        <time>2021-02-20T13:56:51Z</time>
      </trkpt>
      <trkpt lat="43.71301" lon="3.84526">
        <ele>101</ele>
        <time>2021-02-20T13:56:52Z</time>
      </trkpt>
      <trkpt lat="43.71298" lon="3.84527">
        <ele>101</ele>
        <time>2021-02-20T13:56:53Z</time>
      </trkpt>
      <trkpt lat="43.71295" lon="3.84528">
        <ele>101</ele>
        <time>2021-02-20T13:56:54Z</time>
      </trkpt>
      <trkpt lat="43.71292" lon="3.8453">
        <ele>101</ele>
        <time>2021-02-20T13:56:55Z</time>
      </trkpt>
      <trkpt lat="43.71289" lon="3.84531">
        <ele>101</ele>
        <time>2021-02-20T13:56:56Z</time>
      </trkpt>
      <trkpt lat="43.71286" lon="3.84532">
        <ele>100</ele>
        <time>2021-02-20T13:56:57Z</time>
      </trkpt>
      <trkpt lat="43.71283" lon="3.84533">
        <ele>100</ele>
        <time>2021-02-20T13:56:58Z</time>
      </trkpt>
      <trkpt lat="43.7128" lon="3.84533">
        <ele>100</ele>
        <time>2021-02-20T13:56:59Z</time>
      </trkpt>
      <trkpt lat="43.71277" lon="3.84534">
        <ele>100</ele>
        <time>2021-02-20T13:57:00Z</time>
      </trkpt>
      <trkpt lat="43.71274" lon="3.84535">
        <ele>100</ele>
        <time>2021-02-20T13:57:01Z</time>
      </trkpt>
      <trkpt lat="43.71271" lon="3.84536">
        <ele>100</ele>
        <time>2021-02-20T13:57:02Z</time>
      </trkpt>
      <trkpt lat="43.71268" lon="3.84537">
        <ele>100</ele>
        <time>2021-02-20T13:57:03Z</time>
      </trkpt>
      <trkpt lat="43.71265" lon="3.84538">
        <ele>100</ele>
        <time>2021-02-20T13:57:04Z</time>
      </trkpt>
      <trkpt lat="43.71261" lon="3.84539">
        <ele>100</ele>
        <time>2021-02-20T13:57:05Z</time>
      </trkpt>
      <trkpt lat="43.71258" lon="3.8454">
        <ele>100</ele>
        <time>2021-02-20T13:57:06Z</time>
      </trkpt>
      <trkpt lat="43.71255" lon="3.84541">
        <ele>101</ele>
        <time>2021-02-20T13:57:07Z</time>
      </trkpt>
      <trkpt lat="43.71251" lon="3.84542">
        <ele>101</ele>
        <time>2021-02-20T13:57:08Z</time>
      </trkpt>
      <trkpt lat="43.71248" lon="3.84543">
        <ele>101</ele>
        <time>2021-02-20T13:57:09Z</time>
      </trkpt>
      <trkpt lat="43.71245" lon="3.84543">
        <ele>101</ele>
        <time>2021-02-20T13:57:10Z</time>
      </trkpt>
      <trkpt lat="43.71242" lon="3.84543">
        <ele>101</ele>
        <time>2021-02-20T13:57:11Z</time>
      </trkpt>
      <trkpt lat="43.71239" lon="3.84543">
        <ele>101</ele>
        <time>2021-02-20T13:57:12Z</time>
      </trkpt>
      <trkpt lat="43.71236" lon="3.84543">
        <ele>101</ele>
        <time>2021-02-20T13:57:13Z</time>
      </trkpt>
      <trkpt lat="43.71233" lon="3.84543">
        <ele>101</ele>
        <time>2021-02-20T13:57:14Z</time>
      </trkpt>
      <trkpt lat="43.7123" lon="3.84542">
        <ele>101</ele>
        <time>2021-02-20T13:57:15Z</time>
      </trkpt>
      <trkpt lat="43.71228" lon="3.84541">
        <ele>101</ele>
        <time>2021-02-20T13:57:16Z</time>
      </trkpt>
      <trkpt lat="43.71225" lon="3.84538">
        <ele>101</ele>
        <time>2021-02-20T13:57:17Z</time>
      </trkpt>
      <trkpt lat="43.71223" lon="3.84535">
        <ele>101</ele>
        <time>2021-02-20T13:57:18Z</time>
      </trkpt>
      <trkpt lat="43.71222" lon="3.84531">
        <ele>101</ele>
        <time>2021-02-20T13:57:19Z</time>
      </trkpt>
      <trkpt lat="43.7122" lon="3.84527">
        <ele>101</ele>
        <time>2021-02-20T13:57:20Z</time>
      </trkpt>
      <trkpt lat="43.71219" lon="3.84524">
        <ele>101</ele>
        <time>2021-02-20T13:57:21Z</time>
      </trkpt>
      <trkpt lat="43.71218" lon="3.8452">
        <ele>101</ele>
        <time>2021-02-20T13:57:22Z</time>
      </trkpt>
      <trkpt lat="43.71217" lon="3.84516">
        <ele>101</ele>
        <time>2021-02-20T13:57:23Z</time>
      </trkpt>
      <trkpt lat="43.71216" lon="3.84511">
        <ele>101</ele>
        <time>2021-02-20T13:57:24Z</time>
      </trkpt>
      <trkpt lat="43.71215" lon="3.84507">
        <ele>101</ele>
        <time>2021-02-20T13:57:25Z</time>
      </trkpt>
      <trkpt lat="43.71215" lon="3.84503">
        <ele>101</ele>
        <time>2021-02-20T13:57:26Z</time>
      </trkpt>
      <trkpt lat="43.71214" lon="3.84499">
        <ele>100</ele>
        <time>2021-02-20T13:57:27Z</time>
      </trkpt>
      <trkpt lat="43.71214" lon="3.84495">
        <ele>100</ele>
        <time>2021-02-20T13:57:28Z</time>
      </trkpt>
      <trkpt lat="43.71214" lon="3.8449">
        <ele>100</ele>
        <time>2021-02-20T13:57:29Z</time>
      </trkpt>
      <trkpt lat="43.71213" lon="3.84486">
        <ele>100</ele>
        <time>2021-02-20T13:57:30Z</time>
      </trkpt>
      <trkpt lat="43.71213" lon="3.84481">
        <ele>100</ele>
        <time>2021-02-20T13:57:31Z</time>
      </trkpt>
      <trkpt lat="43.71213" lon="3.84477">
        <ele>100</ele>
        <time>2021-02-20T13:57:32Z</time>
      </trkpt>
      <trkpt lat="43.71212" lon="3.84473">
        <ele>100</ele>
        <time>2021-02-20T13:57:33Z</time>
      </trkpt>
      <trkpt lat="43.71212" lon="3.84468">
        <ele>100</ele>
        <time>2021-02-20T13:57:34Z</time>
      </trkpt>
      <trkpt lat="43.71212" lon="3.84464">
        <ele>100</ele>
        <time>2021-02-20T13:57:35Z</time>
      </trkpt>
      <trkpt lat="43.71213" lon="3.84459">
        <ele>100</ele>
        <time>2021-02-20T13:57:36Z</time>
      </trkpt>
      <trkpt lat="43.71214" lon="3.84455">
        <ele>100</ele>
        <time>2021-02-20T13:57:37Z</time>
      </trkpt>
      <trkpt lat="43.71216" lon="3.84451">
        <ele>100</ele>
        <time>2021-02-20T13:57:38Z</time>
      </trkpt>
      <trkpt lat="43.71217" lon="3.84447">
        <ele>100</ele>
        <time>2021-02-20T13:57:39Z</time>
      </trkpt>
      <trkpt lat="43.71219" lon="3.84443">
        <ele>100</ele>
        <time>2021-02-20T13:57:40Z</time>
      </trkpt>
      <trkpt lat="43.71222" lon="3.84439">
        <ele>100</ele>
        <time>2021-02-20T13:57:41Z</time>
      </trkpt>
      <trkpt lat="43.71225" lon="3.84436">
        <ele>100</ele>
        <time>2021-02-20T13:57:42Z</time>
      </trkpt>
      <trkpt lat="43.71227" lon="3.84433">
        <ele>100</ele>
        <time>2021-02-20T13:57:43Z</time>
      </trkpt>
      <trkpt lat="43.7123" lon="3.84432">
        <ele>100</ele>
        <time>2021-02-20T13:57:44Z</time>
      </trkpt>
      <trkpt lat="43.71233" lon="3.8443">
        <ele>100</ele>
        <time>2021-02-20T13:57:45Z</time>
      </trkpt>
      <trkpt lat="43.71235" lon="3.8443">
        <ele>100</ele>
        <time>2021-02-20T13:57:46Z</time>
      </trkpt>
      <trkpt lat="43.71237" lon="3.84429">
        <ele>100</ele>
        <time>2021-02-20T13:57:48Z</time>
      </trkpt>
      <trkpt lat="43.71238" lon="3.84425">
        <ele>100</ele>
        <time>2021-02-20T13:57:50Z</time>
      </trkpt>
      <trkpt lat="43.71237" lon="3.84423">
        <ele>100</ele>
        <time>2021-02-20T13:57:51Z</time>
      </trkpt>
      <trkpt lat="43.71236" lon="3.8442">
        <ele>100</ele>
        <time>2021-02-20T13:57:52Z</time>
      </trkpt>
      <trkpt lat="43.71236" lon="3.84416">
        <ele>100</ele>
        <time>2021-02-20T13:57:53Z</time>
      </trkpt>
      <trkpt lat="43.71235" lon="3.84412">
        <ele>100</ele>
        <time>2021-02-20T13:57:54Z</time>
      </trkpt>
      <trkpt lat="43.71235" lon="3.84409">
        <ele>100</ele>
        <time>2021-02-20T13:57:55Z</time>
      </trkpt>
      <trkpt lat="43.71235" lon="3.84405">
        <ele>100</ele>
        <time>2021-02-20T13:57:56Z</time>
      </trkpt>
      <trkpt lat="43.71235" lon="3.84401">
        <ele>97</ele>
        <time>2021-02-20T13:57:57Z</time>
      </trkpt>
      <trkpt lat="43.71236" lon="3.84397">
        <ele>97</ele>
        <time>2021-02-20T13:57:58Z</time>
      </trkpt>
      <trkpt lat="43.71236" lon="3.84393">
        <ele>97</ele>
        <time>2021-02-20T13:57:59Z</time>
      </trkpt>
      <trkpt lat="43.71237" lon="3.84389">
        <ele>97</ele>
        <time>2021-02-20T13:58:00Z</time>
      </trkpt>
      <trkpt lat="43.71237" lon="3.84386">
        <ele>97</ele>
        <time>2021-02-20T13:58:01Z</time>
      </trkpt>
      <trkpt lat="43.71238" lon="3.84382">
        <ele>97</ele>
        <time>2021-02-20T13:58:02Z</time>
      </trkpt>
      <trkpt lat="43.71238" lon="3.84378">
        <ele>97</ele>
        <time>2021-02-20T13:58:03Z</time>
      </trkpt>
      <trkpt lat="43.71237" lon="3.84374">
        <ele>97</ele>
        <time>2021-02-20T13:58:04Z</time>
      </trkpt>
      <trkpt lat="43.71237" lon="3.84369">
        <ele>97</ele>
        <time>2021-02-20T13:58:05Z</time>
      </trkpt>
      <trkpt lat="43.71235" lon="3.84365">
        <ele>97</ele>
        <time>2021-02-20T13:58:06Z</time>
      </trkpt>
      <trkpt lat="43.71234" lon="3.84361">
        <ele>96</ele>
        <time>2021-02-20T13:58:07Z</time>
      </trkpt>
      <trkpt lat="43.71232" lon="3.84359">
        <ele>96</ele>
        <time>2021-02-20T13:58:08Z</time>
      </trkpt>
      <trkpt lat="43.7123" lon="3.84356">
        <ele>96</ele>
        <time>2021-02-20T13:58:09Z</time>
      </trkpt>
      <trkpt lat="43.71228" lon="3.84353">
        <ele>96</ele>
        <time>2021-02-20T13:58:10Z</time>
      </trkpt>
      <trkpt lat="43.71226" lon="3.84348">
        <ele>96</ele>
        <time>2021-02-20T13:58:11Z</time>
      </trkpt>
      <trkpt lat="43.71223" lon="3.84343">
        <ele>96</ele>
        <time>2021-02-20T13:58:12Z</time>
      </trkpt>
      <trkpt lat="43.7122" lon="3.84336">
        <ele>96</ele>
        <time>2021-02-20T13:58:13Z</time>
      </trkpt>
      <trkpt lat="43.71216" lon="3.8433">
        <ele>96</ele>
        <time>2021-02-20T13:58:14Z</time>
      </trkpt>
      <trkpt lat="43.71211" lon="3.84325">
        <ele>96</ele>
        <time>2021-02-20T13:58:15Z</time>
      </trkpt>
      <trkpt lat="43.71206" lon="3.84321">
        <ele>96</ele>
        <time>2021-02-20T13:58:16Z</time>
      </trkpt>
      <trkpt lat="43.71201" lon="3.84319">
        <ele>93</ele>
        <time>2021-02-20T13:58:17Z</time>
      </trkpt>
      <trkpt lat="43.71197" lon="3.84319">
        <ele>93</ele>
        <time>2021-02-20T13:58:18Z</time>
      </trkpt>
      <trkpt lat="43.71193" lon="3.84321">
        <ele>93</ele>
        <time>2021-02-20T13:58:19Z</time>
      </trkpt>
      <trkpt lat="43.7119" lon="3.84322">
        <ele>93</ele>
        <time>2021-02-20T13:58:20Z</time>
      </trkpt>
      <trkpt lat="43.71188" lon="3.84323">
        <ele>93</ele>
        <time>2021-02-20T13:58:21Z</time>
      </trkpt>
      <trkpt lat="43.71185" lon="3.84325">
        <ele>93</ele>
        <time>2021-02-20T13:58:22Z</time>
      </trkpt>
      <trkpt lat="43.71182" lon="3.84327">
        <ele>93</ele>
        <time>2021-02-20T13:58:23Z</time>
      </trkpt>
      <trkpt lat="43.7118" lon="3.84329">
        <ele>93</ele>
        <time>2021-02-20T13:58:24Z</time>
      </trkpt>
      <trkpt lat="43.71178" lon="3.84331">
        <ele>93</ele>
        <time>2021-02-20T13:58:25Z</time>
      </trkpt>
      <trkpt lat="43.71176" lon="3.84333">
        <ele>93</ele>
        <time>2021-02-20T13:58:26Z</time>
      </trkpt>
      <trkpt lat="43.71175" lon="3.84335">
        <ele>92</ele>
        <time>2021-02-20T13:58:27Z</time>
      </trkpt>
      <trkpt lat="43.71174" lon="3.84338">
        <ele>92</ele>
        <time>2021-02-20T13:58:28Z</time>
      </trkpt>
      <trkpt lat="43.71172" lon="3.8434">
        <ele>92</ele>
        <time>2021-02-20T13:58:29Z</time>
      </trkpt>
      <trkpt lat="43.7117" lon="3.84341">
        <ele>92</ele>
        <time>2021-02-20T13:58:30Z</time>
      </trkpt>
      <trkpt lat="43.71169" lon="3.84343">
        <ele>92</ele>
        <time>2021-02-20T13:58:31Z</time>
      </trkpt>
      <trkpt lat="43.71167" lon="3.84343">
        <ele>92</ele>
        <time>2021-02-20T13:58:32Z</time>
      </trkpt>
      <trkpt lat="43.71165" lon="3.84344">
        <ele>92</ele>
        <time>2021-02-20T13:58:33Z</time>
      </trkpt>
      <trkpt lat="43.71163" lon="3.84345">
        <ele>92</ele>
        <time>2021-02-20T13:58:34Z</time>
      </trkpt>
      <trkpt lat="43.7116" lon="3.84346">
        <ele>92</ele>
        <time>2021-02-20T13:58:36Z</time>
      </trkpt>
      <trkpt lat="43.71156" lon="3.84346">
        <ele>92</ele>
        <time>2021-02-20T13:58:38Z</time>
      </trkpt>
      <trkpt lat="43.71153" lon="3.84346">
        <ele>92</ele>
        <time>2021-02-20T13:58:40Z</time>
      </trkpt>
      <trkpt lat="43.7115" lon="3.84346">
        <ele>92</ele>
        <time>2021-02-20T13:58:42Z</time>
      </trkpt>
      <trkpt lat="43.71147" lon="3.84345">
        <ele>92</ele>
        <time>2021-02-20T13:58:44Z</time>
      </trkpt>
      <trkpt lat="43.71144" lon="3.84344">
        <ele>92</ele>
        <time>2021-02-20T13:58:46Z</time>
      </trkpt>
      <trkpt lat="43.71141" lon="3.84343">
        <ele>92</ele>
        <time>2021-02-20T13:58:48Z</time>
      </trkpt>
      <trkpt lat="43.71139" lon="3.8434">
        <ele>92</ele>
        <time>2021-02-20T13:58:50Z</time>
      </trkpt>
      <trkpt lat="43.71137" lon="3.84337">
        <ele>92</ele>
        <time>2021-02-20T13:58:52Z</time>
      </trkpt>
      <trkpt lat="43.71134" lon="3.84334">
        <ele>92</ele>
        <time>2021-02-20T13:58:54Z</time>
      </trkpt>
      <trkpt lat="43.71132" lon="3.8433">
        <ele>92</ele>
        <time>2021-02-20T13:58:56Z</time>
      </trkpt>
      <trkpt lat="43.7113" lon="3.84326">
        <ele>92</ele>
        <time>2021-02-20T13:58:58Z</time>
      </trkpt>
      <trkpt lat="43.71129" lon="3.84322">
        <ele>92</ele>
        <time>2021-02-20T13:59:00Z</time>
      </trkpt>
      <trkpt lat="43.71127" lon="3.84319">
        <ele>92</ele>
        <time>2021-02-20T13:59:02Z</time>
      </trkpt>
      <trkpt lat="43.71126" lon="3.84315">
        <ele>92</ele>
        <time>2021-02-20T13:59:04Z</time>
      </trkpt>
      <trkpt lat="43.71124" lon="3.84311">
        <ele>92</ele>
        <time>2021-02-20T13:59:06Z</time>
      </trkpt>
      <trkpt lat="43.71122" lon="3.84308">
        <ele>92</ele>
        <time>2021-02-20T13:59:08Z</time>
      </trkpt>
      <trkpt lat="43.7112" lon="3.84304">
        <ele>92</ele>
        <time>2021-02-20T13:59:10Z</time>
      </trkpt>
      <trkpt lat="43.71118" lon="3.843">
        <ele>92</ele>
        <time>2021-02-20T13:59:12Z</time>
      </trkpt>
      <trkpt lat="43.71116" lon="3.84297">
        <ele>92</ele>
        <time>2021-02-20T13:59:14Z</time>
      </trkpt>
      <trkpt lat="43.71114" lon="3.84293">
        <ele>92</ele>
        <time>2021-02-20T13:59:16Z</time>
      </trkpt>
      <trkpt lat="43.71113" lon="3.8429">
        <ele>92</ele>
        <time>2021-02-20T13:59:18Z</time>
      </trkpt>
      <trkpt lat="43.7111" lon="3.84287">
        <ele>92</ele>
        <time>2021-02-20T13:59:20Z</time>
      </trkpt>
      <trkpt lat="43.71108" lon="3.84284">
        <ele>92</ele>
        <time>2021-02-20T13:59:22Z</time>
      </trkpt>
      <trkpt lat="43.71106" lon="3.84281">
        <ele>92</ele>
        <time>2021-02-20T13:59:24Z</time>
      </trkpt>
      <trkpt lat="43.71104" lon="3.84277">
        <ele>92</ele>
        <time>2021-02-20T13:59:26Z</time>
      </trkpt>
      <trkpt lat="43.71102" lon="3.84275">
        <ele>92</ele>
        <time>2021-02-20T13:59:28Z</time>
      </trkpt>
      <trkpt lat="43.71101" lon="3.84271">
        <ele>92</ele>
        <time>2021-02-20T13:59:30Z</time>
      </trkpt>
      <trkpt lat="43.711" lon="3.84267">
        <ele>92</ele>
        <time>2021-02-20T13:59:32Z</time>
      </trkpt>
      <trkpt lat="43.71099" lon="3.84264">
        <ele>92</ele>
        <time>2021-02-20T13:59:34Z</time>
      </trkpt>
      <trkpt lat="43.71097" lon="3.84261">
        <ele>92</ele>
        <time>2021-02-20T13:59:36Z</time>
      </trkpt>
      <trkpt lat="43.71095" lon="3.84257">
        <ele>92</ele>
        <time>2021-02-20T13:59:38Z</time>
      </trkpt>
      <trkpt lat="43.71094" lon="3.84254">
        <ele>92</ele>
        <time>2021-02-20T13:59:40Z</time>
      </trkpt>
      <trkpt lat="43.71093" lon="3.84251">
        <ele>92</ele>
        <time>2021-02-20T13:59:42Z</time>
      </trkpt>
      <trkpt lat="43.71092" lon="3.84248">
        <ele>92</ele>
        <time>2021-02-20T13:59:44Z</time>
      </trkpt>
      <trkpt lat="43.71091" lon="3.84245">
        <ele>92</ele>
        <time>2021-02-20T13:59:46Z</time>
      </trkpt>
      <trkpt lat="43.7109" lon="3.84242">
        <ele>92</ele>
        <time>2021-02-20T13:59:48Z</time>
      </trkpt>
      <trkpt lat="43.71088" lon="3.8424">
        <ele>92</ele>
        <time>2021-02-20T13:59:50Z</time>
      </trkpt>
      <trkpt lat="43.71086" lon="3.84236">
        <ele>92</ele>
        <time>2021-02-20T13:59:52Z</time>
      </trkpt>
      <trkpt lat="43.71085" lon="3.84233">
        <ele>92</ele>
        <time>2021-02-20T13:59:54Z</time>
      </trkpt>
      <trkpt lat="43.71084" lon="3.8423">
        <ele>92</ele>
        <time>2021-02-20T13:59:56Z</time>
      </trkpt>
      <trkpt lat="43.71083" lon="3.84225">
        <ele>92</ele>
        <time>2021-02-20T13:59:58Z</time>
      </trkpt>
      <trkpt lat="43.71082" lon="3.84222">
        <ele>92</ele>
        <time>2021-02-20T14:00:00Z</time>
      </trkpt>
      <trkpt lat="43.71082" lon="3.84218">
        <ele>92</ele>
        <time>2021-02-20T14:00:02Z</time>
      </trkpt>
      <trkpt lat="43.7108" lon="3.84215">
        <ele>92</ele>
        <time>2021-02-20T14:00:04Z</time>
      </trkpt>
      <trkpt lat="43.71078" lon="3.84212">
        <ele>92</ele>
        <time>2021-02-20T14:00:06Z</time>
      </trkpt>
      <trkpt lat="43.71077" lon="3.84209">
        <ele>92</ele>
        <time>2021-02-20T14:00:08Z</time>
      </trkpt>
      <trkpt lat="43.71077" lon="3.84206">
        <ele>92</ele>
        <time>2021-02-20T14:00:10Z</time>
      </trkpt>
      <trkpt lat="43.71077" lon="3.84202">
        <ele>92</ele>
        <time>2021-02-20T14:00:12Z</time>
      </trkpt>
      <trkpt lat="43.71077" lon="3.84199">
        <ele>92</ele>
        <time>2021-02-20T14:00:14Z</time>
      </trkpt>
      <trkpt lat="43.71076" lon="3.84197">
        <ele>92</ele>
        <time>2021-02-20T14:00:16Z</time>
      </trkpt>
      <trkpt lat="43.71075" lon="3.84193">
        <ele>92</ele>
        <time>2021-02-20T14:00:18Z</time>
      </trkpt>
      <trkpt lat="43.71075" lon="3.8419">
        <ele>92</ele>
        <time>2021-02-20T14:00:20Z</time>
      </trkpt>
      <trkpt lat="43.71076" lon="3.84188">
        <ele>92</ele>
        <time>2021-02-20T14:00:22Z</time>
      </trkpt>
      <trkpt lat="43.71076" lon="3.84185">
        <ele>92</ele>
        <time>2021-02-20T14:00:24Z</time>
      </trkpt>
      <trkpt lat="43.71075" lon="3.84181">
        <ele>92</ele>
        <time>2021-02-20T14:00:26Z</time>
      </trkpt>
      <trkpt lat="43.71074" lon="3.84178">
        <ele>92</ele>
        <time>2021-02-20T14:00:28Z</time>
      </trkpt>
      <trkpt lat="43.71073" lon="3.84175">
        <ele>92</ele>
        <time>2021-02-20T14:00:30Z</time>
      </trkpt>
      <trkpt lat="43.71071" lon="3.84172">
        <ele>92</ele>
        <time>2021-02-20T14:00:32Z</time>
      </trkpt>
      <trkpt lat="43.7107" lon="3.84169">
        <ele>92</ele>
        <time>2021-02-20T14:00:34Z</time>
      </trkpt>
      <trkpt lat="43.71068" lon="3.84165">
        <ele>92</ele>
        <time>2021-02-20T14:00:36Z</time>
      </trkpt>
      <trkpt lat="43.71067" lon="3.84161">
        <ele>92</ele>
        <time>2021-02-20T14:00:38Z</time>
      </trkpt>
      <trkpt lat="43.71065" lon="3.84158">
        <ele>92</ele>
        <time>2021-02-20T14:00:40Z</time>
      </trkpt>
      <trkpt lat="43.71064" lon="3.84155">
        <ele>92</ele>
        <time>2021-02-20T14:00:42Z</time>
      </trkpt>
      <trkpt lat="43.71063" lon="3.84151">
        <ele>92</ele>
        <time>2021-02-20T14:00:44Z</time>
      </trkpt>
      <trkpt lat="43.71062" lon="3.84148">
        <ele>92</ele>
        <time>2021-02-20T14:00:46Z</time>
      </trkpt>
      <trkpt lat="43.7106" lon="3.84145">
        <ele>92</ele>
        <time>2021-02-20T14:00:48Z</time>
      </trkpt>
      <trkpt lat="43.71058" lon="3.84141">
        <ele>92</ele>
        <time>2021-02-20T14:00:50Z</time>
      </trkpt>
      <trkpt lat="43.71057" lon="3.84137">
        <ele>92</ele>
        <time>2021-02-20T14:00:52Z</time>
      </trkpt>
      <trkpt lat="43.71055" lon="3.84134">
        <ele>92</ele>
        <time>2021-02-20T14:00:54Z</time>
      </trkpt>
      <trkpt lat="43.71053" lon="3.84132">
        <ele>92</ele>
        <time>2021-02-20T14:00:55Z</time>
      </trkpt>
      <trkpt lat="43.71051" lon="3.84129">
        <ele>92</ele>
        <time>2021-02-20T14:00:56Z</time>
      </trkpt>
      <trkpt lat="43.7105" lon="3.84127">
        <ele>108</ele>
        <time>2021-02-20T14:00:57Z</time>
      </trkpt>
      <trkpt lat="43.71049" lon="3.84125">
        <ele>108</ele>
        <time>2021-02-20T14:00:58Z</time>
      </trkpt>
      <trkpt lat="43.71046" lon="3.84121">
        <ele>108</ele>
        <time>2021-02-20T14:01:00Z</time>
      </trkpt>
      <trkpt lat="43.71044" lon="3.84118">
        <ele>108</ele>
        <time>2021-02-20T14:01:02Z</time>
      </trkpt>
      <trkpt lat="43.71042" lon="3.84115">
        <ele>108</ele>
        <time>2021-02-20T14:01:04Z</time>
      </trkpt>
      <trkpt lat="43.7104" lon="3.84112">
        <ele>108</ele>
        <time>2021-02-20T14:01:06Z</time>
      </trkpt>
      <trkpt lat="43.71038" lon="3.84109">
        <ele>108</ele>
        <time>2021-02-20T14:01:08Z</time>
      </trkpt>
      <trkpt lat="43.71036" lon="3.84105">
        <ele>108</ele>
        <time>2021-02-20T14:01:10Z</time>
      </trkpt>
      <trkpt lat="43.71034" lon="3.84102">
        <ele>108</ele>
        <time>2021-02-20T14:01:12Z</time>
      </trkpt>
      <trkpt lat="43.71032" lon="3.84099">
        <ele>108</ele>
        <time>2021-02-20T14:01:14Z</time>
      </trkpt>
      <trkpt lat="43.7103" lon="3.84095">
        <ele>108</ele>
        <time>2021-02-20T14:01:16Z</time>
      </trkpt>
      <trkpt lat="43.71029" lon="3.84091">
        <ele>108</ele>
        <time>2021-02-20T14:01:18Z</time>
      </trkpt>
      <trkpt lat="43.71027" lon="3.84088">
        <ele>108</ele>
        <time>2021-02-20T14:01:20Z</time>
      </trkpt>
      <trkpt lat="43.71025" lon="3.84083">
        <ele>108</ele>
        <time>2021-02-20T14:01:22Z</time>
      </trkpt>
      <trkpt lat="43.71023" lon="3.84079">
        <ele>108</ele>
        <time>2021-02-20T14:01:24Z</time>
      </trkpt>
      <trkpt lat="43.71021" lon="3.84076">
        <ele>108</ele>
        <time>2021-02-20T14:01:26Z</time>
      </trkpt>
      <trkpt lat="43.71018" lon="3.84072">
        <ele>108</ele>
        <time>2021-02-20T14:01:28Z</time>
      </trkpt>
      <trkpt lat="43.71017" lon="3.8407">
        <ele>108</ele>
        <time>2021-02-20T14:01:29Z</time>
      </trkpt>
      <trkpt lat="43.71015" lon="3.84068">
        <ele>108</ele>
        <time>2021-02-20T14:01:30Z</time>
      </trkpt>
      <trkpt lat="43.71014" lon="3.84067">
        <ele>108</ele>
        <time>2021-02-20T14:01:31Z</time>
      </trkpt>
      <trkpt lat="43.71012" lon="3.84065">
        <ele>108</ele>
        <time>2021-02-20T14:01:32Z</time>
      </trkpt>
      <trkpt lat="43.71011" lon="3.84064">
        <ele>108</ele>
        <time>2021-02-20T14:01:33Z</time>
      </trkpt>
      <trkpt lat="43.71008" lon="3.8406">
        <ele>108</ele>
        <time>2021-02-20T14:01:35Z</time>
      </trkpt>
      <trkpt lat="43.71007" lon="3.84059">
        <ele>108</ele>
        <time>2021-02-20T14:01:36Z</time>
      </trkpt>
      <trkpt lat="43.71004" lon="3.84056">
        <ele>108</ele>
        <time>2021-02-20T14:01:38Z</time>
      </trkpt>
      <trkpt lat="43.71003" lon="3.84054">
        <ele>108</ele>
        <time>2021-02-20T14:01:39Z</time>
      </trkpt>
      <trkpt lat="43.71002" lon="3.84052">
        <ele>108</ele>
        <time>2021-02-20T14:01:40Z</time>
      </trkpt>
      <trkpt lat="43.70999" lon="3.84049">
        <ele>108</ele>
        <time>2021-02-20T14:01:42Z</time>
      </trkpt>
      <trkpt lat="43.70996" lon="3.84046">
        <ele>108</ele>
        <time>2021-02-20T14:01:44Z</time>
      </trkpt>
      <trkpt lat="43.70994" lon="3.84043">
        <ele>108</ele>
        <time>2021-02-20T14:01:46Z</time>
      </trkpt>
      <trkpt lat="43.70992" lon="3.84041">
        <ele>113</ele>
        <time>2021-02-20T14:01:47Z</time>
      </trkpt>
      <trkpt lat="43.70991" lon="3.84039">
        <ele>113</ele>
        <time>2021-02-20T14:01:48Z</time>
      </trkpt>
      <trkpt lat="43.70988" lon="3.84036">
        <ele>113</ele>
        <time>2021-02-20T14:01:50Z</time>
      </trkpt>
      <trkpt lat="43.70985" lon="3.84035">
        <ele>113</ele>
        <time>2021-02-20T14:01:52Z</time>
      </trkpt>
      <trkpt lat="43.70982" lon="3.84033">
        <ele>113</ele>
        <time>2021-02-20T14:01:54Z</time>
      </trkpt>
      <trkpt lat="43.70979" lon="3.84032">
        <ele>113</ele>
        <time>2021-02-20T14:01:56Z</time>
      </trkpt>
      <trkpt lat="43.70976" lon="3.84031">
        <ele>113</ele>
        <time>2021-02-20T14:01:58Z</time>
      </trkpt>
      <trkpt lat="43.70972" lon="3.8403">
        <ele>113</ele>
        <time>2021-02-20T14:02:00Z</time>
      </trkpt>
      <trkpt lat="43.70969" lon="3.84028">
        <ele>113</ele>
        <time>2021-02-20T14:02:02Z</time>
      </trkpt>
      <trkpt lat="43.70966" lon="3.84026">
        <ele>113</ele>
        <time>2021-02-20T14:02:04Z</time>
      </trkpt>
      <trkpt lat="43.70963" lon="3.84025">
        <ele>113</ele>
        <time>2021-02-20T14:02:06Z</time>
      </trkpt>
      <trkpt lat="43.7096" lon="3.84024">
        <ele>113</ele>
        <time>2021-02-20T14:02:08Z</time>
      </trkpt>
      <trkpt lat="43.70956" lon="3.84023">
        <ele>113</ele>
        <time>2021-02-20T14:02:10Z</time>
      </trkpt>
      <trkpt lat="43.70953" lon="3.84022">
        <ele>113</ele>
        <time>2021-02-20T14:02:12Z</time>
      </trkpt>
      <trkpt lat="43.7095" lon="3.84021">
        <ele>113</ele>
        <time>2021-02-20T14:02:14Z</time>
      </trkpt>
      <trkpt lat="43.70947" lon="3.84019">
        <ele>113</ele>
        <time>2021-02-20T14:02:16Z</time>
      </trkpt>
      <trkpt lat="43.70944" lon="3.84016">
        <ele>113</ele>
        <time>2021-02-20T14:02:18Z</time>
      </trkpt>
      <trkpt lat="43.70942" lon="3.84013">
        <ele>113</ele>
        <time>2021-02-20T14:02:20Z</time>
      </trkpt>
      <trkpt lat="43.70941" lon="3.84011">
        <ele>113</ele>
        <time>2021-02-20T14:02:21Z</time>
      </trkpt>
      <trkpt lat="43.70939" lon="3.84009">
        <ele>113</ele>
        <time>2021-02-20T14:02:22Z</time>
      </trkpt>
      <trkpt lat="43.70938" lon="3.84007">
        <ele>113</ele>
        <time>2021-02-20T14:02:23Z</time>
      </trkpt>
      <trkpt lat="43.70936" lon="3.84005">
        <ele>113</ele>
        <time>2021-02-20T14:02:24Z</time>
      </trkpt>
      <trkpt lat="43.70934" lon="3.84003">
        <ele>113</ele>
        <time>2021-02-20T14:02:25Z</time>
      </trkpt>
      <trkpt lat="43.70933" lon="3.84001">
        <ele>113</ele>
        <time>2021-02-20T14:02:26Z</time>
      </trkpt>
      <trkpt lat="43.70931" lon="3.83998">
        <ele>115</ele>
        <time>2021-02-20T14:02:27Z</time>
      </trkpt>
      <trkpt lat="43.70929" lon="3.83996">
        <ele>115</ele>
        <time>2021-02-20T14:02:28Z</time>
      </trkpt>
      <trkpt lat="43.70928" lon="3.83994">
        <ele>115</ele>
        <time>2021-02-20T14:02:29Z</time>
      </trkpt>
      <trkpt lat="43.70926" lon="3.83993">
        <ele>115</ele>
        <time>2021-02-20T14:02:30Z</time>
      </trkpt>
      <trkpt lat="43.70924" lon="3.83989">
        <ele>115</ele>
        <time>2021-02-20T14:02:32Z</time>
      </trkpt>
      <trkpt lat="43.70921" lon="3.83986">
        <ele>115</ele>
        <time>2021-02-20T14:02:34Z</time>
      </trkpt>
      <trkpt lat="43.7092" lon="3.83983">
        <ele>115</ele>
        <time>2021-02-20T14:02:36Z</time>
      </trkpt>
      <trkpt lat="43.70918" lon="3.8398">
        <ele>115</ele>
        <time>2021-02-20T14:02:38Z</time>
      </trkpt>
      <trkpt lat="43.70916" lon="3.83976">
        <ele>115</ele>
        <time>2021-02-20T14:02:40Z</time>
      </trkpt>
      <trkpt lat="43.70915" lon="3.83971">
        <ele>115</ele>
        <time>2021-02-20T14:02:42Z</time>
      </trkpt>
      <trkpt lat="43.70915" lon="3.83968">
        <ele>115</ele>
        <time>2021-02-20T14:02:43Z</time>
      </trkpt>
      <trkpt lat="43.70916" lon="3.83964">
        <ele>115</ele>
        <time>2021-02-20T14:02:45Z</time>
      </trkpt>
      <trkpt lat="43.70916" lon="3.8396">
        <ele>118</ele>
        <time>2021-02-20T14:02:47Z</time>
      </trkpt>
      <trkpt lat="43.70915" lon="3.83956">
        <ele>118</ele>
        <time>2021-02-20T14:02:49Z</time>
      </trkpt>
      <trkpt lat="43.70916" lon="3.83952">
        <ele>118</ele>
        <time>2021-02-20T14:02:51Z</time>
      </trkpt>
      <trkpt lat="43.70916" lon="3.83947">
        <ele>118</ele>
        <time>2021-02-20T14:02:53Z</time>
      </trkpt>
      <trkpt lat="43.70917" lon="3.83943">
        <ele>118</ele>
        <time>2021-02-20T14:02:55Z</time>
      </trkpt>
      <trkpt lat="43.70917" lon="3.83938">
        <ele>120</ele>
        <time>2021-02-20T14:02:57Z</time>
      </trkpt>
      <trkpt lat="43.70918" lon="3.83936">
        <ele>120</ele>
        <time>2021-02-20T14:02:58Z</time>
      </trkpt>
      <trkpt lat="43.70918" lon="3.83933">
        <ele>120</ele>
        <time>2021-02-20T14:02:59Z</time>
      </trkpt>
      <trkpt lat="43.70919" lon="3.83929">
        <ele>120</ele>
        <time>2021-02-20T14:03:01Z</time>
      </trkpt>
      <trkpt lat="43.7092" lon="3.83924">
        <ele>120</ele>
        <time>2021-02-20T14:03:03Z</time>
      </trkpt>
      <trkpt lat="43.7092" lon="3.8392">
        <ele>120</ele>
        <time>2021-02-20T14:03:05Z</time>
      </trkpt>
      <trkpt lat="43.7092" lon="3.83916">
        <ele>121</ele>
        <time>2021-02-20T14:03:07Z</time>
      </trkpt>
      <trkpt lat="43.70921" lon="3.83912">
        <ele>121</ele>
        <time>2021-02-20T14:03:09Z</time>
      </trkpt>
      <trkpt lat="43.70921" lon="3.83909">
        <ele>121</ele>
        <time>2021-02-20T14:03:10Z</time>
      </trkpt>
      <trkpt lat="43.70921" lon="3.83907">
        <ele>121</ele>
        <time>2021-02-20T14:03:11Z</time>
      </trkpt>
      <trkpt lat="43.70922" lon="3.83904">
        <ele>121</ele>
        <time>2021-02-20T14:03:12Z</time>
      </trkpt>
      <trkpt lat="43.70922" lon="3.83899">
        <ele>121</ele>
        <time>2021-02-20T14:03:14Z</time>
      </trkpt>
      <trkpt lat="43.70921" lon="3.83893">
        <ele>121</ele>
        <time>2021-02-20T14:03:15Z</time>
      </trkpt>
      <trkpt lat="43.7092" lon="3.83887">
        <ele>121</ele>
        <time>2021-02-20T14:03:16Z</time>
      </trkpt>
      <trkpt lat="43.70919" lon="3.83882">
        <ele>122</ele>
        <time>2021-02-20T14:03:17Z</time>
      </trkpt>
      <trkpt lat="43.70919" lon="3.83878">
        <ele>122</ele>
        <time>2021-02-20T14:03:18Z</time>
      </trkpt>
      <trkpt lat="43.70918" lon="3.83874">
        <ele>122</ele>
        <time>2021-02-20T14:03:19Z</time>
      </trkpt>
      <trkpt lat="43.70917" lon="3.83871">
        <ele>122</ele>
        <time>2021-02-20T14:03:20Z</time>
      </trkpt>
      <trkpt lat="43.70917" lon="3.83868">
        <ele>122</ele>
        <time>2021-02-20T14:03:21Z</time>
      </trkpt>
      <trkpt lat="43.70916" lon="3.83865">
        <ele>122</ele>
        <time>2021-02-20T14:03:22Z</time>
      </trkpt>
      <trkpt lat="43.70915" lon="3.83862">
        <ele>122</ele>
        <time>2021-02-20T14:03:23Z</time>
      </trkpt>
      <trkpt lat="43.70914" lon="3.83858">
        <ele>122</ele>
        <time>2021-02-20T14:03:24Z</time>
      </trkpt>
      <trkpt lat="43.70913" lon="3.83855">
        <ele>122</ele>
        <time>2021-02-20T14:03:25Z</time>
      </trkpt>
      <trkpt lat="43.70911" lon="3.83852">
        <ele>122</ele>
        <time>2021-02-20T14:03:26Z</time>
      </trkpt>
      <trkpt lat="43.70909" lon="3.83849">
        <ele>121</ele>
        <time>2021-02-20T14:03:27Z</time>
      </trkpt>
      <trkpt lat="43.70907" lon="3.83846">
        <ele>121</ele>
        <time>2021-02-20T14:03:28Z</time>
      </trkpt>
      <trkpt lat="43.70905" lon="3.83844">
        <ele>121</ele>
        <time>2021-02-20T14:03:29Z</time>
      </trkpt>
      <trkpt lat="43.70902" lon="3.83842">
        <ele>121</ele>
        <time>2021-02-20T14:03:30Z</time>
      </trkpt>
      <trkpt lat="43.709" lon="3.83839">
        <ele>121</ele>
        <time>2021-02-20T14:03:31Z</time>
      </trkpt>
      <trkpt lat="43.70897" lon="3.83836">
        <ele>121</ele>
        <time>2021-02-20T14:03:32Z</time>
      </trkpt>
      <trkpt lat="43.70895" lon="3.83832">
        <ele>121</ele>
        <time>2021-02-20T14:03:33Z</time>
      </trkpt>
      <trkpt lat="43.70893" lon="3.83828">
        <ele>121</ele>
        <time>2021-02-20T14:03:34Z</time>
      </trkpt>
      <trkpt lat="43.70892" lon="3.83823">
        <ele>121</ele>
        <time>2021-02-20T14:03:35Z</time>
      </trkpt>
      <trkpt lat="43.7089" lon="3.83817">
        <ele>121</ele>
        <time>2021-02-20T14:03:36Z</time>
      </trkpt>
      <trkpt lat="43.70889" lon="3.83812">
        <ele>120</ele>
        <time>2021-02-20T14:03:37Z</time>
      </trkpt>
      <trkpt lat="43.70888" lon="3.83808">
        <ele>120</ele>
        <time>2021-02-20T14:03:38Z</time>
      </trkpt>
      <trkpt lat="43.70887" lon="3.83804">
        <ele>120</ele>
        <time>2021-02-20T14:03:39Z</time>
      </trkpt>
      <trkpt lat="43.70886" lon="3.838">
        <ele>120</ele>
        <time>2021-02-20T14:03:40Z</time>
      </trkpt>
      <trkpt lat="43.70885" lon="3.83796">
        <ele>120</ele>
        <time>2021-02-20T14:03:41Z</time>
      </trkpt>
      <trkpt lat="43.70883" lon="3.83792">
        <ele>120</ele>
        <time>2021-02-20T14:03:42Z</time>
      </trkpt>
      <trkpt lat="43.70881" lon="3.83789">
        <ele>120</ele>
        <time>2021-02-20T14:03:43Z</time>
      </trkpt>
      <trkpt lat="43.70879" lon="3.83785">
        <ele>120</ele>
        <time>2021-02-20T14:03:44Z</time>
      </trkpt>
      <trkpt lat="43.70879" lon="3.8378">
        <ele>120</ele>
        <time>2021-02-20T14:03:45Z</time>
      </trkpt>
      <trkpt lat="43.70879" lon="3.83775">
        <ele>120</ele>
        <time>2021-02-20T14:03:46Z</time>
      </trkpt>
      <trkpt lat="43.7088" lon="3.8377">
        <ele>121</ele>
        <time>2021-02-20T14:03:47Z</time>
      </trkpt>
      <trkpt lat="43.70879" lon="3.83766">
        <ele>121</ele>
        <time>2021-02-20T14:03:48Z</time>
      </trkpt>
      <trkpt lat="43.70879" lon="3.83762">
        <ele>121</ele>
        <time>2021-02-20T14:03:49Z</time>
      </trkpt>
      <trkpt lat="43.70878" lon="3.83758">
        <ele>121</ele>
        <time>2021-02-20T14:03:50Z</time>
      </trkpt>
      <trkpt lat="43.70877" lon="3.83754">
        <ele>121</ele>
        <time>2021-02-20T14:03:51Z</time>
      </trkpt>
      <trkpt lat="43.70876" lon="3.83751">
        <ele>121</ele>
        <time>2021-02-20T14:03:52Z</time>
      </trkpt>
      <trkpt lat="43.70876" lon="3.83747">
        <ele>121</ele>
        <time>2021-02-20T14:03:53Z</time>
      </trkpt>
      <trkpt lat="43.70875" lon="3.83743">
        <ele>121</ele>
        <time>2021-02-20T14:03:54Z</time>
      </trkpt>
      <trkpt lat="43.70875" lon="3.8374">
        <ele>121</ele>
        <time>2021-02-20T14:03:55Z</time>
      </trkpt>
      <trkpt lat="43.70875" lon="3.83736">
        <ele>121</ele>
        <time>2021-02-20T14:03:56Z</time>
      </trkpt>
      <trkpt lat="43.70876" lon="3.83732">
        <ele>122</ele>
        <time>2021-02-20T14:03:57Z</time>
      </trkpt>
      <trkpt lat="43.70877" lon="3.83728">
        <ele>122</ele>
        <time>2021-02-20T14:03:58Z</time>
      </trkpt>
      <trkpt lat="43.70878" lon="3.83725">
        <ele>122</ele>
        <time>2021-02-20T14:03:59Z</time>
      </trkpt>
      <trkpt lat="43.70879" lon="3.83721">
        <ele>122</ele>
        <time>2021-02-20T14:04:00Z</time>
      </trkpt>
      <trkpt lat="43.70879" lon="3.83718">
        <ele>122</ele>
        <time>2021-02-20T14:04:01Z</time>
      </trkpt>
      <trkpt lat="43.70879" lon="3.83714">
        <ele>122</ele>
        <time>2021-02-20T14:04:02Z</time>
      </trkpt>
      <trkpt lat="43.70878" lon="3.83711">
        <ele>122</ele>
        <time>2021-02-20T14:04:03Z</time>
      </trkpt>
      <trkpt lat="43.70878" lon="3.83708">
        <ele>122</ele>
        <time>2021-02-20T14:04:04Z</time>
      </trkpt>
      <trkpt lat="43.70879" lon="3.83705">
        <ele>122</ele>
        <time>2021-02-20T14:04:05Z</time>
      </trkpt>
      <trkpt lat="43.70879" lon="3.83701">
        <ele>122</ele>
        <time>2021-02-20T14:04:06Z</time>
      </trkpt>
      <trkpt lat="43.7088" lon="3.83698">
        <ele>122</ele>
        <time>2021-02-20T14:04:07Z</time>
      </trkpt>
      <trkpt lat="43.70881" lon="3.83695">
        <ele>124</ele>
        <time>2021-02-20T14:04:08Z</time>
      </trkpt>
      <trkpt lat="43.70882" lon="3.83692">
        <ele>124</ele>
        <time>2021-02-20T14:04:09Z</time>
      </trkpt>
      <trkpt lat="43.70882" lon="3.83688">
        <ele>124</ele>
        <time>2021-02-20T14:04:10Z</time>
      </trkpt>
      <trkpt lat="43.70883" lon="3.83685">
        <ele>124</ele>
        <time>2021-02-20T14:04:11Z</time>
      </trkpt>
      <trkpt lat="43.70883" lon="3.83681">
        <ele>124</ele>
        <time>2021-02-20T14:04:12Z</time>
      </trkpt>
      <trkpt lat="43.70882" lon="3.83678">
        <ele>124</ele>
        <time>2021-02-20T14:04:13Z</time>
      </trkpt>
      <trkpt lat="43.70881" lon="3.83674">
        <ele>124</ele>
        <time>2021-02-20T14:04:14Z</time>
      </trkpt>
      <trkpt lat="43.7088" lon="3.83671">
        <ele>124</ele>
        <time>2021-02-20T14:04:15Z</time>
      </trkpt>
      <trkpt lat="43.70879" lon="3.83669">
        <ele>124</ele>
        <time>2021-02-20T14:04:16Z</time>
      </trkpt>
      <trkpt lat="43.70877" lon="3.83666">
        <ele>125</ele>
        <time>2021-02-20T14:04:17Z</time>
      </trkpt>
      <trkpt lat="43.70875" lon="3.83663">
        <ele>125</ele>
        <time>2021-02-20T14:04:18Z</time>
      </trkpt>
      <trkpt lat="43.70874" lon="3.8366">
        <ele>125</ele>
        <time>2021-02-20T14:04:19Z</time>
      </trkpt>
      <trkpt lat="43.70872" lon="3.83657">
        <ele>125</ele>
        <time>2021-02-20T14:04:20Z</time>
      </trkpt>
      <trkpt lat="43.70871" lon="3.83654">
        <ele>125</ele>
        <time>2021-02-20T14:04:21Z</time>
      </trkpt>
      <trkpt lat="43.7087" lon="3.83651">
        <ele>125</ele>
        <time>2021-02-20T14:04:22Z</time>
      </trkpt>
      <trkpt lat="43.70869" lon="3.83649">
        <ele>125</ele>
        <time>2021-02-20T14:04:23Z</time>
      </trkpt>
      <trkpt lat="43.70868" lon="3.83646">
        <ele>125</ele>
        <time>2021-02-20T14:04:24Z</time>
      </trkpt>
      <trkpt lat="43.70867" lon="3.83643">
        <ele>125</ele>
        <time>2021-02-20T14:04:25Z</time>
      </trkpt>
      <trkpt lat="43.70866" lon="3.83641">
        <ele>125</ele>
        <time>2021-02-20T14:04:26Z</time>
      </trkpt>
      <trkpt lat="43.70865" lon="3.83638">
        <ele>126</ele>
        <time>2021-02-20T14:04:27Z</time>
      </trkpt>
      <trkpt lat="43.70864" lon="3.83636">
        <ele>126</ele>
        <time>2021-02-20T14:04:28Z</time>
      </trkpt>
      <trkpt lat="43.70863" lon="3.83632">
        <ele>126</ele>
        <time>2021-02-20T14:04:30Z</time>
      </trkpt>
      <trkpt lat="43.70862" lon="3.8363">
        <ele>126</ele>
        <time>2021-02-20T14:04:32Z</time>
      </trkpt>
      <trkpt lat="43.7086" lon="3.83625">
        <ele>126</ele>
        <time>2021-02-20T14:04:34Z</time>
      </trkpt>
      <trkpt lat="43.70859" lon="3.83622">
        <ele>126</ele>
        <time>2021-02-20T14:04:35Z</time>
      </trkpt>
      <trkpt lat="43.70859" lon="3.83619">
        <ele>126</ele>
        <time>2021-02-20T14:04:36Z</time>
      </trkpt>
      <trkpt lat="43.70858" lon="3.83616">
        <ele>128</ele>
        <time>2021-02-20T14:04:37Z</time>
      </trkpt>
      <trkpt lat="43.70857" lon="3.83613">
        <ele>128</ele>
        <time>2021-02-20T14:04:38Z</time>
      </trkpt>
      <trkpt lat="43.70856" lon="3.8361">
        <ele>128</ele>
        <time>2021-02-20T14:04:39Z</time>
      </trkpt>
      <trkpt lat="43.70855" lon="3.83607">
        <ele>128</ele>
        <time>2021-02-20T14:04:40Z</time>
      </trkpt>
      <trkpt lat="43.70854" lon="3.83604">
        <ele>128</ele>
        <time>2021-02-20T14:04:41Z</time>
      </trkpt>
      <trkpt lat="43.70853" lon="3.83601">
        <ele>128</ele>
        <time>2021-02-20T14:04:42Z</time>
      </trkpt>
      <trkpt lat="43.70853" lon="3.83599">
        <ele>128</ele>
        <time>2021-02-20T14:04:43Z</time>
      </trkpt>
      <trkpt lat="43.70852" lon="3.83595">
        <ele>128</ele>
        <time>2021-02-20T14:04:44Z</time>
      </trkpt>
      <trkpt lat="43.70852" lon="3.83592">
        <ele>128</ele>
        <time>2021-02-20T14:04:45Z</time>
      </trkpt>
      <trkpt lat="43.70851" lon="3.83589">
        <ele>128</ele>
        <time>2021-02-20T14:04:46Z</time>
      </trkpt>
      <trkpt lat="43.7085" lon="3.83587">
        <ele>130</ele>
        <time>2021-02-20T14:04:47Z</time>
      </trkpt>
      <trkpt lat="43.7085" lon="3.83584">
        <ele>130</ele>
        <time>2021-02-20T14:04:48Z</time>
      </trkpt>
      <trkpt lat="43.7085" lon="3.8358">
        <ele>130</ele>
        <time>2021-02-20T14:04:50Z</time>
      </trkpt>
      <trkpt lat="43.7085" lon="3.83576">
        <ele>130</ele>
        <time>2021-02-20T14:04:52Z</time>
      </trkpt>
      <trkpt lat="43.7085" lon="3.83571">
        <ele>130</ele>
        <time>2021-02-20T14:04:54Z</time>
      </trkpt>
      <trkpt lat="43.70849" lon="3.83568">
        <ele>130</ele>
        <time>2021-02-20T14:04:55Z</time>
      </trkpt>
      <trkpt lat="43.70847" lon="3.83563">
        <ele>130</ele>
        <time>2021-02-20T14:04:56Z</time>
      </trkpt>
      <trkpt lat="43.70845" lon="3.83557">
        <ele>130</ele>
        <time>2021-02-20T14:04:57Z</time>
      </trkpt>
      <trkpt lat="43.70844" lon="3.83551">
        <ele>130</ele>
        <time>2021-02-20T14:04:58Z</time>
      </trkpt>
      <trkpt lat="43.70842" lon="3.83546">
        <ele>130</ele>
        <time>2021-02-20T14:04:59Z</time>
      </trkpt>
      <trkpt lat="43.70841" lon="3.8354">
        <ele>130</ele>
        <time>2021-02-20T14:05:00Z</time>
      </trkpt>
      <trkpt lat="43.70841" lon="3.83535">
        <ele>130</ele>
        <time>2021-02-20T14:05:01Z</time>
      </trkpt>
      <trkpt lat="43.70841" lon="3.8353">
        <ele>130</ele>
        <time>2021-02-20T14:05:02Z</time>
      </trkpt>
      <trkpt lat="43.7084" lon="3.83526">
        <ele>130</ele>
        <time>2021-02-20T14:05:03Z</time>
      </trkpt>
      <trkpt lat="43.7084" lon="3.83521">
        <ele>130</ele>
        <time>2021-02-20T14:05:04Z</time>
      </trkpt>
      <trkpt lat="43.7084" lon="3.83516">
        <ele>130</ele>
        <time>2021-02-20T14:05:05Z</time>
      </trkpt>
      <trkpt lat="43.7084" lon="3.83512">
        <ele>130</ele>
        <time>2021-02-20T14:05:06Z</time>
      </trkpt>
      <trkpt lat="43.7084" lon="3.83507">
        <ele>129</ele>
        <time>2021-02-20T14:05:07Z</time>
      </trkpt>
      <trkpt lat="43.7084" lon="3.83502">
        <ele>129</ele>
        <time>2021-02-20T14:05:08Z</time>
      </trkpt>
      <trkpt lat="43.7084" lon="3.83497">
        <ele>129</ele>
        <time>2021-02-20T14:05:09Z</time>
      </trkpt>
      <trkpt lat="43.7084" lon="3.83493">
        <ele>129</ele>
        <time>2021-02-20T14:05:10Z</time>
      </trkpt>
      <trkpt lat="43.70841" lon="3.83487">
        <ele>129</ele>
        <time>2021-02-20T14:05:11Z</time>
      </trkpt>
      <trkpt lat="43.70843" lon="3.83482">
        <ele>129</ele>
        <time>2021-02-20T14:05:12Z</time>
      </trkpt>
      <trkpt lat="43.70844" lon="3.83476">
        <ele>129</ele>
        <time>2021-02-20T14:05:13Z</time>
      </trkpt>
      <trkpt lat="43.70845" lon="3.83469">
        <ele>129</ele>
        <time>2021-02-20T14:05:14Z</time>
      </trkpt>
      <trkpt lat="43.70847" lon="3.83463">
        <ele>129</ele>
        <time>2021-02-20T14:05:15Z</time>
      </trkpt>
      <trkpt lat="43.70851" lon="3.83458">
        <ele>129</ele>
        <time>2021-02-20T14:05:16Z</time>
      </trkpt>
      <trkpt lat="43.70854" lon="3.83455">
        <ele>128</ele>
        <time>2021-02-20T14:05:17Z</time>
      </trkpt>
      <trkpt lat="43.70857" lon="3.83451">
        <ele>128</ele>
        <time>2021-02-20T14:05:18Z</time>
      </trkpt>
      <trkpt lat="43.7086" lon="3.83447">
        <ele>128</ele>
        <time>2021-02-20T14:05:19Z</time>
      </trkpt>
      <trkpt lat="43.70862" lon="3.83443">
        <ele>128</ele>
        <time>2021-02-20T14:05:20Z</time>
      </trkpt>
      <trkpt lat="43.70863" lon="3.83439">
        <ele>128</ele>
        <time>2021-02-20T14:05:21Z</time>
      </trkpt>
      <trkpt lat="43.70864" lon="3.83436">
        <ele>128</ele>
        <time>2021-02-20T14:05:22Z</time>
      </trkpt>
      <trkpt lat="43.70864" lon="3.83431">
        <ele>128</ele>
        <time>2021-02-20T14:05:23Z</time>
      </trkpt>
      <trkpt lat="43.70864" lon="3.83427">
        <ele>128</ele>
        <time>2021-02-20T14:05:24Z</time>
      </trkpt>
      <trkpt lat="43.70865" lon="3.83423">
        <ele>128</ele>
        <time>2021-02-20T14:05:25Z</time>
      </trkpt>
      <trkpt lat="43.70865" lon="3.83419">
        <ele>128</ele>
        <time>2021-02-20T14:05:26Z</time>
      </trkpt>
      <trkpt lat="43.70865" lon="3.83415">
        <ele>128</ele>
        <time>2021-02-20T14:05:27Z</time>
      </trkpt>
      <trkpt lat="43.70864" lon="3.83412">
        <ele>128</ele>
        <time>2021-02-20T14:05:28Z</time>
      </trkpt>
      <trkpt lat="43.70863" lon="3.83408">
        <ele>128</ele>
        <time>2021-02-20T14:05:29Z</time>
      </trkpt>
      <trkpt lat="43.70863" lon="3.83405">
        <ele>128</ele>
        <time>2021-02-20T14:05:30Z</time>
      </trkpt>
      <trkpt lat="43.70862" lon="3.83402">
        <ele>128</ele>
        <time>2021-02-20T14:05:31Z</time>
      </trkpt>
      <trkpt lat="43.7086" lon="3.834">
        <ele>128</ele>
        <time>2021-02-20T14:05:32Z</time>
      </trkpt>
      <trkpt lat="43.70859" lon="3.83397">
        <ele>128</ele>
        <time>2021-02-20T14:05:33Z</time>
      </trkpt>
      <trkpt lat="43.70857" lon="3.83394">
        <ele>128</ele>
        <time>2021-02-20T14:05:34Z</time>
      </trkpt>
      <trkpt lat="43.70854" lon="3.83391">
        <ele>128</ele>
        <time>2021-02-20T14:05:35Z</time>
      </trkpt>
      <trkpt lat="43.70852" lon="3.83388">
        <ele>128</ele>
        <time>2021-02-20T14:05:36Z</time>
      </trkpt>
      <trkpt lat="43.70849" lon="3.83385">
        <ele>128</ele>
        <time>2021-02-20T14:05:37Z</time>
      </trkpt>
      <trkpt lat="43.70847" lon="3.83382">
        <ele>128</ele>
        <time>2021-02-20T14:05:38Z</time>
      </trkpt>
      <trkpt lat="43.70845" lon="3.83379">
        <ele>128</ele>
        <time>2021-02-20T14:05:39Z</time>
      </trkpt>
      <trkpt lat="43.70844" lon="3.83377">
        <ele>128</ele>
        <time>2021-02-20T14:05:40Z</time>
      </trkpt>
      <trkpt lat="43.70845" lon="3.83374">
        <ele>128</ele>
        <time>2021-02-20T14:05:41Z</time>
      </trkpt>
      <trkpt lat="43.70846" lon="3.83372">
        <ele>128</ele>
        <time>2021-02-20T14:05:42Z</time>
      </trkpt>
      <trkpt lat="43.70849" lon="3.83369">
        <ele>128</ele>
        <time>2021-02-20T14:05:44Z</time>
      </trkpt>
      <trkpt lat="43.70851" lon="3.83368">
        <ele>128</ele>
        <time>2021-02-20T14:05:46Z</time>
      </trkpt>
      <trkpt lat="43.70852" lon="3.83363">
        <ele>128</ele>
        <time>2021-02-20T14:05:48Z</time>
      </trkpt>
      <trkpt lat="43.70852" lon="3.83361">
        <ele>128</ele>
        <time>2021-02-20T14:05:49Z</time>
      </trkpt>
      <trkpt lat="43.70853" lon="3.83356">
        <ele>128</ele>
        <time>2021-02-20T14:05:51Z</time>
      </trkpt>
      <trkpt lat="43.70854" lon="3.83351">
        <ele>128</ele>
        <time>2021-02-20T14:05:53Z</time>
      </trkpt>
      <trkpt lat="43.70853" lon="3.83349">
        <ele>128</ele>
        <time>2021-02-20T14:05:54Z</time>
      </trkpt>
      <trkpt lat="43.70853" lon="3.83346">
        <ele>128</ele>
        <time>2021-02-20T14:05:55Z</time>
      </trkpt>
      <trkpt lat="43.70853" lon="3.83341">
        <ele>125</ele>
        <time>2021-02-20T14:05:57Z</time>
      </trkpt>
      <trkpt lat="43.70852" lon="3.83339">
        <ele>125</ele>
        <time>2021-02-20T14:05:58Z</time>
      </trkpt>
      <trkpt lat="43.70851" lon="3.83334">
        <ele>125</ele>
        <time>2021-02-20T14:06:00Z</time>
      </trkpt>
      <trkpt lat="43.70851" lon="3.83329">
        <ele>125</ele>
        <time>2021-02-20T14:06:02Z</time>
      </trkpt>
      <trkpt lat="43.70851" lon="3.83326">
        <ele>125</ele>
        <time>2021-02-20T14:06:03Z</time>
      </trkpt>
      <trkpt lat="43.70852" lon="3.8332">
        <ele>125</ele>
        <time>2021-02-20T14:06:05Z</time>
      </trkpt>
      <trkpt lat="43.70851" lon="3.83317">
        <ele>125</ele>
        <time>2021-02-20T14:06:06Z</time>
      </trkpt>
      <trkpt lat="43.7085" lon="3.83314">
        <ele>126</ele>
        <time>2021-02-20T14:06:07Z</time>
      </trkpt>
      <trkpt lat="43.7085" lon="3.8331">
        <ele>126</ele>
        <time>2021-02-20T14:06:08Z</time>
      </trkpt>
      <trkpt lat="43.70849" lon="3.83307">
        <ele>126</ele>
        <time>2021-02-20T14:06:09Z</time>
      </trkpt>
      <trkpt lat="43.7085" lon="3.83302">
        <ele>126</ele>
        <time>2021-02-20T14:06:10Z</time>
      </trkpt>
      <trkpt lat="43.70852" lon="3.83298">
        <ele>126</ele>
        <time>2021-02-20T14:06:11Z</time>
      </trkpt>
      <trkpt lat="43.70853" lon="3.83294">
        <ele>126</ele>
        <time>2021-02-20T14:06:12Z</time>
      </trkpt>
      <trkpt lat="43.70854" lon="3.83291">
        <ele>126</ele>
        <time>2021-02-20T14:06:13Z</time>
      </trkpt>
      <trkpt lat="43.70855" lon="3.83287">
        <ele>126</ele>
        <time>2021-02-20T14:06:14Z</time>
      </trkpt>
      <trkpt lat="43.70857" lon="3.83284">
        <ele>126</ele>
        <time>2021-02-20T14:06:15Z</time>
      </trkpt>
      <trkpt lat="43.70858" lon="3.83282">
        <ele>126</ele>
        <time>2021-02-20T14:06:16Z</time>
      </trkpt>
      <trkpt lat="43.7086" lon="3.83279">
        <ele>126</ele>
        <time>2021-02-20T14:06:17Z</time>
      </trkpt>
      <trkpt lat="43.70861" lon="3.83276">
        <ele>126</ele>
        <time>2021-02-20T14:06:18Z</time>
      </trkpt>
      <trkpt lat="43.70862" lon="3.83273">
        <ele>126</ele>
        <time>2021-02-20T14:06:19Z</time>
      </trkpt>
      <trkpt lat="43.70863" lon="3.83269">
        <ele>126</ele>
        <time>2021-02-20T14:06:20Z</time>
      </trkpt>
      <trkpt lat="43.70864" lon="3.83266">
        <ele>126</ele>
        <time>2021-02-20T14:06:21Z</time>
      </trkpt>
      <trkpt lat="43.70865" lon="3.83263">
        <ele>126</ele>
        <time>2021-02-20T14:06:22Z</time>
      </trkpt>
      <trkpt lat="43.70867" lon="3.8326">
        <ele>126</ele>
        <time>2021-02-20T14:06:23Z</time>
      </trkpt>
      <trkpt lat="43.70868" lon="3.83258">
        <ele>126</ele>
        <time>2021-02-20T14:06:24Z</time>
      </trkpt>
      <trkpt lat="43.70869" lon="3.83255">
        <ele>126</ele>
        <time>2021-02-20T14:06:25Z</time>
      </trkpt>
      <trkpt lat="43.7087" lon="3.83252">
        <ele>126</ele>
        <time>2021-02-20T14:06:26Z</time>
      </trkpt>
      <trkpt lat="43.70872" lon="3.83249">
        <ele>125</ele>
        <time>2021-02-20T14:06:27Z</time>
      </trkpt>
      <trkpt lat="43.70873" lon="3.83246">
        <ele>125</ele>
        <time>2021-02-20T14:06:28Z</time>
      </trkpt>
      <trkpt lat="43.70874" lon="3.83243">
        <ele>125</ele>
        <time>2021-02-20T14:06:29Z</time>
      </trkpt>
      <trkpt lat="43.70875" lon="3.83239">
        <ele>125</ele>
        <time>2021-02-20T14:06:30Z</time>
      </trkpt>
      <trkpt lat="43.70876" lon="3.83235">
        <ele>125</ele>
        <time>2021-02-20T14:06:31Z</time>
      </trkpt>
      <trkpt lat="43.70877" lon="3.83231">
        <ele>125</ele>
        <time>2021-02-20T14:06:32Z</time>
      </trkpt>
      <trkpt lat="43.70878" lon="3.83227">
        <ele>125</ele>
        <time>2021-02-20T14:06:33Z</time>
      </trkpt>
      <trkpt lat="43.70878" lon="3.83222">
        <ele>125</ele>
        <time>2021-02-20T14:06:34Z</time>
      </trkpt>
      <trkpt lat="43.70878" lon="3.83218">
        <ele>125</ele>
        <time>2021-02-20T14:06:35Z</time>
      </trkpt>
      <trkpt lat="43.70878" lon="3.83213">
        <ele>125</ele>
        <time>2021-02-20T14:06:36Z</time>
      </trkpt>
      <trkpt lat="43.70879" lon="3.83208">
        <ele>124</ele>
        <time>2021-02-20T14:06:37Z</time>
      </trkpt>
      <trkpt lat="43.70881" lon="3.83204">
        <ele>124</ele>
        <time>2021-02-20T14:06:38Z</time>
      </trkpt>
      <trkpt lat="43.70882" lon="3.83199">
        <ele>124</ele>
        <time>2021-02-20T14:06:39Z</time>
      </trkpt>
      <trkpt lat="43.70882" lon="3.83195">
        <ele>124</ele>
        <time>2021-02-20T14:06:40Z</time>
      </trkpt>
      <trkpt lat="43.70882" lon="3.8319">
        <ele>124</ele>
        <time>2021-02-20T14:06:41Z</time>
      </trkpt>
      <trkpt lat="43.70881" lon="3.83186">
        <ele>124</ele>
        <time>2021-02-20T14:06:42Z</time>
      </trkpt>
      <trkpt lat="43.7088" lon="3.83182">
        <ele>124</ele>
        <time>2021-02-20T14:06:43Z</time>
      </trkpt>
      <trkpt lat="43.70878" lon="3.83178">
        <ele>124</ele>
        <time>2021-02-20T14:06:44Z</time>
      </trkpt>
      <trkpt lat="43.70876" lon="3.83174">
        <ele>124</ele>
        <time>2021-02-20T14:06:45Z</time>
      </trkpt>
      <trkpt lat="43.70874" lon="3.83171">
        <ele>124</ele>
        <time>2021-02-20T14:06:46Z</time>
      </trkpt>
      <trkpt lat="43.7087" lon="3.83169">
        <ele>123</ele>
        <time>2021-02-20T14:06:47Z</time>
      </trkpt>
      <trkpt lat="43.70867" lon="3.83167">
        <ele>123</ele>
        <time>2021-02-20T14:06:48Z</time>
      </trkpt>
      <trkpt lat="43.70864" lon="3.83166">
        <ele>123</ele>
        <time>2021-02-20T14:06:49Z</time>
      </trkpt>
      <trkpt lat="43.7086" lon="3.83165">
        <ele>123</ele>
        <time>2021-02-20T14:06:50Z</time>
      </trkpt>
      <trkpt lat="43.70856" lon="3.83164">
        <ele>123</ele>
        <time>2021-02-20T14:06:51Z</time>
      </trkpt>
      <trkpt lat="43.70852" lon="3.83163">
        <ele>123</ele>
        <time>2021-02-20T14:06:52Z</time>
      </trkpt>
      <trkpt lat="43.70848" lon="3.83163">
        <ele>123</ele>
        <time>2021-02-20T14:06:53Z</time>
      </trkpt>
      <trkpt lat="43.70844" lon="3.83162">
        <ele>123</ele>
        <time>2021-02-20T14:06:54Z</time>
      </trkpt>
      <trkpt lat="43.7084" lon="3.83161">
        <ele>123</ele>
        <time>2021-02-20T14:06:55Z</time>
      </trkpt>
      <trkpt lat="43.70835" lon="3.8316">
        <ele>123</ele>
        <time>2021-02-20T14:06:56Z</time>
      </trkpt>
      <trkpt lat="43.70831" lon="3.83159">
        <ele>121</ele>
        <time>2021-02-20T14:06:57Z</time>
      </trkpt>
      <trkpt lat="43.70827" lon="3.83157">
        <ele>121</ele>
        <time>2021-02-20T14:06:58Z</time>
      </trkpt>
      <trkpt lat="43.70822" lon="3.83156">
        <ele>121</ele>
        <time>2021-02-20T14:06:59Z</time>
      </trkpt>
      <trkpt lat="43.70818" lon="3.83155">
        <ele>121</ele>
        <time>2021-02-20T14:07:00Z</time>
      </trkpt>
      <trkpt lat="43.70813" lon="3.83153">
        <ele>121</ele>
        <time>2021-02-20T14:07:01Z</time>
      </trkpt>
      <trkpt lat="43.70809" lon="3.83151">
        <ele>121</ele>
        <time>2021-02-20T14:07:02Z</time>
      </trkpt>
      <trkpt lat="43.70804" lon="3.83149">
        <ele>121</ele>
        <time>2021-02-20T14:07:03Z</time>
      </trkpt>
      <trkpt lat="43.70799" lon="3.83147">
        <ele>121</ele>
        <time>2021-02-20T14:07:04Z</time>
      </trkpt>
      <trkpt lat="43.70795" lon="3.83145">
        <ele>121</ele>
        <time>2021-02-20T14:07:05Z</time>
      </trkpt>
      <trkpt lat="43.7079" lon="3.83142">
        <ele>121</ele>
        <time>2021-02-20T14:07:06Z</time>
      </trkpt>
      <trkpt lat="43.70786" lon="3.8314">
        <ele>120</ele>
        <time>2021-02-20T14:07:07Z</time>
      </trkpt>
      <trkpt lat="43.70783" lon="3.83138">
        <ele>120</ele>
        <time>2021-02-20T14:07:08Z</time>
      </trkpt>
      <trkpt lat="43.70779" lon="3.83136">
        <ele>120</ele>
        <time>2021-02-20T14:07:09Z</time>
      </trkpt>
      <trkpt lat="43.70775" lon="3.83133">
        <ele>120</ele>
        <time>2021-02-20T14:07:10Z</time>
      </trkpt>
      <trkpt lat="43.70772" lon="3.83131">
        <ele>120</ele>
        <time>2021-02-20T14:07:11Z</time>
      </trkpt>
      <trkpt lat="43.70768" lon="3.83128">
        <ele>120</ele>
        <time>2021-02-20T14:07:12Z</time>
      </trkpt>
      <trkpt lat="43.70764" lon="3.83125">
        <ele>120</ele>
        <time>2021-02-20T14:07:13Z</time>
      </trkpt>
      <trkpt lat="43.70759" lon="3.83122">
        <ele>120</ele>
        <time>2021-02-20T14:07:14Z</time>
      </trkpt>
      <trkpt lat="43.70755" lon="3.83119">
        <ele>120</ele>
        <time>2021-02-20T14:07:15Z</time>
      </trkpt>
      <trkpt lat="43.70751" lon="3.83116">
        <ele>120</ele>
        <time>2021-02-20T14:07:16Z</time>
      </trkpt>
      <trkpt lat="43.70747" lon="3.83112">
        <ele>117</ele>
        <time>2021-02-20T14:07:17Z</time>
      </trkpt>
      <trkpt lat="43.70742" lon="3.83109">
        <ele>117</ele>
        <time>2021-02-20T14:07:18Z</time>
      </trkpt>
      <trkpt lat="43.70738" lon="3.83106">
        <ele>117</ele>
        <time>2021-02-20T14:07:19Z</time>
      </trkpt>
      <trkpt lat="43.70735" lon="3.83103">
        <ele>117</ele>
        <time>2021-02-20T14:07:20Z</time>
      </trkpt>
      <trkpt lat="43.70732" lon="3.831">
        <ele>117</ele>
        <time>2021-02-20T14:07:21Z</time>
      </trkpt>
      <trkpt lat="43.7073" lon="3.83097">
        <ele>117</ele>
        <time>2021-02-20T14:07:22Z</time>
      </trkpt>
      <trkpt lat="43.7073" lon="3.83094">
        <ele>117</ele>
        <time>2021-02-20T14:07:23Z</time>
      </trkpt>
      <trkpt lat="43.70732" lon="3.83091">
        <ele>117</ele>
        <time>2021-02-20T14:07:24Z</time>
      </trkpt>
      <trkpt lat="43.70733" lon="3.83087">
        <ele>117</ele>
        <time>2021-02-20T14:07:25Z</time>
      </trkpt>
      <trkpt lat="43.70733" lon="3.83084">
        <ele>117</ele>
        <time>2021-02-20T14:07:26Z</time>
      </trkpt>
      <trkpt lat="43.70732" lon="3.83081">
        <ele>116</ele>
        <time>2021-02-20T14:07:27Z</time>
      </trkpt>
      <trkpt lat="43.70731" lon="3.83078">
        <ele>116</ele>
        <time>2021-02-20T14:07:28Z</time>
      </trkpt>
      <trkpt lat="43.70729" lon="3.83074">
        <ele>116</ele>
        <time>2021-02-20T14:07:29Z</time>
      </trkpt>
      <trkpt lat="43.70728" lon="3.8307">
        <ele>116</ele>
        <time>2021-02-20T14:07:30Z</time>
      </trkpt>
      <trkpt lat="43.70728" lon="3.83065">
        <ele>116</ele>
        <time>2021-02-20T14:07:31Z</time>
      </trkpt>
      <trkpt lat="43.70728" lon="3.83061">
        <ele>116</ele>
        <time>2021-02-20T14:07:32Z</time>
      </trkpt>
      <trkpt lat="43.70728" lon="3.83057">
        <ele>116</ele>
        <time>2021-02-20T14:07:33Z</time>
      </trkpt>
      <trkpt lat="43.70729" lon="3.83053">
        <ele>116</ele>
        <time>2021-02-20T14:07:34Z</time>
      </trkpt>
      <trkpt lat="43.7073" lon="3.83049">
        <ele>116</ele>
        <time>2021-02-20T14:07:35Z</time>
      </trkpt>
      <trkpt lat="43.70732" lon="3.83045">
        <ele>116</ele>
        <time>2021-02-20T14:07:36Z</time>
      </trkpt>
      <trkpt lat="43.70733" lon="3.83041">
        <ele>117</ele>
        <time>2021-02-20T14:07:37Z</time>
      </trkpt>
      <trkpt lat="43.70734" lon="3.83037">
        <ele>117</ele>
        <time>2021-02-20T14:07:38Z</time>
      </trkpt>
      <trkpt lat="43.70736" lon="3.83033">
        <ele>117</ele>
        <time>2021-02-20T14:07:39Z</time>
      </trkpt>
      <trkpt lat="43.70737" lon="3.83029">
        <ele>117</ele>
        <time>2021-02-20T14:07:40Z</time>
      </trkpt>
      <trkpt lat="43.70738" lon="3.83025">
        <ele>117</ele>
        <time>2021-02-20T14:07:41Z</time>
      </trkpt>
      <trkpt lat="43.7074" lon="3.83021">
        <ele>117</ele>
        <time>2021-02-20T14:07:42Z</time>
      </trkpt>
      <trkpt lat="43.70741" lon="3.83016">
        <ele>117</ele>
        <time>2021-02-20T14:07:43Z</time>
      </trkpt>
      <trkpt lat="43.70743" lon="3.83012">
        <ele>117</ele>
        <time>2021-02-20T14:07:44Z</time>
      </trkpt>
      <trkpt lat="43.70744" lon="3.83007">
        <ele>117</ele>
        <time>2021-02-20T14:07:45Z</time>
      </trkpt>
      <trkpt lat="43.70746" lon="3.83002">
        <ele>117</ele>
        <time>2021-02-20T14:07:46Z</time>
      </trkpt>
      <trkpt lat="43.70747" lon="3.82998">
        <ele>116</ele>
        <time>2021-02-20T14:07:47Z</time>
      </trkpt>
      <trkpt lat="43.70749" lon="3.82993">
        <ele>116</ele>
        <time>2021-02-20T14:07:48Z</time>
      </trkpt>
      <trkpt lat="43.7075" lon="3.82988">
        <ele>116</ele>
        <time>2021-02-20T14:07:49Z</time>
      </trkpt>
      <trkpt lat="43.70751" lon="3.82982">
        <ele>116</ele>
        <time>2021-02-20T14:07:50Z</time>
      </trkpt>
      <trkpt lat="43.70752" lon="3.82977">
        <ele>116</ele>
        <time>2021-02-20T14:07:51Z</time>
      </trkpt>
      <trkpt lat="43.70753" lon="3.82971">
        <ele>116</ele>
        <time>2021-02-20T14:07:52Z</time>
      </trkpt>
      <trkpt lat="43.70754" lon="3.82965">
        <ele>116</ele>
        <time>2021-02-20T14:07:53Z</time>
      </trkpt>
      <trkpt lat="43.70754" lon="3.82959">
        <ele>116</ele>
        <time>2021-02-20T14:07:54Z</time>
      </trkpt>
      <trkpt lat="43.70754" lon="3.82953">
        <ele>116</ele>
        <time>2021-02-20T14:07:55Z</time>
      </trkpt>
      <trkpt lat="43.70754" lon="3.82947">
        <ele>116</ele>
        <time>2021-02-20T14:07:56Z</time>
      </trkpt>
      <trkpt lat="43.70754" lon="3.82941">
        <ele>115</ele>
        <time>2021-02-20T14:07:57Z</time>
      </trkpt>
      <trkpt lat="43.70754" lon="3.82935">
        <ele>115</ele>
        <time>2021-02-20T14:07:58Z</time>
      </trkpt>
      <trkpt lat="43.70754" lon="3.82929">
        <ele>115</ele>
        <time>2021-02-20T14:07:59Z</time>
      </trkpt>
      <trkpt lat="43.70754" lon="3.82922">
        <ele>115</ele>
        <time>2021-02-20T14:08:00Z</time>
      </trkpt>
      <trkpt lat="43.70754" lon="3.82916">
        <ele>115</ele>
        <time>2021-02-20T14:08:01Z</time>
      </trkpt>
      <trkpt lat="43.70754" lon="3.8291">
        <ele>115</ele>
        <time>2021-02-20T14:08:02Z</time>
      </trkpt>
      <trkpt lat="43.70753" lon="3.82904">
        <ele>115</ele>
        <time>2021-02-20T14:08:03Z</time>
      </trkpt>
      <trkpt lat="43.70753" lon="3.82898">
        <ele>115</ele>
        <time>2021-02-20T14:08:04Z</time>
      </trkpt>
      <trkpt lat="43.70752" lon="3.82891">
        <ele>115</ele>
        <time>2021-02-20T14:08:05Z</time>
      </trkpt>
      <trkpt lat="43.70752" lon="3.82885">
        <ele>115</ele>
        <time>2021-02-20T14:08:06Z</time>
      </trkpt>
      <trkpt lat="43.70751" lon="3.82878">
        <ele>115</ele>
        <time>2021-02-20T14:08:07Z</time>
      </trkpt>
      <trkpt lat="43.70751" lon="3.82872">
        <ele>115</ele>
        <time>2021-02-20T14:08:08Z</time>
      </trkpt>
      <trkpt lat="43.7075" lon="3.82865">
        <ele>115</ele>
        <time>2021-02-20T14:08:09Z</time>
      </trkpt>
      <trkpt lat="43.70749" lon="3.82859">
        <ele>115</ele>
        <time>2021-02-20T14:08:10Z</time>
      </trkpt>
      <trkpt lat="43.70747" lon="3.82852">
        <ele>115</ele>
        <time>2021-02-20T14:08:11Z</time>
      </trkpt>
      <trkpt lat="43.70746" lon="3.82846">
        <ele>115</ele>
        <time>2021-02-20T14:08:12Z</time>
      </trkpt>
      <trkpt lat="43.70745" lon="3.82839">
        <ele>115</ele>
        <time>2021-02-20T14:08:13Z</time>
      </trkpt>
      <trkpt lat="43.70744" lon="3.82832">
        <ele>115</ele>
        <time>2021-02-20T14:08:14Z</time>
      </trkpt>
      <trkpt lat="43.70742" lon="3.82825">
        <ele>115</ele>
        <time>2021-02-20T14:08:15Z</time>
      </trkpt>
      <trkpt lat="43.70741" lon="3.82819">
        <ele>115</ele>
        <time>2021-02-20T14:08:16Z</time>
      </trkpt>
      <trkpt lat="43.7074" lon="3.82812">
        <ele>113</ele>
        <time>2021-02-20T14:08:17Z</time>
      </trkpt>
      <trkpt lat="43.70739" lon="3.82805">
        <ele>113</ele>
        <time>2021-02-20T14:08:18Z</time>
      </trkpt>
      <trkpt lat="43.70737" lon="3.82798">
        <ele>113</ele>
        <time>2021-02-20T14:08:19Z</time>
      </trkpt>
      <trkpt lat="43.70736" lon="3.82791">
        <ele>113</ele>
        <time>2021-02-20T14:08:20Z</time>
      </trkpt>
      <trkpt lat="43.70734" lon="3.82784">
        <ele>113</ele>
        <time>2021-02-20T14:08:21Z</time>
      </trkpt>
      <trkpt lat="43.70733" lon="3.82777">
        <ele>113</ele>
        <time>2021-02-20T14:08:22Z</time>
      </trkpt>
      <trkpt lat="43.70731" lon="3.8277">
        <ele>113</ele>
        <time>2021-02-20T14:08:23Z</time>
      </trkpt>
      <trkpt lat="43.70729" lon="3.82763">
        <ele>113</ele>
        <time>2021-02-20T14:08:24Z</time>
      </trkpt>
      <trkpt lat="43.70726" lon="3.82756">
        <ele>113</ele>
        <time>2021-02-20T14:08:25Z</time>
      </trkpt>
      <trkpt lat="43.70724" lon="3.8275">
        <ele>113</ele>
        <time>2021-02-20T14:08:26Z</time>
      </trkpt>
      <trkpt lat="43.70723" lon="3.82743">
        <ele>111</ele>
        <time>2021-02-20T14:08:27Z</time>
      </trkpt>
      <trkpt lat="43.7072" lon="3.82736">
        <ele>111</ele>
        <time>2021-02-20T14:08:28Z</time>
      </trkpt>
      <trkpt lat="43.70718" lon="3.82729">
        <ele>111</ele>
        <time>2021-02-20T14:08:29Z</time>
      </trkpt>
      <trkpt lat="43.70716" lon="3.82723">
        <ele>111</ele>
        <time>2021-02-20T14:08:30Z</time>
      </trkpt>
      <trkpt lat="43.70714" lon="3.82716">
        <ele>111</ele>
        <time>2021-02-20T14:08:31Z</time>
      </trkpt>
      <trkpt lat="43.70712" lon="3.8271">
        <ele>111</ele>
        <time>2021-02-20T14:08:32Z</time>
      </trkpt>
      <trkpt lat="43.70709" lon="3.82704">
        <ele>111</ele>
        <time>2021-02-20T14:08:33Z</time>
      </trkpt>
      <trkpt lat="43.70707" lon="3.82697">
        <ele>111</ele>
        <time>2021-02-20T14:08:34Z</time>
      </trkpt>
      <trkpt lat="43.70705" lon="3.82691">
        <ele>111</ele>
        <time>2021-02-20T14:08:35Z</time>
      </trkpt>
      <trkpt lat="43.70703" lon="3.82685">
        <ele>111</ele>
        <time>2021-02-20T14:08:36Z</time>
      </trkpt>
      <trkpt lat="43.707" lon="3.82678">
        <ele>110</ele>
        <time>2021-02-20T14:08:37Z</time>
      </trkpt>
      <trkpt lat="43.70698" lon="3.82672">
        <ele>110</ele>
        <time>2021-02-20T14:08:38Z</time>
      </trkpt>
      <trkpt lat="43.70696" lon="3.82665">
        <ele>110</ele>
        <time>2021-02-20T14:08:39Z</time>
      </trkpt>
      <trkpt lat="43.70694" lon="3.82659">
        <ele>110</ele>
        <time>2021-02-20T14:08:40Z</time>
      </trkpt>
      <trkpt lat="43.70692" lon="3.82653">
        <ele>110</ele>
        <time>2021-02-20T14:08:41Z</time>
      </trkpt>
      <trkpt lat="43.70689" lon="3.82646">
        <ele>110</ele>
        <time>2021-02-20T14:08:42Z</time>
      </trkpt>
      <trkpt lat="43.70686" lon="3.82639">
        <ele>110</ele>
        <time>2021-02-20T14:08:43Z</time>
      </trkpt>
      <trkpt lat="43.70683" lon="3.82632">
        <ele>110</ele>
        <time>2021-02-20T14:08:44Z</time>
      </trkpt>
      <trkpt lat="43.7068" lon="3.82626">
        <ele>110</ele>
        <time>2021-02-20T14:08:45Z</time>
      </trkpt>
      <trkpt lat="43.70678" lon="3.82619">
        <ele>110</ele>
        <time>2021-02-20T14:08:46Z</time>
      </trkpt>
      <trkpt lat="43.70675" lon="3.82613">
        <ele>109</ele>
        <time>2021-02-20T14:08:47Z</time>
      </trkpt>
      <trkpt lat="43.70672" lon="3.82606">
        <ele>109</ele>
        <time>2021-02-20T14:08:48Z</time>
      </trkpt>
      <trkpt lat="43.7067" lon="3.826">
        <ele>109</ele>
        <time>2021-02-20T14:08:49Z</time>
      </trkpt>
      <trkpt lat="43.70667" lon="3.82593">
        <ele>109</ele>
        <time>2021-02-20T14:08:50Z</time>
      </trkpt>
      <trkpt lat="43.70664" lon="3.82587">
        <ele>109</ele>
        <time>2021-02-20T14:08:51Z</time>
      </trkpt>
      <trkpt lat="43.70662" lon="3.8258">
        <ele>109</ele>
        <time>2021-02-20T14:08:52Z</time>
      </trkpt>
      <trkpt lat="43.70659" lon="3.82574">
        <ele>109</ele>
        <time>2021-02-20T14:08:53Z</time>
      </trkpt>
      <trkpt lat="43.70657" lon="3.82567">
        <ele>109</ele>
        <time>2021-02-20T14:08:54Z</time>
      </trkpt>
      <trkpt lat="43.70654" lon="3.8256">
        <ele>109</ele>
        <time>2021-02-20T14:08:55Z</time>
      </trkpt>
      <trkpt lat="43.70652" lon="3.82554">
        <ele>109</ele>
        <time>2021-02-20T14:08:56Z</time>
      </trkpt>
      <trkpt lat="43.7065" lon="3.82547">
        <ele>106</ele>
        <time>2021-02-20T14:08:57Z</time>
      </trkpt>
      <trkpt lat="43.70647" lon="3.8254">
        <ele>106</ele>
        <time>2021-02-20T14:08:58Z</time>
      </trkpt>
      <trkpt lat="43.70646" lon="3.82533">
        <ele>106</ele>
        <time>2021-02-20T14:08:59Z</time>
      </trkpt>
      <trkpt lat="43.70644" lon="3.82526">
        <ele>106</ele>
        <time>2021-02-20T14:09:00Z</time>
      </trkpt>
      <trkpt lat="43.70644" lon="3.82519">
        <ele>106</ele>
        <time>2021-02-20T14:09:01Z</time>
      </trkpt>
      <trkpt lat="43.70644" lon="3.82513">
        <ele>106</ele>
        <time>2021-02-20T14:09:02Z</time>
      </trkpt>
      <trkpt lat="43.70644" lon="3.82508">
        <ele>106</ele>
        <time>2021-02-20T14:09:03Z</time>
      </trkpt>
      <trkpt lat="43.70644" lon="3.82504">
        <ele>106</ele>
        <time>2021-02-20T14:09:04Z</time>
      </trkpt>
      <trkpt lat="43.70644" lon="3.82499">
        <ele>106</ele>
        <time>2021-02-20T14:09:05Z</time>
      </trkpt>
      <trkpt lat="43.70644" lon="3.82495">
        <ele>106</ele>
        <time>2021-02-20T14:09:06Z</time>
      </trkpt>
      <trkpt lat="43.70644" lon="3.82492">
        <ele>106</ele>
        <time>2021-02-20T14:09:07Z</time>
      </trkpt>
      <trkpt lat="43.70644" lon="3.82488">
        <ele>104</ele>
        <time>2021-02-20T14:09:08Z</time>
      </trkpt>
      <trkpt lat="43.70645" lon="3.82484">
        <ele>104</ele>
        <time>2021-02-20T14:09:09Z</time>
      </trkpt>
      <trkpt lat="43.70645" lon="3.8248">
        <ele>104</ele>
        <time>2021-02-20T14:09:10Z</time>
      </trkpt>
      <trkpt lat="43.70646" lon="3.82475">
        <ele>104</ele>
        <time>2021-02-20T14:09:11Z</time>
      </trkpt>
      <trkpt lat="43.70647" lon="3.82471">
        <ele>104</ele>
        <time>2021-02-20T14:09:12Z</time>
      </trkpt>
      <trkpt lat="43.70648" lon="3.82466">
        <ele>104</ele>
        <time>2021-02-20T14:09:13Z</time>
      </trkpt>
      <trkpt lat="43.70649" lon="3.82461">
        <ele>104</ele>
        <time>2021-02-20T14:09:14Z</time>
      </trkpt>
      <trkpt lat="43.70651" lon="3.82456">
        <ele>104</ele>
        <time>2021-02-20T14:09:15Z</time>
      </trkpt>
      <trkpt lat="43.70653" lon="3.82451">
        <ele>104</ele>
        <time>2021-02-20T14:09:16Z</time>
      </trkpt>
      <trkpt lat="43.70656" lon="3.82446">
        <ele>103</ele>
        <time>2021-02-20T14:09:17Z</time>
      </trkpt>
      <trkpt lat="43.70659" lon="3.82442">
        <ele>103</ele>
        <time>2021-02-20T14:09:18Z</time>
      </trkpt>
      <trkpt lat="43.70663" lon="3.82438">
        <ele>103</ele>
        <time>2021-02-20T14:09:19Z</time>
      </trkpt>
      <trkpt lat="43.70667" lon="3.82434">
        <ele>103</ele>
        <time>2021-02-20T14:09:20Z</time>
      </trkpt>
      <trkpt lat="43.70671" lon="3.82431">
        <ele>103</ele>
        <time>2021-02-20T14:09:21Z</time>
      </trkpt>
      <trkpt lat="43.70676" lon="3.82428">
        <ele>103</ele>
        <time>2021-02-20T14:09:22Z</time>
      </trkpt>
      <trkpt lat="43.70682" lon="3.82426">
        <ele>103</ele>
        <time>2021-02-20T14:09:23Z</time>
      </trkpt>
      <trkpt lat="43.70687" lon="3.82423">
        <ele>103</ele>
        <time>2021-02-20T14:09:24Z</time>
      </trkpt>
      <trkpt lat="43.70692" lon="3.8242">
        <ele>103</ele>
        <time>2021-02-20T14:09:25Z</time>
      </trkpt>
      <trkpt lat="43.70697" lon="3.82415">
        <ele>103</ele>
        <time>2021-02-20T14:09:26Z</time>
      </trkpt>
      <trkpt lat="43.70701" lon="3.8241">
        <ele>102</ele>
        <time>2021-02-20T14:09:27Z</time>
      </trkpt>
      <trkpt lat="43.70704" lon="3.82404">
        <ele>102</ele>
        <time>2021-02-20T14:09:28Z</time>
      </trkpt>
      <trkpt lat="43.70707" lon="3.82397">
        <ele>102</ele>
        <time>2021-02-20T14:09:29Z</time>
      </trkpt>
      <trkpt lat="43.70708" lon="3.8239">
        <ele>102</ele>
        <time>2021-02-20T14:09:30Z</time>
      </trkpt>
      <trkpt lat="43.70709" lon="3.82383">
        <ele>102</ele>
        <time>2021-02-20T14:09:31Z</time>
      </trkpt>
      <trkpt lat="43.70708" lon="3.82376">
        <ele>102</ele>
        <time>2021-02-20T14:09:32Z</time>
      </trkpt>
      <trkpt lat="43.70708" lon="3.8237">
        <ele>102</ele>
        <time>2021-02-20T14:09:33Z</time>
      </trkpt>
      <trkpt lat="43.70707" lon="3.82363">
        <ele>102</ele>
        <time>2021-02-20T14:09:34Z</time>
      </trkpt>
      <trkpt lat="43.70705" lon="3.82357">
        <ele>102</ele>
        <time>2021-02-20T14:09:35Z</time>
      </trkpt>
      <trkpt lat="43.70703" lon="3.82351">
        <ele>102</ele>
        <time>2021-02-20T14:09:36Z</time>
      </trkpt>
      <trkpt lat="43.70701" lon="3.82346">
        <ele>101</ele>
        <time>2021-02-20T14:09:37Z</time>
      </trkpt>
      <trkpt lat="43.70697" lon="3.82341">
        <ele>101</ele>
        <time>2021-02-20T14:09:38Z</time>
      </trkpt>
      <trkpt lat="43.70694" lon="3.82337">
        <ele>101</ele>
        <time>2021-02-20T14:09:39Z</time>
      </trkpt>
      <trkpt lat="43.70691" lon="3.82334">
        <ele>101</ele>
        <time>2021-02-20T14:09:40Z</time>
      </trkpt>
      <trkpt lat="43.70688" lon="3.8233">
        <ele>101</ele>
        <time>2021-02-20T14:09:41Z</time>
      </trkpt>
      <trkpt lat="43.70685" lon="3.82327">
        <ele>101</ele>
        <time>2021-02-20T14:09:42Z</time>
      </trkpt>
      <trkpt lat="43.70681" lon="3.82324">
        <ele>101</ele>
        <time>2021-02-20T14:09:43Z</time>
      </trkpt>
      <trkpt lat="43.70677" lon="3.82322">
        <ele>101</ele>
        <time>2021-02-20T14:09:44Z</time>
      </trkpt>
      <trkpt lat="43.70674" lon="3.82319">
        <ele>101</ele>
        <time>2021-02-20T14:09:45Z</time>
      </trkpt>
      <trkpt lat="43.7067" lon="3.82315">
        <ele>101</ele>
        <time>2021-02-20T14:09:46Z</time>
      </trkpt>
      <trkpt lat="43.70667" lon="3.82312">
        <ele>101</ele>
        <time>2021-02-20T14:09:47Z</time>
      </trkpt>
      <trkpt lat="43.70663" lon="3.82309">
        <ele>101</ele>
        <time>2021-02-20T14:09:48Z</time>
      </trkpt>
      <trkpt lat="43.7066" lon="3.82305">
        <ele>101</ele>
        <time>2021-02-20T14:09:49Z</time>
      </trkpt>
      <trkpt lat="43.70656" lon="3.82302">
        <ele>101</ele>
        <time>2021-02-20T14:09:50Z</time>
      </trkpt>
      <trkpt lat="43.70653" lon="3.82298">
        <ele>101</ele>
        <time>2021-02-20T14:09:51Z</time>
      </trkpt>
      <trkpt lat="43.7065" lon="3.82294">
        <ele>101</ele>
        <time>2021-02-20T14:09:52Z</time>
      </trkpt>
      <trkpt lat="43.70647" lon="3.82289">
        <ele>101</ele>
        <time>2021-02-20T14:09:53Z</time>
      </trkpt>
      <trkpt lat="43.70644" lon="3.82285">
        <ele>101</ele>
        <time>2021-02-20T14:09:54Z</time>
      </trkpt>
      <trkpt lat="43.7064" lon="3.82281">
        <ele>101</ele>
        <time>2021-02-20T14:09:55Z</time>
      </trkpt>
      <trkpt lat="43.70637" lon="3.82276">
        <ele>101</ele>
        <time>2021-02-20T14:09:56Z</time>
      </trkpt>
      <trkpt lat="43.70634" lon="3.82272">
        <ele>101</ele>
        <time>2021-02-20T14:09:57Z</time>
      </trkpt>
      <trkpt lat="43.70631" lon="3.82268">
        <ele>101</ele>
        <time>2021-02-20T14:09:58Z</time>
      </trkpt>
      <trkpt lat="43.70627" lon="3.82264">
        <ele>101</ele>
        <time>2021-02-20T14:09:59Z</time>
      </trkpt>
      <trkpt lat="43.70624" lon="3.8226">
        <ele>101</ele>
        <time>2021-02-20T14:10:00Z</time>
      </trkpt>
      <trkpt lat="43.7062" lon="3.82257">
        <ele>101</ele>
        <time>2021-02-20T14:10:01Z</time>
      </trkpt>
      <trkpt lat="43.70617" lon="3.82254">
        <ele>101</ele>
        <time>2021-02-20T14:10:02Z</time>
      </trkpt>
      <trkpt lat="43.70613" lon="3.82252">
        <ele>101</ele>
        <time>2021-02-20T14:10:03Z</time>
      </trkpt>
      <trkpt lat="43.7061" lon="3.8225">
        <ele>101</ele>
        <time>2021-02-20T14:10:04Z</time>
      </trkpt>
      <trkpt lat="43.70606" lon="3.82248">
        <ele>101</ele>
        <time>2021-02-20T14:10:05Z</time>
      </trkpt>
      <trkpt lat="43.70602" lon="3.82245">
        <ele>101</ele>
        <time>2021-02-20T14:10:06Z</time>
      </trkpt>
      <trkpt lat="43.70598" lon="3.82242">
        <ele>100</ele>
        <time>2021-02-20T14:10:07Z</time>
      </trkpt>
      <trkpt lat="43.70594" lon="3.8224">
        <ele>100</ele>
        <time>2021-02-20T14:10:08Z</time>
      </trkpt>
      <trkpt lat="43.7059" lon="3.82237">
        <ele>100</ele>
        <time>2021-02-20T14:10:09Z</time>
      </trkpt>
      <trkpt lat="43.70586" lon="3.82235">
        <ele>100</ele>
        <time>2021-02-20T14:10:10Z</time>
      </trkpt>
      <trkpt lat="43.70582" lon="3.82232">
        <ele>100</ele>
        <time>2021-02-20T14:10:11Z</time>
      </trkpt>
      <trkpt lat="43.70578" lon="3.82229">
        <ele>100</ele>
        <time>2021-02-20T14:10:12Z</time>
      </trkpt>
      <trkpt lat="43.70574" lon="3.82226">
        <ele>100</ele>
        <time>2021-02-20T14:10:13Z</time>
      </trkpt>
      <trkpt lat="43.70571" lon="3.82223">
        <ele>100</ele>
        <time>2021-02-20T14:10:14Z</time>
      </trkpt>
      <trkpt lat="43.70567" lon="3.8222">
        <ele>100</ele>
        <time>2021-02-20T14:10:15Z</time>
      </trkpt>
      <trkpt lat="43.70564" lon="3.82218">
        <ele>100</ele>
        <time>2021-02-20T14:10:16Z</time>
      </trkpt>
      <trkpt lat="43.7056" lon="3.82215">
        <ele>101</ele>
        <time>2021-02-20T14:10:17Z</time>
      </trkpt>
      <trkpt lat="43.70556" lon="3.82212">
        <ele>101</ele>
        <time>2021-02-20T14:10:18Z</time>
      </trkpt>
      <trkpt lat="43.70552" lon="3.82209">
        <ele>101</ele>
        <time>2021-02-20T14:10:19Z</time>
      </trkpt>
      <trkpt lat="43.70549" lon="3.82206">
        <ele>101</ele>
        <time>2021-02-20T14:10:20Z</time>
      </trkpt>
      <trkpt lat="43.70545" lon="3.82203">
        <ele>101</ele>
        <time>2021-02-20T14:10:21Z</time>
      </trkpt>
      <trkpt lat="43.70542" lon="3.822">
        <ele>101</ele>
        <time>2021-02-20T14:10:22Z</time>
      </trkpt>
      <trkpt lat="43.70539" lon="3.82197">
        <ele>101</ele>
        <time>2021-02-20T14:10:23Z</time>
      </trkpt>
      <trkpt lat="43.70536" lon="3.82194">
        <ele>101</ele>
        <time>2021-02-20T14:10:24Z</time>
      </trkpt>
      <trkpt lat="43.70532" lon="3.82191">
        <ele>101</ele>
        <time>2021-02-20T14:10:25Z</time>
      </trkpt>
      <trkpt lat="43.70529" lon="3.82188">
        <ele>101</ele>
        <time>2021-02-20T14:10:26Z</time>
      </trkpt>
      <trkpt lat="43.70526" lon="3.82185">
        <ele>101</ele>
        <time>2021-02-20T14:10:27Z</time>
      </trkpt>
      <trkpt lat="43.70523" lon="3.82182">
        <ele>101</ele>
        <time>2021-02-20T14:10:28Z</time>
      </trkpt>
      <trkpt lat="43.7052" lon="3.82179">
        <ele>101</ele>
        <time>2021-02-20T14:10:29Z</time>
      </trkpt>
      <trkpt lat="43.70513" lon="3.82173">
        <ele>101</ele>
        <time>2021-02-20T14:10:31Z</time>
      </trkpt>
      <trkpt lat="43.7051" lon="3.8217">
        <ele>101</ele>
        <time>2021-02-20T14:10:32Z</time>
      </trkpt>
      <trkpt lat="43.70507" lon="3.82167">
        <ele>101</ele>
        <time>2021-02-20T14:10:33Z</time>
      </trkpt>
      <trkpt lat="43.70503" lon="3.82164">
        <ele>101</ele>
        <time>2021-02-20T14:10:34Z</time>
      </trkpt>
      <trkpt lat="43.705" lon="3.82161">
        <ele>101</ele>
        <time>2021-02-20T14:10:35Z</time>
      </trkpt>
      <trkpt lat="43.70497" lon="3.82158">
        <ele>101</ele>
        <time>2021-02-20T14:10:36Z</time>
      </trkpt>
      <trkpt lat="43.70494" lon="3.82155">
        <ele>102</ele>
        <time>2021-02-20T14:10:37Z</time>
      </trkpt>
      <trkpt lat="43.7049" lon="3.82152">
        <ele>102</ele>
        <time>2021-02-20T14:10:38Z</time>
      </trkpt>
      <trkpt lat="43.70487" lon="3.82149">
        <ele>102</ele>
        <time>2021-02-20T14:10:39Z</time>
      </trkpt>
      <trkpt lat="43.70484" lon="3.82146">
        <ele>102</ele>
        <time>2021-02-20T14:10:40Z</time>
      </trkpt>
      <trkpt lat="43.70481" lon="3.82143">
        <ele>102</ele>
        <time>2021-02-20T14:10:41Z</time>
      </trkpt>
      <trkpt lat="43.70478" lon="3.8214">
        <ele>102</ele>
        <time>2021-02-20T14:10:42Z</time>
      </trkpt>
      <trkpt lat="43.70475" lon="3.82137">
        <ele>102</ele>
        <time>2021-02-20T14:10:43Z</time>
      </trkpt>
      <trkpt lat="43.70471" lon="3.82134">
        <ele>102</ele>
        <time>2021-02-20T14:10:44Z</time>
      </trkpt>
      <trkpt lat="43.70468" lon="3.82131">
        <ele>102</ele>
        <time>2021-02-20T14:10:45Z</time>
      </trkpt>
      <trkpt lat="43.70465" lon="3.82128">
        <ele>102</ele>
        <time>2021-02-20T14:10:46Z</time>
      </trkpt>
      <trkpt lat="43.70462" lon="3.82125">
        <ele>103</ele>
        <time>2021-02-20T14:10:47Z</time>
      </trkpt>
      <trkpt lat="43.70459" lon="3.82122">
        <ele>103</ele>
        <time>2021-02-20T14:10:48Z</time>
      </trkpt>
      <trkpt lat="43.70456" lon="3.82119">
        <ele>103</ele>
        <time>2021-02-20T14:10:49Z</time>
      </trkpt>
      <trkpt lat="43.70452" lon="3.82116">
        <ele>103</ele>
        <time>2021-02-20T14:10:50Z</time>
      </trkpt>
      <trkpt lat="43.70449" lon="3.82114">
        <ele>103</ele>
        <time>2021-02-20T14:10:51Z</time>
      </trkpt>
      <trkpt lat="43.70446" lon="3.82111">
        <ele>103</ele>
        <time>2021-02-20T14:10:52Z</time>
      </trkpt>
      <trkpt lat="43.70442" lon="3.82109">
        <ele>103</ele>
        <time>2021-02-20T14:10:53Z</time>
      </trkpt>
      <trkpt lat="43.70438" lon="3.82107">
        <ele>103</ele>
        <time>2021-02-20T14:10:54Z</time>
      </trkpt>
      <trkpt lat="43.70435" lon="3.82105">
        <ele>103</ele>
        <time>2021-02-20T14:10:55Z</time>
      </trkpt>
      <trkpt lat="43.70431" lon="3.82103">
        <ele>103</ele>
        <time>2021-02-20T14:10:56Z</time>
      </trkpt>
      <trkpt lat="43.70427" lon="3.82101">
        <ele>104</ele>
        <time>2021-02-20T14:10:57Z</time>
      </trkpt>
      <trkpt lat="43.70423" lon="3.821">
        <ele>104</ele>
        <time>2021-02-20T14:10:58Z</time>
      </trkpt>
      <trkpt lat="43.70419" lon="3.82098">
        <ele>104</ele>
        <time>2021-02-20T14:10:59Z</time>
      </trkpt>
      <trkpt lat="43.70415" lon="3.82097">
        <ele>104</ele>
        <time>2021-02-20T14:11:00Z</time>
      </trkpt>
      <trkpt lat="43.70411" lon="3.82095">
        <ele>104</ele>
        <time>2021-02-20T14:11:01Z</time>
      </trkpt>
      <trkpt lat="43.70407" lon="3.82094">
        <ele>104</ele>
        <time>2021-02-20T14:11:02Z</time>
      </trkpt>
      <trkpt lat="43.70403" lon="3.82092">
        <ele>104</ele>
        <time>2021-02-20T14:11:03Z</time>
      </trkpt>
      <trkpt lat="43.70399" lon="3.82091">
        <ele>104</ele>
        <time>2021-02-20T14:11:04Z</time>
      </trkpt>
      <trkpt lat="43.70395" lon="3.82089">
        <ele>104</ele>
        <time>2021-02-20T14:11:05Z</time>
      </trkpt>
      <trkpt lat="43.70391" lon="3.82088">
        <ele>104</ele>
        <time>2021-02-20T14:11:06Z</time>
      </trkpt>
      <trkpt lat="43.70387" lon="3.82087">
        <ele>104</ele>
        <time>2021-02-20T14:11:07Z</time>
      </trkpt>
      <trkpt lat="43.70379" lon="3.82083">
        <ele>104</ele>
        <time>2021-02-20T14:11:09Z</time>
      </trkpt>
      <trkpt lat="43.70375" lon="3.82082">
        <ele>104</ele>
        <time>2021-02-20T14:11:10Z</time>
      </trkpt>
      <trkpt lat="43.70371" lon="3.82081">
        <ele>104</ele>
        <time>2021-02-20T14:11:11Z</time>
      </trkpt>
      <trkpt lat="43.70367" lon="3.82079">
        <ele>104</ele>
        <time>2021-02-20T14:11:12Z</time>
      </trkpt>
      <trkpt lat="43.70363" lon="3.82078">
        <ele>104</ele>
        <time>2021-02-20T14:11:13Z</time>
      </trkpt>
      <trkpt lat="43.70359" lon="3.82077">
        <ele>104</ele>
        <time>2021-02-20T14:11:14Z</time>
      </trkpt>
      <trkpt lat="43.70355" lon="3.82075">
        <ele>104</ele>
        <time>2021-02-20T14:11:15Z</time>
      </trkpt>
      <trkpt lat="43.70351" lon="3.82073">
        <ele>104</ele>
        <time>2021-02-20T14:11:16Z</time>
      </trkpt>
      <trkpt lat="43.70347" lon="3.82071">
        <ele>104</ele>
        <time>2021-02-20T14:11:17Z</time>
      </trkpt>
      <trkpt lat="43.70343" lon="3.82068">
        <ele>104</ele>
        <time>2021-02-20T14:11:18Z</time>
      </trkpt>
      <trkpt lat="43.70339" lon="3.82065">
        <ele>104</ele>
        <time>2021-02-20T14:11:19Z</time>
      </trkpt>
      <trkpt lat="43.70335" lon="3.82062">
        <ele>104</ele>
        <time>2021-02-20T14:11:20Z</time>
      </trkpt>
      <trkpt lat="43.70332" lon="3.82059">
        <ele>104</ele>
        <time>2021-02-20T14:11:21Z</time>
      </trkpt>
      <trkpt lat="43.70328" lon="3.82055">
        <ele>104</ele>
        <time>2021-02-20T14:11:22Z</time>
      </trkpt>
      <trkpt lat="43.70325" lon="3.82051">
        <ele>104</ele>
        <time>2021-02-20T14:11:23Z</time>
      </trkpt>
      <trkpt lat="43.70321" lon="3.82048">
        <ele>104</ele>
        <time>2021-02-20T14:11:24Z</time>
      </trkpt>
      <trkpt lat="43.70318" lon="3.82044">
        <ele>104</ele>
        <time>2021-02-20T14:11:25Z</time>
      </trkpt>
      <trkpt lat="43.70315" lon="3.8204">
        <ele>104</ele>
        <time>2021-02-20T14:11:26Z</time>
      </trkpt>
      <trkpt lat="43.70311" lon="3.82036">
        <ele>105</ele>
        <time>2021-02-20T14:11:27Z</time>
      </trkpt>
      <trkpt lat="43.70308" lon="3.82032">
        <ele>105</ele>
        <time>2021-02-20T14:11:28Z</time>
      </trkpt>
      <trkpt lat="43.70304" lon="3.82029">
        <ele>105</ele>
        <time>2021-02-20T14:11:29Z</time>
      </trkpt>
      <trkpt lat="43.70301" lon="3.82025">
        <ele>105</ele>
        <time>2021-02-20T14:11:30Z</time>
      </trkpt>
      <trkpt lat="43.70297" lon="3.82021">
        <ele>105</ele>
        <time>2021-02-20T14:11:31Z</time>
      </trkpt>
      <trkpt lat="43.70294" lon="3.82017">
        <ele>105</ele>
        <time>2021-02-20T14:11:32Z</time>
      </trkpt>
      <trkpt lat="43.70291" lon="3.82014">
        <ele>105</ele>
        <time>2021-02-20T14:11:33Z</time>
      </trkpt>
      <trkpt lat="43.70287" lon="3.8201">
        <ele>105</ele>
        <time>2021-02-20T14:11:34Z</time>
      </trkpt>
      <trkpt lat="43.70284" lon="3.82006">
        <ele>105</ele>
        <time>2021-02-20T14:11:35Z</time>
      </trkpt>
      <trkpt lat="43.70281" lon="3.82002">
        <ele>105</ele>
        <time>2021-02-20T14:11:36Z</time>
      </trkpt>
      <trkpt lat="43.70277" lon="3.81999">
        <ele>105</ele>
        <time>2021-02-20T14:11:37Z</time>
      </trkpt>
      <trkpt lat="43.70274" lon="3.81995">
        <ele>105</ele>
        <time>2021-02-20T14:11:38Z</time>
      </trkpt>
      <trkpt lat="43.70271" lon="3.81991">
        <ele>105</ele>
        <time>2021-02-20T14:11:39Z</time>
      </trkpt>
      <trkpt lat="43.70267" lon="3.81988">
        <ele>105</ele>
        <time>2021-02-20T14:11:40Z</time>
      </trkpt>
      <trkpt lat="43.70264" lon="3.81984">
        <ele>105</ele>
        <time>2021-02-20T14:11:41Z</time>
      </trkpt>
      <trkpt lat="43.70261" lon="3.8198">
        <ele>105</ele>
        <time>2021-02-20T14:11:42Z</time>
      </trkpt>
      <trkpt lat="43.70258" lon="3.81976">
        <ele>105</ele>
        <time>2021-02-20T14:11:43Z</time>
      </trkpt>
      <trkpt lat="43.70255" lon="3.81971">
        <ele>105</ele>
        <time>2021-02-20T14:11:44Z</time>
      </trkpt>
      <trkpt lat="43.70252" lon="3.81968">
        <ele>105</ele>
        <time>2021-02-20T14:11:45Z</time>
      </trkpt>
      <trkpt lat="43.70249" lon="3.81963">
        <ele>105</ele>
        <time>2021-02-20T14:11:46Z</time>
      </trkpt>
      <trkpt lat="43.70247" lon="3.81958">
        <ele>106</ele>
        <time>2021-02-20T14:11:47Z</time>
      </trkpt>
      <trkpt lat="43.70244" lon="3.81953">
        <ele>106</ele>
        <time>2021-02-20T14:11:48Z</time>
      </trkpt>
      <trkpt lat="43.70242" lon="3.81949">
        <ele>106</ele>
        <time>2021-02-20T14:11:49Z</time>
      </trkpt>
      <trkpt lat="43.7024" lon="3.81944">
        <ele>106</ele>
        <time>2021-02-20T14:11:50Z</time>
      </trkpt>
      <trkpt lat="43.70238" lon="3.8194">
        <ele>106</ele>
        <time>2021-02-20T14:11:51Z</time>
      </trkpt>
      <trkpt lat="43.70236" lon="3.81936">
        <ele>106</ele>
        <time>2021-02-20T14:11:52Z</time>
      </trkpt>
      <trkpt lat="43.70233" lon="3.81931">
        <ele>106</ele>
        <time>2021-02-20T14:11:53Z</time>
      </trkpt>
      <trkpt lat="43.70231" lon="3.81926">
        <ele>106</ele>
        <time>2021-02-20T14:11:54Z</time>
      </trkpt>
      <trkpt lat="43.7023" lon="3.81922">
        <ele>106</ele>
        <time>2021-02-20T14:11:55Z</time>
      </trkpt>
      <trkpt lat="43.70228" lon="3.81917">
        <ele>106</ele>
        <time>2021-02-20T14:11:56Z</time>
      </trkpt>
      <trkpt lat="43.70226" lon="3.81913">
        <ele>107</ele>
        <time>2021-02-20T14:11:57Z</time>
      </trkpt>
      <trkpt lat="43.70224" lon="3.81909">
        <ele>107</ele>
        <time>2021-02-20T14:11:58Z</time>
      </trkpt>
      <trkpt lat="43.70222" lon="3.81904">
        <ele>107</ele>
        <time>2021-02-20T14:11:59Z</time>
      </trkpt>
      <trkpt lat="43.7022" lon="3.819">
        <ele>107</ele>
        <time>2021-02-20T14:12:00Z</time>
      </trkpt>
      <trkpt lat="43.70218" lon="3.81895">
        <ele>107</ele>
        <time>2021-02-20T14:12:01Z</time>
      </trkpt>
      <trkpt lat="43.70216" lon="3.81891">
        <ele>107</ele>
        <time>2021-02-20T14:12:02Z</time>
      </trkpt>
      <trkpt lat="43.70214" lon="3.81886">
        <ele>107</ele>
        <time>2021-02-20T14:12:03Z</time>
      </trkpt>
      <trkpt lat="43.70212" lon="3.81881">
        <ele>107</ele>
        <time>2021-02-20T14:12:04Z</time>
      </trkpt>
      <trkpt lat="43.7021" lon="3.81877">
        <ele>107</ele>
        <time>2021-02-20T14:12:05Z</time>
      </trkpt>
      <trkpt lat="43.70209" lon="3.81872">
        <ele>107</ele>
        <time>2021-02-20T14:12:06Z</time>
      </trkpt>
      <trkpt lat="43.70207" lon="3.81868">
        <ele>108</ele>
        <time>2021-02-20T14:12:07Z</time>
      </trkpt>
      <trkpt lat="43.70205" lon="3.81864">
        <ele>108</ele>
        <time>2021-02-20T14:12:08Z</time>
      </trkpt>
      <trkpt lat="43.70203" lon="3.81859">
        <ele>108</ele>
        <time>2021-02-20T14:12:09Z</time>
      </trkpt>
      <trkpt lat="43.70201" lon="3.81855">
        <ele>108</ele>
        <time>2021-02-20T14:12:10Z</time>
      </trkpt>
      <trkpt lat="43.70199" lon="3.8185">
        <ele>108</ele>
        <time>2021-02-20T14:12:11Z</time>
      </trkpt>
      <trkpt lat="43.70197" lon="3.81846">
        <ele>108</ele>
        <time>2021-02-20T14:12:12Z</time>
      </trkpt>
      <trkpt lat="43.70195" lon="3.81842">
        <ele>108</ele>
        <time>2021-02-20T14:12:13Z</time>
      </trkpt>
      <trkpt lat="43.70193" lon="3.81838">
        <ele>108</ele>
        <time>2021-02-20T14:12:14Z</time>
      </trkpt>
      <trkpt lat="43.70191" lon="3.81833">
        <ele>108</ele>
        <time>2021-02-20T14:12:15Z</time>
      </trkpt>
      <trkpt lat="43.70188" lon="3.81829">
        <ele>108</ele>
        <time>2021-02-20T14:12:16Z</time>
      </trkpt>
      <trkpt lat="43.70187" lon="3.81825">
        <ele>111</ele>
        <time>2021-02-20T14:12:17Z</time>
      </trkpt>
      <trkpt lat="43.70185" lon="3.81821">
        <ele>111</ele>
        <time>2021-02-20T14:12:18Z</time>
      </trkpt>
      <trkpt lat="43.70183" lon="3.81816">
        <ele>111</ele>
        <time>2021-02-20T14:12:19Z</time>
      </trkpt>
      <trkpt lat="43.70181" lon="3.81812">
        <ele>111</ele>
        <time>2021-02-20T14:12:20Z</time>
      </trkpt>
      <trkpt lat="43.70179" lon="3.81808">
        <ele>111</ele>
        <time>2021-02-20T14:12:21Z</time>
      </trkpt>
      <trkpt lat="43.70178" lon="3.81804">
        <ele>111</ele>
        <time>2021-02-20T14:12:22Z</time>
      </trkpt>
      <trkpt lat="43.70176" lon="3.818">
        <ele>111</ele>
        <time>2021-02-20T14:12:23Z</time>
      </trkpt>
      <trkpt lat="43.70174" lon="3.81796">
        <ele>111</ele>
        <time>2021-02-20T14:12:24Z</time>
      </trkpt>
      <trkpt lat="43.70172" lon="3.81792">
        <ele>111</ele>
        <time>2021-02-20T14:12:25Z</time>
      </trkpt>
      <trkpt lat="43.7017" lon="3.81788">
        <ele>111</ele>
        <time>2021-02-20T14:12:26Z</time>
      </trkpt>
      <trkpt lat="43.70168" lon="3.81783">
        <ele>112</ele>
        <time>2021-02-20T14:12:27Z</time>
      </trkpt>
      <trkpt lat="43.70166" lon="3.81779">
        <ele>112</ele>
        <time>2021-02-20T14:12:28Z</time>
      </trkpt>
      <trkpt lat="43.70164" lon="3.81775">
        <ele>112</ele>
        <time>2021-02-20T14:12:29Z</time>
      </trkpt>
      <trkpt lat="43.70163" lon="3.81771">
        <ele>112</ele>
        <time>2021-02-20T14:12:30Z</time>
      </trkpt>
      <trkpt lat="43.70161" lon="3.81767">
        <ele>112</ele>
        <time>2021-02-20T14:12:31Z</time>
      </trkpt>
      <trkpt lat="43.70159" lon="3.81762">
        <ele>112</ele>
        <time>2021-02-20T14:12:32Z</time>
      </trkpt>
      <trkpt lat="43.70157" lon="3.81758">
        <ele>112</ele>
        <time>2021-02-20T14:12:33Z</time>
      </trkpt>
      <trkpt lat="43.70155" lon="3.81754">
        <ele>112</ele>
        <time>2021-02-20T14:12:34Z</time>
      </trkpt>
      <trkpt lat="43.70153" lon="3.8175">
        <ele>112</ele>
        <time>2021-02-20T14:12:35Z</time>
      </trkpt>
      <trkpt lat="43.70151" lon="3.81746">
        <ele>112</ele>
        <time>2021-02-20T14:12:36Z</time>
      </trkpt>
      <trkpt lat="43.70149" lon="3.81742">
        <ele>114</ele>
        <time>2021-02-20T14:12:37Z</time>
      </trkpt>
      <trkpt lat="43.70147" lon="3.81737">
        <ele>114</ele>
        <time>2021-02-20T14:12:38Z</time>
      </trkpt>
      <trkpt lat="43.70145" lon="3.81733">
        <ele>114</ele>
        <time>2021-02-20T14:12:39Z</time>
      </trkpt>
      <trkpt lat="43.70144" lon="3.81729">
        <ele>114</ele>
        <time>2021-02-20T14:12:40Z</time>
      </trkpt>
      <trkpt lat="43.70142" lon="3.81725">
        <ele>114</ele>
        <time>2021-02-20T14:12:41Z</time>
      </trkpt>
      <trkpt lat="43.7014" lon="3.81721">
        <ele>114</ele>
        <time>2021-02-20T14:12:42Z</time>
      </trkpt>
      <trkpt lat="43.70138" lon="3.81716">
        <ele>114</ele>
        <time>2021-02-20T14:12:43Z</time>
      </trkpt>
      <trkpt lat="43.70136" lon="3.81712">
        <ele>114</ele>
        <time>2021-02-20T14:12:44Z</time>
      </trkpt>
      <trkpt lat="43.70134" lon="3.81708">
        <ele>114</ele>
        <time>2021-02-20T14:12:45Z</time>
      </trkpt>
      <trkpt lat="43.70133" lon="3.81704">
        <ele>114</ele>
        <time>2021-02-20T14:12:46Z</time>
      </trkpt>
      <trkpt lat="43.70131" lon="3.817">
        <ele>115</ele>
        <time>2021-02-20T14:12:47Z</time>
      </trkpt>
      <trkpt lat="43.70129" lon="3.81696">
        <ele>115</ele>
        <time>2021-02-20T14:12:48Z</time>
      </trkpt>
      <trkpt lat="43.70127" lon="3.81692">
        <ele>115</ele>
        <time>2021-02-20T14:12:49Z</time>
      </trkpt>
      <trkpt lat="43.70125" lon="3.81688">
        <ele>115</ele>
        <time>2021-02-20T14:12:50Z</time>
      </trkpt>
      <trkpt lat="43.70123" lon="3.81683">
        <ele>115</ele>
        <time>2021-02-20T14:12:51Z</time>
      </trkpt>
      <trkpt lat="43.70121" lon="3.81679">
        <ele>115</ele>
        <time>2021-02-20T14:12:52Z</time>
      </trkpt>
      <trkpt lat="43.70119" lon="3.81675">
        <ele>115</ele>
        <time>2021-02-20T14:12:53Z</time>
      </trkpt>
      <trkpt lat="43.70117" lon="3.81671">
        <ele>115</ele>
        <time>2021-02-20T14:12:54Z</time>
      </trkpt>
      <trkpt lat="43.70115" lon="3.81667">
        <ele>115</ele>
        <time>2021-02-20T14:12:55Z</time>
      </trkpt>
      <trkpt lat="43.70113" lon="3.81662">
        <ele>115</ele>
        <time>2021-02-20T14:12:56Z</time>
      </trkpt>
      <trkpt lat="43.70111" lon="3.81658">
        <ele>116</ele>
        <time>2021-02-20T14:12:57Z</time>
      </trkpt>
      <trkpt lat="43.70109" lon="3.81654">
        <ele>116</ele>
        <time>2021-02-20T14:12:58Z</time>
      </trkpt>
      <trkpt lat="43.70107" lon="3.81649">
        <ele>116</ele>
        <time>2021-02-20T14:12:59Z</time>
      </trkpt>
      <trkpt lat="43.70106" lon="3.81645">
        <ele>116</ele>
        <time>2021-02-20T14:13:00Z</time>
      </trkpt>
      <trkpt lat="43.70104" lon="3.8164">
        <ele>116</ele>
        <time>2021-02-20T14:13:01Z</time>
      </trkpt>
      <trkpt lat="43.70102" lon="3.81636">
        <ele>116</ele>
        <time>2021-02-20T14:13:02Z</time>
      </trkpt>
      <trkpt lat="43.701" lon="3.81631">
        <ele>116</ele>
        <time>2021-02-20T14:13:03Z</time>
      </trkpt>
      <trkpt lat="43.70097" lon="3.81626">
        <ele>116</ele>
        <time>2021-02-20T14:13:04Z</time>
      </trkpt>
      <trkpt lat="43.70095" lon="3.81621">
        <ele>116</ele>
        <time>2021-02-20T14:13:05Z</time>
      </trkpt>
      <trkpt lat="43.70093" lon="3.81616">
        <ele>116</ele>
        <time>2021-02-20T14:13:06Z</time>
      </trkpt>
      <trkpt lat="43.7009" lon="3.81611">
        <ele>117</ele>
        <time>2021-02-20T14:13:07Z</time>
      </trkpt>
      <trkpt lat="43.70088" lon="3.81605">
        <ele>117</ele>
        <time>2021-02-20T14:13:08Z</time>
      </trkpt>
      <trkpt lat="43.70086" lon="3.81599">
        <ele>117</ele>
        <time>2021-02-20T14:13:09Z</time>
      </trkpt>
      <trkpt lat="43.70084" lon="3.81593">
        <ele>117</ele>
        <time>2021-02-20T14:13:10Z</time>
      </trkpt>
      <trkpt lat="43.70083" lon="3.81587">
        <ele>117</ele>
        <time>2021-02-20T14:13:11Z</time>
      </trkpt>
      <trkpt lat="43.70081" lon="3.81581">
        <ele>117</ele>
        <time>2021-02-20T14:13:12Z</time>
      </trkpt>
      <trkpt lat="43.7008" lon="3.81575">
        <ele>117</ele>
        <time>2021-02-20T14:13:13Z</time>
      </trkpt>
      <trkpt lat="43.70078" lon="3.8157">
        <ele>117</ele>
        <time>2021-02-20T14:13:14Z</time>
      </trkpt>
      <trkpt lat="43.70077" lon="3.81564">
        <ele>117</ele>
        <time>2021-02-20T14:13:15Z</time>
      </trkpt>
      <trkpt lat="43.70077" lon="3.81558">
        <ele>117</ele>
        <time>2021-02-20T14:13:16Z</time>
      </trkpt>
      <trkpt lat="43.70076" lon="3.81552">
        <ele>118</ele>
        <time>2021-02-20T14:13:17Z</time>
      </trkpt>
      <trkpt lat="43.70075" lon="3.81545">
        <ele>118</ele>
        <time>2021-02-20T14:13:18Z</time>
      </trkpt>
      <trkpt lat="43.70073" lon="3.81539">
        <ele>118</ele>
        <time>2021-02-20T14:13:19Z</time>
      </trkpt>
      <trkpt lat="43.7007" lon="3.81533">
        <ele>118</ele>
        <time>2021-02-20T14:13:20Z</time>
      </trkpt>
      <trkpt lat="43.70066" lon="3.81528">
        <ele>118</ele>
        <time>2021-02-20T14:13:21Z</time>
      </trkpt>
      <trkpt lat="43.70061" lon="3.81525">
        <ele>118</ele>
        <time>2021-02-20T14:13:22Z</time>
      </trkpt>
      <trkpt lat="43.70056" lon="3.81523">
        <ele>118</ele>
        <time>2021-02-20T14:13:23Z</time>
      </trkpt>
      <trkpt lat="43.70052" lon="3.8152">
        <ele>118</ele>
        <time>2021-02-20T14:13:24Z</time>
      </trkpt>
      <trkpt lat="43.70048" lon="3.81518">
        <ele>118</ele>
        <time>2021-02-20T14:13:25Z</time>
      </trkpt>
      <trkpt lat="43.70044" lon="3.81516">
        <ele>118</ele>
        <time>2021-02-20T14:13:26Z</time>
      </trkpt>
      <trkpt lat="43.7004" lon="3.81514">
        <ele>119</ele>
        <time>2021-02-20T14:13:27Z</time>
      </trkpt>
      <trkpt lat="43.70036" lon="3.81512">
        <ele>119</ele>
        <time>2021-02-20T14:13:28Z</time>
      </trkpt>
      <trkpt lat="43.70032" lon="3.81511">
        <ele>119</ele>
        <time>2021-02-20T14:13:29Z</time>
      </trkpt>
      <trkpt lat="43.70028" lon="3.81509">
        <ele>119</ele>
        <time>2021-02-20T14:13:30Z</time>
      </trkpt>
      <trkpt lat="43.70024" lon="3.81508">
        <ele>119</ele>
        <time>2021-02-20T14:13:31Z</time>
      </trkpt>
      <trkpt lat="43.70021" lon="3.81507">
        <ele>119</ele>
        <time>2021-02-20T14:13:32Z</time>
      </trkpt>
      <trkpt lat="43.70017" lon="3.81506">
        <ele>119</ele>
        <time>2021-02-20T14:13:33Z</time>
      </trkpt>
      <trkpt lat="43.70013" lon="3.81505">
        <ele>119</ele>
        <time>2021-02-20T14:13:34Z</time>
      </trkpt>
      <trkpt lat="43.70009" lon="3.81504">
        <ele>119</ele>
        <time>2021-02-20T14:13:35Z</time>
      </trkpt>
      <trkpt lat="43.70005" lon="3.81503">
        <ele>119</ele>
        <time>2021-02-20T14:13:36Z</time>
      </trkpt>
      <trkpt lat="43.70002" lon="3.81502">
        <ele>119</ele>
        <time>2021-02-20T14:13:37Z</time>
      </trkpt>
      <trkpt lat="43.69998" lon="3.815">
        <ele>119</ele>
        <time>2021-02-20T14:13:38Z</time>
      </trkpt>
      <trkpt lat="43.69995" lon="3.81497">
        <ele>119</ele>
        <time>2021-02-20T14:13:39Z</time>
      </trkpt>
      <trkpt lat="43.69992" lon="3.81495">
        <ele>119</ele>
        <time>2021-02-20T14:13:40Z</time>
      </trkpt>
      <trkpt lat="43.69989" lon="3.81492">
        <ele>119</ele>
        <time>2021-02-20T14:13:41Z</time>
      </trkpt>
      <trkpt lat="43.69986" lon="3.81489">
        <ele>119</ele>
        <time>2021-02-20T14:13:42Z</time>
      </trkpt>
      <trkpt lat="43.69984" lon="3.81486">
        <ele>119</ele>
        <time>2021-02-20T14:13:43Z</time>
      </trkpt>
      <trkpt lat="43.69981" lon="3.81482">
        <ele>119</ele>
        <time>2021-02-20T14:13:44Z</time>
      </trkpt>
      <trkpt lat="43.69979" lon="3.81478">
        <ele>119</ele>
        <time>2021-02-20T14:13:45Z</time>
      </trkpt>
      <trkpt lat="43.69977" lon="3.81475">
        <ele>119</ele>
        <time>2021-02-20T14:13:46Z</time>
      </trkpt>
      <trkpt lat="43.69974" lon="3.81471">
        <ele>121</ele>
        <time>2021-02-20T14:13:47Z</time>
      </trkpt>
      <trkpt lat="43.69972" lon="3.81467">
        <ele>121</ele>
        <time>2021-02-20T14:13:48Z</time>
      </trkpt>
      <trkpt lat="43.6997" lon="3.81463">
        <ele>121</ele>
        <time>2021-02-20T14:13:49Z</time>
      </trkpt>
      <trkpt lat="43.69969" lon="3.81458">
        <ele>121</ele>
        <time>2021-02-20T14:13:50Z</time>
      </trkpt>
      <trkpt lat="43.69967" lon="3.81454">
        <ele>121</ele>
        <time>2021-02-20T14:13:51Z</time>
      </trkpt>
      <trkpt lat="43.69965" lon="3.81449">
        <ele>121</ele>
        <time>2021-02-20T14:13:52Z</time>
      </trkpt>
      <trkpt lat="43.69964" lon="3.81445">
        <ele>121</ele>
        <time>2021-02-20T14:13:53Z</time>
      </trkpt>
      <trkpt lat="43.69962" lon="3.81441">
        <ele>121</ele>
        <time>2021-02-20T14:13:54Z</time>
      </trkpt>
      <trkpt lat="43.69961" lon="3.81436">
        <ele>121</ele>
        <time>2021-02-20T14:13:55Z</time>
      </trkpt>
      <trkpt lat="43.6996" lon="3.81432">
        <ele>121</ele>
        <time>2021-02-20T14:13:56Z</time>
      </trkpt>
      <trkpt lat="43.69959" lon="3.81428">
        <ele>122</ele>
        <time>2021-02-20T14:13:57Z</time>
      </trkpt>
      <trkpt lat="43.69958" lon="3.81424">
        <ele>122</ele>
        <time>2021-02-20T14:13:58Z</time>
      </trkpt>
      <trkpt lat="43.69957" lon="3.8142">
        <ele>122</ele>
        <time>2021-02-20T14:13:59Z</time>
      </trkpt>
      <trkpt lat="43.69956" lon="3.81416">
        <ele>122</ele>
        <time>2021-02-20T14:14:00Z</time>
      </trkpt>
      <trkpt lat="43.69955" lon="3.81412">
        <ele>122</ele>
        <time>2021-02-20T14:14:01Z</time>
      </trkpt>
      <trkpt lat="43.69954" lon="3.81408">
        <ele>122</ele>
        <time>2021-02-20T14:14:02Z</time>
      </trkpt>
      <trkpt lat="43.69953" lon="3.81404">
        <ele>122</ele>
        <time>2021-02-20T14:14:03Z</time>
      </trkpt>
      <trkpt lat="43.69952" lon="3.81399">
        <ele>122</ele>
        <time>2021-02-20T14:14:04Z</time>
      </trkpt>
      <trkpt lat="43.69951" lon="3.81395">
        <ele>122</ele>
        <time>2021-02-20T14:14:05Z</time>
      </trkpt>
      <trkpt lat="43.69951" lon="3.81391">
        <ele>122</ele>
        <time>2021-02-20T14:14:06Z</time>
      </trkpt>
      <trkpt lat="43.6995" lon="3.81386">
        <ele>124</ele>
        <time>2021-02-20T14:14:07Z</time>
      </trkpt>
      <trkpt lat="43.69949" lon="3.81382">
        <ele>124</ele>
        <time>2021-02-20T14:14:08Z</time>
      </trkpt>
      <trkpt lat="43.69948" lon="3.81377">
        <ele>124</ele>
        <time>2021-02-20T14:14:09Z</time>
      </trkpt>
      <trkpt lat="43.69948" lon="3.81373">
        <ele>124</ele>
        <time>2021-02-20T14:14:10Z</time>
      </trkpt>
      <trkpt lat="43.69947" lon="3.81369">
        <ele>124</ele>
        <time>2021-02-20T14:14:11Z</time>
      </trkpt>
      <trkpt lat="43.69946" lon="3.81366">
        <ele>124</ele>
        <time>2021-02-20T14:14:12Z</time>
      </trkpt>
      <trkpt lat="43.69945" lon="3.81362">
        <ele>124</ele>
        <time>2021-02-20T14:14:13Z</time>
      </trkpt>
      <trkpt lat="43.69945" lon="3.81359">
        <ele>124</ele>
        <time>2021-02-20T14:14:14Z</time>
      </trkpt>
      <trkpt lat="43.69944" lon="3.81356">
        <ele>124</ele>
        <time>2021-02-20T14:14:15Z</time>
      </trkpt>
      <trkpt lat="43.69943" lon="3.81352">
        <ele>124</ele>
        <time>2021-02-20T14:14:17Z</time>
      </trkpt>
      <trkpt lat="43.69943" lon="3.8135">
        <ele>124</ele>
        <time>2021-02-20T14:14:19Z</time>
      </trkpt>
      <trkpt lat="43.69941" lon="3.81347">
        <ele>124</ele>
        <time>2021-02-20T14:14:21Z</time>
      </trkpt>
      <trkpt lat="43.69938" lon="3.81346">
        <ele>124</ele>
        <time>2021-02-20T14:14:23Z</time>
      </trkpt>
      <trkpt lat="43.69936" lon="3.81347">
        <ele>124</ele>
        <time>2021-02-20T14:14:24Z</time>
      </trkpt>
      <trkpt lat="43.69933" lon="3.81349">
        <ele>124</ele>
        <time>2021-02-20T14:14:25Z</time>
      </trkpt>
      <trkpt lat="43.6993" lon="3.81351">
        <ele>124</ele>
        <time>2021-02-20T14:14:26Z</time>
      </trkpt>
      <trkpt lat="43.69926" lon="3.81353">
        <ele>124</ele>
        <time>2021-02-20T14:14:27Z</time>
      </trkpt>
      <trkpt lat="43.69922" lon="3.81353">
        <ele>124</ele>
        <time>2021-02-20T14:14:28Z</time>
      </trkpt>
      <trkpt lat="43.69918" lon="3.81353">
        <ele>124</ele>
        <time>2021-02-20T14:14:29Z</time>
      </trkpt>
      <trkpt lat="43.69913" lon="3.81353">
        <ele>124</ele>
        <time>2021-02-20T14:14:30Z</time>
      </trkpt>
      <trkpt lat="43.69909" lon="3.81353">
        <ele>124</ele>
        <time>2021-02-20T14:14:31Z</time>
      </trkpt>
      <trkpt lat="43.69904" lon="3.81354">
        <ele>124</ele>
        <time>2021-02-20T14:14:32Z</time>
      </trkpt>
      <trkpt lat="43.69899" lon="3.81354">
        <ele>124</ele>
        <time>2021-02-20T14:14:33Z</time>
      </trkpt>
      <trkpt lat="43.69895" lon="3.81355">
        <ele>124</ele>
        <time>2021-02-20T14:14:34Z</time>
      </trkpt>
      <trkpt lat="43.6989" lon="3.81355">
        <ele>124</ele>
        <time>2021-02-20T14:14:35Z</time>
      </trkpt>
      <trkpt lat="43.69886" lon="3.81356">
        <ele>124</ele>
        <time>2021-02-20T14:14:36Z</time>
      </trkpt>
      <trkpt lat="43.69882" lon="3.81357">
        <ele>123</ele>
        <time>2021-02-20T14:14:37Z</time>
      </trkpt>
      <trkpt lat="43.69878" lon="3.81357">
        <ele>123</ele>
        <time>2021-02-20T14:14:38Z</time>
      </trkpt>
      <trkpt lat="43.69874" lon="3.81357">
        <ele>123</ele>
        <time>2021-02-20T14:14:39Z</time>
      </trkpt>
      <trkpt lat="43.6987" lon="3.81357">
        <ele>123</ele>
        <time>2021-02-20T14:14:40Z</time>
      </trkpt>
      <trkpt lat="43.69866" lon="3.81358">
        <ele>123</ele>
        <time>2021-02-20T14:14:41Z</time>
      </trkpt>
      <trkpt lat="43.69862" lon="3.81358">
        <ele>123</ele>
        <time>2021-02-20T14:14:42Z</time>
      </trkpt>
      <trkpt lat="43.6986" lon="3.81358">
        <ele>123</ele>
        <time>2021-02-20T14:14:43Z</time>
      </trkpt>
      <trkpt lat="43.69859" lon="3.81356">
        <ele>123</ele>
        <time>2021-02-20T14:14:44Z</time>
      </trkpt>
      <trkpt lat="43.69857" lon="3.81354">
        <ele>123</ele>
        <time>2021-02-20T14:14:46Z</time>
      </trkpt>
      <trkpt lat="43.69854" lon="3.81351">
        <ele>123</ele>
        <time>2021-02-20T14:14:48Z</time>
      </trkpt>
      <trkpt lat="43.69851" lon="3.81348">
        <ele>123</ele>
        <time>2021-02-20T14:14:50Z</time>
      </trkpt>
      <trkpt lat="43.69849" lon="3.81347">
        <ele>123</ele>
        <time>2021-02-20T14:14:51Z</time>
      </trkpt>
      <trkpt lat="43.69848" lon="3.81346">
        <ele>123</ele>
        <time>2021-02-20T14:14:52Z</time>
      </trkpt>
      <trkpt lat="43.69845" lon="3.81344">
        <ele>123</ele>
        <time>2021-02-20T14:14:54Z</time>
      </trkpt>
      <trkpt lat="43.69843" lon="3.81341">
        <ele>123</ele>
        <time>2021-02-20T14:14:56Z</time>
      </trkpt>
      <trkpt lat="43.6984" lon="3.8134">
        <ele>124</ele>
        <time>2021-02-20T14:14:57Z</time>
      </trkpt>
      <trkpt lat="43.69838" lon="3.81338">
        <ele>124</ele>
        <time>2021-02-20T14:14:58Z</time>
      </trkpt>
      <trkpt lat="43.69835" lon="3.81336">
        <ele>124</ele>
        <time>2021-02-20T14:14:59Z</time>
      </trkpt>
      <trkpt lat="43.69832" lon="3.81334">
        <ele>124</ele>
        <time>2021-02-20T14:15:00Z</time>
      </trkpt>
      <trkpt lat="43.69829" lon="3.81332">
        <ele>124</ele>
        <time>2021-02-20T14:15:01Z</time>
      </trkpt>
      <trkpt lat="43.69827" lon="3.81329">
        <ele>124</ele>
        <time>2021-02-20T14:15:02Z</time>
      </trkpt>
      <trkpt lat="43.69825" lon="3.81327">
        <ele>124</ele>
        <time>2021-02-20T14:15:03Z</time>
      </trkpt>
      <trkpt lat="43.69822" lon="3.81326">
        <ele>124</ele>
        <time>2021-02-20T14:15:04Z</time>
      </trkpt>
      <trkpt lat="43.69819" lon="3.81324">
        <ele>124</ele>
        <time>2021-02-20T14:15:05Z</time>
      </trkpt>
      <trkpt lat="43.69816" lon="3.81322">
        <ele>124</ele>
        <time>2021-02-20T14:15:06Z</time>
      </trkpt>
      <trkpt lat="43.69814" lon="3.81321">
        <ele>124</ele>
        <time>2021-02-20T14:15:07Z</time>
      </trkpt>
      <trkpt lat="43.69811" lon="3.81319">
        <ele>124</ele>
        <time>2021-02-20T14:15:08Z</time>
      </trkpt>
      <trkpt lat="43.69809" lon="3.81317">
        <ele>124</ele>
        <time>2021-02-20T14:15:09Z</time>
      </trkpt>
      <trkpt lat="43.69806" lon="3.81316">
        <ele>124</ele>
        <time>2021-02-20T14:15:11Z</time>
      </trkpt>
      <trkpt lat="43.69804" lon="3.81317">
        <ele>124</ele>
        <time>2021-02-20T14:15:13Z</time>
      </trkpt>
      <trkpt lat="43.69802" lon="3.81318">
        <ele>124</ele>
        <time>2021-02-20T14:15:15Z</time>
      </trkpt>
      <trkpt lat="43.698" lon="3.8132">
        <ele>124</ele>
        <time>2021-02-20T14:15:17Z</time>
      </trkpt>
      <trkpt lat="43.69799" lon="3.81317">
        <ele>124</ele>
        <time>2021-02-20T14:15:19Z</time>
      </trkpt>
      <trkpt lat="43.69799" lon="3.81314">
        <ele>124</ele>
        <time>2021-02-20T14:15:20Z</time>
      </trkpt>
      <trkpt lat="43.69798" lon="3.81309">
        <ele>124</ele>
        <time>2021-02-20T14:15:21Z</time>
      </trkpt>
      <trkpt lat="43.69798" lon="3.81304">
        <ele>124</ele>
        <time>2021-02-20T14:15:22Z</time>
      </trkpt>
      <trkpt lat="43.69797" lon="3.81298">
        <ele>124</ele>
        <time>2021-02-20T14:15:23Z</time>
      </trkpt>
      <trkpt lat="43.69796" lon="3.81292">
        <ele>124</ele>
        <time>2021-02-20T14:15:24Z</time>
      </trkpt>
      <trkpt lat="43.69795" lon="3.81286">
        <ele>124</ele>
        <time>2021-02-20T14:15:25Z</time>
      </trkpt>
      <trkpt lat="43.69793" lon="3.81279">
        <ele>124</ele>
        <time>2021-02-20T14:15:26Z</time>
      </trkpt>
      <trkpt lat="43.69791" lon="3.81272">
        <ele>123</ele>
        <time>2021-02-20T14:15:27Z</time>
      </trkpt>
      <trkpt lat="43.69789" lon="3.81265">
        <ele>123</ele>
        <time>2021-02-20T14:15:28Z</time>
      </trkpt>
      <trkpt lat="43.69787" lon="3.81257">
        <ele>123</ele>
        <time>2021-02-20T14:15:29Z</time>
      </trkpt>
      <trkpt lat="43.69785" lon="3.8125">
        <ele>123</ele>
        <time>2021-02-20T14:15:30Z</time>
      </trkpt>
      <trkpt lat="43.69783" lon="3.81242">
        <ele>123</ele>
        <time>2021-02-20T14:15:31Z</time>
      </trkpt>
      <trkpt lat="43.69781" lon="3.81234">
        <ele>123</ele>
        <time>2021-02-20T14:15:32Z</time>
      </trkpt>
      <trkpt lat="43.69778" lon="3.81226">
        <ele>123</ele>
        <time>2021-02-20T14:15:33Z</time>
      </trkpt>
      <trkpt lat="43.69776" lon="3.81217">
        <ele>123</ele>
        <time>2021-02-20T14:15:34Z</time>
      </trkpt>
      <trkpt lat="43.69773" lon="3.81209">
        <ele>123</ele>
        <time>2021-02-20T14:15:35Z</time>
      </trkpt>
      <trkpt lat="43.69771" lon="3.81201">
        <ele>123</ele>
        <time>2021-02-20T14:15:36Z</time>
      </trkpt>
      <trkpt lat="43.69769" lon="3.81192">
        <ele>122</ele>
        <time>2021-02-20T14:15:37Z</time>
      </trkpt>
      <trkpt lat="43.69766" lon="3.81184">
        <ele>122</ele>
        <time>2021-02-20T14:15:38Z</time>
      </trkpt>
      <trkpt lat="43.69764" lon="3.81175">
        <ele>122</ele>
        <time>2021-02-20T14:15:39Z</time>
      </trkpt>
      <trkpt lat="43.69762" lon="3.81167">
        <ele>122</ele>
        <time>2021-02-20T14:15:40Z</time>
      </trkpt>
      <trkpt lat="43.69759" lon="3.81159">
        <ele>122</ele>
        <time>2021-02-20T14:15:41Z</time>
      </trkpt>
      <trkpt lat="43.69757" lon="3.81152">
        <ele>122</ele>
        <time>2021-02-20T14:15:42Z</time>
      </trkpt>
      <trkpt lat="43.69755" lon="3.81147">
        <ele>122</ele>
        <time>2021-02-20T14:15:43Z</time>
      </trkpt>
      <trkpt lat="43.69754" lon="3.81143">
        <ele>122</ele>
        <time>2021-02-20T14:15:44Z</time>
      </trkpt>
      <trkpt lat="43.69752" lon="3.81139">
        <ele>122</ele>
        <time>2021-02-20T14:15:45Z</time>
      </trkpt>
      <trkpt lat="43.6975" lon="3.81137">
        <ele>122</ele>
        <time>2021-02-20T14:15:46Z</time>
      </trkpt>
      <trkpt lat="43.69747" lon="3.81136">
        <ele>120</ele>
        <time>2021-02-20T14:15:47Z</time>
      </trkpt>
      <trkpt lat="43.69743" lon="3.81136">
        <ele>120</ele>
        <time>2021-02-20T14:15:48Z</time>
      </trkpt>
      <trkpt lat="43.69739" lon="3.81137">
        <ele>120</ele>
        <time>2021-02-20T14:15:49Z</time>
      </trkpt>
      <trkpt lat="43.69734" lon="3.81138">
        <ele>120</ele>
        <time>2021-02-20T14:15:50Z</time>
      </trkpt>
      <trkpt lat="43.69728" lon="3.81139">
        <ele>120</ele>
        <time>2021-02-20T14:15:51Z</time>
      </trkpt>
      <trkpt lat="43.69722" lon="3.81141">
        <ele>120</ele>
        <time>2021-02-20T14:15:52Z</time>
      </trkpt>
      <trkpt lat="43.69717" lon="3.81142">
        <ele>120</ele>
        <time>2021-02-20T14:15:53Z</time>
      </trkpt>
      <trkpt lat="43.69712" lon="3.81144">
        <ele>120</ele>
        <time>2021-02-20T14:15:54Z</time>
      </trkpt>
      <trkpt lat="43.69707" lon="3.81146">
        <ele>120</ele>
        <time>2021-02-20T14:15:55Z</time>
      </trkpt>
      <trkpt lat="43.69703" lon="3.81148">
        <ele>120</ele>
        <time>2021-02-20T14:15:56Z</time>
      </trkpt>
      <trkpt lat="43.69698" lon="3.81151">
        <ele>120</ele>
        <time>2021-02-20T14:15:57Z</time>
      </trkpt>
      <trkpt lat="43.69693" lon="3.81155">
        <ele>120</ele>
        <time>2021-02-20T14:15:58Z</time>
      </trkpt>
      <trkpt lat="43.69687" lon="3.81159">
        <ele>120</ele>
        <time>2021-02-20T14:15:59Z</time>
      </trkpt>
      <trkpt lat="43.69682" lon="3.81161">
        <ele>120</ele>
        <time>2021-02-20T14:16:00Z</time>
      </trkpt>
      <trkpt lat="43.69676" lon="3.81164">
        <ele>120</ele>
        <time>2021-02-20T14:16:01Z</time>
      </trkpt>
      <trkpt lat="43.69671" lon="3.81166">
        <ele>120</ele>
        <time>2021-02-20T14:16:02Z</time>
      </trkpt>
      <trkpt lat="43.69667" lon="3.81168">
        <ele>120</ele>
        <time>2021-02-20T14:16:03Z</time>
      </trkpt>
      <trkpt lat="43.69662" lon="3.8117">
        <ele>120</ele>
        <time>2021-02-20T14:16:04Z</time>
      </trkpt>
      <trkpt lat="43.69658" lon="3.81172">
        <ele>120</ele>
        <time>2021-02-20T14:16:05Z</time>
      </trkpt>
      <trkpt lat="43.69654" lon="3.81174">
        <ele>120</ele>
        <time>2021-02-20T14:16:06Z</time>
      </trkpt>
      <trkpt lat="43.6965" lon="3.81175">
        <ele>119</ele>
        <time>2021-02-20T14:16:07Z</time>
      </trkpt>
      <trkpt lat="43.69647" lon="3.81177">
        <ele>119</ele>
        <time>2021-02-20T14:16:08Z</time>
      </trkpt>
      <trkpt lat="43.69643" lon="3.81179">
        <ele>119</ele>
        <time>2021-02-20T14:16:09Z</time>
      </trkpt>
      <trkpt lat="43.69639" lon="3.81181">
        <ele>119</ele>
        <time>2021-02-20T14:16:10Z</time>
      </trkpt>
      <trkpt lat="43.69635" lon="3.81182">
        <ele>119</ele>
        <time>2021-02-20T14:16:11Z</time>
      </trkpt>
      <trkpt lat="43.69631" lon="3.81184">
        <ele>119</ele>
        <time>2021-02-20T14:16:12Z</time>
      </trkpt>
      <trkpt lat="43.69627" lon="3.81185">
        <ele>119</ele>
        <time>2021-02-20T14:16:13Z</time>
      </trkpt>
      <trkpt lat="43.69624" lon="3.81186">
        <ele>119</ele>
        <time>2021-02-20T14:16:14Z</time>
      </trkpt>
      <trkpt lat="43.69621" lon="3.81188">
        <ele>119</ele>
        <time>2021-02-20T14:16:15Z</time>
      </trkpt>
      <trkpt lat="43.69618" lon="3.81189">
        <ele>119</ele>
        <time>2021-02-20T14:16:16Z</time>
      </trkpt>
      <trkpt lat="43.69614" lon="3.81191">
        <ele>120</ele>
        <time>2021-02-20T14:16:17Z</time>
      </trkpt>
      <trkpt lat="43.6961" lon="3.81193">
        <ele>120</ele>
        <time>2021-02-20T14:16:18Z</time>
      </trkpt>
      <trkpt lat="43.69607" lon="3.81195">
        <ele>120</ele>
        <time>2021-02-20T14:16:19Z</time>
      </trkpt>
      <trkpt lat="43.69602" lon="3.81198">
        <ele>120</ele>
        <time>2021-02-20T14:16:20Z</time>
      </trkpt>
      <trkpt lat="43.69598" lon="3.81199">
        <ele>120</ele>
        <time>2021-02-20T14:16:21Z</time>
      </trkpt>
      <trkpt lat="43.69595" lon="3.812">
        <ele>120</ele>
        <time>2021-02-20T14:16:22Z</time>
      </trkpt>
      <trkpt lat="43.69592" lon="3.81201">
        <ele>120</ele>
        <time>2021-02-20T14:16:23Z</time>
      </trkpt>
      <trkpt lat="43.69589" lon="3.81201">
        <ele>120</ele>
        <time>2021-02-20T14:16:24Z</time>
      </trkpt>
      <trkpt lat="43.69586" lon="3.812">
        <ele>120</ele>
        <time>2021-02-20T14:16:25Z</time>
      </trkpt>
      <trkpt lat="43.69583" lon="3.81199">
        <ele>120</ele>
        <time>2021-02-20T14:16:26Z</time>
      </trkpt>
      <trkpt lat="43.69579" lon="3.81197">
        <ele>120</ele>
        <time>2021-02-20T14:16:27Z</time>
      </trkpt>
      <trkpt lat="43.69575" lon="3.81195">
        <ele>120</ele>
        <time>2021-02-20T14:16:28Z</time>
      </trkpt>
      <trkpt lat="43.69572" lon="3.81192">
        <ele>120</ele>
        <time>2021-02-20T14:16:29Z</time>
      </trkpt>
      <trkpt lat="43.69568" lon="3.81191">
        <ele>120</ele>
        <time>2021-02-20T14:16:30Z</time>
      </trkpt>
      <trkpt lat="43.69565" lon="3.81187">
        <ele>120</ele>
        <time>2021-02-20T14:16:31Z</time>
      </trkpt>
      <trkpt lat="43.69562" lon="3.81183">
        <ele>120</ele>
        <time>2021-02-20T14:16:32Z</time>
      </trkpt>
      <trkpt lat="43.69559" lon="3.81179">
        <ele>120</ele>
        <time>2021-02-20T14:16:33Z</time>
      </trkpt>
      <trkpt lat="43.69556" lon="3.81174">
        <ele>120</ele>
        <time>2021-02-20T14:16:34Z</time>
      </trkpt>
      <trkpt lat="43.69552" lon="3.81168">
        <ele>120</ele>
        <time>2021-02-20T14:16:35Z</time>
      </trkpt>
      <trkpt lat="43.69544" lon="3.81155">
        <ele>119</ele>
        <time>2021-02-20T14:16:37Z</time>
      </trkpt>
      <trkpt lat="43.69536" lon="3.81144">
        <ele>119</ele>
        <time>2021-02-20T14:16:39Z</time>
      </trkpt>
      <trkpt lat="43.6953" lon="3.81143">
        <ele>119</ele>
        <time>2021-02-20T14:16:40Z</time>
      </trkpt>
      <trkpt lat="43.69524" lon="3.81142">
        <ele>119</ele>
        <time>2021-02-20T14:16:41Z</time>
      </trkpt>
      <trkpt lat="43.69519" lon="3.81141">
        <ele>119</ele>
        <time>2021-02-20T14:16:42Z</time>
      </trkpt>
      <trkpt lat="43.69514" lon="3.8114">
        <ele>119</ele>
        <time>2021-02-20T14:16:43Z</time>
      </trkpt>
      <trkpt lat="43.69509" lon="3.81139">
        <ele>119</ele>
        <time>2021-02-20T14:16:44Z</time>
      </trkpt>
      <trkpt lat="43.69505" lon="3.81136">
        <ele>119</ele>
        <time>2021-02-20T14:16:45Z</time>
      </trkpt>
      <trkpt lat="43.69502" lon="3.81132">
        <ele>119</ele>
        <time>2021-02-20T14:16:46Z</time>
      </trkpt>
      <trkpt lat="43.69499" lon="3.81127">
        <ele>118</ele>
        <time>2021-02-20T14:16:47Z</time>
      </trkpt>
      <trkpt lat="43.69496" lon="3.81122">
        <ele>118</ele>
        <time>2021-02-20T14:16:48Z</time>
      </trkpt>
      <trkpt lat="43.69493" lon="3.81117">
        <ele>118</ele>
        <time>2021-02-20T14:16:49Z</time>
      </trkpt>
      <trkpt lat="43.69491" lon="3.81113">
        <ele>118</ele>
        <time>2021-02-20T14:16:50Z</time>
      </trkpt>
      <trkpt lat="43.69488" lon="3.81108">
        <ele>118</ele>
        <time>2021-02-20T14:16:51Z</time>
      </trkpt>
      <trkpt lat="43.69486" lon="3.81103">
        <ele>118</ele>
        <time>2021-02-20T14:16:52Z</time>
      </trkpt>
      <trkpt lat="43.69483" lon="3.81098">
        <ele>118</ele>
        <time>2021-02-20T14:16:53Z</time>
      </trkpt>
      <trkpt lat="43.6948" lon="3.81093">
        <ele>118</ele>
        <time>2021-02-20T14:16:54Z</time>
      </trkpt>
      <trkpt lat="43.69476" lon="3.81089">
        <ele>118</ele>
        <time>2021-02-20T14:16:55Z</time>
      </trkpt>
      <trkpt lat="43.69473" lon="3.81084">
        <ele>118</ele>
        <time>2021-02-20T14:16:56Z</time>
      </trkpt>
      <trkpt lat="43.6947" lon="3.81078">
        <ele>117</ele>
        <time>2021-02-20T14:16:57Z</time>
      </trkpt>
      <trkpt lat="43.69467" lon="3.81073">
        <ele>117</ele>
        <time>2021-02-20T14:16:58Z</time>
      </trkpt>
      <trkpt lat="43.69464" lon="3.81068">
        <ele>117</ele>
        <time>2021-02-20T14:16:59Z</time>
      </trkpt>
      <trkpt lat="43.69461" lon="3.81063">
        <ele>117</ele>
        <time>2021-02-20T14:17:00Z</time>
      </trkpt>
      <trkpt lat="43.69457" lon="3.81059">
        <ele>117</ele>
        <time>2021-02-20T14:17:01Z</time>
      </trkpt>
      <trkpt lat="43.69454" lon="3.81055">
        <ele>117</ele>
        <time>2021-02-20T14:17:02Z</time>
      </trkpt>
      <trkpt lat="43.6945" lon="3.81051">
        <ele>117</ele>
        <time>2021-02-20T14:17:03Z</time>
      </trkpt>
      <trkpt lat="43.69446" lon="3.81048">
        <ele>117</ele>
        <time>2021-02-20T14:17:04Z</time>
      </trkpt>
      <trkpt lat="43.69442" lon="3.81046">
        <ele>117</ele>
        <time>2021-02-20T14:17:05Z</time>
      </trkpt>
      <trkpt lat="43.69438" lon="3.81045">
        <ele>117</ele>
        <time>2021-02-20T14:17:06Z</time>
      </trkpt>
      <trkpt lat="43.69434" lon="3.81043">
        <ele>116</ele>
        <time>2021-02-20T14:17:07Z</time>
      </trkpt>
      <trkpt lat="43.6943" lon="3.81043">
        <ele>116</ele>
        <time>2021-02-20T14:17:08Z</time>
      </trkpt>
      <trkpt lat="43.69426" lon="3.81042">
        <ele>116</ele>
        <time>2021-02-20T14:17:09Z</time>
      </trkpt>
      <trkpt lat="43.69422" lon="3.81043">
        <ele>116</ele>
        <time>2021-02-20T14:17:10Z</time>
      </trkpt>
      <trkpt lat="43.69417" lon="3.81043">
        <ele>116</ele>
        <time>2021-02-20T14:17:11Z</time>
      </trkpt>
      <trkpt lat="43.69413" lon="3.81044">
        <ele>116</ele>
        <time>2021-02-20T14:17:12Z</time>
      </trkpt>
      <trkpt lat="43.69409" lon="3.81044">
        <ele>116</ele>
        <time>2021-02-20T14:17:13Z</time>
      </trkpt>
      <trkpt lat="43.69404" lon="3.81045">
        <ele>116</ele>
        <time>2021-02-20T14:17:14Z</time>
      </trkpt>
      <trkpt lat="43.694" lon="3.81045">
        <ele>116</ele>
        <time>2021-02-20T14:17:15Z</time>
      </trkpt>
      <trkpt lat="43.69396" lon="3.81044">
        <ele>116</ele>
        <time>2021-02-20T14:17:16Z</time>
      </trkpt>
      <trkpt lat="43.69391" lon="3.81043">
        <ele>116</ele>
        <time>2021-02-20T14:17:17Z</time>
      </trkpt>
      <trkpt lat="43.69387" lon="3.81043">
        <ele>116</ele>
        <time>2021-02-20T14:17:18Z</time>
      </trkpt>
      <trkpt lat="43.69383" lon="3.81043">
        <ele>116</ele>
        <time>2021-02-20T14:17:19Z</time>
      </trkpt>
      <trkpt lat="43.69378" lon="3.81043">
        <ele>116</ele>
        <time>2021-02-20T14:17:20Z</time>
      </trkpt>
      <trkpt lat="43.69374" lon="3.81043">
        <ele>116</ele>
        <time>2021-02-20T14:17:21Z</time>
      </trkpt>
      <trkpt lat="43.6937" lon="3.81043">
        <ele>116</ele>
        <time>2021-02-20T14:17:22Z</time>
      </trkpt>
      <trkpt lat="43.69365" lon="3.81044">
        <ele>116</ele>
        <time>2021-02-20T14:17:23Z</time>
      </trkpt>
      <trkpt lat="43.69361" lon="3.81044">
        <ele>116</ele>
        <time>2021-02-20T14:17:24Z</time>
      </trkpt>
      <trkpt lat="43.69357" lon="3.81045">
        <ele>116</ele>
        <time>2021-02-20T14:17:25Z</time>
      </trkpt>
      <trkpt lat="43.69352" lon="3.81045">
        <ele>116</ele>
        <time>2021-02-20T14:17:26Z</time>
      </trkpt>
      <trkpt lat="43.69347" lon="3.81045">
        <ele>115</ele>
        <time>2021-02-20T14:17:27Z</time>
      </trkpt>
      <trkpt lat="43.69343" lon="3.81046">
        <ele>115</ele>
        <time>2021-02-20T14:17:28Z</time>
      </trkpt>
      <trkpt lat="43.69339" lon="3.81046">
        <ele>115</ele>
        <time>2021-02-20T14:17:29Z</time>
      </trkpt>
      <trkpt lat="43.69334" lon="3.81047">
        <ele>115</ele>
        <time>2021-02-20T14:17:30Z</time>
      </trkpt>
      <trkpt lat="43.6933" lon="3.81048">
        <ele>115</ele>
        <time>2021-02-20T14:17:31Z</time>
      </trkpt>
      <trkpt lat="43.69327" lon="3.81049">
        <ele>115</ele>
        <time>2021-02-20T14:17:32Z</time>
      </trkpt>
      <trkpt lat="43.69323" lon="3.8105">
        <ele>115</ele>
        <time>2021-02-20T14:17:33Z</time>
      </trkpt>
      <trkpt lat="43.69319" lon="3.81051">
        <ele>115</ele>
        <time>2021-02-20T14:17:34Z</time>
      </trkpt>
      <trkpt lat="43.69315" lon="3.81053">
        <ele>115</ele>
        <time>2021-02-20T14:17:35Z</time>
      </trkpt>
      <trkpt lat="43.69311" lon="3.81054">
        <ele>115</ele>
        <time>2021-02-20T14:17:36Z</time>
      </trkpt>
      <trkpt lat="43.69307" lon="3.81056">
        <ele>116</ele>
        <time>2021-02-20T14:17:37Z</time>
      </trkpt>
      <trkpt lat="43.69304" lon="3.81056">
        <ele>116</ele>
        <time>2021-02-20T14:17:38Z</time>
      </trkpt>
      <trkpt lat="43.693" lon="3.81058">
        <ele>116</ele>
        <time>2021-02-20T14:17:39Z</time>
      </trkpt>
      <trkpt lat="43.69297" lon="3.81059">
        <ele>116</ele>
        <time>2021-02-20T14:17:40Z</time>
      </trkpt>
      <trkpt lat="43.69295" lon="3.81061">
        <ele>116</ele>
        <time>2021-02-20T14:17:41Z</time>
      </trkpt>
      <trkpt lat="43.69293" lon="3.81063">
        <ele>116</ele>
        <time>2021-02-20T14:17:42Z</time>
      </trkpt>
      <trkpt lat="43.6929" lon="3.81065">
        <ele>116</ele>
        <time>2021-02-20T14:17:43Z</time>
      </trkpt>
      <trkpt lat="43.69288" lon="3.81067">
        <ele>116</ele>
        <time>2021-02-20T14:17:44Z</time>
      </trkpt>
      <trkpt lat="43.69285" lon="3.8107">
        <ele>116</ele>
        <time>2021-02-20T14:17:45Z</time>
      </trkpt>
      <trkpt lat="43.69282" lon="3.81073">
        <ele>116</ele>
        <time>2021-02-20T14:17:46Z</time>
      </trkpt>
      <trkpt lat="43.69279" lon="3.81074">
        <ele>116</ele>
        <time>2021-02-20T14:17:47Z</time>
      </trkpt>
      <trkpt lat="43.69276" lon="3.81075">
        <ele>116</ele>
        <time>2021-02-20T14:17:48Z</time>
      </trkpt>
      <trkpt lat="43.69273" lon="3.81076">
        <ele>116</ele>
        <time>2021-02-20T14:17:49Z</time>
      </trkpt>
      <trkpt lat="43.6927" lon="3.81078">
        <ele>116</ele>
        <time>2021-02-20T14:17:50Z</time>
      </trkpt>
      <trkpt lat="43.69266" lon="3.81081">
        <ele>116</ele>
        <time>2021-02-20T14:17:51Z</time>
      </trkpt>
      <trkpt lat="43.69262" lon="3.81083">
        <ele>116</ele>
        <time>2021-02-20T14:17:52Z</time>
      </trkpt>
      <trkpt lat="43.69258" lon="3.81085">
        <ele>116</ele>
        <time>2021-02-20T14:17:53Z</time>
      </trkpt>
      <trkpt lat="43.69255" lon="3.81086">
        <ele>116</ele>
        <time>2021-02-20T14:17:54Z</time>
      </trkpt>
      <trkpt lat="43.69252" lon="3.81087">
        <ele>116</ele>
        <time>2021-02-20T14:17:55Z</time>
      </trkpt>
      <trkpt lat="43.69248" lon="3.81088">
        <ele>116</ele>
        <time>2021-02-20T14:17:56Z</time>
      </trkpt>
      <trkpt lat="43.69245" lon="3.81089">
        <ele>115</ele>
        <time>2021-02-20T14:17:57Z</time>
      </trkpt>
      <trkpt lat="43.69242" lon="3.8109">
        <ele>115</ele>
        <time>2021-02-20T14:17:58Z</time>
      </trkpt>
      <trkpt lat="43.69239" lon="3.81091">
        <ele>115</ele>
        <time>2021-02-20T14:17:59Z</time>
      </trkpt>
      <trkpt lat="43.69236" lon="3.81092">
        <ele>115</ele>
        <time>2021-02-20T14:18:00Z</time>
      </trkpt>
      <trkpt lat="43.69233" lon="3.81093">
        <ele>115</ele>
        <time>2021-02-20T14:18:01Z</time>
      </trkpt>
      <trkpt lat="43.6923" lon="3.81095">
        <ele>115</ele>
        <time>2021-02-20T14:18:02Z</time>
      </trkpt>
      <trkpt lat="43.69226" lon="3.81096">
        <ele>115</ele>
        <time>2021-02-20T14:18:03Z</time>
      </trkpt>
      <trkpt lat="43.69223" lon="3.81097">
        <ele>115</ele>
        <time>2021-02-20T14:18:04Z</time>
      </trkpt>
      <trkpt lat="43.69219" lon="3.81099">
        <ele>115</ele>
        <time>2021-02-20T14:18:05Z</time>
      </trkpt>
      <trkpt lat="43.69216" lon="3.81101">
        <ele>115</ele>
        <time>2021-02-20T14:18:06Z</time>
      </trkpt>
      <trkpt lat="43.69213" lon="3.81102">
        <ele>115</ele>
        <time>2021-02-20T14:18:07Z</time>
      </trkpt>
      <trkpt lat="43.69209" lon="3.81103">
        <ele>115</ele>
        <time>2021-02-20T14:18:08Z</time>
      </trkpt>
      <trkpt lat="43.69206" lon="3.81105">
        <ele>115</ele>
        <time>2021-02-20T14:18:09Z</time>
      </trkpt>
      <trkpt lat="43.69203" lon="3.81106">
        <ele>115</ele>
        <time>2021-02-20T14:18:10Z</time>
      </trkpt>
      <trkpt lat="43.69199" lon="3.81106">
        <ele>115</ele>
        <time>2021-02-20T14:18:11Z</time>
      </trkpt>
      <trkpt lat="43.69196" lon="3.81107">
        <ele>115</ele>
        <time>2021-02-20T14:18:12Z</time>
      </trkpt>
      <trkpt lat="43.69193" lon="3.81107">
        <ele>115</ele>
        <time>2021-02-20T14:18:13Z</time>
      </trkpt>
      <trkpt lat="43.69189" lon="3.81107">
        <ele>115</ele>
        <time>2021-02-20T14:18:14Z</time>
      </trkpt>
      <trkpt lat="43.69186" lon="3.81107">
        <ele>115</ele>
        <time>2021-02-20T14:18:15Z</time>
      </trkpt>
      <trkpt lat="43.69183" lon="3.81108">
        <ele>115</ele>
        <time>2021-02-20T14:18:16Z</time>
      </trkpt>
      <trkpt lat="43.69179" lon="3.81109">
        <ele>115</ele>
        <time>2021-02-20T14:18:17Z</time>
      </trkpt>
      <trkpt lat="43.69176" lon="3.81111">
        <ele>115</ele>
        <time>2021-02-20T14:18:18Z</time>
      </trkpt>
      <trkpt lat="43.69172" lon="3.81112">
        <ele>115</ele>
        <time>2021-02-20T14:18:19Z</time>
      </trkpt>
      <trkpt lat="43.69169" lon="3.81113">
        <ele>115</ele>
        <time>2021-02-20T14:18:20Z</time>
      </trkpt>
      <trkpt lat="43.69165" lon="3.81115">
        <ele>115</ele>
        <time>2021-02-20T14:18:21Z</time>
      </trkpt>
      <trkpt lat="43.69161" lon="3.81117">
        <ele>115</ele>
        <time>2021-02-20T14:18:22Z</time>
      </trkpt>
      <trkpt lat="43.69157" lon="3.8112">
        <ele>115</ele>
        <time>2021-02-20T14:18:23Z</time>
      </trkpt>
      <trkpt lat="43.69153" lon="3.81122">
        <ele>115</ele>
        <time>2021-02-20T14:18:24Z</time>
      </trkpt>
      <trkpt lat="43.69148" lon="3.81125">
        <ele>115</ele>
        <time>2021-02-20T14:18:25Z</time>
      </trkpt>
      <trkpt lat="43.69144" lon="3.81127">
        <ele>115</ele>
        <time>2021-02-20T14:18:26Z</time>
      </trkpt>
      <trkpt lat="43.69141" lon="3.8113">
        <ele>115</ele>
        <time>2021-02-20T14:18:27Z</time>
      </trkpt>
      <trkpt lat="43.69139" lon="3.81131">
        <ele>115</ele>
        <time>2021-02-20T14:18:28Z</time>
      </trkpt>
      <trkpt lat="43.69137" lon="3.81133">
        <ele>115</ele>
        <time>2021-02-20T14:18:30Z</time>
      </trkpt>
      <trkpt lat="43.69133" lon="3.8113">
        <ele>115</ele>
        <time>2021-02-20T14:18:32Z</time>
      </trkpt>
      <trkpt lat="43.69133" lon="3.81126">
        <ele>115</ele>
        <time>2021-02-20T14:18:33Z</time>
      </trkpt>
      <trkpt lat="43.69133" lon="3.8112">
        <ele>115</ele>
        <time>2021-02-20T14:18:34Z</time>
      </trkpt>
      <trkpt lat="43.69134" lon="3.81115">
        <ele>115</ele>
        <time>2021-02-20T14:18:35Z</time>
      </trkpt>
      <trkpt lat="43.69135" lon="3.8111">
        <ele>115</ele>
        <time>2021-02-20T14:18:36Z</time>
      </trkpt>
      <trkpt lat="43.69136" lon="3.81105">
        <ele>114</ele>
        <time>2021-02-20T14:18:37Z</time>
      </trkpt>
      <trkpt lat="43.69136" lon="3.811">
        <ele>114</ele>
        <time>2021-02-20T14:18:38Z</time>
      </trkpt>
      <trkpt lat="43.69137" lon="3.81095">
        <ele>114</ele>
        <time>2021-02-20T14:18:39Z</time>
      </trkpt>
      <trkpt lat="43.69136" lon="3.8109">
        <ele>114</ele>
        <time>2021-02-20T14:18:40Z</time>
      </trkpt>
      <trkpt lat="43.69136" lon="3.81086">
        <ele>114</ele>
        <time>2021-02-20T14:18:41Z</time>
      </trkpt>
      <trkpt lat="43.69136" lon="3.81081">
        <ele>114</ele>
        <time>2021-02-20T14:18:42Z</time>
      </trkpt>
      <trkpt lat="43.69136" lon="3.81076">
        <ele>114</ele>
        <time>2021-02-20T14:18:43Z</time>
      </trkpt>
      <trkpt lat="43.69136" lon="3.8107">
        <ele>114</ele>
        <time>2021-02-20T14:18:44Z</time>
      </trkpt>
      <trkpt lat="43.69137" lon="3.81065">
        <ele>114</ele>
        <time>2021-02-20T14:18:45Z</time>
      </trkpt>
      <trkpt lat="43.69137" lon="3.8106">
        <ele>114</ele>
        <time>2021-02-20T14:18:46Z</time>
      </trkpt>
      <trkpt lat="43.69137" lon="3.81055">
        <ele>113</ele>
        <time>2021-02-20T14:18:47Z</time>
      </trkpt>
      <trkpt lat="43.69137" lon="3.81051">
        <ele>113</ele>
        <time>2021-02-20T14:18:48Z</time>
      </trkpt>
      <trkpt lat="43.69138" lon="3.81046">
        <ele>113</ele>
        <time>2021-02-20T14:18:49Z</time>
      </trkpt>
      <trkpt lat="43.69138" lon="3.81041">
        <ele>113</ele>
        <time>2021-02-20T14:18:50Z</time>
      </trkpt>
      <trkpt lat="43.69138" lon="3.81036">
        <ele>113</ele>
        <time>2021-02-20T14:18:51Z</time>
      </trkpt>
      <trkpt lat="43.69138" lon="3.81031">
        <ele>113</ele>
        <time>2021-02-20T14:18:52Z</time>
      </trkpt>
      <trkpt lat="43.69138" lon="3.81027">
        <ele>113</ele>
        <time>2021-02-20T14:18:53Z</time>
      </trkpt>
      <trkpt lat="43.69138" lon="3.81023">
        <ele>113</ele>
        <time>2021-02-20T14:18:54Z</time>
      </trkpt>
      <trkpt lat="43.69137" lon="3.81019">
        <ele>113</ele>
        <time>2021-02-20T14:18:55Z</time>
      </trkpt>
      <trkpt lat="43.69137" lon="3.81015">
        <ele>113</ele>
        <time>2021-02-20T14:18:56Z</time>
      </trkpt>
      <trkpt lat="43.69136" lon="3.81011">
        <ele>112</ele>
        <time>2021-02-20T14:18:57Z</time>
      </trkpt>
      <trkpt lat="43.69135" lon="3.81008">
        <ele>112</ele>
        <time>2021-02-20T14:18:58Z</time>
      </trkpt>
      <trkpt lat="43.69134" lon="3.81004">
        <ele>112</ele>
        <time>2021-02-20T14:18:59Z</time>
      </trkpt>
      <trkpt lat="43.69134" lon="3.81">
        <ele>112</ele>
        <time>2021-02-20T14:19:00Z</time>
      </trkpt>
      <trkpt lat="43.69134" lon="3.80997">
        <ele>112</ele>
        <time>2021-02-20T14:19:01Z</time>
      </trkpt>
      <trkpt lat="43.69134" lon="3.80993">
        <ele>112</ele>
        <time>2021-02-20T14:19:02Z</time>
      </trkpt>
      <trkpt lat="43.69135" lon="3.8099">
        <ele>112</ele>
        <time>2021-02-20T14:19:03Z</time>
      </trkpt>
      <trkpt lat="43.69135" lon="3.80987">
        <ele>112</ele>
        <time>2021-02-20T14:19:04Z</time>
      </trkpt>
      <trkpt lat="43.69133" lon="3.80983">
        <ele>112</ele>
        <time>2021-02-20T14:19:06Z</time>
      </trkpt>
      <trkpt lat="43.69131" lon="3.80982">
        <ele>112</ele>
        <time>2021-02-20T14:19:08Z</time>
      </trkpt>
      <trkpt lat="43.6913" lon="3.8098">
        <ele>110</ele>
        <time>2021-02-20T14:19:14Z</time>
      </trkpt>
      <trkpt lat="43.69124" lon="3.80979">
        <ele>110</ele>
        <time>2021-02-20T14:19:17Z</time>
      </trkpt>
      <trkpt lat="43.69121" lon="3.8098">
        <ele>110</ele>
        <time>2021-02-20T14:19:18Z</time>
      </trkpt>
      <trkpt lat="43.69119" lon="3.80981">
        <ele>110</ele>
        <time>2021-02-20T14:19:19Z</time>
      </trkpt>
      <trkpt lat="43.69116" lon="3.80982">
        <ele>110</ele>
        <time>2021-02-20T14:19:20Z</time>
      </trkpt>
      <trkpt lat="43.69114" lon="3.80982">
        <ele>110</ele>
        <time>2021-02-20T14:19:21Z</time>
      </trkpt>
      <trkpt lat="43.69112" lon="3.80981">
        <ele>110</ele>
        <time>2021-02-20T14:19:24Z</time>
      </trkpt>
      <trkpt lat="43.69116" lon="3.80976">
        <ele>114</ele>
        <time>2021-02-20T14:22:34Z</time>
      </trkpt>
      <trkpt lat="43.69113" lon="3.80976">
        <ele>113</ele>
        <time>2021-02-20T14:22:52Z</time>
      </trkpt>
      <trkpt lat="43.69111" lon="3.80981">
        <ele>113</ele>
        <time>2021-02-20T14:22:58Z</time>
      </trkpt>
      <trkpt lat="43.6911" lon="3.80984">
        <ele>113</ele>
        <time>2021-02-20T14:23:16Z</time>
      </trkpt>
      <trkpt lat="43.69112" lon="3.8098">
        <ele>111</ele>
        <time>2021-02-20T14:23:28Z</time>
      </trkpt>
      <trkpt lat="43.69111" lon="3.80981">
        <ele>112</ele>
        <time>2021-02-20T14:23:31Z</time>
      </trkpt>
      <trkpt lat="43.6911" lon="3.80981">
        <ele>112</ele>
        <time>2021-02-20T14:23:34Z</time>
      </trkpt>
      <trkpt lat="43.69119" lon="3.80984">
        <ele>113</ele>
        <time>2021-02-20T14:23:54Z</time>
      </trkpt>
      <trkpt lat="43.69122" lon="3.80984">
        <ele>113</ele>
        <time>2021-02-20T14:23:55Z</time>
      </trkpt>
      <trkpt lat="43.69124" lon="3.80984">
        <ele>113</ele>
        <time>2021-02-20T14:23:56Z</time>
      </trkpt>
      <trkpt lat="43.69126" lon="3.80984">
        <ele>113</ele>
        <time>2021-02-20T14:23:57Z</time>
      </trkpt>
      <trkpt lat="43.69128" lon="3.80984">
        <ele>113</ele>
        <time>2021-02-20T14:23:58Z</time>
      </trkpt>
      <trkpt lat="43.69131" lon="3.80983">
        <ele>113</ele>
        <time>2021-02-20T14:24:00Z</time>
      </trkpt>
      <trkpt lat="43.69133" lon="3.80984">
        <ele>113</ele>
        <time>2021-02-20T14:24:02Z</time>
      </trkpt>
      <trkpt lat="43.69134" lon="3.80988">
        <ele>113</ele>
        <time>2021-02-20T14:24:04Z</time>
      </trkpt>
      <trkpt lat="43.69134" lon="3.80992">
        <ele>113</ele>
        <time>2021-02-20T14:24:05Z</time>
      </trkpt>
      <trkpt lat="43.69134" lon="3.80997">
        <ele>113</ele>
        <time>2021-02-20T14:24:06Z</time>
      </trkpt>
      <trkpt lat="43.69134" lon="3.81001">
        <ele>113</ele>
        <time>2021-02-20T14:24:07Z</time>
      </trkpt>
      <trkpt lat="43.69134" lon="3.81006">
        <ele>113</ele>
        <time>2021-02-20T14:24:08Z</time>
      </trkpt>
      <trkpt lat="43.69135" lon="3.81012">
        <ele>113</ele>
        <time>2021-02-20T14:24:09Z</time>
      </trkpt>
      <trkpt lat="43.69136" lon="3.81018">
        <ele>113</ele>
        <time>2021-02-20T14:24:10Z</time>
      </trkpt>
      <trkpt lat="43.69136" lon="3.81025">
        <ele>113</ele>
        <time>2021-02-20T14:24:11Z</time>
      </trkpt>
      <trkpt lat="43.69135" lon="3.81032">
        <ele>113</ele>
        <time>2021-02-20T14:24:12Z</time>
      </trkpt>
      <trkpt lat="43.69134" lon="3.8104">
        <ele>110</ele>
        <time>2021-02-20T14:24:13Z</time>
      </trkpt>
      <trkpt lat="43.69131" lon="3.81045">
        <ele>110</ele>
        <time>2021-02-20T14:24:14Z</time>
      </trkpt>
      <trkpt lat="43.69129" lon="3.81049">
        <ele>110</ele>
        <time>2021-02-20T14:24:15Z</time>
      </trkpt>
      <trkpt lat="43.69127" lon="3.81052">
        <ele>110</ele>
        <time>2021-02-20T14:24:16Z</time>
      </trkpt>
      <trkpt lat="43.69126" lon="3.81055">
        <ele>110</ele>
        <time>2021-02-20T14:24:17Z</time>
      </trkpt>
      <trkpt lat="43.69124" lon="3.81057">
        <ele>110</ele>
        <time>2021-02-20T14:24:18Z</time>
      </trkpt>
      <trkpt lat="43.69122" lon="3.81058">
        <ele>110</ele>
        <time>2021-02-20T14:24:19Z</time>
      </trkpt>
      <trkpt lat="43.69119" lon="3.8106">
        <ele>110</ele>
        <time>2021-02-20T14:24:20Z</time>
      </trkpt>
      <trkpt lat="43.69116" lon="3.81063">
        <ele>110</ele>
        <time>2021-02-20T14:24:21Z</time>
      </trkpt>
      <trkpt lat="43.69112" lon="3.81065">
        <ele>110</ele>
        <time>2021-02-20T14:24:22Z</time>
      </trkpt>
      <trkpt lat="43.69107" lon="3.81066">
        <ele>109</ele>
        <time>2021-02-20T14:24:23Z</time>
      </trkpt>
      <trkpt lat="43.69103" lon="3.81068">
        <ele>109</ele>
        <time>2021-02-20T14:24:24Z</time>
      </trkpt>
      <trkpt lat="43.69098" lon="3.81069">
        <ele>109</ele>
        <time>2021-02-20T14:24:25Z</time>
      </trkpt>
      <trkpt lat="43.69094" lon="3.81071">
        <ele>109</ele>
        <time>2021-02-20T14:24:26Z</time>
      </trkpt>
      <trkpt lat="43.69089" lon="3.81072">
        <ele>109</ele>
        <time>2021-02-20T14:24:27Z</time>
      </trkpt>
      <trkpt lat="43.69084" lon="3.81072">
        <ele>109</ele>
        <time>2021-02-20T14:24:28Z</time>
      </trkpt>
      <trkpt lat="43.6908" lon="3.81072">
        <ele>109</ele>
        <time>2021-02-20T14:24:29Z</time>
      </trkpt>
      <trkpt lat="43.69076" lon="3.81073">
        <ele>109</ele>
        <time>2021-02-20T14:24:30Z</time>
      </trkpt>
      <trkpt lat="43.69072" lon="3.81073">
        <ele>109</ele>
        <time>2021-02-20T14:24:31Z</time>
      </trkpt>
      <trkpt lat="43.69067" lon="3.81072">
        <ele>109</ele>
        <time>2021-02-20T14:24:32Z</time>
      </trkpt>
      <trkpt lat="43.69063" lon="3.81071">
        <ele>107</ele>
        <time>2021-02-20T14:24:33Z</time>
      </trkpt>
      <trkpt lat="43.69059" lon="3.81071">
        <ele>107</ele>
        <time>2021-02-20T14:24:34Z</time>
      </trkpt>
      <trkpt lat="43.69054" lon="3.8107">
        <ele>107</ele>
        <time>2021-02-20T14:24:35Z</time>
      </trkpt>
      <trkpt lat="43.6905" lon="3.81069">
        <ele>107</ele>
        <time>2021-02-20T14:24:36Z</time>
      </trkpt>
      <trkpt lat="43.69045" lon="3.81069">
        <ele>107</ele>
        <time>2021-02-20T14:24:37Z</time>
      </trkpt>
      <trkpt lat="43.69041" lon="3.81069">
        <ele>107</ele>
        <time>2021-02-20T14:24:38Z</time>
      </trkpt>
      <trkpt lat="43.69038" lon="3.81068">
        <ele>107</ele>
        <time>2021-02-20T14:24:39Z</time>
      </trkpt>
      <trkpt lat="43.69034" lon="3.81067">
        <ele>107</ele>
        <time>2021-02-20T14:24:40Z</time>
      </trkpt>
      <trkpt lat="43.69029" lon="3.81065">
        <ele>107</ele>
        <time>2021-02-20T14:24:41Z</time>
      </trkpt>
      <trkpt lat="43.69025" lon="3.81063">
        <ele>107</ele>
        <time>2021-02-20T14:24:42Z</time>
      </trkpt>
      <trkpt lat="43.69021" lon="3.81061">
        <ele>105</ele>
        <time>2021-02-20T14:24:43Z</time>
      </trkpt>
      <trkpt lat="43.69016" lon="3.81059">
        <ele>105</ele>
        <time>2021-02-20T14:24:44Z</time>
      </trkpt>
      <trkpt lat="43.69012" lon="3.81056">
        <ele>105</ele>
        <time>2021-02-20T14:24:45Z</time>
      </trkpt>
      <trkpt lat="43.69008" lon="3.81053">
        <ele>105</ele>
        <time>2021-02-20T14:24:46Z</time>
      </trkpt>
      <trkpt lat="43.69004" lon="3.81049">
        <ele>105</ele>
        <time>2021-02-20T14:24:47Z</time>
      </trkpt>
      <trkpt lat="43.69" lon="3.81045">
        <ele>105</ele>
        <time>2021-02-20T14:24:48Z</time>
      </trkpt>
      <trkpt lat="43.68996" lon="3.81041">
        <ele>105</ele>
        <time>2021-02-20T14:24:49Z</time>
      </trkpt>
      <trkpt lat="43.68993" lon="3.81037">
        <ele>105</ele>
        <time>2021-02-20T14:24:50Z</time>
      </trkpt>
      <trkpt lat="43.6899" lon="3.81032">
        <ele>105</ele>
        <time>2021-02-20T14:24:51Z</time>
      </trkpt>
      <trkpt lat="43.68987" lon="3.81028">
        <ele>105</ele>
        <time>2021-02-20T14:24:52Z</time>
      </trkpt>
      <trkpt lat="43.68984" lon="3.81025">
        <ele>104</ele>
        <time>2021-02-20T14:24:53Z</time>
      </trkpt>
      <trkpt lat="43.68981" lon="3.81022">
        <ele>104</ele>
        <time>2021-02-20T14:24:54Z</time>
      </trkpt>
      <trkpt lat="43.68978" lon="3.81021">
        <ele>104</ele>
        <time>2021-02-20T14:24:55Z</time>
      </trkpt>
      <trkpt lat="43.68974" lon="3.8102">
        <ele>104</ele>
        <time>2021-02-20T14:24:56Z</time>
      </trkpt>
      <trkpt lat="43.68971" lon="3.81019">
        <ele>104</ele>
        <time>2021-02-20T14:24:57Z</time>
      </trkpt>
      <trkpt lat="43.68968" lon="3.8102">
        <ele>104</ele>
        <time>2021-02-20T14:24:58Z</time>
      </trkpt>
      <trkpt lat="43.68966" lon="3.81022">
        <ele>104</ele>
        <time>2021-02-20T14:24:59Z</time>
      </trkpt>
      <trkpt lat="43.68963" lon="3.81022">
        <ele>104</ele>
        <time>2021-02-20T14:25:01Z</time>
      </trkpt>
      <trkpt lat="43.68961" lon="3.81021">
        <ele>104</ele>
        <time>2021-02-20T14:25:04Z</time>
      </trkpt>
      <trkpt lat="43.68954" lon="3.81031">
        <ele>102</ele>
        <time>2021-02-20T14:25:25Z</time>
      </trkpt>
      <trkpt lat="43.68954" lon="3.81031">
        <ele>102</ele>
        <time>2021-02-20T14:25:26Z</time>
      </trkpt>
      <trkpt lat="43.68953" lon="3.81033">
        <ele>102</ele>
        <time>2021-02-20T14:25:31Z</time>
      </trkpt>
      <trkpt lat="43.68953" lon="3.81033">
        <ele>103</ele>
        <time>2021-02-20T14:25:34Z</time>
      </trkpt>
      <trkpt lat="43.6895" lon="3.81028">
        <ele>104</ele>
        <time>2021-02-20T14:25:42Z</time>
      </trkpt>
      <trkpt lat="43.68948" lon="3.81026">
        <ele>104</ele>
        <time>2021-02-20T14:25:44Z</time>
      </trkpt>
      <trkpt lat="43.68945" lon="3.81023">
        <ele>104</ele>
        <time>2021-02-20T14:25:46Z</time>
      </trkpt>
      <trkpt lat="43.68944" lon="3.81022">
        <ele>104</ele>
        <time>2021-02-20T14:25:47Z</time>
      </trkpt>
      <trkpt lat="43.68942" lon="3.81023">
        <ele>104</ele>
        <time>2021-02-20T14:25:48Z</time>
      </trkpt>
      <trkpt lat="43.6894" lon="3.81023">
        <ele>104</ele>
        <time>2021-02-20T14:25:49Z</time>
      </trkpt>
      <trkpt lat="43.68937" lon="3.81024">
        <ele>104</ele>
        <time>2021-02-20T14:25:50Z</time>
      </trkpt>
      <trkpt lat="43.68934" lon="3.81025">
        <ele>104</ele>
        <time>2021-02-20T14:25:51Z</time>
      </trkpt>
      <trkpt lat="43.68931" lon="3.81027">
        <ele>104</ele>
        <time>2021-02-20T14:25:52Z</time>
      </trkpt>
      <trkpt lat="43.68928" lon="3.81027">
        <ele>104</ele>
        <time>2021-02-20T14:25:53Z</time>
      </trkpt>
      <trkpt lat="43.68926" lon="3.8103">
        <ele>104</ele>
        <time>2021-02-20T14:25:54Z</time>
      </trkpt>
      <trkpt lat="43.68923" lon="3.81032">
        <ele>104</ele>
        <time>2021-02-20T14:25:55Z</time>
      </trkpt>
      <trkpt lat="43.68919" lon="3.81034">
        <ele>104</ele>
        <time>2021-02-20T14:25:56Z</time>
      </trkpt>
      <trkpt lat="43.68916" lon="3.81037">
        <ele>104</ele>
        <time>2021-02-20T14:25:57Z</time>
      </trkpt>
      <trkpt lat="43.68913" lon="3.81039">
        <ele>104</ele>
        <time>2021-02-20T14:25:58Z</time>
      </trkpt>
      <trkpt lat="43.68909" lon="3.81041">
        <ele>104</ele>
        <time>2021-02-20T14:25:59Z</time>
      </trkpt>
      <trkpt lat="43.68902" lon="3.81047">
        <ele>104</ele>
        <time>2021-02-20T14:26:01Z</time>
      </trkpt>
      <trkpt lat="43.68899" lon="3.81051">
        <ele>104</ele>
        <time>2021-02-20T14:26:02Z</time>
      </trkpt>
      <trkpt lat="43.68895" lon="3.81055">
        <ele>104</ele>
        <time>2021-02-20T14:26:03Z</time>
      </trkpt>
      <trkpt lat="43.68892" lon="3.81058">
        <ele>104</ele>
        <time>2021-02-20T14:26:04Z</time>
      </trkpt>
      <trkpt lat="43.68888" lon="3.81062">
        <ele>104</ele>
        <time>2021-02-20T14:26:05Z</time>
      </trkpt>
      <trkpt lat="43.68884" lon="3.81065">
        <ele>104</ele>
        <time>2021-02-20T14:26:06Z</time>
      </trkpt>
      <trkpt lat="43.6888" lon="3.81069">
        <ele>104</ele>
        <time>2021-02-20T14:26:07Z</time>
      </trkpt>
      <trkpt lat="43.68876" lon="3.81072">
        <ele>104</ele>
        <time>2021-02-20T14:26:08Z</time>
      </trkpt>
      <trkpt lat="43.68873" lon="3.81075">
        <ele>104</ele>
        <time>2021-02-20T14:26:09Z</time>
      </trkpt>
      <trkpt lat="43.68869" lon="3.81079">
        <ele>104</ele>
        <time>2021-02-20T14:26:10Z</time>
      </trkpt>
      <trkpt lat="43.68866" lon="3.81083">
        <ele>104</ele>
        <time>2021-02-20T14:26:11Z</time>
      </trkpt>
      <trkpt lat="43.68863" lon="3.81086">
        <ele>104</ele>
        <time>2021-02-20T14:26:12Z</time>
      </trkpt>
      <trkpt lat="43.6886" lon="3.81089">
        <ele>104</ele>
        <time>2021-02-20T14:26:13Z</time>
      </trkpt>
      <trkpt lat="43.68857" lon="3.81091">
        <ele>104</ele>
        <time>2021-02-20T14:26:14Z</time>
      </trkpt>
      <trkpt lat="43.68854" lon="3.81093">
        <ele>104</ele>
        <time>2021-02-20T14:26:15Z</time>
      </trkpt>
      <trkpt lat="43.68851" lon="3.81095">
        <ele>104</ele>
        <time>2021-02-20T14:26:16Z</time>
      </trkpt>
      <trkpt lat="43.68847" lon="3.81095">
        <ele>104</ele>
        <time>2021-02-20T14:26:17Z</time>
      </trkpt>
      <trkpt lat="43.68842" lon="3.81096">
        <ele>104</ele>
        <time>2021-02-20T14:26:18Z</time>
      </trkpt>
      <trkpt lat="43.68838" lon="3.81097">
        <ele>104</ele>
        <time>2021-02-20T14:26:19Z</time>
      </trkpt>
      <trkpt lat="43.68834" lon="3.81097">
        <ele>104</ele>
        <time>2021-02-20T14:26:20Z</time>
      </trkpt>
      <trkpt lat="43.68829" lon="3.81098">
        <ele>104</ele>
        <time>2021-02-20T14:26:21Z</time>
      </trkpt>
      <trkpt lat="43.68825" lon="3.81098">
        <ele>104</ele>
        <time>2021-02-20T14:26:22Z</time>
      </trkpt>
      <trkpt lat="43.68821" lon="3.81099">
        <ele>104</ele>
        <time>2021-02-20T14:26:23Z</time>
      </trkpt>
      <trkpt lat="43.68817" lon="3.81099">
        <ele>104</ele>
        <time>2021-02-20T14:26:24Z</time>
      </trkpt>
      <trkpt lat="43.68813" lon="3.811">
        <ele>104</ele>
        <time>2021-02-20T14:26:25Z</time>
      </trkpt>
      <trkpt lat="43.68809" lon="3.81101">
        <ele>104</ele>
        <time>2021-02-20T14:26:26Z</time>
      </trkpt>
      <trkpt lat="43.68806" lon="3.81101">
        <ele>104</ele>
        <time>2021-02-20T14:26:27Z</time>
      </trkpt>
      <trkpt lat="43.68802" lon="3.81102">
        <ele>104</ele>
        <time>2021-02-20T14:26:28Z</time>
      </trkpt>
      <trkpt lat="43.68798" lon="3.81101">
        <ele>104</ele>
        <time>2021-02-20T14:26:29Z</time>
      </trkpt>
      <trkpt lat="43.68794" lon="3.811">
        <ele>104</ele>
        <time>2021-02-20T14:26:30Z</time>
      </trkpt>
      <trkpt lat="43.68791" lon="3.811">
        <ele>105</ele>
        <time>2021-02-20T14:26:31Z</time>
      </trkpt>
      <trkpt lat="43.68787" lon="3.81099">
        <ele>105</ele>
        <time>2021-02-20T14:26:32Z</time>
      </trkpt>
      <trkpt lat="43.68782" lon="3.81099">
        <ele>105</ele>
        <time>2021-02-20T14:26:33Z</time>
      </trkpt>
      <trkpt lat="43.68778" lon="3.81098">
        <ele>105</ele>
        <time>2021-02-20T14:26:34Z</time>
      </trkpt>
      <trkpt lat="43.68774" lon="3.81097">
        <ele>105</ele>
        <time>2021-02-20T14:26:35Z</time>
      </trkpt>
      <trkpt lat="43.68769" lon="3.81096">
        <ele>105</ele>
        <time>2021-02-20T14:26:36Z</time>
      </trkpt>
      <trkpt lat="43.68764" lon="3.81095">
        <ele>105</ele>
        <time>2021-02-20T14:26:37Z</time>
      </trkpt>
      <trkpt lat="43.6876" lon="3.81094">
        <ele>105</ele>
        <time>2021-02-20T14:26:38Z</time>
      </trkpt>
      <trkpt lat="43.68757" lon="3.81092">
        <ele>105</ele>
        <time>2021-02-20T14:26:39Z</time>
      </trkpt>
      <trkpt lat="43.68753" lon="3.8109">
        <ele>105</ele>
        <time>2021-02-20T14:26:40Z</time>
      </trkpt>
      <trkpt lat="43.6875" lon="3.81087">
        <ele>104</ele>
        <time>2021-02-20T14:26:41Z</time>
      </trkpt>
      <trkpt lat="43.68747" lon="3.81085">
        <ele>104</ele>
        <time>2021-02-20T14:26:42Z</time>
      </trkpt>
      <trkpt lat="43.68744" lon="3.81085">
        <ele>104</ele>
        <time>2021-02-20T14:26:43Z</time>
      </trkpt>
      <trkpt lat="43.68742" lon="3.81086">
        <ele>104</ele>
        <time>2021-02-20T14:26:44Z</time>
      </trkpt>
      <trkpt lat="43.6874" lon="3.81086">
        <ele>104</ele>
        <time>2021-02-20T14:26:45Z</time>
      </trkpt>
      <trkpt lat="43.68737" lon="3.81085">
        <ele>104</ele>
        <time>2021-02-20T14:26:46Z</time>
      </trkpt>
      <trkpt lat="43.68733" lon="3.81084">
        <ele>104</ele>
        <time>2021-02-20T14:26:47Z</time>
      </trkpt>
      <trkpt lat="43.6873" lon="3.81083">
        <ele>104</ele>
        <time>2021-02-20T14:26:48Z</time>
      </trkpt>
      <trkpt lat="43.68726" lon="3.81082">
        <ele>104</ele>
        <time>2021-02-20T14:26:49Z</time>
      </trkpt>
      <trkpt lat="43.68722" lon="3.81081">
        <ele>104</ele>
        <time>2021-02-20T14:26:50Z</time>
      </trkpt>
      <trkpt lat="43.68718" lon="3.81081">
        <ele>104</ele>
        <time>2021-02-20T14:26:51Z</time>
      </trkpt>
      <trkpt lat="43.68714" lon="3.81082">
        <ele>104</ele>
        <time>2021-02-20T14:26:52Z</time>
      </trkpt>
      <trkpt lat="43.6871" lon="3.81082">
        <ele>104</ele>
        <time>2021-02-20T14:26:53Z</time>
      </trkpt>
      <trkpt lat="43.68707" lon="3.81083">
        <ele>104</ele>
        <time>2021-02-20T14:26:54Z</time>
      </trkpt>
      <trkpt lat="43.68703" lon="3.81084">
        <ele>104</ele>
        <time>2021-02-20T14:26:55Z</time>
      </trkpt>
      <trkpt lat="43.68699" lon="3.81085">
        <ele>104</ele>
        <time>2021-02-20T14:26:56Z</time>
      </trkpt>
      <trkpt lat="43.68696" lon="3.81087">
        <ele>104</ele>
        <time>2021-02-20T14:26:57Z</time>
      </trkpt>
      <trkpt lat="43.68693" lon="3.8109">
        <ele>104</ele>
        <time>2021-02-20T14:26:58Z</time>
      </trkpt>
      <trkpt lat="43.6869" lon="3.81092">
        <ele>104</ele>
        <time>2021-02-20T14:26:59Z</time>
      </trkpt>
      <trkpt lat="43.68688" lon="3.81095">
        <ele>104</ele>
        <time>2021-02-20T14:27:00Z</time>
      </trkpt>
      <trkpt lat="43.68686" lon="3.81097">
        <ele>105</ele>
        <time>2021-02-20T14:27:01Z</time>
      </trkpt>
      <trkpt lat="43.68684" lon="3.81099">
        <ele>105</ele>
        <time>2021-02-20T14:27:02Z</time>
      </trkpt>
      <trkpt lat="43.68683" lon="3.81103">
        <ele>105</ele>
        <time>2021-02-20T14:27:04Z</time>
      </trkpt>
      <trkpt lat="43.68681" lon="3.81106">
        <ele>105</ele>
        <time>2021-02-20T14:27:06Z</time>
      </trkpt>
      <trkpt lat="43.68677" lon="3.81107">
        <ele>105</ele>
        <time>2021-02-20T14:27:08Z</time>
      </trkpt>
      <trkpt lat="43.68674" lon="3.81108">
        <ele>105</ele>
        <time>2021-02-20T14:27:09Z</time>
      </trkpt>
      <trkpt lat="43.68672" lon="3.81111">
        <ele>105</ele>
        <time>2021-02-20T14:27:10Z</time>
      </trkpt>
      <trkpt lat="43.68668" lon="3.81116">
        <ele>105</ele>
        <time>2021-02-20T14:27:11Z</time>
      </trkpt>
      <trkpt lat="43.68665" lon="3.81121">
        <ele>105</ele>
        <time>2021-02-20T14:27:12Z</time>
      </trkpt>
      <trkpt lat="43.68662" lon="3.81127">
        <ele>105</ele>
        <time>2021-02-20T14:27:13Z</time>
      </trkpt>
      <trkpt lat="43.68659" lon="3.81133">
        <ele>105</ele>
        <time>2021-02-20T14:27:14Z</time>
      </trkpt>
      <trkpt lat="43.68658" lon="3.81139">
        <ele>105</ele>
        <time>2021-02-20T14:27:15Z</time>
      </trkpt>
      <trkpt lat="43.68657" lon="3.81143">
        <ele>105</ele>
        <time>2021-02-20T14:27:16Z</time>
      </trkpt>
      <trkpt lat="43.68656" lon="3.81147">
        <ele>105</ele>
        <time>2021-02-20T14:27:17Z</time>
      </trkpt>
      <trkpt lat="43.68654" lon="3.81149">
        <ele>105</ele>
        <time>2021-02-20T14:27:18Z</time>
      </trkpt>
      <trkpt lat="43.68652" lon="3.81153">
        <ele>105</ele>
        <time>2021-02-20T14:27:19Z</time>
      </trkpt>
      <trkpt lat="43.6865" lon="3.81155">
        <ele>105</ele>
        <time>2021-02-20T14:27:20Z</time>
      </trkpt>
      <trkpt lat="43.68648" lon="3.81158">
        <ele>105</ele>
        <time>2021-02-20T14:27:21Z</time>
      </trkpt>
      <trkpt lat="43.68645" lon="3.8116">
        <ele>105</ele>
        <time>2021-02-20T14:27:22Z</time>
      </trkpt>
      <trkpt lat="43.68642" lon="3.81162">
        <ele>105</ele>
        <time>2021-02-20T14:27:23Z</time>
      </trkpt>
      <trkpt lat="43.68639" lon="3.81163">
        <ele>105</ele>
        <time>2021-02-20T14:27:24Z</time>
      </trkpt>
      <trkpt lat="43.68636" lon="3.81165">
        <ele>105</ele>
        <time>2021-02-20T14:27:25Z</time>
      </trkpt>
      <trkpt lat="43.68633" lon="3.81166">
        <ele>105</ele>
        <time>2021-02-20T14:27:26Z</time>
      </trkpt>
      <trkpt lat="43.6863" lon="3.81167">
        <ele>105</ele>
        <time>2021-02-20T14:27:27Z</time>
      </trkpt>
      <trkpt lat="43.68627" lon="3.81169">
        <ele>105</ele>
        <time>2021-02-20T14:27:28Z</time>
      </trkpt>
      <trkpt lat="43.68624" lon="3.8117">
        <ele>105</ele>
        <time>2021-02-20T14:27:29Z</time>
      </trkpt>
      <trkpt lat="43.68621" lon="3.81171">
        <ele>105</ele>
        <time>2021-02-20T14:27:30Z</time>
      </trkpt>
      <trkpt lat="43.68618" lon="3.81172">
        <ele>105</ele>
        <time>2021-02-20T14:27:31Z</time>
      </trkpt>
      <trkpt lat="43.68615" lon="3.81173">
        <ele>105</ele>
        <time>2021-02-20T14:27:32Z</time>
      </trkpt>
      <trkpt lat="43.68612" lon="3.81173">
        <ele>105</ele>
        <time>2021-02-20T14:27:33Z</time>
      </trkpt>
      <trkpt lat="43.68608" lon="3.81174">
        <ele>105</ele>
        <time>2021-02-20T14:27:34Z</time>
      </trkpt>
      <trkpt lat="43.68605" lon="3.81174">
        <ele>105</ele>
        <time>2021-02-20T14:27:35Z</time>
      </trkpt>
      <trkpt lat="43.68602" lon="3.81175">
        <ele>105</ele>
        <time>2021-02-20T14:27:36Z</time>
      </trkpt>
      <trkpt lat="43.68599" lon="3.81176">
        <ele>105</ele>
        <time>2021-02-20T14:27:37Z</time>
      </trkpt>
      <trkpt lat="43.68595" lon="3.81176">
        <ele>105</ele>
        <time>2021-02-20T14:27:38Z</time>
      </trkpt>
      <trkpt lat="43.68592" lon="3.81176">
        <ele>105</ele>
        <time>2021-02-20T14:27:39Z</time>
      </trkpt>
      <trkpt lat="43.68589" lon="3.81176">
        <ele>105</ele>
        <time>2021-02-20T14:27:40Z</time>
      </trkpt>
      <trkpt lat="43.68583" lon="3.81176">
        <ele>105</ele>
        <time>2021-02-20T14:27:42Z</time>
      </trkpt>
      <trkpt lat="43.6858" lon="3.81176">
        <ele>105</ele>
        <time>2021-02-20T14:27:43Z</time>
      </trkpt>
      <trkpt lat="43.68577" lon="3.81176">
        <ele>105</ele>
        <time>2021-02-20T14:27:44Z</time>
      </trkpt>
      <trkpt lat="43.68574" lon="3.81176">
        <ele>105</ele>
        <time>2021-02-20T14:27:45Z</time>
      </trkpt>
      <trkpt lat="43.68571" lon="3.81175">
        <ele>105</ele>
        <time>2021-02-20T14:27:46Z</time>
      </trkpt>
      <trkpt lat="43.68568" lon="3.81175">
        <ele>105</ele>
        <time>2021-02-20T14:27:47Z</time>
      </trkpt>
      <trkpt lat="43.68565" lon="3.81174">
        <ele>105</ele>
        <time>2021-02-20T14:27:48Z</time>
      </trkpt>
      <trkpt lat="43.68562" lon="3.81174">
        <ele>105</ele>
        <time>2021-02-20T14:27:49Z</time>
      </trkpt>
      <trkpt lat="43.68558" lon="3.81174">
        <ele>105</ele>
        <time>2021-02-20T14:27:50Z</time>
      </trkpt>
      <trkpt lat="43.68554" lon="3.81173">
        <ele>105</ele>
        <time>2021-02-20T14:27:51Z</time>
      </trkpt>
      <trkpt lat="43.6855" lon="3.81173">
        <ele>105</ele>
        <time>2021-02-20T14:27:52Z</time>
      </trkpt>
      <trkpt lat="43.68546" lon="3.81172">
        <ele>105</ele>
        <time>2021-02-20T14:27:53Z</time>
      </trkpt>
      <trkpt lat="43.68542" lon="3.81172">
        <ele>105</ele>
        <time>2021-02-20T14:27:54Z</time>
      </trkpt>
      <trkpt lat="43.68539" lon="3.81171">
        <ele>105</ele>
        <time>2021-02-20T14:27:55Z</time>
      </trkpt>
      <trkpt lat="43.68536" lon="3.81171">
        <ele>105</ele>
        <time>2021-02-20T14:27:56Z</time>
      </trkpt>
      <trkpt lat="43.68533" lon="3.81171">
        <ele>105</ele>
        <time>2021-02-20T14:27:57Z</time>
      </trkpt>
      <trkpt lat="43.68529" lon="3.8117">
        <ele>105</ele>
        <time>2021-02-20T14:27:58Z</time>
      </trkpt>
      <trkpt lat="43.68526" lon="3.81168">
        <ele>105</ele>
        <time>2021-02-20T14:27:59Z</time>
      </trkpt>
      <trkpt lat="43.68523" lon="3.81167">
        <ele>105</ele>
        <time>2021-02-20T14:28:00Z</time>
      </trkpt>
      <trkpt lat="43.6852" lon="3.81166">
        <ele>105</ele>
        <time>2021-02-20T14:28:01Z</time>
      </trkpt>
      <trkpt lat="43.68517" lon="3.81164">
        <ele>105</ele>
        <time>2021-02-20T14:28:02Z</time>
      </trkpt>
      <trkpt lat="43.68514" lon="3.81163">
        <ele>105</ele>
        <time>2021-02-20T14:28:03Z</time>
      </trkpt>
      <trkpt lat="43.6851" lon="3.81162">
        <ele>105</ele>
        <time>2021-02-20T14:28:04Z</time>
      </trkpt>
      <trkpt lat="43.68507" lon="3.81161">
        <ele>105</ele>
        <time>2021-02-20T14:28:05Z</time>
      </trkpt>
      <trkpt lat="43.68504" lon="3.8116">
        <ele>105</ele>
        <time>2021-02-20T14:28:06Z</time>
      </trkpt>
      <trkpt lat="43.68501" lon="3.81158">
        <ele>105</ele>
        <time>2021-02-20T14:28:07Z</time>
      </trkpt>
      <trkpt lat="43.68499" lon="3.81157">
        <ele>105</ele>
        <time>2021-02-20T14:28:08Z</time>
      </trkpt>
      <trkpt lat="43.68497" lon="3.81157">
        <ele>105</ele>
        <time>2021-02-20T14:28:09Z</time>
      </trkpt>
      <trkpt lat="43.68494" lon="3.81156">
        <ele>105</ele>
        <time>2021-02-20T14:28:10Z</time>
      </trkpt>
      <trkpt lat="43.68491" lon="3.81155">
        <ele>105</ele>
        <time>2021-02-20T14:28:11Z</time>
      </trkpt>
      <trkpt lat="43.68488" lon="3.81154">
        <ele>105</ele>
        <time>2021-02-20T14:28:12Z</time>
      </trkpt>
      <trkpt lat="43.68485" lon="3.81153">
        <ele>105</ele>
        <time>2021-02-20T14:28:13Z</time>
      </trkpt>
      <trkpt lat="43.68483" lon="3.81153">
        <ele>105</ele>
        <time>2021-02-20T14:28:14Z</time>
      </trkpt>
      <trkpt lat="43.6848" lon="3.81152">
        <ele>105</ele>
        <time>2021-02-20T14:28:15Z</time>
      </trkpt>
      <trkpt lat="43.68478" lon="3.81151">
        <ele>105</ele>
        <time>2021-02-20T14:28:16Z</time>
      </trkpt>
      <trkpt lat="43.68476" lon="3.81151">
        <ele>105</ele>
        <time>2021-02-20T14:28:17Z</time>
      </trkpt>
      <trkpt lat="43.68473" lon="3.81151">
        <ele>105</ele>
        <time>2021-02-20T14:28:18Z</time>
      </trkpt>
      <trkpt lat="43.68471" lon="3.8115">
        <ele>105</ele>
        <time>2021-02-20T14:28:19Z</time>
      </trkpt>
      <trkpt lat="43.68468" lon="3.81149">
        <ele>105</ele>
        <time>2021-02-20T14:28:20Z</time>
      </trkpt>
      <trkpt lat="43.68465" lon="3.81149">
        <ele>107</ele>
        <time>2021-02-20T14:28:21Z</time>
      </trkpt>
      <trkpt lat="43.68462" lon="3.8115">
        <ele>107</ele>
        <time>2021-02-20T14:28:22Z</time>
      </trkpt>
      <trkpt lat="43.6846" lon="3.81149">
        <ele>107</ele>
        <time>2021-02-20T14:28:23Z</time>
      </trkpt>
      <trkpt lat="43.68457" lon="3.81148">
        <ele>107</ele>
        <time>2021-02-20T14:28:24Z</time>
      </trkpt>
      <trkpt lat="43.68454" lon="3.81147">
        <ele>107</ele>
        <time>2021-02-20T14:28:25Z</time>
      </trkpt>
      <trkpt lat="43.68451" lon="3.81146">
        <ele>107</ele>
        <time>2021-02-20T14:28:26Z</time>
      </trkpt>
      <trkpt lat="43.68448" lon="3.81145">
        <ele>107</ele>
        <time>2021-02-20T14:28:27Z</time>
      </trkpt>
      <trkpt lat="43.68446" lon="3.81144">
        <ele>107</ele>
        <time>2021-02-20T14:28:28Z</time>
      </trkpt>
      <trkpt lat="43.68443" lon="3.81142">
        <ele>107</ele>
        <time>2021-02-20T14:28:29Z</time>
      </trkpt>
      <trkpt lat="43.68441" lon="3.8114">
        <ele>107</ele>
        <time>2021-02-20T14:28:30Z</time>
      </trkpt>
      <trkpt lat="43.68439" lon="3.81137">
        <ele>107</ele>
        <time>2021-02-20T14:28:31Z</time>
      </trkpt>
      <trkpt lat="43.68437" lon="3.81134">
        <ele>107</ele>
        <time>2021-02-20T14:28:32Z</time>
      </trkpt>
      <trkpt lat="43.68435" lon="3.81131">
        <ele>107</ele>
        <time>2021-02-20T14:28:33Z</time>
      </trkpt>
      <trkpt lat="43.68433" lon="3.81129">
        <ele>107</ele>
        <time>2021-02-20T14:28:34Z</time>
      </trkpt>
      <trkpt lat="43.68432" lon="3.81126">
        <ele>107</ele>
        <time>2021-02-20T14:28:35Z</time>
      </trkpt>
      <trkpt lat="43.6843" lon="3.81123">
        <ele>107</ele>
        <time>2021-02-20T14:28:36Z</time>
      </trkpt>
      <trkpt lat="43.68429" lon="3.8112">
        <ele>107</ele>
        <time>2021-02-20T14:28:37Z</time>
      </trkpt>
      <trkpt lat="43.68427" lon="3.81117">
        <ele>107</ele>
        <time>2021-02-20T14:28:38Z</time>
      </trkpt>
      <trkpt lat="43.68426" lon="3.81115">
        <ele>107</ele>
        <time>2021-02-20T14:28:39Z</time>
      </trkpt>
      <trkpt lat="43.68425" lon="3.81112">
        <ele>107</ele>
        <time>2021-02-20T14:28:40Z</time>
      </trkpt>
      <trkpt lat="43.68424" lon="3.81109">
        <ele>108</ele>
        <time>2021-02-20T14:28:41Z</time>
      </trkpt>
      <trkpt lat="43.68423" lon="3.81106">
        <ele>108</ele>
        <time>2021-02-20T14:28:42Z</time>
      </trkpt>
      <trkpt lat="43.68423" lon="3.81104">
        <ele>108</ele>
        <time>2021-02-20T14:28:43Z</time>
      </trkpt>
      <trkpt lat="43.68422" lon="3.81101">
        <ele>108</ele>
        <time>2021-02-20T14:28:44Z</time>
      </trkpt>
      <trkpt lat="43.68421" lon="3.81097">
        <ele>108</ele>
        <time>2021-02-20T14:28:45Z</time>
      </trkpt>
      <trkpt lat="43.68421" lon="3.81094">
        <ele>108</ele>
        <time>2021-02-20T14:28:46Z</time>
      </trkpt>
      <trkpt lat="43.6842" lon="3.81091">
        <ele>108</ele>
        <time>2021-02-20T14:28:47Z</time>
      </trkpt>
      <trkpt lat="43.6842" lon="3.81087">
        <ele>108</ele>
        <time>2021-02-20T14:28:49Z</time>
      </trkpt>
      <trkpt lat="43.68418" lon="3.81085">
        <ele>108</ele>
        <time>2021-02-20T14:28:52Z</time>
      </trkpt>
      <trkpt lat="43.68416" lon="3.81082">
        <ele>108</ele>
        <time>2021-02-20T14:28:55Z</time>
      </trkpt>
      <trkpt lat="43.68416" lon="3.81078">
        <ele>108</ele>
        <time>2021-02-20T14:28:57Z</time>
      </trkpt>
      <trkpt lat="43.68415" lon="3.81074">
        <ele>108</ele>
        <time>2021-02-20T14:28:58Z</time>
      </trkpt>
      <trkpt lat="43.68415" lon="3.8107">
        <ele>108</ele>
        <time>2021-02-20T14:28:59Z</time>
      </trkpt>
      <trkpt lat="43.68414" lon="3.81066">
        <ele>108</ele>
        <time>2021-02-20T14:29:00Z</time>
      </trkpt>
      <trkpt lat="43.68413" lon="3.8106">
        <ele>106</ele>
        <time>2021-02-20T14:29:01Z</time>
      </trkpt>
      <trkpt lat="43.68412" lon="3.81054">
        <ele>106</ele>
        <time>2021-02-20T14:29:02Z</time>
      </trkpt>
      <trkpt lat="43.68411" lon="3.81046">
        <ele>106</ele>
        <time>2021-02-20T14:29:03Z</time>
      </trkpt>
      <trkpt lat="43.6841" lon="3.81038">
        <ele>106</ele>
        <time>2021-02-20T14:29:04Z</time>
      </trkpt>
      <trkpt lat="43.68409" lon="3.81029">
        <ele>106</ele>
        <time>2021-02-20T14:29:05Z</time>
      </trkpt>
      <trkpt lat="43.68408" lon="3.81019">
        <ele>106</ele>
        <time>2021-02-20T14:29:06Z</time>
      </trkpt>
      <trkpt lat="43.68408" lon="3.8101">
        <ele>106</ele>
        <time>2021-02-20T14:29:07Z</time>
      </trkpt>
      <trkpt lat="43.68408" lon="3.81001">
        <ele>106</ele>
        <time>2021-02-20T14:29:08Z</time>
      </trkpt>
      <trkpt lat="43.68409" lon="3.80991">
        <ele>106</ele>
        <time>2021-02-20T14:29:09Z</time>
      </trkpt>
      <trkpt lat="43.68409" lon="3.80982">
        <ele>106</ele>
        <time>2021-02-20T14:29:10Z</time>
      </trkpt>
      <trkpt lat="43.6841" lon="3.80975">
        <ele>104</ele>
        <time>2021-02-20T14:29:11Z</time>
      </trkpt>
      <trkpt lat="43.68411" lon="3.8097">
        <ele>104</ele>
        <time>2021-02-20T14:29:12Z</time>
      </trkpt>
      <trkpt lat="43.68411" lon="3.80966">
        <ele>104</ele>
        <time>2021-02-20T14:29:13Z</time>
      </trkpt>
      <trkpt lat="43.68411" lon="3.80963">
        <ele>104</ele>
        <time>2021-02-20T14:29:14Z</time>
      </trkpt>
      <trkpt lat="43.68411" lon="3.80961">
        <ele>104</ele>
        <time>2021-02-20T14:29:15Z</time>
      </trkpt>
      <trkpt lat="43.68409" lon="3.8096">
        <ele>104</ele>
        <time>2021-02-20T14:29:16Z</time>
      </trkpt>
      <trkpt lat="43.68406" lon="3.8096">
        <ele>104</ele>
        <time>2021-02-20T14:29:17Z</time>
      </trkpt>
      <trkpt lat="43.68403" lon="3.80961">
        <ele>104</ele>
        <time>2021-02-20T14:29:18Z</time>
      </trkpt>
      <trkpt lat="43.684" lon="3.80961">
        <ele>104</ele>
        <time>2021-02-20T14:29:19Z</time>
      </trkpt>
      <trkpt lat="43.68397" lon="3.80961">
        <ele>104</ele>
        <time>2021-02-20T14:29:20Z</time>
      </trkpt>
      <trkpt lat="43.68394" lon="3.80961">
        <ele>100</ele>
        <time>2021-02-20T14:29:21Z</time>
      </trkpt>
      <trkpt lat="43.68391" lon="3.8096">
        <ele>100</ele>
        <time>2021-02-20T14:29:22Z</time>
      </trkpt>
      <trkpt lat="43.68388" lon="3.8096">
        <ele>100</ele>
        <time>2021-02-20T14:29:23Z</time>
      </trkpt>
      <trkpt lat="43.68384" lon="3.8096">
        <ele>100</ele>
        <time>2021-02-20T14:29:24Z</time>
      </trkpt>
      <trkpt lat="43.6838" lon="3.80959">
        <ele>100</ele>
        <time>2021-02-20T14:29:25Z</time>
      </trkpt>
      <trkpt lat="43.68376" lon="3.80959">
        <ele>100</ele>
        <time>2021-02-20T14:29:26Z</time>
      </trkpt>
      <trkpt lat="43.68372" lon="3.80958">
        <ele>100</ele>
        <time>2021-02-20T14:29:27Z</time>
      </trkpt>
      <trkpt lat="43.68368" lon="3.80958">
        <ele>100</ele>
        <time>2021-02-20T14:29:28Z</time>
      </trkpt>
      <trkpt lat="43.68364" lon="3.80958">
        <ele>100</ele>
        <time>2021-02-20T14:29:29Z</time>
      </trkpt>
      <trkpt lat="43.68361" lon="3.80958">
        <ele>100</ele>
        <time>2021-02-20T14:29:30Z</time>
      </trkpt>
      <trkpt lat="43.68357" lon="3.80958">
        <ele>99</ele>
        <time>2021-02-20T14:29:31Z</time>
      </trkpt>
      <trkpt lat="43.68353" lon="3.80958">
        <ele>99</ele>
        <time>2021-02-20T14:29:32Z</time>
      </trkpt>
      <trkpt lat="43.68349" lon="3.80958">
        <ele>99</ele>
        <time>2021-02-20T14:29:33Z</time>
      </trkpt>
      <trkpt lat="43.68346" lon="3.80958">
        <ele>99</ele>
        <time>2021-02-20T14:29:34Z</time>
      </trkpt>
      <trkpt lat="43.68342" lon="3.80958">
        <ele>99</ele>
        <time>2021-02-20T14:29:35Z</time>
      </trkpt>
      <trkpt lat="43.68339" lon="3.80958">
        <ele>99</ele>
        <time>2021-02-20T14:29:36Z</time>
      </trkpt>
      <trkpt lat="43.68336" lon="3.80959">
        <ele>99</ele>
        <time>2021-02-20T14:29:37Z</time>
      </trkpt>
      <trkpt lat="43.68333" lon="3.80959">
        <ele>99</ele>
        <time>2021-02-20T14:29:38Z</time>
      </trkpt>
      <trkpt lat="43.68329" lon="3.8096">
        <ele>99</ele>
        <time>2021-02-20T14:29:39Z</time>
      </trkpt>
      <trkpt lat="43.68326" lon="3.8096">
        <ele>99</ele>
        <time>2021-02-20T14:29:40Z</time>
      </trkpt>
      <trkpt lat="43.68323" lon="3.80961">
        <ele>99</ele>
        <time>2021-02-20T14:29:41Z</time>
      </trkpt>
      <trkpt lat="43.6832" lon="3.80962">
        <ele>99</ele>
        <time>2021-02-20T14:29:42Z</time>
      </trkpt>
      <trkpt lat="43.68317" lon="3.80963">
        <ele>99</ele>
        <time>2021-02-20T14:29:43Z</time>
      </trkpt>
      <trkpt lat="43.68314" lon="3.80964">
        <ele>99</ele>
        <time>2021-02-20T14:29:44Z</time>
      </trkpt>
      <trkpt lat="43.68312" lon="3.80965">
        <ele>99</ele>
        <time>2021-02-20T14:29:45Z</time>
      </trkpt>
      <trkpt lat="43.68309" lon="3.80966">
        <ele>99</ele>
        <time>2021-02-20T14:29:46Z</time>
      </trkpt>
      <trkpt lat="43.68306" lon="3.80967">
        <ele>99</ele>
        <time>2021-02-20T14:29:47Z</time>
      </trkpt>
      <trkpt lat="43.68303" lon="3.80969">
        <ele>99</ele>
        <time>2021-02-20T14:29:48Z</time>
      </trkpt>
      <trkpt lat="43.68301" lon="3.8097">
        <ele>99</ele>
        <time>2021-02-20T14:29:49Z</time>
      </trkpt>
      <trkpt lat="43.68298" lon="3.80972">
        <ele>99</ele>
        <time>2021-02-20T14:29:50Z</time>
      </trkpt>
      <trkpt lat="43.68296" lon="3.80973">
        <ele>99</ele>
        <time>2021-02-20T14:29:51Z</time>
      </trkpt>
      <trkpt lat="43.68294" lon="3.80975">
        <ele>99</ele>
        <time>2021-02-20T14:29:52Z</time>
      </trkpt>
      <trkpt lat="43.68291" lon="3.80976">
        <ele>99</ele>
        <time>2021-02-20T14:29:53Z</time>
      </trkpt>
      <trkpt lat="43.68289" lon="3.80978">
        <ele>99</ele>
        <time>2021-02-20T14:29:54Z</time>
      </trkpt>
      <trkpt lat="43.68286" lon="3.8098">
        <ele>99</ele>
        <time>2021-02-20T14:29:55Z</time>
      </trkpt>
      <trkpt lat="43.68284" lon="3.80982">
        <ele>99</ele>
        <time>2021-02-20T14:29:56Z</time>
      </trkpt>
      <trkpt lat="43.68281" lon="3.80984">
        <ele>99</ele>
        <time>2021-02-20T14:29:57Z</time>
      </trkpt>
      <trkpt lat="43.68279" lon="3.80986">
        <ele>99</ele>
        <time>2021-02-20T14:29:58Z</time>
      </trkpt>
      <trkpt lat="43.68274" lon="3.8099">
        <ele>99</ele>
        <time>2021-02-20T14:30:00Z</time>
      </trkpt>
      <trkpt lat="43.68272" lon="3.80992">
        <ele>100</ele>
        <time>2021-02-20T14:30:01Z</time>
      </trkpt>
      <trkpt lat="43.68269" lon="3.80993">
        <ele>100</ele>
        <time>2021-02-20T14:30:02Z</time>
      </trkpt>
      <trkpt lat="43.68267" lon="3.80995">
        <ele>100</ele>
        <time>2021-02-20T14:30:03Z</time>
      </trkpt>
      <trkpt lat="43.68264" lon="3.80997">
        <ele>100</ele>
        <time>2021-02-20T14:30:04Z</time>
      </trkpt>
      <trkpt lat="43.68262" lon="3.80999">
        <ele>100</ele>
        <time>2021-02-20T14:30:05Z</time>
      </trkpt>
      <trkpt lat="43.6826" lon="3.81001">
        <ele>100</ele>
        <time>2021-02-20T14:30:06Z</time>
      </trkpt>
      <trkpt lat="43.68257" lon="3.81003">
        <ele>100</ele>
        <time>2021-02-20T14:30:07Z</time>
      </trkpt>
      <trkpt lat="43.68254" lon="3.81005">
        <ele>100</ele>
        <time>2021-02-20T14:30:08Z</time>
      </trkpt>
      <trkpt lat="43.68252" lon="3.81007">
        <ele>100</ele>
        <time>2021-02-20T14:30:09Z</time>
      </trkpt>
      <trkpt lat="43.68249" lon="3.81009">
        <ele>100</ele>
        <time>2021-02-20T14:30:10Z</time>
      </trkpt>
      <trkpt lat="43.68247" lon="3.81011">
        <ele>101</ele>
        <time>2021-02-20T14:30:11Z</time>
      </trkpt>
      <trkpt lat="43.68244" lon="3.81013">
        <ele>101</ele>
        <time>2021-02-20T14:30:12Z</time>
      </trkpt>
      <trkpt lat="43.68242" lon="3.81015">
        <ele>101</ele>
        <time>2021-02-20T14:30:13Z</time>
      </trkpt>
      <trkpt lat="43.68239" lon="3.81017">
        <ele>101</ele>
        <time>2021-02-20T14:30:14Z</time>
      </trkpt>
      <trkpt lat="43.68237" lon="3.81019">
        <ele>101</ele>
        <time>2021-02-20T14:30:15Z</time>
      </trkpt>
      <trkpt lat="43.68235" lon="3.81021">
        <ele>101</ele>
        <time>2021-02-20T14:30:16Z</time>
      </trkpt>
      <trkpt lat="43.68232" lon="3.81023">
        <ele>101</ele>
        <time>2021-02-20T14:30:17Z</time>
      </trkpt>
      <trkpt lat="43.6823" lon="3.81024">
        <ele>101</ele>
        <time>2021-02-20T14:30:18Z</time>
      </trkpt>
      <trkpt lat="43.68227" lon="3.81026">
        <ele>101</ele>
        <time>2021-02-20T14:30:19Z</time>
      </trkpt>
      <trkpt lat="43.68225" lon="3.81028">
        <ele>101</ele>
        <time>2021-02-20T14:30:20Z</time>
      </trkpt>
      <trkpt lat="43.68223" lon="3.8103">
        <ele>101</ele>
        <time>2021-02-20T14:30:21Z</time>
      </trkpt>
      <trkpt lat="43.6822" lon="3.81032">
        <ele>101</ele>
        <time>2021-02-20T14:30:22Z</time>
      </trkpt>
      <trkpt lat="43.68217" lon="3.81033">
        <ele>101</ele>
        <time>2021-02-20T14:30:23Z</time>
      </trkpt>
      <trkpt lat="43.68215" lon="3.81035">
        <ele>101</ele>
        <time>2021-02-20T14:30:24Z</time>
      </trkpt>
      <trkpt lat="43.68213" lon="3.81037">
        <ele>101</ele>
        <time>2021-02-20T14:30:25Z</time>
      </trkpt>
      <trkpt lat="43.6821" lon="3.81039">
        <ele>101</ele>
        <time>2021-02-20T14:30:26Z</time>
      </trkpt>
      <trkpt lat="43.68208" lon="3.81041">
        <ele>101</ele>
        <time>2021-02-20T14:30:27Z</time>
      </trkpt>
      <trkpt lat="43.68206" lon="3.81042">
        <ele>101</ele>
        <time>2021-02-20T14:30:28Z</time>
      </trkpt>
      <trkpt lat="43.68204" lon="3.81044">
        <ele>101</ele>
        <time>2021-02-20T14:30:29Z</time>
      </trkpt>
      <trkpt lat="43.68202" lon="3.81046">
        <ele>101</ele>
        <time>2021-02-20T14:30:30Z</time>
      </trkpt>
      <trkpt lat="43.682" lon="3.81049">
        <ele>102</ele>
        <time>2021-02-20T14:30:31Z</time>
      </trkpt>
      <trkpt lat="43.68199" lon="3.81051">
        <ele>102</ele>
        <time>2021-02-20T14:30:32Z</time>
      </trkpt>
      <trkpt lat="43.68198" lon="3.81053">
        <ele>102</ele>
        <time>2021-02-20T14:30:33Z</time>
      </trkpt>
      <trkpt lat="43.68197" lon="3.81055">
        <ele>102</ele>
        <time>2021-02-20T14:30:34Z</time>
      </trkpt>
      <trkpt lat="43.68196" lon="3.81058">
        <ele>102</ele>
        <time>2021-02-20T14:30:35Z</time>
      </trkpt>
      <trkpt lat="43.68196" lon="3.81061">
        <ele>102</ele>
        <time>2021-02-20T14:30:36Z</time>
      </trkpt>
      <trkpt lat="43.68197" lon="3.81064">
        <ele>102</ele>
        <time>2021-02-20T14:30:37Z</time>
      </trkpt>
      <trkpt lat="43.68197" lon="3.81067">
        <ele>102</ele>
        <time>2021-02-20T14:30:38Z</time>
      </trkpt>
      <trkpt lat="43.68198" lon="3.81069">
        <ele>102</ele>
        <time>2021-02-20T14:30:39Z</time>
      </trkpt>
      <trkpt lat="43.68199" lon="3.81072">
        <ele>102</ele>
        <time>2021-02-20T14:30:40Z</time>
      </trkpt>
      <trkpt lat="43.682" lon="3.81074">
        <ele>104</ele>
        <time>2021-02-20T14:30:41Z</time>
      </trkpt>
      <trkpt lat="43.682" lon="3.81077">
        <ele>104</ele>
        <time>2021-02-20T14:30:42Z</time>
      </trkpt>
      <trkpt lat="43.68202" lon="3.81081">
        <ele>104</ele>
        <time>2021-02-20T14:30:44Z</time>
      </trkpt>
      <trkpt lat="43.68204" lon="3.81085">
        <ele>104</ele>
        <time>2021-02-20T14:30:46Z</time>
      </trkpt>
      <trkpt lat="43.68204" lon="3.81088">
        <ele>104</ele>
        <time>2021-02-20T14:30:48Z</time>
      </trkpt>
      <trkpt lat="43.68202" lon="3.8109">
        <ele>104</ele>
        <time>2021-02-20T14:30:50Z</time>
      </trkpt>
      <trkpt lat="43.682" lon="3.81086">
        <ele>104</ele>
        <time>2021-02-20T14:30:52Z</time>
      </trkpt>
      <trkpt lat="43.68199" lon="3.81083">
        <ele>104</ele>
        <time>2021-02-20T14:30:53Z</time>
      </trkpt>
      <trkpt lat="43.68198" lon="3.8108">
        <ele>104</ele>
        <time>2021-02-20T14:30:54Z</time>
      </trkpt>
      <trkpt lat="43.68196" lon="3.81078">
        <ele>104</ele>
        <time>2021-02-20T14:30:55Z</time>
      </trkpt>
      <trkpt lat="43.68194" lon="3.81076">
        <ele>104</ele>
        <time>2021-02-20T14:30:56Z</time>
      </trkpt>
      <trkpt lat="43.6819" lon="3.81075">
        <ele>104</ele>
        <time>2021-02-20T14:30:58Z</time>
      </trkpt>
      <trkpt lat="43.68188" lon="3.81075">
        <ele>104</ele>
        <time>2021-02-20T14:30:59Z</time>
      </trkpt>
      <trkpt lat="43.68186" lon="3.81075">
        <ele>104</ele>
        <time>2021-02-20T14:31:00Z</time>
      </trkpt>
      <trkpt lat="43.68183" lon="3.81074">
        <ele>106</ele>
        <time>2021-02-20T14:31:01Z</time>
      </trkpt>
      <trkpt lat="43.68179" lon="3.81073">
        <ele>106</ele>
        <time>2021-02-20T14:31:02Z</time>
      </trkpt>
      <trkpt lat="43.68176" lon="3.81073">
        <ele>106</ele>
        <time>2021-02-20T14:31:03Z</time>
      </trkpt>
      <trkpt lat="43.68172" lon="3.81075">
        <ele>106</ele>
        <time>2021-02-20T14:31:04Z</time>
      </trkpt>
      <trkpt lat="43.68169" lon="3.81077">
        <ele>106</ele>
        <time>2021-02-20T14:31:05Z</time>
      </trkpt>
      <trkpt lat="43.68166" lon="3.8108">
        <ele>106</ele>
        <time>2021-02-20T14:31:06Z</time>
      </trkpt>
      <trkpt lat="43.68163" lon="3.81083">
        <ele>106</ele>
        <time>2021-02-20T14:31:07Z</time>
      </trkpt>
      <trkpt lat="43.68159" lon="3.81086">
        <ele>106</ele>
        <time>2021-02-20T14:31:08Z</time>
      </trkpt>
      <trkpt lat="43.68156" lon="3.81088">
        <ele>106</ele>
        <time>2021-02-20T14:31:09Z</time>
      </trkpt>
      <trkpt lat="43.68152" lon="3.81089">
        <ele>106</ele>
        <time>2021-02-20T14:31:10Z</time>
      </trkpt>
      <trkpt lat="43.68148" lon="3.8109">
        <ele>104</ele>
        <time>2021-02-20T14:31:11Z</time>
      </trkpt>
      <trkpt lat="43.68145" lon="3.81091">
        <ele>104</ele>
        <time>2021-02-20T14:31:12Z</time>
      </trkpt>
      <trkpt lat="43.68141" lon="3.81094">
        <ele>104</ele>
        <time>2021-02-20T14:31:13Z</time>
      </trkpt>
      <trkpt lat="43.68138" lon="3.81096">
        <ele>104</ele>
        <time>2021-02-20T14:31:14Z</time>
      </trkpt>
      <trkpt lat="43.68134" lon="3.81099">
        <ele>104</ele>
        <time>2021-02-20T14:31:15Z</time>
      </trkpt>
      <trkpt lat="43.68131" lon="3.81101">
        <ele>104</ele>
        <time>2021-02-20T14:31:16Z</time>
      </trkpt>
      <trkpt lat="43.68127" lon="3.81102">
        <ele>104</ele>
        <time>2021-02-20T14:31:17Z</time>
      </trkpt>
      <trkpt lat="43.68123" lon="3.81104">
        <ele>104</ele>
        <time>2021-02-20T14:31:18Z</time>
      </trkpt>
      <trkpt lat="43.6812" lon="3.81106">
        <ele>104</ele>
        <time>2021-02-20T14:31:19Z</time>
      </trkpt>
      <trkpt lat="43.68117" lon="3.81108">
        <ele>104</ele>
        <time>2021-02-20T14:31:20Z</time>
      </trkpt>
      <trkpt lat="43.68114" lon="3.8111">
        <ele>104</ele>
        <time>2021-02-20T14:31:21Z</time>
      </trkpt>
      <trkpt lat="43.6811" lon="3.81113">
        <ele>104</ele>
        <time>2021-02-20T14:31:22Z</time>
      </trkpt>
      <trkpt lat="43.68107" lon="3.81115">
        <ele>104</ele>
        <time>2021-02-20T14:31:23Z</time>
      </trkpt>
      <trkpt lat="43.68104" lon="3.81117">
        <ele>104</ele>
        <time>2021-02-20T14:31:24Z</time>
      </trkpt>
      <trkpt lat="43.68101" lon="3.8112">
        <ele>104</ele>
        <time>2021-02-20T14:31:25Z</time>
      </trkpt>
      <trkpt lat="43.68098" lon="3.81122">
        <ele>104</ele>
        <time>2021-02-20T14:31:26Z</time>
      </trkpt>
      <trkpt lat="43.68095" lon="3.81124">
        <ele>104</ele>
        <time>2021-02-20T14:31:27Z</time>
      </trkpt>
      <trkpt lat="43.68092" lon="3.81126">
        <ele>104</ele>
        <time>2021-02-20T14:31:28Z</time>
      </trkpt>
      <trkpt lat="43.6809" lon="3.81129">
        <ele>104</ele>
        <time>2021-02-20T14:31:29Z</time>
      </trkpt>
      <trkpt lat="43.68087" lon="3.81131">
        <ele>104</ele>
        <time>2021-02-20T14:31:30Z</time>
      </trkpt>
      <trkpt lat="43.68084" lon="3.81133">
        <ele>103</ele>
        <time>2021-02-20T14:31:31Z</time>
      </trkpt>
      <trkpt lat="43.68081" lon="3.81135">
        <ele>103</ele>
        <time>2021-02-20T14:31:32Z</time>
      </trkpt>
      <trkpt lat="43.68078" lon="3.81137">
        <ele>103</ele>
        <time>2021-02-20T14:31:33Z</time>
      </trkpt>
      <trkpt lat="43.68076" lon="3.81139">
        <ele>103</ele>
        <time>2021-02-20T14:31:34Z</time>
      </trkpt>
      <trkpt lat="43.68073" lon="3.81141">
        <ele>103</ele>
        <time>2021-02-20T14:31:35Z</time>
      </trkpt>
      <trkpt lat="43.6807" lon="3.81143">
        <ele>103</ele>
        <time>2021-02-20T14:31:36Z</time>
      </trkpt>
      <trkpt lat="43.68067" lon="3.81145">
        <ele>103</ele>
        <time>2021-02-20T14:31:37Z</time>
      </trkpt>
      <trkpt lat="43.68063" lon="3.81148">
        <ele>103</ele>
        <time>2021-02-20T14:31:38Z</time>
      </trkpt>
      <trkpt lat="43.68061" lon="3.81151">
        <ele>103</ele>
        <time>2021-02-20T14:31:39Z</time>
      </trkpt>
      <trkpt lat="43.68058" lon="3.81153">
        <ele>103</ele>
        <time>2021-02-20T14:31:40Z</time>
      </trkpt>
      <trkpt lat="43.68055" lon="3.81156">
        <ele>103</ele>
        <time>2021-02-20T14:31:41Z</time>
      </trkpt>
      <trkpt lat="43.68052" lon="3.81158">
        <ele>103</ele>
        <time>2021-02-20T14:31:42Z</time>
      </trkpt>
      <trkpt lat="43.68049" lon="3.81161">
        <ele>103</ele>
        <time>2021-02-20T14:31:43Z</time>
      </trkpt>
      <trkpt lat="43.68047" lon="3.81164">
        <ele>103</ele>
        <time>2021-02-20T14:31:44Z</time>
      </trkpt>
      <trkpt lat="43.68044" lon="3.81166">
        <ele>103</ele>
        <time>2021-02-20T14:31:45Z</time>
      </trkpt>
      <trkpt lat="43.68042" lon="3.81169">
        <ele>103</ele>
        <time>2021-02-20T14:31:46Z</time>
      </trkpt>
      <trkpt lat="43.6804" lon="3.81172">
        <ele>103</ele>
        <time>2021-02-20T14:31:47Z</time>
      </trkpt>
      <trkpt lat="43.68037" lon="3.81175">
        <ele>103</ele>
        <time>2021-02-20T14:31:48Z</time>
      </trkpt>
      <trkpt lat="43.68035" lon="3.81178">
        <ele>103</ele>
        <time>2021-02-20T14:31:49Z</time>
      </trkpt>
      <trkpt lat="43.68032" lon="3.81181">
        <ele>103</ele>
        <time>2021-02-20T14:31:50Z</time>
      </trkpt>
      <trkpt lat="43.6803" lon="3.81184">
        <ele>101</ele>
        <time>2021-02-20T14:31:51Z</time>
      </trkpt>
      <trkpt lat="43.68028" lon="3.81186">
        <ele>101</ele>
        <time>2021-02-20T14:31:52Z</time>
      </trkpt>
      <trkpt lat="43.68026" lon="3.81189">
        <ele>101</ele>
        <time>2021-02-20T14:31:53Z</time>
      </trkpt>
      <trkpt lat="43.68024" lon="3.81192">
        <ele>101</ele>
        <time>2021-02-20T14:31:54Z</time>
      </trkpt>
      <trkpt lat="43.68022" lon="3.81196">
        <ele>101</ele>
        <time>2021-02-20T14:31:55Z</time>
      </trkpt>
      <trkpt lat="43.6802" lon="3.81199">
        <ele>101</ele>
        <time>2021-02-20T14:31:56Z</time>
      </trkpt>
      <trkpt lat="43.68018" lon="3.81202">
        <ele>101</ele>
        <time>2021-02-20T14:31:57Z</time>
      </trkpt>
      <trkpt lat="43.68016" lon="3.81206">
        <ele>101</ele>
        <time>2021-02-20T14:31:58Z</time>
      </trkpt>
      <trkpt lat="43.68014" lon="3.81209">
        <ele>101</ele>
        <time>2021-02-20T14:31:59Z</time>
      </trkpt>
      <trkpt lat="43.68012" lon="3.81213">
        <ele>101</ele>
        <time>2021-02-20T14:32:00Z</time>
      </trkpt>
      <trkpt lat="43.6801" lon="3.81216">
        <ele>101</ele>
        <time>2021-02-20T14:32:01Z</time>
      </trkpt>
      <trkpt lat="43.68008" lon="3.8122">
        <ele>101</ele>
        <time>2021-02-20T14:32:02Z</time>
      </trkpt>
      <trkpt lat="43.68006" lon="3.81223">
        <ele>101</ele>
        <time>2021-02-20T14:32:03Z</time>
      </trkpt>
      <trkpt lat="43.68004" lon="3.81226">
        <ele>101</ele>
        <time>2021-02-20T14:32:04Z</time>
      </trkpt>
      <trkpt lat="43.68002" lon="3.8123">
        <ele>101</ele>
        <time>2021-02-20T14:32:05Z</time>
      </trkpt>
      <trkpt lat="43.68" lon="3.81233">
        <ele>101</ele>
        <time>2021-02-20T14:32:06Z</time>
      </trkpt>
      <trkpt lat="43.67999" lon="3.81237">
        <ele>101</ele>
        <time>2021-02-20T14:32:07Z</time>
      </trkpt>
      <trkpt lat="43.67997" lon="3.8124">
        <ele>101</ele>
        <time>2021-02-20T14:32:08Z</time>
      </trkpt>
      <trkpt lat="43.67995" lon="3.81244">
        <ele>101</ele>
        <time>2021-02-20T14:32:09Z</time>
      </trkpt>
      <trkpt lat="43.67993" lon="3.81247">
        <ele>101</ele>
        <time>2021-02-20T14:32:10Z</time>
      </trkpt>
      <trkpt lat="43.67991" lon="3.8125">
        <ele>102</ele>
        <time>2021-02-20T14:32:11Z</time>
      </trkpt>
      <trkpt lat="43.67989" lon="3.81253">
        <ele>102</ele>
        <time>2021-02-20T14:32:12Z</time>
      </trkpt>
      <trkpt lat="43.67987" lon="3.81256">
        <ele>102</ele>
        <time>2021-02-20T14:32:13Z</time>
      </trkpt>
      <trkpt lat="43.67985" lon="3.8126">
        <ele>102</ele>
        <time>2021-02-20T14:32:14Z</time>
      </trkpt>
      <trkpt lat="43.67984" lon="3.81263">
        <ele>102</ele>
        <time>2021-02-20T14:32:15Z</time>
      </trkpt>
      <trkpt lat="43.67982" lon="3.81267">
        <ele>102</ele>
        <time>2021-02-20T14:32:16Z</time>
      </trkpt>
      <trkpt lat="43.6798" lon="3.8127">
        <ele>102</ele>
        <time>2021-02-20T14:32:17Z</time>
      </trkpt>
      <trkpt lat="43.67979" lon="3.81273">
        <ele>102</ele>
        <time>2021-02-20T14:32:18Z</time>
      </trkpt>
      <trkpt lat="43.67977" lon="3.81276">
        <ele>102</ele>
        <time>2021-02-20T14:32:19Z</time>
      </trkpt>
      <trkpt lat="43.67976" lon="3.8128">
        <ele>102</ele>
        <time>2021-02-20T14:32:20Z</time>
      </trkpt>
      <trkpt lat="43.67974" lon="3.81284">
        <ele>103</ele>
        <time>2021-02-20T14:32:21Z</time>
      </trkpt>
      <trkpt lat="43.67973" lon="3.81287">
        <ele>103</ele>
        <time>2021-02-20T14:32:22Z</time>
      </trkpt>
      <trkpt lat="43.67972" lon="3.81291">
        <ele>103</ele>
        <time>2021-02-20T14:32:23Z</time>
      </trkpt>
      <trkpt lat="43.67971" lon="3.81294">
        <ele>103</ele>
        <time>2021-02-20T14:32:24Z</time>
      </trkpt>
      <trkpt lat="43.67969" lon="3.81298">
        <ele>103</ele>
        <time>2021-02-20T14:32:25Z</time>
      </trkpt>
      <trkpt lat="43.67968" lon="3.81302">
        <ele>103</ele>
        <time>2021-02-20T14:32:26Z</time>
      </trkpt>
      <trkpt lat="43.67967" lon="3.81306">
        <ele>103</ele>
        <time>2021-02-20T14:32:27Z</time>
      </trkpt>
      <trkpt lat="43.67965" lon="3.81309">
        <ele>103</ele>
        <time>2021-02-20T14:32:28Z</time>
      </trkpt>
      <trkpt lat="43.67964" lon="3.81313">
        <ele>103</ele>
        <time>2021-02-20T14:32:29Z</time>
      </trkpt>
      <trkpt lat="43.67963" lon="3.81317">
        <ele>103</ele>
        <time>2021-02-20T14:32:30Z</time>
      </trkpt>
      <trkpt lat="43.67961" lon="3.8132">
        <ele>104</ele>
        <time>2021-02-20T14:32:31Z</time>
      </trkpt>
      <trkpt lat="43.6796" lon="3.81324">
        <ele>104</ele>
        <time>2021-02-20T14:32:32Z</time>
      </trkpt>
      <trkpt lat="43.67959" lon="3.81328">
        <ele>104</ele>
        <time>2021-02-20T14:32:33Z</time>
      </trkpt>
      <trkpt lat="43.67958" lon="3.81331">
        <ele>104</ele>
        <time>2021-02-20T14:32:34Z</time>
      </trkpt>
      <trkpt lat="43.67956" lon="3.81335">
        <ele>104</ele>
        <time>2021-02-20T14:32:35Z</time>
      </trkpt>
      <trkpt lat="43.67956" lon="3.81339">
        <ele>104</ele>
        <time>2021-02-20T14:32:36Z</time>
      </trkpt>
      <trkpt lat="43.67954" lon="3.81343">
        <ele>104</ele>
        <time>2021-02-20T14:32:37Z</time>
      </trkpt>
      <trkpt lat="43.67953" lon="3.81346">
        <ele>104</ele>
        <time>2021-02-20T14:32:38Z</time>
      </trkpt>
      <trkpt lat="43.67952" lon="3.8135">
        <ele>104</ele>
        <time>2021-02-20T14:32:39Z</time>
      </trkpt>
      <trkpt lat="43.67951" lon="3.81354">
        <ele>104</ele>
        <time>2021-02-20T14:32:40Z</time>
      </trkpt>
      <trkpt lat="43.6795" lon="3.81358">
        <ele>105</ele>
        <time>2021-02-20T14:32:41Z</time>
      </trkpt>
      <trkpt lat="43.67949" lon="3.81362">
        <ele>105</ele>
        <time>2021-02-20T14:32:42Z</time>
      </trkpt>
      <trkpt lat="43.67948" lon="3.81366">
        <ele>105</ele>
        <time>2021-02-20T14:32:43Z</time>
      </trkpt>
      <trkpt lat="43.67947" lon="3.81369">
        <ele>105</ele>
        <time>2021-02-20T14:32:44Z</time>
      </trkpt>
      <trkpt lat="43.67946" lon="3.81373">
        <ele>105</ele>
        <time>2021-02-20T14:32:45Z</time>
      </trkpt>
      <trkpt lat="43.67945" lon="3.81377">
        <ele>105</ele>
        <time>2021-02-20T14:32:46Z</time>
      </trkpt>
      <trkpt lat="43.67944" lon="3.81381">
        <ele>105</ele>
        <time>2021-02-20T14:32:47Z</time>
      </trkpt>
      <trkpt lat="43.67943" lon="3.81385">
        <ele>105</ele>
        <time>2021-02-20T14:32:48Z</time>
      </trkpt>
      <trkpt lat="43.67943" lon="3.81389">
        <ele>105</ele>
        <time>2021-02-20T14:32:49Z</time>
      </trkpt>
      <trkpt lat="43.67942" lon="3.81392">
        <ele>105</ele>
        <time>2021-02-20T14:32:50Z</time>
      </trkpt>
      <trkpt lat="43.67941" lon="3.81396">
        <ele>106</ele>
        <time>2021-02-20T14:32:51Z</time>
      </trkpt>
      <trkpt lat="43.67941" lon="3.814">
        <ele>106</ele>
        <time>2021-02-20T14:32:52Z</time>
      </trkpt>
      <trkpt lat="43.67941" lon="3.81403">
        <ele>106</ele>
        <time>2021-02-20T14:32:53Z</time>
      </trkpt>
      <trkpt lat="43.67941" lon="3.81407">
        <ele>106</ele>
        <time>2021-02-20T14:32:54Z</time>
      </trkpt>
      <trkpt lat="43.67942" lon="3.8141">
        <ele>106</ele>
        <time>2021-02-20T14:32:55Z</time>
      </trkpt>
      <trkpt lat="43.67941" lon="3.81414">
        <ele>106</ele>
        <time>2021-02-20T14:32:56Z</time>
      </trkpt>
      <trkpt lat="43.67941" lon="3.81417">
        <ele>106</ele>
        <time>2021-02-20T14:32:57Z</time>
      </trkpt>
      <trkpt lat="43.67941" lon="3.8142">
        <ele>106</ele>
        <time>2021-02-20T14:32:58Z</time>
      </trkpt>
      <trkpt lat="43.6794" lon="3.81424">
        <ele>106</ele>
        <time>2021-02-20T14:32:59Z</time>
      </trkpt>
      <trkpt lat="43.6794" lon="3.81427">
        <ele>106</ele>
        <time>2021-02-20T14:33:00Z</time>
      </trkpt>
      <trkpt lat="43.6794" lon="3.81431">
        <ele>110</ele>
        <time>2021-02-20T14:33:01Z</time>
      </trkpt>
      <trkpt lat="43.6794" lon="3.81435">
        <ele>110</ele>
        <time>2021-02-20T14:33:02Z</time>
      </trkpt>
      <trkpt lat="43.6794" lon="3.81439">
        <ele>110</ele>
        <time>2021-02-20T14:33:03Z</time>
      </trkpt>
      <trkpt lat="43.6794" lon="3.81443">
        <ele>110</ele>
        <time>2021-02-20T14:33:04Z</time>
      </trkpt>
      <trkpt lat="43.67939" lon="3.81447">
        <ele>110</ele>
        <time>2021-02-20T14:33:05Z</time>
      </trkpt>
      <trkpt lat="43.67938" lon="3.81451">
        <ele>110</ele>
        <time>2021-02-20T14:33:06Z</time>
      </trkpt>
      <trkpt lat="43.67936" lon="3.81455">
        <ele>110</ele>
        <time>2021-02-20T14:33:07Z</time>
      </trkpt>
      <trkpt lat="43.67934" lon="3.8146">
        <ele>110</ele>
        <time>2021-02-20T14:33:08Z</time>
      </trkpt>
      <trkpt lat="43.67934" lon="3.81464">
        <ele>110</ele>
        <time>2021-02-20T14:33:09Z</time>
      </trkpt>
      <trkpt lat="43.67933" lon="3.81468">
        <ele>110</ele>
        <time>2021-02-20T14:33:10Z</time>
      </trkpt>
      <trkpt lat="43.67932" lon="3.81471">
        <ele>112</ele>
        <time>2021-02-20T14:33:11Z</time>
      </trkpt>
      <trkpt lat="43.67932" lon="3.81475">
        <ele>112</ele>
        <time>2021-02-20T14:33:12Z</time>
      </trkpt>
      <trkpt lat="43.67931" lon="3.81479">
        <ele>112</ele>
        <time>2021-02-20T14:33:13Z</time>
      </trkpt>
      <trkpt lat="43.6793" lon="3.81483">
        <ele>112</ele>
        <time>2021-02-20T14:33:14Z</time>
      </trkpt>
      <trkpt lat="43.67929" lon="3.81487">
        <ele>112</ele>
        <time>2021-02-20T14:33:15Z</time>
      </trkpt>
      <trkpt lat="43.67929" lon="3.8149">
        <ele>112</ele>
        <time>2021-02-20T14:33:16Z</time>
      </trkpt>
      <trkpt lat="43.67928" lon="3.81494">
        <ele>112</ele>
        <time>2021-02-20T14:33:17Z</time>
      </trkpt>
      <trkpt lat="43.67928" lon="3.81499">
        <ele>112</ele>
        <time>2021-02-20T14:33:18Z</time>
      </trkpt>
      <trkpt lat="43.67927" lon="3.81502">
        <ele>112</ele>
        <time>2021-02-20T14:33:19Z</time>
      </trkpt>
      <trkpt lat="43.67925" lon="3.81506">
        <ele>112</ele>
        <time>2021-02-20T14:33:20Z</time>
      </trkpt>
      <trkpt lat="43.67924" lon="3.8151">
        <ele>112</ele>
        <time>2021-02-20T14:33:21Z</time>
      </trkpt>
      <trkpt lat="43.67923" lon="3.81513">
        <ele>112</ele>
        <time>2021-02-20T14:33:22Z</time>
      </trkpt>
      <trkpt lat="43.67922" lon="3.81516">
        <ele>112</ele>
        <time>2021-02-20T14:33:23Z</time>
      </trkpt>
      <trkpt lat="43.67921" lon="3.81519">
        <ele>112</ele>
        <time>2021-02-20T14:33:24Z</time>
      </trkpt>
      <trkpt lat="43.6792" lon="3.81522">
        <ele>112</ele>
        <time>2021-02-20T14:33:25Z</time>
      </trkpt>
      <trkpt lat="43.67919" lon="3.81526">
        <ele>112</ele>
        <time>2021-02-20T14:33:27Z</time>
      </trkpt>
      <trkpt lat="43.67917" lon="3.81529">
        <ele>112</ele>
        <time>2021-02-20T14:33:28Z</time>
      </trkpt>
      <trkpt lat="43.67916" lon="3.81532">
        <ele>112</ele>
        <time>2021-02-20T14:33:29Z</time>
      </trkpt>
      <trkpt lat="43.67914" lon="3.81534">
        <ele>112</ele>
        <time>2021-02-20T14:33:30Z</time>
      </trkpt>
      <trkpt lat="43.67913" lon="3.81537">
        <ele>113</ele>
        <time>2021-02-20T14:33:31Z</time>
      </trkpt>
      <trkpt lat="43.67912" lon="3.8154">
        <ele>113</ele>
        <time>2021-02-20T14:33:32Z</time>
      </trkpt>
      <trkpt lat="43.67912" lon="3.81544">
        <ele>113</ele>
        <time>2021-02-20T14:33:33Z</time>
      </trkpt>
      <trkpt lat="43.67911" lon="3.81547">
        <ele>113</ele>
        <time>2021-02-20T14:33:34Z</time>
      </trkpt>
      <trkpt lat="43.67911" lon="3.8155">
        <ele>113</ele>
        <time>2021-02-20T14:33:35Z</time>
      </trkpt>
      <trkpt lat="43.67911" lon="3.81553">
        <ele>113</ele>
        <time>2021-02-20T14:33:36Z</time>
      </trkpt>
      <trkpt lat="43.67912" lon="3.81556">
        <ele>113</ele>
        <time>2021-02-20T14:33:37Z</time>
      </trkpt>
      <trkpt lat="43.67912" lon="3.81559">
        <ele>113</ele>
        <time>2021-02-20T14:33:38Z</time>
      </trkpt>
      <trkpt lat="43.67912" lon="3.81562">
        <ele>113</ele>
        <time>2021-02-20T14:33:39Z</time>
      </trkpt>
      <trkpt lat="43.67913" lon="3.81565">
        <ele>113</ele>
        <time>2021-02-20T14:33:40Z</time>
      </trkpt>
      <trkpt lat="43.67913" lon="3.81568">
        <ele>115</ele>
        <time>2021-02-20T14:33:41Z</time>
      </trkpt>
      <trkpt lat="43.67913" lon="3.81571">
        <ele>115</ele>
        <time>2021-02-20T14:33:42Z</time>
      </trkpt>
      <trkpt lat="43.67914" lon="3.81574">
        <ele>115</ele>
        <time>2021-02-20T14:33:43Z</time>
      </trkpt>
      <trkpt lat="43.67914" lon="3.81578">
        <ele>115</ele>
        <time>2021-02-20T14:33:44Z</time>
      </trkpt>
      <trkpt lat="43.67913" lon="3.81581">
        <ele>115</ele>
        <time>2021-02-20T14:33:45Z</time>
      </trkpt>
      <trkpt lat="43.67913" lon="3.81584">
        <ele>115</ele>
        <time>2021-02-20T14:33:46Z</time>
      </trkpt>
      <trkpt lat="43.67913" lon="3.81587">
        <ele>115</ele>
        <time>2021-02-20T14:33:47Z</time>
      </trkpt>
      <trkpt lat="43.67913" lon="3.81591">
        <ele>115</ele>
        <time>2021-02-20T14:33:48Z</time>
      </trkpt>
      <trkpt lat="43.67913" lon="3.81594">
        <ele>115</ele>
        <time>2021-02-20T14:33:49Z</time>
      </trkpt>
      <trkpt lat="43.67913" lon="3.81597">
        <ele>115</ele>
        <time>2021-02-20T14:33:50Z</time>
      </trkpt>
      <trkpt lat="43.67912" lon="3.816">
        <ele>116</ele>
        <time>2021-02-20T14:33:51Z</time>
      </trkpt>
      <trkpt lat="43.67911" lon="3.81604">
        <ele>116</ele>
        <time>2021-02-20T14:33:52Z</time>
      </trkpt>
      <trkpt lat="43.6791" lon="3.81608">
        <ele>116</ele>
        <time>2021-02-20T14:33:53Z</time>
      </trkpt>
      <trkpt lat="43.67908" lon="3.81613">
        <ele>116</ele>
        <time>2021-02-20T14:33:54Z</time>
      </trkpt>
      <trkpt lat="43.67907" lon="3.81616">
        <ele>116</ele>
        <time>2021-02-20T14:33:55Z</time>
      </trkpt>
      <trkpt lat="43.67905" lon="3.81619">
        <ele>116</ele>
        <time>2021-02-20T14:33:56Z</time>
      </trkpt>
      <trkpt lat="43.67902" lon="3.8162">
        <ele>116</ele>
        <time>2021-02-20T14:33:57Z</time>
      </trkpt>
      <trkpt lat="43.67899" lon="3.8162">
        <ele>116</ele>
        <time>2021-02-20T14:33:58Z</time>
      </trkpt>
      <trkpt lat="43.67896" lon="3.81621">
        <ele>116</ele>
        <time>2021-02-20T14:33:59Z</time>
      </trkpt>
      <trkpt lat="43.67893" lon="3.81621">
        <ele>116</ele>
        <time>2021-02-20T14:34:00Z</time>
      </trkpt>
      <trkpt lat="43.6789" lon="3.81621">
        <ele>117</ele>
        <time>2021-02-20T14:34:01Z</time>
      </trkpt>
      <trkpt lat="43.67887" lon="3.81621">
        <ele>117</ele>
        <time>2021-02-20T14:34:02Z</time>
      </trkpt>
      <trkpt lat="43.67885" lon="3.8162">
        <ele>117</ele>
        <time>2021-02-20T14:34:03Z</time>
      </trkpt>
      <trkpt lat="43.67882" lon="3.8162">
        <ele>117</ele>
        <time>2021-02-20T14:34:04Z</time>
      </trkpt>
      <trkpt lat="43.67879" lon="3.81619">
        <ele>117</ele>
        <time>2021-02-20T14:34:05Z</time>
      </trkpt>
      <trkpt lat="43.67876" lon="3.81619">
        <ele>117</ele>
        <time>2021-02-20T14:34:06Z</time>
      </trkpt>
      <trkpt lat="43.67873" lon="3.81619">
        <ele>117</ele>
        <time>2021-02-20T14:34:07Z</time>
      </trkpt>
      <trkpt lat="43.6787" lon="3.81619">
        <ele>117</ele>
        <time>2021-02-20T14:34:08Z</time>
      </trkpt>
      <trkpt lat="43.67866" lon="3.8162">
        <ele>117</ele>
        <time>2021-02-20T14:34:09Z</time>
      </trkpt>
      <trkpt lat="43.67863" lon="3.81622">
        <ele>117</ele>
        <time>2021-02-20T14:34:10Z</time>
      </trkpt>
      <trkpt lat="43.67859" lon="3.81625">
        <ele>117</ele>
        <time>2021-02-20T14:34:11Z</time>
      </trkpt>
      <trkpt lat="43.67855" lon="3.81627">
        <ele>117</ele>
        <time>2021-02-20T14:34:12Z</time>
      </trkpt>
      <trkpt lat="43.67852" lon="3.8163">
        <ele>117</ele>
        <time>2021-02-20T14:34:13Z</time>
      </trkpt>
      <trkpt lat="43.67848" lon="3.81633">
        <ele>117</ele>
        <time>2021-02-20T14:34:14Z</time>
      </trkpt>
      <trkpt lat="43.67844" lon="3.81636">
        <ele>117</ele>
        <time>2021-02-20T14:34:15Z</time>
      </trkpt>
      <trkpt lat="43.67841" lon="3.81638">
        <ele>117</ele>
        <time>2021-02-20T14:34:16Z</time>
      </trkpt>
      <trkpt lat="43.67837" lon="3.81641">
        <ele>117</ele>
        <time>2021-02-20T14:34:17Z</time>
      </trkpt>
      <trkpt lat="43.67834" lon="3.81645">
        <ele>117</ele>
        <time>2021-02-20T14:34:18Z</time>
      </trkpt>
      <trkpt lat="43.6783" lon="3.81648">
        <ele>117</ele>
        <time>2021-02-20T14:34:19Z</time>
      </trkpt>
      <trkpt lat="43.67826" lon="3.81651">
        <ele>117</ele>
        <time>2021-02-20T14:34:20Z</time>
      </trkpt>
      <trkpt lat="43.67822" lon="3.81654">
        <ele>117</ele>
        <time>2021-02-20T14:34:21Z</time>
      </trkpt>
      <trkpt lat="43.67818" lon="3.81657">
        <ele>117</ele>
        <time>2021-02-20T14:34:22Z</time>
      </trkpt>
      <trkpt lat="43.67814" lon="3.8166">
        <ele>117</ele>
        <time>2021-02-20T14:34:23Z</time>
      </trkpt>
      <trkpt lat="43.6781" lon="3.81663">
        <ele>117</ele>
        <time>2021-02-20T14:34:24Z</time>
      </trkpt>
      <trkpt lat="43.67806" lon="3.81666">
        <ele>117</ele>
        <time>2021-02-20T14:34:25Z</time>
      </trkpt>
      <trkpt lat="43.67801" lon="3.81669">
        <ele>117</ele>
        <time>2021-02-20T14:34:26Z</time>
      </trkpt>
      <trkpt lat="43.67792" lon="3.81675">
        <ele>117</ele>
        <time>2021-02-20T14:34:28Z</time>
      </trkpt>
      <trkpt lat="43.67787" lon="3.81678">
        <ele>117</ele>
        <time>2021-02-20T14:34:29Z</time>
      </trkpt>
      <trkpt lat="43.67783" lon="3.81682">
        <ele>117</ele>
        <time>2021-02-20T14:34:30Z</time>
      </trkpt>
      <trkpt lat="43.67778" lon="3.81684">
        <ele>116</ele>
        <time>2021-02-20T14:34:31Z</time>
      </trkpt>
      <trkpt lat="43.67773" lon="3.81688">
        <ele>116</ele>
        <time>2021-02-20T14:34:32Z</time>
      </trkpt>
      <trkpt lat="43.67769" lon="3.81691">
        <ele>116</ele>
        <time>2021-02-20T14:34:33Z</time>
      </trkpt>
      <trkpt lat="43.67765" lon="3.81694">
        <ele>116</ele>
        <time>2021-02-20T14:34:34Z</time>
      </trkpt>
      <trkpt lat="43.6776" lon="3.81697">
        <ele>116</ele>
        <time>2021-02-20T14:34:35Z</time>
      </trkpt>
      <trkpt lat="43.67752" lon="3.81703">
        <ele>116</ele>
        <time>2021-02-20T14:34:37Z</time>
      </trkpt>
      <trkpt lat="43.67748" lon="3.81706">
        <ele>116</ele>
        <time>2021-02-20T14:34:38Z</time>
      </trkpt>
      <trkpt lat="43.67745" lon="3.81708">
        <ele>116</ele>
        <time>2021-02-20T14:34:39Z</time>
      </trkpt>
      <trkpt lat="43.67741" lon="3.81711">
        <ele>116</ele>
        <time>2021-02-20T14:34:40Z</time>
      </trkpt>
      <trkpt lat="43.67737" lon="3.81713">
        <ele>116</ele>
        <time>2021-02-20T14:34:41Z</time>
      </trkpt>
      <trkpt lat="43.67734" lon="3.81716">
        <ele>116</ele>
        <time>2021-02-20T14:34:42Z</time>
      </trkpt>
      <trkpt lat="43.6773" lon="3.81718">
        <ele>116</ele>
        <time>2021-02-20T14:34:43Z</time>
      </trkpt>
      <trkpt lat="43.67726" lon="3.8172">
        <ele>116</ele>
        <time>2021-02-20T14:34:44Z</time>
      </trkpt>
      <trkpt lat="43.67723" lon="3.81723">
        <ele>116</ele>
        <time>2021-02-20T14:34:45Z</time>
      </trkpt>
      <trkpt lat="43.67719" lon="3.81725">
        <ele>116</ele>
        <time>2021-02-20T14:34:46Z</time>
      </trkpt>
      <trkpt lat="43.67716" lon="3.81727">
        <ele>116</ele>
        <time>2021-02-20T14:34:47Z</time>
      </trkpt>
      <trkpt lat="43.67712" lon="3.8173">
        <ele>116</ele>
        <time>2021-02-20T14:34:48Z</time>
      </trkpt>
      <trkpt lat="43.67708" lon="3.81732">
        <ele>116</ele>
        <time>2021-02-20T14:34:49Z</time>
      </trkpt>
      <trkpt lat="43.67705" lon="3.81735">
        <ele>116</ele>
        <time>2021-02-20T14:34:50Z</time>
      </trkpt>
      <trkpt lat="43.67701" lon="3.81737">
        <ele>115</ele>
        <time>2021-02-20T14:34:51Z</time>
      </trkpt>
      <trkpt lat="43.67697" lon="3.8174">
        <ele>115</ele>
        <time>2021-02-20T14:34:52Z</time>
      </trkpt>
      <trkpt lat="43.67693" lon="3.81742">
        <ele>115</ele>
        <time>2021-02-20T14:34:53Z</time>
      </trkpt>
      <trkpt lat="43.6769" lon="3.81745">
        <ele>115</ele>
        <time>2021-02-20T14:34:54Z</time>
      </trkpt>
      <trkpt lat="43.67686" lon="3.81747">
        <ele>115</ele>
        <time>2021-02-20T14:34:55Z</time>
      </trkpt>
      <trkpt lat="43.67682" lon="3.8175">
        <ele>115</ele>
        <time>2021-02-20T14:34:56Z</time>
      </trkpt>
      <trkpt lat="43.67679" lon="3.81752">
        <ele>115</ele>
        <time>2021-02-20T14:34:57Z</time>
      </trkpt>
      <trkpt lat="43.67675" lon="3.81755">
        <ele>115</ele>
        <time>2021-02-20T14:34:58Z</time>
      </trkpt>
      <trkpt lat="43.67672" lon="3.81758">
        <ele>115</ele>
        <time>2021-02-20T14:34:59Z</time>
      </trkpt>
      <trkpt lat="43.67668" lon="3.8176">
        <ele>115</ele>
        <time>2021-02-20T14:35:00Z</time>
      </trkpt>
      <trkpt lat="43.67665" lon="3.81763">
        <ele>116</ele>
        <time>2021-02-20T14:35:01Z</time>
      </trkpt>
      <trkpt lat="43.67662" lon="3.81766">
        <ele>116</ele>
        <time>2021-02-20T14:35:02Z</time>
      </trkpt>
      <trkpt lat="43.67659" lon="3.81768">
        <ele>116</ele>
        <time>2021-02-20T14:35:03Z</time>
      </trkpt>
      <trkpt lat="43.67656" lon="3.81771">
        <ele>116</ele>
        <time>2021-02-20T14:35:04Z</time>
      </trkpt>
      <trkpt lat="43.67653" lon="3.81773">
        <ele>116</ele>
        <time>2021-02-20T14:35:05Z</time>
      </trkpt>
      <trkpt lat="43.6765" lon="3.81776">
        <ele>116</ele>
        <time>2021-02-20T14:35:06Z</time>
      </trkpt>
      <trkpt lat="43.67647" lon="3.81778">
        <ele>116</ele>
        <time>2021-02-20T14:35:07Z</time>
      </trkpt>
      <trkpt lat="43.67644" lon="3.8178">
        <ele>116</ele>
        <time>2021-02-20T14:35:08Z</time>
      </trkpt>
      <trkpt lat="43.67641" lon="3.81782">
        <ele>116</ele>
        <time>2021-02-20T14:35:09Z</time>
      </trkpt>
      <trkpt lat="43.6764" lon="3.81783">
        <ele>116</ele>
        <time>2021-02-20T14:35:10Z</time>
      </trkpt>
      <trkpt lat="43.67637" lon="3.81783">
        <ele>116</ele>
        <time>2021-02-20T14:35:12Z</time>
      </trkpt>
      <trkpt lat="43.67635" lon="3.81782">
        <ele>116</ele>
        <time>2021-02-20T14:35:13Z</time>
      </trkpt>
      <trkpt lat="43.67632" lon="3.8178">
        <ele>116</ele>
        <time>2021-02-20T14:35:14Z</time>
      </trkpt>
      <trkpt lat="43.6763" lon="3.81777">
        <ele>116</ele>
        <time>2021-02-20T14:35:15Z</time>
      </trkpt>
      <trkpt lat="43.67629" lon="3.81772">
        <ele>116</ele>
        <time>2021-02-20T14:35:16Z</time>
      </trkpt>
      <trkpt lat="43.67628" lon="3.81767">
        <ele>116</ele>
        <time>2021-02-20T14:35:17Z</time>
      </trkpt>
      <trkpt lat="43.67626" lon="3.81763">
        <ele>116</ele>
        <time>2021-02-20T14:35:18Z</time>
      </trkpt>
      <trkpt lat="43.67624" lon="3.81759">
        <ele>116</ele>
        <time>2021-02-20T14:35:19Z</time>
      </trkpt>
      <trkpt lat="43.67621" lon="3.81757">
        <ele>116</ele>
        <time>2021-02-20T14:35:20Z</time>
      </trkpt>
      <trkpt lat="43.67618" lon="3.81755">
        <ele>115</ele>
        <time>2021-02-20T14:35:21Z</time>
      </trkpt>
      <trkpt lat="43.67615" lon="3.81753">
        <ele>115</ele>
        <time>2021-02-20T14:35:22Z</time>
      </trkpt>
      <trkpt lat="43.67611" lon="3.81752">
        <ele>115</ele>
        <time>2021-02-20T14:35:23Z</time>
      </trkpt>
      <trkpt lat="43.67608" lon="3.8175">
        <ele>115</ele>
        <time>2021-02-20T14:35:24Z</time>
      </trkpt>
      <trkpt lat="43.67605" lon="3.81748">
        <ele>115</ele>
        <time>2021-02-20T14:35:25Z</time>
      </trkpt>
      <trkpt lat="43.67603" lon="3.81747">
        <ele>115</ele>
        <time>2021-02-20T14:35:26Z</time>
      </trkpt>
      <trkpt lat="43.676" lon="3.81747">
        <ele>115</ele>
        <time>2021-02-20T14:35:27Z</time>
      </trkpt>
      <trkpt lat="43.67597" lon="3.81747">
        <ele>115</ele>
        <time>2021-02-20T14:35:28Z</time>
      </trkpt>
      <trkpt lat="43.67594" lon="3.81749">
        <ele>115</ele>
        <time>2021-02-20T14:35:29Z</time>
      </trkpt>
      <trkpt lat="43.67591" lon="3.81752">
        <ele>115</ele>
        <time>2021-02-20T14:35:30Z</time>
      </trkpt>
      <trkpt lat="43.67589" lon="3.81754">
        <ele>115</ele>
        <time>2021-02-20T14:35:31Z</time>
      </trkpt>
      <trkpt lat="43.67588" lon="3.81756">
        <ele>115</ele>
        <time>2021-02-20T14:35:32Z</time>
      </trkpt>
      <trkpt lat="43.67587" lon="3.81759">
        <ele>115</ele>
        <time>2021-02-20T14:35:33Z</time>
      </trkpt>
      <trkpt lat="43.67586" lon="3.81763">
        <ele>115</ele>
        <time>2021-02-20T14:35:34Z</time>
      </trkpt>
      <trkpt lat="43.67585" lon="3.81766">
        <ele>115</ele>
        <time>2021-02-20T14:35:35Z</time>
      </trkpt>
      <trkpt lat="43.67584" lon="3.81769">
        <ele>115</ele>
        <time>2021-02-20T14:35:36Z</time>
      </trkpt>
      <trkpt lat="43.67583" lon="3.81771">
        <ele>115</ele>
        <time>2021-02-20T14:35:37Z</time>
      </trkpt>
      <trkpt lat="43.67581" lon="3.81775">
        <ele>115</ele>
        <time>2021-02-20T14:35:39Z</time>
      </trkpt>
      <trkpt lat="43.67581" lon="3.81779">
        <ele>114</ele>
        <time>2021-02-20T14:35:41Z</time>
      </trkpt>
      <trkpt lat="43.67579" lon="3.81782">
        <ele>114</ele>
        <time>2021-02-20T14:35:43Z</time>
      </trkpt>
      <trkpt lat="43.67577" lon="3.81785">
        <ele>114</ele>
        <time>2021-02-20T14:35:45Z</time>
      </trkpt>
      <trkpt lat="43.67576" lon="3.81787">
        <ele>114</ele>
        <time>2021-02-20T14:35:47Z</time>
      </trkpt>
      <trkpt lat="43.67578" lon="3.81787">
        <ele>114</ele>
        <time>2021-02-20T14:35:49Z</time>
      </trkpt>
      <trkpt lat="43.67579" lon="3.81785">
        <ele>114</ele>
        <time>2021-02-20T14:35:50Z</time>
      </trkpt>
      <trkpt lat="43.6758" lon="3.81782">
        <ele>114</ele>
        <time>2021-02-20T14:35:51Z</time>
      </trkpt>
      <trkpt lat="43.67582" lon="3.81778">
        <ele>114</ele>
        <time>2021-02-20T14:35:52Z</time>
      </trkpt>
      <trkpt lat="43.67583" lon="3.81775">
        <ele>114</ele>
        <time>2021-02-20T14:35:53Z</time>
      </trkpt>
      <trkpt lat="43.67584" lon="3.81772">
        <ele>114</ele>
        <time>2021-02-20T14:35:54Z</time>
      </trkpt>
      <trkpt lat="43.67585" lon="3.81768">
        <ele>114</ele>
        <time>2021-02-20T14:35:55Z</time>
      </trkpt>
      <trkpt lat="43.67586" lon="3.81764">
        <ele>114</ele>
        <time>2021-02-20T14:35:56Z</time>
      </trkpt>
      <trkpt lat="43.67587" lon="3.81759">
        <ele>114</ele>
        <time>2021-02-20T14:35:57Z</time>
      </trkpt>
      <trkpt lat="43.67588" lon="3.81755">
        <ele>114</ele>
        <time>2021-02-20T14:35:58Z</time>
      </trkpt>
      <trkpt lat="43.67588" lon="3.8175">
        <ele>114</ele>
        <time>2021-02-20T14:35:59Z</time>
      </trkpt>
      <trkpt lat="43.67588" lon="3.81745">
        <ele>114</ele>
        <time>2021-02-20T14:36:00Z</time>
      </trkpt>
      <trkpt lat="43.67587" lon="3.81741">
        <ele>114</ele>
        <time>2021-02-20T14:36:01Z</time>
      </trkpt>
      <trkpt lat="43.67586" lon="3.81736">
        <ele>114</ele>
        <time>2021-02-20T14:36:02Z</time>
      </trkpt>
      <trkpt lat="43.67584" lon="3.81733">
        <ele>114</ele>
        <time>2021-02-20T14:36:03Z</time>
      </trkpt>
      <trkpt lat="43.67582" lon="3.81729">
        <ele>114</ele>
        <time>2021-02-20T14:36:04Z</time>
      </trkpt>
      <trkpt lat="43.67579" lon="3.81727">
        <ele>114</ele>
        <time>2021-02-20T14:36:05Z</time>
      </trkpt>
      <trkpt lat="43.67576" lon="3.81726">
        <ele>114</ele>
        <time>2021-02-20T14:36:06Z</time>
      </trkpt>
      <trkpt lat="43.67573" lon="3.81724">
        <ele>114</ele>
        <time>2021-02-20T14:36:07Z</time>
      </trkpt>
      <trkpt lat="43.6757" lon="3.81723">
        <ele>114</ele>
        <time>2021-02-20T14:36:08Z</time>
      </trkpt>
      <trkpt lat="43.67567" lon="3.81721">
        <ele>114</ele>
        <time>2021-02-20T14:36:09Z</time>
      </trkpt>
      <trkpt lat="43.67563" lon="3.81719">
        <ele>114</ele>
        <time>2021-02-20T14:36:10Z</time>
      </trkpt>
      <trkpt lat="43.6756" lon="3.81718">
        <ele>115</ele>
        <time>2021-02-20T14:36:11Z</time>
      </trkpt>
      <trkpt lat="43.67557" lon="3.81716">
        <ele>115</ele>
        <time>2021-02-20T14:36:12Z</time>
      </trkpt>
      <trkpt lat="43.67554" lon="3.81715">
        <ele>115</ele>
        <time>2021-02-20T14:36:13Z</time>
      </trkpt>
      <trkpt lat="43.67551" lon="3.81713">
        <ele>115</ele>
        <time>2021-02-20T14:36:14Z</time>
      </trkpt>
      <trkpt lat="43.67548" lon="3.81712">
        <ele>115</ele>
        <time>2021-02-20T14:36:15Z</time>
      </trkpt>
      <trkpt lat="43.67545" lon="3.8171">
        <ele>115</ele>
        <time>2021-02-20T14:36:16Z</time>
      </trkpt>
      <trkpt lat="43.67542" lon="3.81709">
        <ele>115</ele>
        <time>2021-02-20T14:36:17Z</time>
      </trkpt>
      <trkpt lat="43.67539" lon="3.81708">
        <ele>115</ele>
        <time>2021-02-20T14:36:18Z</time>
      </trkpt>
      <trkpt lat="43.67536" lon="3.81706">
        <ele>115</ele>
        <time>2021-02-20T14:36:19Z</time>
      </trkpt>
      <trkpt lat="43.67533" lon="3.81705">
        <ele>115</ele>
        <time>2021-02-20T14:36:20Z</time>
      </trkpt>
      <trkpt lat="43.6753" lon="3.81704">
        <ele>115</ele>
        <time>2021-02-20T14:36:21Z</time>
      </trkpt>
      <trkpt lat="43.67527" lon="3.81703">
        <ele>115</ele>
        <time>2021-02-20T14:36:22Z</time>
      </trkpt>
      <trkpt lat="43.67523" lon="3.81703">
        <ele>115</ele>
        <time>2021-02-20T14:36:23Z</time>
      </trkpt>
      <trkpt lat="43.67519" lon="3.81703">
        <ele>115</ele>
        <time>2021-02-20T14:36:24Z</time>
      </trkpt>
      <trkpt lat="43.67516" lon="3.81703">
        <ele>115</ele>
        <time>2021-02-20T14:36:25Z</time>
      </trkpt>
      <trkpt lat="43.67512" lon="3.81704">
        <ele>115</ele>
        <time>2021-02-20T14:36:26Z</time>
      </trkpt>
      <trkpt lat="43.67507" lon="3.81704">
        <ele>115</ele>
        <time>2021-02-20T14:36:27Z</time>
      </trkpt>
      <trkpt lat="43.67502" lon="3.81704">
        <ele>115</ele>
        <time>2021-02-20T14:36:28Z</time>
      </trkpt>
      <trkpt lat="43.67497" lon="3.81704">
        <ele>115</ele>
        <time>2021-02-20T14:36:29Z</time>
      </trkpt>
      <trkpt lat="43.67492" lon="3.81704">
        <ele>115</ele>
        <time>2021-02-20T14:36:30Z</time>
      </trkpt>
      <trkpt lat="43.67486" lon="3.81704">
        <ele>116</ele>
        <time>2021-02-20T14:36:31Z</time>
      </trkpt>
      <trkpt lat="43.67481" lon="3.81704">
        <ele>116</ele>
        <time>2021-02-20T14:36:32Z</time>
      </trkpt>
      <trkpt lat="43.67474" lon="3.81704">
        <ele>116</ele>
        <time>2021-02-20T14:36:33Z</time>
      </trkpt>
      <trkpt lat="43.67468" lon="3.81705">
        <ele>116</ele>
        <time>2021-02-20T14:36:34Z</time>
      </trkpt>
      <trkpt lat="43.67462" lon="3.81706">
        <ele>116</ele>
        <time>2021-02-20T14:36:35Z</time>
      </trkpt>
      <trkpt lat="43.67456" lon="3.81708">
        <ele>116</ele>
        <time>2021-02-20T14:36:36Z</time>
      </trkpt>
      <trkpt lat="43.67449" lon="3.81709">
        <ele>116</ele>
        <time>2021-02-20T14:36:37Z</time>
      </trkpt>
      <trkpt lat="43.67443" lon="3.81711">
        <ele>116</ele>
        <time>2021-02-20T14:36:38Z</time>
      </trkpt>
      <trkpt lat="43.67436" lon="3.81712">
        <ele>116</ele>
        <time>2021-02-20T14:36:39Z</time>
      </trkpt>
      <trkpt lat="43.6743" lon="3.81714">
        <ele>116</ele>
        <time>2021-02-20T14:36:40Z</time>
      </trkpt>
      <trkpt lat="43.67424" lon="3.81715">
        <ele>114</ele>
        <time>2021-02-20T14:36:41Z</time>
      </trkpt>
      <trkpt lat="43.67417" lon="3.81717">
        <ele>114</ele>
        <time>2021-02-20T14:36:42Z</time>
      </trkpt>
      <trkpt lat="43.67411" lon="3.81719">
        <ele>114</ele>
        <time>2021-02-20T14:36:43Z</time>
      </trkpt>
      <trkpt lat="43.67405" lon="3.81722">
        <ele>114</ele>
        <time>2021-02-20T14:36:44Z</time>
      </trkpt>
      <trkpt lat="43.67399" lon="3.81724">
        <ele>114</ele>
        <time>2021-02-20T14:36:45Z</time>
      </trkpt>
      <trkpt lat="43.67394" lon="3.81727">
        <ele>114</ele>
        <time>2021-02-20T14:36:46Z</time>
      </trkpt>
      <trkpt lat="43.67389" lon="3.81729">
        <ele>114</ele>
        <time>2021-02-20T14:36:47Z</time>
      </trkpt>
      <trkpt lat="43.67385" lon="3.81731">
        <ele>114</ele>
        <time>2021-02-20T14:36:48Z</time>
      </trkpt>
      <trkpt lat="43.67382" lon="3.81733">
        <ele>114</ele>
        <time>2021-02-20T14:36:49Z</time>
      </trkpt>
      <trkpt lat="43.67378" lon="3.81734">
        <ele>114</ele>
        <time>2021-02-20T14:36:50Z</time>
      </trkpt>
      <trkpt lat="43.67375" lon="3.81736">
        <ele>113</ele>
        <time>2021-02-20T14:36:51Z</time>
      </trkpt>
      <trkpt lat="43.67371" lon="3.81737">
        <ele>113</ele>
        <time>2021-02-20T14:36:52Z</time>
      </trkpt>
      <trkpt lat="43.67367" lon="3.81738">
        <ele>113</ele>
        <time>2021-02-20T14:36:53Z</time>
      </trkpt>
      <trkpt lat="43.67363" lon="3.81739">
        <ele>113</ele>
        <time>2021-02-20T14:36:54Z</time>
      </trkpt>
      <trkpt lat="43.67359" lon="3.8174">
        <ele>113</ele>
        <time>2021-02-20T14:36:55Z</time>
      </trkpt>
      <trkpt lat="43.67356" lon="3.81742">
        <ele>113</ele>
        <time>2021-02-20T14:36:56Z</time>
      </trkpt>
      <trkpt lat="43.67352" lon="3.81745">
        <ele>113</ele>
        <time>2021-02-20T14:36:57Z</time>
      </trkpt>
      <trkpt lat="43.67349" lon="3.81749">
        <ele>113</ele>
        <time>2021-02-20T14:36:58Z</time>
      </trkpt>
      <trkpt lat="43.67346" lon="3.81752">
        <ele>113</ele>
        <time>2021-02-20T14:36:59Z</time>
      </trkpt>
      <trkpt lat="43.67343" lon="3.81755">
        <ele>113</ele>
        <time>2021-02-20T14:37:00Z</time>
      </trkpt>
      <trkpt lat="43.6734" lon="3.81758">
        <ele>113</ele>
        <time>2021-02-20T14:37:01Z</time>
      </trkpt>
      <trkpt lat="43.67338" lon="3.81762">
        <ele>113</ele>
        <time>2021-02-20T14:37:02Z</time>
      </trkpt>
      <trkpt lat="43.67335" lon="3.81765">
        <ele>113</ele>
        <time>2021-02-20T14:37:03Z</time>
      </trkpt>
      <trkpt lat="43.67333" lon="3.81769">
        <ele>113</ele>
        <time>2021-02-20T14:37:04Z</time>
      </trkpt>
      <trkpt lat="43.67331" lon="3.81772">
        <ele>113</ele>
        <time>2021-02-20T14:37:05Z</time>
      </trkpt>
      <trkpt lat="43.67329" lon="3.81776">
        <ele>113</ele>
        <time>2021-02-20T14:37:06Z</time>
      </trkpt>
      <trkpt lat="43.67327" lon="3.81779">
        <ele>113</ele>
        <time>2021-02-20T14:37:07Z</time>
      </trkpt>
      <trkpt lat="43.67325" lon="3.81782">
        <ele>113</ele>
        <time>2021-02-20T14:37:08Z</time>
      </trkpt>
      <trkpt lat="43.67323" lon="3.81786">
        <ele>113</ele>
        <time>2021-02-20T14:37:09Z</time>
      </trkpt>
      <trkpt lat="43.67321" lon="3.81789">
        <ele>113</ele>
        <time>2021-02-20T14:37:10Z</time>
      </trkpt>
      <trkpt lat="43.6732" lon="3.81792">
        <ele>115</ele>
        <time>2021-02-20T14:37:11Z</time>
      </trkpt>
      <trkpt lat="43.67318" lon="3.81795">
        <ele>115</ele>
        <time>2021-02-20T14:37:12Z</time>
      </trkpt>
      <trkpt lat="43.67317" lon="3.81798">
        <ele>115</ele>
        <time>2021-02-20T14:37:13Z</time>
      </trkpt>
      <trkpt lat="43.67315" lon="3.81801">
        <ele>115</ele>
        <time>2021-02-20T14:37:14Z</time>
      </trkpt>
      <trkpt lat="43.67314" lon="3.81805">
        <ele>115</ele>
        <time>2021-02-20T14:37:15Z</time>
      </trkpt>
      <trkpt lat="43.67313" lon="3.81808">
        <ele>115</ele>
        <time>2021-02-20T14:37:16Z</time>
      </trkpt>
      <trkpt lat="43.67312" lon="3.81811">
        <ele>115</ele>
        <time>2021-02-20T14:37:17Z</time>
      </trkpt>
      <trkpt lat="43.6731" lon="3.81814">
        <ele>115</ele>
        <time>2021-02-20T14:37:18Z</time>
      </trkpt>
      <trkpt lat="43.67309" lon="3.81817">
        <ele>115</ele>
        <time>2021-02-20T14:37:19Z</time>
      </trkpt>
      <trkpt lat="43.67308" lon="3.8182">
        <ele>115</ele>
        <time>2021-02-20T14:37:20Z</time>
      </trkpt>
      <trkpt lat="43.67307" lon="3.81822">
        <ele>116</ele>
        <time>2021-02-20T14:37:21Z</time>
      </trkpt>
      <trkpt lat="43.67306" lon="3.81825">
        <ele>116</ele>
        <time>2021-02-20T14:37:22Z</time>
      </trkpt>
      <trkpt lat="43.67305" lon="3.81828">
        <ele>116</ele>
        <time>2021-02-20T14:37:23Z</time>
      </trkpt>
      <trkpt lat="43.67304" lon="3.8183">
        <ele>116</ele>
        <time>2021-02-20T14:37:24Z</time>
      </trkpt>
      <trkpt lat="43.67303" lon="3.81833">
        <ele>116</ele>
        <time>2021-02-20T14:37:25Z</time>
      </trkpt>
      <trkpt lat="43.67302" lon="3.81835">
        <ele>116</ele>
        <time>2021-02-20T14:37:26Z</time>
      </trkpt>
      <trkpt lat="43.67301" lon="3.81838">
        <ele>116</ele>
        <time>2021-02-20T14:37:27Z</time>
      </trkpt>
      <trkpt lat="43.673" lon="3.8184">
        <ele>116</ele>
        <time>2021-02-20T14:37:28Z</time>
      </trkpt>
      <trkpt lat="43.67299" lon="3.81842">
        <ele>116</ele>
        <time>2021-02-20T14:37:29Z</time>
      </trkpt>
      <trkpt lat="43.67298" lon="3.81845">
        <ele>116</ele>
        <time>2021-02-20T14:37:30Z</time>
      </trkpt>
      <trkpt lat="43.67297" lon="3.81847">
        <ele>118</ele>
        <time>2021-02-20T14:37:31Z</time>
      </trkpt>
      <trkpt lat="43.67296" lon="3.81849">
        <ele>118</ele>
        <time>2021-02-20T14:37:32Z</time>
      </trkpt>
      <trkpt lat="43.67295" lon="3.81851">
        <ele>118</ele>
        <time>2021-02-20T14:37:33Z</time>
      </trkpt>
      <trkpt lat="43.67294" lon="3.81854">
        <ele>118</ele>
        <time>2021-02-20T14:37:34Z</time>
      </trkpt>
      <trkpt lat="43.67294" lon="3.81856">
        <ele>118</ele>
        <time>2021-02-20T14:37:35Z</time>
      </trkpt>
      <trkpt lat="43.67293" lon="3.81858">
        <ele>118</ele>
        <time>2021-02-20T14:37:36Z</time>
      </trkpt>
      <trkpt lat="43.67291" lon="3.81862">
        <ele>118</ele>
        <time>2021-02-20T14:37:38Z</time>
      </trkpt>
      <trkpt lat="43.67289" lon="3.81866">
        <ele>118</ele>
        <time>2021-02-20T14:37:40Z</time>
      </trkpt>
      <trkpt lat="43.67288" lon="3.8187">
        <ele>118</ele>
        <time>2021-02-20T14:37:42Z</time>
      </trkpt>
      <trkpt lat="43.67286" lon="3.81874">
        <ele>118</ele>
        <time>2021-02-20T14:37:44Z</time>
      </trkpt>
      <trkpt lat="43.67284" lon="3.81879">
        <ele>118</ele>
        <time>2021-02-20T14:37:46Z</time>
      </trkpt>
      <trkpt lat="43.67282" lon="3.81883">
        <ele>118</ele>
        <time>2021-02-20T14:37:48Z</time>
      </trkpt>
      <trkpt lat="43.6728" lon="3.81886">
        <ele>118</ele>
        <time>2021-02-20T14:37:50Z</time>
      </trkpt>
      <trkpt lat="43.67278" lon="3.8189">
        <ele>118</ele>
        <time>2021-02-20T14:37:52Z</time>
      </trkpt>
      <trkpt lat="43.67276" lon="3.81894">
        <ele>118</ele>
        <time>2021-02-20T14:37:54Z</time>
      </trkpt>
      <trkpt lat="43.67274" lon="3.81898">
        <ele>118</ele>
        <time>2021-02-20T14:37:56Z</time>
      </trkpt>
      <trkpt lat="43.67273" lon="3.819">
        <ele>118</ele>
        <time>2021-02-20T14:37:57Z</time>
      </trkpt>
      <trkpt lat="43.67271" lon="3.81904">
        <ele>118</ele>
        <time>2021-02-20T14:37:59Z</time>
      </trkpt>
      <trkpt lat="43.6727" lon="3.81906">
        <ele>118</ele>
        <time>2021-02-20T14:38:00Z</time>
      </trkpt>
      <trkpt lat="43.67269" lon="3.81908">
        <ele>123</ele>
        <time>2021-02-20T14:38:01Z</time>
      </trkpt>
      <trkpt lat="43.67267" lon="3.81912">
        <ele>123</ele>
        <time>2021-02-20T14:38:03Z</time>
      </trkpt>
      <trkpt lat="43.67265" lon="3.81916">
        <ele>123</ele>
        <time>2021-02-20T14:38:05Z</time>
      </trkpt>
      <trkpt lat="43.67264" lon="3.81918">
        <ele>123</ele>
        <time>2021-02-20T14:38:06Z</time>
      </trkpt>
      <trkpt lat="43.67262" lon="3.81923">
        <ele>123</ele>
        <time>2021-02-20T14:38:08Z</time>
      </trkpt>
      <trkpt lat="43.6726" lon="3.81925">
        <ele>123</ele>
        <time>2021-02-20T14:38:09Z</time>
      </trkpt>
      <trkpt lat="43.67259" lon="3.81927">
        <ele>123</ele>
        <time>2021-02-20T14:38:10Z</time>
      </trkpt>
      <trkpt lat="43.67258" lon="3.81929">
        <ele>124</ele>
        <time>2021-02-20T14:38:11Z</time>
      </trkpt>
      <trkpt lat="43.67257" lon="3.81932">
        <ele>124</ele>
        <time>2021-02-20T14:38:12Z</time>
      </trkpt>
      <trkpt lat="43.67256" lon="3.81934">
        <ele>124</ele>
        <time>2021-02-20T14:38:13Z</time>
      </trkpt>
      <trkpt lat="43.67255" lon="3.81936">
        <ele>124</ele>
        <time>2021-02-20T14:38:14Z</time>
      </trkpt>
      <trkpt lat="43.67254" lon="3.81939">
        <ele>124</ele>
        <time>2021-02-20T14:38:15Z</time>
      </trkpt>
      <trkpt lat="43.67253" lon="3.81941">
        <ele>124</ele>
        <time>2021-02-20T14:38:16Z</time>
      </trkpt>
      <trkpt lat="43.67251" lon="3.81943">
        <ele>124</ele>
        <time>2021-02-20T14:38:17Z</time>
      </trkpt>
      <trkpt lat="43.6725" lon="3.81946">
        <ele>124</ele>
        <time>2021-02-20T14:38:18Z</time>
      </trkpt>
      <trkpt lat="43.67249" lon="3.81948">
        <ele>124</ele>
        <time>2021-02-20T14:38:19Z</time>
      </trkpt>
      <trkpt lat="43.67248" lon="3.8195">
        <ele>124</ele>
        <time>2021-02-20T14:38:20Z</time>
      </trkpt>
      <trkpt lat="43.67247" lon="3.81952">
        <ele>125</ele>
        <time>2021-02-20T14:38:21Z</time>
      </trkpt>
      <trkpt lat="43.67246" lon="3.81955">
        <ele>125</ele>
        <time>2021-02-20T14:38:22Z</time>
      </trkpt>
      <trkpt lat="43.67245" lon="3.81957">
        <ele>125</ele>
        <time>2021-02-20T14:38:23Z</time>
      </trkpt>
      <trkpt lat="43.67243" lon="3.81959">
        <ele>125</ele>
        <time>2021-02-20T14:38:24Z</time>
      </trkpt>
      <trkpt lat="43.67242" lon="3.81962">
        <ele>125</ele>
        <time>2021-02-20T14:38:25Z</time>
      </trkpt>
      <trkpt lat="43.67241" lon="3.81964">
        <ele>125</ele>
        <time>2021-02-20T14:38:26Z</time>
      </trkpt>
      <trkpt lat="43.6724" lon="3.81966">
        <ele>125</ele>
        <time>2021-02-20T14:38:27Z</time>
      </trkpt>
      <trkpt lat="43.67239" lon="3.81968">
        <ele>125</ele>
        <time>2021-02-20T14:38:28Z</time>
      </trkpt>
      <trkpt lat="43.67237" lon="3.8197">
        <ele>125</ele>
        <time>2021-02-20T14:38:29Z</time>
      </trkpt>
      <trkpt lat="43.67236" lon="3.81972">
        <ele>125</ele>
        <time>2021-02-20T14:38:30Z</time>
      </trkpt>
      <trkpt lat="43.67234" lon="3.81974">
        <ele>126</ele>
        <time>2021-02-20T14:38:31Z</time>
      </trkpt>
      <trkpt lat="43.67233" lon="3.81976">
        <ele>126</ele>
        <time>2021-02-20T14:38:32Z</time>
      </trkpt>
      <trkpt lat="43.67231" lon="3.81979">
        <ele>126</ele>
        <time>2021-02-20T14:38:33Z</time>
      </trkpt>
      <trkpt lat="43.6723" lon="3.81981">
        <ele>126</ele>
        <time>2021-02-20T14:38:34Z</time>
      </trkpt>
      <trkpt lat="43.67229" lon="3.81984">
        <ele>126</ele>
        <time>2021-02-20T14:38:35Z</time>
      </trkpt>
      <trkpt lat="43.67228" lon="3.81986">
        <ele>126</ele>
        <time>2021-02-20T14:38:36Z</time>
      </trkpt>
      <trkpt lat="43.67226" lon="3.81989">
        <ele>126</ele>
        <time>2021-02-20T14:38:37Z</time>
      </trkpt>
      <trkpt lat="43.67225" lon="3.81991">
        <ele>126</ele>
        <time>2021-02-20T14:38:38Z</time>
      </trkpt>
      <trkpt lat="43.67223" lon="3.81994">
        <ele>126</ele>
        <time>2021-02-20T14:38:39Z</time>
      </trkpt>
      <trkpt lat="43.67222" lon="3.81996">
        <ele>126</ele>
        <time>2021-02-20T14:38:40Z</time>
      </trkpt>
      <trkpt lat="43.6722" lon="3.81999">
        <ele>128</ele>
        <time>2021-02-20T14:38:41Z</time>
      </trkpt>
      <trkpt lat="43.67219" lon="3.82001">
        <ele>128</ele>
        <time>2021-02-20T14:38:42Z</time>
      </trkpt>
      <trkpt lat="43.67217" lon="3.82004">
        <ele>128</ele>
        <time>2021-02-20T14:38:43Z</time>
      </trkpt>
      <trkpt lat="43.67215" lon="3.82006">
        <ele>128</ele>
        <time>2021-02-20T14:38:44Z</time>
      </trkpt>
      <trkpt lat="43.67214" lon="3.82009">
        <ele>128</ele>
        <time>2021-02-20T14:38:45Z</time>
      </trkpt>
      <trkpt lat="43.67212" lon="3.82011">
        <ele>128</ele>
        <time>2021-02-20T14:38:46Z</time>
      </trkpt>
      <trkpt lat="43.67211" lon="3.82014">
        <ele>128</ele>
        <time>2021-02-20T14:38:47Z</time>
      </trkpt>
      <trkpt lat="43.67209" lon="3.82016">
        <ele>128</ele>
        <time>2021-02-20T14:38:48Z</time>
      </trkpt>
      <trkpt lat="43.67208" lon="3.82019">
        <ele>128</ele>
        <time>2021-02-20T14:38:49Z</time>
      </trkpt>
      <trkpt lat="43.67206" lon="3.82021">
        <ele>128</ele>
        <time>2021-02-20T14:38:50Z</time>
      </trkpt>
      <trkpt lat="43.67205" lon="3.82023">
        <ele>129</ele>
        <time>2021-02-20T14:38:51Z</time>
      </trkpt>
      <trkpt lat="43.67203" lon="3.82026">
        <ele>129</ele>
        <time>2021-02-20T14:38:52Z</time>
      </trkpt>
      <trkpt lat="43.67202" lon="3.82028">
        <ele>129</ele>
        <time>2021-02-20T14:38:53Z</time>
      </trkpt>
      <trkpt lat="43.672" lon="3.82031">
        <ele>129</ele>
        <time>2021-02-20T14:38:55Z</time>
      </trkpt>
      <trkpt lat="43.67198" lon="3.82035">
        <ele>129</ele>
        <time>2021-02-20T14:38:57Z</time>
      </trkpt>
      <trkpt lat="43.67197" lon="3.82038">
        <ele>129</ele>
        <time>2021-02-20T14:38:58Z</time>
      </trkpt>
      <trkpt lat="43.67195" lon="3.8204">
        <ele>129</ele>
        <time>2021-02-20T14:38:59Z</time>
      </trkpt>
      <trkpt lat="43.67193" lon="3.82042">
        <ele>129</ele>
        <time>2021-02-20T14:39:00Z</time>
      </trkpt>
      <trkpt lat="43.67191" lon="3.82045">
        <ele>130</ele>
        <time>2021-02-20T14:39:01Z</time>
      </trkpt>
      <trkpt lat="43.67189" lon="3.82048">
        <ele>130</ele>
        <time>2021-02-20T14:39:02Z</time>
      </trkpt>
      <trkpt lat="43.67187" lon="3.82052">
        <ele>130</ele>
        <time>2021-02-20T14:39:03Z</time>
      </trkpt>
      <trkpt lat="43.67185" lon="3.82055">
        <ele>130</ele>
        <time>2021-02-20T14:39:04Z</time>
      </trkpt>
      <trkpt lat="43.67182" lon="3.82058">
        <ele>130</ele>
        <time>2021-02-20T14:39:05Z</time>
      </trkpt>
      <trkpt lat="43.67179" lon="3.82061">
        <ele>130</ele>
        <time>2021-02-20T14:39:06Z</time>
      </trkpt>
      <trkpt lat="43.67177" lon="3.82064">
        <ele>130</ele>
        <time>2021-02-20T14:39:07Z</time>
      </trkpt>
      <trkpt lat="43.67174" lon="3.82068">
        <ele>130</ele>
        <time>2021-02-20T14:39:08Z</time>
      </trkpt>
      <trkpt lat="43.67172" lon="3.82071">
        <ele>130</ele>
        <time>2021-02-20T14:39:09Z</time>
      </trkpt>
      <trkpt lat="43.67169" lon="3.82074">
        <ele>130</ele>
        <time>2021-02-20T14:39:10Z</time>
      </trkpt>
      <trkpt lat="43.67167" lon="3.82078">
        <ele>128</ele>
        <time>2021-02-20T14:39:11Z</time>
      </trkpt>
      <trkpt lat="43.67164" lon="3.82081">
        <ele>128</ele>
        <time>2021-02-20T14:39:12Z</time>
      </trkpt>
      <trkpt lat="43.67162" lon="3.82085">
        <ele>128</ele>
        <time>2021-02-20T14:39:13Z</time>
      </trkpt>
      <trkpt lat="43.67159" lon="3.82089">
        <ele>128</ele>
        <time>2021-02-20T14:39:14Z</time>
      </trkpt>
      <trkpt lat="43.67157" lon="3.82092">
        <ele>128</ele>
        <time>2021-02-20T14:39:15Z</time>
      </trkpt>
      <trkpt lat="43.67154" lon="3.82096">
        <ele>128</ele>
        <time>2021-02-20T14:39:16Z</time>
      </trkpt>
      <trkpt lat="43.67152" lon="3.821">
        <ele>128</ele>
        <time>2021-02-20T14:39:17Z</time>
      </trkpt>
      <trkpt lat="43.67149" lon="3.82104">
        <ele>128</ele>
        <time>2021-02-20T14:39:18Z</time>
      </trkpt>
      <trkpt lat="43.67143" lon="3.82111">
        <ele>128</ele>
        <time>2021-02-20T14:39:20Z</time>
      </trkpt>
      <trkpt lat="43.67139" lon="3.82113">
        <ele>126</ele>
        <time>2021-02-20T14:39:21Z</time>
      </trkpt>
      <trkpt lat="43.67135" lon="3.82113">
        <ele>126</ele>
        <time>2021-02-20T14:39:22Z</time>
      </trkpt>
      <trkpt lat="43.67132" lon="3.82114">
        <ele>126</ele>
        <time>2021-02-20T14:39:23Z</time>
      </trkpt>
      <trkpt lat="43.67128" lon="3.82117">
        <ele>126</ele>
        <time>2021-02-20T14:39:24Z</time>
      </trkpt>
      <trkpt lat="43.67125" lon="3.8212">
        <ele>126</ele>
        <time>2021-02-20T14:39:25Z</time>
      </trkpt>
      <trkpt lat="43.67122" lon="3.82124">
        <ele>126</ele>
        <time>2021-02-20T14:39:26Z</time>
      </trkpt>
      <trkpt lat="43.67119" lon="3.82128">
        <ele>126</ele>
        <time>2021-02-20T14:39:27Z</time>
      </trkpt>
      <trkpt lat="43.67115" lon="3.82131">
        <ele>126</ele>
        <time>2021-02-20T14:39:28Z</time>
      </trkpt>
      <trkpt lat="43.67111" lon="3.82134">
        <ele>126</ele>
        <time>2021-02-20T14:39:29Z</time>
      </trkpt>
      <trkpt lat="43.67107" lon="3.82137">
        <ele>126</ele>
        <time>2021-02-20T14:39:30Z</time>
      </trkpt>
      <trkpt lat="43.67103" lon="3.8214">
        <ele>125</ele>
        <time>2021-02-20T14:39:31Z</time>
      </trkpt>
      <trkpt lat="43.67099" lon="3.82143">
        <ele>125</ele>
        <time>2021-02-20T14:39:32Z</time>
      </trkpt>
      <trkpt lat="43.67095" lon="3.82145">
        <ele>125</ele>
        <time>2021-02-20T14:39:33Z</time>
      </trkpt>
      <trkpt lat="43.67091" lon="3.82146">
        <ele>125</ele>
        <time>2021-02-20T14:39:34Z</time>
      </trkpt>
      <trkpt lat="43.67087" lon="3.82146">
        <ele>125</ele>
        <time>2021-02-20T14:39:35Z</time>
      </trkpt>
      <trkpt lat="43.67083" lon="3.82146">
        <ele>125</ele>
        <time>2021-02-20T14:39:36Z</time>
      </trkpt>
      <trkpt lat="43.6708" lon="3.82146">
        <ele>125</ele>
        <time>2021-02-20T14:39:37Z</time>
      </trkpt>
      <trkpt lat="43.67078" lon="3.82147">
        <ele>125</ele>
        <time>2021-02-20T14:39:38Z</time>
      </trkpt>
      <trkpt lat="43.67075" lon="3.82147">
        <ele>125</ele>
        <time>2021-02-20T14:39:39Z</time>
      </trkpt>
      <trkpt lat="43.67073" lon="3.82147">
        <ele>125</ele>
        <time>2021-02-20T14:39:40Z</time>
      </trkpt>
      <trkpt lat="43.6707" lon="3.82146">
        <ele>125</ele>
        <time>2021-02-20T14:39:41Z</time>
      </trkpt>
      <trkpt lat="43.67068" lon="3.82145">
        <ele>125</ele>
        <time>2021-02-20T14:39:42Z</time>
      </trkpt>
      <trkpt lat="43.67066" lon="3.82145">
        <ele>125</ele>
        <time>2021-02-20T14:39:44Z</time>
      </trkpt>
      <trkpt lat="43.67068" lon="3.8215">
        <ele>125</ele>
        <time>2021-02-20T14:39:47Z</time>
      </trkpt>
      <trkpt lat="43.67069" lon="3.82153">
        <ele>125</ele>
        <time>2021-02-20T14:39:48Z</time>
      </trkpt>
      <trkpt lat="43.67069" lon="3.82156">
        <ele>125</ele>
        <time>2021-02-20T14:39:49Z</time>
      </trkpt>
      <trkpt lat="43.67069" lon="3.82159">
        <ele>125</ele>
        <time>2021-02-20T14:39:50Z</time>
      </trkpt>
      <trkpt lat="43.6707" lon="3.82163">
        <ele>125</ele>
        <time>2021-02-20T14:39:51Z</time>
      </trkpt>
      <trkpt lat="43.67069" lon="3.82167">
        <ele>125</ele>
        <time>2021-02-20T14:39:52Z</time>
      </trkpt>
      <trkpt lat="43.67069" lon="3.82171">
        <ele>125</ele>
        <time>2021-02-20T14:39:53Z</time>
      </trkpt>
      <trkpt lat="43.67068" lon="3.82174">
        <ele>125</ele>
        <time>2021-02-20T14:39:54Z</time>
      </trkpt>
      <trkpt lat="43.67067" lon="3.82178">
        <ele>125</ele>
        <time>2021-02-20T14:39:55Z</time>
      </trkpt>
      <trkpt lat="43.67066" lon="3.82181">
        <ele>125</ele>
        <time>2021-02-20T14:39:56Z</time>
      </trkpt>
      <trkpt lat="43.67066" lon="3.82185">
        <ele>125</ele>
        <time>2021-02-20T14:39:57Z</time>
      </trkpt>
      <trkpt lat="43.67065" lon="3.82189">
        <ele>125</ele>
        <time>2021-02-20T14:39:58Z</time>
      </trkpt>
      <trkpt lat="43.67065" lon="3.82193">
        <ele>125</ele>
        <time>2021-02-20T14:39:59Z</time>
      </trkpt>
      <trkpt lat="43.67064" lon="3.82197">
        <ele>125</ele>
        <time>2021-02-20T14:40:00Z</time>
      </trkpt>
      <trkpt lat="43.67064" lon="3.82201">
        <ele>125</ele>
        <time>2021-02-20T14:40:01Z</time>
      </trkpt>
      <trkpt lat="43.67063" lon="3.82206">
        <ele>125</ele>
        <time>2021-02-20T14:40:02Z</time>
      </trkpt>
      <trkpt lat="43.67063" lon="3.8221">
        <ele>125</ele>
        <time>2021-02-20T14:40:03Z</time>
      </trkpt>
      <trkpt lat="43.67062" lon="3.82214">
        <ele>125</ele>
        <time>2021-02-20T14:40:04Z</time>
      </trkpt>
      <trkpt lat="43.67063" lon="3.82219">
        <ele>125</ele>
        <time>2021-02-20T14:40:05Z</time>
      </trkpt>
      <trkpt lat="43.67062" lon="3.82224">
        <ele>125</ele>
        <time>2021-02-20T14:40:06Z</time>
      </trkpt>
      <trkpt lat="43.67061" lon="3.8223">
        <ele>125</ele>
        <time>2021-02-20T14:40:07Z</time>
      </trkpt>
      <trkpt lat="43.6706" lon="3.82237">
        <ele>125</ele>
        <time>2021-02-20T14:40:08Z</time>
      </trkpt>
      <trkpt lat="43.67059" lon="3.82243">
        <ele>125</ele>
        <time>2021-02-20T14:40:09Z</time>
      </trkpt>
      <trkpt lat="43.67057" lon="3.82259">
        <ele>125</ele>
        <time>2021-02-20T14:40:12Z</time>
      </trkpt>
      <trkpt lat="43.67054" lon="3.82272">
        <ele>125</ele>
        <time>2021-02-20T14:40:14Z</time>
      </trkpt>
      <trkpt lat="43.6705" lon="3.82286">
        <ele>125</ele>
        <time>2021-02-20T14:40:16Z</time>
      </trkpt>
      <trkpt lat="43.67046" lon="3.82297">
        <ele>125</ele>
        <time>2021-02-20T14:40:18Z</time>
      </trkpt>
      <trkpt lat="43.67042" lon="3.82309">
        <ele>125</ele>
        <time>2021-02-20T14:40:20Z</time>
      </trkpt>
      <trkpt lat="43.67038" lon="3.82322">
        <ele>125</ele>
        <time>2021-02-20T14:40:22Z</time>
      </trkpt>
      <trkpt lat="43.67035" lon="3.82328">
        <ele>125</ele>
        <time>2021-02-20T14:40:23Z</time>
      </trkpt>
      <trkpt lat="43.67032" lon="3.82334">
        <ele>125</ele>
        <time>2021-02-20T14:40:24Z</time>
      </trkpt>
      <trkpt lat="43.6703" lon="3.82339">
        <ele>125</ele>
        <time>2021-02-20T14:40:25Z</time>
      </trkpt>
      <trkpt lat="43.67028" lon="3.82345">
        <ele>125</ele>
        <time>2021-02-20T14:40:26Z</time>
      </trkpt>
      <trkpt lat="43.67026" lon="3.82351">
        <ele>125</ele>
        <time>2021-02-20T14:40:27Z</time>
      </trkpt>
      <trkpt lat="43.67026" lon="3.82357">
        <ele>125</ele>
        <time>2021-02-20T14:40:28Z</time>
      </trkpt>
      <trkpt lat="43.67025" lon="3.82363">
        <ele>125</ele>
        <time>2021-02-20T14:40:29Z</time>
      </trkpt>
      <trkpt lat="43.67021" lon="3.82375">
        <ele>124</ele>
        <time>2021-02-20T14:40:31Z</time>
      </trkpt>
      <trkpt lat="43.67018" lon="3.82381">
        <ele>124</ele>
        <time>2021-02-20T14:40:32Z</time>
      </trkpt>
      <trkpt lat="43.67016" lon="3.82386">
        <ele>124</ele>
        <time>2021-02-20T14:40:33Z</time>
      </trkpt>
      <trkpt lat="43.67013" lon="3.82391">
        <ele>124</ele>
        <time>2021-02-20T14:40:34Z</time>
      </trkpt>
      <trkpt lat="43.6701" lon="3.82396">
        <ele>124</ele>
        <time>2021-02-20T14:40:35Z</time>
      </trkpt>
      <trkpt lat="43.67007" lon="3.824">
        <ele>124</ele>
        <time>2021-02-20T14:40:36Z</time>
      </trkpt>
      <trkpt lat="43.67003" lon="3.82403">
        <ele>124</ele>
        <time>2021-02-20T14:40:37Z</time>
      </trkpt>
      <trkpt lat="43.66999" lon="3.82407">
        <ele>124</ele>
        <time>2021-02-20T14:40:38Z</time>
      </trkpt>
      <trkpt lat="43.66995" lon="3.82409">
        <ele>124</ele>
        <time>2021-02-20T14:40:39Z</time>
      </trkpt>
      <trkpt lat="43.66991" lon="3.82412">
        <ele>124</ele>
        <time>2021-02-20T14:40:40Z</time>
      </trkpt>
      <trkpt lat="43.66988" lon="3.82415">
        <ele>123</ele>
        <time>2021-02-20T14:40:41Z</time>
      </trkpt>
      <trkpt lat="43.66985" lon="3.8242">
        <ele>123</ele>
        <time>2021-02-20T14:40:42Z</time>
      </trkpt>
      <trkpt lat="43.66983" lon="3.82427">
        <ele>123</ele>
        <time>2021-02-20T14:40:43Z</time>
      </trkpt>
      <trkpt lat="43.66977" lon="3.82439">
        <ele>123</ele>
        <time>2021-02-20T14:40:45Z</time>
      </trkpt>
      <trkpt lat="43.66969" lon="3.82445">
        <ele>123</ele>
        <time>2021-02-20T14:40:47Z</time>
      </trkpt>
      <trkpt lat="43.66966" lon="3.82447">
        <ele>123</ele>
        <time>2021-02-20T14:40:48Z</time>
      </trkpt>
      <trkpt lat="43.66963" lon="3.8245">
        <ele>123</ele>
        <time>2021-02-20T14:40:49Z</time>
      </trkpt>
      <trkpt lat="43.66961" lon="3.82452">
        <ele>123</ele>
        <time>2021-02-20T14:40:50Z</time>
      </trkpt>
      <trkpt lat="43.66959" lon="3.82456">
        <ele>121</ele>
        <time>2021-02-20T14:40:51Z</time>
      </trkpt>
      <trkpt lat="43.66956" lon="3.8246">
        <ele>121</ele>
        <time>2021-02-20T14:40:52Z</time>
      </trkpt>
      <trkpt lat="43.66952" lon="3.82463">
        <ele>121</ele>
        <time>2021-02-20T14:40:53Z</time>
      </trkpt>
      <trkpt lat="43.66947" lon="3.82467">
        <ele>121</ele>
        <time>2021-02-20T14:40:54Z</time>
      </trkpt>
      <trkpt lat="43.66943" lon="3.82471">
        <ele>121</ele>
        <time>2021-02-20T14:40:55Z</time>
      </trkpt>
      <trkpt lat="43.6694" lon="3.82474">
        <ele>121</ele>
        <time>2021-02-20T14:40:56Z</time>
      </trkpt>
      <trkpt lat="43.66936" lon="3.82478">
        <ele>121</ele>
        <time>2021-02-20T14:40:57Z</time>
      </trkpt>
      <trkpt lat="43.66932" lon="3.82482">
        <ele>121</ele>
        <time>2021-02-20T14:40:58Z</time>
      </trkpt>
      <trkpt lat="43.66928" lon="3.82486">
        <ele>121</ele>
        <time>2021-02-20T14:40:59Z</time>
      </trkpt>
      <trkpt lat="43.66924" lon="3.82491">
        <ele>121</ele>
        <time>2021-02-20T14:41:00Z</time>
      </trkpt>
      <trkpt lat="43.66921" lon="3.82495">
        <ele>120</ele>
        <time>2021-02-20T14:41:01Z</time>
      </trkpt>
      <trkpt lat="43.66918" lon="3.82499">
        <ele>120</ele>
        <time>2021-02-20T14:41:02Z</time>
      </trkpt>
      <trkpt lat="43.66913" lon="3.82503">
        <ele>120</ele>
        <time>2021-02-20T14:41:03Z</time>
      </trkpt>
      <trkpt lat="43.66908" lon="3.82507">
        <ele>120</ele>
        <time>2021-02-20T14:41:04Z</time>
      </trkpt>
      <trkpt lat="43.66903" lon="3.82513">
        <ele>120</ele>
        <time>2021-02-20T14:41:05Z</time>
      </trkpt>
      <trkpt lat="43.66897" lon="3.82518">
        <ele>120</ele>
        <time>2021-02-20T14:41:06Z</time>
      </trkpt>
      <trkpt lat="43.66892" lon="3.82524">
        <ele>120</ele>
        <time>2021-02-20T14:41:07Z</time>
      </trkpt>
      <trkpt lat="43.66888" lon="3.82529">
        <ele>120</ele>
        <time>2021-02-20T14:41:08Z</time>
      </trkpt>
      <trkpt lat="43.66882" lon="3.82532">
        <ele>120</ele>
        <time>2021-02-20T14:41:09Z</time>
      </trkpt>
      <trkpt lat="43.66878" lon="3.82536">
        <ele>120</ele>
        <time>2021-02-20T14:41:10Z</time>
      </trkpt>
      <trkpt lat="43.66873" lon="3.8254">
        <ele>118</ele>
        <time>2021-02-20T14:41:11Z</time>
      </trkpt>
      <trkpt lat="43.66869" lon="3.82544">
        <ele>118</ele>
        <time>2021-02-20T14:41:12Z</time>
      </trkpt>
      <trkpt lat="43.66865" lon="3.82548">
        <ele>118</ele>
        <time>2021-02-20T14:41:13Z</time>
      </trkpt>
      <trkpt lat="43.66861" lon="3.82551">
        <ele>118</ele>
        <time>2021-02-20T14:41:14Z</time>
      </trkpt>
      <trkpt lat="43.66858" lon="3.82554">
        <ele>118</ele>
        <time>2021-02-20T14:41:15Z</time>
      </trkpt>
      <trkpt lat="43.66855" lon="3.82558">
        <ele>118</ele>
        <time>2021-02-20T14:41:16Z</time>
      </trkpt>
      <trkpt lat="43.66851" lon="3.82561">
        <ele>118</ele>
        <time>2021-02-20T14:41:17Z</time>
      </trkpt>
      <trkpt lat="43.66848" lon="3.82565">
        <ele>118</ele>
        <time>2021-02-20T14:41:18Z</time>
      </trkpt>
      <trkpt lat="43.66844" lon="3.82568">
        <ele>118</ele>
        <time>2021-02-20T14:41:19Z</time>
      </trkpt>
      <trkpt lat="43.66841" lon="3.82571">
        <ele>118</ele>
        <time>2021-02-20T14:41:20Z</time>
      </trkpt>
      <trkpt lat="43.66837" lon="3.82574">
        <ele>118</ele>
        <time>2021-02-20T14:41:21Z</time>
      </trkpt>
      <trkpt lat="43.66833" lon="3.82576">
        <ele>118</ele>
        <time>2021-02-20T14:41:22Z</time>
      </trkpt>
      <trkpt lat="43.66829" lon="3.8258">
        <ele>118</ele>
        <time>2021-02-20T14:41:23Z</time>
      </trkpt>
      <trkpt lat="43.66825" lon="3.82584">
        <ele>118</ele>
        <time>2021-02-20T14:41:24Z</time>
      </trkpt>
      <trkpt lat="43.66821" lon="3.82588">
        <ele>118</ele>
        <time>2021-02-20T14:41:25Z</time>
      </trkpt>
      <trkpt lat="43.66817" lon="3.82593">
        <ele>118</ele>
        <time>2021-02-20T14:41:26Z</time>
      </trkpt>
      <trkpt lat="43.66814" lon="3.82598">
        <ele>118</ele>
        <time>2021-02-20T14:41:27Z</time>
      </trkpt>
      <trkpt lat="43.66811" lon="3.82602">
        <ele>118</ele>
        <time>2021-02-20T14:41:28Z</time>
      </trkpt>
      <trkpt lat="43.66807" lon="3.82607">
        <ele>118</ele>
        <time>2021-02-20T14:41:29Z</time>
      </trkpt>
      <trkpt lat="43.66803" lon="3.82611">
        <ele>118</ele>
        <time>2021-02-20T14:41:30Z</time>
      </trkpt>
      <trkpt lat="43.66799" lon="3.82615">
        <ele>118</ele>
        <time>2021-02-20T14:41:31Z</time>
      </trkpt>
      <trkpt lat="43.66795" lon="3.82618">
        <ele>118</ele>
        <time>2021-02-20T14:41:32Z</time>
      </trkpt>
      <trkpt lat="43.66792" lon="3.8262">
        <ele>118</ele>
        <time>2021-02-20T14:41:33Z</time>
      </trkpt>
      <trkpt lat="43.66788" lon="3.82622">
        <ele>118</ele>
        <time>2021-02-20T14:41:34Z</time>
      </trkpt>
      <trkpt lat="43.66784" lon="3.82624">
        <ele>118</ele>
        <time>2021-02-20T14:41:35Z</time>
      </trkpt>
      <trkpt lat="43.66781" lon="3.82626">
        <ele>118</ele>
        <time>2021-02-20T14:41:36Z</time>
      </trkpt>
      <trkpt lat="43.66777" lon="3.82628">
        <ele>118</ele>
        <time>2021-02-20T14:41:37Z</time>
      </trkpt>
      <trkpt lat="43.66773" lon="3.8263">
        <ele>118</ele>
        <time>2021-02-20T14:41:38Z</time>
      </trkpt>
      <trkpt lat="43.6677" lon="3.82633">
        <ele>118</ele>
        <time>2021-02-20T14:41:39Z</time>
      </trkpt>
      <trkpt lat="43.66766" lon="3.82635">
        <ele>118</ele>
        <time>2021-02-20T14:41:40Z</time>
      </trkpt>
      <trkpt lat="43.66763" lon="3.82638">
        <ele>118</ele>
        <time>2021-02-20T14:41:41Z</time>
      </trkpt>
      <trkpt lat="43.6676" lon="3.82642">
        <ele>118</ele>
        <time>2021-02-20T14:41:42Z</time>
      </trkpt>
      <trkpt lat="43.66756" lon="3.82644">
        <ele>118</ele>
        <time>2021-02-20T14:41:43Z</time>
      </trkpt>
      <trkpt lat="43.66753" lon="3.82647">
        <ele>118</ele>
        <time>2021-02-20T14:41:44Z</time>
      </trkpt>
      <trkpt lat="43.66749" lon="3.82649">
        <ele>118</ele>
        <time>2021-02-20T14:41:45Z</time>
      </trkpt>
      <trkpt lat="43.66746" lon="3.82652">
        <ele>118</ele>
        <time>2021-02-20T14:41:46Z</time>
      </trkpt>
      <trkpt lat="43.66743" lon="3.82654">
        <ele>118</ele>
        <time>2021-02-20T14:41:47Z</time>
      </trkpt>
      <trkpt lat="43.6674" lon="3.82657">
        <ele>118</ele>
        <time>2021-02-20T14:41:48Z</time>
      </trkpt>
      <trkpt lat="43.66737" lon="3.82659">
        <ele>118</ele>
        <time>2021-02-20T14:41:49Z</time>
      </trkpt>
      <trkpt lat="43.66734" lon="3.8266">
        <ele>118</ele>
        <time>2021-02-20T14:41:50Z</time>
      </trkpt>
      <trkpt lat="43.66729" lon="3.82663">
        <ele>118</ele>
        <time>2021-02-20T14:41:52Z</time>
      </trkpt>
      <trkpt lat="43.66727" lon="3.82665">
        <ele>118</ele>
        <time>2021-02-20T14:41:53Z</time>
      </trkpt>
      <trkpt lat="43.66725" lon="3.82667">
        <ele>118</ele>
        <time>2021-02-20T14:41:54Z</time>
      </trkpt>
      <trkpt lat="43.66722" lon="3.82668">
        <ele>118</ele>
        <time>2021-02-20T14:41:55Z</time>
      </trkpt>
      <trkpt lat="43.6672" lon="3.82669">
        <ele>118</ele>
        <time>2021-02-20T14:41:56Z</time>
      </trkpt>
      <trkpt lat="43.66717" lon="3.8267">
        <ele>118</ele>
        <time>2021-02-20T14:41:57Z</time>
      </trkpt>
      <trkpt lat="43.66714" lon="3.82671">
        <ele>118</ele>
        <time>2021-02-20T14:41:58Z</time>
      </trkpt>
      <trkpt lat="43.66711" lon="3.82672">
        <ele>118</ele>
        <time>2021-02-20T14:41:59Z</time>
      </trkpt>
      <trkpt lat="43.66708" lon="3.82672">
        <ele>118</ele>
        <time>2021-02-20T14:42:00Z</time>
      </trkpt>
      <trkpt lat="43.66705" lon="3.82673">
        <ele>119</ele>
        <time>2021-02-20T14:42:01Z</time>
      </trkpt>
      <trkpt lat="43.66701" lon="3.82674">
        <ele>119</ele>
        <time>2021-02-20T14:42:02Z</time>
      </trkpt>
      <trkpt lat="43.66698" lon="3.82674">
        <ele>119</ele>
        <time>2021-02-20T14:42:03Z</time>
      </trkpt>
      <trkpt lat="43.66696" lon="3.82674">
        <ele>119</ele>
        <time>2021-02-20T14:42:04Z</time>
      </trkpt>
      <trkpt lat="43.66694" lon="3.82675">
        <ele>119</ele>
        <time>2021-02-20T14:42:05Z</time>
      </trkpt>
      <trkpt lat="43.66692" lon="3.82676">
        <ele>119</ele>
        <time>2021-02-20T14:42:06Z</time>
      </trkpt>
      <trkpt lat="43.6669" lon="3.82676">
        <ele>119</ele>
        <time>2021-02-20T14:42:07Z</time>
      </trkpt>
      <trkpt lat="43.66688" lon="3.82676">
        <ele>119</ele>
        <time>2021-02-20T14:42:08Z</time>
      </trkpt>
      <trkpt lat="43.66686" lon="3.82678">
        <ele>119</ele>
        <time>2021-02-20T14:42:09Z</time>
      </trkpt>
      <trkpt lat="43.66685" lon="3.8268">
        <ele>119</ele>
        <time>2021-02-20T14:42:10Z</time>
      </trkpt>
      <trkpt lat="43.66684" lon="3.82683">
        <ele>120</ele>
        <time>2021-02-20T14:42:11Z</time>
      </trkpt>
      <trkpt lat="43.66683" lon="3.82687">
        <ele>120</ele>
        <time>2021-02-20T14:42:12Z</time>
      </trkpt>
      <trkpt lat="43.66683" lon="3.82691">
        <ele>120</ele>
        <time>2021-02-20T14:42:13Z</time>
      </trkpt>
      <trkpt lat="43.66682" lon="3.82696">
        <ele>120</ele>
        <time>2021-02-20T14:42:14Z</time>
      </trkpt>
      <trkpt lat="43.66683" lon="3.82702">
        <ele>120</ele>
        <time>2021-02-20T14:42:15Z</time>
      </trkpt>
      <trkpt lat="43.66683" lon="3.82707">
        <ele>120</ele>
        <time>2021-02-20T14:42:16Z</time>
      </trkpt>
      <trkpt lat="43.66682" lon="3.82711">
        <ele>120</ele>
        <time>2021-02-20T14:42:17Z</time>
      </trkpt>
      <trkpt lat="43.6668" lon="3.82714">
        <ele>120</ele>
        <time>2021-02-20T14:42:18Z</time>
      </trkpt>
      <trkpt lat="43.66677" lon="3.82715">
        <ele>120</ele>
        <time>2021-02-20T14:42:19Z</time>
      </trkpt>
      <trkpt lat="43.66675" lon="3.82717">
        <ele>120</ele>
        <time>2021-02-20T14:42:20Z</time>
      </trkpt>
      <trkpt lat="43.66673" lon="3.82719">
        <ele>118</ele>
        <time>2021-02-20T14:42:21Z</time>
      </trkpt>
      <trkpt lat="43.66671" lon="3.82721">
        <ele>118</ele>
        <time>2021-02-20T14:42:22Z</time>
      </trkpt>
      <trkpt lat="43.66669" lon="3.82724">
        <ele>118</ele>
        <time>2021-02-20T14:42:23Z</time>
      </trkpt>
      <trkpt lat="43.66667" lon="3.82727">
        <ele>118</ele>
        <time>2021-02-20T14:42:24Z</time>
      </trkpt>
      <trkpt lat="43.66665" lon="3.8273">
        <ele>118</ele>
        <time>2021-02-20T14:42:25Z</time>
      </trkpt>
      <trkpt lat="43.66663" lon="3.82733">
        <ele>118</ele>
        <time>2021-02-20T14:42:26Z</time>
      </trkpt>
      <trkpt lat="43.66661" lon="3.82736">
        <ele>118</ele>
        <time>2021-02-20T14:42:27Z</time>
      </trkpt>
      <trkpt lat="43.66659" lon="3.82739">
        <ele>118</ele>
        <time>2021-02-20T14:42:28Z</time>
      </trkpt>
      <trkpt lat="43.66658" lon="3.82741">
        <ele>118</ele>
        <time>2021-02-20T14:42:29Z</time>
      </trkpt>
      <trkpt lat="43.66655" lon="3.82743">
        <ele>119</ele>
        <time>2021-02-20T14:42:31Z</time>
      </trkpt>
      <trkpt lat="43.66653" lon="3.82744">
        <ele>119</ele>
        <time>2021-02-20T14:42:32Z</time>
      </trkpt>
      <trkpt lat="43.66651" lon="3.82747">
        <ele>119</ele>
        <time>2021-02-20T14:42:34Z</time>
      </trkpt>
      <trkpt lat="43.66649" lon="3.82749">
        <ele>119</ele>
        <time>2021-02-20T14:42:35Z</time>
      </trkpt>
      <trkpt lat="43.66647" lon="3.82751">
        <ele>119</ele>
        <time>2021-02-20T14:42:36Z</time>
      </trkpt>
      <trkpt lat="43.66645" lon="3.82753">
        <ele>119</ele>
        <time>2021-02-20T14:42:37Z</time>
      </trkpt>
      <trkpt lat="43.66634" lon="3.8276">
        <ele>118</ele>
        <time>2021-02-20T14:42:41Z</time>
      </trkpt>
      <trkpt lat="43.66623" lon="3.82767">
        <ele>118</ele>
        <time>2021-02-20T14:42:44Z</time>
      </trkpt>
      <trkpt lat="43.66615" lon="3.82774">
        <ele>118</ele>
        <time>2021-02-20T14:42:46Z</time>
      </trkpt>
      <trkpt lat="43.66605" lon="3.82783">
        <ele>118</ele>
        <time>2021-02-20T14:42:49Z</time>
      </trkpt>
      <trkpt lat="43.66601" lon="3.82786">
        <ele>118</ele>
        <time>2021-02-20T14:42:50Z</time>
      </trkpt>
      <trkpt lat="43.66598" lon="3.82788">
        <ele>118</ele>
        <time>2021-02-20T14:42:51Z</time>
      </trkpt>
      <trkpt lat="43.66594" lon="3.82792">
        <ele>118</ele>
        <time>2021-02-20T14:42:52Z</time>
      </trkpt>
      <trkpt lat="43.66591" lon="3.82794">
        <ele>118</ele>
        <time>2021-02-20T14:42:53Z</time>
      </trkpt>
      <trkpt lat="43.66588" lon="3.82796">
        <ele>118</ele>
        <time>2021-02-20T14:42:54Z</time>
      </trkpt>
      <trkpt lat="43.66585" lon="3.82798">
        <ele>118</ele>
        <time>2021-02-20T14:42:55Z</time>
      </trkpt>
      <trkpt lat="43.66582" lon="3.82799">
        <ele>118</ele>
        <time>2021-02-20T14:42:56Z</time>
      </trkpt>
      <trkpt lat="43.66579" lon="3.82801">
        <ele>118</ele>
        <time>2021-02-20T14:42:57Z</time>
      </trkpt>
      <trkpt lat="43.66577" lon="3.82802">
        <ele>118</ele>
        <time>2021-02-20T14:42:58Z</time>
      </trkpt>
      <trkpt lat="43.66574" lon="3.82804">
        <ele>118</ele>
        <time>2021-02-20T14:42:59Z</time>
      </trkpt>
      <trkpt lat="43.66571" lon="3.82804">
        <ele>118</ele>
        <time>2021-02-20T14:43:00Z</time>
      </trkpt>
      <trkpt lat="43.66569" lon="3.82806">
        <ele>118</ele>
        <time>2021-02-20T14:43:01Z</time>
      </trkpt>
      <trkpt lat="43.66566" lon="3.82809">
        <ele>118</ele>
        <time>2021-02-20T14:43:02Z</time>
      </trkpt>
      <trkpt lat="43.66563" lon="3.82812">
        <ele>118</ele>
        <time>2021-02-20T14:43:03Z</time>
      </trkpt>
      <trkpt lat="43.66561" lon="3.82814">
        <ele>118</ele>
        <time>2021-02-20T14:43:04Z</time>
      </trkpt>
      <trkpt lat="43.66558" lon="3.82816">
        <ele>118</ele>
        <time>2021-02-20T14:43:05Z</time>
      </trkpt>
      <trkpt lat="43.66556" lon="3.82818">
        <ele>118</ele>
        <time>2021-02-20T14:43:06Z</time>
      </trkpt>
      <trkpt lat="43.66553" lon="3.82819">
        <ele>118</ele>
        <time>2021-02-20T14:43:07Z</time>
      </trkpt>
      <trkpt lat="43.66551" lon="3.8282">
        <ele>118</ele>
        <time>2021-02-20T14:43:08Z</time>
      </trkpt>
      <trkpt lat="43.66549" lon="3.82821">
        <ele>118</ele>
        <time>2021-02-20T14:43:09Z</time>
      </trkpt>
      <trkpt lat="43.66546" lon="3.82823">
        <ele>118</ele>
        <time>2021-02-20T14:43:10Z</time>
      </trkpt>
      <trkpt lat="43.66538" lon="3.8283">
        <ele>118</ele>
        <time>2021-02-20T14:43:13Z</time>
      </trkpt>
      <trkpt lat="43.66529" lon="3.82836">
        <ele>118</ele>
        <time>2021-02-20T14:43:16Z</time>
      </trkpt>
      <trkpt lat="43.66522" lon="3.82841">
        <ele>118</ele>
        <time>2021-02-20T14:43:19Z</time>
      </trkpt>
      <trkpt lat="43.66519" lon="3.82843">
        <ele>118</ele>
        <time>2021-02-20T14:43:20Z</time>
      </trkpt>
      <trkpt lat="43.66511" lon="3.82849">
        <ele>118</ele>
        <time>2021-02-20T14:43:23Z</time>
      </trkpt>
      <trkpt lat="43.66501" lon="3.82855">
        <ele>118</ele>
        <time>2021-02-20T14:43:27Z</time>
      </trkpt>
      <trkpt lat="43.66492" lon="3.82862">
        <ele>118</ele>
        <time>2021-02-20T14:43:30Z</time>
      </trkpt>
      <trkpt lat="43.6649" lon="3.82864">
        <ele>120</ele>
        <time>2021-02-20T14:43:31Z</time>
      </trkpt>
      <trkpt lat="43.66487" lon="3.82866">
        <ele>120</ele>
        <time>2021-02-20T14:43:32Z</time>
      </trkpt>
      <trkpt lat="43.66479" lon="3.82875">
        <ele>120</ele>
        <time>2021-02-20T14:43:36Z</time>
      </trkpt>
      <trkpt lat="43.66476" lon="3.82876">
        <ele>120</ele>
        <time>2021-02-20T14:43:37Z</time>
      </trkpt>
      <trkpt lat="43.66473" lon="3.82879">
        <ele>120</ele>
        <time>2021-02-20T14:43:38Z</time>
      </trkpt>
      <trkpt lat="43.66464" lon="3.82886">
        <ele>120</ele>
        <time>2021-02-20T14:43:41Z</time>
      </trkpt>
      <trkpt lat="43.66458" lon="3.82891">
        <ele>120</ele>
        <time>2021-02-20T14:43:43Z</time>
      </trkpt>
      <trkpt lat="43.66455" lon="3.82892">
        <ele>120</ele>
        <time>2021-02-20T14:43:44Z</time>
      </trkpt>
      <trkpt lat="43.66452" lon="3.82895">
        <ele>120</ele>
        <time>2021-02-20T14:43:45Z</time>
      </trkpt>
      <trkpt lat="43.66449" lon="3.82897">
        <ele>120</ele>
        <time>2021-02-20T14:43:46Z</time>
      </trkpt>
      <trkpt lat="43.66445" lon="3.82899">
        <ele>120</ele>
        <time>2021-02-20T14:43:47Z</time>
      </trkpt>
      <trkpt lat="43.66442" lon="3.82902">
        <ele>120</ele>
        <time>2021-02-20T14:43:48Z</time>
      </trkpt>
      <trkpt lat="43.66439" lon="3.82904">
        <ele>120</ele>
        <time>2021-02-20T14:43:49Z</time>
      </trkpt>
      <trkpt lat="43.66436" lon="3.82906">
        <ele>120</ele>
        <time>2021-02-20T14:43:50Z</time>
      </trkpt>
      <trkpt lat="43.66433" lon="3.82908">
        <ele>120</ele>
        <time>2021-02-20T14:43:51Z</time>
      </trkpt>
      <trkpt lat="43.6643" lon="3.8291">
        <ele>120</ele>
        <time>2021-02-20T14:43:52Z</time>
      </trkpt>
      <trkpt lat="43.66427" lon="3.82912">
        <ele>120</ele>
        <time>2021-02-20T14:43:53Z</time>
      </trkpt>
      <trkpt lat="43.66424" lon="3.82914">
        <ele>120</ele>
        <time>2021-02-20T14:43:54Z</time>
      </trkpt>
      <trkpt lat="43.66421" lon="3.82916">
        <ele>120</ele>
        <time>2021-02-20T14:43:55Z</time>
      </trkpt>
      <trkpt lat="43.66418" lon="3.82919">
        <ele>120</ele>
        <time>2021-02-20T14:43:56Z</time>
      </trkpt>
      <trkpt lat="43.66416" lon="3.82921">
        <ele>120</ele>
        <time>2021-02-20T14:43:57Z</time>
      </trkpt>
      <trkpt lat="43.66413" lon="3.82924">
        <ele>120</ele>
        <time>2021-02-20T14:43:58Z</time>
      </trkpt>
      <trkpt lat="43.6641" lon="3.82927">
        <ele>120</ele>
        <time>2021-02-20T14:43:59Z</time>
      </trkpt>
      <trkpt lat="43.66406" lon="3.82929">
        <ele>120</ele>
        <time>2021-02-20T14:44:00Z</time>
      </trkpt>
      <trkpt lat="43.66404" lon="3.82932">
        <ele>120</ele>
        <time>2021-02-20T14:44:01Z</time>
      </trkpt>
      <trkpt lat="43.66401" lon="3.82935">
        <ele>120</ele>
        <time>2021-02-20T14:44:02Z</time>
      </trkpt>
      <trkpt lat="43.66398" lon="3.82937">
        <ele>120</ele>
        <time>2021-02-20T14:44:03Z</time>
      </trkpt>
      <trkpt lat="43.66394" lon="3.8294">
        <ele>120</ele>
        <time>2021-02-20T14:44:04Z</time>
      </trkpt>
      <trkpt lat="43.6639" lon="3.82944">
        <ele>120</ele>
        <time>2021-02-20T14:44:05Z</time>
      </trkpt>
      <trkpt lat="43.66386" lon="3.82948">
        <ele>120</ele>
        <time>2021-02-20T14:44:06Z</time>
      </trkpt>
      <trkpt lat="43.66381" lon="3.82952">
        <ele>120</ele>
        <time>2021-02-20T14:44:07Z</time>
      </trkpt>
      <trkpt lat="43.66377" lon="3.82955">
        <ele>120</ele>
        <time>2021-02-20T14:44:08Z</time>
      </trkpt>
      <trkpt lat="43.66373" lon="3.82959">
        <ele>120</ele>
        <time>2021-02-20T14:44:09Z</time>
      </trkpt>
      <trkpt lat="43.66369" lon="3.82962">
        <ele>120</ele>
        <time>2021-02-20T14:44:10Z</time>
      </trkpt>
      <trkpt lat="43.66366" lon="3.82965">
        <ele>119</ele>
        <time>2021-02-20T14:44:11Z</time>
      </trkpt>
      <trkpt lat="43.66364" lon="3.82967">
        <ele>119</ele>
        <time>2021-02-20T14:44:12Z</time>
      </trkpt>
      <trkpt lat="43.66362" lon="3.82969">
        <ele>119</ele>
        <time>2021-02-20T14:44:13Z</time>
      </trkpt>
      <trkpt lat="43.6636" lon="3.82971">
        <ele>119</ele>
        <time>2021-02-20T14:44:14Z</time>
      </trkpt>
      <trkpt lat="43.66358" lon="3.82972">
        <ele>119</ele>
        <time>2021-02-20T14:44:15Z</time>
      </trkpt>
      <trkpt lat="43.66356" lon="3.82975">
        <ele>119</ele>
        <time>2021-02-20T14:44:17Z</time>
      </trkpt>
      <trkpt lat="43.66355" lon="3.82979">
        <ele>119</ele>
        <time>2021-02-20T14:44:19Z</time>
      </trkpt>
      <trkpt lat="43.66353" lon="3.82981">
        <ele>121</ele>
        <time>2021-02-20T14:44:21Z</time>
      </trkpt>
      <trkpt lat="43.66352" lon="3.82983">
        <ele>121</ele>
        <time>2021-02-20T14:44:22Z</time>
      </trkpt>
      <trkpt lat="43.6635" lon="3.82985">
        <ele>121</ele>
        <time>2021-02-20T14:44:23Z</time>
      </trkpt>
      <trkpt lat="43.66347" lon="3.82987">
        <ele>121</ele>
        <time>2021-02-20T14:44:24Z</time>
      </trkpt>
      <trkpt lat="43.66345" lon="3.82989">
        <ele>121</ele>
        <time>2021-02-20T14:44:25Z</time>
      </trkpt>
      <trkpt lat="43.66342" lon="3.8299">
        <ele>121</ele>
        <time>2021-02-20T14:44:26Z</time>
      </trkpt>
      <trkpt lat="43.6634" lon="3.82992">
        <ele>121</ele>
        <time>2021-02-20T14:44:27Z</time>
      </trkpt>
      <trkpt lat="43.66337" lon="3.82995">
        <ele>121</ele>
        <time>2021-02-20T14:44:28Z</time>
      </trkpt>
      <trkpt lat="43.66334" lon="3.82997">
        <ele>121</ele>
        <time>2021-02-20T14:44:29Z</time>
      </trkpt>
      <trkpt lat="43.66331" lon="3.83">
        <ele>121</ele>
        <time>2021-02-20T14:44:30Z</time>
      </trkpt>
      <trkpt lat="43.66328" lon="3.83002">
        <ele>121</ele>
        <time>2021-02-20T14:44:31Z</time>
      </trkpt>
      <trkpt lat="43.66324" lon="3.83004">
        <ele>121</ele>
        <time>2021-02-20T14:44:32Z</time>
      </trkpt>
      <trkpt lat="43.6632" lon="3.83007">
        <ele>121</ele>
        <time>2021-02-20T14:44:33Z</time>
      </trkpt>
      <trkpt lat="43.66315" lon="3.8301">
        <ele>121</ele>
        <time>2021-02-20T14:44:34Z</time>
      </trkpt>
      <trkpt lat="43.6631" lon="3.83013">
        <ele>121</ele>
        <time>2021-02-20T14:44:35Z</time>
      </trkpt>
      <trkpt lat="43.66304" lon="3.83017">
        <ele>121</ele>
        <time>2021-02-20T14:44:36Z</time>
      </trkpt>
      <trkpt lat="43.66298" lon="3.8302">
        <ele>121</ele>
        <time>2021-02-20T14:44:37Z</time>
      </trkpt>
      <trkpt lat="43.66292" lon="3.83023">
        <ele>121</ele>
        <time>2021-02-20T14:44:38Z</time>
      </trkpt>
      <trkpt lat="43.66286" lon="3.83026">
        <ele>121</ele>
        <time>2021-02-20T14:44:39Z</time>
      </trkpt>
      <trkpt lat="43.66281" lon="3.83029">
        <ele>121</ele>
        <time>2021-02-20T14:44:40Z</time>
      </trkpt>
      <trkpt lat="43.66275" lon="3.83032">
        <ele>120</ele>
        <time>2021-02-20T14:44:41Z</time>
      </trkpt>
      <trkpt lat="43.66269" lon="3.83035">
        <ele>120</ele>
        <time>2021-02-20T14:44:42Z</time>
      </trkpt>
      <trkpt lat="43.66264" lon="3.83037">
        <ele>120</ele>
        <time>2021-02-20T14:44:43Z</time>
      </trkpt>
      <trkpt lat="43.66258" lon="3.83039">
        <ele>120</ele>
        <time>2021-02-20T14:44:44Z</time>
      </trkpt>
      <trkpt lat="43.66252" lon="3.83042">
        <ele>120</ele>
        <time>2021-02-20T14:44:45Z</time>
      </trkpt>
      <trkpt lat="43.66247" lon="3.83043">
        <ele>120</ele>
        <time>2021-02-20T14:44:46Z</time>
      </trkpt>
      <trkpt lat="43.66242" lon="3.83045">
        <ele>120</ele>
        <time>2021-02-20T14:44:47Z</time>
      </trkpt>
      <trkpt lat="43.66238" lon="3.83046">
        <ele>120</ele>
        <time>2021-02-20T14:44:48Z</time>
      </trkpt>
      <trkpt lat="43.66235" lon="3.83045">
        <ele>120</ele>
        <time>2021-02-20T14:44:49Z</time>
      </trkpt>
      <trkpt lat="43.66232" lon="3.83044">
        <ele>120</ele>
        <time>2021-02-20T14:44:50Z</time>
      </trkpt>
      <trkpt lat="43.6623" lon="3.83043">
        <ele>116</ele>
        <time>2021-02-20T14:44:51Z</time>
      </trkpt>
      <trkpt lat="43.66226" lon="3.83043">
        <ele>116</ele>
        <time>2021-02-20T14:44:53Z</time>
      </trkpt>
      <trkpt lat="43.66224" lon="3.83044">
        <ele>116</ele>
        <time>2021-02-20T14:44:54Z</time>
      </trkpt>
      <trkpt lat="43.66221" lon="3.83045">
        <ele>116</ele>
        <time>2021-02-20T14:44:55Z</time>
      </trkpt>
      <trkpt lat="43.66219" lon="3.83045">
        <ele>116</ele>
        <time>2021-02-20T14:44:57Z</time>
      </trkpt>
      <trkpt lat="43.6622" lon="3.83044">
        <ele>113</ele>
        <time>2021-02-20T14:45:02Z</time>
      </trkpt>
      <trkpt lat="43.6621" lon="3.83042">
        <ele>109</ele>
        <time>2021-02-20T14:45:25Z</time>
      </trkpt>
      <trkpt lat="43.66207" lon="3.83041">
        <ele>109</ele>
        <time>2021-02-20T14:45:26Z</time>
      </trkpt>
      <trkpt lat="43.66204" lon="3.8304">
        <ele>109</ele>
        <time>2021-02-20T14:45:27Z</time>
      </trkpt>
      <trkpt lat="43.66201" lon="3.83039">
        <ele>109</ele>
        <time>2021-02-20T14:45:28Z</time>
      </trkpt>
      <trkpt lat="43.66197" lon="3.83039">
        <ele>109</ele>
        <time>2021-02-20T14:45:29Z</time>
      </trkpt>
      <trkpt lat="43.66193" lon="3.83038">
        <ele>109</ele>
        <time>2021-02-20T14:45:30Z</time>
      </trkpt>
      <trkpt lat="43.6619" lon="3.83037">
        <ele>109</ele>
        <time>2021-02-20T14:45:31Z</time>
      </trkpt>
      <trkpt lat="43.66186" lon="3.83035">
        <ele>109</ele>
        <time>2021-02-20T14:45:32Z</time>
      </trkpt>
      <trkpt lat="43.66183" lon="3.83033">
        <ele>109</ele>
        <time>2021-02-20T14:45:33Z</time>
      </trkpt>
      <trkpt lat="43.66179" lon="3.83031">
        <ele>109</ele>
        <time>2021-02-20T14:45:34Z</time>
      </trkpt>
      <trkpt lat="43.66176" lon="3.83028">
        <ele>106</ele>
        <time>2021-02-20T14:45:35Z</time>
      </trkpt>
      <trkpt lat="43.66172" lon="3.83026">
        <ele>106</ele>
        <time>2021-02-20T14:45:36Z</time>
      </trkpt>
      <trkpt lat="43.66168" lon="3.83024">
        <ele>106</ele>
        <time>2021-02-20T14:45:37Z</time>
      </trkpt>
      <trkpt lat="43.66164" lon="3.83022">
        <ele>106</ele>
        <time>2021-02-20T14:45:38Z</time>
      </trkpt>
      <trkpt lat="43.6616" lon="3.83019">
        <ele>106</ele>
        <time>2021-02-20T14:45:39Z</time>
      </trkpt>
      <trkpt lat="43.66156" lon="3.83016">
        <ele>106</ele>
        <time>2021-02-20T14:45:40Z</time>
      </trkpt>
      <trkpt lat="43.66152" lon="3.83013">
        <ele>106</ele>
        <time>2021-02-20T14:45:41Z</time>
      </trkpt>
      <trkpt lat="43.66147" lon="3.8301">
        <ele>106</ele>
        <time>2021-02-20T14:45:42Z</time>
      </trkpt>
      <trkpt lat="43.66142" lon="3.83007">
        <ele>106</ele>
        <time>2021-02-20T14:45:43Z</time>
      </trkpt>
      <trkpt lat="43.66138" lon="3.83004">
        <ele>106</ele>
        <time>2021-02-20T14:45:44Z</time>
      </trkpt>
      <trkpt lat="43.66134" lon="3.83">
        <ele>103</ele>
        <time>2021-02-20T14:45:45Z</time>
      </trkpt>
      <trkpt lat="43.66129" lon="3.82997">
        <ele>103</ele>
        <time>2021-02-20T14:45:46Z</time>
      </trkpt>
      <trkpt lat="43.66125" lon="3.82994">
        <ele>103</ele>
        <time>2021-02-20T14:45:47Z</time>
      </trkpt>
      <trkpt lat="43.66121" lon="3.82991">
        <ele>103</ele>
        <time>2021-02-20T14:45:48Z</time>
      </trkpt>
      <trkpt lat="43.66116" lon="3.82989">
        <ele>103</ele>
        <time>2021-02-20T14:45:49Z</time>
      </trkpt>
      <trkpt lat="43.66112" lon="3.82986">
        <ele>103</ele>
        <time>2021-02-20T14:45:50Z</time>
      </trkpt>
      <trkpt lat="43.66107" lon="3.82984">
        <ele>103</ele>
        <time>2021-02-20T14:45:51Z</time>
      </trkpt>
      <trkpt lat="43.66103" lon="3.82983">
        <ele>103</ele>
        <time>2021-02-20T14:45:52Z</time>
      </trkpt>
      <trkpt lat="43.66098" lon="3.82982">
        <ele>103</ele>
        <time>2021-02-20T14:45:53Z</time>
      </trkpt>
      <trkpt lat="43.66094" lon="3.82982">
        <ele>103</ele>
        <time>2021-02-20T14:45:54Z</time>
      </trkpt>
      <trkpt lat="43.66089" lon="3.82982">
        <ele>101</ele>
        <time>2021-02-20T14:45:55Z</time>
      </trkpt>
      <trkpt lat="43.66085" lon="3.82982">
        <ele>101</ele>
        <time>2021-02-20T14:45:56Z</time>
      </trkpt>
      <trkpt lat="43.66081" lon="3.82981">
        <ele>101</ele>
        <time>2021-02-20T14:45:57Z</time>
      </trkpt>
      <trkpt lat="43.66078" lon="3.82981">
        <ele>101</ele>
        <time>2021-02-20T14:45:58Z</time>
      </trkpt>
      <trkpt lat="43.66075" lon="3.82981">
        <ele>101</ele>
        <time>2021-02-20T14:45:59Z</time>
      </trkpt>
      <trkpt lat="43.66072" lon="3.82981">
        <ele>101</ele>
        <time>2021-02-20T14:46:00Z</time>
      </trkpt>
      <trkpt lat="43.66069" lon="3.82981">
        <ele>101</ele>
        <time>2021-02-20T14:46:01Z</time>
      </trkpt>
      <trkpt lat="43.66066" lon="3.82982">
        <ele>101</ele>
        <time>2021-02-20T14:46:02Z</time>
      </trkpt>
      <trkpt lat="43.66063" lon="3.82982">
        <ele>101</ele>
        <time>2021-02-20T14:46:03Z</time>
      </trkpt>
      <trkpt lat="43.6606" lon="3.82982">
        <ele>101</ele>
        <time>2021-02-20T14:46:04Z</time>
      </trkpt>
      <trkpt lat="43.66057" lon="3.82982">
        <ele>99</ele>
        <time>2021-02-20T14:46:05Z</time>
      </trkpt>
      <trkpt lat="43.66053" lon="3.82983">
        <ele>99</ele>
        <time>2021-02-20T14:46:06Z</time>
      </trkpt>
      <trkpt lat="43.6605" lon="3.82983">
        <ele>99</ele>
        <time>2021-02-20T14:46:07Z</time>
      </trkpt>
      <trkpt lat="43.66046" lon="3.82984">
        <ele>99</ele>
        <time>2021-02-20T14:46:08Z</time>
      </trkpt>
      <trkpt lat="43.66043" lon="3.82984">
        <ele>99</ele>
        <time>2021-02-20T14:46:09Z</time>
      </trkpt>
      <trkpt lat="43.66039" lon="3.82984">
        <ele>99</ele>
        <time>2021-02-20T14:46:10Z</time>
      </trkpt>
      <trkpt lat="43.66035" lon="3.82984">
        <ele>99</ele>
        <time>2021-02-20T14:46:11Z</time>
      </trkpt>
      <trkpt lat="43.66031" lon="3.82985">
        <ele>99</ele>
        <time>2021-02-20T14:46:12Z</time>
      </trkpt>
      <trkpt lat="43.66027" lon="3.82986">
        <ele>99</ele>
        <time>2021-02-20T14:46:13Z</time>
      </trkpt>
      <trkpt lat="43.66022" lon="3.82986">
        <ele>99</ele>
        <time>2021-02-20T14:46:14Z</time>
      </trkpt>
      <trkpt lat="43.66018" lon="3.82985">
        <ele>98</ele>
        <time>2021-02-20T14:46:15Z</time>
      </trkpt>
      <trkpt lat="43.66014" lon="3.82985">
        <ele>98</ele>
        <time>2021-02-20T14:46:16Z</time>
      </trkpt>
      <trkpt lat="43.66011" lon="3.82986">
        <ele>98</ele>
        <time>2021-02-20T14:46:17Z</time>
      </trkpt>
      <trkpt lat="43.66007" lon="3.82986">
        <ele>98</ele>
        <time>2021-02-20T14:46:18Z</time>
      </trkpt>
      <trkpt lat="43.66003" lon="3.82987">
        <ele>98</ele>
        <time>2021-02-20T14:46:19Z</time>
      </trkpt>
      <trkpt lat="43.66" lon="3.82988">
        <ele>98</ele>
        <time>2021-02-20T14:46:20Z</time>
      </trkpt>
      <trkpt lat="43.65996" lon="3.82989">
        <ele>98</ele>
        <time>2021-02-20T14:46:21Z</time>
      </trkpt>
      <trkpt lat="43.65993" lon="3.82989">
        <ele>98</ele>
        <time>2021-02-20T14:46:22Z</time>
      </trkpt>
      <trkpt lat="43.65989" lon="3.82988">
        <ele>98</ele>
        <time>2021-02-20T14:46:23Z</time>
      </trkpt>
      <trkpt lat="43.65987" lon="3.82985">
        <ele>98</ele>
        <time>2021-02-20T14:46:24Z</time>
      </trkpt>
      <trkpt lat="43.65984" lon="3.82983">
        <ele>98</ele>
        <time>2021-02-20T14:46:25Z</time>
      </trkpt>
      <trkpt lat="43.6598" lon="3.82984">
        <ele>98</ele>
        <time>2021-02-20T14:46:26Z</time>
      </trkpt>
      <trkpt lat="43.65977" lon="3.82986">
        <ele>98</ele>
        <time>2021-02-20T14:46:27Z</time>
      </trkpt>
      <trkpt lat="43.65969" lon="3.82991">
        <ele>98</ele>
        <time>2021-02-20T14:46:29Z</time>
      </trkpt>
      <trkpt lat="43.65965" lon="3.82992">
        <ele>98</ele>
        <time>2021-02-20T14:46:30Z</time>
      </trkpt>
      <trkpt lat="43.6596" lon="3.82993">
        <ele>98</ele>
        <time>2021-02-20T14:46:31Z</time>
      </trkpt>
      <trkpt lat="43.65956" lon="3.82993">
        <ele>98</ele>
        <time>2021-02-20T14:46:32Z</time>
      </trkpt>
      <trkpt lat="43.65947" lon="3.82996">
        <ele>98</ele>
        <time>2021-02-20T14:46:34Z</time>
      </trkpt>
      <trkpt lat="43.65942" lon="3.82997">
        <ele>97</ele>
        <time>2021-02-20T14:46:35Z</time>
      </trkpt>
      <trkpt lat="43.65936" lon="3.82998">
        <ele>97</ele>
        <time>2021-02-20T14:46:36Z</time>
      </trkpt>
      <trkpt lat="43.65931" lon="3.83">
        <ele>97</ele>
        <time>2021-02-20T14:46:37Z</time>
      </trkpt>
      <trkpt lat="43.65926" lon="3.83001">
        <ele>97</ele>
        <time>2021-02-20T14:46:38Z</time>
      </trkpt>
      <trkpt lat="43.65921" lon="3.83002">
        <ele>97</ele>
        <time>2021-02-20T14:46:39Z</time>
      </trkpt>
      <trkpt lat="43.65916" lon="3.83002">
        <ele>97</ele>
        <time>2021-02-20T14:46:40Z</time>
      </trkpt>
      <trkpt lat="43.65911" lon="3.83003">
        <ele>97</ele>
        <time>2021-02-20T14:46:41Z</time>
      </trkpt>
      <trkpt lat="43.65906" lon="3.83003">
        <ele>97</ele>
        <time>2021-02-20T14:46:42Z</time>
      </trkpt>
      <trkpt lat="43.65901" lon="3.83004">
        <ele>97</ele>
        <time>2021-02-20T14:46:43Z</time>
      </trkpt>
      <trkpt lat="43.65896" lon="3.83005">
        <ele>97</ele>
        <time>2021-02-20T14:46:44Z</time>
      </trkpt>
      <trkpt lat="43.65891" lon="3.83006">
        <ele>97</ele>
        <time>2021-02-20T14:46:45Z</time>
      </trkpt>
      <trkpt lat="43.65886" lon="3.83007">
        <ele>97</ele>
        <time>2021-02-20T14:46:46Z</time>
      </trkpt>
      <trkpt lat="43.65881" lon="3.83008">
        <ele>97</ele>
        <time>2021-02-20T14:46:47Z</time>
      </trkpt>
      <trkpt lat="43.65877" lon="3.83009">
        <ele>97</ele>
        <time>2021-02-20T14:46:48Z</time>
      </trkpt>
      <trkpt lat="43.65873" lon="3.83009">
        <ele>97</ele>
        <time>2021-02-20T14:46:49Z</time>
      </trkpt>
      <trkpt lat="43.65868" lon="3.8301">
        <ele>97</ele>
        <time>2021-02-20T14:46:50Z</time>
      </trkpt>
      <trkpt lat="43.65864" lon="3.83011">
        <ele>97</ele>
        <time>2021-02-20T14:46:51Z</time>
      </trkpt>
      <trkpt lat="43.65859" lon="3.83011">
        <ele>97</ele>
        <time>2021-02-20T14:46:52Z</time>
      </trkpt>
      <trkpt lat="43.65854" lon="3.83011">
        <ele>97</ele>
        <time>2021-02-20T14:46:53Z</time>
      </trkpt>
      <trkpt lat="43.6585" lon="3.83011">
        <ele>97</ele>
        <time>2021-02-20T14:46:54Z</time>
      </trkpt>
      <trkpt lat="43.65846" lon="3.83011">
        <ele>95</ele>
        <time>2021-02-20T14:46:55Z</time>
      </trkpt>
      <trkpt lat="43.65841" lon="3.83012">
        <ele>95</ele>
        <time>2021-02-20T14:46:56Z</time>
      </trkpt>
      <trkpt lat="43.65836" lon="3.83011">
        <ele>95</ele>
        <time>2021-02-20T14:46:57Z</time>
      </trkpt>
      <trkpt lat="43.65832" lon="3.8301">
        <ele>95</ele>
        <time>2021-02-20T14:46:58Z</time>
      </trkpt>
      <trkpt lat="43.65828" lon="3.83009">
        <ele>95</ele>
        <time>2021-02-20T14:46:59Z</time>
      </trkpt>
      <trkpt lat="43.65824" lon="3.83011">
        <ele>95</ele>
        <time>2021-02-20T14:47:00Z</time>
      </trkpt>
      <trkpt lat="43.6582" lon="3.83013">
        <ele>95</ele>
        <time>2021-02-20T14:47:01Z</time>
      </trkpt>
      <trkpt lat="43.65816" lon="3.83017">
        <ele>95</ele>
        <time>2021-02-20T14:47:02Z</time>
      </trkpt>
      <trkpt lat="43.65812" lon="3.8302">
        <ele>95</ele>
        <time>2021-02-20T14:47:03Z</time>
      </trkpt>
      <trkpt lat="43.65808" lon="3.83024">
        <ele>95</ele>
        <time>2021-02-20T14:47:04Z</time>
      </trkpt>
      <trkpt lat="43.65804" lon="3.83028">
        <ele>93</ele>
        <time>2021-02-20T14:47:05Z</time>
      </trkpt>
      <trkpt lat="43.65799" lon="3.83031">
        <ele>93</ele>
        <time>2021-02-20T14:47:06Z</time>
      </trkpt>
      <trkpt lat="43.65795" lon="3.83035">
        <ele>93</ele>
        <time>2021-02-20T14:47:07Z</time>
      </trkpt>
      <trkpt lat="43.65791" lon="3.83039">
        <ele>93</ele>
        <time>2021-02-20T14:47:08Z</time>
      </trkpt>
      <trkpt lat="43.65788" lon="3.83042">
        <ele>93</ele>
        <time>2021-02-20T14:47:09Z</time>
      </trkpt>
      <trkpt lat="43.65784" lon="3.83046">
        <ele>93</ele>
        <time>2021-02-20T14:47:10Z</time>
      </trkpt>
      <trkpt lat="43.65781" lon="3.8305">
        <ele>93</ele>
        <time>2021-02-20T14:47:11Z</time>
      </trkpt>
      <trkpt lat="43.65777" lon="3.83055">
        <ele>93</ele>
        <time>2021-02-20T14:47:12Z</time>
      </trkpt>
      <trkpt lat="43.65774" lon="3.83059">
        <ele>93</ele>
        <time>2021-02-20T14:47:13Z</time>
      </trkpt>
      <trkpt lat="43.6577" lon="3.83064">
        <ele>93</ele>
        <time>2021-02-20T14:47:14Z</time>
      </trkpt>
      <trkpt lat="43.65766" lon="3.83068">
        <ele>92</ele>
        <time>2021-02-20T14:47:15Z</time>
      </trkpt>
      <trkpt lat="43.65762" lon="3.83072">
        <ele>92</ele>
        <time>2021-02-20T14:47:16Z</time>
      </trkpt>
      <trkpt lat="43.65759" lon="3.83077">
        <ele>92</ele>
        <time>2021-02-20T14:47:17Z</time>
      </trkpt>
      <trkpt lat="43.65755" lon="3.8308">
        <ele>92</ele>
        <time>2021-02-20T14:47:18Z</time>
      </trkpt>
      <trkpt lat="43.65752" lon="3.83085">
        <ele>92</ele>
        <time>2021-02-20T14:47:19Z</time>
      </trkpt>
      <trkpt lat="43.65748" lon="3.83089">
        <ele>92</ele>
        <time>2021-02-20T14:47:20Z</time>
      </trkpt>
      <trkpt lat="43.65745" lon="3.83094">
        <ele>92</ele>
        <time>2021-02-20T14:47:21Z</time>
      </trkpt>
      <trkpt lat="43.65741" lon="3.83098">
        <ele>92</ele>
        <time>2021-02-20T14:47:22Z</time>
      </trkpt>
      <trkpt lat="43.65737" lon="3.83103">
        <ele>92</ele>
        <time>2021-02-20T14:47:23Z</time>
      </trkpt>
      <trkpt lat="43.65733" lon="3.83107">
        <ele>92</ele>
        <time>2021-02-20T14:47:24Z</time>
      </trkpt>
      <trkpt lat="43.6573" lon="3.83112">
        <ele>92</ele>
        <time>2021-02-20T14:47:25Z</time>
      </trkpt>
      <trkpt lat="43.65726" lon="3.83116">
        <ele>92</ele>
        <time>2021-02-20T14:47:26Z</time>
      </trkpt>
      <trkpt lat="43.65722" lon="3.83121">
        <ele>92</ele>
        <time>2021-02-20T14:47:27Z</time>
      </trkpt>
      <trkpt lat="43.65719" lon="3.83126">
        <ele>92</ele>
        <time>2021-02-20T14:47:28Z</time>
      </trkpt>
      <trkpt lat="43.65715" lon="3.8313">
        <ele>92</ele>
        <time>2021-02-20T14:47:29Z</time>
      </trkpt>
      <trkpt lat="43.65712" lon="3.83135">
        <ele>92</ele>
        <time>2021-02-20T14:47:30Z</time>
      </trkpt>
      <trkpt lat="43.65708" lon="3.83139">
        <ele>92</ele>
        <time>2021-02-20T14:47:31Z</time>
      </trkpt>
      <trkpt lat="43.65705" lon="3.83144">
        <ele>92</ele>
        <time>2021-02-20T14:47:32Z</time>
      </trkpt>
      <trkpt lat="43.65701" lon="3.83148">
        <ele>92</ele>
        <time>2021-02-20T14:47:33Z</time>
      </trkpt>
      <trkpt lat="43.65698" lon="3.83152">
        <ele>92</ele>
        <time>2021-02-20T14:47:34Z</time>
      </trkpt>
      <trkpt lat="43.65694" lon="3.83156">
        <ele>92</ele>
        <time>2021-02-20T14:47:35Z</time>
      </trkpt>
      <trkpt lat="43.65691" lon="3.8316">
        <ele>92</ele>
        <time>2021-02-20T14:47:36Z</time>
      </trkpt>
      <trkpt lat="43.65687" lon="3.83164">
        <ele>92</ele>
        <time>2021-02-20T14:47:37Z</time>
      </trkpt>
      <trkpt lat="43.65683" lon="3.83169">
        <ele>92</ele>
        <time>2021-02-20T14:47:38Z</time>
      </trkpt>
      <trkpt lat="43.6568" lon="3.83174">
        <ele>92</ele>
        <time>2021-02-20T14:47:39Z</time>
      </trkpt>
      <trkpt lat="43.65677" lon="3.83178">
        <ele>92</ele>
        <time>2021-02-20T14:47:40Z</time>
      </trkpt>
      <trkpt lat="43.65674" lon="3.83182">
        <ele>92</ele>
        <time>2021-02-20T14:47:41Z</time>
      </trkpt>
      <trkpt lat="43.65671" lon="3.83186">
        <ele>92</ele>
        <time>2021-02-20T14:47:42Z</time>
      </trkpt>
      <trkpt lat="43.65668" lon="3.8319">
        <ele>92</ele>
        <time>2021-02-20T14:47:43Z</time>
      </trkpt>
      <trkpt lat="43.65665" lon="3.83195">
        <ele>92</ele>
        <time>2021-02-20T14:47:44Z</time>
      </trkpt>
      <trkpt lat="43.65661" lon="3.83199">
        <ele>91</ele>
        <time>2021-02-20T14:47:45Z</time>
      </trkpt>
      <trkpt lat="43.65656" lon="3.83203">
        <ele>91</ele>
        <time>2021-02-20T14:47:46Z</time>
      </trkpt>
      <trkpt lat="43.65652" lon="3.83207">
        <ele>91</ele>
        <time>2021-02-20T14:47:47Z</time>
      </trkpt>
      <trkpt lat="43.65648" lon="3.83212">
        <ele>91</ele>
        <time>2021-02-20T14:47:48Z</time>
      </trkpt>
      <trkpt lat="43.65644" lon="3.83216">
        <ele>91</ele>
        <time>2021-02-20T14:47:49Z</time>
      </trkpt>
      <trkpt lat="43.65641" lon="3.83221">
        <ele>91</ele>
        <time>2021-02-20T14:47:50Z</time>
      </trkpt>
      <trkpt lat="43.65637" lon="3.83226">
        <ele>91</ele>
        <time>2021-02-20T14:47:51Z</time>
      </trkpt>
      <trkpt lat="43.65634" lon="3.83231">
        <ele>91</ele>
        <time>2021-02-20T14:47:52Z</time>
      </trkpt>
      <trkpt lat="43.65631" lon="3.83235">
        <ele>91</ele>
        <time>2021-02-20T14:47:53Z</time>
      </trkpt>
      <trkpt lat="43.65627" lon="3.8324">
        <ele>91</ele>
        <time>2021-02-20T14:47:54Z</time>
      </trkpt>
      <trkpt lat="43.65624" lon="3.83244">
        <ele>89</ele>
        <time>2021-02-20T14:47:55Z</time>
      </trkpt>
      <trkpt lat="43.65621" lon="3.83248">
        <ele>89</ele>
        <time>2021-02-20T14:47:56Z</time>
      </trkpt>
      <trkpt lat="43.65617" lon="3.83252">
        <ele>89</ele>
        <time>2021-02-20T14:47:57Z</time>
      </trkpt>
      <trkpt lat="43.65614" lon="3.83256">
        <ele>89</ele>
        <time>2021-02-20T14:47:58Z</time>
      </trkpt>
      <trkpt lat="43.65611" lon="3.8326">
        <ele>89</ele>
        <time>2021-02-20T14:47:59Z</time>
      </trkpt>
      <trkpt lat="43.65608" lon="3.83264">
        <ele>89</ele>
        <time>2021-02-20T14:48:00Z</time>
      </trkpt>
      <trkpt lat="43.65605" lon="3.83269">
        <ele>89</ele>
        <time>2021-02-20T14:48:01Z</time>
      </trkpt>
      <trkpt lat="43.65601" lon="3.83273">
        <ele>89</ele>
        <time>2021-02-20T14:48:02Z</time>
      </trkpt>
      <trkpt lat="43.65598" lon="3.83276">
        <ele>89</ele>
        <time>2021-02-20T14:48:03Z</time>
      </trkpt>
      <trkpt lat="43.65595" lon="3.8328">
        <ele>89</ele>
        <time>2021-02-20T14:48:04Z</time>
      </trkpt>
      <trkpt lat="43.65591" lon="3.83284">
        <ele>88</ele>
        <time>2021-02-20T14:48:05Z</time>
      </trkpt>
      <trkpt lat="43.65588" lon="3.83288">
        <ele>88</ele>
        <time>2021-02-20T14:48:06Z</time>
      </trkpt>
      <trkpt lat="43.65585" lon="3.83292">
        <ele>88</ele>
        <time>2021-02-20T14:48:07Z</time>
      </trkpt>
      <trkpt lat="43.65581" lon="3.83296">
        <ele>88</ele>
        <time>2021-02-20T14:48:08Z</time>
      </trkpt>
      <trkpt lat="43.65578" lon="3.833">
        <ele>88</ele>
        <time>2021-02-20T14:48:09Z</time>
      </trkpt>
      <trkpt lat="43.65575" lon="3.83304">
        <ele>88</ele>
        <time>2021-02-20T14:48:10Z</time>
      </trkpt>
      <trkpt lat="43.65572" lon="3.83308">
        <ele>88</ele>
        <time>2021-02-20T14:48:11Z</time>
      </trkpt>
      <trkpt lat="43.65568" lon="3.83312">
        <ele>88</ele>
        <time>2021-02-20T14:48:12Z</time>
      </trkpt>
      <trkpt lat="43.65565" lon="3.83316">
        <ele>88</ele>
        <time>2021-02-20T14:48:13Z</time>
      </trkpt>
      <trkpt lat="43.65562" lon="3.8332">
        <ele>88</ele>
        <time>2021-02-20T14:48:14Z</time>
      </trkpt>
      <trkpt lat="43.65558" lon="3.83324">
        <ele>87</ele>
        <time>2021-02-20T14:48:15Z</time>
      </trkpt>
      <trkpt lat="43.65555" lon="3.83328">
        <ele>87</ele>
        <time>2021-02-20T14:48:16Z</time>
      </trkpt>
      <trkpt lat="43.65551" lon="3.83333">
        <ele>87</ele>
        <time>2021-02-20T14:48:17Z</time>
      </trkpt>
      <trkpt lat="43.65548" lon="3.83337">
        <ele>87</ele>
        <time>2021-02-20T14:48:18Z</time>
      </trkpt>
      <trkpt lat="43.65545" lon="3.83341">
        <ele>87</ele>
        <time>2021-02-20T14:48:19Z</time>
      </trkpt>
      <trkpt lat="43.65541" lon="3.83345">
        <ele>87</ele>
        <time>2021-02-20T14:48:20Z</time>
      </trkpt>
      <trkpt lat="43.65538" lon="3.83349">
        <ele>87</ele>
        <time>2021-02-20T14:48:21Z</time>
      </trkpt>
      <trkpt lat="43.65534" lon="3.83353">
        <ele>87</ele>
        <time>2021-02-20T14:48:22Z</time>
      </trkpt>
      <trkpt lat="43.65531" lon="3.83357">
        <ele>87</ele>
        <time>2021-02-20T14:48:23Z</time>
      </trkpt>
      <trkpt lat="43.65528" lon="3.83361">
        <ele>87</ele>
        <time>2021-02-20T14:48:24Z</time>
      </trkpt>
      <trkpt lat="43.65525" lon="3.83365">
        <ele>88</ele>
        <time>2021-02-20T14:48:25Z</time>
      </trkpt>
      <trkpt lat="43.65522" lon="3.83369">
        <ele>88</ele>
        <time>2021-02-20T14:48:26Z</time>
      </trkpt>
      <trkpt lat="43.65518" lon="3.83373">
        <ele>88</ele>
        <time>2021-02-20T14:48:27Z</time>
      </trkpt>
      <trkpt lat="43.65515" lon="3.83377">
        <ele>88</ele>
        <time>2021-02-20T14:48:28Z</time>
      </trkpt>
      <trkpt lat="43.65512" lon="3.83381">
        <ele>88</ele>
        <time>2021-02-20T14:48:29Z</time>
      </trkpt>
      <trkpt lat="43.65509" lon="3.83385">
        <ele>88</ele>
        <time>2021-02-20T14:48:30Z</time>
      </trkpt>
      <trkpt lat="43.65506" lon="3.83388">
        <ele>88</ele>
        <time>2021-02-20T14:48:31Z</time>
      </trkpt>
      <trkpt lat="43.65502" lon="3.83392">
        <ele>88</ele>
        <time>2021-02-20T14:48:32Z</time>
      </trkpt>
      <trkpt lat="43.65499" lon="3.83396">
        <ele>88</ele>
        <time>2021-02-20T14:48:33Z</time>
      </trkpt>
      <trkpt lat="43.65496" lon="3.834">
        <ele>88</ele>
        <time>2021-02-20T14:48:34Z</time>
      </trkpt>
      <trkpt lat="43.65493" lon="3.83404">
        <ele>89</ele>
        <time>2021-02-20T14:48:35Z</time>
      </trkpt>
      <trkpt lat="43.6549" lon="3.83408">
        <ele>89</ele>
        <time>2021-02-20T14:48:36Z</time>
      </trkpt>
      <trkpt lat="43.65487" lon="3.83412">
        <ele>89</ele>
        <time>2021-02-20T14:48:37Z</time>
      </trkpt>
      <trkpt lat="43.65484" lon="3.83415">
        <ele>89</ele>
        <time>2021-02-20T14:48:38Z</time>
      </trkpt>
      <trkpt lat="43.65481" lon="3.83419">
        <ele>89</ele>
        <time>2021-02-20T14:48:39Z</time>
      </trkpt>
      <trkpt lat="43.65478" lon="3.83423">
        <ele>89</ele>
        <time>2021-02-20T14:48:40Z</time>
      </trkpt>
      <trkpt lat="43.65475" lon="3.83426">
        <ele>89</ele>
        <time>2021-02-20T14:48:41Z</time>
      </trkpt>
      <trkpt lat="43.65472" lon="3.83429">
        <ele>89</ele>
        <time>2021-02-20T14:48:42Z</time>
      </trkpt>
      <trkpt lat="43.65469" lon="3.83433">
        <ele>89</ele>
        <time>2021-02-20T14:48:43Z</time>
      </trkpt>
      <trkpt lat="43.65467" lon="3.83436">
        <ele>89</ele>
        <time>2021-02-20T14:48:44Z</time>
      </trkpt>
      <trkpt lat="43.65464" lon="3.83439">
        <ele>90</ele>
        <time>2021-02-20T14:48:45Z</time>
      </trkpt>
      <trkpt lat="43.65461" lon="3.83441">
        <ele>90</ele>
        <time>2021-02-20T14:48:46Z</time>
      </trkpt>
      <trkpt lat="43.65459" lon="3.83443">
        <ele>90</ele>
        <time>2021-02-20T14:48:47Z</time>
      </trkpt>
      <trkpt lat="43.65456" lon="3.83445">
        <ele>90</ele>
        <time>2021-02-20T14:48:48Z</time>
      </trkpt>
      <trkpt lat="43.65453" lon="3.83448">
        <ele>90</ele>
        <time>2021-02-20T14:48:49Z</time>
      </trkpt>
      <trkpt lat="43.65451" lon="3.8345">
        <ele>90</ele>
        <time>2021-02-20T14:48:50Z</time>
      </trkpt>
      <trkpt lat="43.6545" lon="3.83451">
        <ele>90</ele>
        <time>2021-02-20T14:48:51Z</time>
      </trkpt>
      <trkpt lat="43.65448" lon="3.83454">
        <ele>90</ele>
        <time>2021-02-20T14:48:52Z</time>
      </trkpt>
      <trkpt lat="43.65445" lon="3.83457">
        <ele>90</ele>
        <time>2021-02-20T14:48:53Z</time>
      </trkpt>
      <trkpt lat="43.65442" lon="3.8346">
        <ele>90</ele>
        <time>2021-02-20T14:48:54Z</time>
      </trkpt>
      <trkpt lat="43.65439" lon="3.83462">
        <ele>91</ele>
        <time>2021-02-20T14:48:55Z</time>
      </trkpt>
      <trkpt lat="43.65436" lon="3.83465">
        <ele>91</ele>
        <time>2021-02-20T14:48:56Z</time>
      </trkpt>
      <trkpt lat="43.65432" lon="3.83469">
        <ele>91</ele>
        <time>2021-02-20T14:48:57Z</time>
      </trkpt>
      <trkpt lat="43.65429" lon="3.83472">
        <ele>91</ele>
        <time>2021-02-20T14:48:58Z</time>
      </trkpt>
      <trkpt lat="43.65426" lon="3.83475">
        <ele>91</ele>
        <time>2021-02-20T14:48:59Z</time>
      </trkpt>
      <trkpt lat="43.65423" lon="3.83478">
        <ele>91</ele>
        <time>2021-02-20T14:49:00Z</time>
      </trkpt>
      <trkpt lat="43.65419" lon="3.83482">
        <ele>91</ele>
        <time>2021-02-20T14:49:01Z</time>
      </trkpt>
      <trkpt lat="43.65416" lon="3.83485">
        <ele>91</ele>
        <time>2021-02-20T14:49:02Z</time>
      </trkpt>
      <trkpt lat="43.65412" lon="3.83488">
        <ele>91</ele>
        <time>2021-02-20T14:49:03Z</time>
      </trkpt>
      <trkpt lat="43.65409" lon="3.83491">
        <ele>91</ele>
        <time>2021-02-20T14:49:04Z</time>
      </trkpt>
      <trkpt lat="43.65405" lon="3.83495">
        <ele>92</ele>
        <time>2021-02-20T14:49:05Z</time>
      </trkpt>
      <trkpt lat="43.65402" lon="3.83498">
        <ele>92</ele>
        <time>2021-02-20T14:49:06Z</time>
      </trkpt>
      <trkpt lat="43.65398" lon="3.83501">
        <ele>92</ele>
        <time>2021-02-20T14:49:07Z</time>
      </trkpt>
      <trkpt lat="43.65394" lon="3.83505">
        <ele>92</ele>
        <time>2021-02-20T14:49:08Z</time>
      </trkpt>
      <trkpt lat="43.65391" lon="3.83508">
        <ele>92</ele>
        <time>2021-02-20T14:49:09Z</time>
      </trkpt>
      <trkpt lat="43.65387" lon="3.83512">
        <ele>92</ele>
        <time>2021-02-20T14:49:10Z</time>
      </trkpt>
      <trkpt lat="43.65384" lon="3.83515">
        <ele>92</ele>
        <time>2021-02-20T14:49:11Z</time>
      </trkpt>
      <trkpt lat="43.6538" lon="3.83518">
        <ele>92</ele>
        <time>2021-02-20T14:49:12Z</time>
      </trkpt>
      <trkpt lat="43.65376" lon="3.83521">
        <ele>92</ele>
        <time>2021-02-20T14:49:13Z</time>
      </trkpt>
      <trkpt lat="43.65373" lon="3.83524">
        <ele>92</ele>
        <time>2021-02-20T14:49:14Z</time>
      </trkpt>
      <trkpt lat="43.65369" lon="3.83528">
        <ele>93</ele>
        <time>2021-02-20T14:49:15Z</time>
      </trkpt>
      <trkpt lat="43.65366" lon="3.83531">
        <ele>93</ele>
        <time>2021-02-20T14:49:16Z</time>
      </trkpt>
      <trkpt lat="43.65363" lon="3.83534">
        <ele>93</ele>
        <time>2021-02-20T14:49:17Z</time>
      </trkpt>
      <trkpt lat="43.65359" lon="3.83537">
        <ele>93</ele>
        <time>2021-02-20T14:49:18Z</time>
      </trkpt>
      <trkpt lat="43.65355" lon="3.8354">
        <ele>93</ele>
        <time>2021-02-20T14:49:19Z</time>
      </trkpt>
      <trkpt lat="43.65352" lon="3.83543">
        <ele>93</ele>
        <time>2021-02-20T14:49:20Z</time>
      </trkpt>
      <trkpt lat="43.65348" lon="3.83546">
        <ele>93</ele>
        <time>2021-02-20T14:49:21Z</time>
      </trkpt>
      <trkpt lat="43.65344" lon="3.83549">
        <ele>93</ele>
        <time>2021-02-20T14:49:22Z</time>
      </trkpt>
      <trkpt lat="43.65341" lon="3.83552">
        <ele>93</ele>
        <time>2021-02-20T14:49:23Z</time>
      </trkpt>
      <trkpt lat="43.65337" lon="3.83555">
        <ele>93</ele>
        <time>2021-02-20T14:49:24Z</time>
      </trkpt>
      <trkpt lat="43.65333" lon="3.83558">
        <ele>93</ele>
        <time>2021-02-20T14:49:25Z</time>
      </trkpt>
      <trkpt lat="43.65329" lon="3.83561">
        <ele>93</ele>
        <time>2021-02-20T14:49:26Z</time>
      </trkpt>
      <trkpt lat="43.65326" lon="3.83564">
        <ele>93</ele>
        <time>2021-02-20T14:49:27Z</time>
      </trkpt>
      <trkpt lat="43.65322" lon="3.83567">
        <ele>93</ele>
        <time>2021-02-20T14:49:28Z</time>
      </trkpt>
      <trkpt lat="43.65319" lon="3.83569">
        <ele>93</ele>
        <time>2021-02-20T14:49:29Z</time>
      </trkpt>
      <trkpt lat="43.65316" lon="3.83572">
        <ele>93</ele>
        <time>2021-02-20T14:49:30Z</time>
      </trkpt>
      <trkpt lat="43.65312" lon="3.83574">
        <ele>93</ele>
        <time>2021-02-20T14:49:31Z</time>
      </trkpt>
      <trkpt lat="43.65309" lon="3.83577">
        <ele>93</ele>
        <time>2021-02-20T14:49:32Z</time>
      </trkpt>
      <trkpt lat="43.65306" lon="3.83579">
        <ele>93</ele>
        <time>2021-02-20T14:49:33Z</time>
      </trkpt>
      <trkpt lat="43.65303" lon="3.83582">
        <ele>93</ele>
        <time>2021-02-20T14:49:34Z</time>
      </trkpt>
      <trkpt lat="43.65299" lon="3.83584">
        <ele>93</ele>
        <time>2021-02-20T14:49:35Z</time>
      </trkpt>
      <trkpt lat="43.65296" lon="3.83586">
        <ele>93</ele>
        <time>2021-02-20T14:49:36Z</time>
      </trkpt>
      <trkpt lat="43.65292" lon="3.83588">
        <ele>93</ele>
        <time>2021-02-20T14:49:37Z</time>
      </trkpt>
      <trkpt lat="43.65288" lon="3.83589">
        <ele>93</ele>
        <time>2021-02-20T14:49:38Z</time>
      </trkpt>
      <trkpt lat="43.65284" lon="3.8359">
        <ele>93</ele>
        <time>2021-02-20T14:49:39Z</time>
      </trkpt>
      <trkpt lat="43.6528" lon="3.83591">
        <ele>93</ele>
        <time>2021-02-20T14:49:40Z</time>
      </trkpt>
      <trkpt lat="43.65276" lon="3.83591">
        <ele>93</ele>
        <time>2021-02-20T14:49:41Z</time>
      </trkpt>
      <trkpt lat="43.65273" lon="3.8359">
        <ele>93</ele>
        <time>2021-02-20T14:49:42Z</time>
      </trkpt>
      <trkpt lat="43.65269" lon="3.8359">
        <ele>93</ele>
        <time>2021-02-20T14:49:43Z</time>
      </trkpt>
      <trkpt lat="43.65266" lon="3.8359">
        <ele>93</ele>
        <time>2021-02-20T14:49:44Z</time>
      </trkpt>
      <trkpt lat="43.65263" lon="3.8359">
        <ele>93</ele>
        <time>2021-02-20T14:49:45Z</time>
      </trkpt>
      <trkpt lat="43.6526" lon="3.83589">
        <ele>93</ele>
        <time>2021-02-20T14:49:46Z</time>
      </trkpt>
      <trkpt lat="43.65257" lon="3.83587">
        <ele>93</ele>
        <time>2021-02-20T14:49:47Z</time>
      </trkpt>
      <trkpt lat="43.65254" lon="3.83586">
        <ele>93</ele>
        <time>2021-02-20T14:49:48Z</time>
      </trkpt>
      <trkpt lat="43.65251" lon="3.83585">
        <ele>93</ele>
        <time>2021-02-20T14:49:49Z</time>
      </trkpt>
      <trkpt lat="43.65248" lon="3.83583">
        <ele>93</ele>
        <time>2021-02-20T14:49:50Z</time>
      </trkpt>
      <trkpt lat="43.65245" lon="3.83582">
        <ele>93</ele>
        <time>2021-02-20T14:49:51Z</time>
      </trkpt>
      <trkpt lat="43.65241" lon="3.8358">
        <ele>93</ele>
        <time>2021-02-20T14:49:52Z</time>
      </trkpt>
      <trkpt lat="43.65237" lon="3.83579">
        <ele>93</ele>
        <time>2021-02-20T14:49:53Z</time>
      </trkpt>
      <trkpt lat="43.65233" lon="3.83577">
        <ele>93</ele>
        <time>2021-02-20T14:49:54Z</time>
      </trkpt>
      <trkpt lat="43.6523" lon="3.83576">
        <ele>93</ele>
        <time>2021-02-20T14:49:55Z</time>
      </trkpt>
      <trkpt lat="43.65226" lon="3.83575">
        <ele>93</ele>
        <time>2021-02-20T14:49:56Z</time>
      </trkpt>
      <trkpt lat="43.65223" lon="3.83573">
        <ele>93</ele>
        <time>2021-02-20T14:49:57Z</time>
      </trkpt>
      <trkpt lat="43.6522" lon="3.83571">
        <ele>93</ele>
        <time>2021-02-20T14:49:58Z</time>
      </trkpt>
      <trkpt lat="43.65216" lon="3.83569">
        <ele>93</ele>
        <time>2021-02-20T14:49:59Z</time>
      </trkpt>
      <trkpt lat="43.65212" lon="3.83566">
        <ele>93</ele>
        <time>2021-02-20T14:50:00Z</time>
      </trkpt>
      <trkpt lat="43.65208" lon="3.83564">
        <ele>93</ele>
        <time>2021-02-20T14:50:01Z</time>
      </trkpt>
      <trkpt lat="43.65204" lon="3.83561">
        <ele>93</ele>
        <time>2021-02-20T14:50:02Z</time>
      </trkpt>
      <trkpt lat="43.652" lon="3.83558">
        <ele>93</ele>
        <time>2021-02-20T14:50:03Z</time>
      </trkpt>
      <trkpt lat="43.65195" lon="3.83556">
        <ele>93</ele>
        <time>2021-02-20T14:50:04Z</time>
      </trkpt>
      <trkpt lat="43.65191" lon="3.83554">
        <ele>93</ele>
        <time>2021-02-20T14:50:05Z</time>
      </trkpt>
      <trkpt lat="43.65187" lon="3.83551">
        <ele>93</ele>
        <time>2021-02-20T14:50:06Z</time>
      </trkpt>
      <trkpt lat="43.65183" lon="3.83548">
        <ele>93</ele>
        <time>2021-02-20T14:50:07Z</time>
      </trkpt>
      <trkpt lat="43.6518" lon="3.83544">
        <ele>93</ele>
        <time>2021-02-20T14:50:08Z</time>
      </trkpt>
      <trkpt lat="43.65176" lon="3.83541">
        <ele>93</ele>
        <time>2021-02-20T14:50:09Z</time>
      </trkpt>
      <trkpt lat="43.65172" lon="3.83538">
        <ele>93</ele>
        <time>2021-02-20T14:50:10Z</time>
      </trkpt>
      <trkpt lat="43.65168" lon="3.83534">
        <ele>93</ele>
        <time>2021-02-20T14:50:11Z</time>
      </trkpt>
      <trkpt lat="43.65163" lon="3.8353">
        <ele>93</ele>
        <time>2021-02-20T14:50:12Z</time>
      </trkpt>
      <trkpt lat="43.65159" lon="3.83526">
        <ele>93</ele>
        <time>2021-02-20T14:50:13Z</time>
      </trkpt>
      <trkpt lat="43.65155" lon="3.83522">
        <ele>93</ele>
        <time>2021-02-20T14:50:14Z</time>
      </trkpt>
      <trkpt lat="43.6515" lon="3.83518">
        <ele>91</ele>
        <time>2021-02-20T14:50:15Z</time>
      </trkpt>
      <trkpt lat="43.65145" lon="3.83515">
        <ele>91</ele>
        <time>2021-02-20T14:50:16Z</time>
      </trkpt>
      <trkpt lat="43.65141" lon="3.83512">
        <ele>91</ele>
        <time>2021-02-20T14:50:17Z</time>
      </trkpt>
      <trkpt lat="43.65136" lon="3.83508">
        <ele>91</ele>
        <time>2021-02-20T14:50:18Z</time>
      </trkpt>
      <trkpt lat="43.65131" lon="3.83504">
        <ele>91</ele>
        <time>2021-02-20T14:50:19Z</time>
      </trkpt>
      <trkpt lat="43.65126" lon="3.835">
        <ele>91</ele>
        <time>2021-02-20T14:50:20Z</time>
      </trkpt>
      <trkpt lat="43.65121" lon="3.83496">
        <ele>91</ele>
        <time>2021-02-20T14:50:21Z</time>
      </trkpt>
      <trkpt lat="43.65116" lon="3.83492">
        <ele>91</ele>
        <time>2021-02-20T14:50:22Z</time>
      </trkpt>
      <trkpt lat="43.65111" lon="3.83488">
        <ele>91</ele>
        <time>2021-02-20T14:50:23Z</time>
      </trkpt>
      <trkpt lat="43.65107" lon="3.83484">
        <ele>91</ele>
        <time>2021-02-20T14:50:24Z</time>
      </trkpt>
      <trkpt lat="43.65102" lon="3.8348">
        <ele>90</ele>
        <time>2021-02-20T14:50:25Z</time>
      </trkpt>
      <trkpt lat="43.65098" lon="3.83476">
        <ele>90</ele>
        <time>2021-02-20T14:50:26Z</time>
      </trkpt>
      <trkpt lat="43.65094" lon="3.83472">
        <ele>90</ele>
        <time>2021-02-20T14:50:27Z</time>
      </trkpt>
      <trkpt lat="43.6509" lon="3.83467">
        <ele>90</ele>
        <time>2021-02-20T14:50:28Z</time>
      </trkpt>
      <trkpt lat="43.65086" lon="3.83463">
        <ele>90</ele>
        <time>2021-02-20T14:50:29Z</time>
      </trkpt>
      <trkpt lat="43.65082" lon="3.83458">
        <ele>90</ele>
        <time>2021-02-20T14:50:30Z</time>
      </trkpt>
      <trkpt lat="43.65078" lon="3.83453">
        <ele>90</ele>
        <time>2021-02-20T14:50:31Z</time>
      </trkpt>
      <trkpt lat="43.65074" lon="3.83449">
        <ele>90</ele>
        <time>2021-02-20T14:50:32Z</time>
      </trkpt>
      <trkpt lat="43.6507" lon="3.83444">
        <ele>90</ele>
        <time>2021-02-20T14:50:33Z</time>
      </trkpt>
      <trkpt lat="43.65066" lon="3.83439">
        <ele>90</ele>
        <time>2021-02-20T14:50:34Z</time>
      </trkpt>
      <trkpt lat="43.65062" lon="3.83434">
        <ele>88</ele>
        <time>2021-02-20T14:50:35Z</time>
      </trkpt>
      <trkpt lat="43.65057" lon="3.8343">
        <ele>88</ele>
        <time>2021-02-20T14:50:36Z</time>
      </trkpt>
      <trkpt lat="43.65054" lon="3.83425">
        <ele>88</ele>
        <time>2021-02-20T14:50:37Z</time>
      </trkpt>
      <trkpt lat="43.6505" lon="3.83421">
        <ele>88</ele>
        <time>2021-02-20T14:50:38Z</time>
      </trkpt>
      <trkpt lat="43.65046" lon="3.83417">
        <ele>88</ele>
        <time>2021-02-20T14:50:39Z</time>
      </trkpt>
      <trkpt lat="43.65043" lon="3.83412">
        <ele>88</ele>
        <time>2021-02-20T14:50:40Z</time>
      </trkpt>
      <trkpt lat="43.6504" lon="3.83407">
        <ele>88</ele>
        <time>2021-02-20T14:50:41Z</time>
      </trkpt>
      <trkpt lat="43.65037" lon="3.83402">
        <ele>88</ele>
        <time>2021-02-20T14:50:42Z</time>
      </trkpt>
      <trkpt lat="43.65034" lon="3.83397">
        <ele>88</ele>
        <time>2021-02-20T14:50:43Z</time>
      </trkpt>
      <trkpt lat="43.65031" lon="3.83392">
        <ele>88</ele>
        <time>2021-02-20T14:50:44Z</time>
      </trkpt>
      <trkpt lat="43.65027" lon="3.83387">
        <ele>87</ele>
        <time>2021-02-20T14:50:45Z</time>
      </trkpt>
      <trkpt lat="43.65024" lon="3.83383">
        <ele>87</ele>
        <time>2021-02-20T14:50:46Z</time>
      </trkpt>
      <trkpt lat="43.6502" lon="3.83378">
        <ele>87</ele>
        <time>2021-02-20T14:50:47Z</time>
      </trkpt>
      <trkpt lat="43.65016" lon="3.83373">
        <ele>87</ele>
        <time>2021-02-20T14:50:48Z</time>
      </trkpt>
      <trkpt lat="43.65012" lon="3.83369">
        <ele>87</ele>
        <time>2021-02-20T14:50:49Z</time>
      </trkpt>
      <trkpt lat="43.65008" lon="3.83364">
        <ele>87</ele>
        <time>2021-02-20T14:50:50Z</time>
      </trkpt>
      <trkpt lat="43.65004" lon="3.8336">
        <ele>87</ele>
        <time>2021-02-20T14:50:51Z</time>
      </trkpt>
      <trkpt lat="43.65" lon="3.83355">
        <ele>87</ele>
        <time>2021-02-20T14:50:52Z</time>
      </trkpt>
      <trkpt lat="43.64996" lon="3.8335">
        <ele>87</ele>
        <time>2021-02-20T14:50:53Z</time>
      </trkpt>
      <trkpt lat="43.64991" lon="3.83346">
        <ele>87</ele>
        <time>2021-02-20T14:50:54Z</time>
      </trkpt>
      <trkpt lat="43.64987" lon="3.83341">
        <ele>87</ele>
        <time>2021-02-20T14:50:55Z</time>
      </trkpt>
      <trkpt lat="43.64983" lon="3.83336">
        <ele>87</ele>
        <time>2021-02-20T14:50:56Z</time>
      </trkpt>
      <trkpt lat="43.64978" lon="3.83332">
        <ele>87</ele>
        <time>2021-02-20T14:50:57Z</time>
      </trkpt>
      <trkpt lat="43.64974" lon="3.83327">
        <ele>87</ele>
        <time>2021-02-20T14:50:58Z</time>
      </trkpt>
      <trkpt lat="43.6497" lon="3.83322">
        <ele>87</ele>
        <time>2021-02-20T14:50:59Z</time>
      </trkpt>
      <trkpt lat="43.64961" lon="3.83314">
        <ele>87</ele>
        <time>2021-02-20T14:51:01Z</time>
      </trkpt>
      <trkpt lat="43.64956" lon="3.8331">
        <ele>87</ele>
        <time>2021-02-20T14:51:02Z</time>
      </trkpt>
      <trkpt lat="43.64951" lon="3.83306">
        <ele>87</ele>
        <time>2021-02-20T14:51:03Z</time>
      </trkpt>
      <trkpt lat="43.64947" lon="3.83302">
        <ele>87</ele>
        <time>2021-02-20T14:51:04Z</time>
      </trkpt>
      <trkpt lat="43.64942" lon="3.83298">
        <ele>85</ele>
        <time>2021-02-20T14:51:05Z</time>
      </trkpt>
      <trkpt lat="43.64937" lon="3.83294">
        <ele>85</ele>
        <time>2021-02-20T14:51:06Z</time>
      </trkpt>
      <trkpt lat="43.64932" lon="3.83289">
        <ele>85</ele>
        <time>2021-02-20T14:51:07Z</time>
      </trkpt>
      <trkpt lat="43.64928" lon="3.83285">
        <ele>85</ele>
        <time>2021-02-20T14:51:08Z</time>
      </trkpt>
      <trkpt lat="43.64922" lon="3.8328">
        <ele>85</ele>
        <time>2021-02-20T14:51:09Z</time>
      </trkpt>
      <trkpt lat="43.64917" lon="3.83276">
        <ele>85</ele>
        <time>2021-02-20T14:51:10Z</time>
      </trkpt>
      <trkpt lat="43.64912" lon="3.83272">
        <ele>85</ele>
        <time>2021-02-20T14:51:11Z</time>
      </trkpt>
      <trkpt lat="43.64906" lon="3.83269">
        <ele>85</ele>
        <time>2021-02-20T14:51:12Z</time>
      </trkpt>
      <trkpt lat="43.64901" lon="3.83265">
        <ele>85</ele>
        <time>2021-02-20T14:51:13Z</time>
      </trkpt>
      <trkpt lat="43.64895" lon="3.83262">
        <ele>85</ele>
        <time>2021-02-20T14:51:14Z</time>
      </trkpt>
      <trkpt lat="43.6489" lon="3.83259">
        <ele>82</ele>
        <time>2021-02-20T14:51:15Z</time>
      </trkpt>
      <trkpt lat="43.64884" lon="3.83256">
        <ele>82</ele>
        <time>2021-02-20T14:51:16Z</time>
      </trkpt>
      <trkpt lat="43.64879" lon="3.83253">
        <ele>82</ele>
        <time>2021-02-20T14:51:17Z</time>
      </trkpt>
      <trkpt lat="43.64873" lon="3.8325">
        <ele>82</ele>
        <time>2021-02-20T14:51:18Z</time>
      </trkpt>
      <trkpt lat="43.64868" lon="3.83247">
        <ele>82</ele>
        <time>2021-02-20T14:51:19Z</time>
      </trkpt>
      <trkpt lat="43.64862" lon="3.83244">
        <ele>82</ele>
        <time>2021-02-20T14:51:20Z</time>
      </trkpt>
      <trkpt lat="43.64857" lon="3.83241">
        <ele>82</ele>
        <time>2021-02-20T14:51:21Z</time>
      </trkpt>
      <trkpt lat="43.64852" lon="3.83238">
        <ele>82</ele>
        <time>2021-02-20T14:51:22Z</time>
      </trkpt>
      <trkpt lat="43.64847" lon="3.83235">
        <ele>82</ele>
        <time>2021-02-20T14:51:23Z</time>
      </trkpt>
      <trkpt lat="43.64843" lon="3.83231">
        <ele>82</ele>
        <time>2021-02-20T14:51:24Z</time>
      </trkpt>
      <trkpt lat="43.64839" lon="3.83226">
        <ele>81</ele>
        <time>2021-02-20T14:51:25Z</time>
      </trkpt>
      <trkpt lat="43.64837" lon="3.8322">
        <ele>81</ele>
        <time>2021-02-20T14:51:26Z</time>
      </trkpt>
      <trkpt lat="43.64831" lon="3.83211">
        <ele>81</ele>
        <time>2021-02-20T14:51:28Z</time>
      </trkpt>
      <trkpt lat="43.64827" lon="3.83207">
        <ele>81</ele>
        <time>2021-02-20T14:51:29Z</time>
      </trkpt>
      <trkpt lat="43.64824" lon="3.83205">
        <ele>81</ele>
        <time>2021-02-20T14:51:30Z</time>
      </trkpt>
      <trkpt lat="43.6482" lon="3.83203">
        <ele>81</ele>
        <time>2021-02-20T14:51:31Z</time>
      </trkpt>
      <trkpt lat="43.64816" lon="3.83202">
        <ele>81</ele>
        <time>2021-02-20T14:51:32Z</time>
      </trkpt>
      <trkpt lat="43.64811" lon="3.83202">
        <ele>81</ele>
        <time>2021-02-20T14:51:33Z</time>
      </trkpt>
      <trkpt lat="43.64807" lon="3.83203">
        <ele>81</ele>
        <time>2021-02-20T14:51:34Z</time>
      </trkpt>
      <trkpt lat="43.64803" lon="3.83205">
        <ele>80</ele>
        <time>2021-02-20T14:51:35Z</time>
      </trkpt>
      <trkpt lat="43.64798" lon="3.83206">
        <ele>80</ele>
        <time>2021-02-20T14:51:36Z</time>
      </trkpt>
      <trkpt lat="43.64794" lon="3.83206">
        <ele>80</ele>
        <time>2021-02-20T14:51:37Z</time>
      </trkpt>
      <trkpt lat="43.64789" lon="3.83203">
        <ele>80</ele>
        <time>2021-02-20T14:51:38Z</time>
      </trkpt>
      <trkpt lat="43.64785" lon="3.832">
        <ele>80</ele>
        <time>2021-02-20T14:51:39Z</time>
      </trkpt>
      <trkpt lat="43.6478" lon="3.83197">
        <ele>80</ele>
        <time>2021-02-20T14:51:40Z</time>
      </trkpt>
      <trkpt lat="43.64776" lon="3.83195">
        <ele>80</ele>
        <time>2021-02-20T14:51:41Z</time>
      </trkpt>
      <trkpt lat="43.64771" lon="3.83192">
        <ele>80</ele>
        <time>2021-02-20T14:51:42Z</time>
      </trkpt>
      <trkpt lat="43.64766" lon="3.8319">
        <ele>80</ele>
        <time>2021-02-20T14:51:43Z</time>
      </trkpt>
      <trkpt lat="43.6476" lon="3.83187">
        <ele>80</ele>
        <time>2021-02-20T14:51:44Z</time>
      </trkpt>
      <trkpt lat="43.64755" lon="3.83184">
        <ele>80</ele>
        <time>2021-02-20T14:51:45Z</time>
      </trkpt>
      <trkpt lat="43.6475" lon="3.83182">
        <ele>80</ele>
        <time>2021-02-20T14:51:46Z</time>
      </trkpt>
      <trkpt lat="43.64746" lon="3.83179">
        <ele>80</ele>
        <time>2021-02-20T14:51:47Z</time>
      </trkpt>
      <trkpt lat="43.64741" lon="3.83176">
        <ele>80</ele>
        <time>2021-02-20T14:51:48Z</time>
      </trkpt>
      <trkpt lat="43.64736" lon="3.83173">
        <ele>80</ele>
        <time>2021-02-20T14:51:49Z</time>
      </trkpt>
      <trkpt lat="43.64731" lon="3.83171">
        <ele>80</ele>
        <time>2021-02-20T14:51:50Z</time>
      </trkpt>
      <trkpt lat="43.64727" lon="3.83168">
        <ele>80</ele>
        <time>2021-02-20T14:51:51Z</time>
      </trkpt>
      <trkpt lat="43.64723" lon="3.83166">
        <ele>80</ele>
        <time>2021-02-20T14:51:52Z</time>
      </trkpt>
      <trkpt lat="43.64718" lon="3.83163">
        <ele>80</ele>
        <time>2021-02-20T14:51:53Z</time>
      </trkpt>
      <trkpt lat="43.64714" lon="3.8316">
        <ele>80</ele>
        <time>2021-02-20T14:51:54Z</time>
      </trkpt>
      <trkpt lat="43.6471" lon="3.83158">
        <ele>80</ele>
        <time>2021-02-20T14:51:55Z</time>
      </trkpt>
      <trkpt lat="43.64705" lon="3.83156">
        <ele>80</ele>
        <time>2021-02-20T14:51:56Z</time>
      </trkpt>
      <trkpt lat="43.64701" lon="3.83153">
        <ele>80</ele>
        <time>2021-02-20T14:51:57Z</time>
      </trkpt>
      <trkpt lat="43.64697" lon="3.83151">
        <ele>80</ele>
        <time>2021-02-20T14:51:58Z</time>
      </trkpt>
      <trkpt lat="43.64694" lon="3.83148">
        <ele>80</ele>
        <time>2021-02-20T14:51:59Z</time>
      </trkpt>
      <trkpt lat="43.64692" lon="3.83143">
        <ele>80</ele>
        <time>2021-02-20T14:52:00Z</time>
      </trkpt>
      <trkpt lat="43.64692" lon="3.83138">
        <ele>80</ele>
        <time>2021-02-20T14:52:01Z</time>
      </trkpt>
      <trkpt lat="43.64692" lon="3.83134">
        <ele>80</ele>
        <time>2021-02-20T14:52:02Z</time>
      </trkpt>
      <trkpt lat="43.64694" lon="3.8313">
        <ele>80</ele>
        <time>2021-02-20T14:52:03Z</time>
      </trkpt>
      <trkpt lat="43.64694" lon="3.83127">
        <ele>80</ele>
        <time>2021-02-20T14:52:04Z</time>
      </trkpt>
      <trkpt lat="43.64692" lon="3.83123">
        <ele>80</ele>
        <time>2021-02-20T14:52:06Z</time>
      </trkpt>
      <trkpt lat="43.64691" lon="3.83122">
        <ele>80</ele>
        <time>2021-02-20T14:52:07Z</time>
      </trkpt>
      <trkpt lat="43.64688" lon="3.8312">
        <ele>80</ele>
        <time>2021-02-20T14:52:09Z</time>
      </trkpt>
      <trkpt lat="43.64686" lon="3.83119">
        <ele>80</ele>
        <time>2021-02-20T14:52:10Z</time>
      </trkpt>
      <trkpt lat="43.64684" lon="3.83118">
        <ele>80</ele>
        <time>2021-02-20T14:52:11Z</time>
      </trkpt>
      <trkpt lat="43.64681" lon="3.83118">
        <ele>80</ele>
        <time>2021-02-20T14:52:12Z</time>
      </trkpt>
      <trkpt lat="43.64679" lon="3.83119">
        <ele>80</ele>
        <time>2021-02-20T14:52:13Z</time>
      </trkpt>
      <trkpt lat="43.64676" lon="3.8312">
        <ele>80</ele>
        <time>2021-02-20T14:52:14Z</time>
      </trkpt>
      <trkpt lat="43.64672" lon="3.83122">
        <ele>80</ele>
        <time>2021-02-20T14:52:15Z</time>
      </trkpt>
      <trkpt lat="43.64669" lon="3.83123">
        <ele>80</ele>
        <time>2021-02-20T14:52:16Z</time>
      </trkpt>
      <trkpt lat="43.64665" lon="3.83125">
        <ele>80</ele>
        <time>2021-02-20T14:52:17Z</time>
      </trkpt>
      <trkpt lat="43.64662" lon="3.83127">
        <ele>80</ele>
        <time>2021-02-20T14:52:18Z</time>
      </trkpt>
      <trkpt lat="43.64659" lon="3.83128">
        <ele>80</ele>
        <time>2021-02-20T14:52:19Z</time>
      </trkpt>
      <trkpt lat="43.64652" lon="3.83127">
        <ele>80</ele>
        <time>2021-02-20T14:52:21Z</time>
      </trkpt>
      <trkpt lat="43.64648" lon="3.83124">
        <ele>80</ele>
        <time>2021-02-20T14:52:22Z</time>
      </trkpt>
      <trkpt lat="43.64645" lon="3.83121">
        <ele>80</ele>
        <time>2021-02-20T14:52:23Z</time>
      </trkpt>
      <trkpt lat="43.64641" lon="3.83118">
        <ele>80</ele>
        <time>2021-02-20T14:52:24Z</time>
      </trkpt>
      <trkpt lat="43.64637" lon="3.83115">
        <ele>79</ele>
        <time>2021-02-20T14:52:25Z</time>
      </trkpt>
      <trkpt lat="43.64633" lon="3.83112">
        <ele>79</ele>
        <time>2021-02-20T14:52:26Z</time>
      </trkpt>
      <trkpt lat="43.64629" lon="3.83109">
        <ele>79</ele>
        <time>2021-02-20T14:52:27Z</time>
      </trkpt>
      <trkpt lat="43.64625" lon="3.83104">
        <ele>79</ele>
        <time>2021-02-20T14:52:28Z</time>
      </trkpt>
      <trkpt lat="43.64621" lon="3.831">
        <ele>79</ele>
        <time>2021-02-20T14:52:29Z</time>
      </trkpt>
      <trkpt lat="43.64617" lon="3.83095">
        <ele>79</ele>
        <time>2021-02-20T14:52:30Z</time>
      </trkpt>
      <trkpt lat="43.64614" lon="3.8309">
        <ele>79</ele>
        <time>2021-02-20T14:52:31Z</time>
      </trkpt>
      <trkpt lat="43.6461" lon="3.83085">
        <ele>79</ele>
        <time>2021-02-20T14:52:32Z</time>
      </trkpt>
      <trkpt lat="43.64606" lon="3.8308">
        <ele>79</ele>
        <time>2021-02-20T14:52:33Z</time>
      </trkpt>
      <trkpt lat="43.64602" lon="3.83075">
        <ele>79</ele>
        <time>2021-02-20T14:52:34Z</time>
      </trkpt>
      <trkpt lat="43.64599" lon="3.83069">
        <ele>79</ele>
        <time>2021-02-20T14:52:35Z</time>
      </trkpt>
      <trkpt lat="43.64596" lon="3.83064">
        <ele>79</ele>
        <time>2021-02-20T14:52:36Z</time>
      </trkpt>
      <trkpt lat="43.64594" lon="3.83058">
        <ele>79</ele>
        <time>2021-02-20T14:52:37Z</time>
      </trkpt>
      <trkpt lat="43.64591" lon="3.83053">
        <ele>79</ele>
        <time>2021-02-20T14:52:38Z</time>
      </trkpt>
      <trkpt lat="43.64589" lon="3.83047">
        <ele>79</ele>
        <time>2021-02-20T14:52:39Z</time>
      </trkpt>
      <trkpt lat="43.64586" lon="3.83042">
        <ele>79</ele>
        <time>2021-02-20T14:52:40Z</time>
      </trkpt>
      <trkpt lat="43.64584" lon="3.83036">
        <ele>79</ele>
        <time>2021-02-20T14:52:41Z</time>
      </trkpt>
      <trkpt lat="43.64582" lon="3.8303">
        <ele>79</ele>
        <time>2021-02-20T14:52:42Z</time>
      </trkpt>
      <trkpt lat="43.64579" lon="3.83025">
        <ele>79</ele>
        <time>2021-02-20T14:52:43Z</time>
      </trkpt>
      <trkpt lat="43.64576" lon="3.8302">
        <ele>79</ele>
        <time>2021-02-20T14:52:44Z</time>
      </trkpt>
      <trkpt lat="43.64573" lon="3.83017">
        <ele>79</ele>
        <time>2021-02-20T14:52:45Z</time>
      </trkpt>
      <trkpt lat="43.6457" lon="3.83013">
        <ele>79</ele>
        <time>2021-02-20T14:52:46Z</time>
      </trkpt>
      <trkpt lat="43.64567" lon="3.83008">
        <ele>79</ele>
        <time>2021-02-20T14:52:47Z</time>
      </trkpt>
      <trkpt lat="43.64567" lon="3.83002">
        <ele>79</ele>
        <time>2021-02-20T14:52:48Z</time>
      </trkpt>
      <trkpt lat="43.64567" lon="3.82996">
        <ele>79</ele>
        <time>2021-02-20T14:52:49Z</time>
      </trkpt>
      <trkpt lat="43.64567" lon="3.82991">
        <ele>79</ele>
        <time>2021-02-20T14:52:50Z</time>
      </trkpt>
      <trkpt lat="43.64568" lon="3.82986">
        <ele>79</ele>
        <time>2021-02-20T14:52:51Z</time>
      </trkpt>
      <trkpt lat="43.64569" lon="3.82983">
        <ele>79</ele>
        <time>2021-02-20T14:52:52Z</time>
      </trkpt>
      <trkpt lat="43.6457" lon="3.82979">
        <ele>79</ele>
        <time>2021-02-20T14:52:53Z</time>
      </trkpt>
      <trkpt lat="43.64571" lon="3.82976">
        <ele>79</ele>
        <time>2021-02-20T14:52:54Z</time>
      </trkpt>
      <trkpt lat="43.64572" lon="3.82972">
        <ele>81</ele>
        <time>2021-02-20T14:52:55Z</time>
      </trkpt>
      <trkpt lat="43.64573" lon="3.82969">
        <ele>81</ele>
        <time>2021-02-20T14:52:56Z</time>
      </trkpt>
      <trkpt lat="43.64576" lon="3.82967">
        <ele>81</ele>
        <time>2021-02-20T14:52:57Z</time>
      </trkpt>
      <trkpt lat="43.64578" lon="3.82965">
        <ele>81</ele>
        <time>2021-02-20T14:52:58Z</time>
      </trkpt>
      <trkpt lat="43.6458" lon="3.82963">
        <ele>81</ele>
        <time>2021-02-20T14:52:59Z</time>
      </trkpt>
      <trkpt lat="43.64582" lon="3.82961">
        <ele>81</ele>
        <time>2021-02-20T14:53:00Z</time>
      </trkpt>
      <trkpt lat="43.64584" lon="3.82959">
        <ele>81</ele>
        <time>2021-02-20T14:53:01Z</time>
      </trkpt>
      <trkpt lat="43.64586" lon="3.82957">
        <ele>81</ele>
        <time>2021-02-20T14:53:02Z</time>
      </trkpt>
      <trkpt lat="43.64588" lon="3.82955">
        <ele>81</ele>
        <time>2021-02-20T14:53:03Z</time>
      </trkpt>
      <trkpt lat="43.6459" lon="3.82954">
        <ele>81</ele>
        <time>2021-02-20T14:53:04Z</time>
      </trkpt>
      <trkpt lat="43.64592" lon="3.82952">
        <ele>82</ele>
        <time>2021-02-20T14:53:05Z</time>
      </trkpt>
      <trkpt lat="43.64594" lon="3.82949">
        <ele>82</ele>
        <time>2021-02-20T14:53:06Z</time>
      </trkpt>
      <trkpt lat="43.64599" lon="3.82944">
        <ele>82</ele>
        <time>2021-02-20T14:53:08Z</time>
      </trkpt>
      <trkpt lat="43.64601" lon="3.82943">
        <ele>82</ele>
        <time>2021-02-20T14:53:09Z</time>
      </trkpt>
      <trkpt lat="43.64603" lon="3.82941">
        <ele>82</ele>
        <time>2021-02-20T14:53:10Z</time>
      </trkpt>
      <trkpt lat="43.64605" lon="3.82939">
        <ele>82</ele>
        <time>2021-02-20T14:53:11Z</time>
      </trkpt>
      <trkpt lat="43.64607" lon="3.82937">
        <ele>82</ele>
        <time>2021-02-20T14:53:12Z</time>
      </trkpt>
      <trkpt lat="43.6461" lon="3.82934">
        <ele>82</ele>
        <time>2021-02-20T14:53:13Z</time>
      </trkpt>
      <trkpt lat="43.64612" lon="3.82932">
        <ele>82</ele>
        <time>2021-02-20T14:53:14Z</time>
      </trkpt>
      <trkpt lat="43.64614" lon="3.82929">
        <ele>83</ele>
        <time>2021-02-20T14:53:15Z</time>
      </trkpt>
      <trkpt lat="43.64617" lon="3.82927">
        <ele>83</ele>
        <time>2021-02-20T14:53:16Z</time>
      </trkpt>
      <trkpt lat="43.64619" lon="3.82924">
        <ele>83</ele>
        <time>2021-02-20T14:53:17Z</time>
      </trkpt>
      <trkpt lat="43.64622" lon="3.82922">
        <ele>83</ele>
        <time>2021-02-20T14:53:18Z</time>
      </trkpt>
      <trkpt lat="43.64624" lon="3.82919">
        <ele>83</ele>
        <time>2021-02-20T14:53:19Z</time>
      </trkpt>
      <trkpt lat="43.64626" lon="3.82916">
        <ele>83</ele>
        <time>2021-02-20T14:53:20Z</time>
      </trkpt>
      <trkpt lat="43.64629" lon="3.82914">
        <ele>83</ele>
        <time>2021-02-20T14:53:21Z</time>
      </trkpt>
      <trkpt lat="43.64631" lon="3.82911">
        <ele>83</ele>
        <time>2021-02-20T14:53:22Z</time>
      </trkpt>
      <trkpt lat="43.64633" lon="3.82909">
        <ele>83</ele>
        <time>2021-02-20T14:53:23Z</time>
      </trkpt>
      <trkpt lat="43.64635" lon="3.82907">
        <ele>83</ele>
        <time>2021-02-20T14:53:24Z</time>
      </trkpt>
      <trkpt lat="43.64637" lon="3.82906">
        <ele>83</ele>
        <time>2021-02-20T14:53:25Z</time>
      </trkpt>
      <trkpt lat="43.64639" lon="3.82904">
        <ele>83</ele>
        <time>2021-02-20T14:53:26Z</time>
      </trkpt>
      <trkpt lat="43.64641" lon="3.82903">
        <ele>83</ele>
        <time>2021-02-20T14:53:27Z</time>
      </trkpt>
      <trkpt lat="43.64644" lon="3.82901">
        <ele>83</ele>
        <time>2021-02-20T14:53:29Z</time>
      </trkpt>
      <trkpt lat="43.64645" lon="3.82898">
        <ele>83</ele>
        <time>2021-02-20T14:53:31Z</time>
      </trkpt>
      <trkpt lat="43.64642" lon="3.82893">
        <ele>83</ele>
        <time>2021-02-20T14:53:43Z</time>
      </trkpt>
      <trkpt lat="43.6464" lon="3.82892">
        <ele>83</ele>
        <time>2021-02-20T14:53:44Z</time>
      </trkpt>
      <trkpt lat="43.64638" lon="3.82891">
        <ele>83</ele>
        <time>2021-02-20T14:53:46Z</time>
      </trkpt>
      <trkpt lat="43.64636" lon="3.8289">
        <ele>83</ele>
        <time>2021-02-20T14:53:48Z</time>
      </trkpt>
      <trkpt lat="43.64635" lon="3.8289">
        <ele>83</ele>
        <time>2021-02-20T14:53:53Z</time>
      </trkpt>
      <trkpt lat="43.64629" lon="3.82881">
        <ele>86</ele>
        <time>2021-02-20T14:54:43Z</time>
      </trkpt>
      <trkpt lat="43.64628" lon="3.82878">
        <ele>86</ele>
        <time>2021-02-20T14:54:45Z</time>
      </trkpt>
      <trkpt lat="43.64628" lon="3.82875">
        <ele>86</ele>
        <time>2021-02-20T14:54:48Z</time>
      </trkpt>
      <trkpt lat="43.64628" lon="3.82872">
        <ele>86</ele>
        <time>2021-02-20T14:54:51Z</time>
      </trkpt>
      <trkpt lat="43.64629" lon="3.82869">
        <ele>86</ele>
        <time>2021-02-20T14:54:54Z</time>
      </trkpt>
      <trkpt lat="43.64629" lon="3.82866">
        <ele>86</ele>
        <time>2021-02-20T14:54:58Z</time>
      </trkpt>
      <trkpt lat="43.64629" lon="3.82862">
        <ele>86</ele>
        <time>2021-02-20T14:55:01Z</time>
      </trkpt>
      <trkpt lat="43.6463" lon="3.82859">
        <ele>86</ele>
        <time>2021-02-20T14:55:03Z</time>
      </trkpt>
      <trkpt lat="43.64631" lon="3.82856">
        <ele>86</ele>
        <time>2021-02-20T14:55:05Z</time>
      </trkpt>
      <trkpt lat="43.64632" lon="3.82854">
        <ele>86</ele>
        <time>2021-02-20T14:55:07Z</time>
      </trkpt>
      <trkpt lat="43.64634" lon="3.82855">
        <ele>86</ele>
        <time>2021-02-20T14:55:11Z</time>
      </trkpt>
      <trkpt lat="43.64635" lon="3.82856">
        <ele>91</ele>
        <time>2021-02-20T14:55:17Z</time>
      </trkpt>
      <trkpt lat="43.64632" lon="3.8286">
        <ele>91</ele>
        <time>2021-02-20T14:55:22Z</time>
      </trkpt>
      <trkpt lat="43.64631" lon="3.82858">
        <ele>91</ele>
        <time>2021-02-20T14:55:25Z</time>
      </trkpt>
      <trkpt lat="43.64633" lon="3.82858">
        <ele>91</ele>
        <time>2021-02-20T14:55:28Z</time>
      </trkpt>
      <trkpt lat="43.64634" lon="3.82859">
        <ele>91</ele>
        <time>2021-02-20T14:55:30Z</time>
      </trkpt>
      <trkpt lat="43.64635" lon="3.82862">
        <ele>91</ele>
        <time>2021-02-20T14:55:36Z</time>
      </trkpt>
      <trkpt lat="43.64634" lon="3.82861">
        <ele>93</ele>
        <time>2021-02-20T14:55:39Z</time>
      </trkpt>
      <trkpt lat="43.64633" lon="3.82866">
        <ele>94</ele>
        <time>2021-02-20T14:55:48Z</time>
      </trkpt>
      <trkpt lat="43.64634" lon="3.82867">
        <ele>94</ele>
        <time>2021-02-20T14:55:50Z</time>
      </trkpt>
      <trkpt lat="43.64637" lon="3.82867">
        <ele>94</ele>
        <time>2021-02-20T14:55:57Z</time>
      </trkpt>
      <trkpt lat="43.64637" lon="3.82865">
        <ele>94</ele>
        <time>2021-02-20T14:55:58Z</time>
      </trkpt>
      <trkpt lat="43.64636" lon="3.8286">
        <ele>94</ele>
        <time>2021-02-20T14:56:04Z</time>
      </trkpt>
      <trkpt lat="43.64626" lon="3.82868">
        <ele>108</ele>
        <time>2021-02-20T14:59:15Z</time>
      </trkpt>
      <trkpt lat="43.64626" lon="3.82869">
        <ele>108</ele>
        <time>2021-02-20T14:59:17Z</time>
      </trkpt>
      <trkpt lat="43.64629" lon="3.82869">
        <ele>110</ele>
        <time>2021-02-20T14:59:49Z</time>
      </trkpt>
      <trkpt lat="43.64631" lon="3.82865">
        <ele>111</ele>
        <time>2021-02-20T15:00:49Z</time>
      </trkpt>
      <trkpt lat="43.64627" lon="3.82871">
        <ele>111</ele>
        <time>2021-02-20T15:01:07Z</time>
      </trkpt>
      <trkpt lat="43.64626" lon="3.82872">
        <ele>118</ele>
        <time>2021-02-20T15:01:16Z</time>
      </trkpt>
      <trkpt lat="43.64626" lon="3.8287">
        <ele>118</ele>
        <time>2021-02-20T15:01:51Z</time>
      </trkpt>
      <trkpt lat="43.64623" lon="3.82879">
        <ele>119</ele>
        <time>2021-02-20T15:03:17Z</time>
      </trkpt>
      <trkpt lat="43.64624" lon="3.82879">
        <ele>120</ele>
        <time>2021-02-20T15:03:25Z</time>
      </trkpt>
      <trkpt lat="43.64626" lon="3.82878">
        <ele>121</ele>
        <time>2021-02-20T15:04:25Z</time>
      </trkpt>
      <trkpt lat="43.64626" lon="3.82878">
        <ele>121</ele>
        <time>2021-02-20T15:04:28Z</time>
      </trkpt>
      <trkpt lat="43.64623" lon="3.82883">
        <ele>123</ele>
        <time>2021-02-20T15:06:19Z</time>
      </trkpt>
      <trkpt lat="43.64623" lon="3.82883">
        <ele>123</ele>
        <time>2021-02-20T15:06:22Z</time>
      </trkpt>
      <trkpt lat="43.64624" lon="3.82874">
        <ele>120</ele>
        <time>2021-02-20T15:06:28Z</time>
      </trkpt>
      <trkpt lat="43.64621" lon="3.82879">
        <ele>121</ele>
        <time>2021-02-20T15:08:41Z</time>
      </trkpt>
      <trkpt lat="43.64619" lon="3.82879">
        <ele>121</ele>
        <time>2021-02-20T15:08:55Z</time>
      </trkpt>
      <trkpt lat="43.64618" lon="3.8288">
        <ele>121</ele>
        <time>2021-02-20T15:08:58Z</time>
      </trkpt>
      <trkpt lat="43.64616" lon="3.82881">
        <ele>117</ele>
        <time>2021-02-20T15:09:00Z</time>
      </trkpt>
      <trkpt lat="43.64618" lon="3.82878">
        <ele>117</ele>
        <time>2021-02-20T15:09:10Z</time>
      </trkpt>
      <trkpt lat="43.6462" lon="3.82874">
        <ele>114</ele>
        <time>2021-02-20T15:09:49Z</time>
      </trkpt>
      <trkpt lat="43.6462" lon="3.82874">
        <ele>114</ele>
        <time>2021-02-20T15:09:51Z</time>
      </trkpt>
      <trkpt lat="43.64626" lon="3.82876">
        <ele>115</ele>
        <time>2021-02-20T15:10:43Z</time>
      </trkpt>
      <trkpt lat="43.64626" lon="3.82876">
        <ele>115</ele>
        <time>2021-02-20T15:10:47Z</time>
      </trkpt>
      <trkpt lat="43.64629" lon="3.82875">
        <ele>115</ele>
        <time>2021-02-20T15:10:53Z</time>
      </trkpt>
      <trkpt lat="43.6463" lon="3.82874">
        <ele>114</ele>
        <time>2021-02-20T15:10:59Z</time>
      </trkpt>
      <trkpt lat="43.64628" lon="3.82879">
        <ele>114</ele>
        <time>2021-02-20T15:11:17Z</time>
      </trkpt>
      <trkpt lat="43.64626" lon="3.82879">
        <ele>114</ele>
        <time>2021-02-20T15:11:25Z</time>
      </trkpt>
      <trkpt lat="43.64627" lon="3.82881">
        <ele>115</ele>
        <time>2021-02-20T15:11:37Z</time>
      </trkpt>
      <trkpt lat="43.64628" lon="3.8288">
        <ele>115</ele>
        <time>2021-02-20T15:11:42Z</time>
      </trkpt>
      <trkpt lat="43.64624" lon="3.82875">
        <ele>114</ele>
        <time>2021-02-20T15:12:07Z</time>
      </trkpt>
      <trkpt lat="43.64613" lon="3.82887">
        <ele>114</ele>
        <time>2021-02-20T15:12:25Z</time>
      </trkpt>
      <trkpt lat="43.64623" lon="3.82884">
        <ele>114</ele>
        <time>2021-02-20T15:12:35Z</time>
      </trkpt>
      <trkpt lat="43.64615" lon="3.82875">
        <ele>114</ele>
        <time>2021-02-20T15:12:47Z</time>
      </trkpt>
      <trkpt lat="43.64624" lon="3.82871">
        <ele>121</ele>
        <time>2021-02-20T15:13:06Z</time>
      </trkpt>
      <trkpt lat="43.64634" lon="3.8287">
        <ele>121</ele>
        <time>2021-02-20T15:13:15Z</time>
      </trkpt>
      <trkpt lat="43.64627" lon="3.82861">
        <ele>121</ele>
        <time>2021-02-20T15:13:24Z</time>
      </trkpt>
      <trkpt lat="43.64619" lon="3.82867">
        <ele>121</ele>
        <time>2021-02-20T15:13:43Z</time>
      </trkpt>
      <trkpt lat="43.64609" lon="3.82867">
        <ele>121</ele>
        <time>2021-02-20T15:14:13Z</time>
      </trkpt>
      <trkpt lat="43.64605" lon="3.8288">
        <ele>121</ele>
        <time>2021-02-20T15:14:38Z</time>
      </trkpt>
      <trkpt lat="43.64609" lon="3.82885">
        <ele>123</ele>
        <time>2021-02-20T15:14:59Z</time>
      </trkpt>
      <trkpt lat="43.64612" lon="3.82884">
        <ele>121</ele>
        <time>2021-02-20T15:15:15Z</time>
      </trkpt>
      <trkpt lat="43.64612" lon="3.82884">
        <ele>120</ele>
        <time>2021-02-20T15:15:19Z</time>
      </trkpt>
      <trkpt lat="43.64614" lon="3.82883">
        <ele>120</ele>
        <time>2021-02-20T15:15:45Z</time>
      </trkpt>
      <trkpt lat="43.64612" lon="3.82886">
        <ele>119</ele>
        <time>2021-02-20T15:15:55Z</time>
      </trkpt>
      <trkpt lat="43.64609" lon="3.82885">
        <ele>116</ele>
        <time>2021-02-20T15:16:49Z</time>
      </trkpt>
      <trkpt lat="43.646" lon="3.82892">
        <ele>115</ele>
        <time>2021-02-20T15:17:17Z</time>
      </trkpt>
      <trkpt lat="43.64599" lon="3.82893">
        <ele>114</ele>
        <time>2021-02-20T15:17:45Z</time>
      </trkpt>
      <trkpt lat="43.64605" lon="3.82891">
        <ele>114</ele>
        <time>2021-02-20T15:17:53Z</time>
      </trkpt>
      <trkpt lat="43.6459" lon="3.82895">
        <ele>113</ele>
        <time>2021-02-20T15:18:14Z</time>
      </trkpt>
      <trkpt lat="43.64584" lon="3.82901">
        <ele>113</ele>
        <time>2021-02-20T15:18:16Z</time>
      </trkpt>
      <trkpt lat="43.64589" lon="3.82895">
        <ele>113</ele>
        <time>2021-02-20T15:18:36Z</time>
      </trkpt>
      <trkpt lat="43.64593" lon="3.82893">
        <ele>113</ele>
        <time>2021-02-20T15:18:39Z</time>
      </trkpt>
      <trkpt lat="43.64603" lon="3.82891">
        <ele>113</ele>
        <time>2021-02-20T15:18:50Z</time>
      </trkpt>
      <trkpt lat="43.64612" lon="3.82884">
        <ele>113</ele>
        <time>2021-02-20T15:19:00Z</time>
      </trkpt>
      <trkpt lat="43.64621" lon="3.82878">
        <ele>113</ele>
        <time>2021-02-20T15:19:03Z</time>
      </trkpt>
      <trkpt lat="43.6463" lon="3.82878">
        <ele>114</ele>
        <time>2021-02-20T15:19:28Z</time>
      </trkpt>
      <trkpt lat="43.64636" lon="3.82867">
        <ele>114</ele>
        <time>2021-02-20T15:19:42Z</time>
      </trkpt>
      <trkpt lat="43.64627" lon="3.82872">
        <ele>114</ele>
        <time>2021-02-20T15:19:54Z</time>
      </trkpt>
      <trkpt lat="43.64617" lon="3.82878">
        <ele>114</ele>
        <time>2021-02-20T15:20:04Z</time>
      </trkpt>
      <trkpt lat="43.6461" lon="3.82891">
        <ele>114</ele>
        <time>2021-02-20T15:20:17Z</time>
      </trkpt>
      <trkpt lat="43.64617" lon="3.82882">
        <ele>114</ele>
        <time>2021-02-20T15:20:32Z</time>
      </trkpt>
      <trkpt lat="43.64607" lon="3.82883">
        <ele>114</ele>
        <time>2021-02-20T15:20:47Z</time>
      </trkpt>
      <trkpt lat="43.64617" lon="3.82887">
        <ele>113</ele>
        <time>2021-02-20T15:20:58Z</time>
      </trkpt>
      <trkpt lat="43.64622" lon="3.82876">
        <ele>113</ele>
        <time>2021-02-20T15:21:39Z</time>
      </trkpt>
      <trkpt lat="43.64621" lon="3.82875">
        <ele>113</ele>
        <time>2021-02-20T15:21:57Z</time>
      </trkpt>
      <trkpt lat="43.64618" lon="3.8288">
        <ele>113</ele>
        <time>2021-02-20T15:22:01Z</time>
      </trkpt>
      <trkpt lat="43.6462" lon="3.82882">
        <ele>112</ele>
        <time>2021-02-20T15:22:19Z</time>
      </trkpt>
      <trkpt lat="43.64622" lon="3.82879">
        <ele>113</ele>
        <time>2021-02-20T15:22:25Z</time>
      </trkpt>
      <trkpt lat="43.64622" lon="3.82879">
        <ele>112</ele>
        <time>2021-02-20T15:22:29Z</time>
      </trkpt>
      <trkpt lat="43.64619" lon="3.8288">
        <ele>111</ele>
        <time>2021-02-20T15:22:40Z</time>
      </trkpt>
      <trkpt lat="43.64618" lon="3.82882">
        <ele>113</ele>
        <time>2021-02-20T15:23:12Z</time>
      </trkpt>
      <trkpt lat="43.64618" lon="3.82877">
        <ele>113</ele>
        <time>2021-02-20T15:23:16Z</time>
      </trkpt>
      <trkpt lat="43.64619" lon="3.82874">
        <ele>113</ele>
        <time>2021-02-20T15:23:19Z</time>
      </trkpt>
      <trkpt lat="43.6462" lon="3.82872">
        <ele>113</ele>
        <time>2021-02-20T15:23:21Z</time>
      </trkpt>
      <trkpt lat="43.64622" lon="3.82869">
        <ele>113</ele>
        <time>2021-02-20T15:23:23Z</time>
      </trkpt>
      <trkpt lat="43.64623" lon="3.82868">
        <ele>113</ele>
        <time>2021-02-20T15:23:25Z</time>
      </trkpt>
      <trkpt lat="43.64625" lon="3.82868">
        <ele>113</ele>
        <time>2021-02-20T15:23:33Z</time>
      </trkpt>
      <trkpt lat="43.64625" lon="3.82868">
        <ele>106</ele>
        <time>2021-02-20T15:23:34Z</time>
      </trkpt>
      <trkpt lat="43.64623" lon="3.82873">
        <ele>105</ele>
        <time>2021-02-20T15:23:41Z</time>
      </trkpt>
      <trkpt lat="43.64625" lon="3.82875">
        <ele>105</ele>
        <time>2021-02-20T15:23:43Z</time>
      </trkpt>
      <trkpt lat="43.64626" lon="3.82877">
        <ele>105</ele>
        <time>2021-02-20T15:23:44Z</time>
      </trkpt>
      <trkpt lat="43.64628" lon="3.82881">
        <ele>105</ele>
        <time>2021-02-20T15:23:45Z</time>
      </trkpt>
      <trkpt lat="43.64628" lon="3.82886">
        <ele>105</ele>
        <time>2021-02-20T15:23:46Z</time>
      </trkpt>
      <trkpt lat="43.64628" lon="3.82891">
        <ele>105</ele>
        <time>2021-02-20T15:23:47Z</time>
      </trkpt>
      <trkpt lat="43.6463" lon="3.82893">
        <ele>105</ele>
        <time>2021-02-20T15:23:48Z</time>
      </trkpt>
      <trkpt lat="43.64632" lon="3.82892">
        <ele>105</ele>
        <time>2021-02-20T15:23:49Z</time>
      </trkpt>
      <trkpt lat="43.64635" lon="3.82891">
        <ele>101</ele>
        <time>2021-02-20T15:23:50Z</time>
      </trkpt>
      <trkpt lat="43.64635" lon="3.82888">
        <ele>101</ele>
        <time>2021-02-20T15:23:51Z</time>
      </trkpt>
      <trkpt lat="43.64635" lon="3.82885">
        <ele>101</ele>
        <time>2021-02-20T15:23:56Z</time>
      </trkpt>
      <trkpt lat="43.64635" lon="3.82884">
        <ele>97</ele>
        <time>2021-02-20T15:23:58Z</time>
      </trkpt>
      <trkpt lat="43.64633" lon="3.82884">
        <ele>97</ele>
        <time>2021-02-20T15:24:01Z</time>
      </trkpt>
      <trkpt lat="43.64635" lon="3.82889">
        <ele>97</ele>
        <time>2021-02-20T15:24:02Z</time>
      </trkpt>
      <trkpt lat="43.64636" lon="3.82891">
        <ele>97</ele>
        <time>2021-02-20T15:24:04Z</time>
      </trkpt>
      <trkpt lat="43.64636" lon="3.82894">
        <ele>97</ele>
        <time>2021-02-20T15:24:07Z</time>
      </trkpt>
      <trkpt lat="43.64637" lon="3.82896">
        <ele>97</ele>
        <time>2021-02-20T15:24:08Z</time>
      </trkpt>
      <trkpt lat="43.64637" lon="3.82899">
        <ele>97</ele>
        <time>2021-02-20T15:24:09Z</time>
      </trkpt>
      <trkpt lat="43.64636" lon="3.82901">
        <ele>95</ele>
        <time>2021-02-20T15:24:10Z</time>
      </trkpt>
      <trkpt lat="43.64635" lon="3.82903">
        <ele>95</ele>
        <time>2021-02-20T15:24:11Z</time>
      </trkpt>
      <trkpt lat="43.64633" lon="3.82905">
        <ele>95</ele>
        <time>2021-02-20T15:24:12Z</time>
      </trkpt>
      <trkpt lat="43.64631" lon="3.82907">
        <ele>95</ele>
        <time>2021-02-20T15:24:13Z</time>
      </trkpt>
      <trkpt lat="43.64628" lon="3.8291">
        <ele>95</ele>
        <time>2021-02-20T15:24:14Z</time>
      </trkpt>
      <trkpt lat="43.64626" lon="3.82913">
        <ele>95</ele>
        <time>2021-02-20T15:24:15Z</time>
      </trkpt>
      <trkpt lat="43.64623" lon="3.82916">
        <ele>95</ele>
        <time>2021-02-20T15:24:16Z</time>
      </trkpt>
      <trkpt lat="43.6462" lon="3.8292">
        <ele>95</ele>
        <time>2021-02-20T15:24:17Z</time>
      </trkpt>
      <trkpt lat="43.64618" lon="3.82923">
        <ele>95</ele>
        <time>2021-02-20T15:24:18Z</time>
      </trkpt>
      <trkpt lat="43.64615" lon="3.82926">
        <ele>95</ele>
        <time>2021-02-20T15:24:19Z</time>
      </trkpt>
      <trkpt lat="43.64612" lon="3.82929">
        <ele>96</ele>
        <time>2021-02-20T15:24:20Z</time>
      </trkpt>
      <trkpt lat="43.64609" lon="3.82932">
        <ele>96</ele>
        <time>2021-02-20T15:24:21Z</time>
      </trkpt>
      <trkpt lat="43.64606" lon="3.82934">
        <ele>96</ele>
        <time>2021-02-20T15:24:22Z</time>
      </trkpt>
      <trkpt lat="43.64603" lon="3.82936">
        <ele>96</ele>
        <time>2021-02-20T15:24:23Z</time>
      </trkpt>
      <trkpt lat="43.64601" lon="3.82939">
        <ele>96</ele>
        <time>2021-02-20T15:24:24Z</time>
      </trkpt>
      <trkpt lat="43.64597" lon="3.82942">
        <ele>96</ele>
        <time>2021-02-20T15:24:25Z</time>
      </trkpt>
      <trkpt lat="43.64594" lon="3.82943">
        <ele>96</ele>
        <time>2021-02-20T15:24:26Z</time>
      </trkpt>
      <trkpt lat="43.6459" lon="3.82945">
        <ele>96</ele>
        <time>2021-02-20T15:24:27Z</time>
      </trkpt>
      <trkpt lat="43.64586" lon="3.82946">
        <ele>96</ele>
        <time>2021-02-20T15:24:28Z</time>
      </trkpt>
      <trkpt lat="43.64582" lon="3.82947">
        <ele>96</ele>
        <time>2021-02-20T15:24:29Z</time>
      </trkpt>
      <trkpt lat="43.64578" lon="3.82949">
        <ele>92</ele>
        <time>2021-02-20T15:24:30Z</time>
      </trkpt>
      <trkpt lat="43.64575" lon="3.82951">
        <ele>92</ele>
        <time>2021-02-20T15:24:31Z</time>
      </trkpt>
      <trkpt lat="43.64571" lon="3.82953">
        <ele>92</ele>
        <time>2021-02-20T15:24:32Z</time>
      </trkpt>
      <trkpt lat="43.64567" lon="3.82954">
        <ele>92</ele>
        <time>2021-02-20T15:24:33Z</time>
      </trkpt>
      <trkpt lat="43.64563" lon="3.82956">
        <ele>92</ele>
        <time>2021-02-20T15:24:34Z</time>
      </trkpt>
      <trkpt lat="43.64559" lon="3.82958">
        <ele>92</ele>
        <time>2021-02-20T15:24:35Z</time>
      </trkpt>
      <trkpt lat="43.64555" lon="3.82961">
        <ele>92</ele>
        <time>2021-02-20T15:24:36Z</time>
      </trkpt>
      <trkpt lat="43.64551" lon="3.82964">
        <ele>92</ele>
        <time>2021-02-20T15:24:37Z</time>
      </trkpt>
      <trkpt lat="43.64548" lon="3.82968">
        <ele>92</ele>
        <time>2021-02-20T15:24:38Z</time>
      </trkpt>
      <trkpt lat="43.64545" lon="3.82972">
        <ele>92</ele>
        <time>2021-02-20T15:24:39Z</time>
      </trkpt>
      <trkpt lat="43.64544" lon="3.82976">
        <ele>89</ele>
        <time>2021-02-20T15:24:40Z</time>
      </trkpt>
      <trkpt lat="43.64545" lon="3.8298">
        <ele>89</ele>
        <time>2021-02-20T15:24:41Z</time>
      </trkpt>
      <trkpt lat="43.64545" lon="3.82985">
        <ele>89</ele>
        <time>2021-02-20T15:24:42Z</time>
      </trkpt>
      <trkpt lat="43.64545" lon="3.82991">
        <ele>89</ele>
        <time>2021-02-20T15:24:43Z</time>
      </trkpt>
      <trkpt lat="43.64545" lon="3.82997">
        <ele>89</ele>
        <time>2021-02-20T15:24:44Z</time>
      </trkpt>
      <trkpt lat="43.64546" lon="3.83003">
        <ele>89</ele>
        <time>2021-02-20T15:24:45Z</time>
      </trkpt>
      <trkpt lat="43.64547" lon="3.83009">
        <ele>89</ele>
        <time>2021-02-20T15:24:46Z</time>
      </trkpt>
      <trkpt lat="43.64548" lon="3.83015">
        <ele>89</ele>
        <time>2021-02-20T15:24:47Z</time>
      </trkpt>
      <trkpt lat="43.64549" lon="3.83019">
        <ele>89</ele>
        <time>2021-02-20T15:24:48Z</time>
      </trkpt>
      <trkpt lat="43.64549" lon="3.83024">
        <ele>89</ele>
        <time>2021-02-20T15:24:49Z</time>
      </trkpt>
      <trkpt lat="43.64546" lon="3.83028">
        <ele>86</ele>
        <time>2021-02-20T15:24:50Z</time>
      </trkpt>
      <trkpt lat="43.64543" lon="3.8303">
        <ele>86</ele>
        <time>2021-02-20T15:24:51Z</time>
      </trkpt>
      <trkpt lat="43.64538" lon="3.83031">
        <ele>86</ele>
        <time>2021-02-20T15:24:52Z</time>
      </trkpt>
      <trkpt lat="43.64534" lon="3.83032">
        <ele>86</ele>
        <time>2021-02-20T15:24:53Z</time>
      </trkpt>
      <trkpt lat="43.6453" lon="3.83033">
        <ele>86</ele>
        <time>2021-02-20T15:24:54Z</time>
      </trkpt>
      <trkpt lat="43.64526" lon="3.83034">
        <ele>86</ele>
        <time>2021-02-20T15:24:55Z</time>
      </trkpt>
      <trkpt lat="43.64522" lon="3.83035">
        <ele>86</ele>
        <time>2021-02-20T15:24:56Z</time>
      </trkpt>
      <trkpt lat="43.64518" lon="3.83036">
        <ele>86</ele>
        <time>2021-02-20T15:24:57Z</time>
      </trkpt>
      <trkpt lat="43.64514" lon="3.83037">
        <ele>86</ele>
        <time>2021-02-20T15:24:58Z</time>
      </trkpt>
      <trkpt lat="43.64511" lon="3.83039">
        <ele>86</ele>
        <time>2021-02-20T15:24:59Z</time>
      </trkpt>
      <trkpt lat="43.64507" lon="3.83041">
        <ele>85</ele>
        <time>2021-02-20T15:25:00Z</time>
      </trkpt>
      <trkpt lat="43.64502" lon="3.83043">
        <ele>85</ele>
        <time>2021-02-20T15:25:01Z</time>
      </trkpt>
      <trkpt lat="43.64498" lon="3.83045">
        <ele>85</ele>
        <time>2021-02-20T15:25:02Z</time>
      </trkpt>
      <trkpt lat="43.64493" lon="3.83047">
        <ele>85</ele>
        <time>2021-02-20T15:25:03Z</time>
      </trkpt>
      <trkpt lat="43.64489" lon="3.83049">
        <ele>85</ele>
        <time>2021-02-20T15:25:04Z</time>
      </trkpt>
      <trkpt lat="43.64484" lon="3.83051">
        <ele>85</ele>
        <time>2021-02-20T15:25:05Z</time>
      </trkpt>
      <trkpt lat="43.64479" lon="3.83053">
        <ele>85</ele>
        <time>2021-02-20T15:25:06Z</time>
      </trkpt>
      <trkpt lat="43.64475" lon="3.83055">
        <ele>85</ele>
        <time>2021-02-20T15:25:07Z</time>
      </trkpt>
      <trkpt lat="43.6447" lon="3.83058">
        <ele>85</ele>
        <time>2021-02-20T15:25:08Z</time>
      </trkpt>
      <trkpt lat="43.64461" lon="3.83064">
        <ele>82</ele>
        <time>2021-02-20T15:25:10Z</time>
      </trkpt>
      <trkpt lat="43.64457" lon="3.83066">
        <ele>82</ele>
        <time>2021-02-20T15:25:11Z</time>
      </trkpt>
      <trkpt lat="43.64452" lon="3.83068">
        <ele>82</ele>
        <time>2021-02-20T15:25:12Z</time>
      </trkpt>
      <trkpt lat="43.64448" lon="3.83071">
        <ele>82</ele>
        <time>2021-02-20T15:25:13Z</time>
      </trkpt>
      <trkpt lat="43.64444" lon="3.83073">
        <ele>82</ele>
        <time>2021-02-20T15:25:14Z</time>
      </trkpt>
      <trkpt lat="43.64439" lon="3.83076">
        <ele>82</ele>
        <time>2021-02-20T15:25:15Z</time>
      </trkpt>
      <trkpt lat="43.64434" lon="3.83079">
        <ele>82</ele>
        <time>2021-02-20T15:25:16Z</time>
      </trkpt>
      <trkpt lat="43.6443" lon="3.83082">
        <ele>82</ele>
        <time>2021-02-20T15:25:17Z</time>
      </trkpt>
      <trkpt lat="43.64421" lon="3.83087">
        <ele>82</ele>
        <time>2021-02-20T15:25:19Z</time>
      </trkpt>
      <trkpt lat="43.64416" lon="3.83089">
        <ele>81</ele>
        <time>2021-02-20T15:25:20Z</time>
      </trkpt>
      <trkpt lat="43.64411" lon="3.83091">
        <ele>81</ele>
        <time>2021-02-20T15:25:21Z</time>
      </trkpt>
      <trkpt lat="43.64408" lon="3.83091">
        <ele>81</ele>
        <time>2021-02-20T15:25:22Z</time>
      </trkpt>
      <trkpt lat="43.64404" lon="3.83088">
        <ele>81</ele>
        <time>2021-02-20T15:25:23Z</time>
      </trkpt>
      <trkpt lat="43.64401" lon="3.83085">
        <ele>81</ele>
        <time>2021-02-20T15:25:24Z</time>
      </trkpt>
      <trkpt lat="43.64398" lon="3.83082">
        <ele>81</ele>
        <time>2021-02-20T15:25:25Z</time>
      </trkpt>
      <trkpt lat="43.64395" lon="3.83081">
        <ele>81</ele>
        <time>2021-02-20T15:25:26Z</time>
      </trkpt>
      <trkpt lat="43.64391" lon="3.83082">
        <ele>81</ele>
        <time>2021-02-20T15:25:27Z</time>
      </trkpt>
      <trkpt lat="43.64387" lon="3.83085">
        <ele>81</ele>
        <time>2021-02-20T15:25:28Z</time>
      </trkpt>
      <trkpt lat="43.64383" lon="3.83088">
        <ele>81</ele>
        <time>2021-02-20T15:25:29Z</time>
      </trkpt>
      <trkpt lat="43.64378" lon="3.83089">
        <ele>78</ele>
        <time>2021-02-20T15:25:30Z</time>
      </trkpt>
      <trkpt lat="43.64373" lon="3.83088">
        <ele>78</ele>
        <time>2021-02-20T15:25:31Z</time>
      </trkpt>
      <trkpt lat="43.64368" lon="3.83086">
        <ele>78</ele>
        <time>2021-02-20T15:25:32Z</time>
      </trkpt>
      <trkpt lat="43.64362" lon="3.83084">
        <ele>78</ele>
        <time>2021-02-20T15:25:33Z</time>
      </trkpt>
      <trkpt lat="43.64357" lon="3.83083">
        <ele>78</ele>
        <time>2021-02-20T15:25:34Z</time>
      </trkpt>
      <trkpt lat="43.64352" lon="3.83081">
        <ele>78</ele>
        <time>2021-02-20T15:25:35Z</time>
      </trkpt>
      <trkpt lat="43.64347" lon="3.83079">
        <ele>78</ele>
        <time>2021-02-20T15:25:36Z</time>
      </trkpt>
      <trkpt lat="43.64341" lon="3.83077">
        <ele>78</ele>
        <time>2021-02-20T15:25:37Z</time>
      </trkpt>
      <trkpt lat="43.64336" lon="3.83075">
        <ele>78</ele>
        <time>2021-02-20T15:25:38Z</time>
      </trkpt>
      <trkpt lat="43.64331" lon="3.83073">
        <ele>78</ele>
        <time>2021-02-20T15:25:39Z</time>
      </trkpt>
      <trkpt lat="43.64326" lon="3.8307">
        <ele>76</ele>
        <time>2021-02-20T15:25:40Z</time>
      </trkpt>
      <trkpt lat="43.64321" lon="3.83067">
        <ele>76</ele>
        <time>2021-02-20T15:25:41Z</time>
      </trkpt>
      <trkpt lat="43.64316" lon="3.83065">
        <ele>76</ele>
        <time>2021-02-20T15:25:42Z</time>
      </trkpt>
      <trkpt lat="43.6431" lon="3.83062">
        <ele>76</ele>
        <time>2021-02-20T15:25:43Z</time>
      </trkpt>
      <trkpt lat="43.64306" lon="3.83059">
        <ele>76</ele>
        <time>2021-02-20T15:25:44Z</time>
      </trkpt>
      <trkpt lat="43.64301" lon="3.83056">
        <ele>76</ele>
        <time>2021-02-20T15:25:45Z</time>
      </trkpt>
      <trkpt lat="43.64296" lon="3.83053">
        <ele>76</ele>
        <time>2021-02-20T15:25:46Z</time>
      </trkpt>
      <trkpt lat="43.64291" lon="3.8305">
        <ele>76</ele>
        <time>2021-02-20T15:25:47Z</time>
      </trkpt>
      <trkpt lat="43.64287" lon="3.83047">
        <ele>76</ele>
        <time>2021-02-20T15:25:48Z</time>
      </trkpt>
      <trkpt lat="43.64283" lon="3.83044">
        <ele>76</ele>
        <time>2021-02-20T15:25:49Z</time>
      </trkpt>
      <trkpt lat="43.64278" lon="3.83041">
        <ele>76</ele>
        <time>2021-02-20T15:25:50Z</time>
      </trkpt>
      <trkpt lat="43.64274" lon="3.83038">
        <ele>76</ele>
        <time>2021-02-20T15:25:51Z</time>
      </trkpt>
      <trkpt lat="43.6427" lon="3.83035">
        <ele>76</ele>
        <time>2021-02-20T15:25:52Z</time>
      </trkpt>
      <trkpt lat="43.64265" lon="3.83032">
        <ele>76</ele>
        <time>2021-02-20T15:25:53Z</time>
      </trkpt>
      <trkpt lat="43.64261" lon="3.8303">
        <ele>76</ele>
        <time>2021-02-20T15:25:54Z</time>
      </trkpt>
      <trkpt lat="43.64257" lon="3.83027">
        <ele>76</ele>
        <time>2021-02-20T15:25:55Z</time>
      </trkpt>
      <trkpt lat="43.64249" lon="3.83021">
        <ele>76</ele>
        <time>2021-02-20T15:25:57Z</time>
      </trkpt>
      <trkpt lat="43.64245" lon="3.83018">
        <ele>76</ele>
        <time>2021-02-20T15:25:58Z</time>
      </trkpt>
      <trkpt lat="43.64241" lon="3.83015">
        <ele>76</ele>
        <time>2021-02-20T15:25:59Z</time>
      </trkpt>
      <trkpt lat="43.64237" lon="3.83012">
        <ele>76</ele>
        <time>2021-02-20T15:26:00Z</time>
      </trkpt>
      <trkpt lat="43.64232" lon="3.83009">
        <ele>76</ele>
        <time>2021-02-20T15:26:01Z</time>
      </trkpt>
      <trkpt lat="43.64228" lon="3.83006">
        <ele>76</ele>
        <time>2021-02-20T15:26:02Z</time>
      </trkpt>
      <trkpt lat="43.64224" lon="3.83003">
        <ele>76</ele>
        <time>2021-02-20T15:26:03Z</time>
      </trkpt>
      <trkpt lat="43.6422" lon="3.83001">
        <ele>76</ele>
        <time>2021-02-20T15:26:04Z</time>
      </trkpt>
      <trkpt lat="43.64216" lon="3.82998">
        <ele>76</ele>
        <time>2021-02-20T15:26:05Z</time>
      </trkpt>
      <trkpt lat="43.64212" lon="3.82995">
        <ele>76</ele>
        <time>2021-02-20T15:26:06Z</time>
      </trkpt>
      <trkpt lat="43.64208" lon="3.82992">
        <ele>76</ele>
        <time>2021-02-20T15:26:07Z</time>
      </trkpt>
      <trkpt lat="43.64204" lon="3.82989">
        <ele>76</ele>
        <time>2021-02-20T15:26:08Z</time>
      </trkpt>
      <trkpt lat="43.64201" lon="3.82986">
        <ele>76</ele>
        <time>2021-02-20T15:26:09Z</time>
      </trkpt>
      <trkpt lat="43.64197" lon="3.82983">
        <ele>77</ele>
        <time>2021-02-20T15:26:10Z</time>
      </trkpt>
      <trkpt lat="43.64194" lon="3.8298">
        <ele>77</ele>
        <time>2021-02-20T15:26:11Z</time>
      </trkpt>
      <trkpt lat="43.6419" lon="3.82977">
        <ele>77</ele>
        <time>2021-02-20T15:26:12Z</time>
      </trkpt>
      <trkpt lat="43.64186" lon="3.82975">
        <ele>77</ele>
        <time>2021-02-20T15:26:13Z</time>
      </trkpt>
      <trkpt lat="43.64182" lon="3.82973">
        <ele>77</ele>
        <time>2021-02-20T15:26:14Z</time>
      </trkpt>
      <trkpt lat="43.64178" lon="3.82969">
        <ele>77</ele>
        <time>2021-02-20T15:26:15Z</time>
      </trkpt>
      <trkpt lat="43.64174" lon="3.82965">
        <ele>77</ele>
        <time>2021-02-20T15:26:16Z</time>
      </trkpt>
      <trkpt lat="43.6417" lon="3.82962">
        <ele>77</ele>
        <time>2021-02-20T15:26:17Z</time>
      </trkpt>
      <trkpt lat="43.64166" lon="3.82958">
        <ele>77</ele>
        <time>2021-02-20T15:26:18Z</time>
      </trkpt>
      <trkpt lat="43.64162" lon="3.82954">
        <ele>77</ele>
        <time>2021-02-20T15:26:19Z</time>
      </trkpt>
      <trkpt lat="43.64158" lon="3.8295">
        <ele>77</ele>
        <time>2021-02-20T15:26:20Z</time>
      </trkpt>
      <trkpt lat="43.64154" lon="3.82947">
        <ele>77</ele>
        <time>2021-02-20T15:26:21Z</time>
      </trkpt>
      <trkpt lat="43.64149" lon="3.82943">
        <ele>77</ele>
        <time>2021-02-20T15:26:22Z</time>
      </trkpt>
      <trkpt lat="43.64145" lon="3.8294">
        <ele>77</ele>
        <time>2021-02-20T15:26:23Z</time>
      </trkpt>
      <trkpt lat="43.64141" lon="3.82936">
        <ele>77</ele>
        <time>2021-02-20T15:26:24Z</time>
      </trkpt>
      <trkpt lat="43.64137" lon="3.82933">
        <ele>77</ele>
        <time>2021-02-20T15:26:25Z</time>
      </trkpt>
      <trkpt lat="43.64133" lon="3.82929">
        <ele>77</ele>
        <time>2021-02-20T15:26:26Z</time>
      </trkpt>
      <trkpt lat="43.64125" lon="3.82922">
        <ele>77</ele>
        <time>2021-02-20T15:26:28Z</time>
      </trkpt>
      <trkpt lat="43.64121" lon="3.82918">
        <ele>77</ele>
        <time>2021-02-20T15:26:29Z</time>
      </trkpt>
      <trkpt lat="43.64117" lon="3.82915">
        <ele>77</ele>
        <time>2021-02-20T15:26:30Z</time>
      </trkpt>
      <trkpt lat="43.64109" lon="3.82907">
        <ele>77</ele>
        <time>2021-02-20T15:26:32Z</time>
      </trkpt>
      <trkpt lat="43.64105" lon="3.82902">
        <ele>77</ele>
        <time>2021-02-20T15:26:33Z</time>
      </trkpt>
      <trkpt lat="43.64101" lon="3.82898">
        <ele>77</ele>
        <time>2021-02-20T15:26:34Z</time>
      </trkpt>
      <trkpt lat="43.64098" lon="3.82894">
        <ele>77</ele>
        <time>2021-02-20T15:26:35Z</time>
      </trkpt>
      <trkpt lat="43.64093" lon="3.82892">
        <ele>77</ele>
        <time>2021-02-20T15:26:36Z</time>
      </trkpt>
      <trkpt lat="43.64089" lon="3.8289">
        <ele>77</ele>
        <time>2021-02-20T15:26:37Z</time>
      </trkpt>
      <trkpt lat="43.64084" lon="3.82889">
        <ele>77</ele>
        <time>2021-02-20T15:26:38Z</time>
      </trkpt>
      <trkpt lat="43.6408" lon="3.82888">
        <ele>77</ele>
        <time>2021-02-20T15:26:39Z</time>
      </trkpt>
      <trkpt lat="43.64076" lon="3.82887">
        <ele>77</ele>
        <time>2021-02-20T15:26:40Z</time>
      </trkpt>
      <trkpt lat="43.64072" lon="3.82885">
        <ele>77</ele>
        <time>2021-02-20T15:26:41Z</time>
      </trkpt>
      <trkpt lat="43.64068" lon="3.82884">
        <ele>77</ele>
        <time>2021-02-20T15:26:42Z</time>
      </trkpt>
      <trkpt lat="43.64065" lon="3.82883">
        <ele>77</ele>
        <time>2021-02-20T15:26:43Z</time>
      </trkpt>
      <trkpt lat="43.64061" lon="3.82882">
        <ele>77</ele>
        <time>2021-02-20T15:26:44Z</time>
      </trkpt>
      <trkpt lat="43.64058" lon="3.8288">
        <ele>77</ele>
        <time>2021-02-20T15:26:45Z</time>
      </trkpt>
      <trkpt lat="43.64054" lon="3.82878">
        <ele>77</ele>
        <time>2021-02-20T15:26:46Z</time>
      </trkpt>
      <trkpt lat="43.64051" lon="3.82877">
        <ele>77</ele>
        <time>2021-02-20T15:26:47Z</time>
      </trkpt>
      <trkpt lat="43.64047" lon="3.82876">
        <ele>77</ele>
        <time>2021-02-20T15:26:48Z</time>
      </trkpt>
      <trkpt lat="43.64044" lon="3.82874">
        <ele>77</ele>
        <time>2021-02-20T15:26:49Z</time>
      </trkpt>
      <trkpt lat="43.64041" lon="3.82874">
        <ele>78</ele>
        <time>2021-02-20T15:26:50Z</time>
      </trkpt>
      <trkpt lat="43.64037" lon="3.82874">
        <ele>78</ele>
        <time>2021-02-20T15:26:51Z</time>
      </trkpt>
      <trkpt lat="43.64034" lon="3.82875">
        <ele>78</ele>
        <time>2021-02-20T15:26:52Z</time>
      </trkpt>
      <trkpt lat="43.64031" lon="3.82876">
        <ele>78</ele>
        <time>2021-02-20T15:26:53Z</time>
      </trkpt>
      <trkpt lat="43.64028" lon="3.82877">
        <ele>78</ele>
        <time>2021-02-20T15:26:54Z</time>
      </trkpt>
      <trkpt lat="43.64026" lon="3.82878">
        <ele>78</ele>
        <time>2021-02-20T15:26:55Z</time>
      </trkpt>
      <trkpt lat="43.64025" lon="3.82881">
        <ele>78</ele>
        <time>2021-02-20T15:26:56Z</time>
      </trkpt>
      <trkpt lat="43.64023" lon="3.82884">
        <ele>78</ele>
        <time>2021-02-20T15:26:57Z</time>
      </trkpt>
      <trkpt lat="43.64021" lon="3.82888">
        <ele>78</ele>
        <time>2021-02-20T15:26:58Z</time>
      </trkpt>
      <trkpt lat="43.64019" lon="3.82892">
        <ele>78</ele>
        <time>2021-02-20T15:26:59Z</time>
      </trkpt>
      <trkpt lat="43.64017" lon="3.82895">
        <ele>79</ele>
        <time>2021-02-20T15:27:00Z</time>
      </trkpt>
      <trkpt lat="43.64015" lon="3.82899">
        <ele>79</ele>
        <time>2021-02-20T15:27:01Z</time>
      </trkpt>
      <trkpt lat="43.64013" lon="3.82903">
        <ele>79</ele>
        <time>2021-02-20T15:27:02Z</time>
      </trkpt>
      <trkpt lat="43.64011" lon="3.82907">
        <ele>79</ele>
        <time>2021-02-20T15:27:03Z</time>
      </trkpt>
      <trkpt lat="43.64009" lon="3.8291">
        <ele>79</ele>
        <time>2021-02-20T15:27:04Z</time>
      </trkpt>
      <trkpt lat="43.64007" lon="3.82914">
        <ele>79</ele>
        <time>2021-02-20T15:27:05Z</time>
      </trkpt>
      <trkpt lat="43.64005" lon="3.82918">
        <ele>79</ele>
        <time>2021-02-20T15:27:06Z</time>
      </trkpt>
      <trkpt lat="43.64003" lon="3.82921">
        <ele>79</ele>
        <time>2021-02-20T15:27:07Z</time>
      </trkpt>
      <trkpt lat="43.64" lon="3.82922">
        <ele>79</ele>
        <time>2021-02-20T15:27:08Z</time>
      </trkpt>
      <trkpt lat="43.63996" lon="3.82921">
        <ele>79</ele>
        <time>2021-02-20T15:27:09Z</time>
      </trkpt>
      <trkpt lat="43.63993" lon="3.82919">
        <ele>80</ele>
        <time>2021-02-20T15:27:10Z</time>
      </trkpt>
      <trkpt lat="43.63988" lon="3.82912">
        <ele>80</ele>
        <time>2021-02-20T15:27:12Z</time>
      </trkpt>
      <trkpt lat="43.63985" lon="3.82909">
        <ele>80</ele>
        <time>2021-02-20T15:27:13Z</time>
      </trkpt>
      <trkpt lat="43.63982" lon="3.82905">
        <ele>80</ele>
        <time>2021-02-20T15:27:14Z</time>
      </trkpt>
      <trkpt lat="43.63977" lon="3.82897">
        <ele>80</ele>
        <time>2021-02-20T15:27:16Z</time>
      </trkpt>
      <trkpt lat="43.63974" lon="3.82892">
        <ele>80</ele>
        <time>2021-02-20T15:27:17Z</time>
      </trkpt>
      <trkpt lat="43.63971" lon="3.82888">
        <ele>80</ele>
        <time>2021-02-20T15:27:18Z</time>
      </trkpt>
      <trkpt lat="43.63968" lon="3.82884">
        <ele>80</ele>
        <time>2021-02-20T15:27:19Z</time>
      </trkpt>
      <trkpt lat="43.63965" lon="3.8288">
        <ele>80</ele>
        <time>2021-02-20T15:27:20Z</time>
      </trkpt>
      <trkpt lat="43.63962" lon="3.82876">
        <ele>80</ele>
        <time>2021-02-20T15:27:21Z</time>
      </trkpt>
      <trkpt lat="43.63959" lon="3.82872">
        <ele>80</ele>
        <time>2021-02-20T15:27:22Z</time>
      </trkpt>
      <trkpt lat="43.63956" lon="3.82868">
        <ele>80</ele>
        <time>2021-02-20T15:27:23Z</time>
      </trkpt>
      <trkpt lat="43.63953" lon="3.82865">
        <ele>80</ele>
        <time>2021-02-20T15:27:24Z</time>
      </trkpt>
      <trkpt lat="43.63949" lon="3.82865">
        <ele>80</ele>
        <time>2021-02-20T15:27:25Z</time>
      </trkpt>
      <trkpt lat="43.63945" lon="3.82868">
        <ele>80</ele>
        <time>2021-02-20T15:27:26Z</time>
      </trkpt>
      <trkpt lat="43.63941" lon="3.8287">
        <ele>80</ele>
        <time>2021-02-20T15:27:27Z</time>
      </trkpt>
      <trkpt lat="43.63936" lon="3.82869">
        <ele>80</ele>
        <time>2021-02-20T15:27:28Z</time>
      </trkpt>
      <trkpt lat="43.63932" lon="3.82867">
        <ele>80</ele>
        <time>2021-02-20T15:27:29Z</time>
      </trkpt>
      <trkpt lat="43.63927" lon="3.82863">
        <ele>80</ele>
        <time>2021-02-20T15:27:30Z</time>
      </trkpt>
      <trkpt lat="43.63923" lon="3.8286">
        <ele>80</ele>
        <time>2021-02-20T15:27:31Z</time>
      </trkpt>
      <trkpt lat="43.63918" lon="3.82858">
        <ele>80</ele>
        <time>2021-02-20T15:27:32Z</time>
      </trkpt>
      <trkpt lat="43.63914" lon="3.82858">
        <ele>80</ele>
        <time>2021-02-20T15:27:33Z</time>
      </trkpt>
      <trkpt lat="43.63911" lon="3.82861">
        <ele>80</ele>
        <time>2021-02-20T15:27:34Z</time>
      </trkpt>
      <trkpt lat="43.63908" lon="3.82866">
        <ele>80</ele>
        <time>2021-02-20T15:27:35Z</time>
      </trkpt>
      <trkpt lat="43.63905" lon="3.82872">
        <ele>80</ele>
        <time>2021-02-20T15:27:36Z</time>
      </trkpt>
      <trkpt lat="43.63902" lon="3.82877">
        <ele>80</ele>
        <time>2021-02-20T15:27:37Z</time>
      </trkpt>
      <trkpt lat="43.63899" lon="3.82883">
        <ele>80</ele>
        <time>2021-02-20T15:27:38Z</time>
      </trkpt>
      <trkpt lat="43.63897" lon="3.82888">
        <ele>80</ele>
        <time>2021-02-20T15:27:39Z</time>
      </trkpt>
      <trkpt lat="43.63896" lon="3.82894">
        <ele>80</ele>
        <time>2021-02-20T15:27:40Z</time>
      </trkpt>
      <trkpt lat="43.63895" lon="3.829">
        <ele>80</ele>
        <time>2021-02-20T15:27:41Z</time>
      </trkpt>
      <trkpt lat="43.63893" lon="3.82906">
        <ele>80</ele>
        <time>2021-02-20T15:27:42Z</time>
      </trkpt>
      <trkpt lat="43.63891" lon="3.8291">
        <ele>80</ele>
        <time>2021-02-20T15:27:43Z</time>
      </trkpt>
      <trkpt lat="43.63888" lon="3.82915">
        <ele>80</ele>
        <time>2021-02-20T15:27:44Z</time>
      </trkpt>
      <trkpt lat="43.63886" lon="3.8292">
        <ele>80</ele>
        <time>2021-02-20T15:27:45Z</time>
      </trkpt>
      <trkpt lat="43.63883" lon="3.82925">
        <ele>80</ele>
        <time>2021-02-20T15:27:46Z</time>
      </trkpt>
      <trkpt lat="43.63881" lon="3.8293">
        <ele>80</ele>
        <time>2021-02-20T15:27:47Z</time>
      </trkpt>
      <trkpt lat="43.63878" lon="3.82934">
        <ele>80</ele>
        <time>2021-02-20T15:27:48Z</time>
      </trkpt>
      <trkpt lat="43.63875" lon="3.82939">
        <ele>80</ele>
        <time>2021-02-20T15:27:49Z</time>
      </trkpt>
      <trkpt lat="43.63872" lon="3.82944">
        <ele>80</ele>
        <time>2021-02-20T15:27:50Z</time>
      </trkpt>
      <trkpt lat="43.63868" lon="3.82948">
        <ele>80</ele>
        <time>2021-02-20T15:27:51Z</time>
      </trkpt>
      <trkpt lat="43.63865" lon="3.82953">
        <ele>80</ele>
        <time>2021-02-20T15:27:52Z</time>
      </trkpt>
      <trkpt lat="43.63862" lon="3.82957">
        <ele>80</ele>
        <time>2021-02-20T15:27:53Z</time>
      </trkpt>
      <trkpt lat="43.63858" lon="3.82962">
        <ele>80</ele>
        <time>2021-02-20T15:27:54Z</time>
      </trkpt>
      <trkpt lat="43.63855" lon="3.82966">
        <ele>80</ele>
        <time>2021-02-20T15:27:55Z</time>
      </trkpt>
      <trkpt lat="43.63852" lon="3.82971">
        <ele>80</ele>
        <time>2021-02-20T15:27:56Z</time>
      </trkpt>
      <trkpt lat="43.63848" lon="3.82975">
        <ele>80</ele>
        <time>2021-02-20T15:27:57Z</time>
      </trkpt>
      <trkpt lat="43.63845" lon="3.8298">
        <ele>80</ele>
        <time>2021-02-20T15:27:58Z</time>
      </trkpt>
      <trkpt lat="43.63842" lon="3.82984">
        <ele>80</ele>
        <time>2021-02-20T15:27:59Z</time>
      </trkpt>
      <trkpt lat="43.63839" lon="3.82989">
        <ele>80</ele>
        <time>2021-02-20T15:28:00Z</time>
      </trkpt>
      <trkpt lat="43.63835" lon="3.82993">
        <ele>80</ele>
        <time>2021-02-20T15:28:01Z</time>
      </trkpt>
      <trkpt lat="43.63832" lon="3.82997">
        <ele>80</ele>
        <time>2021-02-20T15:28:02Z</time>
      </trkpt>
      <trkpt lat="43.63829" lon="3.83001">
        <ele>80</ele>
        <time>2021-02-20T15:28:03Z</time>
      </trkpt>
      <trkpt lat="43.63826" lon="3.83005">
        <ele>80</ele>
        <time>2021-02-20T15:28:04Z</time>
      </trkpt>
      <trkpt lat="43.63822" lon="3.83009">
        <ele>80</ele>
        <time>2021-02-20T15:28:05Z</time>
      </trkpt>
      <trkpt lat="43.63819" lon="3.83013">
        <ele>80</ele>
        <time>2021-02-20T15:28:06Z</time>
      </trkpt>
      <trkpt lat="43.63815" lon="3.83017">
        <ele>80</ele>
        <time>2021-02-20T15:28:07Z</time>
      </trkpt>
      <trkpt lat="43.63811" lon="3.83021">
        <ele>80</ele>
        <time>2021-02-20T15:28:08Z</time>
      </trkpt>
      <trkpt lat="43.63808" lon="3.83025">
        <ele>80</ele>
        <time>2021-02-20T15:28:09Z</time>
      </trkpt>
      <trkpt lat="43.63804" lon="3.83029">
        <ele>81</ele>
        <time>2021-02-20T15:28:10Z</time>
      </trkpt>
      <trkpt lat="43.63801" lon="3.83033">
        <ele>81</ele>
        <time>2021-02-20T15:28:11Z</time>
      </trkpt>
      <trkpt lat="43.63797" lon="3.83036">
        <ele>81</ele>
        <time>2021-02-20T15:28:12Z</time>
      </trkpt>
      <trkpt lat="43.63793" lon="3.8304">
        <ele>81</ele>
        <time>2021-02-20T15:28:13Z</time>
      </trkpt>
      <trkpt lat="43.63789" lon="3.83044">
        <ele>81</ele>
        <time>2021-02-20T15:28:14Z</time>
      </trkpt>
      <trkpt lat="43.63785" lon="3.83048">
        <ele>81</ele>
        <time>2021-02-20T15:28:15Z</time>
      </trkpt>
      <trkpt lat="43.6378" lon="3.83051">
        <ele>81</ele>
        <time>2021-02-20T15:28:16Z</time>
      </trkpt>
      <trkpt lat="43.63777" lon="3.83054">
        <ele>81</ele>
        <time>2021-02-20T15:28:17Z</time>
      </trkpt>
      <trkpt lat="43.63773" lon="3.83058">
        <ele>81</ele>
        <time>2021-02-20T15:28:18Z</time>
      </trkpt>
      <trkpt lat="43.6377" lon="3.83061">
        <ele>81</ele>
        <time>2021-02-20T15:28:19Z</time>
      </trkpt>
      <trkpt lat="43.63766" lon="3.83065">
        <ele>80</ele>
        <time>2021-02-20T15:28:20Z</time>
      </trkpt>
      <trkpt lat="43.63763" lon="3.83068">
        <ele>80</ele>
        <time>2021-02-20T15:28:21Z</time>
      </trkpt>
      <trkpt lat="43.6376" lon="3.83071">
        <ele>80</ele>
        <time>2021-02-20T15:28:22Z</time>
      </trkpt>
      <trkpt lat="43.63757" lon="3.83075">
        <ele>80</ele>
        <time>2021-02-20T15:28:23Z</time>
      </trkpt>
      <trkpt lat="43.63754" lon="3.83078">
        <ele>80</ele>
        <time>2021-02-20T15:28:24Z</time>
      </trkpt>
      <trkpt lat="43.63751" lon="3.83081">
        <ele>80</ele>
        <time>2021-02-20T15:28:25Z</time>
      </trkpt>
      <trkpt lat="43.63748" lon="3.83084">
        <ele>80</ele>
        <time>2021-02-20T15:28:26Z</time>
      </trkpt>
      <trkpt lat="43.63745" lon="3.83086">
        <ele>80</ele>
        <time>2021-02-20T15:28:27Z</time>
      </trkpt>
      <trkpt lat="43.63743" lon="3.83089">
        <ele>80</ele>
        <time>2021-02-20T15:28:28Z</time>
      </trkpt>
      <trkpt lat="43.63741" lon="3.83091">
        <ele>80</ele>
        <time>2021-02-20T15:28:29Z</time>
      </trkpt>
      <trkpt lat="43.63738" lon="3.83093">
        <ele>81</ele>
        <time>2021-02-20T15:28:30Z</time>
      </trkpt>
      <trkpt lat="43.63735" lon="3.83095">
        <ele>81</ele>
        <time>2021-02-20T15:28:31Z</time>
      </trkpt>
      <trkpt lat="43.63732" lon="3.83098">
        <ele>81</ele>
        <time>2021-02-20T15:28:32Z</time>
      </trkpt>
      <trkpt lat="43.63728" lon="3.83102">
        <ele>81</ele>
        <time>2021-02-20T15:28:33Z</time>
      </trkpt>
      <trkpt lat="43.63725" lon="3.83104">
        <ele>81</ele>
        <time>2021-02-20T15:28:34Z</time>
      </trkpt>
      <trkpt lat="43.63722" lon="3.83105">
        <ele>81</ele>
        <time>2021-02-20T15:28:35Z</time>
      </trkpt>
      <trkpt lat="43.63718" lon="3.83106">
        <ele>81</ele>
        <time>2021-02-20T15:28:36Z</time>
      </trkpt>
      <trkpt lat="43.63715" lon="3.83106">
        <ele>81</ele>
        <time>2021-02-20T15:28:37Z</time>
      </trkpt>
      <trkpt lat="43.63713" lon="3.83107">
        <ele>81</ele>
        <time>2021-02-20T15:28:38Z</time>
      </trkpt>
      <trkpt lat="43.63709" lon="3.83108">
        <ele>78</ele>
        <time>2021-02-20T15:28:40Z</time>
      </trkpt>
      <trkpt lat="43.63706" lon="3.83109">
        <ele>78</ele>
        <time>2021-02-20T15:28:41Z</time>
      </trkpt>
      <trkpt lat="43.63703" lon="3.83111">
        <ele>78</ele>
        <time>2021-02-20T15:28:42Z</time>
      </trkpt>
      <trkpt lat="43.637" lon="3.83111">
        <ele>78</ele>
        <time>2021-02-20T15:28:43Z</time>
      </trkpt>
      <trkpt lat="43.63697" lon="3.83112">
        <ele>78</ele>
        <time>2021-02-20T15:28:44Z</time>
      </trkpt>
      <trkpt lat="43.63694" lon="3.83113">
        <ele>78</ele>
        <time>2021-02-20T15:28:45Z</time>
      </trkpt>
      <trkpt lat="43.63691" lon="3.83114">
        <ele>78</ele>
        <time>2021-02-20T15:28:46Z</time>
      </trkpt>
      <trkpt lat="43.63687" lon="3.83115">
        <ele>78</ele>
        <time>2021-02-20T15:28:47Z</time>
      </trkpt>
      <trkpt lat="43.63683" lon="3.83117">
        <ele>78</ele>
        <time>2021-02-20T15:28:48Z</time>
      </trkpt>
      <trkpt lat="43.6368" lon="3.83118">
        <ele>78</ele>
        <time>2021-02-20T15:28:49Z</time>
      </trkpt>
      <trkpt lat="43.63676" lon="3.8312">
        <ele>75</ele>
        <time>2021-02-20T15:28:50Z</time>
      </trkpt>
      <trkpt lat="43.63672" lon="3.83121">
        <ele>75</ele>
        <time>2021-02-20T15:28:51Z</time>
      </trkpt>
      <trkpt lat="43.63669" lon="3.83123">
        <ele>75</ele>
        <time>2021-02-20T15:28:52Z</time>
      </trkpt>
      <trkpt lat="43.63666" lon="3.83124">
        <ele>75</ele>
        <time>2021-02-20T15:28:53Z</time>
      </trkpt>
      <trkpt lat="43.63663" lon="3.83125">
        <ele>75</ele>
        <time>2021-02-20T15:28:54Z</time>
      </trkpt>
      <trkpt lat="43.63661" lon="3.83127">
        <ele>75</ele>
        <time>2021-02-20T15:28:55Z</time>
      </trkpt>
      <trkpt lat="43.63658" lon="3.83128">
        <ele>75</ele>
        <time>2021-02-20T15:28:56Z</time>
      </trkpt>
      <trkpt lat="43.63656" lon="3.8313">
        <ele>75</ele>
        <time>2021-02-20T15:28:57Z</time>
      </trkpt>
      <trkpt lat="43.63654" lon="3.83131">
        <ele>75</ele>
        <time>2021-02-20T15:28:59Z</time>
      </trkpt>
      <trkpt lat="43.63654" lon="3.83131">
        <ele>73</ele>
        <time>2021-02-20T15:29:04Z</time>
      </trkpt>
      <trkpt lat="43.63643" lon="3.83137">
        <ele>73</ele>
        <time>2021-02-20T15:29:09Z</time>
      </trkpt>
      <trkpt lat="43.6364" lon="3.83139">
        <ele>73</ele>
        <time>2021-02-20T15:29:10Z</time>
      </trkpt>
      <trkpt lat="43.63636" lon="3.8314">
        <ele>73</ele>
        <time>2021-02-20T15:29:11Z</time>
      </trkpt>
      <trkpt lat="43.63633" lon="3.83142">
        <ele>73</ele>
        <time>2021-02-20T15:29:12Z</time>
      </trkpt>
      <trkpt lat="43.63629" lon="3.83143">
        <ele>73</ele>
        <time>2021-02-20T15:29:13Z</time>
      </trkpt>
      <trkpt lat="43.63625" lon="3.83145">
        <ele>73</ele>
        <time>2021-02-20T15:29:14Z</time>
      </trkpt>
      <trkpt lat="43.63622" lon="3.83147">
        <ele>73</ele>
        <time>2021-02-20T15:29:15Z</time>
      </trkpt>
      <trkpt lat="43.63619" lon="3.83149">
        <ele>73</ele>
        <time>2021-02-20T15:29:16Z</time>
      </trkpt>
      <trkpt lat="43.63616" lon="3.83151">
        <ele>73</ele>
        <time>2021-02-20T15:29:17Z</time>
      </trkpt>
      <trkpt lat="43.63612" lon="3.83153">
        <ele>73</ele>
        <time>2021-02-20T15:29:18Z</time>
      </trkpt>
      <trkpt lat="43.63609" lon="3.83156">
        <ele>74</ele>
        <time>2021-02-20T15:29:19Z</time>
      </trkpt>
      <trkpt lat="43.63605" lon="3.83159">
        <ele>74</ele>
        <time>2021-02-20T15:29:20Z</time>
      </trkpt>
      <trkpt lat="43.63601" lon="3.83162">
        <ele>74</ele>
        <time>2021-02-20T15:29:21Z</time>
      </trkpt>
      <trkpt lat="43.63596" lon="3.83165">
        <ele>74</ele>
        <time>2021-02-20T15:29:22Z</time>
      </trkpt>
      <trkpt lat="43.63592" lon="3.83169">
        <ele>74</ele>
        <time>2021-02-20T15:29:23Z</time>
      </trkpt>
      <trkpt lat="43.63588" lon="3.83172">
        <ele>74</ele>
        <time>2021-02-20T15:29:24Z</time>
      </trkpt>
      <trkpt lat="43.63585" lon="3.83176">
        <ele>74</ele>
        <time>2021-02-20T15:29:25Z</time>
      </trkpt>
      <trkpt lat="43.63581" lon="3.83179">
        <ele>74</ele>
        <time>2021-02-20T15:29:26Z</time>
      </trkpt>
      <trkpt lat="43.63578" lon="3.83183">
        <ele>74</ele>
        <time>2021-02-20T15:29:27Z</time>
      </trkpt>
      <trkpt lat="43.6357" lon="3.83191">
        <ele>73</ele>
        <time>2021-02-20T15:29:29Z</time>
      </trkpt>
      <trkpt lat="43.63567" lon="3.83195">
        <ele>73</ele>
        <time>2021-02-20T15:29:30Z</time>
      </trkpt>
      <trkpt lat="43.63563" lon="3.83199">
        <ele>73</ele>
        <time>2021-02-20T15:29:31Z</time>
      </trkpt>
      <trkpt lat="43.63558" lon="3.83204">
        <ele>73</ele>
        <time>2021-02-20T15:29:32Z</time>
      </trkpt>
      <trkpt lat="43.63555" lon="3.83209">
        <ele>73</ele>
        <time>2021-02-20T15:29:33Z</time>
      </trkpt>
      <trkpt lat="43.6355" lon="3.83213">
        <ele>73</ele>
        <time>2021-02-20T15:29:34Z</time>
      </trkpt>
      <trkpt lat="43.63546" lon="3.83217">
        <ele>73</ele>
        <time>2021-02-20T15:29:35Z</time>
      </trkpt>
      <trkpt lat="43.63542" lon="3.83221">
        <ele>73</ele>
        <time>2021-02-20T15:29:36Z</time>
      </trkpt>
      <trkpt lat="43.63538" lon="3.83226">
        <ele>73</ele>
        <time>2021-02-20T15:29:37Z</time>
      </trkpt>
      <trkpt lat="43.63534" lon="3.8323">
        <ele>73</ele>
        <time>2021-02-20T15:29:38Z</time>
      </trkpt>
      <trkpt lat="43.6353" lon="3.83234">
        <ele>74</ele>
        <time>2021-02-20T15:29:39Z</time>
      </trkpt>
      <trkpt lat="43.63525" lon="3.83238">
        <ele>74</ele>
        <time>2021-02-20T15:29:40Z</time>
      </trkpt>
      <trkpt lat="43.63517" lon="3.83246">
        <ele>74</ele>
        <time>2021-02-20T15:29:42Z</time>
      </trkpt>
      <trkpt lat="43.63513" lon="3.83251">
        <ele>74</ele>
        <time>2021-02-20T15:29:43Z</time>
      </trkpt>
      <trkpt lat="43.63509" lon="3.83255">
        <ele>74</ele>
        <time>2021-02-20T15:29:44Z</time>
      </trkpt>
      <trkpt lat="43.63504" lon="3.83259">
        <ele>74</ele>
        <time>2021-02-20T15:29:45Z</time>
      </trkpt>
      <trkpt lat="43.635" lon="3.83263">
        <ele>74</ele>
        <time>2021-02-20T15:29:46Z</time>
      </trkpt>
      <trkpt lat="43.63496" lon="3.83268">
        <ele>74</ele>
        <time>2021-02-20T15:29:47Z</time>
      </trkpt>
      <trkpt lat="43.63492" lon="3.83272">
        <ele>74</ele>
        <time>2021-02-20T15:29:48Z</time>
      </trkpt>
      <trkpt lat="43.63488" lon="3.83277">
        <ele>72</ele>
        <time>2021-02-20T15:29:49Z</time>
      </trkpt>
      <trkpt lat="43.63484" lon="3.83281">
        <ele>72</ele>
        <time>2021-02-20T15:29:50Z</time>
      </trkpt>
      <trkpt lat="43.63481" lon="3.83287">
        <ele>72</ele>
        <time>2021-02-20T15:29:51Z</time>
      </trkpt>
      <trkpt lat="43.63477" lon="3.83292">
        <ele>72</ele>
        <time>2021-02-20T15:29:52Z</time>
      </trkpt>
      <trkpt lat="43.63473" lon="3.83296">
        <ele>72</ele>
        <time>2021-02-20T15:29:53Z</time>
      </trkpt>
      <trkpt lat="43.63469" lon="3.83301">
        <ele>72</ele>
        <time>2021-02-20T15:29:54Z</time>
      </trkpt>
      <trkpt lat="43.63466" lon="3.83306">
        <ele>72</ele>
        <time>2021-02-20T15:29:55Z</time>
      </trkpt>
      <trkpt lat="43.63462" lon="3.8331">
        <ele>72</ele>
        <time>2021-02-20T15:29:56Z</time>
      </trkpt>
      <trkpt lat="43.63459" lon="3.83314">
        <ele>72</ele>
        <time>2021-02-20T15:29:57Z</time>
      </trkpt>
      <trkpt lat="43.63455" lon="3.83318">
        <ele>72</ele>
        <time>2021-02-20T15:29:58Z</time>
      </trkpt>
      <trkpt lat="43.63452" lon="3.83322">
        <ele>71</ele>
        <time>2021-02-20T15:29:59Z</time>
      </trkpt>
      <trkpt lat="43.63449" lon="3.83327">
        <ele>71</ele>
        <time>2021-02-20T15:30:00Z</time>
      </trkpt>
      <trkpt lat="43.63447" lon="3.83332">
        <ele>71</ele>
        <time>2021-02-20T15:30:01Z</time>
      </trkpt>
      <trkpt lat="43.63444" lon="3.83336">
        <ele>71</ele>
        <time>2021-02-20T15:30:02Z</time>
      </trkpt>
      <trkpt lat="43.63442" lon="3.83341">
        <ele>71</ele>
        <time>2021-02-20T15:30:03Z</time>
      </trkpt>
      <trkpt lat="43.63439" lon="3.83345">
        <ele>71</ele>
        <time>2021-02-20T15:30:04Z</time>
      </trkpt>
      <trkpt lat="43.63437" lon="3.83349">
        <ele>71</ele>
        <time>2021-02-20T15:30:05Z</time>
      </trkpt>
      <trkpt lat="43.63435" lon="3.83354">
        <ele>71</ele>
        <time>2021-02-20T15:30:06Z</time>
      </trkpt>
      <trkpt lat="43.63433" lon="3.83358">
        <ele>71</ele>
        <time>2021-02-20T15:30:07Z</time>
      </trkpt>
      <trkpt lat="43.63431" lon="3.83362">
        <ele>71</ele>
        <time>2021-02-20T15:30:08Z</time>
      </trkpt>
      <trkpt lat="43.63428" lon="3.83366">
        <ele>71</ele>
        <time>2021-02-20T15:30:09Z</time>
      </trkpt>
      <trkpt lat="43.63426" lon="3.83369">
        <ele>71</ele>
        <time>2021-02-20T15:30:10Z</time>
      </trkpt>
      <trkpt lat="43.63425" lon="3.83374">
        <ele>71</ele>
        <time>2021-02-20T15:30:11Z</time>
      </trkpt>
      <trkpt lat="43.63423" lon="3.83379">
        <ele>71</ele>
        <time>2021-02-20T15:30:12Z</time>
      </trkpt>
      <trkpt lat="43.6342" lon="3.83384">
        <ele>71</ele>
        <time>2021-02-20T15:30:13Z</time>
      </trkpt>
      <trkpt lat="43.63418" lon="3.8339">
        <ele>71</ele>
        <time>2021-02-20T15:30:14Z</time>
      </trkpt>
      <trkpt lat="43.63415" lon="3.83395">
        <ele>71</ele>
        <time>2021-02-20T15:30:15Z</time>
      </trkpt>
      <trkpt lat="43.63411" lon="3.83401">
        <ele>71</ele>
        <time>2021-02-20T15:30:16Z</time>
      </trkpt>
      <trkpt lat="43.63408" lon="3.83407">
        <ele>71</ele>
        <time>2021-02-20T15:30:17Z</time>
      </trkpt>
      <trkpt lat="43.63404" lon="3.83414">
        <ele>71</ele>
        <time>2021-02-20T15:30:18Z</time>
      </trkpt>
      <trkpt lat="43.634" lon="3.83421">
        <ele>70</ele>
        <time>2021-02-20T15:30:19Z</time>
      </trkpt>
      <trkpt lat="43.63397" lon="3.83429">
        <ele>70</ele>
        <time>2021-02-20T15:30:20Z</time>
      </trkpt>
      <trkpt lat="43.63394" lon="3.83437">
        <ele>70</ele>
        <time>2021-02-20T15:30:21Z</time>
      </trkpt>
      <trkpt lat="43.63391" lon="3.83445">
        <ele>70</ele>
        <time>2021-02-20T15:30:22Z</time>
      </trkpt>
      <trkpt lat="43.63388" lon="3.83453">
        <ele>70</ele>
        <time>2021-02-20T15:30:23Z</time>
      </trkpt>
      <trkpt lat="43.63385" lon="3.83461">
        <ele>70</ele>
        <time>2021-02-20T15:30:24Z</time>
      </trkpt>
      <trkpt lat="43.63382" lon="3.83468">
        <ele>70</ele>
        <time>2021-02-20T15:30:25Z</time>
      </trkpt>
      <trkpt lat="43.63378" lon="3.83475">
        <ele>70</ele>
        <time>2021-02-20T15:30:26Z</time>
      </trkpt>
      <trkpt lat="43.63374" lon="3.83482">
        <ele>70</ele>
        <time>2021-02-20T15:30:27Z</time>
      </trkpt>
      <trkpt lat="43.63371" lon="3.83489">
        <ele>70</ele>
        <time>2021-02-20T15:30:28Z</time>
      </trkpt>
      <trkpt lat="43.63365" lon="3.83504">
        <ele>70</ele>
        <time>2021-02-20T15:30:30Z</time>
      </trkpt>
      <trkpt lat="43.63362" lon="3.83511">
        <ele>70</ele>
        <time>2021-02-20T15:30:31Z</time>
      </trkpt>
      <trkpt lat="43.63359" lon="3.83518">
        <ele>70</ele>
        <time>2021-02-20T15:30:32Z</time>
      </trkpt>
      <trkpt lat="43.63356" lon="3.83525">
        <ele>70</ele>
        <time>2021-02-20T15:30:33Z</time>
      </trkpt>
      <trkpt lat="43.63353" lon="3.8353">
        <ele>70</ele>
        <time>2021-02-20T15:30:34Z</time>
      </trkpt>
      <trkpt lat="43.63348" lon="3.83534">
        <ele>70</ele>
        <time>2021-02-20T15:30:35Z</time>
      </trkpt>
      <trkpt lat="43.63344" lon="3.83535">
        <ele>70</ele>
        <time>2021-02-20T15:30:36Z</time>
      </trkpt>
      <trkpt lat="43.6334" lon="3.83535">
        <ele>70</ele>
        <time>2021-02-20T15:30:37Z</time>
      </trkpt>
      <trkpt lat="43.63337" lon="3.83533">
        <ele>70</ele>
        <time>2021-02-20T15:30:38Z</time>
      </trkpt>
      <trkpt lat="43.63333" lon="3.8353">
        <ele>66</ele>
        <time>2021-02-20T15:30:39Z</time>
      </trkpt>
      <trkpt lat="43.63328" lon="3.83528">
        <ele>66</ele>
        <time>2021-02-20T15:30:40Z</time>
      </trkpt>
      <trkpt lat="43.63324" lon="3.83526">
        <ele>66</ele>
        <time>2021-02-20T15:30:41Z</time>
      </trkpt>
      <trkpt lat="43.6332" lon="3.83525">
        <ele>66</ele>
        <time>2021-02-20T15:30:42Z</time>
      </trkpt>
      <trkpt lat="43.63315" lon="3.83523">
        <ele>66</ele>
        <time>2021-02-20T15:30:43Z</time>
      </trkpt>
      <trkpt lat="43.63311" lon="3.83522">
        <ele>66</ele>
        <time>2021-02-20T15:30:44Z</time>
      </trkpt>
      <trkpt lat="43.63309" lon="3.83522">
        <ele>66</ele>
        <time>2021-02-20T15:30:45Z</time>
      </trkpt>
      <trkpt lat="43.63303" lon="3.8353">
        <ele>66</ele>
        <time>2021-02-20T15:30:47Z</time>
      </trkpt>
      <trkpt lat="43.633" lon="3.83535">
        <ele>66</ele>
        <time>2021-02-20T15:30:48Z</time>
      </trkpt>
      <trkpt lat="43.63298" lon="3.83541">
        <ele>66</ele>
        <time>2021-02-20T15:30:49Z</time>
      </trkpt>
      <trkpt lat="43.63294" lon="3.83556">
        <ele>66</ele>
        <time>2021-02-20T15:30:51Z</time>
      </trkpt>
      <trkpt lat="43.63291" lon="3.83563">
        <ele>66</ele>
        <time>2021-02-20T15:30:52Z</time>
      </trkpt>
      <trkpt lat="43.63286" lon="3.83575">
        <ele>66</ele>
        <time>2021-02-20T15:30:54Z</time>
      </trkpt>
      <trkpt lat="43.63282" lon="3.83591">
        <ele>66</ele>
        <time>2021-02-20T15:30:56Z</time>
      </trkpt>
      <trkpt lat="43.63278" lon="3.83596">
        <ele>66</ele>
        <time>2021-02-20T15:30:57Z</time>
      </trkpt>
      <trkpt lat="43.63274" lon="3.83601">
        <ele>66</ele>
        <time>2021-02-20T15:30:58Z</time>
      </trkpt>
      <trkpt lat="43.63267" lon="3.83613">
        <ele>66</ele>
        <time>2021-02-20T15:31:00Z</time>
      </trkpt>
      <trkpt lat="43.63262" lon="3.83625">
        <ele>66</ele>
        <time>2021-02-20T15:31:02Z</time>
      </trkpt>
      <trkpt lat="43.63258" lon="3.83631">
        <ele>66</ele>
        <time>2021-02-20T15:31:03Z</time>
      </trkpt>
      <trkpt lat="43.63255" lon="3.83636">
        <ele>66</ele>
        <time>2021-02-20T15:31:04Z</time>
      </trkpt>
      <trkpt lat="43.63249" lon="3.83649">
        <ele>66</ele>
        <time>2021-02-20T15:31:06Z</time>
      </trkpt>
      <trkpt lat="43.63247" lon="3.83655">
        <ele>66</ele>
        <time>2021-02-20T15:31:07Z</time>
      </trkpt>
      <trkpt lat="43.63245" lon="3.83662">
        <ele>66</ele>
        <time>2021-02-20T15:31:08Z</time>
      </trkpt>
      <trkpt lat="43.63243" lon="3.8367">
        <ele>65</ele>
        <time>2021-02-20T15:31:09Z</time>
      </trkpt>
      <trkpt lat="43.63241" lon="3.83677">
        <ele>65</ele>
        <time>2021-02-20T15:31:10Z</time>
      </trkpt>
      <trkpt lat="43.63239" lon="3.83685">
        <ele>65</ele>
        <time>2021-02-20T15:31:11Z</time>
      </trkpt>
      <trkpt lat="43.63237" lon="3.83691">
        <ele>65</ele>
        <time>2021-02-20T15:31:12Z</time>
      </trkpt>
      <trkpt lat="43.63234" lon="3.83698">
        <ele>65</ele>
        <time>2021-02-20T15:31:13Z</time>
      </trkpt>
      <trkpt lat="43.63231" lon="3.83704">
        <ele>65</ele>
        <time>2021-02-20T15:31:14Z</time>
      </trkpt>
      <trkpt lat="43.63229" lon="3.83709">
        <ele>65</ele>
        <time>2021-02-20T15:31:15Z</time>
      </trkpt>
      <trkpt lat="43.63227" lon="3.83714">
        <ele>65</ele>
        <time>2021-02-20T15:31:16Z</time>
      </trkpt>
      <trkpt lat="43.63225" lon="3.83719">
        <ele>65</ele>
        <time>2021-02-20T15:31:17Z</time>
      </trkpt>
      <trkpt lat="43.63223" lon="3.83724">
        <ele>65</ele>
        <time>2021-02-20T15:31:18Z</time>
      </trkpt>
      <trkpt lat="43.6322" lon="3.83729">
        <ele>66</ele>
        <time>2021-02-20T15:31:19Z</time>
      </trkpt>
      <trkpt lat="43.63217" lon="3.83734">
        <ele>66</ele>
        <time>2021-02-20T15:31:20Z</time>
      </trkpt>
      <trkpt lat="43.63214" lon="3.83738">
        <ele>66</ele>
        <time>2021-02-20T15:31:21Z</time>
      </trkpt>
      <trkpt lat="43.63211" lon="3.83742">
        <ele>66</ele>
        <time>2021-02-20T15:31:22Z</time>
      </trkpt>
      <trkpt lat="43.63203" lon="3.83757">
        <ele>66</ele>
        <time>2021-02-20T15:31:25Z</time>
      </trkpt>
      <trkpt lat="43.63199" lon="3.83761">
        <ele>66</ele>
        <time>2021-02-20T15:31:26Z</time>
      </trkpt>
      <trkpt lat="43.63194" lon="3.83766">
        <ele>66</ele>
        <time>2021-02-20T15:31:27Z</time>
      </trkpt>
      <trkpt lat="43.63191" lon="3.83771">
        <ele>66</ele>
        <time>2021-02-20T15:31:28Z</time>
      </trkpt>
      <trkpt lat="43.63187" lon="3.83776">
        <ele>66</ele>
        <time>2021-02-20T15:31:29Z</time>
      </trkpt>
      <trkpt lat="43.63184" lon="3.83781">
        <ele>66</ele>
        <time>2021-02-20T15:31:30Z</time>
      </trkpt>
      <trkpt lat="43.63182" lon="3.83786">
        <ele>66</ele>
        <time>2021-02-20T15:31:31Z</time>
      </trkpt>
      <trkpt lat="43.6318" lon="3.8379">
        <ele>66</ele>
        <time>2021-02-20T15:31:32Z</time>
      </trkpt>
      <trkpt lat="43.63177" lon="3.83794">
        <ele>66</ele>
        <time>2021-02-20T15:31:33Z</time>
      </trkpt>
      <trkpt lat="43.63175" lon="3.83797">
        <ele>66</ele>
        <time>2021-02-20T15:31:34Z</time>
      </trkpt>
      <trkpt lat="43.63171" lon="3.83802">
        <ele>66</ele>
        <time>2021-02-20T15:31:35Z</time>
      </trkpt>
      <trkpt lat="43.63167" lon="3.83807">
        <ele>66</ele>
        <time>2021-02-20T15:31:36Z</time>
      </trkpt>
      <trkpt lat="43.63162" lon="3.83813">
        <ele>66</ele>
        <time>2021-02-20T15:31:37Z</time>
      </trkpt>
      <trkpt lat="43.63158" lon="3.83819">
        <ele>66</ele>
        <time>2021-02-20T15:31:38Z</time>
      </trkpt>
      <trkpt lat="43.63152" lon="3.83836">
        <ele>66</ele>
        <time>2021-02-20T15:31:41Z</time>
      </trkpt>
      <trkpt lat="43.63147" lon="3.83852">
        <ele>66</ele>
        <time>2021-02-20T15:31:43Z</time>
      </trkpt>
      <trkpt lat="43.63144" lon="3.8386">
        <ele>66</ele>
        <time>2021-02-20T15:31:44Z</time>
      </trkpt>
      <trkpt lat="43.63141" lon="3.83868">
        <ele>66</ele>
        <time>2021-02-20T15:31:45Z</time>
      </trkpt>
      <trkpt lat="43.63138" lon="3.83875">
        <ele>66</ele>
        <time>2021-02-20T15:31:46Z</time>
      </trkpt>
      <trkpt lat="43.63136" lon="3.83882">
        <ele>66</ele>
        <time>2021-02-20T15:31:47Z</time>
      </trkpt>
      <trkpt lat="43.63135" lon="3.83888">
        <ele>66</ele>
        <time>2021-02-20T15:31:48Z</time>
      </trkpt>
      <trkpt lat="43.63133" lon="3.83894">
        <ele>65</ele>
        <time>2021-02-20T15:31:49Z</time>
      </trkpt>
      <trkpt lat="43.63131" lon="3.83902">
        <ele>65</ele>
        <time>2021-02-20T15:31:50Z</time>
      </trkpt>
      <trkpt lat="43.63129" lon="3.83908">
        <ele>65</ele>
        <time>2021-02-20T15:31:51Z</time>
      </trkpt>
      <trkpt lat="43.63127" lon="3.83916">
        <ele>65</ele>
        <time>2021-02-20T15:31:52Z</time>
      </trkpt>
      <trkpt lat="43.63125" lon="3.83923">
        <ele>65</ele>
        <time>2021-02-20T15:31:53Z</time>
      </trkpt>
      <trkpt lat="43.63123" lon="3.83929">
        <ele>65</ele>
        <time>2021-02-20T15:31:54Z</time>
      </trkpt>
      <trkpt lat="43.63118" lon="3.83942">
        <ele>65</ele>
        <time>2021-02-20T15:31:56Z</time>
      </trkpt>
      <trkpt lat="43.63115" lon="3.83949">
        <ele>65</ele>
        <time>2021-02-20T15:31:57Z</time>
      </trkpt>
      <trkpt lat="43.63112" lon="3.83956">
        <ele>65</ele>
        <time>2021-02-20T15:31:58Z</time>
      </trkpt>
      <trkpt lat="43.63109" lon="3.83962">
        <ele>64</ele>
        <time>2021-02-20T15:31:59Z</time>
      </trkpt>
      <trkpt lat="43.63107" lon="3.83967">
        <ele>64</ele>
        <time>2021-02-20T15:32:00Z</time>
      </trkpt>
      <trkpt lat="43.63105" lon="3.83974">
        <ele>64</ele>
        <time>2021-02-20T15:32:01Z</time>
      </trkpt>
      <trkpt lat="43.63102" lon="3.83981">
        <ele>64</ele>
        <time>2021-02-20T15:32:02Z</time>
      </trkpt>
      <trkpt lat="43.63099" lon="3.83988">
        <ele>64</ele>
        <time>2021-02-20T15:32:03Z</time>
      </trkpt>
      <trkpt lat="43.63097" lon="3.83996">
        <ele>64</ele>
        <time>2021-02-20T15:32:04Z</time>
      </trkpt>
      <trkpt lat="43.63095" lon="3.84003">
        <ele>64</ele>
        <time>2021-02-20T15:32:05Z</time>
      </trkpt>
      <trkpt lat="43.63093" lon="3.84009">
        <ele>64</ele>
        <time>2021-02-20T15:32:06Z</time>
      </trkpt>
      <trkpt lat="43.63092" lon="3.84015">
        <ele>64</ele>
        <time>2021-02-20T15:32:07Z</time>
      </trkpt>
      <trkpt lat="43.6309" lon="3.84026">
        <ele>64</ele>
        <time>2021-02-20T15:32:09Z</time>
      </trkpt>
      <trkpt lat="43.6309" lon="3.84032">
        <ele>64</ele>
        <time>2021-02-20T15:32:10Z</time>
      </trkpt>
      <trkpt lat="43.63089" lon="3.84038">
        <ele>64</ele>
        <time>2021-02-20T15:32:11Z</time>
      </trkpt>
      <trkpt lat="43.63087" lon="3.84044">
        <ele>64</ele>
        <time>2021-02-20T15:32:12Z</time>
      </trkpt>
      <trkpt lat="43.63083" lon="3.8405">
        <ele>64</ele>
        <time>2021-02-20T15:32:13Z</time>
      </trkpt>
      <trkpt lat="43.63081" lon="3.84056">
        <ele>64</ele>
        <time>2021-02-20T15:32:14Z</time>
      </trkpt>
      <trkpt lat="43.63078" lon="3.84061">
        <ele>64</ele>
        <time>2021-02-20T15:32:15Z</time>
      </trkpt>
      <trkpt lat="43.63077" lon="3.84065">
        <ele>64</ele>
        <time>2021-02-20T15:32:16Z</time>
      </trkpt>
      <trkpt lat="43.63075" lon="3.84069">
        <ele>64</ele>
        <time>2021-02-20T15:32:17Z</time>
      </trkpt>
      <trkpt lat="43.63074" lon="3.84073">
        <ele>64</ele>
        <time>2021-02-20T15:32:18Z</time>
      </trkpt>
      <trkpt lat="43.63073" lon="3.84077">
        <ele>63</ele>
        <time>2021-02-20T15:32:19Z</time>
      </trkpt>
      <trkpt lat="43.63072" lon="3.84081">
        <ele>63</ele>
        <time>2021-02-20T15:32:20Z</time>
      </trkpt>
      <trkpt lat="43.63072" lon="3.84084">
        <ele>63</ele>
        <time>2021-02-20T15:32:21Z</time>
      </trkpt>
      <trkpt lat="43.63072" lon="3.84089">
        <ele>63</ele>
        <time>2021-02-20T15:32:22Z</time>
      </trkpt>
      <trkpt lat="43.63073" lon="3.84094">
        <ele>63</ele>
        <time>2021-02-20T15:32:23Z</time>
      </trkpt>
      <trkpt lat="43.63074" lon="3.84099">
        <ele>63</ele>
        <time>2021-02-20T15:32:24Z</time>
      </trkpt>
      <trkpt lat="43.63075" lon="3.84106">
        <ele>63</ele>
        <time>2021-02-20T15:32:25Z</time>
      </trkpt>
      <trkpt lat="43.63074" lon="3.84113">
        <ele>63</ele>
        <time>2021-02-20T15:32:26Z</time>
      </trkpt>
      <trkpt lat="43.63069" lon="3.84125">
        <ele>63</ele>
        <time>2021-02-20T15:32:28Z</time>
      </trkpt>
      <trkpt lat="43.63066" lon="3.8413">
        <ele>62</ele>
        <time>2021-02-20T15:32:29Z</time>
      </trkpt>
      <trkpt lat="43.6306" lon="3.8414">
        <ele>62</ele>
        <time>2021-02-20T15:32:31Z</time>
      </trkpt>
      <trkpt lat="43.63057" lon="3.84145">
        <ele>62</ele>
        <time>2021-02-20T15:32:32Z</time>
      </trkpt>
      <trkpt lat="43.63055" lon="3.8415">
        <ele>62</ele>
        <time>2021-02-20T15:32:33Z</time>
      </trkpt>
      <trkpt lat="43.63052" lon="3.84155">
        <ele>62</ele>
        <time>2021-02-20T15:32:34Z</time>
      </trkpt>
      <trkpt lat="43.6305" lon="3.8416">
        <ele>62</ele>
        <time>2021-02-20T15:32:35Z</time>
      </trkpt>
      <trkpt lat="43.63048" lon="3.84165">
        <ele>62</ele>
        <time>2021-02-20T15:32:36Z</time>
      </trkpt>
      <trkpt lat="43.63047" lon="3.84168">
        <ele>62</ele>
        <time>2021-02-20T15:32:37Z</time>
      </trkpt>
      <trkpt lat="43.63045" lon="3.84171">
        <ele>62</ele>
        <time>2021-02-20T15:32:38Z</time>
      </trkpt>
      <trkpt lat="43.63044" lon="3.84173">
        <ele>62</ele>
        <time>2021-02-20T15:32:40Z</time>
      </trkpt>
      <trkpt lat="43.63039" lon="3.8419">
        <ele>58</ele>
        <time>2021-02-20T15:33:03Z</time>
      </trkpt>
      <trkpt lat="43.63038" lon="3.84196">
        <ele>58</ele>
        <time>2021-02-20T15:33:04Z</time>
      </trkpt>
      <trkpt lat="43.63037" lon="3.84196">
        <ele>57</ele>
        <time>2021-02-20T15:33:11Z</time>
      </trkpt>
      <trkpt lat="43.63033" lon="3.84209">
        <ele>57</ele>
        <time>2021-02-20T15:33:23Z</time>
      </trkpt>
      <trkpt lat="43.63033" lon="3.84213">
        <ele>57</ele>
        <time>2021-02-20T15:33:24Z</time>
      </trkpt>
      <trkpt lat="43.63033" lon="3.84217">
        <ele>57</ele>
        <time>2021-02-20T15:33:25Z</time>
      </trkpt>
      <trkpt lat="43.63032" lon="3.84221">
        <ele>57</ele>
        <time>2021-02-20T15:33:26Z</time>
      </trkpt>
      <trkpt lat="43.63031" lon="3.84224">
        <ele>57</ele>
        <time>2021-02-20T15:33:27Z</time>
      </trkpt>
      <trkpt lat="43.6303" lon="3.84233">
        <ele>57</ele>
        <time>2021-02-20T15:33:29Z</time>
      </trkpt>
      <trkpt lat="43.6303" lon="3.84238">
        <ele>57</ele>
        <time>2021-02-20T15:33:30Z</time>
      </trkpt>
      <trkpt lat="43.63031" lon="3.84244">
        <ele>57</ele>
        <time>2021-02-20T15:33:31Z</time>
      </trkpt>
      <trkpt lat="43.63032" lon="3.84249">
        <ele>56</ele>
        <time>2021-02-20T15:33:32Z</time>
      </trkpt>
      <trkpt lat="43.63033" lon="3.84254">
        <ele>56</ele>
        <time>2021-02-20T15:33:33Z</time>
      </trkpt>
      <trkpt lat="43.63034" lon="3.8426">
        <ele>56</ele>
        <time>2021-02-20T15:33:34Z</time>
      </trkpt>
      <trkpt lat="43.63034" lon="3.84265">
        <ele>56</ele>
        <time>2021-02-20T15:33:35Z</time>
      </trkpt>
      <trkpt lat="43.63034" lon="3.84271">
        <ele>56</ele>
        <time>2021-02-20T15:33:36Z</time>
      </trkpt>
      <trkpt lat="43.63032" lon="3.84276">
        <ele>56</ele>
        <time>2021-02-20T15:33:37Z</time>
      </trkpt>
      <trkpt lat="43.6303" lon="3.84281">
        <ele>56</ele>
        <time>2021-02-20T15:33:38Z</time>
      </trkpt>
      <trkpt lat="43.63029" lon="3.84287">
        <ele>56</ele>
        <time>2021-02-20T15:33:39Z</time>
      </trkpt>
      <trkpt lat="43.63027" lon="3.84293">
        <ele>56</ele>
        <time>2021-02-20T15:33:40Z</time>
      </trkpt>
      <trkpt lat="43.63023" lon="3.84298">
        <ele>56</ele>
        <time>2021-02-20T15:33:41Z</time>
      </trkpt>
      <trkpt lat="43.63015" lon="3.84307">
        <ele>56</ele>
        <time>2021-02-20T15:33:43Z</time>
      </trkpt>
      <trkpt lat="43.63011" lon="3.84312">
        <ele>56</ele>
        <time>2021-02-20T15:33:44Z</time>
      </trkpt>
      <trkpt lat="43.63007" lon="3.84316">
        <ele>56</ele>
        <time>2021-02-20T15:33:45Z</time>
      </trkpt>
      <trkpt lat="43.63003" lon="3.84322">
        <ele>56</ele>
        <time>2021-02-20T15:33:46Z</time>
      </trkpt>
      <trkpt lat="43.63" lon="3.84326">
        <ele>56</ele>
        <time>2021-02-20T15:33:47Z</time>
      </trkpt>
      <trkpt lat="43.62996" lon="3.84331">
        <ele>56</ele>
        <time>2021-02-20T15:33:48Z</time>
      </trkpt>
      <trkpt lat="43.62993" lon="3.84336">
        <ele>56</ele>
        <time>2021-02-20T15:33:49Z</time>
      </trkpt>
      <trkpt lat="43.62989" lon="3.84341">
        <ele>56</ele>
        <time>2021-02-20T15:33:50Z</time>
      </trkpt>
      <trkpt lat="43.62986" lon="3.84347">
        <ele>56</ele>
        <time>2021-02-20T15:33:51Z</time>
      </trkpt>
      <trkpt lat="43.62982" lon="3.84352">
        <ele>55</ele>
        <time>2021-02-20T15:33:52Z</time>
      </trkpt>
      <trkpt lat="43.62979" lon="3.84358">
        <ele>55</ele>
        <time>2021-02-20T15:33:53Z</time>
      </trkpt>
      <trkpt lat="43.62975" lon="3.84363">
        <ele>55</ele>
        <time>2021-02-20T15:33:54Z</time>
      </trkpt>
      <trkpt lat="43.62972" lon="3.84368">
        <ele>55</ele>
        <time>2021-02-20T15:33:55Z</time>
      </trkpt>
      <trkpt lat="43.62969" lon="3.84373">
        <ele>55</ele>
        <time>2021-02-20T15:33:56Z</time>
      </trkpt>
      <trkpt lat="43.62966" lon="3.84378">
        <ele>55</ele>
        <time>2021-02-20T15:33:57Z</time>
      </trkpt>
      <trkpt lat="43.62963" lon="3.84383">
        <ele>55</ele>
        <time>2021-02-20T15:33:58Z</time>
      </trkpt>
      <trkpt lat="43.62959" lon="3.84387">
        <ele>55</ele>
        <time>2021-02-20T15:33:59Z</time>
      </trkpt>
      <trkpt lat="43.62955" lon="3.84391">
        <ele>55</ele>
        <time>2021-02-20T15:34:00Z</time>
      </trkpt>
      <trkpt lat="43.62952" lon="3.84396">
        <ele>55</ele>
        <time>2021-02-20T15:34:01Z</time>
      </trkpt>
      <trkpt lat="43.62949" lon="3.84407">
        <ele>55</ele>
        <time>2021-02-20T15:34:03Z</time>
      </trkpt>
      <trkpt lat="43.62947" lon="3.84413">
        <ele>55</ele>
        <time>2021-02-20T15:34:04Z</time>
      </trkpt>
      <trkpt lat="43.62945" lon="3.84419">
        <ele>55</ele>
        <time>2021-02-20T15:34:05Z</time>
      </trkpt>
      <trkpt lat="43.62942" lon="3.84425">
        <ele>55</ele>
        <time>2021-02-20T15:34:06Z</time>
      </trkpt>
      <trkpt lat="43.62939" lon="3.84431">
        <ele>55</ele>
        <time>2021-02-20T15:34:07Z</time>
      </trkpt>
      <trkpt lat="43.62935" lon="3.84438">
        <ele>55</ele>
        <time>2021-02-20T15:34:08Z</time>
      </trkpt>
      <trkpt lat="43.62931" lon="3.84445">
        <ele>55</ele>
        <time>2021-02-20T15:34:09Z</time>
      </trkpt>
      <trkpt lat="43.62928" lon="3.84452">
        <ele>55</ele>
        <time>2021-02-20T15:34:10Z</time>
      </trkpt>
      <trkpt lat="43.62924" lon="3.84459">
        <ele>55</ele>
        <time>2021-02-20T15:34:11Z</time>
      </trkpt>
      <trkpt lat="43.6292" lon="3.84466">
        <ele>54</ele>
        <time>2021-02-20T15:34:12Z</time>
      </trkpt>
      <trkpt lat="43.62917" lon="3.84473">
        <ele>54</ele>
        <time>2021-02-20T15:34:13Z</time>
      </trkpt>
      <trkpt lat="43.62913" lon="3.8448">
        <ele>54</ele>
        <time>2021-02-20T15:34:14Z</time>
      </trkpt>
      <trkpt lat="43.62909" lon="3.84487">
        <ele>54</ele>
        <time>2021-02-20T15:34:15Z</time>
      </trkpt>
      <trkpt lat="43.62901" lon="3.845">
        <ele>54</ele>
        <time>2021-02-20T15:34:17Z</time>
      </trkpt>
      <trkpt lat="43.62897" lon="3.84507">
        <ele>54</ele>
        <time>2021-02-20T15:34:18Z</time>
      </trkpt>
      <trkpt lat="43.62894" lon="3.84514">
        <ele>54</ele>
        <time>2021-02-20T15:34:19Z</time>
      </trkpt>
      <trkpt lat="43.6289" lon="3.84521">
        <ele>54</ele>
        <time>2021-02-20T15:34:20Z</time>
      </trkpt>
      <trkpt lat="43.62886" lon="3.84529">
        <ele>54</ele>
        <time>2021-02-20T15:34:21Z</time>
      </trkpt>
      <trkpt lat="43.62883" lon="3.84536">
        <ele>54</ele>
        <time>2021-02-20T15:34:22Z</time>
      </trkpt>
      <trkpt lat="43.62879" lon="3.84543">
        <ele>54</ele>
        <time>2021-02-20T15:34:23Z</time>
      </trkpt>
      <trkpt lat="43.62874" lon="3.84549">
        <ele>54</ele>
        <time>2021-02-20T15:34:24Z</time>
      </trkpt>
      <trkpt lat="43.62869" lon="3.84555">
        <ele>54</ele>
        <time>2021-02-20T15:34:25Z</time>
      </trkpt>
      <trkpt lat="43.62865" lon="3.84561">
        <ele>54</ele>
        <time>2021-02-20T15:34:26Z</time>
      </trkpt>
      <trkpt lat="43.62861" lon="3.84567">
        <ele>54</ele>
        <time>2021-02-20T15:34:27Z</time>
      </trkpt>
      <trkpt lat="43.62856" lon="3.84572">
        <ele>54</ele>
        <time>2021-02-20T15:34:28Z</time>
      </trkpt>
      <trkpt lat="43.62852" lon="3.84577">
        <ele>54</ele>
        <time>2021-02-20T15:34:29Z</time>
      </trkpt>
      <trkpt lat="43.62848" lon="3.8458">
        <ele>54</ele>
        <time>2021-02-20T15:34:30Z</time>
      </trkpt>
      <trkpt lat="43.62842" lon="3.84584">
        <ele>54</ele>
        <time>2021-02-20T15:34:31Z</time>
      </trkpt>
      <trkpt lat="43.62836" lon="3.84588">
        <ele>53</ele>
        <time>2021-02-20T15:34:32Z</time>
      </trkpt>
      <trkpt lat="43.62829" lon="3.84591">
        <ele>53</ele>
        <time>2021-02-20T15:34:33Z</time>
      </trkpt>
      <trkpt lat="43.62821" lon="3.84595">
        <ele>53</ele>
        <time>2021-02-20T15:34:34Z</time>
      </trkpt>
      <trkpt lat="43.62814" lon="3.846">
        <ele>53</ele>
        <time>2021-02-20T15:34:35Z</time>
      </trkpt>
      <trkpt lat="43.62808" lon="3.84605">
        <ele>53</ele>
        <time>2021-02-20T15:34:36Z</time>
      </trkpt>
      <trkpt lat="43.62795" lon="3.84615">
        <ele>53</ele>
        <time>2021-02-20T15:34:38Z</time>
      </trkpt>
      <trkpt lat="43.62788" lon="3.8462">
        <ele>53</ele>
        <time>2021-02-20T15:34:39Z</time>
      </trkpt>
      <trkpt lat="43.62782" lon="3.84625">
        <ele>53</ele>
        <time>2021-02-20T15:34:40Z</time>
      </trkpt>
      <trkpt lat="43.62776" lon="3.84631">
        <ele>53</ele>
        <time>2021-02-20T15:34:41Z</time>
      </trkpt>
      <trkpt lat="43.62767" lon="3.84642">
        <ele>53</ele>
        <time>2021-02-20T15:34:43Z</time>
      </trkpt>
      <trkpt lat="43.62764" lon="3.84648">
        <ele>53</ele>
        <time>2021-02-20T15:34:44Z</time>
      </trkpt>
      <trkpt lat="43.6276" lon="3.84654">
        <ele>53</ele>
        <time>2021-02-20T15:34:45Z</time>
      </trkpt>
      <trkpt lat="43.62756" lon="3.84661">
        <ele>53</ele>
        <time>2021-02-20T15:34:46Z</time>
      </trkpt>
      <trkpt lat="43.62752" lon="3.84669">
        <ele>53</ele>
        <time>2021-02-20T15:34:47Z</time>
      </trkpt>
      <trkpt lat="43.62747" lon="3.84676">
        <ele>53</ele>
        <time>2021-02-20T15:34:48Z</time>
      </trkpt>
      <trkpt lat="43.62743" lon="3.84683">
        <ele>53</ele>
        <time>2021-02-20T15:34:49Z</time>
      </trkpt>
      <trkpt lat="43.62738" lon="3.84689">
        <ele>53</ele>
        <time>2021-02-20T15:34:50Z</time>
      </trkpt>
      <trkpt lat="43.62734" lon="3.84696">
        <ele>53</ele>
        <time>2021-02-20T15:34:51Z</time>
      </trkpt>
      <trkpt lat="43.6273" lon="3.84703">
        <ele>54</ele>
        <time>2021-02-20T15:34:52Z</time>
      </trkpt>
      <trkpt lat="43.62726" lon="3.84711">
        <ele>54</ele>
        <time>2021-02-20T15:34:53Z</time>
      </trkpt>
      <trkpt lat="43.62722" lon="3.84719">
        <ele>54</ele>
        <time>2021-02-20T15:34:54Z</time>
      </trkpt>
      <trkpt lat="43.62719" lon="3.84726">
        <ele>54</ele>
        <time>2021-02-20T15:34:55Z</time>
      </trkpt>
      <trkpt lat="43.62716" lon="3.84734">
        <ele>54</ele>
        <time>2021-02-20T15:34:56Z</time>
      </trkpt>
      <trkpt lat="43.62713" lon="3.84741">
        <ele>54</ele>
        <time>2021-02-20T15:34:57Z</time>
      </trkpt>
      <trkpt lat="43.6271" lon="3.84749">
        <ele>54</ele>
        <time>2021-02-20T15:34:58Z</time>
      </trkpt>
      <trkpt lat="43.62706" lon="3.84756">
        <ele>54</ele>
        <time>2021-02-20T15:34:59Z</time>
      </trkpt>
      <trkpt lat="43.62703" lon="3.84763">
        <ele>54</ele>
        <time>2021-02-20T15:35:00Z</time>
      </trkpt>
      <trkpt lat="43.62699" lon="3.8477">
        <ele>54</ele>
        <time>2021-02-20T15:35:01Z</time>
      </trkpt>
      <trkpt lat="43.62696" lon="3.84777">
        <ele>49</ele>
        <time>2021-02-20T15:35:02Z</time>
      </trkpt>
      <trkpt lat="43.62693" lon="3.84784">
        <ele>49</ele>
        <time>2021-02-20T15:35:03Z</time>
      </trkpt>
      <trkpt lat="43.62691" lon="3.8479">
        <ele>49</ele>
        <time>2021-02-20T15:35:04Z</time>
      </trkpt>
      <trkpt lat="43.62689" lon="3.84797">
        <ele>49</ele>
        <time>2021-02-20T15:35:05Z</time>
      </trkpt>
      <trkpt lat="43.62686" lon="3.84803">
        <ele>49</ele>
        <time>2021-02-20T15:35:06Z</time>
      </trkpt>
      <trkpt lat="43.62684" lon="3.84809">
        <ele>49</ele>
        <time>2021-02-20T15:35:07Z</time>
      </trkpt>
      <trkpt lat="43.62681" lon="3.84815">
        <ele>49</ele>
        <time>2021-02-20T15:35:08Z</time>
      </trkpt>
      <trkpt lat="43.62678" lon="3.8482">
        <ele>49</ele>
        <time>2021-02-20T15:35:09Z</time>
      </trkpt>
      <trkpt lat="43.62676" lon="3.84825">
        <ele>49</ele>
        <time>2021-02-20T15:35:10Z</time>
      </trkpt>
      <trkpt lat="43.62673" lon="3.84831">
        <ele>49</ele>
        <time>2021-02-20T15:35:11Z</time>
      </trkpt>
      <trkpt lat="43.6267" lon="3.84836">
        <ele>47</ele>
        <time>2021-02-20T15:35:12Z</time>
      </trkpt>
      <trkpt lat="43.62667" lon="3.84842">
        <ele>47</ele>
        <time>2021-02-20T15:35:13Z</time>
      </trkpt>
      <trkpt lat="43.62664" lon="3.84847">
        <ele>47</ele>
        <time>2021-02-20T15:35:14Z</time>
      </trkpt>
      <trkpt lat="43.62661" lon="3.84853">
        <ele>47</ele>
        <time>2021-02-20T15:35:15Z</time>
      </trkpt>
      <trkpt lat="43.62657" lon="3.84858">
        <ele>47</ele>
        <time>2021-02-20T15:35:16Z</time>
      </trkpt>
      <trkpt lat="43.62653" lon="3.84864">
        <ele>47</ele>
        <time>2021-02-20T15:35:17Z</time>
      </trkpt>
      <trkpt lat="43.62649" lon="3.8487">
        <ele>47</ele>
        <time>2021-02-20T15:35:18Z</time>
      </trkpt>
      <trkpt lat="43.62644" lon="3.84876">
        <ele>47</ele>
        <time>2021-02-20T15:35:19Z</time>
      </trkpt>
      <trkpt lat="43.62639" lon="3.84882">
        <ele>47</ele>
        <time>2021-02-20T15:35:20Z</time>
      </trkpt>
      <trkpt lat="43.62635" lon="3.84888">
        <ele>47</ele>
        <time>2021-02-20T15:35:21Z</time>
      </trkpt>
      <trkpt lat="43.6263" lon="3.84895">
        <ele>46</ele>
        <time>2021-02-20T15:35:22Z</time>
      </trkpt>
      <trkpt lat="43.62625" lon="3.84901">
        <ele>46</ele>
        <time>2021-02-20T15:35:23Z</time>
      </trkpt>
      <trkpt lat="43.62621" lon="3.84907">
        <ele>46</ele>
        <time>2021-02-20T15:35:24Z</time>
      </trkpt>
      <trkpt lat="43.62617" lon="3.84913">
        <ele>46</ele>
        <time>2021-02-20T15:35:25Z</time>
      </trkpt>
      <trkpt lat="43.62612" lon="3.8492">
        <ele>46</ele>
        <time>2021-02-20T15:35:26Z</time>
      </trkpt>
      <trkpt lat="43.62607" lon="3.84926">
        <ele>46</ele>
        <time>2021-02-20T15:35:27Z</time>
      </trkpt>
      <trkpt lat="43.62603" lon="3.84933">
        <ele>46</ele>
        <time>2021-02-20T15:35:28Z</time>
      </trkpt>
      <trkpt lat="43.62599" lon="3.8494">
        <ele>46</ele>
        <time>2021-02-20T15:35:29Z</time>
      </trkpt>
      <trkpt lat="43.62594" lon="3.84946">
        <ele>46</ele>
        <time>2021-02-20T15:35:30Z</time>
      </trkpt>
      <trkpt lat="43.62589" lon="3.84953">
        <ele>46</ele>
        <time>2021-02-20T15:35:31Z</time>
      </trkpt>
      <trkpt lat="43.62583" lon="3.8496">
        <ele>45</ele>
        <time>2021-02-20T15:35:32Z</time>
      </trkpt>
      <trkpt lat="43.62577" lon="3.84967">
        <ele>45</ele>
        <time>2021-02-20T15:35:33Z</time>
      </trkpt>
      <trkpt lat="43.62571" lon="3.84973">
        <ele>45</ele>
        <time>2021-02-20T15:35:34Z</time>
      </trkpt>
      <trkpt lat="43.62566" lon="3.8498">
        <ele>45</ele>
        <time>2021-02-20T15:35:35Z</time>
      </trkpt>
      <trkpt lat="43.6256" lon="3.84987">
        <ele>45</ele>
        <time>2021-02-20T15:35:36Z</time>
      </trkpt>
      <trkpt lat="43.62554" lon="3.84994">
        <ele>45</ele>
        <time>2021-02-20T15:35:37Z</time>
      </trkpt>
      <trkpt lat="43.62549" lon="3.85001">
        <ele>45</ele>
        <time>2021-02-20T15:35:38Z</time>
      </trkpt>
      <trkpt lat="43.62544" lon="3.85007">
        <ele>45</ele>
        <time>2021-02-20T15:35:39Z</time>
      </trkpt>
      <trkpt lat="43.62541" lon="3.85014">
        <ele>45</ele>
        <time>2021-02-20T15:35:40Z</time>
      </trkpt>
      <trkpt lat="43.62537" lon="3.85022">
        <ele>45</ele>
        <time>2021-02-20T15:35:41Z</time>
      </trkpt>
      <trkpt lat="43.62534" lon="3.8503">
        <ele>45</ele>
        <time>2021-02-20T15:35:42Z</time>
      </trkpt>
      <trkpt lat="43.6253" lon="3.85039">
        <ele>45</ele>
        <time>2021-02-20T15:35:43Z</time>
      </trkpt>
      <trkpt lat="43.62526" lon="3.85047">
        <ele>45</ele>
        <time>2021-02-20T15:35:44Z</time>
      </trkpt>
      <trkpt lat="43.62522" lon="3.85055">
        <ele>45</ele>
        <time>2021-02-20T15:35:45Z</time>
      </trkpt>
      <trkpt lat="43.62519" lon="3.85063">
        <ele>45</ele>
        <time>2021-02-20T15:35:46Z</time>
      </trkpt>
      <trkpt lat="43.62516" lon="3.85071">
        <ele>45</ele>
        <time>2021-02-20T15:35:47Z</time>
      </trkpt>
      <trkpt lat="43.62512" lon="3.85079">
        <ele>45</ele>
        <time>2021-02-20T15:35:48Z</time>
      </trkpt>
      <trkpt lat="43.62509" lon="3.85087">
        <ele>45</ele>
        <time>2021-02-20T15:35:49Z</time>
      </trkpt>
      <trkpt lat="43.62506" lon="3.85095">
        <ele>45</ele>
        <time>2021-02-20T15:35:50Z</time>
      </trkpt>
      <trkpt lat="43.62503" lon="3.85103">
        <ele>45</ele>
        <time>2021-02-20T15:35:51Z</time>
      </trkpt>
      <trkpt lat="43.625" lon="3.85111">
        <ele>45</ele>
        <time>2021-02-20T15:35:52Z</time>
      </trkpt>
      <trkpt lat="43.62497" lon="3.85119">
        <ele>45</ele>
        <time>2021-02-20T15:35:53Z</time>
      </trkpt>
      <trkpt lat="43.62495" lon="3.85128">
        <ele>45</ele>
        <time>2021-02-20T15:35:54Z</time>
      </trkpt>
      <trkpt lat="43.6249" lon="3.85144">
        <ele>45</ele>
        <time>2021-02-20T15:35:56Z</time>
      </trkpt>
      <trkpt lat="43.62487" lon="3.85153">
        <ele>45</ele>
        <time>2021-02-20T15:35:57Z</time>
      </trkpt>
      <trkpt lat="43.62483" lon="3.8516">
        <ele>45</ele>
        <time>2021-02-20T15:35:58Z</time>
      </trkpt>
      <trkpt lat="43.6248" lon="3.85168">
        <ele>45</ele>
        <time>2021-02-20T15:35:59Z</time>
      </trkpt>
      <trkpt lat="43.62477" lon="3.85176">
        <ele>45</ele>
        <time>2021-02-20T15:36:00Z</time>
      </trkpt>
      <trkpt lat="43.62473" lon="3.85184">
        <ele>45</ele>
        <time>2021-02-20T15:36:01Z</time>
      </trkpt>
      <trkpt lat="43.6247" lon="3.85192">
        <ele>46</ele>
        <time>2021-02-20T15:36:02Z</time>
      </trkpt>
      <trkpt lat="43.62467" lon="3.85201">
        <ele>46</ele>
        <time>2021-02-20T15:36:03Z</time>
      </trkpt>
      <trkpt lat="43.62464" lon="3.85209">
        <ele>46</ele>
        <time>2021-02-20T15:36:04Z</time>
      </trkpt>
      <trkpt lat="43.62461" lon="3.85217">
        <ele>46</ele>
        <time>2021-02-20T15:36:05Z</time>
      </trkpt>
      <trkpt lat="43.62458" lon="3.85225">
        <ele>46</ele>
        <time>2021-02-20T15:36:06Z</time>
      </trkpt>
      <trkpt lat="43.6245" lon="3.85241">
        <ele>46</ele>
        <time>2021-02-20T15:36:08Z</time>
      </trkpt>
      <trkpt lat="43.62447" lon="3.85248">
        <ele>46</ele>
        <time>2021-02-20T15:36:09Z</time>
      </trkpt>
      <trkpt lat="43.6244" lon="3.85263">
        <ele>46</ele>
        <time>2021-02-20T15:36:11Z</time>
      </trkpt>
      <trkpt lat="43.62437" lon="3.85271">
        <ele>45</ele>
        <time>2021-02-20T15:36:12Z</time>
      </trkpt>
      <trkpt lat="43.62434" lon="3.85279">
        <ele>45</ele>
        <time>2021-02-20T15:36:13Z</time>
      </trkpt>
      <trkpt lat="43.62431" lon="3.85287">
        <ele>45</ele>
        <time>2021-02-20T15:36:14Z</time>
      </trkpt>
      <trkpt lat="43.62427" lon="3.85294">
        <ele>45</ele>
        <time>2021-02-20T15:36:15Z</time>
      </trkpt>
      <trkpt lat="43.62423" lon="3.85301">
        <ele>45</ele>
        <time>2021-02-20T15:36:16Z</time>
      </trkpt>
      <trkpt lat="43.6242" lon="3.85307">
        <ele>45</ele>
        <time>2021-02-20T15:36:17Z</time>
      </trkpt>
      <trkpt lat="43.62416" lon="3.85311">
        <ele>45</ele>
        <time>2021-02-20T15:36:18Z</time>
      </trkpt>
      <trkpt lat="43.62414" lon="3.85316">
        <ele>45</ele>
        <time>2021-02-20T15:36:19Z</time>
      </trkpt>
      <trkpt lat="43.62411" lon="3.8532">
        <ele>45</ele>
        <time>2021-02-20T15:36:20Z</time>
      </trkpt>
      <trkpt lat="43.62409" lon="3.85324">
        <ele>45</ele>
        <time>2021-02-20T15:36:21Z</time>
      </trkpt>
      <trkpt lat="43.62407" lon="3.85328">
        <ele>47</ele>
        <time>2021-02-20T15:36:22Z</time>
      </trkpt>
      <trkpt lat="43.62405" lon="3.85332">
        <ele>47</ele>
        <time>2021-02-20T15:36:23Z</time>
      </trkpt>
      <trkpt lat="43.62403" lon="3.85336">
        <ele>47</ele>
        <time>2021-02-20T15:36:24Z</time>
      </trkpt>
      <trkpt lat="43.62401" lon="3.85339">
        <ele>47</ele>
        <time>2021-02-20T15:36:25Z</time>
      </trkpt>
      <trkpt lat="43.62397" lon="3.85343">
        <ele>47</ele>
        <time>2021-02-20T15:36:26Z</time>
      </trkpt>
      <trkpt lat="43.62393" lon="3.85347">
        <ele>47</ele>
        <time>2021-02-20T15:36:27Z</time>
      </trkpt>
      <trkpt lat="43.6239" lon="3.85351">
        <ele>47</ele>
        <time>2021-02-20T15:36:28Z</time>
      </trkpt>
      <trkpt lat="43.62386" lon="3.85355">
        <ele>47</ele>
        <time>2021-02-20T15:36:29Z</time>
      </trkpt>
      <trkpt lat="43.62383" lon="3.8536">
        <ele>47</ele>
        <time>2021-02-20T15:36:30Z</time>
      </trkpt>
      <trkpt lat="43.62379" lon="3.85365">
        <ele>47</ele>
        <time>2021-02-20T15:36:31Z</time>
      </trkpt>
      <trkpt lat="43.62376" lon="3.8537">
        <ele>47</ele>
        <time>2021-02-20T15:36:32Z</time>
      </trkpt>
      <trkpt lat="43.62372" lon="3.85375">
        <ele>47</ele>
        <time>2021-02-20T15:36:33Z</time>
      </trkpt>
      <trkpt lat="43.62369" lon="3.8538">
        <ele>47</ele>
        <time>2021-02-20T15:36:34Z</time>
      </trkpt>
      <trkpt lat="43.62364" lon="3.85386">
        <ele>47</ele>
        <time>2021-02-20T15:36:35Z</time>
      </trkpt>
      <trkpt lat="43.6236" lon="3.85391">
        <ele>47</ele>
        <time>2021-02-20T15:36:36Z</time>
      </trkpt>
      <trkpt lat="43.62357" lon="3.85397">
        <ele>47</ele>
        <time>2021-02-20T15:36:37Z</time>
      </trkpt>
      <trkpt lat="43.62353" lon="3.85402">
        <ele>47</ele>
        <time>2021-02-20T15:36:38Z</time>
      </trkpt>
      <trkpt lat="43.62349" lon="3.85408">
        <ele>47</ele>
        <time>2021-02-20T15:36:39Z</time>
      </trkpt>
      <trkpt lat="43.62344" lon="3.85413">
        <ele>47</ele>
        <time>2021-02-20T15:36:40Z</time>
      </trkpt>
      <trkpt lat="43.6234" lon="3.85417">
        <ele>47</ele>
        <time>2021-02-20T15:36:41Z</time>
      </trkpt>
      <trkpt lat="43.62335" lon="3.85422">
        <ele>48</ele>
        <time>2021-02-20T15:36:42Z</time>
      </trkpt>
      <trkpt lat="43.6233" lon="3.85425">
        <ele>48</ele>
        <time>2021-02-20T15:36:43Z</time>
      </trkpt>
      <trkpt lat="43.62325" lon="3.85429">
        <ele>48</ele>
        <time>2021-02-20T15:36:44Z</time>
      </trkpt>
      <trkpt lat="43.6232" lon="3.85432">
        <ele>48</ele>
        <time>2021-02-20T15:36:45Z</time>
      </trkpt>
      <trkpt lat="43.62315" lon="3.85435">
        <ele>48</ele>
        <time>2021-02-20T15:36:46Z</time>
      </trkpt>
      <trkpt lat="43.6231" lon="3.85439">
        <ele>48</ele>
        <time>2021-02-20T15:36:47Z</time>
      </trkpt>
      <trkpt lat="43.62305" lon="3.85443">
        <ele>48</ele>
        <time>2021-02-20T15:36:48Z</time>
      </trkpt>
      <trkpt lat="43.62301" lon="3.85446">
        <ele>48</ele>
        <time>2021-02-20T15:36:49Z</time>
      </trkpt>
      <trkpt lat="43.62296" lon="3.85448">
        <ele>48</ele>
        <time>2021-02-20T15:36:50Z</time>
      </trkpt>
      <trkpt lat="43.62292" lon="3.8545">
        <ele>48</ele>
        <time>2021-02-20T15:36:51Z</time>
      </trkpt>
      <trkpt lat="43.62287" lon="3.85453">
        <ele>48</ele>
        <time>2021-02-20T15:36:52Z</time>
      </trkpt>
      <trkpt lat="43.62282" lon="3.85455">
        <ele>48</ele>
        <time>2021-02-20T15:36:53Z</time>
      </trkpt>
      <trkpt lat="43.62278" lon="3.85456">
        <ele>48</ele>
        <time>2021-02-20T15:36:55Z</time>
      </trkpt>
      <trkpt lat="43.62275" lon="3.85455">
        <ele>48</ele>
        <time>2021-02-20T15:36:57Z</time>
      </trkpt>
      <trkpt lat="43.62272" lon="3.85454">
        <ele>48</ele>
        <time>2021-02-20T15:36:59Z</time>
      </trkpt>
      <trkpt lat="43.62269" lon="3.85453">
        <ele>48</ele>
        <time>2021-02-20T15:37:01Z</time>
      </trkpt>
      <trkpt lat="43.62267" lon="3.85454">
        <ele>44</ele>
        <time>2021-02-20T15:37:02Z</time>
      </trkpt>
      <trkpt lat="43.62264" lon="3.85457">
        <ele>44</ele>
        <time>2021-02-20T15:37:03Z</time>
      </trkpt>
      <trkpt lat="43.6226" lon="3.8546">
        <ele>44</ele>
        <time>2021-02-20T15:37:04Z</time>
      </trkpt>
      <trkpt lat="43.62257" lon="3.85464">
        <ele>44</ele>
        <time>2021-02-20T15:37:05Z</time>
      </trkpt>
      <trkpt lat="43.62253" lon="3.85467">
        <ele>44</ele>
        <time>2021-02-20T15:37:06Z</time>
      </trkpt>
      <trkpt lat="43.6225" lon="3.85471">
        <ele>44</ele>
        <time>2021-02-20T15:37:07Z</time>
      </trkpt>
      <trkpt lat="43.62247" lon="3.85474">
        <ele>44</ele>
        <time>2021-02-20T15:37:08Z</time>
      </trkpt>
      <trkpt lat="43.62244" lon="3.85478">
        <ele>44</ele>
        <time>2021-02-20T15:37:09Z</time>
      </trkpt>
      <trkpt lat="43.6224" lon="3.85483">
        <ele>44</ele>
        <time>2021-02-20T15:37:10Z</time>
      </trkpt>
      <trkpt lat="43.62238" lon="3.85488">
        <ele>44</ele>
        <time>2021-02-20T15:37:11Z</time>
      </trkpt>
      <trkpt lat="43.62234" lon="3.85493">
        <ele>45</ele>
        <time>2021-02-20T15:37:12Z</time>
      </trkpt>
      <trkpt lat="43.62231" lon="3.85498">
        <ele>45</ele>
        <time>2021-02-20T15:37:13Z</time>
      </trkpt>
      <trkpt lat="43.62229" lon="3.85503">
        <ele>45</ele>
        <time>2021-02-20T15:37:14Z</time>
      </trkpt>
      <trkpt lat="43.62225" lon="3.85507">
        <ele>45</ele>
        <time>2021-02-20T15:37:15Z</time>
      </trkpt>
      <trkpt lat="43.62215" lon="3.85521">
        <ele>45</ele>
        <time>2021-02-20T15:37:17Z</time>
      </trkpt>
      <trkpt lat="43.62211" lon="3.85528">
        <ele>45</ele>
        <time>2021-02-20T15:37:18Z</time>
      </trkpt>
      <trkpt lat="43.62208" lon="3.85534">
        <ele>45</ele>
        <time>2021-02-20T15:37:19Z</time>
      </trkpt>
      <trkpt lat="43.62204" lon="3.8554">
        <ele>45</ele>
        <time>2021-02-20T15:37:20Z</time>
      </trkpt>
      <trkpt lat="43.62201" lon="3.85545">
        <ele>45</ele>
        <time>2021-02-20T15:37:21Z</time>
      </trkpt>
      <trkpt lat="43.62197" lon="3.85551">
        <ele>46</ele>
        <time>2021-02-20T15:37:22Z</time>
      </trkpt>
      <trkpt lat="43.62194" lon="3.85557">
        <ele>46</ele>
        <time>2021-02-20T15:37:23Z</time>
      </trkpt>
      <trkpt lat="43.6219" lon="3.85562">
        <ele>46</ele>
        <time>2021-02-20T15:37:24Z</time>
      </trkpt>
      <trkpt lat="43.62186" lon="3.85567">
        <ele>46</ele>
        <time>2021-02-20T15:37:25Z</time>
      </trkpt>
      <trkpt lat="43.62183" lon="3.85573">
        <ele>46</ele>
        <time>2021-02-20T15:37:26Z</time>
      </trkpt>
      <trkpt lat="43.62179" lon="3.85579">
        <ele>46</ele>
        <time>2021-02-20T15:37:27Z</time>
      </trkpt>
      <trkpt lat="43.62172" lon="3.85589">
        <ele>46</ele>
        <time>2021-02-20T15:37:29Z</time>
      </trkpt>
      <trkpt lat="43.62168" lon="3.85595">
        <ele>46</ele>
        <time>2021-02-20T15:37:30Z</time>
      </trkpt>
      <trkpt lat="43.62165" lon="3.85601">
        <ele>46</ele>
        <time>2021-02-20T15:37:31Z</time>
      </trkpt>
      <trkpt lat="43.62161" lon="3.85607">
        <ele>46</ele>
        <time>2021-02-20T15:37:32Z</time>
      </trkpt>
      <trkpt lat="43.62157" lon="3.85612">
        <ele>46</ele>
        <time>2021-02-20T15:37:33Z</time>
      </trkpt>
      <trkpt lat="43.62154" lon="3.85618">
        <ele>46</ele>
        <time>2021-02-20T15:37:34Z</time>
      </trkpt>
      <trkpt lat="43.6215" lon="3.85624">
        <ele>46</ele>
        <time>2021-02-20T15:37:35Z</time>
      </trkpt>
      <trkpt lat="43.62146" lon="3.8563">
        <ele>46</ele>
        <time>2021-02-20T15:37:36Z</time>
      </trkpt>
      <trkpt lat="43.62142" lon="3.85635">
        <ele>46</ele>
        <time>2021-02-20T15:37:37Z</time>
      </trkpt>
      <trkpt lat="43.62138" lon="3.8564">
        <ele>46</ele>
        <time>2021-02-20T15:37:38Z</time>
      </trkpt>
      <trkpt lat="43.62134" lon="3.85645">
        <ele>46</ele>
        <time>2021-02-20T15:37:39Z</time>
      </trkpt>
      <trkpt lat="43.6213" lon="3.8565">
        <ele>46</ele>
        <time>2021-02-20T15:37:40Z</time>
      </trkpt>
      <trkpt lat="43.62125" lon="3.85655">
        <ele>46</ele>
        <time>2021-02-20T15:37:41Z</time>
      </trkpt>
      <trkpt lat="43.62121" lon="3.85661">
        <ele>44</ele>
        <time>2021-02-20T15:37:42Z</time>
      </trkpt>
      <trkpt lat="43.62117" lon="3.85666">
        <ele>44</ele>
        <time>2021-02-20T15:37:43Z</time>
      </trkpt>
      <trkpt lat="43.62114" lon="3.85672">
        <ele>44</ele>
        <time>2021-02-20T15:37:44Z</time>
      </trkpt>
      <trkpt lat="43.62111" lon="3.85679">
        <ele>44</ele>
        <time>2021-02-20T15:37:45Z</time>
      </trkpt>
      <trkpt lat="43.62109" lon="3.85686">
        <ele>44</ele>
        <time>2021-02-20T15:37:46Z</time>
      </trkpt>
      <trkpt lat="43.62105" lon="3.85692">
        <ele>44</ele>
        <time>2021-02-20T15:37:47Z</time>
      </trkpt>
      <trkpt lat="43.62102" lon="3.85698">
        <ele>44</ele>
        <time>2021-02-20T15:37:48Z</time>
      </trkpt>
      <trkpt lat="43.62096" lon="3.85711">
        <ele>44</ele>
        <time>2021-02-20T15:37:50Z</time>
      </trkpt>
      <trkpt lat="43.62094" lon="3.85717">
        <ele>44</ele>
        <time>2021-02-20T15:37:51Z</time>
      </trkpt>
      <trkpt lat="43.62091" lon="3.85724">
        <ele>43</ele>
        <time>2021-02-20T15:37:52Z</time>
      </trkpt>
      <trkpt lat="43.62089" lon="3.8573">
        <ele>43</ele>
        <time>2021-02-20T15:37:53Z</time>
      </trkpt>
      <trkpt lat="43.62086" lon="3.85736">
        <ele>43</ele>
        <time>2021-02-20T15:37:54Z</time>
      </trkpt>
      <trkpt lat="43.62083" lon="3.85741">
        <ele>43</ele>
        <time>2021-02-20T15:37:55Z</time>
      </trkpt>
      <trkpt lat="43.62078" lon="3.85743">
        <ele>43</ele>
        <time>2021-02-20T15:37:56Z</time>
      </trkpt>
      <trkpt lat="43.62074" lon="3.85745">
        <ele>43</ele>
        <time>2021-02-20T15:37:57Z</time>
      </trkpt>
      <trkpt lat="43.62071" lon="3.85749">
        <ele>43</ele>
        <time>2021-02-20T15:37:58Z</time>
      </trkpt>
      <trkpt lat="43.62066" lon="3.85759">
        <ele>43</ele>
        <time>2021-02-20T15:38:00Z</time>
      </trkpt>
      <trkpt lat="43.62064" lon="3.85766">
        <ele>43</ele>
        <time>2021-02-20T15:38:01Z</time>
      </trkpt>
      <trkpt lat="43.62061" lon="3.85773">
        <ele>40</ele>
        <time>2021-02-20T15:38:02Z</time>
      </trkpt>
      <trkpt lat="43.62059" lon="3.8578">
        <ele>40</ele>
        <time>2021-02-20T15:38:03Z</time>
      </trkpt>
      <trkpt lat="43.62057" lon="3.85787">
        <ele>40</ele>
        <time>2021-02-20T15:38:04Z</time>
      </trkpt>
      <trkpt lat="43.62055" lon="3.85793">
        <ele>40</ele>
        <time>2021-02-20T15:38:05Z</time>
      </trkpt>
      <trkpt lat="43.62053" lon="3.85799">
        <ele>40</ele>
        <time>2021-02-20T15:38:06Z</time>
      </trkpt>
      <trkpt lat="43.6205" lon="3.85804">
        <ele>40</ele>
        <time>2021-02-20T15:38:07Z</time>
      </trkpt>
      <trkpt lat="43.62048" lon="3.85809">
        <ele>40</ele>
        <time>2021-02-20T15:38:08Z</time>
      </trkpt>
      <trkpt lat="43.62046" lon="3.85814">
        <ele>40</ele>
        <time>2021-02-20T15:38:09Z</time>
      </trkpt>
      <trkpt lat="43.62044" lon="3.85819">
        <ele>40</ele>
        <time>2021-02-20T15:38:10Z</time>
      </trkpt>
      <trkpt lat="43.62043" lon="3.85823">
        <ele>40</ele>
        <time>2021-02-20T15:38:11Z</time>
      </trkpt>
      <trkpt lat="43.62042" lon="3.85828">
        <ele>40</ele>
        <time>2021-02-20T15:38:12Z</time>
      </trkpt>
      <trkpt lat="43.62041" lon="3.85833">
        <ele>40</ele>
        <time>2021-02-20T15:38:13Z</time>
      </trkpt>
      <trkpt lat="43.62039" lon="3.85838">
        <ele>40</ele>
        <time>2021-02-20T15:38:14Z</time>
      </trkpt>
      <trkpt lat="43.62037" lon="3.85843">
        <ele>40</ele>
        <time>2021-02-20T15:38:15Z</time>
      </trkpt>
      <trkpt lat="43.62035" lon="3.85848">
        <ele>40</ele>
        <time>2021-02-20T15:38:16Z</time>
      </trkpt>
      <trkpt lat="43.62032" lon="3.85852">
        <ele>40</ele>
        <time>2021-02-20T15:38:17Z</time>
      </trkpt>
      <trkpt lat="43.62029" lon="3.85857">
        <ele>40</ele>
        <time>2021-02-20T15:38:18Z</time>
      </trkpt>
      <trkpt lat="43.62025" lon="3.85861">
        <ele>40</ele>
        <time>2021-02-20T15:38:19Z</time>
      </trkpt>
      <trkpt lat="43.62022" lon="3.85865">
        <ele>40</ele>
        <time>2021-02-20T15:38:20Z</time>
      </trkpt>
      <trkpt lat="43.62018" lon="3.85868">
        <ele>40</ele>
        <time>2021-02-20T15:38:21Z</time>
      </trkpt>
      <trkpt lat="43.62014" lon="3.85871">
        <ele>40</ele>
        <time>2021-02-20T15:38:22Z</time>
      </trkpt>
      <trkpt lat="43.6201" lon="3.85874">
        <ele>40</ele>
        <time>2021-02-20T15:38:23Z</time>
      </trkpt>
      <trkpt lat="43.62006" lon="3.85877">
        <ele>40</ele>
        <time>2021-02-20T15:38:24Z</time>
      </trkpt>
      <trkpt lat="43.62003" lon="3.85881">
        <ele>40</ele>
        <time>2021-02-20T15:38:25Z</time>
      </trkpt>
      <trkpt lat="43.62" lon="3.85886">
        <ele>40</ele>
        <time>2021-02-20T15:38:26Z</time>
      </trkpt>
      <trkpt lat="43.61999" lon="3.85892">
        <ele>40</ele>
        <time>2021-02-20T15:38:27Z</time>
      </trkpt>
      <trkpt lat="43.61998" lon="3.85898">
        <ele>40</ele>
        <time>2021-02-20T15:38:28Z</time>
      </trkpt>
      <trkpt lat="43.61999" lon="3.85904">
        <ele>40</ele>
        <time>2021-02-20T15:38:29Z</time>
      </trkpt>
      <trkpt lat="43.62" lon="3.8591">
        <ele>40</ele>
        <time>2021-02-20T15:38:30Z</time>
      </trkpt>
      <trkpt lat="43.62003" lon="3.85923">
        <ele>39</ele>
        <time>2021-02-20T15:38:32Z</time>
      </trkpt>
      <trkpt lat="43.62003" lon="3.8593">
        <ele>39</ele>
        <time>2021-02-20T15:38:33Z</time>
      </trkpt>
      <trkpt lat="43.62003" lon="3.85936">
        <ele>39</ele>
        <time>2021-02-20T15:38:34Z</time>
      </trkpt>
      <trkpt lat="43.62001" lon="3.85942">
        <ele>39</ele>
        <time>2021-02-20T15:38:35Z</time>
      </trkpt>
      <trkpt lat="43.61999" lon="3.85948">
        <ele>39</ele>
        <time>2021-02-20T15:38:36Z</time>
      </trkpt>
      <trkpt lat="43.61997" lon="3.85953">
        <ele>39</ele>
        <time>2021-02-20T15:38:37Z</time>
      </trkpt>
      <trkpt lat="43.61995" lon="3.85959">
        <ele>39</ele>
        <time>2021-02-20T15:38:38Z</time>
      </trkpt>
      <trkpt lat="43.61993" lon="3.85965">
        <ele>39</ele>
        <time>2021-02-20T15:38:39Z</time>
      </trkpt>
      <trkpt lat="43.6199" lon="3.8597">
        <ele>39</ele>
        <time>2021-02-20T15:38:40Z</time>
      </trkpt>
      <trkpt lat="43.61987" lon="3.85975">
        <ele>39</ele>
        <time>2021-02-20T15:38:41Z</time>
      </trkpt>
      <trkpt lat="43.61985" lon="3.85981">
        <ele>39</ele>
        <time>2021-02-20T15:38:42Z</time>
      </trkpt>
      <trkpt lat="43.61982" lon="3.85986">
        <ele>39</ele>
        <time>2021-02-20T15:38:43Z</time>
      </trkpt>
      <trkpt lat="43.61979" lon="3.85991">
        <ele>39</ele>
        <time>2021-02-20T15:38:44Z</time>
      </trkpt>
      <trkpt lat="43.61977" lon="3.85996">
        <ele>39</ele>
        <time>2021-02-20T15:38:45Z</time>
      </trkpt>
      <trkpt lat="43.61974" lon="3.86002">
        <ele>39</ele>
        <time>2021-02-20T15:38:46Z</time>
      </trkpt>
      <trkpt lat="43.61972" lon="3.86007">
        <ele>39</ele>
        <time>2021-02-20T15:38:47Z</time>
      </trkpt>
      <trkpt lat="43.6197" lon="3.86012">
        <ele>39</ele>
        <time>2021-02-20T15:38:48Z</time>
      </trkpt>
      <trkpt lat="43.61968" lon="3.86017">
        <ele>39</ele>
        <time>2021-02-20T15:38:49Z</time>
      </trkpt>
      <trkpt lat="43.61966" lon="3.86022">
        <ele>39</ele>
        <time>2021-02-20T15:38:50Z</time>
      </trkpt>
      <trkpt lat="43.61965" lon="3.86027">
        <ele>39</ele>
        <time>2021-02-20T15:38:51Z</time>
      </trkpt>
      <trkpt lat="43.61963" lon="3.86031">
        <ele>39</ele>
        <time>2021-02-20T15:38:52Z</time>
      </trkpt>
      <trkpt lat="43.61961" lon="3.86036">
        <ele>39</ele>
        <time>2021-02-20T15:38:53Z</time>
      </trkpt>
      <trkpt lat="43.61958" lon="3.86045">
        <ele>39</ele>
        <time>2021-02-20T15:38:55Z</time>
      </trkpt>
      <trkpt lat="43.61956" lon="3.86049">
        <ele>39</ele>
        <time>2021-02-20T15:38:56Z</time>
      </trkpt>
      <trkpt lat="43.61954" lon="3.86053">
        <ele>39</ele>
        <time>2021-02-20T15:38:57Z</time>
      </trkpt>
      <trkpt lat="43.61952" lon="3.86058">
        <ele>39</ele>
        <time>2021-02-20T15:38:58Z</time>
      </trkpt>
      <trkpt lat="43.61951" lon="3.86062">
        <ele>39</ele>
        <time>2021-02-20T15:38:59Z</time>
      </trkpt>
      <trkpt lat="43.61949" lon="3.86066">
        <ele>39</ele>
        <time>2021-02-20T15:39:00Z</time>
      </trkpt>
      <trkpt lat="43.61948" lon="3.8607">
        <ele>39</ele>
        <time>2021-02-20T15:39:01Z</time>
      </trkpt>
      <trkpt lat="43.61947" lon="3.86075">
        <ele>40</ele>
        <time>2021-02-20T15:39:02Z</time>
      </trkpt>
      <trkpt lat="43.61945" lon="3.86079">
        <ele>40</ele>
        <time>2021-02-20T15:39:03Z</time>
      </trkpt>
      <trkpt lat="43.61943" lon="3.86083">
        <ele>40</ele>
        <time>2021-02-20T15:39:04Z</time>
      </trkpt>
      <trkpt lat="43.61941" lon="3.86088">
        <ele>40</ele>
        <time>2021-02-20T15:39:05Z</time>
      </trkpt>
      <trkpt lat="43.61939" lon="3.86092">
        <ele>40</ele>
        <time>2021-02-20T15:39:06Z</time>
      </trkpt>
      <trkpt lat="43.61938" lon="3.86096">
        <ele>40</ele>
        <time>2021-02-20T15:39:07Z</time>
      </trkpt>
      <trkpt lat="43.61936" lon="3.861">
        <ele>40</ele>
        <time>2021-02-20T15:39:08Z</time>
      </trkpt>
      <trkpt lat="43.61935" lon="3.86104">
        <ele>40</ele>
        <time>2021-02-20T15:39:09Z</time>
      </trkpt>
      <trkpt lat="43.61933" lon="3.86108">
        <ele>40</ele>
        <time>2021-02-20T15:39:10Z</time>
      </trkpt>
      <trkpt lat="43.61931" lon="3.86113">
        <ele>40</ele>
        <time>2021-02-20T15:39:11Z</time>
      </trkpt>
      <trkpt lat="43.61929" lon="3.86117">
        <ele>41</ele>
        <time>2021-02-20T15:39:12Z</time>
      </trkpt>
      <trkpt lat="43.61927" lon="3.86121">
        <ele>41</ele>
        <time>2021-02-20T15:39:13Z</time>
      </trkpt>
      <trkpt lat="43.61926" lon="3.86126">
        <ele>41</ele>
        <time>2021-02-20T15:39:14Z</time>
      </trkpt>
      <trkpt lat="43.61924" lon="3.8613">
        <ele>41</ele>
        <time>2021-02-20T15:39:15Z</time>
      </trkpt>
      <trkpt lat="43.61922" lon="3.86134">
        <ele>41</ele>
        <time>2021-02-20T15:39:16Z</time>
      </trkpt>
      <trkpt lat="43.6192" lon="3.86138">
        <ele>41</ele>
        <time>2021-02-20T15:39:17Z</time>
      </trkpt>
      <trkpt lat="43.61918" lon="3.86142">
        <ele>41</ele>
        <time>2021-02-20T15:39:18Z</time>
      </trkpt>
      <trkpt lat="43.61917" lon="3.86146">
        <ele>41</ele>
        <time>2021-02-20T15:39:19Z</time>
      </trkpt>
      <trkpt lat="43.61915" lon="3.8615">
        <ele>41</ele>
        <time>2021-02-20T15:39:20Z</time>
      </trkpt>
      <trkpt lat="43.61914" lon="3.86154">
        <ele>41</ele>
        <time>2021-02-20T15:39:21Z</time>
      </trkpt>
      <trkpt lat="43.61912" lon="3.86158">
        <ele>42</ele>
        <time>2021-02-20T15:39:22Z</time>
      </trkpt>
      <trkpt lat="43.61911" lon="3.86162">
        <ele>42</ele>
        <time>2021-02-20T15:39:23Z</time>
      </trkpt>
      <trkpt lat="43.61909" lon="3.86166">
        <ele>42</ele>
        <time>2021-02-20T15:39:24Z</time>
      </trkpt>
      <trkpt lat="43.61908" lon="3.86171">
        <ele>42</ele>
        <time>2021-02-20T15:39:25Z</time>
      </trkpt>
      <trkpt lat="43.61907" lon="3.86175">
        <ele>42</ele>
        <time>2021-02-20T15:39:26Z</time>
      </trkpt>
      <trkpt lat="43.61906" lon="3.86179">
        <ele>42</ele>
        <time>2021-02-20T15:39:27Z</time>
      </trkpt>
      <trkpt lat="43.61905" lon="3.86183">
        <ele>42</ele>
        <time>2021-02-20T15:39:28Z</time>
      </trkpt>
      <trkpt lat="43.61903" lon="3.86188">
        <ele>42</ele>
        <time>2021-02-20T15:39:29Z</time>
      </trkpt>
      <trkpt lat="43.61901" lon="3.86192">
        <ele>42</ele>
        <time>2021-02-20T15:39:30Z</time>
      </trkpt>
      <trkpt lat="43.619" lon="3.86196">
        <ele>42</ele>
        <time>2021-02-20T15:39:31Z</time>
      </trkpt>
      <trkpt lat="43.61898" lon="3.862">
        <ele>44</ele>
        <time>2021-02-20T15:39:32Z</time>
      </trkpt>
      <trkpt lat="43.61897" lon="3.86204">
        <ele>44</ele>
        <time>2021-02-20T15:39:33Z</time>
      </trkpt>
      <trkpt lat="43.61895" lon="3.86208">
        <ele>44</ele>
        <time>2021-02-20T15:39:34Z</time>
      </trkpt>
      <trkpt lat="43.61893" lon="3.86212">
        <ele>44</ele>
        <time>2021-02-20T15:39:35Z</time>
      </trkpt>
      <trkpt lat="43.61892" lon="3.86215">
        <ele>44</ele>
        <time>2021-02-20T15:39:36Z</time>
      </trkpt>
      <trkpt lat="43.61889" lon="3.86219">
        <ele>44</ele>
        <time>2021-02-20T15:39:37Z</time>
      </trkpt>
      <trkpt lat="43.61887" lon="3.86223">
        <ele>44</ele>
        <time>2021-02-20T15:39:38Z</time>
      </trkpt>
      <trkpt lat="43.61885" lon="3.86227">
        <ele>44</ele>
        <time>2021-02-20T15:39:39Z</time>
      </trkpt>
      <trkpt lat="43.61884" lon="3.86231">
        <ele>44</ele>
        <time>2021-02-20T15:39:40Z</time>
      </trkpt>
      <trkpt lat="43.61883" lon="3.86235">
        <ele>44</ele>
        <time>2021-02-20T15:39:41Z</time>
      </trkpt>
      <trkpt lat="43.61881" lon="3.86239">
        <ele>46</ele>
        <time>2021-02-20T15:39:42Z</time>
      </trkpt>
      <trkpt lat="43.61879" lon="3.86243">
        <ele>46</ele>
        <time>2021-02-20T15:39:43Z</time>
      </trkpt>
      <trkpt lat="43.61876" lon="3.86246">
        <ele>46</ele>
        <time>2021-02-20T15:39:44Z</time>
      </trkpt>
      <trkpt lat="43.61874" lon="3.8625">
        <ele>46</ele>
        <time>2021-02-20T15:39:45Z</time>
      </trkpt>
      <trkpt lat="43.61872" lon="3.86254">
        <ele>46</ele>
        <time>2021-02-20T15:39:46Z</time>
      </trkpt>
      <trkpt lat="43.6187" lon="3.86258">
        <ele>46</ele>
        <time>2021-02-20T15:39:47Z</time>
      </trkpt>
      <trkpt lat="43.61869" lon="3.86261">
        <ele>46</ele>
        <time>2021-02-20T15:39:48Z</time>
      </trkpt>
      <trkpt lat="43.61868" lon="3.86265">
        <ele>46</ele>
        <time>2021-02-20T15:39:49Z</time>
      </trkpt>
      <trkpt lat="43.61866" lon="3.86268">
        <ele>46</ele>
        <time>2021-02-20T15:39:50Z</time>
      </trkpt>
      <trkpt lat="43.61864" lon="3.86272">
        <ele>46</ele>
        <time>2021-02-20T15:39:51Z</time>
      </trkpt>
      <trkpt lat="43.61863" lon="3.86276">
        <ele>48</ele>
        <time>2021-02-20T15:39:52Z</time>
      </trkpt>
      <trkpt lat="43.6186" lon="3.8628">
        <ele>48</ele>
        <time>2021-02-20T15:39:53Z</time>
      </trkpt>
      <trkpt lat="43.61859" lon="3.86285">
        <ele>48</ele>
        <time>2021-02-20T15:39:54Z</time>
      </trkpt>
      <trkpt lat="43.61857" lon="3.86289">
        <ele>48</ele>
        <time>2021-02-20T15:39:55Z</time>
      </trkpt>
      <trkpt lat="43.61855" lon="3.86293">
        <ele>48</ele>
        <time>2021-02-20T15:39:56Z</time>
      </trkpt>
      <trkpt lat="43.61852" lon="3.86297">
        <ele>48</ele>
        <time>2021-02-20T15:39:57Z</time>
      </trkpt>
      <trkpt lat="43.61849" lon="3.86302">
        <ele>48</ele>
        <time>2021-02-20T15:39:58Z</time>
      </trkpt>
      <trkpt lat="43.61844" lon="3.86306">
        <ele>48</ele>
        <time>2021-02-20T15:39:59Z</time>
      </trkpt>
      <trkpt lat="43.6184" lon="3.8631">
        <ele>48</ele>
        <time>2021-02-20T15:40:00Z</time>
      </trkpt>
      <trkpt lat="43.61837" lon="3.86314">
        <ele>48</ele>
        <time>2021-02-20T15:40:01Z</time>
      </trkpt>
      <trkpt lat="43.61834" lon="3.86319">
        <ele>50</ele>
        <time>2021-02-20T15:40:02Z</time>
      </trkpt>
      <trkpt lat="43.61831" lon="3.86325">
        <ele>50</ele>
        <time>2021-02-20T15:40:03Z</time>
      </trkpt>
      <trkpt lat="43.6183" lon="3.86331">
        <ele>50</ele>
        <time>2021-02-20T15:40:04Z</time>
      </trkpt>
      <trkpt lat="43.6183" lon="3.86337">
        <ele>50</ele>
        <time>2021-02-20T15:40:05Z</time>
      </trkpt>
      <trkpt lat="43.61831" lon="3.86344">
        <ele>50</ele>
        <time>2021-02-20T15:40:06Z</time>
      </trkpt>
      <trkpt lat="43.61832" lon="3.86352">
        <ele>50</ele>
        <time>2021-02-20T15:40:07Z</time>
      </trkpt>
      <trkpt lat="43.61832" lon="3.86359">
        <ele>50</ele>
        <time>2021-02-20T15:40:08Z</time>
      </trkpt>
      <trkpt lat="43.61833" lon="3.86367">
        <ele>50</ele>
        <time>2021-02-20T15:40:09Z</time>
      </trkpt>
      <trkpt lat="43.61833" lon="3.86376">
        <ele>50</ele>
        <time>2021-02-20T15:40:10Z</time>
      </trkpt>
      <trkpt lat="43.61834" lon="3.86384">
        <ele>50</ele>
        <time>2021-02-20T15:40:11Z</time>
      </trkpt>
      <trkpt lat="43.61834" lon="3.86392">
        <ele>48</ele>
        <time>2021-02-20T15:40:12Z</time>
      </trkpt>
      <trkpt lat="43.61835" lon="3.86401">
        <ele>48</ele>
        <time>2021-02-20T15:40:13Z</time>
      </trkpt>
      <trkpt lat="43.61836" lon="3.86409">
        <ele>48</ele>
        <time>2021-02-20T15:40:14Z</time>
      </trkpt>
      <trkpt lat="43.61836" lon="3.86418">
        <ele>48</ele>
        <time>2021-02-20T15:40:15Z</time>
      </trkpt>
      <trkpt lat="43.61837" lon="3.86426">
        <ele>48</ele>
        <time>2021-02-20T15:40:16Z</time>
      </trkpt>
      <trkpt lat="43.61838" lon="3.86435">
        <ele>48</ele>
        <time>2021-02-20T15:40:17Z</time>
      </trkpt>
      <trkpt lat="43.61838" lon="3.86444">
        <ele>48</ele>
        <time>2021-02-20T15:40:18Z</time>
      </trkpt>
      <trkpt lat="43.61839" lon="3.86453">
        <ele>48</ele>
        <time>2021-02-20T15:40:19Z</time>
      </trkpt>
      <trkpt lat="43.6184" lon="3.86462">
        <ele>48</ele>
        <time>2021-02-20T15:40:20Z</time>
      </trkpt>
      <trkpt lat="43.61841" lon="3.86472">
        <ele>48</ele>
        <time>2021-02-20T15:40:21Z</time>
      </trkpt>
      <trkpt lat="43.61841" lon="3.86482">
        <ele>46</ele>
        <time>2021-02-20T15:40:22Z</time>
      </trkpt>
      <trkpt lat="43.61841" lon="3.86492">
        <ele>46</ele>
        <time>2021-02-20T15:40:23Z</time>
      </trkpt>
      <trkpt lat="43.6184" lon="3.86502">
        <ele>46</ele>
        <time>2021-02-20T15:40:24Z</time>
      </trkpt>
      <trkpt lat="43.61839" lon="3.86512">
        <ele>46</ele>
        <time>2021-02-20T15:40:25Z</time>
      </trkpt>
      <trkpt lat="43.61836" lon="3.86521">
        <ele>46</ele>
        <time>2021-02-20T15:40:26Z</time>
      </trkpt>
      <trkpt lat="43.61833" lon="3.8653">
        <ele>46</ele>
        <time>2021-02-20T15:40:27Z</time>
      </trkpt>
      <trkpt lat="43.6183" lon="3.86539">
        <ele>46</ele>
        <time>2021-02-20T15:40:28Z</time>
      </trkpt>
      <trkpt lat="43.61827" lon="3.86547">
        <ele>46</ele>
        <time>2021-02-20T15:40:29Z</time>
      </trkpt>
      <trkpt lat="43.61824" lon="3.86556">
        <ele>46</ele>
        <time>2021-02-20T15:40:30Z</time>
      </trkpt>
      <trkpt lat="43.61821" lon="3.86564">
        <ele>46</ele>
        <time>2021-02-20T15:40:31Z</time>
      </trkpt>
      <trkpt lat="43.61818" lon="3.86571">
        <ele>46</ele>
        <time>2021-02-20T15:40:32Z</time>
      </trkpt>
      <trkpt lat="43.61815" lon="3.86579">
        <ele>46</ele>
        <time>2021-02-20T15:40:33Z</time>
      </trkpt>
      <trkpt lat="43.61812" lon="3.86586">
        <ele>46</ele>
        <time>2021-02-20T15:40:34Z</time>
      </trkpt>
      <trkpt lat="43.61809" lon="3.86592">
        <ele>46</ele>
        <time>2021-02-20T15:40:35Z</time>
      </trkpt>
      <trkpt lat="43.61807" lon="3.86599">
        <ele>46</ele>
        <time>2021-02-20T15:40:36Z</time>
      </trkpt>
      <trkpt lat="43.61801" lon="3.86612">
        <ele>46</ele>
        <time>2021-02-20T15:40:38Z</time>
      </trkpt>
      <trkpt lat="43.61798" lon="3.86617">
        <ele>46</ele>
        <time>2021-02-20T15:40:39Z</time>
      </trkpt>
      <trkpt lat="43.61796" lon="3.86623">
        <ele>46</ele>
        <time>2021-02-20T15:40:40Z</time>
      </trkpt>
      <trkpt lat="43.61793" lon="3.86628">
        <ele>46</ele>
        <time>2021-02-20T15:40:41Z</time>
      </trkpt>
      <trkpt lat="43.61791" lon="3.86634">
        <ele>45</ele>
        <time>2021-02-20T15:40:42Z</time>
      </trkpt>
      <trkpt lat="43.61789" lon="3.86639">
        <ele>45</ele>
        <time>2021-02-20T15:40:43Z</time>
      </trkpt>
      <trkpt lat="43.61787" lon="3.86644">
        <ele>45</ele>
        <time>2021-02-20T15:40:44Z</time>
      </trkpt>
      <trkpt lat="43.61787" lon="3.86649">
        <ele>45</ele>
        <time>2021-02-20T15:40:45Z</time>
      </trkpt>
      <trkpt lat="43.61785" lon="3.86654">
        <ele>45</ele>
        <time>2021-02-20T15:40:46Z</time>
      </trkpt>
      <trkpt lat="43.61784" lon="3.86658">
        <ele>45</ele>
        <time>2021-02-20T15:40:47Z</time>
      </trkpt>
      <trkpt lat="43.61783" lon="3.86661">
        <ele>45</ele>
        <time>2021-02-20T15:40:48Z</time>
      </trkpt>
      <trkpt lat="43.61782" lon="3.86663">
        <ele>45</ele>
        <time>2021-02-20T15:40:49Z</time>
      </trkpt>
      <trkpt lat="43.6178" lon="3.86666">
        <ele>45</ele>
        <time>2021-02-20T15:40:51Z</time>
      </trkpt>
      <trkpt lat="43.61778" lon="3.86667">
        <ele>45</ele>
        <time>2021-02-20T15:40:53Z</time>
      </trkpt>
      <trkpt lat="43.61775" lon="3.86669">
        <ele>45</ele>
        <time>2021-02-20T15:40:56Z</time>
      </trkpt>
      <trkpt lat="43.6177" lon="3.86676">
        <ele>45</ele>
        <time>2021-02-20T15:40:59Z</time>
      </trkpt>
      <trkpt lat="43.61768" lon="3.8668">
        <ele>45</ele>
        <time>2021-02-20T15:41:00Z</time>
      </trkpt>
      <trkpt lat="43.61766" lon="3.86684">
        <ele>45</ele>
        <time>2021-02-20T15:41:01Z</time>
      </trkpt>
      <trkpt lat="43.61765" lon="3.8669">
        <ele>42</ele>
        <time>2021-02-20T15:41:02Z</time>
      </trkpt>
      <trkpt lat="43.61763" lon="3.86696">
        <ele>42</ele>
        <time>2021-02-20T15:41:03Z</time>
      </trkpt>
      <trkpt lat="43.61761" lon="3.86702">
        <ele>42</ele>
        <time>2021-02-20T15:41:04Z</time>
      </trkpt>
      <trkpt lat="43.6176" lon="3.86708">
        <ele>42</ele>
        <time>2021-02-20T15:41:05Z</time>
      </trkpt>
      <trkpt lat="43.61758" lon="3.86715">
        <ele>42</ele>
        <time>2021-02-20T15:41:06Z</time>
      </trkpt>
      <trkpt lat="43.61756" lon="3.86722">
        <ele>42</ele>
        <time>2021-02-20T15:41:07Z</time>
      </trkpt>
      <trkpt lat="43.61754" lon="3.86729">
        <ele>42</ele>
        <time>2021-02-20T15:41:08Z</time>
      </trkpt>
      <trkpt lat="43.61753" lon="3.86737">
        <ele>42</ele>
        <time>2021-02-20T15:41:09Z</time>
      </trkpt>
      <trkpt lat="43.61751" lon="3.86744">
        <ele>42</ele>
        <time>2021-02-20T15:41:10Z</time>
      </trkpt>
      <trkpt lat="43.61749" lon="3.86751">
        <ele>42</ele>
        <time>2021-02-20T15:41:11Z</time>
      </trkpt>
      <trkpt lat="43.61748" lon="3.86758">
        <ele>40</ele>
        <time>2021-02-20T15:41:12Z</time>
      </trkpt>
      <trkpt lat="43.61746" lon="3.86765">
        <ele>40</ele>
        <time>2021-02-20T15:41:13Z</time>
      </trkpt>
      <trkpt lat="43.61744" lon="3.86772">
        <ele>40</ele>
        <time>2021-02-20T15:41:14Z</time>
      </trkpt>
      <trkpt lat="43.61743" lon="3.86779">
        <ele>40</ele>
        <time>2021-02-20T15:41:15Z</time>
      </trkpt>
      <trkpt lat="43.61741" lon="3.86786">
        <ele>40</ele>
        <time>2021-02-20T15:41:16Z</time>
      </trkpt>
      <trkpt lat="43.61736" lon="3.868">
        <ele>40</ele>
        <time>2021-02-20T15:41:18Z</time>
      </trkpt>
      <trkpt lat="43.61734" lon="3.86807">
        <ele>40</ele>
        <time>2021-02-20T15:41:19Z</time>
      </trkpt>
      <trkpt lat="43.61731" lon="3.86814">
        <ele>40</ele>
        <time>2021-02-20T15:41:20Z</time>
      </trkpt>
      <trkpt lat="43.61728" lon="3.86821">
        <ele>40</ele>
        <time>2021-02-20T15:41:21Z</time>
      </trkpt>
      <trkpt lat="43.61726" lon="3.86828">
        <ele>38</ele>
        <time>2021-02-20T15:41:22Z</time>
      </trkpt>
      <trkpt lat="43.61723" lon="3.86835">
        <ele>38</ele>
        <time>2021-02-20T15:41:23Z</time>
      </trkpt>
      <trkpt lat="43.6172" lon="3.86842">
        <ele>38</ele>
        <time>2021-02-20T15:41:24Z</time>
      </trkpt>
      <trkpt lat="43.61717" lon="3.86849">
        <ele>38</ele>
        <time>2021-02-20T15:41:25Z</time>
      </trkpt>
      <trkpt lat="43.61714" lon="3.86857">
        <ele>38</ele>
        <time>2021-02-20T15:41:26Z</time>
      </trkpt>
      <trkpt lat="43.61711" lon="3.86864">
        <ele>38</ele>
        <time>2021-02-20T15:41:27Z</time>
      </trkpt>
      <trkpt lat="43.61709" lon="3.86871">
        <ele>38</ele>
        <time>2021-02-20T15:41:28Z</time>
      </trkpt>
      <trkpt lat="43.61706" lon="3.86878">
        <ele>38</ele>
        <time>2021-02-20T15:41:29Z</time>
      </trkpt>
      <trkpt lat="43.61703" lon="3.86885">
        <ele>38</ele>
        <time>2021-02-20T15:41:30Z</time>
      </trkpt>
      <trkpt lat="43.61701" lon="3.86891">
        <ele>38</ele>
        <time>2021-02-20T15:41:31Z</time>
      </trkpt>
      <trkpt lat="43.61697" lon="3.86898">
        <ele>38</ele>
        <time>2021-02-20T15:41:32Z</time>
      </trkpt>
      <trkpt lat="43.61695" lon="3.86904">
        <ele>38</ele>
        <time>2021-02-20T15:41:33Z</time>
      </trkpt>
      <trkpt lat="43.61693" lon="3.86911">
        <ele>38</ele>
        <time>2021-02-20T15:41:34Z</time>
      </trkpt>
      <trkpt lat="43.61691" lon="3.86918">
        <ele>38</ele>
        <time>2021-02-20T15:41:35Z</time>
      </trkpt>
      <trkpt lat="43.61689" lon="3.86924">
        <ele>38</ele>
        <time>2021-02-20T15:41:36Z</time>
      </trkpt>
      <trkpt lat="43.61687" lon="3.86931">
        <ele>38</ele>
        <time>2021-02-20T15:41:37Z</time>
      </trkpt>
      <trkpt lat="43.61685" lon="3.86937">
        <ele>38</ele>
        <time>2021-02-20T15:41:38Z</time>
      </trkpt>
      <trkpt lat="43.61684" lon="3.86944">
        <ele>38</ele>
        <time>2021-02-20T15:41:39Z</time>
      </trkpt>
      <trkpt lat="43.61683" lon="3.86951">
        <ele>38</ele>
        <time>2021-02-20T15:41:40Z</time>
      </trkpt>
      <trkpt lat="43.61681" lon="3.86957">
        <ele>38</ele>
        <time>2021-02-20T15:41:41Z</time>
      </trkpt>
      <trkpt lat="43.61679" lon="3.86964">
        <ele>38</ele>
        <time>2021-02-20T15:41:42Z</time>
      </trkpt>
      <trkpt lat="43.61677" lon="3.86971">
        <ele>38</ele>
        <time>2021-02-20T15:41:43Z</time>
      </trkpt>
      <trkpt lat="43.61675" lon="3.86977">
        <ele>38</ele>
        <time>2021-02-20T15:41:44Z</time>
      </trkpt>
      <trkpt lat="43.61672" lon="3.86984">
        <ele>38</ele>
        <time>2021-02-20T15:41:45Z</time>
      </trkpt>
      <trkpt lat="43.6167" lon="3.86992">
        <ele>38</ele>
        <time>2021-02-20T15:41:46Z</time>
      </trkpt>
      <trkpt lat="43.61668" lon="3.86999">
        <ele>38</ele>
        <time>2021-02-20T15:41:47Z</time>
      </trkpt>
      <trkpt lat="43.61665" lon="3.87006">
        <ele>38</ele>
        <time>2021-02-20T15:41:48Z</time>
      </trkpt>
      <trkpt lat="43.61662" lon="3.87012">
        <ele>38</ele>
        <time>2021-02-20T15:41:49Z</time>
      </trkpt>
      <trkpt lat="43.61659" lon="3.87019">
        <ele>38</ele>
        <time>2021-02-20T15:41:50Z</time>
      </trkpt>
      <trkpt lat="43.61657" lon="3.87026">
        <ele>38</ele>
        <time>2021-02-20T15:41:51Z</time>
      </trkpt>
      <trkpt lat="43.61654" lon="3.87033">
        <ele>36</ele>
        <time>2021-02-20T15:41:52Z</time>
      </trkpt>
      <trkpt lat="43.61651" lon="3.8704">
        <ele>36</ele>
        <time>2021-02-20T15:41:53Z</time>
      </trkpt>
      <trkpt lat="43.61649" lon="3.87046">
        <ele>36</ele>
        <time>2021-02-20T15:41:54Z</time>
      </trkpt>
      <trkpt lat="43.61646" lon="3.87053">
        <ele>36</ele>
        <time>2021-02-20T15:41:55Z</time>
      </trkpt>
      <trkpt lat="43.61643" lon="3.8706">
        <ele>36</ele>
        <time>2021-02-20T15:41:56Z</time>
      </trkpt>
      <trkpt lat="43.61638" lon="3.87074">
        <ele>36</ele>
        <time>2021-02-20T15:41:58Z</time>
      </trkpt>
      <trkpt lat="43.61635" lon="3.87081">
        <ele>36</ele>
        <time>2021-02-20T15:41:59Z</time>
      </trkpt>
      <trkpt lat="43.61633" lon="3.87088">
        <ele>36</ele>
        <time>2021-02-20T15:42:00Z</time>
      </trkpt>
      <trkpt lat="43.61631" lon="3.87095">
        <ele>36</ele>
        <time>2021-02-20T15:42:01Z</time>
      </trkpt>
      <trkpt lat="43.61628" lon="3.87109">
        <ele>36</ele>
        <time>2021-02-20T15:42:03Z</time>
      </trkpt>
      <trkpt lat="43.61626" lon="3.87115">
        <ele>36</ele>
        <time>2021-02-20T15:42:04Z</time>
      </trkpt>
      <trkpt lat="43.61625" lon="3.87122">
        <ele>36</ele>
        <time>2021-02-20T15:42:05Z</time>
      </trkpt>
      <trkpt lat="43.61623" lon="3.87129">
        <ele>36</ele>
        <time>2021-02-20T15:42:06Z</time>
      </trkpt>
      <trkpt lat="43.6162" lon="3.87136">
        <ele>36</ele>
        <time>2021-02-20T15:42:07Z</time>
      </trkpt>
      <trkpt lat="43.61618" lon="3.87143">
        <ele>36</ele>
        <time>2021-02-20T15:42:08Z</time>
      </trkpt>
      <trkpt lat="43.61615" lon="3.87149">
        <ele>36</ele>
        <time>2021-02-20T15:42:09Z</time>
      </trkpt>
      <trkpt lat="43.61612" lon="3.87156">
        <ele>36</ele>
        <time>2021-02-20T15:42:10Z</time>
      </trkpt>
      <trkpt lat="43.6161" lon="3.87162">
        <ele>36</ele>
        <time>2021-02-20T15:42:11Z</time>
      </trkpt>
      <trkpt lat="43.61606" lon="3.87167">
        <ele>35</ele>
        <time>2021-02-20T15:42:12Z</time>
      </trkpt>
      <trkpt lat="43.61602" lon="3.87172">
        <ele>35</ele>
        <time>2021-02-20T15:42:13Z</time>
      </trkpt>
      <trkpt lat="43.616" lon="3.87177">
        <ele>35</ele>
        <time>2021-02-20T15:42:14Z</time>
      </trkpt>
      <trkpt lat="43.61597" lon="3.87181">
        <ele>35</ele>
        <time>2021-02-20T15:42:15Z</time>
      </trkpt>
      <trkpt lat="43.61595" lon="3.87186">
        <ele>35</ele>
        <time>2021-02-20T15:42:16Z</time>
      </trkpt>
      <trkpt lat="43.61593" lon="3.87191">
        <ele>35</ele>
        <time>2021-02-20T15:42:17Z</time>
      </trkpt>
      <trkpt lat="43.6159" lon="3.87195">
        <ele>35</ele>
        <time>2021-02-20T15:42:18Z</time>
      </trkpt>
      <trkpt lat="43.61585" lon="3.87204">
        <ele>35</ele>
        <time>2021-02-20T15:42:20Z</time>
      </trkpt>
      <trkpt lat="43.61582" lon="3.87209">
        <ele>35</ele>
        <time>2021-02-20T15:42:21Z</time>
      </trkpt>
      <trkpt lat="43.6158" lon="3.87214">
        <ele>36</ele>
        <time>2021-02-20T15:42:22Z</time>
      </trkpt>
      <trkpt lat="43.61578" lon="3.8722">
        <ele>36</ele>
        <time>2021-02-20T15:42:23Z</time>
      </trkpt>
      <trkpt lat="43.61577" lon="3.87226">
        <ele>36</ele>
        <time>2021-02-20T15:42:24Z</time>
      </trkpt>
      <trkpt lat="43.61575" lon="3.87231">
        <ele>36</ele>
        <time>2021-02-20T15:42:25Z</time>
      </trkpt>
      <trkpt lat="43.61573" lon="3.87237">
        <ele>36</ele>
        <time>2021-02-20T15:42:26Z</time>
      </trkpt>
      <trkpt lat="43.61571" lon="3.87243">
        <ele>36</ele>
        <time>2021-02-20T15:42:27Z</time>
      </trkpt>
      <trkpt lat="43.61568" lon="3.87249">
        <ele>36</ele>
        <time>2021-02-20T15:42:28Z</time>
      </trkpt>
      <trkpt lat="43.61566" lon="3.87255">
        <ele>36</ele>
        <time>2021-02-20T15:42:29Z</time>
      </trkpt>
      <trkpt lat="43.61564" lon="3.87261">
        <ele>36</ele>
        <time>2021-02-20T15:42:30Z</time>
      </trkpt>
      <trkpt lat="43.61562" lon="3.87267">
        <ele>36</ele>
        <time>2021-02-20T15:42:31Z</time>
      </trkpt>
      <trkpt lat="43.61559" lon="3.87273">
        <ele>36</ele>
        <time>2021-02-20T15:42:32Z</time>
      </trkpt>
      <trkpt lat="43.61557" lon="3.8728">
        <ele>36</ele>
        <time>2021-02-20T15:42:33Z</time>
      </trkpt>
      <trkpt lat="43.61555" lon="3.87286">
        <ele>36</ele>
        <time>2021-02-20T15:42:34Z</time>
      </trkpt>
      <trkpt lat="43.61554" lon="3.87292">
        <ele>36</ele>
        <time>2021-02-20T15:42:35Z</time>
      </trkpt>
      <trkpt lat="43.61553" lon="3.87298">
        <ele>36</ele>
        <time>2021-02-20T15:42:36Z</time>
      </trkpt>
      <trkpt lat="43.61552" lon="3.87305">
        <ele>36</ele>
        <time>2021-02-20T15:42:37Z</time>
      </trkpt>
      <trkpt lat="43.6155" lon="3.87311">
        <ele>36</ele>
        <time>2021-02-20T15:42:38Z</time>
      </trkpt>
      <trkpt lat="43.61549" lon="3.87317">
        <ele>36</ele>
        <time>2021-02-20T15:42:39Z</time>
      </trkpt>
      <trkpt lat="43.61547" lon="3.87323">
        <ele>36</ele>
        <time>2021-02-20T15:42:40Z</time>
      </trkpt>
      <trkpt lat="43.61546" lon="3.8733">
        <ele>36</ele>
        <time>2021-02-20T15:42:41Z</time>
      </trkpt>
      <trkpt lat="43.61544" lon="3.87337">
        <ele>37</ele>
        <time>2021-02-20T15:42:42Z</time>
      </trkpt>
      <trkpt lat="43.61543" lon="3.87343">
        <ele>37</ele>
        <time>2021-02-20T15:42:43Z</time>
      </trkpt>
      <trkpt lat="43.61542" lon="3.8735">
        <ele>37</ele>
        <time>2021-02-20T15:42:44Z</time>
      </trkpt>
      <trkpt lat="43.61542" lon="3.87357">
        <ele>37</ele>
        <time>2021-02-20T15:42:45Z</time>
      </trkpt>
      <trkpt lat="43.61541" lon="3.87364">
        <ele>37</ele>
        <time>2021-02-20T15:42:46Z</time>
      </trkpt>
      <trkpt lat="43.61541" lon="3.87371">
        <ele>37</ele>
        <time>2021-02-20T15:42:47Z</time>
      </trkpt>
      <trkpt lat="43.6154" lon="3.87378">
        <ele>37</ele>
        <time>2021-02-20T15:42:48Z</time>
      </trkpt>
      <trkpt lat="43.6154" lon="3.87385">
        <ele>37</ele>
        <time>2021-02-20T15:42:49Z</time>
      </trkpt>
      <trkpt lat="43.61541" lon="3.87391">
        <ele>37</ele>
        <time>2021-02-20T15:42:50Z</time>
      </trkpt>
      <trkpt lat="43.61541" lon="3.87398">
        <ele>37</ele>
        <time>2021-02-20T15:42:51Z</time>
      </trkpt>
      <trkpt lat="43.61542" lon="3.87405">
        <ele>35</ele>
        <time>2021-02-20T15:42:52Z</time>
      </trkpt>
      <trkpt lat="43.61541" lon="3.87412">
        <ele>35</ele>
        <time>2021-02-20T15:42:53Z</time>
      </trkpt>
      <trkpt lat="43.61539" lon="3.87418">
        <ele>35</ele>
        <time>2021-02-20T15:42:54Z</time>
      </trkpt>
      <trkpt lat="43.61537" lon="3.87423">
        <ele>35</ele>
        <time>2021-02-20T15:42:55Z</time>
      </trkpt>
      <trkpt lat="43.61536" lon="3.87429">
        <ele>35</ele>
        <time>2021-02-20T15:42:56Z</time>
      </trkpt>
      <trkpt lat="43.61535" lon="3.87434">
        <ele>35</ele>
        <time>2021-02-20T15:42:57Z</time>
      </trkpt>
      <trkpt lat="43.61534" lon="3.8744">
        <ele>35</ele>
        <time>2021-02-20T15:42:58Z</time>
      </trkpt>
      <trkpt lat="43.61534" lon="3.87444">
        <ele>35</ele>
        <time>2021-02-20T15:42:59Z</time>
      </trkpt>
      <trkpt lat="43.61533" lon="3.87448">
        <ele>35</ele>
        <time>2021-02-20T15:43:00Z</time>
      </trkpt>
      <trkpt lat="43.61532" lon="3.87451">
        <ele>35</ele>
        <time>2021-02-20T15:43:01Z</time>
      </trkpt>
      <trkpt lat="43.61531" lon="3.87454">
        <ele>35</ele>
        <time>2021-02-20T15:43:02Z</time>
      </trkpt>
      <trkpt lat="43.61531" lon="3.87457">
        <ele>35</ele>
        <time>2021-02-20T15:43:03Z</time>
      </trkpt>
      <trkpt lat="43.6153" lon="3.87461">
        <ele>35</ele>
        <time>2021-02-20T15:43:04Z</time>
      </trkpt>
      <trkpt lat="43.61529" lon="3.87465">
        <ele>35</ele>
        <time>2021-02-20T15:43:05Z</time>
      </trkpt>
      <trkpt lat="43.61528" lon="3.87469">
        <ele>35</ele>
        <time>2021-02-20T15:43:06Z</time>
      </trkpt>
      <trkpt lat="43.61528" lon="3.87473">
        <ele>35</ele>
        <time>2021-02-20T15:43:07Z</time>
      </trkpt>
      <trkpt lat="43.61527" lon="3.87477">
        <ele>35</ele>
        <time>2021-02-20T15:43:08Z</time>
      </trkpt>
      <trkpt lat="43.61526" lon="3.87482">
        <ele>35</ele>
        <time>2021-02-20T15:43:09Z</time>
      </trkpt>
      <trkpt lat="43.61524" lon="3.87486">
        <ele>35</ele>
        <time>2021-02-20T15:43:10Z</time>
      </trkpt>
      <trkpt lat="43.61523" lon="3.87491">
        <ele>35</ele>
        <time>2021-02-20T15:43:11Z</time>
      </trkpt>
      <trkpt lat="43.61522" lon="3.87495">
        <ele>34</ele>
        <time>2021-02-20T15:43:12Z</time>
      </trkpt>
      <trkpt lat="43.61521" lon="3.875">
        <ele>34</ele>
        <time>2021-02-20T15:43:13Z</time>
      </trkpt>
      <trkpt lat="43.61521" lon="3.87504">
        <ele>34</ele>
        <time>2021-02-20T15:43:14Z</time>
      </trkpt>
      <trkpt lat="43.61521" lon="3.87508">
        <ele>34</ele>
        <time>2021-02-20T15:43:15Z</time>
      </trkpt>
      <trkpt lat="43.6152" lon="3.87514">
        <ele>34</ele>
        <time>2021-02-20T15:43:16Z</time>
      </trkpt>
      <trkpt lat="43.61519" lon="3.8752">
        <ele>34</ele>
        <time>2021-02-20T15:43:17Z</time>
      </trkpt>
      <trkpt lat="43.61519" lon="3.87525">
        <ele>34</ele>
        <time>2021-02-20T15:43:18Z</time>
      </trkpt>
      <trkpt lat="43.61519" lon="3.87531">
        <ele>34</ele>
        <time>2021-02-20T15:43:19Z</time>
      </trkpt>
      <trkpt lat="43.61517" lon="3.87537">
        <ele>34</ele>
        <time>2021-02-20T15:43:20Z</time>
      </trkpt>
      <trkpt lat="43.61516" lon="3.87543">
        <ele>34</ele>
        <time>2021-02-20T15:43:21Z</time>
      </trkpt>
      <trkpt lat="43.61515" lon="3.87549">
        <ele>33</ele>
        <time>2021-02-20T15:43:22Z</time>
      </trkpt>
      <trkpt lat="43.61514" lon="3.87555">
        <ele>33</ele>
        <time>2021-02-20T15:43:23Z</time>
      </trkpt>
      <trkpt lat="43.61514" lon="3.87561">
        <ele>33</ele>
        <time>2021-02-20T15:43:24Z</time>
      </trkpt>
      <trkpt lat="43.61516" lon="3.87578">
        <ele>33</ele>
        <time>2021-02-20T15:43:27Z</time>
      </trkpt>
      <trkpt lat="43.61515" lon="3.87596">
        <ele>33</ele>
        <time>2021-02-20T15:43:30Z</time>
      </trkpt>
      <trkpt lat="43.61515" lon="3.87609">
        <ele>34</ele>
        <time>2021-02-20T15:43:32Z</time>
      </trkpt>
      <trkpt lat="43.61515" lon="3.87614">
        <ele>34</ele>
        <time>2021-02-20T15:43:33Z</time>
      </trkpt>
      <trkpt lat="43.61514" lon="3.87621">
        <ele>34</ele>
        <time>2021-02-20T15:43:34Z</time>
      </trkpt>
      <trkpt lat="43.61513" lon="3.87626">
        <ele>34</ele>
        <time>2021-02-20T15:43:35Z</time>
      </trkpt>
      <trkpt lat="43.61512" lon="3.87632">
        <ele>34</ele>
        <time>2021-02-20T15:43:36Z</time>
      </trkpt>
      <trkpt lat="43.61511" lon="3.87639">
        <ele>34</ele>
        <time>2021-02-20T15:43:37Z</time>
      </trkpt>
      <trkpt lat="43.61509" lon="3.87644">
        <ele>34</ele>
        <time>2021-02-20T15:43:38Z</time>
      </trkpt>
      <trkpt lat="43.61508" lon="3.87651">
        <ele>34</ele>
        <time>2021-02-20T15:43:39Z</time>
      </trkpt>
      <trkpt lat="43.61507" lon="3.87657">
        <ele>34</ele>
        <time>2021-02-20T15:43:40Z</time>
      </trkpt>
      <trkpt lat="43.61505" lon="3.87663">
        <ele>34</ele>
        <time>2021-02-20T15:43:41Z</time>
      </trkpt>
      <trkpt lat="43.61504" lon="3.8767">
        <ele>33</ele>
        <time>2021-02-20T15:43:42Z</time>
      </trkpt>
      <trkpt lat="43.61502" lon="3.87683">
        <ele>33</ele>
        <time>2021-02-20T15:43:44Z</time>
      </trkpt>
      <trkpt lat="43.615" lon="3.87689">
        <ele>33</ele>
        <time>2021-02-20T15:43:45Z</time>
      </trkpt>
      <trkpt lat="43.61499" lon="3.87696">
        <ele>33</ele>
        <time>2021-02-20T15:43:46Z</time>
      </trkpt>
      <trkpt lat="43.61498" lon="3.87703">
        <ele>33</ele>
        <time>2021-02-20T15:43:47Z</time>
      </trkpt>
      <trkpt lat="43.61496" lon="3.87709">
        <ele>33</ele>
        <time>2021-02-20T15:43:48Z</time>
      </trkpt>
      <trkpt lat="43.61495" lon="3.87716">
        <ele>33</ele>
        <time>2021-02-20T15:43:49Z</time>
      </trkpt>
      <trkpt lat="43.61493" lon="3.87722">
        <ele>33</ele>
        <time>2021-02-20T15:43:50Z</time>
      </trkpt>
      <trkpt lat="43.61492" lon="3.87729">
        <ele>33</ele>
        <time>2021-02-20T15:43:51Z</time>
      </trkpt>
      <trkpt lat="43.61491" lon="3.87736">
        <ele>33</ele>
        <time>2021-02-20T15:43:52Z</time>
      </trkpt>
      <trkpt lat="43.61489" lon="3.87742">
        <ele>33</ele>
        <time>2021-02-20T15:43:53Z</time>
      </trkpt>
      <trkpt lat="43.61489" lon="3.87749">
        <ele>33</ele>
        <time>2021-02-20T15:43:54Z</time>
      </trkpt>
      <trkpt lat="43.61489" lon="3.87756">
        <ele>33</ele>
        <time>2021-02-20T15:43:55Z</time>
      </trkpt>
      <trkpt lat="43.61488" lon="3.87762">
        <ele>33</ele>
        <time>2021-02-20T15:43:56Z</time>
      </trkpt>
      <trkpt lat="43.61488" lon="3.87769">
        <ele>33</ele>
        <time>2021-02-20T15:43:57Z</time>
      </trkpt>
      <trkpt lat="43.61487" lon="3.87775">
        <ele>33</ele>
        <time>2021-02-20T15:43:58Z</time>
      </trkpt>
      <trkpt lat="43.61487" lon="3.87782">
        <ele>33</ele>
        <time>2021-02-20T15:43:59Z</time>
      </trkpt>
      <trkpt lat="43.61486" lon="3.87789">
        <ele>33</ele>
        <time>2021-02-20T15:44:00Z</time>
      </trkpt>
      <trkpt lat="43.61485" lon="3.87796">
        <ele>33</ele>
        <time>2021-02-20T15:44:01Z</time>
      </trkpt>
      <trkpt lat="43.61485" lon="3.87803">
        <ele>33</ele>
        <time>2021-02-20T15:44:02Z</time>
      </trkpt>
      <trkpt lat="43.61483" lon="3.87811">
        <ele>33</ele>
        <time>2021-02-20T15:44:03Z</time>
      </trkpt>
      <trkpt lat="43.61482" lon="3.87825">
        <ele>33</ele>
        <time>2021-02-20T15:44:05Z</time>
      </trkpt>
      <trkpt lat="43.61481" lon="3.87832">
        <ele>33</ele>
        <time>2021-02-20T15:44:06Z</time>
      </trkpt>
      <trkpt lat="43.61481" lon="3.87839">
        <ele>33</ele>
        <time>2021-02-20T15:44:07Z</time>
      </trkpt>
      <trkpt lat="43.6148" lon="3.87845">
        <ele>33</ele>
        <time>2021-02-20T15:44:08Z</time>
      </trkpt>
      <trkpt lat="43.61479" lon="3.87851">
        <ele>33</ele>
        <time>2021-02-20T15:44:09Z</time>
      </trkpt>
      <trkpt lat="43.61479" lon="3.87857">
        <ele>33</ele>
        <time>2021-02-20T15:44:10Z</time>
      </trkpt>
      <trkpt lat="43.61478" lon="3.87864">
        <ele>33</ele>
        <time>2021-02-20T15:44:11Z</time>
      </trkpt>
      <trkpt lat="43.61478" lon="3.8787">
        <ele>32</ele>
        <time>2021-02-20T15:44:12Z</time>
      </trkpt>
      <trkpt lat="43.61476" lon="3.87876">
        <ele>32</ele>
        <time>2021-02-20T15:44:13Z</time>
      </trkpt>
      <trkpt lat="43.61475" lon="3.87882">
        <ele>32</ele>
        <time>2021-02-20T15:44:14Z</time>
      </trkpt>
      <trkpt lat="43.61474" lon="3.87888">
        <ele>32</ele>
        <time>2021-02-20T15:44:15Z</time>
      </trkpt>
      <trkpt lat="43.61472" lon="3.87893">
        <ele>32</ele>
        <time>2021-02-20T15:44:16Z</time>
      </trkpt>
      <trkpt lat="43.61472" lon="3.87899">
        <ele>32</ele>
        <time>2021-02-20T15:44:17Z</time>
      </trkpt>
      <trkpt lat="43.61471" lon="3.87905">
        <ele>32</ele>
        <time>2021-02-20T15:44:18Z</time>
      </trkpt>
      <trkpt lat="43.6147" lon="3.8791">
        <ele>32</ele>
        <time>2021-02-20T15:44:19Z</time>
      </trkpt>
      <trkpt lat="43.6147" lon="3.87916">
        <ele>32</ele>
        <time>2021-02-20T15:44:20Z</time>
      </trkpt>
      <trkpt lat="43.6147" lon="3.87923">
        <ele>32</ele>
        <time>2021-02-20T15:44:21Z</time>
      </trkpt>
      <trkpt lat="43.61469" lon="3.87929">
        <ele>31</ele>
        <time>2021-02-20T15:44:22Z</time>
      </trkpt>
      <trkpt lat="43.61469" lon="3.87935">
        <ele>31</ele>
        <time>2021-02-20T15:44:23Z</time>
      </trkpt>
      <trkpt lat="43.61467" lon="3.87941">
        <ele>31</ele>
        <time>2021-02-20T15:44:24Z</time>
      </trkpt>
      <trkpt lat="43.61466" lon="3.87947">
        <ele>31</ele>
        <time>2021-02-20T15:44:25Z</time>
      </trkpt>
      <trkpt lat="43.61465" lon="3.87954">
        <ele>31</ele>
        <time>2021-02-20T15:44:26Z</time>
      </trkpt>
      <trkpt lat="43.61464" lon="3.8796">
        <ele>31</ele>
        <time>2021-02-20T15:44:27Z</time>
      </trkpt>
      <trkpt lat="43.61464" lon="3.87973">
        <ele>31</ele>
        <time>2021-02-20T15:44:29Z</time>
      </trkpt>
      <trkpt lat="43.61464" lon="3.87979">
        <ele>31</ele>
        <time>2021-02-20T15:44:30Z</time>
      </trkpt>
      <trkpt lat="43.61464" lon="3.87985">
        <ele>31</ele>
        <time>2021-02-20T15:44:31Z</time>
      </trkpt>
      <trkpt lat="43.61463" lon="3.87991">
        <ele>31</ele>
        <time>2021-02-20T15:44:32Z</time>
      </trkpt>
      <trkpt lat="43.61462" lon="3.87997">
        <ele>31</ele>
        <time>2021-02-20T15:44:33Z</time>
      </trkpt>
      <trkpt lat="43.6146" lon="3.88003">
        <ele>31</ele>
        <time>2021-02-20T15:44:34Z</time>
      </trkpt>
      <trkpt lat="43.61459" lon="3.88009">
        <ele>31</ele>
        <time>2021-02-20T15:44:35Z</time>
      </trkpt>
      <trkpt lat="43.61457" lon="3.88013">
        <ele>31</ele>
        <time>2021-02-20T15:44:36Z</time>
      </trkpt>
      <trkpt lat="43.61449" lon="3.88024">
        <ele>31</ele>
        <time>2021-02-20T15:44:39Z</time>
      </trkpt>
      <trkpt lat="43.61442" lon="3.88034">
        <ele>31</ele>
        <time>2021-02-20T15:44:43Z</time>
      </trkpt>
      <trkpt lat="43.61438" lon="3.88042">
        <ele>31</ele>
        <time>2021-02-20T15:44:46Z</time>
      </trkpt>
      <trkpt lat="43.61429" lon="3.88048">
        <ele>31</ele>
        <time>2021-02-20T15:44:50Z</time>
      </trkpt>
      <trkpt lat="43.61424" lon="3.88048">
        <ele>31</ele>
        <time>2021-02-20T15:44:51Z</time>
      </trkpt>
      <trkpt lat="43.61413" lon="3.88048">
        <ele>31</ele>
        <time>2021-02-20T15:44:54Z</time>
      </trkpt>
      <trkpt lat="43.61401" lon="3.88045">
        <ele>31</ele>
        <time>2021-02-20T15:44:57Z</time>
      </trkpt>
      <trkpt lat="43.61397" lon="3.88043">
        <ele>31</ele>
        <time>2021-02-20T15:44:58Z</time>
      </trkpt>
      <trkpt lat="43.61394" lon="3.88042">
        <ele>31</ele>
        <time>2021-02-20T15:44:59Z</time>
      </trkpt>
      <trkpt lat="43.61391" lon="3.88041">
        <ele>31</ele>
        <time>2021-02-20T15:45:00Z</time>
      </trkpt>
      <trkpt lat="43.61387" lon="3.88039">
        <ele>31</ele>
        <time>2021-02-20T15:45:01Z</time>
      </trkpt>
      <trkpt lat="43.61385" lon="3.88037">
        <ele>38</ele>
        <time>2021-02-20T15:45:02Z</time>
      </trkpt>
      <trkpt lat="43.61383" lon="3.88034">
        <ele>38</ele>
        <time>2021-02-20T15:45:03Z</time>
      </trkpt>
      <trkpt lat="43.61377" lon="3.88029">
        <ele>38</ele>
        <time>2021-02-20T15:45:05Z</time>
      </trkpt>
      <trkpt lat="43.61375" lon="3.88027">
        <ele>38</ele>
        <time>2021-02-20T15:45:06Z</time>
      </trkpt>
      <trkpt lat="43.61373" lon="3.88024">
        <ele>38</ele>
        <time>2021-02-20T15:45:07Z</time>
      </trkpt>
      <trkpt lat="43.61371" lon="3.88022">
        <ele>38</ele>
        <time>2021-02-20T15:45:08Z</time>
      </trkpt>
      <trkpt lat="43.61369" lon="3.8802">
        <ele>38</ele>
        <time>2021-02-20T15:45:09Z</time>
      </trkpt>
      <trkpt lat="43.61367" lon="3.88017">
        <ele>38</ele>
        <time>2021-02-20T15:45:10Z</time>
      </trkpt>
      <trkpt lat="43.61366" lon="3.88015">
        <ele>38</ele>
        <time>2021-02-20T15:45:11Z</time>
      </trkpt>
      <trkpt lat="43.61364" lon="3.88013">
        <ele>39</ele>
        <time>2021-02-20T15:45:12Z</time>
      </trkpt>
      <trkpt lat="43.61362" lon="3.88011">
        <ele>39</ele>
        <time>2021-02-20T15:45:13Z</time>
      </trkpt>
      <trkpt lat="43.6136" lon="3.88009">
        <ele>39</ele>
        <time>2021-02-20T15:45:14Z</time>
      </trkpt>
      <trkpt lat="43.61359" lon="3.88008">
        <ele>39</ele>
        <time>2021-02-20T15:45:15Z</time>
      </trkpt>
      <trkpt lat="43.61357" lon="3.88006">
        <ele>39</ele>
        <time>2021-02-20T15:45:16Z</time>
      </trkpt>
      <trkpt lat="43.61355" lon="3.88004">
        <ele>39</ele>
        <time>2021-02-20T15:45:17Z</time>
      </trkpt>
      <trkpt lat="43.61353" lon="3.88002">
        <ele>39</ele>
        <time>2021-02-20T15:45:18Z</time>
      </trkpt>
      <trkpt lat="43.61351" lon="3.88001">
        <ele>39</ele>
        <time>2021-02-20T15:45:19Z</time>
      </trkpt>
      <trkpt lat="43.61349" lon="3.88">
        <ele>39</ele>
        <time>2021-02-20T15:45:20Z</time>
      </trkpt>
      <trkpt lat="43.61347" lon="3.87999">
        <ele>39</ele>
        <time>2021-02-20T15:45:21Z</time>
      </trkpt>
      <trkpt lat="43.61344" lon="3.87998">
        <ele>40</ele>
        <time>2021-02-20T15:45:22Z</time>
      </trkpt>
      <trkpt lat="43.61342" lon="3.87997">
        <ele>40</ele>
        <time>2021-02-20T15:45:23Z</time>
      </trkpt>
      <trkpt lat="43.6134" lon="3.87995">
        <ele>40</ele>
        <time>2021-02-20T15:45:24Z</time>
      </trkpt>
      <trkpt lat="43.61339" lon="3.87993">
        <ele>40</ele>
        <time>2021-02-20T15:45:25Z</time>
      </trkpt>
      <trkpt lat="43.61337" lon="3.87992">
        <ele>40</ele>
        <time>2021-02-20T15:45:26Z</time>
      </trkpt>
      <trkpt lat="43.61336" lon="3.8799">
        <ele>40</ele>
        <time>2021-02-20T15:45:27Z</time>
      </trkpt>
      <trkpt lat="43.61335" lon="3.87988">
        <ele>40</ele>
        <time>2021-02-20T15:45:28Z</time>
      </trkpt>
      <trkpt lat="43.61334" lon="3.87983">
        <ele>40</ele>
        <time>2021-02-20T15:45:30Z</time>
      </trkpt>
      <trkpt lat="43.61332" lon="3.87979">
        <ele>41</ele>
        <time>2021-02-20T15:45:32Z</time>
      </trkpt>
      <trkpt lat="43.61329" lon="3.87977">
        <ele>41</ele>
        <time>2021-02-20T15:45:34Z</time>
      </trkpt>
      <trkpt lat="43.61326" lon="3.87975">
        <ele>41</ele>
        <time>2021-02-20T15:45:36Z</time>
      </trkpt>
      <trkpt lat="43.61323" lon="3.87973">
        <ele>41</ele>
        <time>2021-02-20T15:45:38Z</time>
      </trkpt>
      <trkpt lat="43.6132" lon="3.87971">
        <ele>41</ele>
        <time>2021-02-20T15:45:40Z</time>
      </trkpt>
      <trkpt lat="43.61318" lon="3.87969">
        <ele>42</ele>
        <time>2021-02-20T15:45:42Z</time>
      </trkpt>
      <trkpt lat="43.61316" lon="3.87967">
        <ele>42</ele>
        <time>2021-02-20T15:45:45Z</time>
      </trkpt>
      <trkpt lat="43.61314" lon="3.87965">
        <ele>42</ele>
        <time>2021-02-20T15:45:46Z</time>
      </trkpt>
      <trkpt lat="43.61311" lon="3.87964">
        <ele>42</ele>
        <time>2021-02-20T15:45:48Z</time>
      </trkpt>
      <trkpt lat="43.61309" lon="3.87962">
        <ele>42</ele>
        <time>2021-02-20T15:45:51Z</time>
      </trkpt>
      <trkpt lat="43.61306" lon="3.87958">
        <ele>42</ele>
        <time>2021-02-20T15:45:54Z</time>
      </trkpt>
      <trkpt lat="43.61305" lon="3.87957">
        <ele>42</ele>
        <time>2021-02-20T15:45:55Z</time>
      </trkpt>
      <trkpt lat="43.61303" lon="3.87955">
        <ele>42</ele>
        <time>2021-02-20T15:45:56Z</time>
      </trkpt>
      <trkpt lat="43.613" lon="3.87954">
        <ele>42</ele>
        <time>2021-02-20T15:45:58Z</time>
      </trkpt>
      <trkpt lat="43.61298" lon="3.87953">
        <ele>42</ele>
        <time>2021-02-20T15:45:59Z</time>
      </trkpt>
      <trkpt lat="43.61296" lon="3.87953">
        <ele>42</ele>
        <time>2021-02-20T15:46:00Z</time>
      </trkpt>
      <trkpt lat="43.61293" lon="3.87952">
        <ele>42</ele>
        <time>2021-02-20T15:46:01Z</time>
      </trkpt>
      <trkpt lat="43.61291" lon="3.87952">
        <ele>44</ele>
        <time>2021-02-20T15:46:02Z</time>
      </trkpt>
      <trkpt lat="43.61289" lon="3.87952">
        <ele>44</ele>
        <time>2021-02-20T15:46:03Z</time>
      </trkpt>
      <trkpt lat="43.61279" lon="3.87948">
        <ele>44</ele>
        <time>2021-02-20T15:46:08Z</time>
      </trkpt>
      <trkpt lat="43.6127" lon="3.87941">
        <ele>44</ele>
        <time>2021-02-20T15:46:13Z</time>
      </trkpt>
      <trkpt lat="43.6126" lon="3.87938">
        <ele>44</ele>
        <time>2021-02-20T15:46:17Z</time>
      </trkpt>
      <trkpt lat="43.6125" lon="3.87935">
        <ele>47</ele>
        <time>2021-02-20T15:46:22Z</time>
      </trkpt>
      <trkpt lat="43.61241" lon="3.87932">
        <ele>47</ele>
        <time>2021-02-20T15:46:28Z</time>
      </trkpt>
      <trkpt lat="43.61231" lon="3.87932">
        <ele>47</ele>
        <time>2021-02-20T15:46:33Z</time>
      </trkpt>
      <trkpt lat="43.61223" lon="3.87938">
        <ele>47</ele>
        <time>2021-02-20T15:46:38Z</time>
      </trkpt>
      <trkpt lat="43.6122" lon="3.87939">
        <ele>47</ele>
        <time>2021-02-20T15:46:44Z</time>
      </trkpt>
      <trkpt lat="43.61217" lon="3.87938">
        <ele>47</ele>
        <time>2021-02-20T15:46:46Z</time>
      </trkpt>
      <trkpt lat="43.6121" lon="3.87937">
        <ele>47</ele>
        <time>2021-02-20T15:46:50Z</time>
      </trkpt>
      <trkpt lat="43.61207" lon="3.87937">
        <ele>47</ele>
        <time>2021-02-20T15:46:51Z</time>
      </trkpt>
      <trkpt lat="43.61205" lon="3.87937">
        <ele>50</ele>
        <time>2021-02-20T15:46:52Z</time>
      </trkpt>
      <trkpt lat="43.61202" lon="3.87936">
        <ele>50</ele>
        <time>2021-02-20T15:46:53Z</time>
      </trkpt>
      <trkpt lat="43.612" lon="3.87937">
        <ele>50</ele>
        <time>2021-02-20T15:46:54Z</time>
      </trkpt>
      <trkpt lat="43.61198" lon="3.87937">
        <ele>50</ele>
        <time>2021-02-20T15:46:55Z</time>
      </trkpt>
      <trkpt lat="43.61192" lon="3.87937">
        <ele>50</ele>
        <time>2021-02-20T15:46:57Z</time>
      </trkpt>
      <trkpt lat="43.61183" lon="3.87931">
        <ele>50</ele>
        <time>2021-02-20T15:46:59Z</time>
      </trkpt>
      <trkpt lat="43.61172" lon="3.87928">
        <ele>51</ele>
        <time>2021-02-20T15:47:02Z</time>
      </trkpt>
      <trkpt lat="43.61162" lon="3.87925">
        <ele>51</ele>
        <time>2021-02-20T15:47:05Z</time>
      </trkpt>
      <trkpt lat="43.61151" lon="3.87924">
        <ele>51</ele>
        <time>2021-02-20T15:47:08Z</time>
      </trkpt>
      <trkpt lat="43.61141" lon="3.8792">
        <ele>52</ele>
        <time>2021-02-20T15:47:12Z</time>
      </trkpt>
      <trkpt lat="43.6113" lon="3.87919">
        <ele>52</ele>
        <time>2021-02-20T15:47:15Z</time>
      </trkpt>
      <trkpt lat="43.6112" lon="3.87921">
        <ele>52</ele>
        <time>2021-02-20T15:47:17Z</time>
      </trkpt>
      <trkpt lat="43.6111" lon="3.8792">
        <ele>52</ele>
        <time>2021-02-20T15:47:20Z</time>
      </trkpt>
      <trkpt lat="43.61109" lon="3.87907">
        <ele>52</ele>
        <time>2021-02-20T15:47:24Z</time>
      </trkpt>
      <trkpt lat="43.6111" lon="3.87903">
        <ele>52</ele>
        <time>2021-02-20T15:47:26Z</time>
      </trkpt>
      <trkpt lat="43.61111" lon="3.87901">
        <ele>52</ele>
        <time>2021-02-20T15:47:29Z</time>
      </trkpt>
      <trkpt lat="43.61113" lon="3.87899">
        <ele>52</ele>
        <time>2021-02-20T15:47:33Z</time>
      </trkpt>
      <trkpt lat="43.61115" lon="3.87896">
        <ele>52</ele>
        <time>2021-02-20T15:47:35Z</time>
      </trkpt>
      <trkpt lat="43.61116" lon="3.87893">
        <ele>52</ele>
        <time>2021-02-20T15:47:38Z</time>
      </trkpt>
      <trkpt lat="43.61117" lon="3.87888">
        <ele>52</ele>
        <time>2021-02-20T15:47:40Z</time>
      </trkpt>
      <trkpt lat="43.61117" lon="3.87886">
        <ele>52</ele>
        <time>2021-02-20T15:47:46Z</time>
      </trkpt>
      <trkpt lat="43.61117" lon="3.87886">
        <ele>58</ele>
        <time>2021-02-20T15:47:48Z</time>
      </trkpt>
      <trkpt lat="43.61121" lon="3.87877">
        <ele>60</ele>
        <time>2021-02-20T15:48:41Z</time>
      </trkpt>
      <trkpt lat="43.61121" lon="3.87875">
        <ele>60</ele>
        <time>2021-02-20T15:48:43Z</time>
      </trkpt>
      <trkpt lat="43.61124" lon="3.87872">
        <ele>60</ele>
        <time>2021-02-20T15:48:44Z</time>
      </trkpt>
      <trkpt lat="43.61126" lon="3.8787">
        <ele>60</ele>
        <time>2021-02-20T15:48:46Z</time>
      </trkpt>
      <trkpt lat="43.61132" lon="3.8786">
        <ele>60</ele>
        <time>2021-02-20T15:48:55Z</time>
      </trkpt>
      <trkpt lat="43.61123" lon="3.87848">
        <ele>60</ele>
        <time>2021-02-20T15:49:01Z</time>
      </trkpt>
      <trkpt lat="43.61112" lon="3.87842">
        <ele>60</ele>
        <time>2021-02-20T15:49:04Z</time>
      </trkpt>
      <trkpt lat="43.61103" lon="3.87836">
        <ele>60</ele>
        <time>2021-02-20T15:49:09Z</time>
      </trkpt>
      <trkpt lat="43.61096" lon="3.87826">
        <ele>60</ele>
        <time>2021-02-20T15:49:13Z</time>
      </trkpt>
      <trkpt lat="43.61086" lon="3.87817">
        <ele>60</ele>
        <time>2021-02-20T15:49:17Z</time>
      </trkpt>
      <trkpt lat="43.6108" lon="3.87806">
        <ele>60</ele>
        <time>2021-02-20T15:49:22Z</time>
      </trkpt>
      <trkpt lat="43.61077" lon="3.87794">
        <ele>60</ele>
        <time>2021-02-20T15:49:28Z</time>
      </trkpt>
      <trkpt lat="43.61076" lon="3.8778">
        <ele>60</ele>
        <time>2021-02-20T15:49:32Z</time>
      </trkpt>
      <trkpt lat="43.61077" lon="3.87777">
        <ele>60</ele>
        <time>2021-02-20T15:49:33Z</time>
      </trkpt>
      <trkpt lat="43.61078" lon="3.87769">
        <ele>60</ele>
        <time>2021-02-20T15:49:35Z</time>
      </trkpt>
      <trkpt lat="43.61079" lon="3.87766">
        <ele>60</ele>
        <time>2021-02-20T15:49:36Z</time>
      </trkpt>
      <trkpt lat="43.6108" lon="3.87763">
        <ele>60</ele>
        <time>2021-02-20T15:49:37Z</time>
      </trkpt>
      <trkpt lat="43.61081" lon="3.87751">
        <ele>57</ele>
        <time>2021-02-20T15:49:41Z</time>
      </trkpt>
      <trkpt lat="43.61081" lon="3.87748">
        <ele>57</ele>
        <time>2021-02-20T15:49:42Z</time>
      </trkpt>
      <trkpt lat="43.6108" lon="3.87736">
        <ele>57</ele>
        <time>2021-02-20T15:49:46Z</time>
      </trkpt>
      <trkpt lat="43.61081" lon="3.87723">
        <ele>57</ele>
        <time>2021-02-20T15:49:50Z</time>
      </trkpt>
      <trkpt lat="43.61087" lon="3.87712">
        <ele>57</ele>
        <time>2021-02-20T15:49:54Z</time>
      </trkpt>
      <trkpt lat="43.61089" lon="3.877">
        <ele>57</ele>
        <time>2021-02-20T15:49:58Z</time>
      </trkpt>
      <trkpt lat="43.61098" lon="3.87699">
        <ele>57</ele>
        <time>2021-02-20T15:50:02Z</time>
      </trkpt>
      <trkpt lat="43.61107" lon="3.87706">
        <ele>57</ele>
        <time>2021-02-20T15:50:07Z</time>
      </trkpt>
      <trkpt lat="43.61116" lon="3.87716">
        <ele>54</ele>
        <time>2021-02-20T15:50:11Z</time>
      </trkpt>
      <trkpt lat="43.6112" lon="3.87722">
        <ele>54</ele>
        <time>2021-02-20T15:50:13Z</time>
      </trkpt>
      <trkpt lat="43.61122" lon="3.87725">
        <ele>54</ele>
        <time>2021-02-20T15:50:14Z</time>
      </trkpt>
      <trkpt lat="43.61124" lon="3.87727">
        <ele>54</ele>
        <time>2021-02-20T15:50:15Z</time>
      </trkpt>
      <trkpt lat="43.61127" lon="3.87728">
        <ele>54</ele>
        <time>2021-02-20T15:50:16Z</time>
      </trkpt>
      <trkpt lat="43.6113" lon="3.87729">
        <ele>54</ele>
        <time>2021-02-20T15:50:17Z</time>
      </trkpt>
      <trkpt lat="43.61133" lon="3.8773">
        <ele>54</ele>
        <time>2021-02-20T15:50:18Z</time>
      </trkpt>
      <trkpt lat="43.61136" lon="3.8773">
        <ele>54</ele>
        <time>2021-02-20T15:50:19Z</time>
      </trkpt>
      <trkpt lat="43.61138" lon="3.87733">
        <ele>54</ele>
        <time>2021-02-20T15:50:21Z</time>
      </trkpt>
      <trkpt lat="43.61139" lon="3.87736">
        <ele>54</ele>
        <time>2021-02-20T15:50:23Z</time>
      </trkpt>
      <trkpt lat="43.61139" lon="3.87739">
        <ele>54</ele>
        <time>2021-02-20T15:50:26Z</time>
      </trkpt>
      <trkpt lat="43.61146" lon="3.87739">
        <ele>60</ele>
        <time>2021-02-20T15:50:31Z</time>
      </trkpt>
      <trkpt lat="43.6115" lon="3.87737">
        <ele>60</ele>
        <time>2021-02-20T15:50:35Z</time>
      </trkpt>
      <trkpt lat="43.61152" lon="3.87737">
        <ele>60</ele>
        <time>2021-02-20T15:50:38Z</time>
      </trkpt>
      <trkpt lat="43.61155" lon="3.87737">
        <ele>60</ele>
        <time>2021-02-20T15:50:45Z</time>
      </trkpt>
      <trkpt lat="43.61156" lon="3.87733">
        <ele>60</ele>
        <time>2021-02-20T15:50:49Z</time>
      </trkpt>
      <trkpt lat="43.61155" lon="3.87731">
        <ele>60</ele>
        <time>2021-02-20T15:50:52Z</time>
      </trkpt>
      <trkpt lat="43.61155" lon="3.87731">
        <ele>66</ele>
        <time>2021-02-20T15:50:55Z</time>
      </trkpt>
    </trkseg>
  </trk>
</gpx>